<?xml version='1.0' encoding='UTF-8'?><gpx version="1.1" creator="JPX - https://github.com/jenetics/jpx" xmlns="http://www.topografix.com/GPX/1/1"><trk><trkseg><trkpt lat="36.8087512" lon="10.3035765"><ele>2.0</ele><time>2026-04-04T13:58:36.373Z</time></trkpt><trkpt lat="36.8086989" lon="10.3036273"><ele>1.9999999999999998</ele><time>2026-04-04T13:58:43.402Z</time></trkpt><trkpt lat="36.8087172" lon="10.303707"><ele>2.0</ele><time>2026-04-04T13:59:10.4Z</time></trkpt><trkpt lat="36.8086533" lon="10.3036617"><ele>2.0</ele><time>2026-04-04T14:00:02.283Z</time></trkpt><trkpt lat="36.8087067" lon="10.3036033"><ele>1.9999999999999998</ele><time>2026-04-04T14:02:47.286Z</time></trkpt><trkpt lat="36.8087567" lon="10.3035483"><ele>2.0</ele><time>2026-04-04T14:02:49.284Z</time></trkpt><trkpt lat="36.8088117" lon="10.3035033"><ele>2.0</ele><time>2026-04-04T14:02:52.285Z</time></trkpt><trkpt lat="36.808895" lon="10.3035317"><ele>1.9999999999999998</ele><time>2026-04-04T14:02:55.281Z</time></trkpt><trkpt lat="36.808955" lon="10.3035583"><ele>2.0</ele><time>2026-04-04T14:02:57.283Z</time></trkpt><trkpt lat="36.80902" lon="10.3035917"><ele>2.0</ele><time>2026-04-04T14:03:21.282Z</time></trkpt><trkpt lat="36.809115" lon="10.303665"><ele>2.0</ele><time>2026-04-04T14:03:38.283Z</time></trkpt><trkpt lat="36.8091933" lon="10.3037417"><ele>1.9999999999999998</ele><time>2026-04-04T14:03:40.287Z</time></trkpt><trkpt lat="36.8092533" lon="10.3038083"><ele>2.0</ele><time>2026-04-04T14:03:42.287Z</time></trkpt><trkpt lat="36.8093033" lon="10.30386"><ele>1.6666666666666665</ele><time>2026-04-04T14:03:44.285Z</time></trkpt><trkpt lat="36.809365" lon="10.30392"><ele>1.3333333333333333</ele><time>2026-04-04T14:03:46.285Z</time></trkpt><trkpt lat="36.8094367" lon="10.303985"><ele>1.0</ele><time>2026-04-04T14:03:48.283Z</time></trkpt><trkpt lat="36.8095" lon="10.3040633"><ele>0.6666666666666666</ele><time>2026-04-04T14:03:50.282Z</time></trkpt><trkpt lat="36.8095233" lon="10.3041617"><ele>0.3333333333333333</ele><time>2026-04-04T14:03:52.284Z</time></trkpt><trkpt lat="36.8094983" lon="10.3042617"><ele>0.0</ele><time>2026-04-04T14:03:54.284Z</time></trkpt><trkpt lat="36.80944" lon="10.3043683"><ele>0.0</ele><time>2026-04-04T14:03:56.283Z</time></trkpt><trkpt lat="36.8093767" lon="10.3044533"><ele>0.0</ele><time>2026-04-04T14:03:58.282Z</time></trkpt><trkpt lat="36.8093233" lon="10.3045233"><ele>0.0</ele><time>2026-04-04T14:04:00.283Z</time></trkpt><trkpt lat="36.8092617" lon="10.3046167"><ele>0.0</ele><time>2026-04-04T14:04:02.283Z</time></trkpt><trkpt lat="36.8092117" lon="10.3047"><ele>0.0</ele><time>2026-04-04T14:04:04.283Z</time></trkpt><trkpt lat="36.80917" lon="10.3048"><ele>0.0</ele><time>2026-04-04T14:04:06.284Z</time></trkpt><trkpt lat="36.80912" lon="10.3048867"><ele>0.6</ele><time>2026-04-04T14:04:08.282Z</time></trkpt><trkpt lat="36.8090617" lon="10.3049733"><ele>1.2</ele><time>2026-04-04T14:04:11.286Z</time></trkpt><trkpt lat="36.8089617" lon="10.3049283"><ele>1.7999999999999998</ele><time>2026-04-04T14:05:36.286Z</time></trkpt><trkpt lat="36.8090117" lon="10.30502"><ele>2.4</ele><time>2026-04-04T14:10:23.286Z</time></trkpt><trkpt lat="36.809085" lon="10.3051033"><ele>3.0</ele><time>2026-04-04T14:12:23.285Z</time></trkpt><trkpt lat="36.8089733" lon="10.3050733"><ele>3.0</ele><time>2026-04-04T14:20:09.284Z</time></trkpt><trkpt lat="36.80889" lon="10.30506"><ele>3.0</ele><time>2026-04-04T14:20:12.285Z</time></trkpt><trkpt lat="36.8089183" lon="10.3051517"><ele>3.0</ele><time>2026-04-04T15:15:46.287Z</time></trkpt><trkpt lat="36.8089817" lon="10.30521"><ele>3.0</ele><time>2026-04-04T15:15:49.285Z</time></trkpt><trkpt lat="36.809045" lon="10.3052783"><ele>3.0</ele><time>2026-04-04T15:15:52.286Z</time></trkpt><trkpt lat="36.8090867" lon="10.3053433"><ele>3.0</ele><time>2026-04-04T15:15:56.284Z</time></trkpt><trkpt lat="36.80913" lon="10.3054067"><ele>2.9999999999999996</ele><time>2026-04-04T15:16:00.284Z</time></trkpt><trkpt lat="36.8091533" lon="10.305485"><ele>3.0</ele><time>2026-04-04T15:16:03.281Z</time></trkpt><trkpt lat="36.8091083" lon="10.3055667"><ele>3.0</ele><time>2026-04-04T15:16:07.282Z</time></trkpt><trkpt lat="36.8090633" lon="10.30565"><ele>3.0</ele><time>2026-04-04T15:16:19.286Z</time></trkpt><trkpt lat="36.8090367" lon="10.3057267"><ele>3.0</ele><time>2026-04-04T15:16:22.283Z</time></trkpt><trkpt lat="36.80904" lon="10.30583"><ele>2.9999999999999996</ele><time>2026-04-04T15:16:25.282Z</time></trkpt><trkpt lat="36.8090583" lon="10.3059083"><ele>3.0</ele><time>2026-04-04T15:16:27.283Z</time></trkpt><trkpt lat="36.80909" lon="10.3059767"><ele>2.8571428571428568</ele><time>2026-04-04T15:16:29.283Z</time></trkpt><trkpt lat="36.809145" lon="10.30604"><ele>2.7142857142857144</ele><time>2026-04-04T15:16:32.282Z</time></trkpt><trkpt lat="36.809205" lon="10.306095"><ele>2.571428571428571</ele><time>2026-04-04T15:16:35.284Z</time></trkpt><trkpt lat="36.809255" lon="10.3061517"><ele>2.4285714285714284</ele><time>2026-04-04T15:16:38.285Z</time></trkpt><trkpt lat="36.8093083" lon="10.3062083"><ele>2.2857142857142856</ele><time>2026-04-04T15:16:40.287Z</time></trkpt><trkpt lat="36.8093633" lon="10.306265"><ele>2.142857142857143</ele><time>2026-04-04T15:16:42.285Z</time></trkpt><trkpt lat="36.8094183" lon="10.3063433"><ele>2.0</ele><time>2026-04-04T15:16:44.284Z</time></trkpt><trkpt lat="36.8094733" lon="10.3064167"><ele>1.6</ele><time>2026-04-04T15:16:46.281Z</time></trkpt><trkpt lat="36.8095267" lon="10.3065"><ele>1.2000000000000002</ele><time>2026-04-04T15:16:49.284Z</time></trkpt><trkpt lat="36.8096117" lon="10.3065633"><ele>0.8</ele><time>2026-04-04T15:16:56.283Z</time></trkpt><trkpt lat="36.8097033" lon="10.306645"><ele>0.4</ele><time>2026-04-04T15:16:58.285Z</time></trkpt><trkpt lat="36.8097967" lon="10.306725"><ele>0.0</ele><time>2026-04-04T15:17:00.285Z</time></trkpt><trkpt lat="36.8098717" lon="10.3067883"><ele>0.0</ele><time>2026-04-04T15:17:02.284Z</time></trkpt><trkpt lat="36.809935" lon="10.3068333"><ele>0.0</ele><time>2026-04-04T15:17:04.285Z</time></trkpt><trkpt lat="36.81" lon="10.3068467"><ele>0.0</ele><time>2026-04-04T15:17:07.285Z</time></trkpt><trkpt lat="36.810085" lon="10.3068867"><ele>0.0</ele><time>2026-04-04T15:17:10.285Z</time></trkpt><trkpt lat="36.810135" lon="10.3068367"><ele>0.0</ele><time>2026-04-04T15:17:19.283Z</time></trkpt><trkpt lat="36.810135" lon="10.3067483"><ele>0.0</ele><time>2026-04-04T15:17:35.283Z</time></trkpt><trkpt lat="36.8101783" lon="10.30667"><ele>0.0</ele><time>2026-04-04T15:17:38.285Z</time></trkpt><trkpt lat="36.8102167" lon="10.3066033"><ele>1.0</ele><time>2026-04-04T15:17:41.286Z</time></trkpt><trkpt lat="36.81027" lon="10.3065333"><ele>2.0</ele><time>2026-04-04T15:17:45.283Z</time></trkpt><trkpt lat="36.8103083" lon="10.30647"><ele>3.0</ele><time>2026-04-04T15:17:48.286Z</time></trkpt><trkpt lat="36.8103633" lon="10.306365"><ele>4.0</ele><time>2026-04-04T15:17:51.285Z</time></trkpt><trkpt lat="36.8104283" lon="10.3062633"><ele>5.0</ele><time>2026-04-04T15:17:53.285Z</time></trkpt><trkpt lat="36.8105033" lon="10.30615"><ele>5.0</ele><time>2026-04-04T15:17:55.285Z</time></trkpt><trkpt lat="36.810565" lon="10.3060517"><ele>5.0</ele><time>2026-04-04T15:17:57.282Z</time></trkpt><trkpt lat="36.8106267" lon="10.3059567"><ele>5.0</ele><time>2026-04-04T15:17:59.282Z</time></trkpt><trkpt lat="36.81068" lon="10.3058733"><ele>5.0</ele><time>2026-04-04T15:18:01.285Z</time></trkpt><trkpt lat="36.81073" lon="10.3057917"><ele>5.0</ele><time>2026-04-04T15:18:03.285Z</time></trkpt><trkpt lat="36.8107933" lon="10.305695"><ele>4.666666666666667</ele><time>2026-04-04T15:18:05.285Z</time></trkpt><trkpt lat="36.81087" lon="10.3055667"><ele>4.333333333333334</ele><time>2026-04-04T15:18:07.285Z</time></trkpt><trkpt lat="36.810915" lon="10.3054933"><ele>4.0</ele><time>2026-04-04T15:18:08.285Z</time></trkpt><trkpt lat="36.8109633" lon="10.30542"><ele>3.666666666666667</ele><time>2026-04-04T15:18:09.286Z</time></trkpt><trkpt lat="36.81101" lon="10.3053483"><ele>3.3333333333333335</ele><time>2026-04-04T15:18:10.285Z</time></trkpt><trkpt lat="36.811055" lon="10.30528"><ele>3.0</ele><time>2026-04-04T15:18:11.283Z</time></trkpt><trkpt lat="36.8110983" lon="10.3052117"><ele>3.0</ele><time>2026-04-04T15:18:12.287Z</time></trkpt><trkpt lat="36.8111433" lon="10.30514"><ele>3.0</ele><time>2026-04-04T15:18:13.285Z</time></trkpt><trkpt lat="36.811195" lon="10.3050667"><ele>3.0</ele><time>2026-04-04T15:18:14.285Z</time></trkpt><trkpt lat="36.8112467" lon="10.3049933"><ele>3.0</ele><time>2026-04-04T15:18:15.285Z</time></trkpt><trkpt lat="36.8112983" lon="10.3049183"><ele>3.0</ele><time>2026-04-04T15:18:16.282Z</time></trkpt><trkpt lat="36.81135" lon="10.3048417"><ele>3.0</ele><time>2026-04-04T15:18:17.285Z</time></trkpt><trkpt lat="36.8114" lon="10.304765"><ele>3.0</ele><time>2026-04-04T15:18:18.286Z</time></trkpt><trkpt lat="36.8114517" lon="10.3046917"><ele>3.0</ele><time>2026-04-04T15:18:19.285Z</time></trkpt><trkpt lat="36.8115067" lon="10.304625"><ele>3.0</ele><time>2026-04-04T15:18:20.282Z</time></trkpt><trkpt lat="36.8115683" lon="10.3045717"><ele>3.0</ele><time>2026-04-04T15:18:21.282Z</time></trkpt><trkpt lat="36.81163" lon="10.3045317"><ele>3.0</ele><time>2026-04-04T15:18:22.287Z</time></trkpt><trkpt lat="36.811735" lon="10.30451"><ele>3.0</ele><time>2026-04-04T15:18:24.286Z</time></trkpt><trkpt lat="36.8117983" lon="10.3045133"><ele>2.8</ele><time>2026-04-04T15:18:26.283Z</time></trkpt><trkpt lat="36.8118717" lon="10.3044833"><ele>2.5999999999999996</ele><time>2026-04-04T15:18:29.286Z</time></trkpt><trkpt lat="36.81198" lon="10.30445"><ele>2.4000000000000004</ele><time>2026-04-04T15:18:31.288Z</time></trkpt><trkpt lat="36.8120983" lon="10.3044367"><ele>2.2</ele><time>2026-04-04T15:18:33.284Z</time></trkpt><trkpt lat="36.8122017" lon="10.3044417"><ele>2.0</ele><time>2026-04-04T15:18:35.285Z</time></trkpt><trkpt lat="36.8122783" lon="10.3044283"><ele>1.9999999999999998</ele><time>2026-04-04T15:24:43.285Z</time></trkpt><trkpt lat="36.8123533" lon="10.3044217"><ele>2.0</ele><time>2026-04-04T15:24:46.287Z</time></trkpt><trkpt lat="36.812475" lon="10.3043733"><ele>2.0</ele><time>2026-04-04T15:26:07.281Z</time></trkpt><trkpt lat="36.8125483" lon="10.3044017"><ele>2.0</ele><time>2026-04-04T15:26:09.283Z</time></trkpt><trkpt lat="36.8126317" lon="10.3044117"><ele>1.9999999999999998</ele><time>2026-04-04T15:26:11.282Z</time></trkpt><trkpt lat="36.8127117" lon="10.3043733"><ele>2.0</ele><time>2026-04-04T15:26:13.282Z</time></trkpt><trkpt lat="36.8127633" lon="10.3042967"><ele>2.2</ele><time>2026-04-04T15:26:15.285Z</time></trkpt><trkpt lat="36.8128067" lon="10.30417"><ele>2.4000000000000004</ele><time>2026-04-04T15:26:17.286Z</time></trkpt><trkpt lat="36.81287" lon="10.3040533"><ele>2.5999999999999996</ele><time>2026-04-04T15:26:19.284Z</time></trkpt><trkpt lat="36.8129483" lon="10.3039333"><ele>2.8</ele><time>2026-04-04T15:26:21.284Z</time></trkpt><trkpt lat="36.81299" lon="10.30387"><ele>3.0</ele><time>2026-04-04T15:26:22.285Z</time></trkpt><trkpt lat="36.8130333" lon="10.3037983"><ele>3.0</ele><time>2026-04-04T15:26:23.284Z</time></trkpt><trkpt lat="36.8130817" lon="10.3037233"><ele>3.0</ele><time>2026-04-04T15:26:24.286Z</time></trkpt><trkpt lat="36.81313" lon="10.3036483"><ele>3.0</ele><time>2026-04-04T15:26:25.285Z</time></trkpt><trkpt lat="36.8131783" lon="10.30357"><ele>3.0</ele><time>2026-04-04T15:26:26.285Z</time></trkpt><trkpt lat="36.81323" lon="10.3034883"><ele>3.0</ele><time>2026-04-04T15:26:27.286Z</time></trkpt><trkpt lat="36.8132817" lon="10.3034083"><ele>3.0</ele><time>2026-04-04T15:26:28.285Z</time></trkpt><trkpt lat="36.8133317" lon="10.303335"><ele>3.0</ele><time>2026-04-04T15:26:29.287Z</time></trkpt><trkpt lat="36.8133733" lon="10.3032683"><ele>3.0</ele><time>2026-04-04T15:26:30.286Z</time></trkpt><trkpt lat="36.81344" lon="10.3031617"><ele>3.0</ele><time>2026-04-04T15:26:32.284Z</time></trkpt><trkpt lat="36.8135133" lon="10.3030483"><ele>3.0</ele><time>2026-04-04T15:26:34.282Z</time></trkpt><trkpt lat="36.81356" lon="10.3029833"><ele>3.0</ele><time>2026-04-04T15:26:35.283Z</time></trkpt><trkpt lat="36.8136067" lon="10.3029233"><ele>3.0</ele><time>2026-04-04T15:26:36.283Z</time></trkpt><trkpt lat="36.81365" lon="10.302865"><ele>3.2</ele><time>2026-04-04T15:26:37.283Z</time></trkpt><trkpt lat="36.8137283" lon="10.3027533"><ele>3.4</ele><time>2026-04-04T15:26:39.283Z</time></trkpt><trkpt lat="36.813805" lon="10.3026583"><ele>3.6000000000000005</ele><time>2026-04-04T15:26:41.284Z</time></trkpt><trkpt lat="36.8138733" lon="10.3026"><ele>3.8000000000000003</ele><time>2026-04-04T15:26:43.282Z</time></trkpt><trkpt lat="36.8139333" lon="10.30256"><ele>4.0</ele><time>2026-04-04T15:26:45.285Z</time></trkpt><trkpt lat="36.8139967" lon="10.3025083"><ele>3.9999999999999996</ele><time>2026-04-04T15:26:48.286Z</time></trkpt><trkpt lat="36.8140567" lon="10.3024833"><ele>4.0</ele><time>2026-04-04T15:26:52.285Z</time></trkpt><trkpt lat="36.814125" lon="10.302485"><ele>4.0</ele><time>2026-04-04T15:26:56.285Z</time></trkpt><trkpt lat="36.81419" lon="10.3025217"><ele>4.0</ele><time>2026-04-04T15:26:59.285Z</time></trkpt><trkpt lat="36.8142833" lon="10.3025383"><ele>3.9999999999999996</ele><time>2026-04-04T15:27:13.283Z</time></trkpt><trkpt lat="36.81427" lon="10.3024367"><ele>4.0</ele><time>2026-04-04T15:27:16.282Z</time></trkpt><trkpt lat="36.814245" lon="10.3023517"><ele>4.0</ele><time>2026-04-04T15:27:18.283Z</time></trkpt><trkpt lat="36.8142233" lon="10.3022283"><ele>4.0</ele><time>2026-04-04T15:27:20.283Z</time></trkpt><trkpt lat="36.8142283" lon="10.3020917"><ele>4.0</ele><time>2026-04-04T15:27:22.282Z</time></trkpt><trkpt lat="36.8142633" lon="10.301945"><ele>4.0</ele><time>2026-04-04T15:27:24.285Z</time></trkpt><trkpt lat="36.8143183" lon="10.3018267"><ele>4.0</ele><time>2026-04-04T15:27:26.286Z</time></trkpt><trkpt lat="36.8143717" lon="10.301735"><ele>3.6666666666666665</ele><time>2026-04-04T15:27:28.285Z</time></trkpt><trkpt lat="36.8144417" lon="10.3016367"><ele>3.333333333333333</ele><time>2026-04-04T15:27:30.286Z</time></trkpt><trkpt lat="36.8144867" lon="10.3015717"><ele>3.0</ele><time>2026-04-04T15:27:31.285Z</time></trkpt><trkpt lat="36.8145333" lon="10.3014933"><ele>2.6666666666666665</ele><time>2026-04-04T15:27:32.285Z</time></trkpt><trkpt lat="36.8145833" lon="10.30141"><ele>2.333333333333333</ele><time>2026-04-04T15:27:33.282Z</time></trkpt><trkpt lat="36.8146367" lon="10.301325"><ele>2.0</ele><time>2026-04-04T15:27:34.283Z</time></trkpt><trkpt lat="36.814695" lon="10.3012317"><ele>2.0</ele><time>2026-04-04T15:27:35.283Z</time></trkpt><trkpt lat="36.8147583" lon="10.3011383"><ele>2.0</ele><time>2026-04-04T15:27:36.284Z</time></trkpt><trkpt lat="36.8148233" lon="10.3010417"><ele>2.0</ele><time>2026-04-04T15:27:37.283Z</time></trkpt><trkpt lat="36.8148867" lon="10.300945"><ele>2.0</ele><time>2026-04-04T15:27:38.283Z</time></trkpt><trkpt lat="36.8149467" lon="10.30085"><ele>2.0</ele><time>2026-04-04T15:27:39.284Z</time></trkpt><trkpt lat="36.8150083" lon="10.3007567"><ele>2.0</ele><time>2026-04-04T15:27:40.285Z</time></trkpt><trkpt lat="36.81507" lon="10.30066"><ele>2.0</ele><time>2026-04-04T15:27:41.285Z</time></trkpt><trkpt lat="36.8151267" lon="10.3005617"><ele>2.0</ele><time>2026-04-04T15:27:42.285Z</time></trkpt><trkpt lat="36.815185" lon="10.300465"><ele>2.0</ele><time>2026-04-04T15:27:43.285Z</time></trkpt><trkpt lat="36.815245" lon="10.3003683"><ele>2.0</ele><time>2026-04-04T15:27:44.284Z</time></trkpt><trkpt lat="36.8153117" lon="10.30027"><ele>1.75</ele><time>2026-04-04T15:27:45.284Z</time></trkpt><trkpt lat="36.8153817" lon="10.3001617"><ele>1.5</ele><time>2026-04-04T15:27:46.284Z</time></trkpt><trkpt lat="36.8154533" lon="10.3000467"><ele>1.25</ele><time>2026-04-04T15:27:47.284Z</time></trkpt><trkpt lat="36.8155267" lon="10.2999267"><ele>1.0</ele><time>2026-04-04T15:27:48.285Z</time></trkpt><trkpt lat="36.8155983" lon="10.2998067"><ele>1.2000000000000002</ele><time>2026-04-04T15:27:49.285Z</time></trkpt><trkpt lat="36.81567" lon="10.2996883"><ele>1.4000000000000001</ele><time>2026-04-04T15:27:50.286Z</time></trkpt><trkpt lat="36.8157417" lon="10.299575"><ele>1.6</ele><time>2026-04-04T15:27:51.282Z</time></trkpt><trkpt lat="36.81581" lon="10.2994633"><ele>1.8</ele><time>2026-04-04T15:27:52.282Z</time></trkpt><trkpt lat="36.815875" lon="10.299365"><ele>2.0</ele><time>2026-04-04T15:27:53.285Z</time></trkpt><trkpt lat="36.8159333" lon="10.2992733"><ele>1.9999999999999998</ele><time>2026-04-04T15:27:54.283Z</time></trkpt><trkpt lat="36.81599" lon="10.299185"><ele>2.0</ele><time>2026-04-04T15:27:55.285Z</time></trkpt><trkpt lat="36.8160467" lon="10.299095"><ele>2.0</ele><time>2026-04-04T15:27:56.285Z</time></trkpt><trkpt lat="36.8161033" lon="10.2990133"><ele>2.0</ele><time>2026-04-04T15:27:57.284Z</time></trkpt><trkpt lat="36.8161517" lon="10.2989367"><ele>1.9999999999999998</ele><time>2026-04-04T15:27:58.285Z</time></trkpt><trkpt lat="36.8162017" lon="10.29886"><ele>2.0</ele><time>2026-04-04T15:27:59.285Z</time></trkpt><trkpt lat="36.816255" lon="10.2987833"><ele>1.8333333333333333</ele><time>2026-04-04T15:28:00.284Z</time></trkpt><trkpt lat="36.8163067" lon="10.2987"><ele>1.6666666666666665</ele><time>2026-04-04T15:28:01.284Z</time></trkpt><trkpt lat="36.816355" lon="10.29861"><ele>1.5</ele><time>2026-04-04T15:28:02.285Z</time></trkpt><trkpt lat="36.8164083" lon="10.2985283"><ele>1.3333333333333333</ele><time>2026-04-04T15:28:03.282Z</time></trkpt><trkpt lat="36.8164617" lon="10.2984617"><ele>1.1666666666666665</ele><time>2026-04-04T15:28:04.282Z</time></trkpt><trkpt lat="36.8165283" lon="10.2983617"><ele>1.0</ele><time>2026-04-04T15:28:06.282Z</time></trkpt><trkpt lat="36.8165667" lon="10.298285"><ele>1.0</ele><time>2026-04-04T15:28:08.282Z</time></trkpt><trkpt lat="36.8166233" lon="10.2981917"><ele>1.0</ele><time>2026-04-04T15:28:10.284Z</time></trkpt><trkpt lat="36.8166717" lon="10.29811"><ele>1.0</ele><time>2026-04-04T15:28:12.286Z</time></trkpt><trkpt lat="36.8167483" lon="10.2979933"><ele>1.0</ele><time>2026-04-04T15:28:14.284Z</time></trkpt><trkpt lat="36.8167967" lon="10.2979167"><ele>1.0</ele><time>2026-04-04T15:28:15.283Z</time></trkpt><trkpt lat="36.8168517" lon="10.2978283"><ele>1.6</ele><time>2026-04-04T15:28:16.283Z</time></trkpt><trkpt lat="36.8169117" lon="10.297735"><ele>2.2</ele><time>2026-04-04T15:28:17.283Z</time></trkpt><trkpt lat="36.816975" lon="10.2976317"><ele>2.8000000000000003</ele><time>2026-04-04T15:28:18.282Z</time></trkpt><trkpt lat="36.8170433" lon="10.2975217"><ele>3.4000000000000004</ele><time>2026-04-04T15:28:19.282Z</time></trkpt><trkpt lat="36.817115" lon="10.2974083"><ele>4.0</ele><time>2026-04-04T15:28:20.282Z</time></trkpt><trkpt lat="36.81719" lon="10.2972867"><ele>3.25</ele><time>2026-04-04T15:28:21.282Z</time></trkpt><trkpt lat="36.8172633" lon="10.2971633"><ele>2.5</ele><time>2026-04-04T15:28:22.282Z</time></trkpt><trkpt lat="36.81734" lon="10.297035"><ele>1.75</ele><time>2026-04-04T15:28:23.282Z</time></trkpt><trkpt lat="36.8174183" lon="10.2969083"><ele>1.0</ele><time>2026-04-04T15:28:24.283Z</time></trkpt><trkpt lat="36.817495" lon="10.2967833"><ele>1.0</ele><time>2026-04-04T15:28:25.282Z</time></trkpt><trkpt lat="36.8175667" lon="10.2966667"><ele>1.0</ele><time>2026-04-04T15:28:26.282Z</time></trkpt><trkpt lat="36.8176333" lon="10.2965617"><ele>1.0</ele><time>2026-04-04T15:28:27.285Z</time></trkpt><trkpt lat="36.8176917" lon="10.2964667"><ele>1.0</ele><time>2026-04-04T15:28:28.284Z</time></trkpt><trkpt lat="36.8177483" lon="10.2963817"><ele>1.0</ele><time>2026-04-04T15:28:29.284Z</time></trkpt><trkpt lat="36.8178017" lon="10.2963083"><ele>0.5714285714285714</ele><time>2026-04-04T15:28:30.286Z</time></trkpt><trkpt lat="36.8178583" lon="10.2962533"><ele>0.1428571428571428</ele><time>2026-04-04T15:28:31.285Z</time></trkpt><trkpt lat="36.8179233" lon="10.296205"><ele>-0.2857142857142857</ele><time>2026-04-04T15:28:32.284Z</time></trkpt><trkpt lat="36.8179917" lon="10.2961617"><ele>-0.7142857142857142</ele><time>2026-04-04T15:28:33.284Z</time></trkpt><trkpt lat="36.8180483" lon="10.296115"><ele>-1.1428571428571428</ele><time>2026-04-04T15:28:34.286Z</time></trkpt><trkpt lat="36.8180917" lon="10.2960533"><ele>-1.5714285714285714</ele><time>2026-04-04T15:28:35.286Z</time></trkpt><trkpt lat="36.8181183" lon="10.2959767"><ele>-2.0</ele><time>2026-04-04T15:28:36.285Z</time></trkpt><trkpt lat="36.818135" lon="10.2958783"><ele>-2.0</ele><time>2026-04-04T15:28:37.285Z</time></trkpt><trkpt lat="36.818155" lon="10.2957683"><ele>-2.0</ele><time>2026-04-04T15:28:38.284Z</time></trkpt><trkpt lat="36.81819" lon="10.29565"><ele>-2.0</ele><time>2026-04-04T15:28:39.284Z</time></trkpt><trkpt lat="36.8182417" lon="10.2955267"><ele>-2.0</ele><time>2026-04-04T15:28:40.285Z</time></trkpt><trkpt lat="36.8183083" lon="10.2954017"><ele>-2.0</ele><time>2026-04-04T15:28:41.284Z</time></trkpt><trkpt lat="36.8183883" lon="10.2952617"><ele>-1.75</ele><time>2026-04-04T15:28:42.285Z</time></trkpt><trkpt lat="36.818475" lon="10.29512"><ele>-1.5</ele><time>2026-04-04T15:28:43.285Z</time></trkpt><trkpt lat="36.818565" lon="10.2949717"><ele>-1.25</ele><time>2026-04-04T15:28:44.282Z</time></trkpt><trkpt lat="36.8186583" lon="10.2948167"><ele>-1.0</ele><time>2026-04-04T15:28:45.283Z</time></trkpt><trkpt lat="36.8187533" lon="10.2946633"><ele>-0.25</ele><time>2026-04-04T15:28:46.282Z</time></trkpt><trkpt lat="36.8188483" lon="10.2945117"><ele>0.5</ele><time>2026-04-04T15:28:47.285Z</time></trkpt><trkpt lat="36.81894" lon="10.2943683"><ele>1.25</ele><time>2026-04-04T15:28:48.282Z</time></trkpt><trkpt lat="36.8190267" lon="10.2942383"><ele>2.0</ele><time>2026-04-04T15:28:49.282Z</time></trkpt><trkpt lat="36.81911" lon="10.29411"><ele>2.0</ele><time>2026-04-04T15:28:50.283Z</time></trkpt><trkpt lat="36.8191933" lon="10.29398"><ele>2.0</ele><time>2026-04-04T15:28:51.282Z</time></trkpt><trkpt lat="36.8192733" lon="10.29385"><ele>2.0</ele><time>2026-04-04T15:28:52.282Z</time></trkpt><trkpt lat="36.8193533" lon="10.2937167"><ele>2.0</ele><time>2026-04-04T15:28:53.282Z</time></trkpt><trkpt lat="36.819435" lon="10.2935833"><ele>1.6</ele><time>2026-04-04T15:28:54.283Z</time></trkpt><trkpt lat="36.8195133" lon="10.293455"><ele>1.2000000000000002</ele><time>2026-04-04T15:28:55.282Z</time></trkpt><trkpt lat="36.8195833" lon="10.29334"><ele>0.8</ele><time>2026-04-04T15:28:56.285Z</time></trkpt><trkpt lat="36.8196383" lon="10.2932483"><ele>0.4</ele><time>2026-04-04T15:28:57.285Z</time></trkpt><trkpt lat="36.81968" lon="10.2931783"><ele>0.0</ele><time>2026-04-04T15:28:58.286Z</time></trkpt><trkpt lat="36.8197233" lon="10.29309"><ele>0.0</ele><time>2026-04-04T15:29:00.283Z</time></trkpt><trkpt lat="36.8197683" lon="10.2930167"><ele>0.0</ele><time>2026-04-04T15:29:03.285Z</time></trkpt><trkpt lat="36.8198167" lon="10.29295"><ele>0.0</ele><time>2026-04-04T15:29:19.282Z</time></trkpt><trkpt lat="36.819885" lon="10.2928717"><ele>0.0</ele><time>2026-04-04T15:29:22.285Z</time></trkpt><trkpt lat="36.8199767" lon="10.2927967"><ele>0.0</ele><time>2026-04-04T15:29:24.282Z</time></trkpt><trkpt lat="36.820055" lon="10.2927483"><ele>0.0</ele><time>2026-04-04T15:29:26.283Z</time></trkpt><trkpt lat="36.8201317" lon="10.292675"><ele>0.0</ele><time>2026-04-04T15:29:28.285Z</time></trkpt><trkpt lat="36.8201583" lon="10.2925667"><ele>0.0</ele><time>2026-04-04T15:29:30.285Z</time></trkpt><trkpt lat="36.8201117" lon="10.2924417"><ele>0.0</ele><time>2026-04-04T15:29:32.285Z</time></trkpt><trkpt lat="36.8200633" lon="10.2923817"><ele>0.0</ele><time>2026-04-04T15:29:33.285Z</time></trkpt><trkpt lat="36.8200083" lon="10.292315"><ele>0.0</ele><time>2026-04-04T15:29:34.286Z</time></trkpt><trkpt lat="36.8199517" lon="10.2922333"><ele>0.0</ele><time>2026-04-04T15:29:35.285Z</time></trkpt><trkpt lat="36.8199" lon="10.2921333"><ele>0.0</ele><time>2026-04-04T15:29:36.285Z</time></trkpt><trkpt lat="36.81985" lon="10.292015"><ele>0.0</ele><time>2026-04-04T15:29:37.287Z</time></trkpt><trkpt lat="36.8198017" lon="10.2918867"><ele>0.0</ele><time>2026-04-04T15:29:38.286Z</time></trkpt><trkpt lat="36.81975" lon="10.2917517"><ele>0.0</ele><time>2026-04-04T15:29:39.286Z</time></trkpt><trkpt lat="36.8196933" lon="10.2916117"><ele>0.0</ele><time>2026-04-04T15:29:40.285Z</time></trkpt><trkpt lat="36.8196367" lon="10.291465"><ele>0.0</ele><time>2026-04-04T15:29:41.286Z</time></trkpt><trkpt lat="36.8195783" lon="10.2913183"><ele>0.0</ele><time>2026-04-04T15:29:42.286Z</time></trkpt><trkpt lat="36.8195217" lon="10.29117"><ele>0.0</ele><time>2026-04-04T15:29:43.286Z</time></trkpt><trkpt lat="36.8194633" lon="10.29102"><ele>0.0</ele><time>2026-04-04T15:29:44.285Z</time></trkpt><trkpt lat="36.8194033" lon="10.2908667"><ele>0.0</ele><time>2026-04-04T15:29:45.285Z</time></trkpt><trkpt lat="36.81934" lon="10.2907067"><ele>0.0</ele><time>2026-04-04T15:29:46.285Z</time></trkpt><trkpt lat="36.8192767" lon="10.2905433"><ele>0.0</ele><time>2026-04-04T15:29:47.286Z</time></trkpt><trkpt lat="36.8192117" lon="10.290375"><ele>0.0</ele><time>2026-04-04T15:29:48.285Z</time></trkpt><trkpt lat="36.8191467" lon="10.2902017"><ele>0.0</ele><time>2026-04-04T15:29:49.285Z</time></trkpt><trkpt lat="36.8190817" lon="10.2900267"><ele>0.0</ele><time>2026-04-04T15:29:50.285Z</time></trkpt><trkpt lat="36.8190133" lon="10.2898483"><ele>0.0</ele><time>2026-04-04T15:29:51.285Z</time></trkpt><trkpt lat="36.81894" lon="10.2896717"><ele>0.0</ele><time>2026-04-04T15:29:52.285Z</time></trkpt><trkpt lat="36.8188617" lon="10.2894833"><ele>0.0</ele><time>2026-04-04T15:29:53.283Z</time></trkpt><trkpt lat="36.8187883" lon="10.2892967"><ele>0.0</ele><time>2026-04-04T15:29:54.285Z</time></trkpt><trkpt lat="36.818715" lon="10.2891017"><ele>0.0</ele><time>2026-04-04T15:29:55.285Z</time></trkpt><trkpt lat="36.8186383" lon="10.2889033"><ele>0.0</ele><time>2026-04-04T15:29:56.285Z</time></trkpt><trkpt lat="36.818565" lon="10.2887033"><ele>0.0</ele><time>2026-04-04T15:29:57.286Z</time></trkpt><trkpt lat="36.81849" lon="10.2885033"><ele>0.0</ele><time>2026-04-04T15:29:58.285Z</time></trkpt><trkpt lat="36.8184167" lon="10.2883033"><ele>0.0</ele><time>2026-04-04T15:29:59.286Z</time></trkpt><trkpt lat="36.8183467" lon="10.2881033"><ele>0.0</ele><time>2026-04-04T15:30:00.286Z</time></trkpt><trkpt lat="36.818275" lon="10.287905"><ele>0.0</ele><time>2026-04-04T15:30:01.285Z</time></trkpt><trkpt lat="36.8182" lon="10.2877067"><ele>0.0</ele><time>2026-04-04T15:30:02.285Z</time></trkpt><trkpt lat="36.8181233" lon="10.2875067"><ele>0.0</ele><time>2026-04-04T15:30:03.285Z</time></trkpt><trkpt lat="36.818045" lon="10.287305"><ele>0.0</ele><time>2026-04-04T15:30:04.285Z</time></trkpt><trkpt lat="36.817965" lon="10.287105"><ele>0.0</ele><time>2026-04-04T15:30:05.285Z</time></trkpt><trkpt lat="36.8178883" lon="10.2869083"><ele>0.0</ele><time>2026-04-04T15:30:06.285Z</time></trkpt><trkpt lat="36.8178067" lon="10.28671"><ele>0.0</ele><time>2026-04-04T15:30:07.285Z</time></trkpt><trkpt lat="36.8177267" lon="10.28651"><ele>0.0</ele><time>2026-04-04T15:30:08.285Z</time></trkpt><trkpt lat="36.8176483" lon="10.28631"><ele>-0.3333333333333333</ele><time>2026-04-04T15:30:09.285Z</time></trkpt><trkpt lat="36.8175717" lon="10.28611"><ele>-0.6666666666666666</ele><time>2026-04-04T15:30:10.286Z</time></trkpt><trkpt lat="36.8174933" lon="10.28591"><ele>-1.0</ele><time>2026-04-04T15:30:11.285Z</time></trkpt><trkpt lat="36.8174167" lon="10.28571"><ele>-0.6666666666666666</ele><time>2026-04-04T15:30:12.285Z</time></trkpt><trkpt lat="36.8173417" lon="10.28551"><ele>-0.3333333333333333</ele><time>2026-04-04T15:30:13.285Z</time></trkpt><trkpt lat="36.817265" lon="10.2853117"><ele>0.0</ele><time>2026-04-04T15:30:14.286Z</time></trkpt><trkpt lat="36.81719" lon="10.285115"><ele>0.0</ele><time>2026-04-04T15:30:15.286Z</time></trkpt><trkpt lat="36.8171133" lon="10.2849183"><ele>0.0</ele><time>2026-04-04T15:30:16.286Z</time></trkpt><trkpt lat="36.8170383" lon="10.284725"><ele>0.0</ele><time>2026-04-04T15:30:17.285Z</time></trkpt><trkpt lat="36.8169633" lon="10.28453"><ele>0.0</ele><time>2026-04-04T15:30:18.287Z</time></trkpt><trkpt lat="36.8168883" lon="10.2843383"><ele>0.0</ele><time>2026-04-04T15:30:19.285Z</time></trkpt><trkpt lat="36.8168117" lon="10.2841467"><ele>0.0</ele><time>2026-04-04T15:30:20.287Z</time></trkpt><trkpt lat="36.81673" lon="10.283955"><ele>0.0</ele><time>2026-04-04T15:30:21.285Z</time></trkpt><trkpt lat="36.8166467" lon="10.2837633"><ele>0.0</ele><time>2026-04-04T15:30:22.285Z</time></trkpt><trkpt lat="36.8165583" lon="10.283565"><ele>0.0</ele><time>2026-04-04T15:30:23.283Z</time></trkpt><trkpt lat="36.816465" lon="10.2833683"><ele>0.0</ele><time>2026-04-04T15:30:24.285Z</time></trkpt><trkpt lat="36.8163667" lon="10.28317"><ele>0.0</ele><time>2026-04-04T15:30:25.285Z</time></trkpt><trkpt lat="36.8162617" lon="10.282975"><ele>0.0</ele><time>2026-04-04T15:30:26.285Z</time></trkpt><trkpt lat="36.8161517" lon="10.28278"><ele>0.0</ele><time>2026-04-04T15:30:27.286Z</time></trkpt><trkpt lat="36.8160383" lon="10.2825883"><ele>0.0</ele><time>2026-04-04T15:30:28.285Z</time></trkpt><trkpt lat="36.8159183" lon="10.282395"><ele>0.0</ele><time>2026-04-04T15:30:29.286Z</time></trkpt><trkpt lat="36.8157933" lon="10.282205"><ele>0.0</ele><time>2026-04-04T15:30:30.283Z</time></trkpt><trkpt lat="36.8156633" lon="10.2820167"><ele>0.0</ele><time>2026-04-04T15:30:31.286Z</time></trkpt><trkpt lat="36.81553" lon="10.281835"><ele>0.0</ele><time>2026-04-04T15:30:32.284Z</time></trkpt><trkpt lat="36.815395" lon="10.2816533"><ele>0.0</ele><time>2026-04-04T15:30:33.283Z</time></trkpt><trkpt lat="36.8152583" lon="10.281475"><ele>0.0</ele><time>2026-04-04T15:30:34.286Z</time></trkpt><trkpt lat="36.81512" lon="10.2813033"><ele>0.0</ele><time>2026-04-04T15:30:35.285Z</time></trkpt><trkpt lat="36.8149733" lon="10.2811367"><ele>0.0</ele><time>2026-04-04T15:30:36.285Z</time></trkpt><trkpt lat="36.8148233" lon="10.2809733"><ele>0.0</ele><time>2026-04-04T15:30:37.285Z</time></trkpt><trkpt lat="36.8146667" lon="10.280815"><ele>0.0</ele><time>2026-04-04T15:30:38.285Z</time></trkpt><trkpt lat="36.814505" lon="10.2806567"><ele>0.0</ele><time>2026-04-04T15:30:39.285Z</time></trkpt><trkpt lat="36.8143433" lon="10.280505"><ele>0.0</ele><time>2026-04-04T15:30:40.285Z</time></trkpt><trkpt lat="36.8141783" lon="10.2803583"><ele>0.0</ele><time>2026-04-04T15:30:41.285Z</time></trkpt><trkpt lat="36.8140083" lon="10.2802167"><ele>0.0</ele><time>2026-04-04T15:30:42.287Z</time></trkpt><trkpt lat="36.8138417" lon="10.2800817"><ele>0.0</ele><time>2026-04-04T15:30:43.286Z</time></trkpt><trkpt lat="36.8136733" lon="10.27995"><ele>0.0</ele><time>2026-04-04T15:30:44.285Z</time></trkpt><trkpt lat="36.8135033" lon="10.2798233"><ele>0.0</ele><time>2026-04-04T15:30:45.285Z</time></trkpt><trkpt lat="36.8133367" lon="10.279695"><ele>0.0</ele><time>2026-04-04T15:30:46.285Z</time></trkpt><trkpt lat="36.8131733" lon="10.2795667"><ele>0.0</ele><time>2026-04-04T15:30:47.285Z</time></trkpt><trkpt lat="36.8130133" lon="10.2794367"><ele>0.0</ele><time>2026-04-04T15:30:48.285Z</time></trkpt><trkpt lat="36.81286" lon="10.2792983"><ele>0.0</ele><time>2026-04-04T15:30:49.285Z</time></trkpt><trkpt lat="36.8127117" lon="10.2791517"><ele>0.0</ele><time>2026-04-04T15:30:50.286Z</time></trkpt><trkpt lat="36.81257" lon="10.2789967"><ele>0.0</ele><time>2026-04-04T15:30:51.283Z</time></trkpt><trkpt lat="36.8124317" lon="10.27883"><ele>0.0</ele><time>2026-04-04T15:30:52.283Z</time></trkpt><trkpt lat="36.8123017" lon="10.2786533"><ele>0.0</ele><time>2026-04-04T15:30:53.286Z</time></trkpt><trkpt lat="36.81218" lon="10.2784667"><ele>0.0</ele><time>2026-04-04T15:30:54.283Z</time></trkpt><trkpt lat="36.8120667" lon="10.2782683"><ele>0.0</ele><time>2026-04-04T15:30:55.286Z</time></trkpt><trkpt lat="36.811965" lon="10.27806"><ele>0.0</ele><time>2026-04-04T15:30:56.286Z</time></trkpt><trkpt lat="36.8118733" lon="10.2778383"><ele>0.0</ele><time>2026-04-04T15:30:57.285Z</time></trkpt><trkpt lat="36.81179" lon="10.2776"><ele>0.0</ele><time>2026-04-04T15:30:58.285Z</time></trkpt><trkpt lat="36.81172" lon="10.2773583"><ele>0.0</ele><time>2026-04-04T15:30:59.285Z</time></trkpt><trkpt lat="36.8116633" lon="10.2771167"><ele>0.0</ele><time>2026-04-04T15:31:00.285Z</time></trkpt><trkpt lat="36.811615" lon="10.2768683"><ele>0.0</ele><time>2026-04-04T15:31:01.284Z</time></trkpt><trkpt lat="36.8115717" lon="10.2766167"><ele>0.0</ele><time>2026-04-04T15:31:02.285Z</time></trkpt><trkpt lat="36.8115317" lon="10.2763683"><ele>0.0</ele><time>2026-04-04T15:31:03.284Z</time></trkpt><trkpt lat="36.81149" lon="10.27612"><ele>0.0</ele><time>2026-04-04T15:31:04.286Z</time></trkpt><trkpt lat="36.81145" lon="10.2758733"><ele>0.0</ele><time>2026-04-04T15:31:05.285Z</time></trkpt><trkpt lat="36.81141" lon="10.2756283"><ele>0.0</ele><time>2026-04-04T15:31:06.285Z</time></trkpt><trkpt lat="36.8113717" lon="10.2753867"><ele>0.0</ele><time>2026-04-04T15:31:07.284Z</time></trkpt><trkpt lat="36.8113333" lon="10.2751483"><ele>0.0</ele><time>2026-04-04T15:31:08.285Z</time></trkpt><trkpt lat="36.811295" lon="10.2749133"><ele>0.0</ele><time>2026-04-04T15:31:09.284Z</time></trkpt><trkpt lat="36.8112583" lon="10.274685"><ele>0.0</ele><time>2026-04-04T15:31:10.285Z</time></trkpt><trkpt lat="36.811225" lon="10.2744717"><ele>0.0</ele><time>2026-04-04T15:31:11.284Z</time></trkpt><trkpt lat="36.8111933" lon="10.2742717"><ele>0.0</ele><time>2026-04-04T15:31:12.284Z</time></trkpt><trkpt lat="36.8111617" lon="10.2740783"><ele>0.0</ele><time>2026-04-04T15:31:13.286Z</time></trkpt><trkpt lat="36.8111317" lon="10.27388"><ele>0.0</ele><time>2026-04-04T15:31:14.284Z</time></trkpt><trkpt lat="36.8111017" lon="10.2736783"><ele>0.0</ele><time>2026-04-04T15:31:15.284Z</time></trkpt><trkpt lat="36.81107" lon="10.2734717"><ele>0.0</ele><time>2026-04-04T15:31:16.286Z</time></trkpt><trkpt lat="36.8110383" lon="10.27326"><ele>0.0</ele><time>2026-04-04T15:31:17.285Z</time></trkpt><trkpt lat="36.8110033" lon="10.2730483"><ele>0.3333333333333333</ele><time>2026-04-04T15:31:18.285Z</time></trkpt><trkpt lat="36.81097" lon="10.272835"><ele>0.6666666666666666</ele><time>2026-04-04T15:31:19.285Z</time></trkpt><trkpt lat="36.8109367" lon="10.272625"><ele>1.0</ele><time>2026-04-04T15:31:20.284Z</time></trkpt><trkpt lat="36.810905" lon="10.2724133"><ele>0.3333333333333333</ele><time>2026-04-04T15:31:21.285Z</time></trkpt><trkpt lat="36.8108767" lon="10.2722"><ele>-0.3333333333333333</ele><time>2026-04-04T15:31:22.286Z</time></trkpt><trkpt lat="36.8108467" lon="10.271985"><ele>-1.0</ele><time>2026-04-04T15:31:23.285Z</time></trkpt><trkpt lat="36.8108217" lon="10.2717683"><ele>-1.0</ele><time>2026-04-04T15:31:24.285Z</time></trkpt><trkpt lat="36.8108" lon="10.2715467"><ele>-1.0</ele><time>2026-04-04T15:31:25.284Z</time></trkpt><trkpt lat="36.81078" lon="10.27132"><ele>-1.0</ele><time>2026-04-04T15:31:26.285Z</time></trkpt><trkpt lat="36.8107583" lon="10.2710883"><ele>-0.3333333333333333</ele><time>2026-04-04T15:31:27.285Z</time></trkpt><trkpt lat="36.8107433" lon="10.270855"><ele>0.3333333333333333</ele><time>2026-04-04T15:31:28.284Z</time></trkpt><trkpt lat="36.8107317" lon="10.27062"><ele>1.0</ele><time>2026-04-04T15:31:29.285Z</time></trkpt><trkpt lat="36.8107217" lon="10.2703867"><ele>1.0</ele><time>2026-04-04T15:31:30.286Z</time></trkpt><trkpt lat="36.810715" lon="10.270155"><ele>1.0</ele><time>2026-04-04T15:31:31.284Z</time></trkpt><trkpt lat="36.8107117" lon="10.2699217"><ele>1.0</ele><time>2026-04-04T15:31:32.286Z</time></trkpt><trkpt lat="36.8107117" lon="10.2696867"><ele>0.6666666666666666</ele><time>2026-04-04T15:31:33.284Z</time></trkpt><trkpt lat="36.8107117" lon="10.2694533"><ele>0.3333333333333333</ele><time>2026-04-04T15:31:34.286Z</time></trkpt><trkpt lat="36.8107167" lon="10.26922"><ele>0.0</ele><time>2026-04-04T15:31:35.284Z</time></trkpt><trkpt lat="36.8107233" lon="10.2689833"><ele>0.0</ele><time>2026-04-04T15:31:36.285Z</time></trkpt><trkpt lat="36.8107317" lon="10.268745"><ele>0.0</ele><time>2026-04-04T15:31:37.285Z</time></trkpt><trkpt lat="36.8107433" lon="10.2685067"><ele>0.0</ele><time>2026-04-04T15:31:38.285Z</time></trkpt><trkpt lat="36.8107567" lon="10.26827"><ele>0.0</ele><time>2026-04-04T15:31:39.284Z</time></trkpt><trkpt lat="36.81077" lon="10.2680383"><ele>0.0</ele><time>2026-04-04T15:31:40.285Z</time></trkpt><trkpt lat="36.810785" lon="10.2678083"><ele>0.0</ele><time>2026-04-04T15:31:41.285Z</time></trkpt><trkpt lat="36.8108" lon="10.2675783"><ele>0.0</ele><time>2026-04-04T15:31:42.285Z</time></trkpt><trkpt lat="36.81082" lon="10.2673533"><ele>0.0</ele><time>2026-04-04T15:31:43.284Z</time></trkpt><trkpt lat="36.8108367" lon="10.2671267"><ele>0.0</ele><time>2026-04-04T15:31:44.285Z</time></trkpt><trkpt lat="36.8108533" lon="10.2669017"><ele>0.0</ele><time>2026-04-04T15:31:45.284Z</time></trkpt><trkpt lat="36.81087" lon="10.26668"><ele>0.0</ele><time>2026-04-04T15:31:46.284Z</time></trkpt><trkpt lat="36.810885" lon="10.2664617"><ele>0.0</ele><time>2026-04-04T15:31:47.286Z</time></trkpt><trkpt lat="36.8108967" lon="10.26625"><ele>0.0</ele><time>2026-04-04T15:31:48.285Z</time></trkpt><trkpt lat="36.8109083" lon="10.266045"><ele>0.0</ele><time>2026-04-04T15:31:49.284Z</time></trkpt><trkpt lat="36.8109133" lon="10.265835"><ele>0.0</ele><time>2026-04-04T15:31:50.284Z</time></trkpt><trkpt lat="36.810915" lon="10.265615"><ele>0.0</ele><time>2026-04-04T15:31:51.285Z</time></trkpt><trkpt lat="36.8109167" lon="10.265385"><ele>0.0</ele><time>2026-04-04T15:31:52.285Z</time></trkpt><trkpt lat="36.8109233" lon="10.265145"><ele>0.0</ele><time>2026-04-04T15:31:53.285Z</time></trkpt><trkpt lat="36.81093" lon="10.264895"><ele>0.0</ele><time>2026-04-04T15:31:54.286Z</time></trkpt><trkpt lat="36.8109367" lon="10.264635"><ele>0.0</ele><time>2026-04-04T15:31:55.285Z</time></trkpt><trkpt lat="36.810945" lon="10.2643667"><ele>0.0</ele><time>2026-04-04T15:31:56.286Z</time></trkpt><trkpt lat="36.81095" lon="10.2640983"><ele>0.0</ele><time>2026-04-04T15:31:57.286Z</time></trkpt><trkpt lat="36.8109583" lon="10.2638317"><ele>0.0</ele><time>2026-04-04T15:31:58.285Z</time></trkpt><trkpt lat="36.8109683" lon="10.26357"><ele>0.0</ele><time>2026-04-04T15:31:59.285Z</time></trkpt><trkpt lat="36.8109817" lon="10.2633167"><ele>0.0</ele><time>2026-04-04T15:32:00.286Z</time></trkpt><trkpt lat="36.811005" lon="10.2630883"><ele>0.0</ele><time>2026-04-04T15:32:01.284Z</time></trkpt><trkpt lat="36.8110367" lon="10.26288"><ele>0.0</ele><time>2026-04-04T15:32:02.283Z</time></trkpt><trkpt lat="36.81108" lon="10.262685"><ele>0.0</ele><time>2026-04-04T15:32:03.284Z</time></trkpt><trkpt lat="36.81113" lon="10.2625033"><ele>0.0</ele><time>2026-04-04T15:32:04.283Z</time></trkpt><trkpt lat="36.8111883" lon="10.26233"><ele>0.0</ele><time>2026-04-04T15:32:05.283Z</time></trkpt><trkpt lat="36.8112483" lon="10.2621617"><ele>0.0</ele><time>2026-04-04T15:32:06.282Z</time></trkpt><trkpt lat="36.8113083" lon="10.2619933"><ele>0.0</ele><time>2026-04-04T15:32:07.284Z</time></trkpt><trkpt lat="36.8113633" lon="10.2618217"><ele>0.0</ele><time>2026-04-04T15:32:08.282Z</time></trkpt><trkpt lat="36.8114133" lon="10.261645"><ele>0.0</ele><time>2026-04-04T15:32:09.282Z</time></trkpt><trkpt lat="36.8114517" lon="10.261465"><ele>0.0</ele><time>2026-04-04T15:32:10.285Z</time></trkpt><trkpt lat="36.81148" lon="10.2612783"><ele>0.0</ele><time>2026-04-04T15:32:11.285Z</time></trkpt><trkpt lat="36.8114933" lon="10.26109"><ele>0.0</ele><time>2026-04-04T15:32:12.286Z</time></trkpt><trkpt lat="36.8114867" lon="10.2609033"><ele>0.0</ele><time>2026-04-04T15:32:13.286Z</time></trkpt><trkpt lat="36.8114633" lon="10.2607183"><ele>0.0</ele><time>2026-04-04T15:32:14.285Z</time></trkpt><trkpt lat="36.8114233" lon="10.2605367"><ele>0.0</ele><time>2026-04-04T15:32:15.285Z</time></trkpt><trkpt lat="36.8113633" lon="10.2603633"><ele>0.0</ele><time>2026-04-04T15:32:16.285Z</time></trkpt><trkpt lat="36.8112867" lon="10.2602017"><ele>0.0</ele><time>2026-04-04T15:32:17.285Z</time></trkpt><trkpt lat="36.81119" lon="10.2600517"><ele>0.0</ele><time>2026-04-04T15:32:18.285Z</time></trkpt><trkpt lat="36.81108" lon="10.2599167"><ele>0.0</ele><time>2026-04-04T15:32:19.282Z</time></trkpt><trkpt lat="36.810955" lon="10.2598017"><ele>0.0</ele><time>2026-04-04T15:32:20.285Z</time></trkpt><trkpt lat="36.8108233" lon="10.2597083"><ele>0.0</ele><time>2026-04-04T15:32:21.285Z</time></trkpt><trkpt lat="36.8106817" lon="10.2596367"><ele>0.0</ele><time>2026-04-04T15:32:22.285Z</time></trkpt><trkpt lat="36.81053" lon="10.25959"><ele>0.0</ele><time>2026-04-04T15:32:23.285Z</time></trkpt><trkpt lat="36.8103717" lon="10.2595633"><ele>0.0</ele><time>2026-04-04T15:32:24.284Z</time></trkpt><trkpt lat="36.81021" lon="10.2595533"><ele>0.0</ele><time>2026-04-04T15:32:25.284Z</time></trkpt><trkpt lat="36.81004" lon="10.2595583"><ele>0.0</ele><time>2026-04-04T15:32:26.283Z</time></trkpt><trkpt lat="36.8098667" lon="10.2595767"><ele>0.0</ele><time>2026-04-04T15:32:27.282Z</time></trkpt><trkpt lat="36.809695" lon="10.259605"><ele>0.0</ele><time>2026-04-04T15:32:28.283Z</time></trkpt><trkpt lat="36.8095267" lon="10.2596383"><ele>0.0</ele><time>2026-04-04T15:32:29.283Z</time></trkpt><trkpt lat="36.80936" lon="10.2596717"><ele>0.0</ele><time>2026-04-04T15:32:30.283Z</time></trkpt><trkpt lat="36.809195" lon="10.25971"><ele>0.0</ele><time>2026-04-04T15:32:31.284Z</time></trkpt><trkpt lat="36.80903" lon="10.2597483"><ele>0.0</ele><time>2026-04-04T15:32:32.282Z</time></trkpt><trkpt lat="36.8088667" lon="10.2597883"><ele>0.0</ele><time>2026-04-04T15:32:33.283Z</time></trkpt><trkpt lat="36.8087033" lon="10.2598283"><ele>0.0</ele><time>2026-04-04T15:32:34.282Z</time></trkpt><trkpt lat="36.8085417" lon="10.2598667"><ele>0.0</ele><time>2026-04-04T15:32:35.283Z</time></trkpt><trkpt lat="36.80838" lon="10.259905"><ele>0.0</ele><time>2026-04-04T15:32:36.282Z</time></trkpt><trkpt lat="36.8082167" lon="10.2599433"><ele>-0.6666666666666666</ele><time>2026-04-04T15:32:37.282Z</time></trkpt><trkpt lat="36.8080517" lon="10.2599817"><ele>-1.3333333333333333</ele><time>2026-04-04T15:32:38.282Z</time></trkpt><trkpt lat="36.8078833" lon="10.260025"><ele>-2.0</ele><time>2026-04-04T15:32:39.284Z</time></trkpt><trkpt lat="36.8077133" lon="10.26007"><ele>-1.3333333333333333</ele><time>2026-04-04T15:32:40.282Z</time></trkpt><trkpt lat="36.8075417" lon="10.2601117"><ele>-0.6666666666666666</ele><time>2026-04-04T15:32:41.282Z</time></trkpt><trkpt lat="36.8073667" lon="10.2601517"><ele>0.0</ele><time>2026-04-04T15:32:42.283Z</time></trkpt><trkpt lat="36.807195" lon="10.260195"><ele>0.0</ele><time>2026-04-04T15:32:43.286Z</time></trkpt><trkpt lat="36.8070267" lon="10.2602383"><ele>0.0</ele><time>2026-04-04T15:32:44.283Z</time></trkpt><trkpt lat="36.80686" lon="10.2602783"><ele>0.0</ele><time>2026-04-04T15:32:45.283Z</time></trkpt><trkpt lat="36.8066917" lon="10.2603183"><ele>0.0</ele><time>2026-04-04T15:32:46.283Z</time></trkpt><trkpt lat="36.8065217" lon="10.2603583"><ele>0.0</ele><time>2026-04-04T15:32:47.283Z</time></trkpt><trkpt lat="36.80635" lon="10.2603967"><ele>0.0</ele><time>2026-04-04T15:32:48.283Z</time></trkpt><trkpt lat="36.8061767" lon="10.2604367"><ele>0.0</ele><time>2026-04-04T15:32:49.282Z</time></trkpt><trkpt lat="36.806" lon="10.26048"><ele>0.0</ele><time>2026-04-04T15:32:50.282Z</time></trkpt><trkpt lat="36.8058217" lon="10.260525"><ele>0.0</ele><time>2026-04-04T15:32:51.284Z</time></trkpt><trkpt lat="36.8056433" lon="10.26057"><ele>0.0</ele><time>2026-04-04T15:32:52.282Z</time></trkpt><trkpt lat="36.8054633" lon="10.260615"><ele>0.0</ele><time>2026-04-04T15:32:53.283Z</time></trkpt><trkpt lat="36.805285" lon="10.26066"><ele>0.0</ele><time>2026-04-04T15:32:54.283Z</time></trkpt><trkpt lat="36.8051033" lon="10.260705"><ele>0.0</ele><time>2026-04-04T15:32:55.284Z</time></trkpt><trkpt lat="36.8049217" lon="10.26075"><ele>0.0</ele><time>2026-04-04T15:32:56.284Z</time></trkpt><trkpt lat="36.8047383" lon="10.260795"><ele>0.0</ele><time>2026-04-04T15:32:57.283Z</time></trkpt><trkpt lat="36.804555" lon="10.2608417"><ele>0.0</ele><time>2026-04-04T15:32:58.283Z</time></trkpt><trkpt lat="36.8043683" lon="10.2608883"><ele>0.0</ele><time>2026-04-04T15:32:59.283Z</time></trkpt><trkpt lat="36.8041783" lon="10.2609367"><ele>0.0</ele><time>2026-04-04T15:33:00.284Z</time></trkpt><trkpt lat="36.8039883" lon="10.2609883"><ele>0.0</ele><time>2026-04-04T15:33:01.283Z</time></trkpt><trkpt lat="36.8037967" lon="10.26104"><ele>0.0</ele><time>2026-04-04T15:33:02.283Z</time></trkpt><trkpt lat="36.80361" lon="10.2610867"><ele>0.0</ele><time>2026-04-04T15:33:03.284Z</time></trkpt><trkpt lat="36.8034267" lon="10.2611333"><ele>0.0</ele><time>2026-04-04T15:33:04.284Z</time></trkpt><trkpt lat="36.803245" lon="10.26118"><ele>0.0</ele><time>2026-04-04T15:33:05.283Z</time></trkpt><trkpt lat="36.803065" lon="10.261225"><ele>0.0</ele><time>2026-04-04T15:33:06.283Z</time></trkpt><trkpt lat="36.8028833" lon="10.26127"><ele>0.0</ele><time>2026-04-04T15:33:07.283Z</time></trkpt><trkpt lat="36.8026983" lon="10.261315"><ele>0.0</ele><time>2026-04-04T15:33:08.282Z</time></trkpt><trkpt lat="36.8025133" lon="10.2613567"><ele>0.0</ele><time>2026-04-04T15:33:09.283Z</time></trkpt><trkpt lat="36.8023233" lon="10.2614033"><ele>0.0</ele><time>2026-04-04T15:33:10.285Z</time></trkpt><trkpt lat="36.8021317" lon="10.26145"><ele>0.0</ele><time>2026-04-04T15:33:11.285Z</time></trkpt><trkpt lat="36.8019367" lon="10.2614983"><ele>0.0</ele><time>2026-04-04T15:33:12.286Z</time></trkpt><trkpt lat="36.8017417" lon="10.2615483"><ele>0.0</ele><time>2026-04-04T15:33:13.286Z</time></trkpt><trkpt lat="36.8015467" lon="10.2615983"><ele>0.0</ele><time>2026-04-04T15:33:14.286Z</time></trkpt><trkpt lat="36.8013533" lon="10.261645"><ele>0.0</ele><time>2026-04-04T15:33:15.285Z</time></trkpt><trkpt lat="36.8011567" lon="10.26169"><ele>0.0</ele><time>2026-04-04T15:33:16.285Z</time></trkpt><trkpt lat="36.8009583" lon="10.26174"><ele>0.0</ele><time>2026-04-04T15:33:17.285Z</time></trkpt><trkpt lat="36.80076" lon="10.2617883"><ele>0.0</ele><time>2026-04-04T15:33:18.285Z</time></trkpt><trkpt lat="36.8005617" lon="10.2618383"><ele>0.0</ele><time>2026-04-04T15:33:19.286Z</time></trkpt><trkpt lat="36.8003633" lon="10.2618883"><ele>0.0</ele><time>2026-04-04T15:33:20.285Z</time></trkpt><trkpt lat="36.80017" lon="10.2619367"><ele>0.0</ele><time>2026-04-04T15:33:21.286Z</time></trkpt><trkpt lat="36.799975" lon="10.261985"><ele>0.0</ele><time>2026-04-04T15:33:22.285Z</time></trkpt><trkpt lat="36.79978" lon="10.2620317"><ele>0.0</ele><time>2026-04-04T15:33:23.285Z</time></trkpt><trkpt lat="36.799585" lon="10.262085"><ele>0.0</ele><time>2026-04-04T15:33:24.284Z</time></trkpt><trkpt lat="36.799395" lon="10.26215"><ele>0.0</ele><time>2026-04-04T15:33:25.283Z</time></trkpt><trkpt lat="36.7992083" lon="10.2622233"><ele>0.0</ele><time>2026-04-04T15:33:26.283Z</time></trkpt><trkpt lat="36.7990267" lon="10.2623133"><ele>0.0</ele><time>2026-04-04T15:33:27.283Z</time></trkpt><trkpt lat="36.79885" lon="10.2624217"><ele>0.0</ele><time>2026-04-04T15:33:28.285Z</time></trkpt><trkpt lat="36.79868" lon="10.2625483"><ele>0.0</ele><time>2026-04-04T15:33:29.285Z</time></trkpt><trkpt lat="36.79852" lon="10.2626967"><ele>0.0</ele><time>2026-04-04T15:33:30.282Z</time></trkpt><trkpt lat="36.7983717" lon="10.2628667"><ele>0.0</ele><time>2026-04-04T15:33:31.282Z</time></trkpt><trkpt lat="36.7982383" lon="10.2630533"><ele>0.0</ele><time>2026-04-04T15:33:32.283Z</time></trkpt><trkpt lat="36.79812" lon="10.263255"><ele>0.0</ele><time>2026-04-04T15:33:33.283Z</time></trkpt><trkpt lat="36.7980133" lon="10.2634717"><ele>0.0</ele><time>2026-04-04T15:33:34.283Z</time></trkpt><trkpt lat="36.797925" lon="10.2637033"><ele>0.0</ele><time>2026-04-04T15:33:35.283Z</time></trkpt><trkpt lat="36.7978517" lon="10.2639417"><ele>0.0</ele><time>2026-04-04T15:33:36.283Z</time></trkpt><trkpt lat="36.797795" lon="10.2641883"><ele>0.3333333333333333</ele><time>2026-04-04T15:33:37.283Z</time></trkpt><trkpt lat="36.797755" lon="10.2644433"><ele>0.6666666666666666</ele><time>2026-04-04T15:33:38.282Z</time></trkpt><trkpt lat="36.79773" lon="10.2647"><ele>1.0</ele><time>2026-04-04T15:33:39.282Z</time></trkpt><trkpt lat="36.7977167" lon="10.2649583"><ele>0.3333333333333333</ele><time>2026-04-04T15:33:40.285Z</time></trkpt><trkpt lat="36.7977133" lon="10.2652183"><ele>-0.3333333333333333</ele><time>2026-04-04T15:33:41.286Z</time></trkpt><trkpt lat="36.7977133" lon="10.2654783"><ele>-1.0</ele><time>2026-04-04T15:33:42.285Z</time></trkpt><trkpt lat="36.797715" lon="10.265725"><ele>-1.0</ele><time>2026-04-04T15:33:43.285Z</time></trkpt><trkpt lat="36.7977183" lon="10.2659633"><ele>-1.0</ele><time>2026-04-04T15:33:44.285Z</time></trkpt><trkpt lat="36.79772" lon="10.2661917"><ele>-1.0</ele><time>2026-04-04T15:33:45.285Z</time></trkpt><trkpt lat="36.7977233" lon="10.26642"><ele>-1.0</ele><time>2026-04-04T15:33:46.285Z</time></trkpt><trkpt lat="36.7977267" lon="10.266645"><ele>-1.0</ele><time>2026-04-04T15:33:47.282Z</time></trkpt><trkpt lat="36.7977283" lon="10.266865"><ele>-1.0</ele><time>2026-04-04T15:33:48.284Z</time></trkpt><trkpt lat="36.7977283" lon="10.26708"><ele>-1.0</ele><time>2026-04-04T15:33:49.283Z</time></trkpt><trkpt lat="36.79773" lon="10.267295"><ele>-1.0</ele><time>2026-04-04T15:33:50.283Z</time></trkpt><trkpt lat="36.7977333" lon="10.26751"><ele>-1.0</ele><time>2026-04-04T15:33:51.284Z</time></trkpt><trkpt lat="36.79774" lon="10.2677267"><ele>-1.0</ele><time>2026-04-04T15:33:52.283Z</time></trkpt><trkpt lat="36.7977433" lon="10.267945"><ele>-1.0</ele><time>2026-04-04T15:33:53.283Z</time></trkpt><trkpt lat="36.797745" lon="10.2681667"><ele>-1.0</ele><time>2026-04-04T15:33:54.283Z</time></trkpt><trkpt lat="36.797745" lon="10.2683867"><ele>-1.3333333333333333</ele><time>2026-04-04T15:33:55.283Z</time></trkpt><trkpt lat="36.797745" lon="10.2686083"><ele>-1.6666666666666665</ele><time>2026-04-04T15:33:56.283Z</time></trkpt><trkpt lat="36.797745" lon="10.2688283"><ele>-2.0</ele><time>2026-04-04T15:33:57.284Z</time></trkpt><trkpt lat="36.7977467" lon="10.26905"><ele>-1.0</ele><time>2026-04-04T15:33:58.283Z</time></trkpt><trkpt lat="36.7977467" lon="10.26927"><ele>0.0</ele><time>2026-04-04T15:33:59.283Z</time></trkpt><trkpt lat="36.7977433" lon="10.2694867"><ele>1.0</ele><time>2026-04-04T15:34:00.283Z</time></trkpt><trkpt lat="36.7977333" lon="10.269695"><ele>0.0</ele><time>2026-04-04T15:34:01.283Z</time></trkpt><trkpt lat="36.7977217" lon="10.2698933"><ele>-1.0</ele><time>2026-04-04T15:34:02.283Z</time></trkpt><trkpt lat="36.7977" lon="10.2700867"><ele>-2.0</ele><time>2026-04-04T15:34:03.285Z</time></trkpt><trkpt lat="36.7976683" lon="10.2702783"><ele>-4.0</ele><time>2026-04-04T15:34:04.285Z</time></trkpt><trkpt lat="36.7976217" lon="10.2704683"><ele>-6.0</ele><time>2026-04-04T15:34:05.286Z</time></trkpt><trkpt lat="36.79756" lon="10.2706567"><ele>-8.0</ele><time>2026-04-04T15:34:06.285Z</time></trkpt><trkpt lat="36.7974817" lon="10.270835"><ele>-8.0</ele><time>2026-04-04T15:34:07.285Z</time></trkpt><trkpt lat="36.797395" lon="10.2710133"><ele>-8.0</ele><time>2026-04-04T15:34:08.285Z</time></trkpt><trkpt lat="36.7972983" lon="10.2711833"><ele>-8.0</ele><time>2026-04-04T15:34:09.283Z</time></trkpt><trkpt lat="36.7971917" lon="10.2713433"><ele>-7.333333333333333</ele><time>2026-04-04T15:34:10.287Z</time></trkpt><trkpt lat="36.7970717" lon="10.2714917"><ele>-6.666666666666666</ele><time>2026-04-04T15:34:11.286Z</time></trkpt><trkpt lat="36.7969417" lon="10.27163"><ele>-6.0</ele><time>2026-04-04T15:34:12.286Z</time></trkpt><trkpt lat="36.796805" lon="10.2717567"><ele>-6.0</ele><time>2026-04-04T15:34:13.285Z</time></trkpt><trkpt lat="36.79666" lon="10.27187"><ele>-6.0</ele><time>2026-04-04T15:34:14.285Z</time></trkpt><trkpt lat="36.7965117" lon="10.27196"><ele>-6.0</ele><time>2026-04-04T15:34:15.285Z</time></trkpt><trkpt lat="36.79636" lon="10.2720367"><ele>-6.0</ele><time>2026-04-04T15:34:16.285Z</time></trkpt><trkpt lat="36.7962033" lon="10.2721017"><ele>-6.0</ele><time>2026-04-04T15:34:17.284Z</time></trkpt><trkpt lat="36.7960417" lon="10.2721533"><ele>-6.0</ele><time>2026-04-04T15:34:18.283Z</time></trkpt><trkpt lat="36.795875" lon="10.27219"><ele>-5.333333333333333</ele><time>2026-04-04T15:34:19.284Z</time></trkpt><trkpt lat="36.79571" lon="10.2722217"><ele>-4.666666666666666</ele><time>2026-04-04T15:34:20.283Z</time></trkpt><trkpt lat="36.7955483" lon="10.2722483"><ele>-4.0</ele><time>2026-04-04T15:34:21.283Z</time></trkpt><trkpt lat="36.7953833" lon="10.272275"><ele>-4.0</ele><time>2026-04-04T15:34:22.285Z</time></trkpt><trkpt lat="36.7952217" lon="10.2722983"><ele>-4.0</ele><time>2026-04-04T15:34:23.285Z</time></trkpt><trkpt lat="36.7950533" lon="10.2723233"><ele>-4.0</ele><time>2026-04-04T15:34:24.283Z</time></trkpt><trkpt lat="36.79488" lon="10.27235"><ele>-4.0</ele><time>2026-04-04T15:34:25.282Z</time></trkpt><trkpt lat="36.7947033" lon="10.2723783"><ele>-4.0</ele><time>2026-04-04T15:34:26.282Z</time></trkpt><trkpt lat="36.7945217" lon="10.27241"><ele>-4.0</ele><time>2026-04-04T15:34:27.283Z</time></trkpt><trkpt lat="36.79434" lon="10.2724467"><ele>-3.6666666666666665</ele><time>2026-04-04T15:34:28.282Z</time></trkpt><trkpt lat="36.7941583" lon="10.2724867"><ele>-3.333333333333333</ele><time>2026-04-04T15:34:29.284Z</time></trkpt><trkpt lat="36.7939783" lon="10.2725383"><ele>-3.0</ele><time>2026-04-04T15:34:30.283Z</time></trkpt><trkpt lat="36.7938017" lon="10.2725967"><ele>-3.0</ele><time>2026-04-04T15:34:31.282Z</time></trkpt><trkpt lat="36.7936267" lon="10.2726683"><ele>-3.0</ele><time>2026-04-04T15:34:32.285Z</time></trkpt><trkpt lat="36.793455" lon="10.2727483"><ele>-3.0</ele><time>2026-04-04T15:34:33.286Z</time></trkpt><trkpt lat="36.7932833" lon="10.2728383"><ele>-2.6666666666666665</ele><time>2026-04-04T15:34:34.286Z</time></trkpt><trkpt lat="36.7931217" lon="10.272945"><ele>-2.333333333333333</ele><time>2026-04-04T15:34:35.285Z</time></trkpt><trkpt lat="36.7929683" lon="10.2730583"><ele>-2.0</ele><time>2026-04-04T15:34:36.285Z</time></trkpt><trkpt lat="36.792825" lon="10.273175"><ele>-2.0</ele><time>2026-04-04T15:34:37.285Z</time></trkpt><trkpt lat="36.792695" lon="10.2733017"><ele>-2.0</ele><time>2026-04-04T15:34:38.285Z</time></trkpt><trkpt lat="36.7925683" lon="10.27344"><ele>-2.0</ele><time>2026-04-04T15:34:39.287Z</time></trkpt><trkpt lat="36.792445" lon="10.273585"><ele>-2.0</ele><time>2026-04-04T15:34:40.285Z</time></trkpt><trkpt lat="36.792315" lon="10.273735"><ele>-2.0</ele><time>2026-04-04T15:34:41.285Z</time></trkpt><trkpt lat="36.7921867" lon="10.2738917"><ele>-2.0</ele><time>2026-04-04T15:34:42.287Z</time></trkpt><trkpt lat="36.7920583" lon="10.2740467"><ele>-1.6666666666666665</ele><time>2026-04-04T15:34:43.285Z</time></trkpt><trkpt lat="36.79193" lon="10.274205"><ele>-1.3333333333333333</ele><time>2026-04-04T15:34:44.285Z</time></trkpt><trkpt lat="36.7918" lon="10.27436"><ele>-1.0</ele><time>2026-04-04T15:34:45.285Z</time></trkpt><trkpt lat="36.7916667" lon="10.274515"><ele>-0.6666666666666666</ele><time>2026-04-04T15:34:46.285Z</time></trkpt><trkpt lat="36.791535" lon="10.27467"><ele>-0.3333333333333333</ele><time>2026-04-04T15:34:47.285Z</time></trkpt><trkpt lat="36.7914083" lon="10.2748183"><ele>0.0</ele><time>2026-04-04T15:34:48.283Z</time></trkpt><trkpt lat="36.7912917" lon="10.27496"><ele>0.0</ele><time>2026-04-04T15:34:49.283Z</time></trkpt><trkpt lat="36.79119" lon="10.2750833"><ele>0.0</ele><time>2026-04-04T15:34:50.282Z</time></trkpt><trkpt lat="36.791105" lon="10.275185"><ele>0.0</ele><time>2026-04-04T15:34:51.283Z</time></trkpt><trkpt lat="36.7910333" lon="10.27527"><ele>0.0</ele><time>2026-04-04T15:34:52.283Z</time></trkpt><trkpt lat="36.79097" lon="10.2753433"><ele>0.0</ele><time>2026-04-04T15:34:53.283Z</time></trkpt><trkpt lat="36.7909167" lon="10.2754033"><ele>0.0</ele><time>2026-04-04T15:34:54.284Z</time></trkpt><trkpt lat="36.7908383" lon="10.2754767"><ele>0.0</ele><time>2026-04-04T15:34:56.284Z</time></trkpt><trkpt lat="36.7907717" lon="10.2755317"><ele>0.0</ele><time>2026-04-04T15:34:59.283Z</time></trkpt><trkpt lat="36.7906917" lon="10.2755683"><ele>0.0</ele><time>2026-04-04T15:35:02.283Z</time></trkpt><trkpt lat="36.7906" lon="10.275605"><ele>0.0</ele><time>2026-04-04T15:35:05.284Z</time></trkpt><trkpt lat="36.7904817" lon="10.275665"><ele>0.0</ele><time>2026-04-04T15:35:07.286Z</time></trkpt><trkpt lat="36.7904067" lon="10.27569"><ele>0.0</ele><time>2026-04-04T15:35:08.284Z</time></trkpt><trkpt lat="36.790325" lon="10.2757033"><ele>0.0</ele><time>2026-04-04T15:35:09.284Z</time></trkpt><trkpt lat="36.79024" lon="10.275705"><ele>0.0</ele><time>2026-04-04T15:35:10.284Z</time></trkpt><trkpt lat="36.7901583" lon="10.2756967"><ele>0.0</ele><time>2026-04-04T15:35:11.284Z</time></trkpt><trkpt lat="36.7900767" lon="10.2756783"><ele>0.0</ele><time>2026-04-04T15:35:12.284Z</time></trkpt><trkpt lat="36.78999" lon="10.2756533"><ele>-0.16666666666666666</ele><time>2026-04-04T15:35:13.284Z</time></trkpt><trkpt lat="36.78991" lon="10.2756283"><ele>-0.3333333333333333</ele><time>2026-04-04T15:35:14.285Z</time></trkpt><trkpt lat="36.7898367" lon="10.2756"><ele>-0.5</ele><time>2026-04-04T15:35:15.284Z</time></trkpt><trkpt lat="36.78976" lon="10.2755683"><ele>-0.6666666666666666</ele><time>2026-04-04T15:35:16.285Z</time></trkpt><trkpt lat="36.7896783" lon="10.2755317"><ele>-0.8333333333333333</ele><time>2026-04-04T15:35:17.284Z</time></trkpt><trkpt lat="36.7895867" lon="10.2754917"><ele>-1.0</ele><time>2026-04-04T15:35:18.286Z</time></trkpt><trkpt lat="36.78949" lon="10.2754483"><ele>-0.8</ele><time>2026-04-04T15:35:19.285Z</time></trkpt><trkpt lat="36.789395" lon="10.27541"><ele>-0.6000000000000001</ele><time>2026-04-04T15:35:20.287Z</time></trkpt><trkpt lat="36.7893067" lon="10.2753667"><ele>-0.4</ele><time>2026-04-04T15:35:21.284Z</time></trkpt><trkpt lat="36.789215" lon="10.2753233"><ele>-0.2</ele><time>2026-04-04T15:35:22.285Z</time></trkpt><trkpt lat="36.78912" lon="10.27528"><ele>0.0</ele><time>2026-04-04T15:35:23.282Z</time></trkpt><trkpt lat="36.7890233" lon="10.2752367"><ele>0.0</ele><time>2026-04-04T15:35:24.284Z</time></trkpt><trkpt lat="36.7889267" lon="10.275195"><ele>0.0</ele><time>2026-04-04T15:35:25.284Z</time></trkpt><trkpt lat="36.7888267" lon="10.275155"><ele>0.0</ele><time>2026-04-04T15:35:26.284Z</time></trkpt><trkpt lat="36.7887283" lon="10.275115"><ele>0.0</ele><time>2026-04-04T15:35:27.283Z</time></trkpt><trkpt lat="36.78863" lon="10.2750783"><ele>0.0</ele><time>2026-04-04T15:35:28.284Z</time></trkpt><trkpt lat="36.78853" lon="10.275045"><ele>-0.6</ele><time>2026-04-04T15:35:29.285Z</time></trkpt><trkpt lat="36.7884317" lon="10.2750133"><ele>-1.2</ele><time>2026-04-04T15:35:30.284Z</time></trkpt><trkpt lat="36.7883383" lon="10.274985"><ele>-1.7999999999999998</ele><time>2026-04-04T15:35:31.284Z</time></trkpt><trkpt lat="36.7882517" lon="10.2749583"><ele>-2.4</ele><time>2026-04-04T15:35:32.285Z</time></trkpt><trkpt lat="36.7881683" lon="10.2749333"><ele>-3.0</ele><time>2026-04-04T15:35:33.282Z</time></trkpt><trkpt lat="36.7880833" lon="10.2749083"><ele>-3.0</ele><time>2026-04-04T15:35:34.282Z</time></trkpt><trkpt lat="36.7879933" lon="10.27488"><ele>-3.0</ele><time>2026-04-04T15:35:35.282Z</time></trkpt><trkpt lat="36.7878967" lon="10.27485"><ele>-3.0</ele><time>2026-04-04T15:35:36.282Z</time></trkpt><trkpt lat="36.7877917" lon="10.2748183"><ele>-3.0</ele><time>2026-04-04T15:35:37.282Z</time></trkpt><trkpt lat="36.78768" lon="10.27478"><ele>-3.0</ele><time>2026-04-04T15:35:38.282Z</time></trkpt><trkpt lat="36.787565" lon="10.274745"><ele>-2.75</ele><time>2026-04-04T15:35:39.283Z</time></trkpt><trkpt lat="36.7874417" lon="10.2747117"><ele>-2.5</ele><time>2026-04-04T15:35:40.284Z</time></trkpt><trkpt lat="36.7873133" lon="10.2746767"><ele>-2.25</ele><time>2026-04-04T15:35:41.285Z</time></trkpt><trkpt lat="36.7871917" lon="10.274645"><ele>-2.0</ele><time>2026-04-04T15:35:42.285Z</time></trkpt><trkpt lat="36.7870817" lon="10.2746133"><ele>-2.0</ele><time>2026-04-04T15:35:43.284Z</time></trkpt><trkpt lat="36.7869817" lon="10.27459"><ele>-2.0</ele><time>2026-04-04T15:35:44.285Z</time></trkpt><trkpt lat="36.7868783" lon="10.2745683"><ele>-2.0</ele><time>2026-04-04T15:35:45.286Z</time></trkpt><trkpt lat="36.7867717" lon="10.2745433"><ele>-2.0</ele><time>2026-04-04T15:35:46.284Z</time></trkpt><trkpt lat="36.7866683" lon="10.27452"><ele>-2.0</ele><time>2026-04-04T15:35:47.284Z</time></trkpt><trkpt lat="36.78657" lon="10.2744917"><ele>-1.6</ele><time>2026-04-04T15:35:48.285Z</time></trkpt><trkpt lat="36.7864767" lon="10.2744533"><ele>-1.2000000000000002</ele><time>2026-04-04T15:35:49.285Z</time></trkpt><trkpt lat="36.78639" lon="10.2744217"><ele>-0.8</ele><time>2026-04-04T15:35:50.285Z</time></trkpt><trkpt lat="36.7863033" lon="10.274395"><ele>-0.4</ele><time>2026-04-04T15:35:51.285Z</time></trkpt><trkpt lat="36.7862133" lon="10.2743717"><ele>0.0</ele><time>2026-04-04T15:35:52.284Z</time></trkpt><trkpt lat="36.78612" lon="10.2743467"><ele>0.0</ele><time>2026-04-04T15:35:53.286Z</time></trkpt><trkpt lat="36.786025" lon="10.27432"><ele>0.0</ele><time>2026-04-04T15:35:54.285Z</time></trkpt><trkpt lat="36.7859267" lon="10.274295"><ele>0.0</ele><time>2026-04-04T15:35:55.282Z</time></trkpt><trkpt lat="36.7858267" lon="10.27427"><ele>0.0</ele><time>2026-04-04T15:35:56.283Z</time></trkpt><trkpt lat="36.78573" lon="10.2742433"><ele>0.0</ele><time>2026-04-04T15:35:57.285Z</time></trkpt><trkpt lat="36.7856367" lon="10.27422"><ele>0.2</ele><time>2026-04-04T15:35:58.284Z</time></trkpt><trkpt lat="36.7855467" lon="10.274195"><ele>0.4</ele><time>2026-04-04T15:35:59.282Z</time></trkpt><trkpt lat="36.78546" lon="10.2741717"><ele>0.6000000000000001</ele><time>2026-04-04T15:36:00.285Z</time></trkpt><trkpt lat="36.7853667" lon="10.274145"><ele>0.8</ele><time>2026-04-04T15:36:01.285Z</time></trkpt><trkpt lat="36.78527" lon="10.274115"><ele>1.0</ele><time>2026-04-04T15:36:02.285Z</time></trkpt><trkpt lat="36.7851667" lon="10.2740833"><ele>0.5</ele><time>2026-04-04T15:36:03.282Z</time></trkpt><trkpt lat="36.7850567" lon="10.2740517"><ele>0.0</ele><time>2026-04-04T15:36:04.285Z</time></trkpt><trkpt lat="36.7849383" lon="10.27402"><ele>-0.5</ele><time>2026-04-04T15:36:05.286Z</time></trkpt><trkpt lat="36.7848033" lon="10.273985"><ele>-1.0</ele><time>2026-04-04T15:36:06.285Z</time></trkpt><trkpt lat="36.7846617" lon="10.2739483"><ele>-0.5</ele><time>2026-04-04T15:36:07.286Z</time></trkpt><trkpt lat="36.7845233" lon="10.27391"><ele>0.0</ele><time>2026-04-04T15:36:08.284Z</time></trkpt><trkpt lat="36.784395" lon="10.2738733"><ele>0.5</ele><time>2026-04-04T15:36:09.284Z</time></trkpt><trkpt lat="36.784275" lon="10.2738417"><ele>1.0</ele><time>2026-04-04T15:36:10.285Z</time></trkpt><trkpt lat="36.7841667" lon="10.273815"><ele>0.9999999999999999</ele><time>2026-04-04T15:36:11.284Z</time></trkpt><trkpt lat="36.7840733" lon="10.2737933"><ele>1.0</ele><time>2026-04-04T15:36:12.285Z</time></trkpt><trkpt lat="36.7839967" lon="10.2737767"><ele>1.0</ele><time>2026-04-04T15:36:13.286Z</time></trkpt><trkpt lat="36.7838967" lon="10.2737583"><ele>1.0</ele><time>2026-04-04T15:36:15.284Z</time></trkpt><trkpt lat="36.7838033" lon="10.27374"><ele>0.9999999999999999</ele><time>2026-04-04T15:36:17.284Z</time></trkpt><trkpt lat="36.7837317" lon="10.2737217"><ele>1.0</ele><time>2026-04-04T15:36:18.285Z</time></trkpt><trkpt lat="36.7836483" lon="10.273705"><ele>1.0</ele><time>2026-04-04T15:36:19.284Z</time></trkpt><trkpt lat="36.7835533" lon="10.27369"><ele>1.0</ele><time>2026-04-04T15:36:20.284Z</time></trkpt><trkpt lat="36.78345" lon="10.27368"><ele>1.0</ele><time>2026-04-04T15:36:21.286Z</time></trkpt><trkpt lat="36.7833483" lon="10.2736717"><ele>1.0</ele><time>2026-04-04T15:36:22.284Z</time></trkpt><trkpt lat="36.7832517" lon="10.2736633"><ele>1.0</ele><time>2026-04-04T15:36:23.284Z</time></trkpt><trkpt lat="36.7831583" lon="10.2736617"><ele>1.2000000000000002</ele><time>2026-04-04T15:36:24.286Z</time></trkpt><trkpt lat="36.78306" lon="10.2736667"><ele>1.4000000000000001</ele><time>2026-04-04T15:36:25.282Z</time></trkpt><trkpt lat="36.782955" lon="10.273685"><ele>1.6</ele><time>2026-04-04T15:36:26.282Z</time></trkpt><trkpt lat="36.7828433" lon="10.2737067"><ele>1.8</ele><time>2026-04-04T15:36:27.282Z</time></trkpt><trkpt lat="36.7827283" lon="10.2737217"><ele>2.0</ele><time>2026-04-04T15:36:28.282Z</time></trkpt><trkpt lat="36.7826" lon="10.2737383"><ele>1.5</ele><time>2026-04-04T15:36:29.284Z</time></trkpt><trkpt lat="36.7824617" lon="10.2737617"><ele>1.0</ele><time>2026-04-04T15:36:30.283Z</time></trkpt><trkpt lat="36.7823217" lon="10.2737917"><ele>0.5</ele><time>2026-04-04T15:36:31.285Z</time></trkpt><trkpt lat="36.78218" lon="10.2738217"><ele>0.0</ele><time>2026-04-04T15:36:32.284Z</time></trkpt><trkpt lat="36.7820367" lon="10.2738483"><ele>0.0</ele><time>2026-04-04T15:36:33.282Z</time></trkpt><trkpt lat="36.781895" lon="10.2738733"><ele>0.0</ele><time>2026-04-04T15:36:34.285Z</time></trkpt><trkpt lat="36.7817533" lon="10.2738983"><ele>0.0</ele><time>2026-04-04T15:36:35.285Z</time></trkpt><trkpt lat="36.78161" lon="10.27392"><ele>0.0</ele><time>2026-04-04T15:36:36.286Z</time></trkpt><trkpt lat="36.7814683" lon="10.2739367"><ele>0.0</ele><time>2026-04-04T15:36:37.286Z</time></trkpt><trkpt lat="36.7813233" lon="10.2739517"><ele>0.0</ele><time>2026-04-04T15:36:38.284Z</time></trkpt><trkpt lat="36.7811767" lon="10.273965"><ele>0.0</ele><time>2026-04-04T15:36:39.284Z</time></trkpt><trkpt lat="36.7810317" lon="10.2739717"><ele>0.0</ele><time>2026-04-04T15:36:40.284Z</time></trkpt><trkpt lat="36.780885" lon="10.2739733"><ele>0.0</ele><time>2026-04-04T15:36:41.284Z</time></trkpt><trkpt lat="36.7807417" lon="10.2739733"><ele>0.0</ele><time>2026-04-04T15:36:42.285Z</time></trkpt><trkpt lat="36.7805983" lon="10.2739717"><ele>0.0</ele><time>2026-04-04T15:36:43.284Z</time></trkpt><trkpt lat="36.7804483" lon="10.2739683"><ele>0.0</ele><time>2026-04-04T15:36:44.282Z</time></trkpt><trkpt lat="36.780295" lon="10.273965"><ele>0.25</ele><time>2026-04-04T15:36:45.285Z</time></trkpt><trkpt lat="36.780145" lon="10.2739567"><ele>0.5</ele><time>2026-04-04T15:36:46.284Z</time></trkpt><trkpt lat="36.7799983" lon="10.2739433"><ele>0.75</ele><time>2026-04-04T15:36:47.287Z</time></trkpt><trkpt lat="36.7798617" lon="10.2739333"><ele>1.0</ele><time>2026-04-04T15:36:48.285Z</time></trkpt><trkpt lat="36.7797367" lon="10.27392"><ele>1.0</ele><time>2026-04-04T15:36:49.285Z</time></trkpt><trkpt lat="36.779615" lon="10.2739117"><ele>1.0</ele><time>2026-04-04T15:36:50.285Z</time></trkpt><trkpt lat="36.7794967" lon="10.2739033"><ele>1.0</ele><time>2026-04-04T15:36:51.284Z</time></trkpt><trkpt lat="36.7793767" lon="10.273895"><ele>1.0</ele><time>2026-04-04T15:36:52.282Z</time></trkpt><trkpt lat="36.779265" lon="10.2738867"><ele>0.8</ele><time>2026-04-04T15:36:53.283Z</time></trkpt><trkpt lat="36.77916" lon="10.2738783"><ele>0.6000000000000001</ele><time>2026-04-04T15:36:54.282Z</time></trkpt><trkpt lat="36.7790617" lon="10.2738717"><ele>0.4</ele><time>2026-04-04T15:36:55.285Z</time></trkpt><trkpt lat="36.7789717" lon="10.2738617"><ele>0.2</ele><time>2026-04-04T15:36:56.286Z</time></trkpt><trkpt lat="36.778885" lon="10.2738533"><ele>0.0</ele><time>2026-04-04T15:36:57.286Z</time></trkpt><trkpt lat="36.778805" lon="10.2738417"><ele>0.0</ele><time>2026-04-04T15:36:58.284Z</time></trkpt><trkpt lat="36.7787267" lon="10.2738367"><ele>0.0</ele><time>2026-04-04T15:36:59.285Z</time></trkpt><trkpt lat="36.77865" lon="10.27383"><ele>0.0</ele><time>2026-04-04T15:37:00.286Z</time></trkpt><trkpt lat="36.77857" lon="10.2738233"><ele>0.0</ele><time>2026-04-04T15:37:01.285Z</time></trkpt><trkpt lat="36.77848" lon="10.2738167"><ele>0.0</ele><time>2026-04-04T15:37:02.286Z</time></trkpt><trkpt lat="36.7783883" lon="10.2738083"><ele>0.0</ele><time>2026-04-04T15:37:03.283Z</time></trkpt><trkpt lat="36.7782867" lon="10.2738"><ele>0.25</ele><time>2026-04-04T15:37:04.285Z</time></trkpt><trkpt lat="36.7781733" lon="10.2737917"><ele>0.5</ele><time>2026-04-04T15:37:05.285Z</time></trkpt><trkpt lat="36.7780417" lon="10.27378"><ele>0.75</ele><time>2026-04-04T15:37:06.285Z</time></trkpt><trkpt lat="36.7779" lon="10.27377"><ele>1.0</ele><time>2026-04-04T15:37:07.286Z</time></trkpt><trkpt lat="36.7777483" lon="10.27376"><ele>0.6666666666666666</ele><time>2026-04-04T15:37:08.285Z</time></trkpt><trkpt lat="36.7775933" lon="10.2737533"><ele>0.3333333333333333</ele><time>2026-04-04T15:37:09.285Z</time></trkpt><trkpt lat="36.7774367" lon="10.273745"><ele>0.0</ele><time>2026-04-04T15:37:10.285Z</time></trkpt><trkpt lat="36.7772833" lon="10.2737317"><ele>0.0</ele><time>2026-04-04T15:37:11.285Z</time></trkpt><trkpt lat="36.7771317" lon="10.27372"><ele>0.0</ele><time>2026-04-04T15:37:12.286Z</time></trkpt><trkpt lat="36.7769783" lon="10.2737067"><ele>0.0</ele><time>2026-04-04T15:37:13.286Z</time></trkpt><trkpt lat="36.7768233" lon="10.2736917"><ele>0.0</ele><time>2026-04-04T15:37:14.285Z</time></trkpt><trkpt lat="36.7766667" lon="10.2736783"><ele>0.0</ele><time>2026-04-04T15:37:15.285Z</time></trkpt><trkpt lat="36.7765083" lon="10.2736617"><ele>0.0</ele><time>2026-04-04T15:37:16.287Z</time></trkpt><trkpt lat="36.7763517" lon="10.2736467"><ele>0.0</ele><time>2026-04-04T15:37:17.285Z</time></trkpt><trkpt lat="36.7761933" lon="10.27363"><ele>0.0</ele><time>2026-04-04T15:37:18.284Z</time></trkpt><trkpt lat="36.7760383" lon="10.2736033"><ele>0.0</ele><time>2026-04-04T15:37:19.283Z</time></trkpt><trkpt lat="36.7758883" lon="10.2735667"><ele>0.0</ele><time>2026-04-04T15:37:20.285Z</time></trkpt><trkpt lat="36.77574" lon="10.2735183"><ele>0.0</ele><time>2026-04-04T15:37:21.285Z</time></trkpt><trkpt lat="36.775595" lon="10.2734533"><ele>0.0</ele><time>2026-04-04T15:37:22.286Z</time></trkpt><trkpt lat="36.7754517" lon="10.2733733"><ele>0.0</ele><time>2026-04-04T15:37:23.285Z</time></trkpt><trkpt lat="36.7753117" lon="10.273275"><ele>0.0</ele><time>2026-04-04T15:37:24.285Z</time></trkpt><trkpt lat="36.77518" lon="10.2731583"><ele>0.0</ele><time>2026-04-04T15:37:25.285Z</time></trkpt><trkpt lat="36.7750567" lon="10.2730267"><ele>0.0</ele><time>2026-04-04T15:37:26.282Z</time></trkpt><trkpt lat="36.7749367" lon="10.2728817"><ele>0.0</ele><time>2026-04-04T15:37:27.285Z</time></trkpt><trkpt lat="36.77482" lon="10.2727217"><ele>0.0</ele><time>2026-04-04T15:37:28.286Z</time></trkpt><trkpt lat="36.7747017" lon="10.2725517"><ele>0.0</ele><time>2026-04-04T15:37:29.286Z</time></trkpt><trkpt lat="36.774585" lon="10.2723717"><ele>0.0</ele><time>2026-04-04T15:37:30.285Z</time></trkpt><trkpt lat="36.7744683" lon="10.2721883"><ele>0.0</ele><time>2026-04-04T15:37:31.285Z</time></trkpt><trkpt lat="36.7743517" lon="10.272"><ele>-0.3333333333333333</ele><time>2026-04-04T15:37:32.286Z</time></trkpt><trkpt lat="36.7742317" lon="10.2718067"><ele>-0.6666666666666666</ele><time>2026-04-04T15:37:33.286Z</time></trkpt><trkpt lat="36.7741067" lon="10.271615"><ele>-1.0</ele><time>2026-04-04T15:37:34.285Z</time></trkpt><trkpt lat="36.7739817" lon="10.2714167"><ele>-2.0</ele><time>2026-04-04T15:37:35.282Z</time></trkpt><trkpt lat="36.7738533" lon="10.2712167"><ele>-3.0</ele><time>2026-04-04T15:37:36.283Z</time></trkpt><trkpt lat="36.773725" lon="10.2710117"><ele>-4.0</ele><time>2026-04-04T15:37:37.282Z</time></trkpt><trkpt lat="36.773595" lon="10.2708067"><ele>-4.0</ele><time>2026-04-04T15:37:38.282Z</time></trkpt><trkpt lat="36.7734633" lon="10.2706017"><ele>-4.0</ele><time>2026-04-04T15:37:39.282Z</time></trkpt><trkpt lat="36.7733317" lon="10.2703967"><ele>-4.0</ele><time>2026-04-04T15:37:40.282Z</time></trkpt><trkpt lat="36.7732" lon="10.2701933"><ele>-4.0</ele><time>2026-04-04T15:37:41.282Z</time></trkpt><trkpt lat="36.7730717" lon="10.2699967"><ele>-4.0</ele><time>2026-04-04T15:37:42.282Z</time></trkpt><trkpt lat="36.7729483" lon="10.2698033"><ele>-4.0</ele><time>2026-04-04T15:37:43.283Z</time></trkpt><trkpt lat="36.7728317" lon="10.2696133"><ele>-4.666666666666666</ele><time>2026-04-04T15:37:44.283Z</time></trkpt><trkpt lat="36.772715" lon="10.2694283"><ele>-5.333333333333333</ele><time>2026-04-04T15:37:45.284Z</time></trkpt><trkpt lat="36.7725967" lon="10.2692417"><ele>-6.0</ele><time>2026-04-04T15:37:46.282Z</time></trkpt><trkpt lat="36.7724833" lon="10.26906"><ele>-4.0</ele><time>2026-04-04T15:37:47.285Z</time></trkpt><trkpt lat="36.7723733" lon="10.2688883"><ele>-2.0</ele><time>2026-04-04T15:37:48.286Z</time></trkpt><trkpt lat="36.7722667" lon="10.268715"><ele>0.0</ele><time>2026-04-04T15:37:49.285Z</time></trkpt><trkpt lat="36.7721583" lon="10.2685383"><ele>0.0</ele><time>2026-04-04T15:37:50.286Z</time></trkpt><trkpt lat="36.77205" lon="10.2683583"><ele>0.0</ele><time>2026-04-04T15:37:51.286Z</time></trkpt><trkpt lat="36.7719383" lon="10.2681767"><ele>0.0</ele><time>2026-04-04T15:37:52.285Z</time></trkpt><trkpt lat="36.7718233" lon="10.2679933"><ele>0.0</ele><time>2026-04-04T15:37:53.285Z</time></trkpt><trkpt lat="36.7717117" lon="10.26781"><ele>0.0</ele><time>2026-04-04T15:37:54.285Z</time></trkpt><trkpt lat="36.7715983" lon="10.2676233"><ele>0.0</ele><time>2026-04-04T15:37:55.285Z</time></trkpt><trkpt lat="36.771485" lon="10.2674367"><ele>0.0</ele><time>2026-04-04T15:37:56.282Z</time></trkpt><trkpt lat="36.7713717" lon="10.26725"><ele>0.0</ele><time>2026-04-04T15:37:57.284Z</time></trkpt><trkpt lat="36.7712567" lon="10.2670667"><ele>0.0</ele><time>2026-04-04T15:37:58.284Z</time></trkpt><trkpt lat="36.7711433" lon="10.266885"><ele>0.0</ele><time>2026-04-04T15:37:59.284Z</time></trkpt><trkpt lat="36.7710317" lon="10.2667"><ele>0.0</ele><time>2026-04-04T15:38:00.284Z</time></trkpt><trkpt lat="36.7709167" lon="10.266515"><ele>0.0</ele><time>2026-04-04T15:38:01.283Z</time></trkpt><trkpt lat="36.7708033" lon="10.2663267"><ele>0.0</ele><time>2026-04-04T15:38:02.284Z</time></trkpt><trkpt lat="36.77069" lon="10.2661283"><ele>0.0</ele><time>2026-04-04T15:38:03.283Z</time></trkpt><trkpt lat="36.77057" lon="10.2659233"><ele>0.0</ele><time>2026-04-04T15:38:04.282Z</time></trkpt><trkpt lat="36.77045" lon="10.2657183"><ele>0.0</ele><time>2026-04-04T15:38:05.283Z</time></trkpt><trkpt lat="36.77033" lon="10.2655167"><ele>0.0</ele><time>2026-04-04T15:38:06.283Z</time></trkpt><trkpt lat="36.77021" lon="10.2653167"><ele>0.0</ele><time>2026-04-04T15:38:07.282Z</time></trkpt><trkpt lat="36.7700967" lon="10.2651233"><ele>0.0</ele><time>2026-04-04T15:38:08.282Z</time></trkpt><trkpt lat="36.76999" lon="10.2649383"><ele>0.0</ele><time>2026-04-04T15:38:09.283Z</time></trkpt><trkpt lat="36.7698883" lon="10.2647567"><ele>0.0</ele><time>2026-04-04T15:38:10.283Z</time></trkpt><trkpt lat="36.76979" lon="10.264575"><ele>0.0</ele><time>2026-04-04T15:38:11.282Z</time></trkpt><trkpt lat="36.76969" lon="10.2643933"><ele>0.0</ele><time>2026-04-04T15:38:12.286Z</time></trkpt><trkpt lat="36.7695933" lon="10.26421"><ele>0.0</ele><time>2026-04-04T15:38:13.284Z</time></trkpt><trkpt lat="36.7694917" lon="10.2640267"><ele>0.0</ele><time>2026-04-04T15:38:14.284Z</time></trkpt><trkpt lat="36.769395" lon="10.2638433"><ele>0.0</ele><time>2026-04-04T15:38:15.285Z</time></trkpt><trkpt lat="36.769295" lon="10.26366"><ele>0.0</ele><time>2026-04-04T15:38:16.285Z</time></trkpt><trkpt lat="36.7692" lon="10.263475"><ele>0.0</ele><time>2026-04-04T15:38:17.285Z</time></trkpt><trkpt lat="36.7691033" lon="10.2632933"><ele>0.0</ele><time>2026-04-04T15:38:18.286Z</time></trkpt><trkpt lat="36.76901" lon="10.2631117"><ele>0.0</ele><time>2026-04-04T15:38:19.285Z</time></trkpt><trkpt lat="36.768925" lon="10.262935"><ele>0.0</ele><time>2026-04-04T15:38:20.286Z</time></trkpt><trkpt lat="36.7688417" lon="10.26276"><ele>0.0</ele><time>2026-04-04T15:38:21.286Z</time></trkpt><trkpt lat="36.7687583" lon="10.262585"><ele>0.0</ele><time>2026-04-04T15:38:22.286Z</time></trkpt><trkpt lat="36.768675" lon="10.2624083"><ele>0.0</ele><time>2026-04-04T15:38:23.285Z</time></trkpt><trkpt lat="36.76859" lon="10.26223"><ele>0.0</ele><time>2026-04-04T15:38:24.286Z</time></trkpt><trkpt lat="36.7685083" lon="10.2620483"><ele>0.0</ele><time>2026-04-04T15:38:25.285Z</time></trkpt><trkpt lat="36.76843" lon="10.2618633"><ele>0.0</ele><time>2026-04-04T15:38:26.286Z</time></trkpt><trkpt lat="36.7683517" lon="10.261675"><ele>0.0</ele><time>2026-04-04T15:38:27.285Z</time></trkpt><trkpt lat="36.7682733" lon="10.261485"><ele>0.0</ele><time>2026-04-04T15:38:28.285Z</time></trkpt><trkpt lat="36.7681933" lon="10.26129"><ele>0.0</ele><time>2026-04-04T15:38:29.285Z</time></trkpt><trkpt lat="36.7681133" lon="10.261095"><ele>0.0</ele><time>2026-04-04T15:38:30.285Z</time></trkpt><trkpt lat="36.7680333" lon="10.2608983"><ele>0.0</ele><time>2026-04-04T15:38:31.285Z</time></trkpt><trkpt lat="36.7679483" lon="10.260705"><ele>0.0</ele><time>2026-04-04T15:38:32.287Z</time></trkpt><trkpt lat="36.7678617" lon="10.2605133"><ele>0.0</ele><time>2026-04-04T15:38:33.285Z</time></trkpt><trkpt lat="36.767775" lon="10.2603233"><ele>0.0</ele><time>2026-04-04T15:38:34.282Z</time></trkpt><trkpt lat="36.7676883" lon="10.260135"><ele>0.3333333333333333</ele><time>2026-04-04T15:38:35.284Z</time></trkpt><trkpt lat="36.7676017" lon="10.25995"><ele>0.6666666666666666</ele><time>2026-04-04T15:38:36.283Z</time></trkpt><trkpt lat="36.7675133" lon="10.25977"><ele>1.0</ele><time>2026-04-04T15:38:37.283Z</time></trkpt><trkpt lat="36.7674267" lon="10.2595933"><ele>2.0</ele><time>2026-04-04T15:38:38.283Z</time></trkpt><trkpt lat="36.76734" lon="10.25942"><ele>3.0</ele><time>2026-04-04T15:38:39.284Z</time></trkpt><trkpt lat="36.7672517" lon="10.259245"><ele>4.0</ele><time>2026-04-04T15:38:40.283Z</time></trkpt><trkpt lat="36.767165" lon="10.2590717"><ele>2.333333333333333</ele><time>2026-04-04T15:38:41.283Z</time></trkpt><trkpt lat="36.7670767" lon="10.2589"><ele>0.6666666666666666</ele><time>2026-04-04T15:38:42.283Z</time></trkpt><trkpt lat="36.7669867" lon="10.2587283"><ele>-1.0</ele><time>2026-04-04T15:38:43.282Z</time></trkpt><trkpt lat="36.7669" lon="10.2585583"><ele>0.0</ele><time>2026-04-04T15:38:44.284Z</time></trkpt><trkpt lat="36.7668117" lon="10.2583883"><ele>1.0</ele><time>2026-04-04T15:38:45.288Z</time></trkpt><trkpt lat="36.766725" lon="10.258225"><ele>2.0</ele><time>2026-04-04T15:38:46.285Z</time></trkpt><trkpt lat="36.7666433" lon="10.258065"><ele>2.0</ele><time>2026-04-04T15:38:47.286Z</time></trkpt><trkpt lat="36.76657" lon="10.2579133"><ele>2.0</ele><time>2026-04-04T15:38:48.286Z</time></trkpt><trkpt lat="36.7665017" lon="10.257775"><ele>2.0</ele><time>2026-04-04T15:38:49.285Z</time></trkpt><trkpt lat="36.766435" lon="10.2576417"><ele>2.0</ele><time>2026-04-04T15:38:50.285Z</time></trkpt><trkpt lat="36.7663667" lon="10.2575067"><ele>2.0</ele><time>2026-04-04T15:38:51.285Z</time></trkpt><trkpt lat="36.7662933" lon="10.25737"><ele>2.0</ele><time>2026-04-04T15:38:52.287Z</time></trkpt><trkpt lat="36.766215" lon="10.2572333"><ele>2.0</ele><time>2026-04-04T15:38:53.285Z</time></trkpt><trkpt lat="36.766135" lon="10.2570933"><ele>2.0</ele><time>2026-04-04T15:38:54.286Z</time></trkpt><trkpt lat="36.7660517" lon="10.2569533"><ele>2.25</ele><time>2026-04-04T15:38:55.286Z</time></trkpt><trkpt lat="36.7659667" lon="10.2568117"><ele>2.5</ele><time>2026-04-04T15:38:56.286Z</time></trkpt><trkpt lat="36.7658733" lon="10.256665"><ele>2.75</ele><time>2026-04-04T15:38:57.285Z</time></trkpt><trkpt lat="36.7657833" lon="10.2565183"><ele>3.0</ele><time>2026-04-04T15:38:58.285Z</time></trkpt><trkpt lat="36.7656933" lon="10.25637"><ele>3.0</ele><time>2026-04-04T15:38:59.285Z</time></trkpt><trkpt lat="36.7656033" lon="10.2562133"><ele>3.0</ele><time>2026-04-04T15:39:00.287Z</time></trkpt><trkpt lat="36.7655117" lon="10.2560517"><ele>3.0</ele><time>2026-04-04T15:39:01.284Z</time></trkpt><trkpt lat="36.7654283" lon="10.2558883"><ele>3.0</ele><time>2026-04-04T15:39:02.284Z</time></trkpt><trkpt lat="36.7653467" lon="10.2557283"><ele>3.0</ele><time>2026-04-04T15:39:03.282Z</time></trkpt><trkpt lat="36.765265" lon="10.255565"><ele>3.0</ele><time>2026-04-04T15:39:04.281Z</time></trkpt><trkpt lat="36.76518" lon="10.2554033"><ele>4.333333333333334</ele><time>2026-04-04T15:39:05.282Z</time></trkpt><trkpt lat="36.7650967" lon="10.2552417"><ele>5.666666666666667</ele><time>2026-04-04T15:39:06.284Z</time></trkpt><trkpt lat="36.7650117" lon="10.2550783"><ele>7.0</ele><time>2026-04-04T15:39:07.281Z</time></trkpt><trkpt lat="36.7649267" lon="10.2549167"><ele>8.666666666666668</ele><time>2026-04-04T15:39:08.281Z</time></trkpt><trkpt lat="36.7648417" lon="10.2547567"><ele>10.333333333333334</ele><time>2026-04-04T15:39:09.282Z</time></trkpt><trkpt lat="36.764755" lon="10.254595"><ele>12.0</ele><time>2026-04-04T15:39:10.281Z</time></trkpt><trkpt lat="36.7646667" lon="10.2544317"><ele>12.0</ele><time>2026-04-04T15:39:11.281Z</time></trkpt><trkpt lat="36.7645767" lon="10.2542617"><ele>12.0</ele><time>2026-04-04T15:39:12.282Z</time></trkpt><trkpt lat="36.7644867" lon="10.25409"><ele>12.0</ele><time>2026-04-04T15:39:13.281Z</time></trkpt><trkpt lat="36.7643967" lon="10.253915"><ele>13.333333333333332</ele><time>2026-04-04T15:39:14.281Z</time></trkpt><trkpt lat="36.7643033" lon="10.2537383"><ele>14.666666666666666</ele><time>2026-04-04T15:39:15.284Z</time></trkpt><trkpt lat="36.76421" lon="10.2535667"><ele>16.0</ele><time>2026-04-04T15:39:16.284Z</time></trkpt><trkpt lat="36.7641183" lon="10.2533967"><ele>16.0</ele><time>2026-04-04T15:39:17.285Z</time></trkpt><trkpt lat="36.7640233" lon="10.253225"><ele>16.0</ele><time>2026-04-04T15:39:18.284Z</time></trkpt><trkpt lat="36.7639267" lon="10.2530533"><ele>16.0</ele><time>2026-04-04T15:39:19.284Z</time></trkpt><trkpt lat="36.7638317" lon="10.2528817"><ele>16.0</ele><time>2026-04-04T15:39:20.284Z</time></trkpt><trkpt lat="36.7637383" lon="10.25271"><ele>16.0</ele><time>2026-04-04T15:39:21.284Z</time></trkpt><trkpt lat="36.763645" lon="10.2525433"><ele>16.0</ele><time>2026-04-04T15:39:22.284Z</time></trkpt><trkpt lat="36.7635583" lon="10.2523817"><ele>17.333333333333332</ele><time>2026-04-04T15:39:23.284Z</time></trkpt><trkpt lat="36.7634733" lon="10.2522217"><ele>18.666666666666668</ele><time>2026-04-04T15:39:24.284Z</time></trkpt><trkpt lat="36.7633867" lon="10.2520617"><ele>20.0</ele><time>2026-04-04T15:39:25.284Z</time></trkpt><trkpt lat="36.7633033" lon="10.2519"><ele>20.0</ele><time>2026-04-04T15:39:26.284Z</time></trkpt><trkpt lat="36.76322" lon="10.2517383"><ele>20.0</ele><time>2026-04-04T15:39:27.284Z</time></trkpt><trkpt lat="36.7631367" lon="10.2515767"><ele>20.0</ele><time>2026-04-04T15:39:28.284Z</time></trkpt><trkpt lat="36.7630517" lon="10.251425"><ele>19.75</ele><time>2026-04-04T15:39:29.285Z</time></trkpt><trkpt lat="36.762965" lon="10.2512833"><ele>19.5</ele><time>2026-04-04T15:39:30.284Z</time></trkpt><trkpt lat="36.7628833" lon="10.2511467"><ele>19.25</ele><time>2026-04-04T15:39:31.284Z</time></trkpt><trkpt lat="36.76279" lon="10.2510167"><ele>19.0</ele><time>2026-04-04T15:39:32.282Z</time></trkpt><trkpt lat="36.76269" lon="10.2508883"><ele>17.75</ele><time>2026-04-04T15:39:33.283Z</time></trkpt><trkpt lat="36.7625783" lon="10.25077"><ele>16.5</ele><time>2026-04-04T15:39:34.281Z</time></trkpt><trkpt lat="36.7624583" lon="10.2506667"><ele>15.25</ele><time>2026-04-04T15:39:35.282Z</time></trkpt><trkpt lat="36.7623283" lon="10.2505683"><ele>14.0</ele><time>2026-04-04T15:39:36.282Z</time></trkpt><trkpt lat="36.762195" lon="10.250475"><ele>14.0</ele><time>2026-04-04T15:39:37.282Z</time></trkpt><trkpt lat="36.76206" lon="10.25039"><ele>14.0</ele><time>2026-04-04T15:39:38.281Z</time></trkpt><trkpt lat="36.7619217" lon="10.250305"><ele>14.0</ele><time>2026-04-04T15:39:39.283Z</time></trkpt><trkpt lat="36.7617867" lon="10.2502183"><ele>14.5</ele><time>2026-04-04T15:39:40.285Z</time></trkpt><trkpt lat="36.7616517" lon="10.2501317"><ele>15.0</ele><time>2026-04-04T15:39:41.285Z</time></trkpt><trkpt lat="36.7615217" lon="10.2500467"><ele>15.5</ele><time>2026-04-04T15:39:42.285Z</time></trkpt><trkpt lat="36.761395" lon="10.2499633"><ele>16.0</ele><time>2026-04-04T15:39:43.284Z</time></trkpt><trkpt lat="36.76127" lon="10.24988"><ele>16.0</ele><time>2026-04-04T15:39:44.284Z</time></trkpt><trkpt lat="36.7611467" lon="10.2497933"><ele>16.0</ele><time>2026-04-04T15:39:45.284Z</time></trkpt><trkpt lat="36.7610217" lon="10.2497"><ele>16.0</ele><time>2026-04-04T15:39:46.284Z</time></trkpt><trkpt lat="36.7608967" lon="10.2496"><ele>16.0</ele><time>2026-04-04T15:39:47.286Z</time></trkpt><trkpt lat="36.76077" lon="10.2494967"><ele>14.666666666666666</ele><time>2026-04-04T15:39:48.285Z</time></trkpt><trkpt lat="36.7606417" lon="10.2493867"><ele>13.333333333333332</ele><time>2026-04-04T15:39:49.285Z</time></trkpt><trkpt lat="36.7605117" lon="10.2492767"><ele>12.0</ele><time>2026-04-04T15:39:50.285Z</time></trkpt><trkpt lat="36.7603883" lon="10.2491767"><ele>12.0</ele><time>2026-04-04T15:39:51.284Z</time></trkpt><trkpt lat="36.76027" lon="10.2490867"><ele>12.0</ele><time>2026-04-04T15:39:52.285Z</time></trkpt><trkpt lat="36.7601617" lon="10.2490033"><ele>12.0</ele><time>2026-04-04T15:39:53.285Z</time></trkpt><trkpt lat="36.7600583" lon="10.2489183"><ele>12.0</ele><time>2026-04-04T15:39:54.285Z</time></trkpt><trkpt lat="36.7599617" lon="10.2488333"><ele>11.75</ele><time>2026-04-04T15:39:55.286Z</time></trkpt><trkpt lat="36.7598633" lon="10.248745"><ele>11.5</ele><time>2026-04-04T15:39:56.284Z</time></trkpt><trkpt lat="36.759765" lon="10.248655"><ele>11.25</ele><time>2026-04-04T15:39:57.284Z</time></trkpt><trkpt lat="36.759665" lon="10.2485633"><ele>11.0</ele><time>2026-04-04T15:39:58.284Z</time></trkpt><trkpt lat="36.7595583" lon="10.24847"><ele>11.0</ele><time>2026-04-04T15:39:59.285Z</time></trkpt><trkpt lat="36.75945" lon="10.2483783"><ele>11.0</ele><time>2026-04-04T15:40:00.285Z</time></trkpt><trkpt lat="36.7593417" lon="10.24829"><ele>11.0</ele><time>2026-04-04T15:40:01.282Z</time></trkpt><trkpt lat="36.759235" lon="10.248215"><ele>11.0</ele><time>2026-04-04T15:40:02.284Z</time></trkpt><trkpt lat="36.75913" lon="10.2481517"><ele>11.25</ele><time>2026-04-04T15:40:03.283Z</time></trkpt><trkpt lat="36.7590267" lon="10.2480933"><ele>11.5</ele><time>2026-04-04T15:40:04.284Z</time></trkpt><trkpt lat="36.7589217" lon="10.2480417"><ele>11.75</ele><time>2026-04-04T15:40:05.283Z</time></trkpt><trkpt lat="36.7588067" lon="10.2479867"><ele>12.0</ele><time>2026-04-04T15:40:06.283Z</time></trkpt><trkpt lat="36.7586783" lon="10.24793"><ele>12.0</ele><time>2026-04-04T15:40:07.282Z</time></trkpt><trkpt lat="36.7585383" lon="10.2478767"><ele>12.0</ele><time>2026-04-04T15:40:08.282Z</time></trkpt><trkpt lat="36.7583983" lon="10.24783"><ele>12.0</ele><time>2026-04-04T15:40:09.283Z</time></trkpt><trkpt lat="36.758255" lon="10.2477833"><ele>12.0</ele><time>2026-04-04T15:40:10.284Z</time></trkpt><trkpt lat="36.758115" lon="10.247735"><ele>12.5</ele><time>2026-04-04T15:40:11.285Z</time></trkpt><trkpt lat="36.7579733" lon="10.2476867"><ele>13.0</ele><time>2026-04-04T15:40:12.285Z</time></trkpt><trkpt lat="36.7578317" lon="10.2476467"><ele>13.5</ele><time>2026-04-04T15:40:13.284Z</time></trkpt><trkpt lat="36.7576917" lon="10.2476083"><ele>14.0</ele><time>2026-04-04T15:40:14.284Z</time></trkpt><trkpt lat="36.7575467" lon="10.2475733"><ele>14.0</ele><time>2026-04-04T15:40:15.285Z</time></trkpt><trkpt lat="36.7574017" lon="10.247535"><ele>14.0</ele><time>2026-04-04T15:40:16.285Z</time></trkpt><trkpt lat="36.7572517" lon="10.247495"><ele>14.0</ele><time>2026-04-04T15:40:17.284Z</time></trkpt><trkpt lat="36.7571" lon="10.2474483"><ele>14.0</ele><time>2026-04-04T15:40:18.285Z</time></trkpt><trkpt lat="36.756955" lon="10.2474"><ele>14.0</ele><time>2026-04-04T15:40:19.284Z</time></trkpt><trkpt lat="36.7568117" lon="10.24735"><ele>14.0</ele><time>2026-04-04T15:40:20.284Z</time></trkpt><trkpt lat="36.7566717" lon="10.2472983"><ele>14.0</ele><time>2026-04-04T15:40:21.285Z</time></trkpt><trkpt lat="36.7565317" lon="10.2472433"><ele>13.75</ele><time>2026-04-04T15:40:22.284Z</time></trkpt><trkpt lat="36.7563983" lon="10.24719"><ele>13.5</ele><time>2026-04-04T15:40:23.285Z</time></trkpt><trkpt lat="36.7562717" lon="10.2471367"><ele>13.25</ele><time>2026-04-04T15:40:24.285Z</time></trkpt><trkpt lat="36.7561583" lon="10.2470883"><ele>13.0</ele><time>2026-04-04T15:40:25.284Z</time></trkpt><trkpt lat="36.75605" lon="10.2470383"><ele>12.75</ele><time>2026-04-04T15:40:26.284Z</time></trkpt><trkpt lat="36.75594" lon="10.2469817"><ele>12.5</ele><time>2026-04-04T15:40:27.284Z</time></trkpt><trkpt lat="36.7558233" lon="10.24692"><ele>12.25</ele><time>2026-04-04T15:40:28.286Z</time></trkpt><trkpt lat="36.7557067" lon="10.2468583"><ele>12.0</ele><time>2026-04-04T15:40:29.284Z</time></trkpt><trkpt lat="36.7555883" lon="10.2467917"><ele>12.0</ele><time>2026-04-04T15:40:30.285Z</time></trkpt><trkpt lat="36.7554733" lon="10.2467183"><ele>12.0</ele><time>2026-04-04T15:40:31.284Z</time></trkpt><trkpt lat="36.7553583" lon="10.2466367"><ele>12.0</ele><time>2026-04-04T15:40:32.286Z</time></trkpt><trkpt lat="36.75524" lon="10.2465483"><ele>12.0</ele><time>2026-04-04T15:40:33.285Z</time></trkpt><trkpt lat="36.75512" lon="10.246455"><ele>11.5</ele><time>2026-04-04T15:40:34.285Z</time></trkpt><trkpt lat="36.755" lon="10.2463567"><ele>11.0</ele><time>2026-04-04T15:40:35.284Z</time></trkpt><trkpt lat="36.754875" lon="10.2462517"><ele>10.5</ele><time>2026-04-04T15:40:36.285Z</time></trkpt><trkpt lat="36.7547517" lon="10.2461417"><ele>10.0</ele><time>2026-04-04T15:40:37.284Z</time></trkpt><trkpt lat="36.7546333" lon="10.2460317"><ele>10.0</ele><time>2026-04-04T15:40:38.284Z</time></trkpt><trkpt lat="36.7545233" lon="10.24592"><ele>10.0</ele><time>2026-04-04T15:40:39.288Z</time></trkpt><trkpt lat="36.754415" lon="10.2458117"><ele>10.0</ele><time>2026-04-04T15:40:40.286Z</time></trkpt><trkpt lat="36.7543133" lon="10.2457033"><ele>10.0</ele><time>2026-04-04T15:40:41.286Z</time></trkpt><trkpt lat="36.7542133" lon="10.2455967"><ele>10.25</ele><time>2026-04-04T15:40:42.285Z</time></trkpt><trkpt lat="36.7541133" lon="10.245485"><ele>10.5</ele><time>2026-04-04T15:40:43.284Z</time></trkpt><trkpt lat="36.7540133" lon="10.2453683"><ele>10.75</ele><time>2026-04-04T15:40:44.284Z</time></trkpt><trkpt lat="36.7539067" lon="10.24525"><ele>11.0</ele><time>2026-04-04T15:40:45.286Z</time></trkpt><trkpt lat="36.7537967" lon="10.2451283"><ele>11.0</ele><time>2026-04-04T15:40:46.284Z</time></trkpt><trkpt lat="36.7536867" lon="10.2450033"><ele>11.0</ele><time>2026-04-04T15:40:47.288Z</time></trkpt><trkpt lat="36.7535717" lon="10.2448717"><ele>11.0</ele><time>2026-04-04T15:40:48.285Z</time></trkpt><trkpt lat="36.753455" lon="10.2447367"><ele>12.0</ele><time>2026-04-04T15:40:49.284Z</time></trkpt><trkpt lat="36.753335" lon="10.244605"><ele>13.0</ele><time>2026-04-04T15:40:50.286Z</time></trkpt><trkpt lat="36.7532117" lon="10.244475"><ele>14.0</ele><time>2026-04-04T15:40:51.285Z</time></trkpt><trkpt lat="36.7530833" lon="10.2443467"><ele>14.0</ele><time>2026-04-04T15:40:52.285Z</time></trkpt><trkpt lat="36.7529583" lon="10.2442217"><ele>14.0</ele><time>2026-04-04T15:40:53.286Z</time></trkpt><trkpt lat="36.7528383" lon="10.2441083"><ele>14.0</ele><time>2026-04-04T15:40:54.285Z</time></trkpt><trkpt lat="36.7527167" lon="10.2440017"><ele>12.75</ele><time>2026-04-04T15:40:55.285Z</time></trkpt><trkpt lat="36.7525983" lon="10.243895"><ele>11.5</ele><time>2026-04-04T15:40:56.285Z</time></trkpt><trkpt lat="36.7524767" lon="10.24379"><ele>10.25</ele><time>2026-04-04T15:40:57.285Z</time></trkpt><trkpt lat="36.752355" lon="10.2436817"><ele>9.0</ele><time>2026-04-04T15:40:58.284Z</time></trkpt><trkpt lat="36.7522317" lon="10.2435717"><ele>9.0</ele><time>2026-04-04T15:40:59.285Z</time></trkpt><trkpt lat="36.752105" lon="10.2434617"><ele>9.0</ele><time>2026-04-04T15:41:00.285Z</time></trkpt><trkpt lat="36.75198" lon="10.2433517"><ele>9.0</ele><time>2026-04-04T15:41:01.284Z</time></trkpt><trkpt lat="36.7518583" lon="10.2432433"><ele>9.25</ele><time>2026-04-04T15:41:02.285Z</time></trkpt><trkpt lat="36.7517383" lon="10.2431383"><ele>9.5</ele><time>2026-04-04T15:41:03.284Z</time></trkpt><trkpt lat="36.7516217" lon="10.243035"><ele>9.75</ele><time>2026-04-04T15:41:04.284Z</time></trkpt><trkpt lat="36.75151" lon="10.2429333"><ele>10.0</ele><time>2026-04-04T15:41:05.285Z</time></trkpt><trkpt lat="36.7513983" lon="10.2428317"><ele>8.666666666666668</ele><time>2026-04-04T15:41:06.286Z</time></trkpt><trkpt lat="36.7512817" lon="10.2427217"><ele>7.333333333333334</ele><time>2026-04-04T15:41:07.285Z</time></trkpt><trkpt lat="36.7511633" lon="10.242605"><ele>6.0</ele><time>2026-04-04T15:41:08.285Z</time></trkpt><trkpt lat="36.7510467" lon="10.2424783"><ele>6.333333333333334</ele><time>2026-04-04T15:41:09.284Z</time></trkpt><trkpt lat="36.750925" lon="10.24234"><ele>6.666666666666667</ele><time>2026-04-04T15:41:10.285Z</time></trkpt><trkpt lat="36.7508017" lon="10.2421883"><ele>7.0</ele><time>2026-04-04T15:41:11.282Z</time></trkpt><trkpt lat="36.7506767" lon="10.2420333"><ele>7.0</ele><time>2026-04-04T15:41:12.286Z</time></trkpt><trkpt lat="36.7505467" lon="10.24187"><ele>7.0</ele><time>2026-04-04T15:41:13.285Z</time></trkpt><trkpt lat="36.7504067" lon="10.2416983"><ele>7.0</ele><time>2026-04-04T15:41:14.285Z</time></trkpt><trkpt lat="36.75026" lon="10.2415133"><ele>6.5</ele><time>2026-04-04T15:41:15.285Z</time></trkpt><trkpt lat="36.7501017" lon="10.24131"><ele>6.0</ele><time>2026-04-04T15:41:16.285Z</time></trkpt><trkpt lat="36.7499433" lon="10.2410983"><ele>6.0</ele><time>2026-04-04T15:41:17.285Z</time></trkpt><trkpt lat="36.7497883" lon="10.2408867"><ele>6.0</ele><time>2026-04-04T15:41:18.286Z</time></trkpt><trkpt lat="36.74964" lon="10.24068"><ele>6.333333333333334</ele><time>2026-04-04T15:41:19.285Z</time></trkpt><trkpt lat="36.7494933" lon="10.2404783"><ele>6.666666666666667</ele><time>2026-04-04T15:41:20.285Z</time></trkpt><trkpt lat="36.7493517" lon="10.2402767"><ele>7.0</ele><time>2026-04-04T15:41:21.286Z</time></trkpt><trkpt lat="36.7492117" lon="10.2400783"><ele>7.0</ele><time>2026-04-04T15:41:22.286Z</time></trkpt><trkpt lat="36.749075" lon="10.2398783"><ele>7.0</ele><time>2026-04-04T15:41:23.286Z</time></trkpt><trkpt lat="36.74894" lon="10.2396817"><ele>7.0</ele><time>2026-04-04T15:41:24.285Z</time></trkpt><trkpt lat="36.7488067" lon="10.2394917"><ele>7.0</ele><time>2026-04-04T15:41:25.286Z</time></trkpt><trkpt lat="36.7486733" lon="10.23931"><ele>7.0</ele><time>2026-04-04T15:41:26.285Z</time></trkpt><trkpt lat="36.7485367" lon="10.2391367"><ele>7.0</ele><time>2026-04-04T15:41:27.286Z</time></trkpt><trkpt lat="36.7483967" lon="10.2389683"><ele>7.0</ele><time>2026-04-04T15:41:28.283Z</time></trkpt><trkpt lat="36.7482617" lon="10.2388083"><ele>7.0</ele><time>2026-04-04T15:41:29.286Z</time></trkpt><trkpt lat="36.7481283" lon="10.2386517"><ele>7.0</ele><time>2026-04-04T15:41:30.286Z</time></trkpt><trkpt lat="36.7479967" lon="10.238505"><ele>7.0</ele><time>2026-04-04T15:41:31.285Z</time></trkpt><trkpt lat="36.747865" lon="10.2383633"><ele>7.0</ele><time>2026-04-04T15:41:32.285Z</time></trkpt><trkpt lat="36.747735" lon="10.2382283"><ele>7.0</ele><time>2026-04-04T15:41:33.285Z</time></trkpt><trkpt lat="36.7476033" lon="10.2380917"><ele>6.666666666666667</ele><time>2026-04-04T15:41:34.282Z</time></trkpt><trkpt lat="36.7474717" lon="10.2379567"><ele>6.333333333333334</ele><time>2026-04-04T15:41:35.285Z</time></trkpt><trkpt lat="36.7473367" lon="10.2378183"><ele>6.0</ele><time>2026-04-04T15:41:36.283Z</time></trkpt><trkpt lat="36.7472017" lon="10.23768"><ele>6.0</ele><time>2026-04-04T15:41:37.286Z</time></trkpt><trkpt lat="36.74707" lon="10.2375417"><ele>6.0</ele><time>2026-04-04T15:41:38.285Z</time></trkpt><trkpt lat="36.7469383" lon="10.2374067"><ele>6.0</ele><time>2026-04-04T15:41:39.285Z</time></trkpt><trkpt lat="36.7468133" lon="10.2372767"><ele>6.333333333333334</ele><time>2026-04-04T15:41:40.286Z</time></trkpt><trkpt lat="36.7466917" lon="10.237145"><ele>6.666666666666667</ele><time>2026-04-04T15:41:41.286Z</time></trkpt><trkpt lat="36.74657" lon="10.2370133"><ele>7.0</ele><time>2026-04-04T15:41:42.285Z</time></trkpt><trkpt lat="36.7464483" lon="10.2368783"><ele>7.0</ele><time>2026-04-04T15:41:43.285Z</time></trkpt><trkpt lat="36.7463233" lon="10.23673"><ele>7.0</ele><time>2026-04-04T15:41:44.286Z</time></trkpt><trkpt lat="36.7461967" lon="10.23657"><ele>7.0</ele><time>2026-04-04T15:41:45.285Z</time></trkpt><trkpt lat="36.74607" lon="10.2364033"><ele>7.333333333333334</ele><time>2026-04-04T15:41:46.285Z</time></trkpt><trkpt lat="36.74594" lon="10.23623"><ele>7.666666666666666</ele><time>2026-04-04T15:41:47.285Z</time></trkpt><trkpt lat="36.74581" lon="10.2360517"><ele>8.0</ele><time>2026-04-04T15:41:48.285Z</time></trkpt><trkpt lat="36.7456817" lon="10.2358717"><ele>8.0</ele><time>2026-04-04T15:41:49.286Z</time></trkpt><trkpt lat="36.7455533" lon="10.2356867"><ele>8.0</ele><time>2026-04-04T15:41:50.285Z</time></trkpt><trkpt lat="36.7454333" lon="10.235495"><ele>8.0</ele><time>2026-04-04T15:41:51.286Z</time></trkpt><trkpt lat="36.745315" lon="10.2353"><ele>8.333333333333332</ele><time>2026-04-04T15:41:52.286Z</time></trkpt><trkpt lat="36.7452017" lon="10.2351017"><ele>8.666666666666666</ele><time>2026-04-04T15:41:53.286Z</time></trkpt><trkpt lat="36.7450867" lon="10.2349017"><ele>9.0</ele><time>2026-04-04T15:41:54.285Z</time></trkpt><trkpt lat="36.7449717" lon="10.2347017"><ele>9.333333333333334</ele><time>2026-04-04T15:41:55.286Z</time></trkpt><trkpt lat="36.7448567" lon="10.234505"><ele>9.666666666666668</ele><time>2026-04-04T15:41:56.285Z</time></trkpt><trkpt lat="36.7447433" lon="10.2343117"><ele>10.0</ele><time>2026-04-04T15:41:57.285Z</time></trkpt><trkpt lat="36.7446367" lon="10.2341217"><ele>10.666666666666668</ele><time>2026-04-04T15:41:58.286Z</time></trkpt><trkpt lat="36.74453" lon="10.2339417"><ele>11.333333333333334</ele><time>2026-04-04T15:41:59.285Z</time></trkpt><trkpt lat="36.7444317" lon="10.2337733"><ele>12.0</ele><time>2026-04-04T15:42:00.285Z</time></trkpt><trkpt lat="36.7443333" lon="10.23361"><ele>12.0</ele><time>2026-04-04T15:42:01.285Z</time></trkpt><trkpt lat="36.744235" lon="10.2334483"><ele>12.0</ele><time>2026-04-04T15:42:02.286Z</time></trkpt><trkpt lat="36.7441367" lon="10.2332833"><ele>12.0</ele><time>2026-04-04T15:42:03.285Z</time></trkpt><trkpt lat="36.7440383" lon="10.2331167"><ele>13.0</ele><time>2026-04-04T15:42:04.285Z</time></trkpt><trkpt lat="36.74394" lon="10.2329467"><ele>14.0</ele><time>2026-04-04T15:42:05.285Z</time></trkpt><trkpt lat="36.7438367" lon="10.232775"><ele>15.0</ele><time>2026-04-04T15:42:06.285Z</time></trkpt><trkpt lat="36.7437417" lon="10.2326083"><ele>15.0</ele><time>2026-04-04T15:42:07.285Z</time></trkpt><trkpt lat="36.7436467" lon="10.2324483"><ele>15.0</ele><time>2026-04-04T15:42:08.286Z</time></trkpt><trkpt lat="36.743555" lon="10.232295"><ele>15.0</ele><time>2026-04-04T15:42:09.285Z</time></trkpt><trkpt lat="36.7434683" lon="10.2321533"><ele>17.0</ele><time>2026-04-04T15:42:10.285Z</time></trkpt><trkpt lat="36.743385" lon="10.2320167"><ele>19.0</ele><time>2026-04-04T15:42:11.285Z</time></trkpt><trkpt lat="36.7433" lon="10.2318733"><ele>21.0</ele><time>2026-04-04T15:42:12.285Z</time></trkpt><trkpt lat="36.7432133" lon="10.2317217"><ele>23.0</ele><time>2026-04-04T15:42:13.286Z</time></trkpt><trkpt lat="36.743125" lon="10.23156"><ele>20.333333333333336</ele><time>2026-04-04T15:42:14.286Z</time></trkpt><trkpt lat="36.7430317" lon="10.23139"><ele>17.666666666666668</ele><time>2026-04-04T15:42:15.285Z</time></trkpt><trkpt lat="36.7429383" lon="10.2312133"><ele>15.0</ele><time>2026-04-04T15:42:16.286Z</time></trkpt><trkpt lat="36.7428483" lon="10.2310333"><ele>15.0</ele><time>2026-04-04T15:42:17.286Z</time></trkpt><trkpt lat="36.74276" lon="10.23085"><ele>15.0</ele><time>2026-04-04T15:42:18.286Z</time></trkpt><trkpt lat="36.7426733" lon="10.2306633"><ele>15.0</ele><time>2026-04-04T15:42:19.285Z</time></trkpt><trkpt lat="36.7425883" lon="10.2304717"><ele>15.666666666666668</ele><time>2026-04-04T15:42:20.285Z</time></trkpt><trkpt lat="36.7425133" lon="10.2302733"><ele>16.333333333333336</ele><time>2026-04-04T15:42:21.286Z</time></trkpt><trkpt lat="36.7424433" lon="10.2300733"><ele>17.0</ele><time>2026-04-04T15:42:22.285Z</time></trkpt><trkpt lat="36.7423683" lon="10.229875"><ele>15.666666666666668</ele><time>2026-04-04T15:42:23.286Z</time></trkpt><trkpt lat="36.7422917" lon="10.229685"><ele>14.333333333333332</ele><time>2026-04-04T15:42:24.286Z</time></trkpt><trkpt lat="36.7422183" lon="10.229505"><ele>13.0</ele><time>2026-04-04T15:42:25.285Z</time></trkpt><trkpt lat="36.7421467" lon="10.2293317"><ele>13.0</ele><time>2026-04-04T15:42:26.286Z</time></trkpt><trkpt lat="36.7420783" lon="10.2291617"><ele>13.0</ele><time>2026-04-04T15:42:27.285Z</time></trkpt><trkpt lat="36.7420117" lon="10.2289867"><ele>13.0</ele><time>2026-04-04T15:42:28.285Z</time></trkpt><trkpt lat="36.7419483" lon="10.22881"><ele>12.666666666666666</ele><time>2026-04-04T15:42:29.285Z</time></trkpt><trkpt lat="36.7418867" lon="10.22863"><ele>12.333333333333332</ele><time>2026-04-04T15:42:30.284Z</time></trkpt><trkpt lat="36.74183" lon="10.2284483"><ele>12.0</ele><time>2026-04-04T15:42:31.285Z</time></trkpt><trkpt lat="36.7417767" lon="10.2282617"><ele>10.666666666666666</ele><time>2026-04-04T15:42:32.285Z</time></trkpt><trkpt lat="36.7417267" lon="10.22807"><ele>9.333333333333332</ele><time>2026-04-04T15:42:33.286Z</time></trkpt><trkpt lat="36.7416783" lon="10.2278767"><ele>8.0</ele><time>2026-04-04T15:42:34.285Z</time></trkpt><trkpt lat="36.7416283" lon="10.227685"><ele>8.0</ele><time>2026-04-04T15:42:35.285Z</time></trkpt><trkpt lat="36.74158" lon="10.227495"><ele>8.0</ele><time>2026-04-04T15:42:36.286Z</time></trkpt><trkpt lat="36.7415333" lon="10.2273133"><ele>8.0</ele><time>2026-04-04T15:42:37.286Z</time></trkpt><trkpt lat="36.7414817" lon="10.2271367"><ele>8.5</ele><time>2026-04-04T15:42:38.286Z</time></trkpt><trkpt lat="36.7414317" lon="10.2269617"><ele>9.0</ele><time>2026-04-04T15:42:39.286Z</time></trkpt><trkpt lat="36.7413783" lon="10.2267917"><ele>9.5</ele><time>2026-04-04T15:42:40.285Z</time></trkpt><trkpt lat="36.7413233" lon="10.2266217"><ele>10.0</ele><time>2026-04-04T15:42:41.285Z</time></trkpt><trkpt lat="36.7412667" lon="10.226445"><ele>10.0</ele><time>2026-04-04T15:42:42.285Z</time></trkpt><trkpt lat="36.7412083" lon="10.226265"><ele>10.0</ele><time>2026-04-04T15:42:43.285Z</time></trkpt><trkpt lat="36.74115" lon="10.2260817"><ele>10.0</ele><time>2026-04-04T15:42:44.285Z</time></trkpt><trkpt lat="36.7410867" lon="10.225895"><ele>10.333333333333334</ele><time>2026-04-04T15:42:45.286Z</time></trkpt><trkpt lat="36.7410233" lon="10.2257033"><ele>10.666666666666666</ele><time>2026-04-04T15:42:46.285Z</time></trkpt><trkpt lat="36.7409583" lon="10.2255083"><ele>11.0</ele><time>2026-04-04T15:42:47.285Z</time></trkpt><trkpt lat="36.7408933" lon="10.22531"><ele>11.0</ele><time>2026-04-04T15:42:48.286Z</time></trkpt><trkpt lat="36.7408317" lon="10.2251083"><ele>11.0</ele><time>2026-04-04T15:42:49.285Z</time></trkpt><trkpt lat="36.7407683" lon="10.2249083"><ele>11.0</ele><time>2026-04-04T15:42:50.286Z</time></trkpt><trkpt lat="36.740705" lon="10.2247083"><ele>11.0</ele><time>2026-04-04T15:42:51.285Z</time></trkpt><trkpt lat="36.7406433" lon="10.22451"><ele>11.0</ele><time>2026-04-04T15:42:52.285Z</time></trkpt><trkpt lat="36.7405833" lon="10.224315"><ele>11.0</ele><time>2026-04-04T15:42:53.286Z</time></trkpt><trkpt lat="36.7405283" lon="10.2241283"><ele>10.75</ele><time>2026-04-04T15:42:54.285Z</time></trkpt><trkpt lat="36.7404733" lon="10.2239533"><ele>10.5</ele><time>2026-04-04T15:42:55.285Z</time></trkpt><trkpt lat="36.74042" lon="10.2237867"><ele>10.25</ele><time>2026-04-04T15:42:56.283Z</time></trkpt><trkpt lat="36.7403717" lon="10.2236317"><ele>10.0</ele><time>2026-04-04T15:42:57.285Z</time></trkpt><trkpt lat="36.74033" lon="10.2235"><ele>10.0</ele><time>2026-04-04T15:42:58.285Z</time></trkpt><trkpt lat="36.7402917" lon="10.223385"><ele>10.0</ele><time>2026-04-04T15:42:59.285Z</time></trkpt><trkpt lat="36.7402533" lon="10.223275"><ele>10.0</ele><time>2026-04-04T15:43:00.285Z</time></trkpt><trkpt lat="36.74022" lon="10.2231767"><ele>10.0</ele><time>2026-04-04T15:43:01.285Z</time></trkpt><trkpt lat="36.7401867" lon="10.22308"><ele>10.0</ele><time>2026-04-04T15:43:02.286Z</time></trkpt><trkpt lat="36.7401567" lon="10.2229833"><ele>10.0</ele><time>2026-04-04T15:43:03.283Z</time></trkpt><trkpt lat="36.7401217" lon="10.2228817"><ele>10.4</ele><time>2026-04-04T15:43:04.285Z</time></trkpt><trkpt lat="36.7400867" lon="10.2227783"><ele>10.8</ele><time>2026-04-04T15:43:05.286Z</time></trkpt><trkpt lat="36.7400467" lon="10.222665"><ele>11.2</ele><time>2026-04-04T15:43:06.284Z</time></trkpt><trkpt lat="36.740005" lon="10.222545"><ele>11.6</ele><time>2026-04-04T15:43:07.283Z</time></trkpt><trkpt lat="36.7399633" lon="10.222425"><ele>12.0</ele><time>2026-04-04T15:43:08.282Z</time></trkpt><trkpt lat="36.7399233" lon="10.2223083"><ele>12.2</ele><time>2026-04-04T15:43:09.283Z</time></trkpt><trkpt lat="36.739885" lon="10.2221983"><ele>12.399999999999999</ele><time>2026-04-04T15:43:10.284Z</time></trkpt><trkpt lat="36.7398467" lon="10.222085"><ele>12.600000000000001</ele><time>2026-04-04T15:43:11.283Z</time></trkpt><trkpt lat="36.7398033" lon="10.22197"><ele>12.8</ele><time>2026-04-04T15:43:12.282Z</time></trkpt><trkpt lat="36.739765" lon="10.2218583"><ele>13.0</ele><time>2026-04-04T15:43:13.285Z</time></trkpt><trkpt lat="36.739725" lon="10.22174"><ele>13.0</ele><time>2026-04-04T15:43:14.285Z</time></trkpt><trkpt lat="36.7396833" lon="10.2216233"><ele>13.0</ele><time>2026-04-04T15:43:15.285Z</time></trkpt><trkpt lat="36.7396417" lon="10.221505"><ele>13.0</ele><time>2026-04-04T15:43:16.285Z</time></trkpt><trkpt lat="36.7395983" lon="10.2213767"><ele>13.0</ele><time>2026-04-04T15:43:17.282Z</time></trkpt><trkpt lat="36.7395467" lon="10.2212367"><ele>13.0</ele><time>2026-04-04T15:43:18.284Z</time></trkpt><trkpt lat="36.73949" lon="10.22109"><ele>13.5</ele><time>2026-04-04T15:43:19.282Z</time></trkpt><trkpt lat="36.739435" lon="10.2209433"><ele>14.0</ele><time>2026-04-04T15:43:20.281Z</time></trkpt><trkpt lat="36.7393783" lon="10.220795"><ele>14.5</ele><time>2026-04-04T15:43:21.283Z</time></trkpt><trkpt lat="36.73932" lon="10.2206433"><ele>15.0</ele><time>2026-04-04T15:43:22.282Z</time></trkpt><trkpt lat="36.7392567" lon="10.2204917"><ele>15.0</ele><time>2026-04-04T15:43:23.282Z</time></trkpt><trkpt lat="36.73919" lon="10.2203317"><ele>15.0</ele><time>2026-04-04T15:43:24.282Z</time></trkpt><trkpt lat="36.7391167" lon="10.220165"><ele>15.0</ele><time>2026-04-04T15:43:25.282Z</time></trkpt><trkpt lat="36.7390433" lon="10.2199917"><ele>15.0</ele><time>2026-04-04T15:43:26.281Z</time></trkpt><trkpt lat="36.7389767" lon="10.2198217"><ele>15.0</ele><time>2026-04-04T15:43:27.284Z</time></trkpt><trkpt lat="36.7389217" lon="10.2196583"><ele>15.0</ele><time>2026-04-04T15:43:28.286Z</time></trkpt><trkpt lat="36.738875" lon="10.2194983"><ele>15.0</ele><time>2026-04-04T15:43:29.285Z</time></trkpt><trkpt lat="36.7388383" lon="10.219335"><ele>15.25</ele><time>2026-04-04T15:43:30.285Z</time></trkpt><trkpt lat="36.7388083" lon="10.2191717"><ele>15.5</ele><time>2026-04-04T15:43:31.284Z</time></trkpt><trkpt lat="36.738785" lon="10.2190083"><ele>15.75</ele><time>2026-04-04T15:43:32.284Z</time></trkpt><trkpt lat="36.7387633" lon="10.2188467"><ele>16.0</ele><time>2026-04-04T15:43:33.285Z</time></trkpt><trkpt lat="36.7387467" lon="10.2186867"><ele>17.5</ele><time>2026-04-04T15:43:34.284Z</time></trkpt><trkpt lat="36.7387333" lon="10.2185333"><ele>19.0</ele><time>2026-04-04T15:43:35.285Z</time></trkpt><trkpt lat="36.7387217" lon="10.2183783"><ele>20.5</ele><time>2026-04-04T15:43:36.284Z</time></trkpt><trkpt lat="36.7387117" lon="10.2182267"><ele>22.0</ele><time>2026-04-04T15:43:37.284Z</time></trkpt><trkpt lat="36.7386967" lon="10.2180717"><ele>22.25</ele><time>2026-04-04T15:43:38.285Z</time></trkpt><trkpt lat="36.7386833" lon="10.2179167"><ele>22.5</ele><time>2026-04-04T15:43:39.284Z</time></trkpt><trkpt lat="36.738665" lon="10.2177683"><ele>22.75</ele><time>2026-04-04T15:43:40.284Z</time></trkpt><trkpt lat="36.7386433" lon="10.2176267"><ele>23.0</ele><time>2026-04-04T15:43:41.284Z</time></trkpt><trkpt lat="36.7386167" lon="10.2174867"><ele>23.0</ele><time>2026-04-04T15:43:42.286Z</time></trkpt><trkpt lat="36.7385817" lon="10.2173433"><ele>23.0</ele><time>2026-04-04T15:43:43.284Z</time></trkpt><trkpt lat="36.7385367" lon="10.2171933"><ele>23.0</ele><time>2026-04-04T15:43:44.281Z</time></trkpt><trkpt lat="36.7384833" lon="10.2170417"><ele>23.0</ele><time>2026-04-04T15:43:45.282Z</time></trkpt><trkpt lat="36.7384183" lon="10.2168867"><ele>22.75</ele><time>2026-04-04T15:43:46.282Z</time></trkpt><trkpt lat="36.7383467" lon="10.2167367"><ele>22.5</ele><time>2026-04-04T15:43:47.282Z</time></trkpt><trkpt lat="36.7382717" lon="10.2166017"><ele>22.25</ele><time>2026-04-04T15:43:48.282Z</time></trkpt><trkpt lat="36.7381917" lon="10.2164717"><ele>22.0</ele><time>2026-04-04T15:43:49.283Z</time></trkpt><trkpt lat="36.7381083" lon="10.2163517"><ele>22.0</ele><time>2026-04-04T15:43:50.281Z</time></trkpt><trkpt lat="36.7380233" lon="10.2162433"><ele>22.0</ele><time>2026-04-04T15:43:51.283Z</time></trkpt><trkpt lat="36.7379433" lon="10.2161533"><ele>22.0</ele><time>2026-04-04T15:43:52.283Z</time></trkpt><trkpt lat="36.7378633" lon="10.216075"><ele>22.0</ele><time>2026-04-04T15:43:53.283Z</time></trkpt><trkpt lat="36.737785" lon="10.2160067"><ele>22.0</ele><time>2026-04-04T15:43:54.282Z</time></trkpt><trkpt lat="36.737705" lon="10.21595"><ele>22.166666666666664</ele><time>2026-04-04T15:43:55.282Z</time></trkpt><trkpt lat="36.7376233" lon="10.2159033"><ele>22.333333333333332</ele><time>2026-04-04T15:43:56.282Z</time></trkpt><trkpt lat="36.7375367" lon="10.2158683"><ele>22.5</ele><time>2026-04-04T15:43:57.284Z</time></trkpt><trkpt lat="36.7374467" lon="10.2158433"><ele>22.666666666666668</ele><time>2026-04-04T15:43:58.284Z</time></trkpt><trkpt lat="36.7373617" lon="10.215835"><ele>22.833333333333336</ele><time>2026-04-04T15:43:59.285Z</time></trkpt><trkpt lat="36.7372767" lon="10.2158467"><ele>23.0</ele><time>2026-04-04T15:44:00.285Z</time></trkpt><trkpt lat="36.7371967" lon="10.2158767"><ele>23.0</ele><time>2026-04-04T15:44:01.285Z</time></trkpt><trkpt lat="36.73712" lon="10.21593"><ele>23.0</ele><time>2026-04-04T15:44:02.285Z</time></trkpt><trkpt lat="36.7370483" lon="10.2160017"><ele>23.0</ele><time>2026-04-04T15:44:03.282Z</time></trkpt><trkpt lat="36.736985" lon="10.2160983"><ele>23.0</ele><time>2026-04-04T15:44:04.282Z</time></trkpt><trkpt lat="36.73693" lon="10.2162117"><ele>23.0</ele><time>2026-04-04T15:44:05.283Z</time></trkpt><trkpt lat="36.736885" lon="10.216345"><ele>22.25</ele><time>2026-04-04T15:44:06.282Z</time></trkpt><trkpt lat="36.7368517" lon="10.2164883"><ele>21.5</ele><time>2026-04-04T15:44:07.282Z</time></trkpt><trkpt lat="36.7368183" lon="10.2166433"><ele>20.75</ele><time>2026-04-04T15:44:08.282Z</time></trkpt><trkpt lat="36.7367883" lon="10.2168067"><ele>20.0</ele><time>2026-04-04T15:44:09.282Z</time></trkpt><trkpt lat="36.7367883" lon="10.2169933"><ele>20.0</ele><time>2026-04-04T15:44:10.282Z</time></trkpt><trkpt lat="36.7368183" lon="10.2171767"><ele>20.0</ele><time>2026-04-04T15:44:11.287Z</time></trkpt><trkpt lat="36.7368617" lon="10.2173567"><ele>20.0</ele><time>2026-04-04T15:44:12.286Z</time></trkpt><trkpt lat="36.7369033" lon="10.2175283"><ele>20.0</ele><time>2026-04-04T15:44:13.285Z</time></trkpt><trkpt lat="36.7369417" lon="10.2176917"><ele>19.75</ele><time>2026-04-04T15:44:14.282Z</time></trkpt><trkpt lat="36.7369767" lon="10.2178483"><ele>19.5</ele><time>2026-04-04T15:44:15.282Z</time></trkpt><trkpt lat="36.7370083" lon="10.218"><ele>19.25</ele><time>2026-04-04T15:44:16.283Z</time></trkpt><trkpt lat="36.7370383" lon="10.218155"><ele>19.0</ele><time>2026-04-04T15:44:17.283Z</time></trkpt><trkpt lat="36.73706" lon="10.2183183"><ele>18.75</ele><time>2026-04-04T15:44:18.282Z</time></trkpt><trkpt lat="36.7370667" lon="10.21848"><ele>18.5</ele><time>2026-04-04T15:44:19.282Z</time></trkpt><trkpt lat="36.7370583" lon="10.2186333"><ele>18.25</ele><time>2026-04-04T15:44:20.282Z</time></trkpt><trkpt lat="36.737035" lon="10.21878"><ele>18.0</ele><time>2026-04-04T15:44:21.285Z</time></trkpt><trkpt lat="36.7370017" lon="10.2189217"><ele>17.75</ele><time>2026-04-04T15:44:22.283Z</time></trkpt><trkpt lat="36.73696" lon="10.219055"><ele>17.5</ele><time>2026-04-04T15:44:23.282Z</time></trkpt><trkpt lat="36.7369083" lon="10.219175"><ele>17.25</ele><time>2026-04-04T15:44:24.284Z</time></trkpt><trkpt lat="36.7368433" lon="10.2192933"><ele>17.0</ele><time>2026-04-04T15:44:25.284Z</time></trkpt><trkpt lat="36.7367733" lon="10.2194117"><ele>16.75</ele><time>2026-04-04T15:44:26.284Z</time></trkpt><trkpt lat="36.736695" lon="10.21953"><ele>16.5</ele><time>2026-04-04T15:44:27.284Z</time></trkpt><trkpt lat="36.73661" lon="10.219655"><ele>16.25</ele><time>2026-04-04T15:44:28.284Z</time></trkpt><trkpt lat="36.736525" lon="10.2197833"><ele>16.0</ele><time>2026-04-04T15:44:29.285Z</time></trkpt><trkpt lat="36.736435" lon="10.219915"><ele>15.5</ele><time>2026-04-04T15:44:30.285Z</time></trkpt><trkpt lat="36.736345" lon="10.22005"><ele>15.0</ele><time>2026-04-04T15:44:31.284Z</time></trkpt><trkpt lat="36.7362533" lon="10.22019"><ele>14.5</ele><time>2026-04-04T15:44:32.286Z</time></trkpt><trkpt lat="36.73616" lon="10.2203267"><ele>14.0</ele><time>2026-04-04T15:44:33.282Z</time></trkpt><trkpt lat="36.7360717" lon="10.2204633"><ele>14.5</ele><time>2026-04-04T15:44:34.283Z</time></trkpt><trkpt lat="36.7359833" lon="10.2206033"><ele>15.0</ele><time>2026-04-04T15:44:35.283Z</time></trkpt><trkpt lat="36.7358933" lon="10.2207483"><ele>15.5</ele><time>2026-04-04T15:44:36.283Z</time></trkpt><trkpt lat="36.7358" lon="10.2208967"><ele>16.0</ele><time>2026-04-04T15:44:37.282Z</time></trkpt><trkpt lat="36.7357083" lon="10.2210483"><ele>16.333333333333332</ele><time>2026-04-04T15:44:38.281Z</time></trkpt><trkpt lat="36.7356167" lon="10.2212033"><ele>16.666666666666668</ele><time>2026-04-04T15:44:39.282Z</time></trkpt><trkpt lat="36.735525" lon="10.22136"><ele>17.0</ele><time>2026-04-04T15:44:40.285Z</time></trkpt><trkpt lat="36.7354317" lon="10.22152"><ele>16.333333333333336</ele><time>2026-04-04T15:44:41.284Z</time></trkpt><trkpt lat="36.73534" lon="10.22168"><ele>15.666666666666668</ele><time>2026-04-04T15:44:42.285Z</time></trkpt><trkpt lat="36.7352467" lon="10.221845"><ele>15.0</ele><time>2026-04-04T15:44:43.284Z</time></trkpt><trkpt lat="36.735155" lon="10.2220117"><ele>15.0</ele><time>2026-04-04T15:44:44.281Z</time></trkpt><trkpt lat="36.735065" lon="10.2221767"><ele>15.0</ele><time>2026-04-04T15:44:45.282Z</time></trkpt><trkpt lat="36.7349717" lon="10.2223483"><ele>15.0</ele><time>2026-04-04T15:44:46.283Z</time></trkpt><trkpt lat="36.734875" lon="10.2225233"><ele>15.0</ele><time>2026-04-04T15:44:47.283Z</time></trkpt><trkpt lat="36.7347767" lon="10.2227033"><ele>15.0</ele><time>2026-04-04T15:44:48.282Z</time></trkpt><trkpt lat="36.734675" lon="10.2228883"><ele>15.0</ele><time>2026-04-04T15:44:49.283Z</time></trkpt><trkpt lat="36.7345733" lon="10.223075"><ele>14.666666666666668</ele><time>2026-04-04T15:44:50.282Z</time></trkpt><trkpt lat="36.7344717" lon="10.223265"><ele>14.333333333333334</ele><time>2026-04-04T15:44:51.283Z</time></trkpt><trkpt lat="36.734375" lon="10.2234567"><ele>14.0</ele><time>2026-04-04T15:44:52.283Z</time></trkpt><trkpt lat="36.7342783" lon="10.2236483"><ele>14.0</ele><time>2026-04-04T15:44:53.282Z</time></trkpt><trkpt lat="36.73418" lon="10.2238417"><ele>14.0</ele><time>2026-04-04T15:44:54.284Z</time></trkpt><trkpt lat="36.734085" lon="10.2240383"><ele>14.0</ele><time>2026-04-04T15:44:55.284Z</time></trkpt><trkpt lat="36.7339883" lon="10.224235"><ele>14.0</ele><time>2026-04-04T15:44:56.284Z</time></trkpt><trkpt lat="36.733895" lon="10.2244333"><ele>14.0</ele><time>2026-04-04T15:44:57.284Z</time></trkpt><trkpt lat="36.7338017" lon="10.224635"><ele>14.0</ele><time>2026-04-04T15:44:58.284Z</time></trkpt><trkpt lat="36.73371" lon="10.2248367"><ele>14.0</ele><time>2026-04-04T15:44:59.287Z</time></trkpt><trkpt lat="36.7336183" lon="10.2250417"><ele>14.0</ele><time>2026-04-04T15:45:00.287Z</time></trkpt><trkpt lat="36.73353" lon="10.2252483"><ele>14.0</ele><time>2026-04-04T15:45:01.284Z</time></trkpt><trkpt lat="36.7334433" lon="10.2254567"><ele>14.666666666666668</ele><time>2026-04-04T15:45:02.284Z</time></trkpt><trkpt lat="36.7333567" lon="10.2256667"><ele>15.333333333333332</ele><time>2026-04-04T15:45:03.285Z</time></trkpt><trkpt lat="36.7332733" lon="10.2258783"><ele>16.0</ele><time>2026-04-04T15:45:04.284Z</time></trkpt><trkpt lat="36.73319" lon="10.2260883"><ele>16.0</ele><time>2026-04-04T15:45:05.283Z</time></trkpt><trkpt lat="36.7331083" lon="10.2263017"><ele>16.0</ele><time>2026-04-04T15:45:06.282Z</time></trkpt><trkpt lat="36.7330283" lon="10.226515"><ele>16.0</ele><time>2026-04-04T15:45:07.283Z</time></trkpt><trkpt lat="36.7329517" lon="10.2267283"><ele>16.333333333333332</ele><time>2026-04-04T15:45:08.282Z</time></trkpt><trkpt lat="36.732875" lon="10.2269417"><ele>16.666666666666668</ele><time>2026-04-04T15:45:09.282Z</time></trkpt><trkpt lat="36.7327983" lon="10.2271583"><ele>17.0</ele><time>2026-04-04T15:45:10.285Z</time></trkpt><trkpt lat="36.7327233" lon="10.227375"><ele>17.0</ele><time>2026-04-04T15:45:11.284Z</time></trkpt><trkpt lat="36.73265" lon="10.2275933"><ele>17.0</ele><time>2026-04-04T15:45:12.286Z</time></trkpt><trkpt lat="36.7325783" lon="10.2278133"><ele>17.0</ele><time>2026-04-04T15:45:13.284Z</time></trkpt><trkpt lat="36.732505" lon="10.2280333"><ele>16.0</ele><time>2026-04-04T15:45:14.282Z</time></trkpt><trkpt lat="36.7324317" lon="10.2282533"><ele>15.0</ele><time>2026-04-04T15:45:15.283Z</time></trkpt><trkpt lat="36.7323617" lon="10.2284733"><ele>14.0</ele><time>2026-04-04T15:45:16.283Z</time></trkpt><trkpt lat="36.7322917" lon="10.2286967"><ele>14.0</ele><time>2026-04-04T15:45:17.283Z</time></trkpt><trkpt lat="36.73222" lon="10.2289283"><ele>14.0</ele><time>2026-04-04T15:45:18.282Z</time></trkpt><trkpt lat="36.7321433" lon="10.2291767"><ele>14.0</ele><time>2026-04-04T15:45:19.283Z</time></trkpt><trkpt lat="36.7320617" lon="10.22944"><ele>13.5</ele><time>2026-04-04T15:45:20.282Z</time></trkpt><trkpt lat="36.731975" lon="10.2297117"><ele>13.0</ele><time>2026-04-04T15:45:21.282Z</time></trkpt><trkpt lat="36.7318883" lon="10.2299783"><ele>14.0</ele><time>2026-04-04T15:45:22.283Z</time></trkpt><trkpt lat="36.7317983" lon="10.23024"><ele>15.0</ele><time>2026-04-04T15:45:23.283Z</time></trkpt><trkpt lat="36.7317117" lon="10.2305"><ele>15.0</ele><time>2026-04-04T15:45:24.282Z</time></trkpt><trkpt lat="36.7316217" lon="10.2307633"><ele>15.0</ele><time>2026-04-04T15:45:25.283Z</time></trkpt><trkpt lat="36.73153" lon="10.23104"><ele>15.0</ele><time>2026-04-04T15:45:26.283Z</time></trkpt><trkpt lat="36.73143" lon="10.2313283"><ele>15.0</ele><time>2026-04-04T15:45:27.282Z</time></trkpt><trkpt lat="36.73133" lon="10.2316167"><ele>15.5</ele><time>2026-04-04T15:45:28.283Z</time></trkpt><trkpt lat="36.7312333" lon="10.2318983"><ele>16.0</ele><time>2026-04-04T15:45:29.282Z</time></trkpt><trkpt lat="36.73114" lon="10.2321717"><ele>16.0</ele><time>2026-04-04T15:45:30.283Z</time></trkpt><trkpt lat="36.73105" lon="10.23244"><ele>16.0</ele><time>2026-04-04T15:45:31.286Z</time></trkpt><trkpt lat="36.73096" lon="10.232705"><ele>16.0</ele><time>2026-04-04T15:45:32.284Z</time></trkpt><trkpt lat="36.7308733" lon="10.2329617"><ele>16.0</ele><time>2026-04-04T15:45:33.282Z</time></trkpt><trkpt lat="36.730785" lon="10.233215"><ele>16.0</ele><time>2026-04-04T15:45:34.283Z</time></trkpt><trkpt lat="36.7306967" lon="10.2334733"><ele>15.5</ele><time>2026-04-04T15:45:35.283Z</time></trkpt><trkpt lat="36.73061" lon="10.2337333"><ele>15.0</ele><time>2026-04-04T15:45:36.283Z</time></trkpt><trkpt lat="36.7305233" lon="10.2339917"><ele>14.333333333333332</ele><time>2026-04-04T15:45:37.282Z</time></trkpt><trkpt lat="36.7304367" lon="10.234245"><ele>13.666666666666666</ele><time>2026-04-04T15:45:38.282Z</time></trkpt><trkpt lat="36.7303533" lon="10.23449"><ele>13.0</ele><time>2026-04-04T15:45:39.283Z</time></trkpt><trkpt lat="36.7302733" lon="10.2347333"><ele>13.0</ele><time>2026-04-04T15:45:40.284Z</time></trkpt><trkpt lat="36.7301967" lon="10.2349733"><ele>13.0</ele><time>2026-04-04T15:45:41.282Z</time></trkpt><trkpt lat="36.73012" lon="10.2352133"><ele>13.0</ele><time>2026-04-04T15:45:42.283Z</time></trkpt><trkpt lat="36.730045" lon="10.2354567"><ele>12.666666666666666</ele><time>2026-04-04T15:45:43.283Z</time></trkpt><trkpt lat="36.7299683" lon="10.2357033"><ele>12.333333333333332</ele><time>2026-04-04T15:45:44.282Z</time></trkpt><trkpt lat="36.7298933" lon="10.2359583"><ele>12.0</ele><time>2026-04-04T15:45:45.283Z</time></trkpt><trkpt lat="36.7298233" lon="10.2362167"><ele>11.0</ele><time>2026-04-04T15:45:46.283Z</time></trkpt><trkpt lat="36.7297583" lon="10.2364767"><ele>10.0</ele><time>2026-04-04T15:45:47.285Z</time></trkpt><trkpt lat="36.7296967" lon="10.2367383"><ele>9.0</ele><time>2026-04-04T15:45:48.286Z</time></trkpt><trkpt lat="36.7296367" lon="10.2370017"><ele>9.0</ele><time>2026-04-04T15:45:49.285Z</time></trkpt><trkpt lat="36.72958" lon="10.2372767"><ele>9.0</ele><time>2026-04-04T15:45:50.284Z</time></trkpt><trkpt lat="36.72952" lon="10.23757"><ele>9.0</ele><time>2026-04-04T15:45:51.286Z</time></trkpt><trkpt lat="36.7294583" lon="10.2378783"><ele>9.0</ele><time>2026-04-04T15:45:52.282Z</time></trkpt><trkpt lat="36.7293967" lon="10.23819"><ele>10.5</ele><time>2026-04-04T15:45:53.285Z</time></trkpt><trkpt lat="36.7293417" lon="10.23849"><ele>12.0</ele><time>2026-04-04T15:45:54.285Z</time></trkpt><trkpt lat="36.7292917" lon="10.2387867"><ele>12.0</ele><time>2026-04-04T15:45:55.286Z</time></trkpt><trkpt lat="36.7292433" lon="10.23908"><ele>12.0</ele><time>2026-04-04T15:45:56.286Z</time></trkpt><trkpt lat="36.7291967" lon="10.2393717"><ele>12.0</ele><time>2026-04-04T15:45:57.285Z</time></trkpt><trkpt lat="36.729155" lon="10.2396617"><ele>12.0</ele><time>2026-04-04T15:45:58.285Z</time></trkpt><trkpt lat="36.7291117" lon="10.23995"><ele>12.0</ele><time>2026-04-04T15:45:59.286Z</time></trkpt><trkpt lat="36.7290667" lon="10.2402367"><ele>12.0</ele><time>2026-04-04T15:46:00.285Z</time></trkpt><trkpt lat="36.7290233" lon="10.2405233"><ele>12.0</ele><time>2026-04-04T15:46:01.286Z</time></trkpt><trkpt lat="36.72898" lon="10.2408067"><ele>12.0</ele><time>2026-04-04T15:46:02.285Z</time></trkpt><trkpt lat="36.728935" lon="10.2410817"><ele>12.0</ele><time>2026-04-04T15:46:03.285Z</time></trkpt><trkpt lat="36.7288917" lon="10.24135"><ele>12.0</ele><time>2026-04-04T15:46:04.286Z</time></trkpt><trkpt lat="36.7288517" lon="10.2416167"><ele>12.0</ele><time>2026-04-04T15:46:05.286Z</time></trkpt><trkpt lat="36.7288117" lon="10.2418817"><ele>11.666666666666666</ele><time>2026-04-04T15:46:06.286Z</time></trkpt><trkpt lat="36.7287733" lon="10.2421417"><ele>11.333333333333332</ele><time>2026-04-04T15:46:07.286Z</time></trkpt><trkpt lat="36.7287367" lon="10.2424017"><ele>11.0</ele><time>2026-04-04T15:46:08.285Z</time></trkpt><trkpt lat="36.7286983" lon="10.24266"><ele>11.0</ele><time>2026-04-04T15:46:09.286Z</time></trkpt><trkpt lat="36.7286583" lon="10.2429133"><ele>11.0</ele><time>2026-04-04T15:46:10.286Z</time></trkpt><trkpt lat="36.7286183" lon="10.2431633"><ele>11.0</ele><time>2026-04-04T15:46:11.285Z</time></trkpt><trkpt lat="36.7285767" lon="10.2434117"><ele>11.0</ele><time>2026-04-04T15:46:12.285Z</time></trkpt><trkpt lat="36.7285317" lon="10.2436567"><ele>11.0</ele><time>2026-04-04T15:46:13.285Z</time></trkpt><trkpt lat="36.72849" lon="10.2438983"><ele>11.0</ele><time>2026-04-04T15:46:14.285Z</time></trkpt><trkpt lat="36.7284483" lon="10.244135"><ele>11.0</ele><time>2026-04-04T15:46:15.284Z</time></trkpt><trkpt lat="36.7284067" lon="10.244365"><ele>11.0</ele><time>2026-04-04T15:46:16.283Z</time></trkpt><trkpt lat="36.728365" lon="10.2445933"><ele>11.0</ele><time>2026-04-04T15:46:17.284Z</time></trkpt><trkpt lat="36.728325" lon="10.2448217"><ele>10.666666666666666</ele><time>2026-04-04T15:46:18.283Z</time></trkpt><trkpt lat="36.7282833" lon="10.24505"><ele>10.333333333333334</ele><time>2026-04-04T15:46:19.283Z</time></trkpt><trkpt lat="36.7282417" lon="10.24528"><ele>10.0</ele><time>2026-04-04T15:46:20.282Z</time></trkpt><trkpt lat="36.7281967" lon="10.2455117"><ele>10.666666666666668</ele><time>2026-04-04T15:46:21.283Z</time></trkpt><trkpt lat="36.7281517" lon="10.2457483"><ele>11.333333333333334</ele><time>2026-04-04T15:46:22.285Z</time></trkpt><trkpt lat="36.7281" lon="10.2459867"><ele>12.0</ele><time>2026-04-04T15:46:23.285Z</time></trkpt><trkpt lat="36.7280483" lon="10.2462267"><ele>13.0</ele><time>2026-04-04T15:46:24.285Z</time></trkpt><trkpt lat="36.7279933" lon="10.2464733"><ele>14.0</ele><time>2026-04-04T15:46:25.286Z</time></trkpt><trkpt lat="36.7279383" lon="10.2467183"><ele>15.0</ele><time>2026-04-04T15:46:26.285Z</time></trkpt><trkpt lat="36.72788" lon="10.2469617"><ele>15.0</ele><time>2026-04-04T15:46:27.283Z</time></trkpt><trkpt lat="36.727825" lon="10.247215"><ele>15.0</ele><time>2026-04-04T15:46:28.285Z</time></trkpt><trkpt lat="36.7277667" lon="10.2474617"><ele>15.0</ele><time>2026-04-04T15:46:29.285Z</time></trkpt><trkpt lat="36.7277083" lon="10.2477133"><ele>14.333333333333332</ele><time>2026-04-04T15:46:30.287Z</time></trkpt><trkpt lat="36.7276467" lon="10.2479567"><ele>13.666666666666666</ele><time>2026-04-04T15:46:31.285Z</time></trkpt><trkpt lat="36.727585" lon="10.248205"><ele>13.0</ele><time>2026-04-04T15:46:32.285Z</time></trkpt><trkpt lat="36.72752" lon="10.248455"><ele>13.0</ele><time>2026-04-04T15:46:33.285Z</time></trkpt><trkpt lat="36.7274517" lon="10.24871"><ele>13.0</ele><time>2026-04-04T15:46:34.286Z</time></trkpt><trkpt lat="36.72738" lon="10.2489617"><ele>13.0</ele><time>2026-04-04T15:46:35.285Z</time></trkpt><trkpt lat="36.7273083" lon="10.2492167"><ele>13.0</ele><time>2026-04-04T15:46:36.283Z</time></trkpt><trkpt lat="36.727235" lon="10.2494683"><ele>13.0</ele><time>2026-04-04T15:46:37.285Z</time></trkpt><trkpt lat="36.7271617" lon="10.24972"><ele>13.0</ele><time>2026-04-04T15:46:38.282Z</time></trkpt><trkpt lat="36.7270867" lon="10.2499733"><ele>12.666666666666666</ele><time>2026-04-04T15:46:39.286Z</time></trkpt><trkpt lat="36.7270133" lon="10.2502283"><ele>12.333333333333332</ele><time>2026-04-04T15:46:40.285Z</time></trkpt><trkpt lat="36.72694" lon="10.25048"><ele>12.0</ele><time>2026-04-04T15:46:41.285Z</time></trkpt><trkpt lat="36.7268633" lon="10.2507283"><ele>12.0</ele><time>2026-04-04T15:46:42.285Z</time></trkpt><trkpt lat="36.7267867" lon="10.2509717"><ele>12.0</ele><time>2026-04-04T15:46:43.286Z</time></trkpt><trkpt lat="36.7267083" lon="10.2512117"><ele>12.0</ele><time>2026-04-04T15:46:44.283Z</time></trkpt><trkpt lat="36.7266267" lon="10.2514533"><ele>11.666666666666666</ele><time>2026-04-04T15:46:45.283Z</time></trkpt><trkpt lat="36.7265433" lon="10.2516983"><ele>11.333333333333332</ele><time>2026-04-04T15:46:46.284Z</time></trkpt><trkpt lat="36.72646" lon="10.2519417"><ele>11.0</ele><time>2026-04-04T15:46:47.283Z</time></trkpt><trkpt lat="36.7263767" lon="10.2521883"><ele>11.0</ele><time>2026-04-04T15:46:48.283Z</time></trkpt><trkpt lat="36.72629" lon="10.252435"><ele>11.0</ele><time>2026-04-04T15:46:49.283Z</time></trkpt><trkpt lat="36.7262" lon="10.2526783"><ele>11.0</ele><time>2026-04-04T15:46:50.283Z</time></trkpt><trkpt lat="36.7261083" lon="10.25292"><ele>10.333333333333332</ele><time>2026-04-04T15:46:51.284Z</time></trkpt><trkpt lat="36.7260167" lon="10.2531617"><ele>9.666666666666666</ele><time>2026-04-04T15:46:52.283Z</time></trkpt><trkpt lat="36.7259217" lon="10.2534017"><ele>9.0</ele><time>2026-04-04T15:46:53.285Z</time></trkpt><trkpt lat="36.72583" lon="10.2536367"><ele>9.0</ele><time>2026-04-04T15:46:54.283Z</time></trkpt><trkpt lat="36.7257333" lon="10.2538683"><ele>9.0</ele><time>2026-04-04T15:46:55.282Z</time></trkpt><trkpt lat="36.725635" lon="10.2541017"><ele>9.0</ele><time>2026-04-04T15:46:56.283Z</time></trkpt><trkpt lat="36.7255383" lon="10.2543383"><ele>9.666666666666666</ele><time>2026-04-04T15:46:57.283Z</time></trkpt><trkpt lat="36.7254433" lon="10.25458"><ele>10.333333333333332</ele><time>2026-04-04T15:46:58.286Z</time></trkpt><trkpt lat="36.725345" lon="10.254815"><ele>11.0</ele><time>2026-04-04T15:46:59.286Z</time></trkpt><trkpt lat="36.725245" lon="10.2550567"><ele>11.0</ele><time>2026-04-04T15:47:00.285Z</time></trkpt><trkpt lat="36.7251383" lon="10.2552967"><ele>11.0</ele><time>2026-04-04T15:47:01.285Z</time></trkpt><trkpt lat="36.72503" lon="10.255535"><ele>11.0</ele><time>2026-04-04T15:47:02.285Z</time></trkpt><trkpt lat="36.72492" lon="10.255775"><ele>11.0</ele><time>2026-04-04T15:47:03.285Z</time></trkpt><trkpt lat="36.7248083" lon="10.2560167"><ele>11.0</ele><time>2026-04-04T15:47:04.285Z</time></trkpt><trkpt lat="36.7246933" lon="10.256255"><ele>11.0</ele><time>2026-04-04T15:47:05.283Z</time></trkpt><trkpt lat="36.7245767" lon="10.2564933"><ele>11.0</ele><time>2026-04-04T15:47:06.283Z</time></trkpt><trkpt lat="36.7244617" lon="10.25673"><ele>11.0</ele><time>2026-04-04T15:47:07.284Z</time></trkpt><trkpt lat="36.7243483" lon="10.2569717"><ele>11.0</ele><time>2026-04-04T15:47:08.285Z</time></trkpt><trkpt lat="36.7242283" lon="10.2572167"><ele>11.0</ele><time>2026-04-04T15:47:09.286Z</time></trkpt><trkpt lat="36.7241017" lon="10.2574683"><ele>11.0</ele><time>2026-04-04T15:47:10.286Z</time></trkpt><trkpt lat="36.7239633" lon="10.2577233"><ele>11.0</ele><time>2026-04-04T15:47:11.285Z</time></trkpt><trkpt lat="36.7238233" lon="10.2579867"><ele>11.0</ele><time>2026-04-04T15:47:12.285Z</time></trkpt><trkpt lat="36.72368" lon="10.2582567"><ele>11.0</ele><time>2026-04-04T15:47:13.285Z</time></trkpt><trkpt lat="36.7235317" lon="10.2585367"><ele>11.0</ele><time>2026-04-04T15:47:14.286Z</time></trkpt><trkpt lat="36.7233733" lon="10.2588267"><ele>10.0</ele><time>2026-04-04T15:47:15.286Z</time></trkpt><trkpt lat="36.7232033" lon="10.2591183"><ele>9.0</ele><time>2026-04-04T15:47:16.286Z</time></trkpt><trkpt lat="36.723025" lon="10.2594117"><ele>9.0</ele><time>2026-04-04T15:47:17.283Z</time></trkpt><trkpt lat="36.722845" lon="10.2597033"><ele>9.0</ele><time>2026-04-04T15:47:18.282Z</time></trkpt><trkpt lat="36.7226667" lon="10.25999"><ele>10.5</ele><time>2026-04-04T15:47:19.282Z</time></trkpt><trkpt lat="36.7224933" lon="10.2602717"><ele>12.0</ele><time>2026-04-04T15:47:20.281Z</time></trkpt><trkpt lat="36.7223233" lon="10.2605467"><ele>11.5</ele><time>2026-04-04T15:47:21.282Z</time></trkpt><trkpt lat="36.7221583" lon="10.2608183"><ele>11.0</ele><time>2026-04-04T15:47:22.285Z</time></trkpt><trkpt lat="36.721995" lon="10.26108"><ele>11.0</ele><time>2026-04-04T15:47:23.284Z</time></trkpt><trkpt lat="36.721835" lon="10.2613267"><ele>11.0</ele><time>2026-04-04T15:47:24.284Z</time></trkpt><trkpt lat="36.7216767" lon="10.2615683"><ele>11.0</ele><time>2026-04-04T15:47:25.286Z</time></trkpt><trkpt lat="36.7215217" lon="10.261805"><ele>11.0</ele><time>2026-04-04T15:47:26.281Z</time></trkpt><trkpt lat="36.72137" lon="10.2620417"><ele>11.0</ele><time>2026-04-04T15:47:27.285Z</time></trkpt><trkpt lat="36.7212183" lon="10.2622783"><ele>11.0</ele><time>2026-04-04T15:47:28.284Z</time></trkpt><trkpt lat="36.721065" lon="10.2625117"><ele>12.0</ele><time>2026-04-04T15:47:29.284Z</time></trkpt><trkpt lat="36.72091" lon="10.2627483"><ele>13.0</ele><time>2026-04-04T15:47:30.286Z</time></trkpt><trkpt lat="36.720755" lon="10.262985"><ele>13.5</ele><time>2026-04-04T15:47:31.285Z</time></trkpt><trkpt lat="36.7205967" lon="10.2632233"><ele>14.0</ele><time>2026-04-04T15:47:32.285Z</time></trkpt><trkpt lat="36.720435" lon="10.2634667"><ele>14.0</ele><time>2026-04-04T15:47:33.281Z</time></trkpt><trkpt lat="36.72027" lon="10.263715"><ele>14.0</ele><time>2026-04-04T15:47:34.283Z</time></trkpt><trkpt lat="36.7201033" lon="10.263965"><ele>13.0</ele><time>2026-04-04T15:47:35.282Z</time></trkpt><trkpt lat="36.7199333" lon="10.26422"><ele>12.0</ele><time>2026-04-04T15:47:36.283Z</time></trkpt><trkpt lat="36.719765" lon="10.2644717"><ele>12.0</ele><time>2026-04-04T15:47:37.283Z</time></trkpt><trkpt lat="36.719595" lon="10.264725"><ele>12.0</ele><time>2026-04-04T15:47:38.282Z</time></trkpt><trkpt lat="36.71943" lon="10.26498"><ele>11.5</ele><time>2026-04-04T15:47:39.282Z</time></trkpt><trkpt lat="36.7192667" lon="10.2652317"><ele>11.0</ele><time>2026-04-04T15:47:40.285Z</time></trkpt><trkpt lat="36.7191083" lon="10.265475"><ele>11.5</ele><time>2026-04-04T15:47:41.285Z</time></trkpt><trkpt lat="36.7189533" lon="10.265705"><ele>12.0</ele><time>2026-04-04T15:47:42.284Z</time></trkpt><trkpt lat="36.7188083" lon="10.265925"><ele>12.0</ele><time>2026-04-04T15:47:43.283Z</time></trkpt><trkpt lat="36.7186683" lon="10.26614"><ele>12.0</ele><time>2026-04-04T15:47:44.283Z</time></trkpt><trkpt lat="36.718525" lon="10.266365"><ele>13.5</ele><time>2026-04-04T15:47:45.282Z</time></trkpt><trkpt lat="36.7183783" lon="10.2665967"><ele>15.0</ele><time>2026-04-04T15:47:46.282Z</time></trkpt><trkpt lat="36.71823" lon="10.2668367"><ele>15.0</ele><time>2026-04-04T15:47:47.283Z</time></trkpt><trkpt lat="36.7180833" lon="10.2670833"><ele>15.0</ele><time>2026-04-04T15:47:48.282Z</time></trkpt><trkpt lat="36.717935" lon="10.2673317"><ele>15.0</ele><time>2026-04-04T15:47:49.283Z</time></trkpt><trkpt lat="36.717785" lon="10.267585"><ele>15.0</ele><time>2026-04-04T15:47:50.282Z</time></trkpt><trkpt lat="36.717635" lon="10.2678467"><ele>14.5</ele><time>2026-04-04T15:47:51.282Z</time></trkpt><trkpt lat="36.7174867" lon="10.26811"><ele>14.0</ele><time>2026-04-04T15:47:52.285Z</time></trkpt><trkpt lat="36.71734" lon="10.2683783"><ele>14.0</ele><time>2026-04-04T15:47:53.282Z</time></trkpt><trkpt lat="36.717195" lon="10.2686483"><ele>14.0</ele><time>2026-04-04T15:47:54.285Z</time></trkpt><trkpt lat="36.7170533" lon="10.2689183"><ele>14.0</ele><time>2026-04-04T15:47:55.284Z</time></trkpt><trkpt lat="36.71691" lon="10.269195"><ele>14.0</ele><time>2026-04-04T15:47:56.284Z</time></trkpt><trkpt lat="36.7167667" lon="10.2694817"><ele>15.0</ele><time>2026-04-04T15:47:57.285Z</time></trkpt><trkpt lat="36.7166267" lon="10.269775"><ele>16.0</ele><time>2026-04-04T15:47:58.286Z</time></trkpt><trkpt lat="36.7164917" lon="10.27007"><ele>16.0</ele><time>2026-04-04T15:47:59.285Z</time></trkpt><trkpt lat="36.7163583" lon="10.2703717"><ele>16.0</ele><time>2026-04-04T15:48:00.284Z</time></trkpt><trkpt lat="36.7162283" lon="10.2706683"><ele>16.0</ele><time>2026-04-04T15:48:01.286Z</time></trkpt><trkpt lat="36.7161" lon="10.270965"><ele>16.0</ele><time>2026-04-04T15:48:02.285Z</time></trkpt><trkpt lat="36.715975" lon="10.2712617"><ele>16.0</ele><time>2026-04-04T15:48:03.284Z</time></trkpt><trkpt lat="36.715855" lon="10.2715583"><ele>16.0</ele><time>2026-04-04T15:48:04.281Z</time></trkpt><trkpt lat="36.7157383" lon="10.27185"><ele>16.0</ele><time>2026-04-04T15:48:05.283Z</time></trkpt><trkpt lat="36.7156267" lon="10.27214"><ele>16.0</ele><time>2026-04-04T15:48:06.285Z</time></trkpt><trkpt lat="36.7155183" lon="10.2724283"><ele>16.0</ele><time>2026-04-04T15:48:07.286Z</time></trkpt><trkpt lat="36.7154133" lon="10.272715"><ele>16.0</ele><time>2026-04-04T15:48:08.284Z</time></trkpt><trkpt lat="36.7153117" lon="10.2730017"><ele>16.5</ele><time>2026-04-04T15:48:09.285Z</time></trkpt><trkpt lat="36.71521" lon="10.2732883"><ele>17.0</ele><time>2026-04-04T15:48:10.286Z</time></trkpt><trkpt lat="36.7151117" lon="10.273575"><ele>17.0</ele><time>2026-04-04T15:48:11.284Z</time></trkpt><trkpt lat="36.7150133" lon="10.2738617"><ele>17.0</ele><time>2026-04-04T15:48:12.285Z</time></trkpt><trkpt lat="36.7149183" lon="10.2741533"><ele>17.5</ele><time>2026-04-04T15:48:13.285Z</time></trkpt><trkpt lat="36.7148267" lon="10.2744467"><ele>18.0</ele><time>2026-04-04T15:48:14.284Z</time></trkpt><trkpt lat="36.7147367" lon="10.2747417"><ele>18.0</ele><time>2026-04-04T15:48:15.286Z</time></trkpt><trkpt lat="36.71465" lon="10.27504"><ele>18.0</ele><time>2026-04-04T15:48:16.285Z</time></trkpt><trkpt lat="36.71456" lon="10.275335"><ele>18.0</ele><time>2026-04-04T15:48:17.285Z</time></trkpt><trkpt lat="36.7144717" lon="10.2756317"><ele>18.0</ele><time>2026-04-04T15:48:18.285Z</time></trkpt><trkpt lat="36.714385" lon="10.2759233"><ele>18.0</ele><time>2026-04-04T15:48:19.284Z</time></trkpt><trkpt lat="36.7143033" lon="10.276205"><ele>18.0</ele><time>2026-04-04T15:48:20.284Z</time></trkpt><trkpt lat="36.7142233" lon="10.27648"><ele>17.5</ele><time>2026-04-04T15:48:21.285Z</time></trkpt><trkpt lat="36.7141433" lon="10.2767483"><ele>17.0</ele><time>2026-04-04T15:48:22.284Z</time></trkpt><trkpt lat="36.7140633" lon="10.2770083"><ele>17.0</ele><time>2026-04-04T15:48:23.284Z</time></trkpt><trkpt lat="36.7139917" lon="10.277265"><ele>17.0</ele><time>2026-04-04T15:48:24.285Z</time></trkpt><trkpt lat="36.71392" lon="10.2775067"><ele>17.0</ele><time>2026-04-04T15:48:25.284Z</time></trkpt><trkpt lat="36.7138467" lon="10.277745"><ele>17.666666666666668</ele><time>2026-04-04T15:48:26.282Z</time></trkpt><trkpt lat="36.7137717" lon="10.2779867"><ele>18.333333333333332</ele><time>2026-04-04T15:48:27.286Z</time></trkpt><trkpt lat="36.7136967" lon="10.2782283"><ele>19.0</ele><time>2026-04-04T15:48:28.285Z</time></trkpt><trkpt lat="36.7136183" lon="10.2784733"><ele>18.666666666666664</ele><time>2026-04-04T15:48:29.286Z</time></trkpt><trkpt lat="36.713535" lon="10.2787233"><ele>18.333333333333332</ele><time>2026-04-04T15:48:30.286Z</time></trkpt><trkpt lat="36.7134483" lon="10.27898"><ele>18.0</ele><time>2026-04-04T15:48:31.286Z</time></trkpt><trkpt lat="36.7133567" lon="10.2792467"><ele>18.0</ele><time>2026-04-04T15:48:32.285Z</time></trkpt><trkpt lat="36.7132617" lon="10.2795133"><ele>18.0</ele><time>2026-04-04T15:48:33.285Z</time></trkpt><trkpt lat="36.7131633" lon="10.279775"><ele>17.0</ele><time>2026-04-04T15:48:34.284Z</time></trkpt><trkpt lat="36.7130633" lon="10.2800383"><ele>16.0</ele><time>2026-04-04T15:48:35.285Z</time></trkpt><trkpt lat="36.7129617" lon="10.2803083"><ele>16.0</ele><time>2026-04-04T15:48:36.286Z</time></trkpt><trkpt lat="36.712855" lon="10.2805817"><ele>16.0</ele><time>2026-04-04T15:48:37.286Z</time></trkpt><trkpt lat="36.7127433" lon="10.28086"><ele>17.0</ele><time>2026-04-04T15:48:38.284Z</time></trkpt><trkpt lat="36.7126267" lon="10.2811483"><ele>18.0</ele><time>2026-04-04T15:48:39.285Z</time></trkpt><trkpt lat="36.712505" lon="10.2814383"><ele>18.0</ele><time>2026-04-04T15:48:40.286Z</time></trkpt><trkpt lat="36.71238" lon="10.281725"><ele>18.0</ele><time>2026-04-04T15:48:41.284Z</time></trkpt><trkpt lat="36.71225" lon="10.2820017"><ele>17.5</ele><time>2026-04-04T15:48:42.285Z</time></trkpt><trkpt lat="36.7121167" lon="10.2822683"><ele>17.0</ele><time>2026-04-04T15:48:43.285Z</time></trkpt><trkpt lat="36.7119817" lon="10.2825267"><ele>18.0</ele><time>2026-04-04T15:48:44.284Z</time></trkpt><trkpt lat="36.7118467" lon="10.2827783"><ele>19.0</ele><time>2026-04-04T15:48:45.285Z</time></trkpt><trkpt lat="36.7117083" lon="10.2830267"><ele>18.5</ele><time>2026-04-04T15:48:46.282Z</time></trkpt><trkpt lat="36.7115667" lon="10.2832717"><ele>18.0</ele><time>2026-04-04T15:48:47.283Z</time></trkpt><trkpt lat="36.711425" lon="10.28352"><ele>18.0</ele><time>2026-04-04T15:48:48.285Z</time></trkpt><trkpt lat="36.711275" lon="10.2837683"><ele>18.0</ele><time>2026-04-04T15:48:49.286Z</time></trkpt><trkpt lat="36.7111183" lon="10.2840117"><ele>18.5</ele><time>2026-04-04T15:48:50.286Z</time></trkpt><trkpt lat="36.7109567" lon="10.28426"><ele>19.0</ele><time>2026-04-04T15:48:51.285Z</time></trkpt><trkpt lat="36.7107933" lon="10.2845067"><ele>19.0</ele><time>2026-04-04T15:48:52.283Z</time></trkpt><trkpt lat="36.7106283" lon="10.2847567"><ele>19.0</ele><time>2026-04-04T15:48:53.282Z</time></trkpt><trkpt lat="36.7104617" lon="10.2850017"><ele>18.5</ele><time>2026-04-04T15:48:54.282Z</time></trkpt><trkpt lat="36.7102917" lon="10.2852417"><ele>18.0</ele><time>2026-04-04T15:48:55.283Z</time></trkpt><trkpt lat="36.71012" lon="10.2854817"><ele>19.0</ele><time>2026-04-04T15:48:56.282Z</time></trkpt><trkpt lat="36.709945" lon="10.28572"><ele>20.0</ele><time>2026-04-04T15:48:57.286Z</time></trkpt><trkpt lat="36.7097633" lon="10.285965"><ele>20.0</ele><time>2026-04-04T15:48:58.286Z</time></trkpt><trkpt lat="36.709575" lon="10.2862117"><ele>20.0</ele><time>2026-04-04T15:48:59.285Z</time></trkpt><trkpt lat="36.7093817" lon="10.286455"><ele>20.0</ele><time>2026-04-04T15:49:00.285Z</time></trkpt><trkpt lat="36.7091883" lon="10.286695"><ele>20.0</ele><time>2026-04-04T15:49:01.285Z</time></trkpt><trkpt lat="36.7089933" lon="10.2869267"><ele>20.0</ele><time>2026-04-04T15:49:02.285Z</time></trkpt><trkpt lat="36.7087933" lon="10.2871517"><ele>20.0</ele><time>2026-04-04T15:49:03.285Z</time></trkpt><trkpt lat="36.7085917" lon="10.2873717"><ele>20.0</ele><time>2026-04-04T15:49:04.286Z</time></trkpt><trkpt lat="36.7083883" lon="10.2875883"><ele>20.0</ele><time>2026-04-04T15:49:05.285Z</time></trkpt><trkpt lat="36.708185" lon="10.2878017"><ele>20.0</ele><time>2026-04-04T15:49:06.286Z</time></trkpt><trkpt lat="36.7079833" lon="10.2880167"><ele>20.0</ele><time>2026-04-04T15:49:07.284Z</time></trkpt><trkpt lat="36.707785" lon="10.2882333"><ele>20.5</ele><time>2026-04-04T15:49:08.285Z</time></trkpt><trkpt lat="36.70759" lon="10.2884533"><ele>21.0</ele><time>2026-04-04T15:49:09.282Z</time></trkpt><trkpt lat="36.7073967" lon="10.2886717"><ele>21.0</ele><time>2026-04-04T15:49:10.285Z</time></trkpt><trkpt lat="36.7072083" lon="10.2888883"><ele>21.0</ele><time>2026-04-04T15:49:11.282Z</time></trkpt><trkpt lat="36.7070233" lon="10.2891083"><ele>22.0</ele><time>2026-04-04T15:49:12.283Z</time></trkpt><trkpt lat="36.7068383" lon="10.28933"><ele>23.0</ele><time>2026-04-04T15:49:13.285Z</time></trkpt><trkpt lat="36.7066567" lon="10.2895517"><ele>22.5</ele><time>2026-04-04T15:49:14.282Z</time></trkpt><trkpt lat="36.7064783" lon="10.2897783"><ele>22.0</ele><time>2026-04-04T15:49:15.283Z</time></trkpt><trkpt lat="36.7063017" lon="10.290005"><ele>22.0</ele><time>2026-04-04T15:49:16.282Z</time></trkpt><trkpt lat="36.70613" lon="10.2902317"><ele>22.0</ele><time>2026-04-04T15:49:17.283Z</time></trkpt><trkpt lat="36.70596" lon="10.29046"><ele>22.5</ele><time>2026-04-04T15:49:18.282Z</time></trkpt><trkpt lat="36.7057917" lon="10.29069"><ele>23.0</ele><time>2026-04-04T15:49:19.285Z</time></trkpt><trkpt lat="36.70563" lon="10.2909233"><ele>23.0</ele><time>2026-04-04T15:49:20.285Z</time></trkpt><trkpt lat="36.7054667" lon="10.29116"><ele>23.0</ele><time>2026-04-04T15:49:21.285Z</time></trkpt><trkpt lat="36.70531" lon="10.2913967"><ele>24.0</ele><time>2026-04-04T15:49:22.282Z</time></trkpt><trkpt lat="36.7051567" lon="10.2916333"><ele>25.0</ele><time>2026-04-04T15:49:23.282Z</time></trkpt><trkpt lat="36.7050033" lon="10.2918717"><ele>25.0</ele><time>2026-04-04T15:49:24.283Z</time></trkpt><trkpt lat="36.7048517" lon="10.2921133"><ele>25.0</ele><time>2026-04-04T15:49:25.285Z</time></trkpt><trkpt lat="36.7047017" lon="10.292355"><ele>25.0</ele><time>2026-04-04T15:49:26.282Z</time></trkpt><trkpt lat="36.7045517" lon="10.2926"><ele>25.0</ele><time>2026-04-04T15:49:27.285Z</time></trkpt><trkpt lat="36.7044017" lon="10.2928467"><ele>25.5</ele><time>2026-04-04T15:49:28.285Z</time></trkpt><trkpt lat="36.704255" lon="10.2930933"><ele>26.0</ele><time>2026-04-04T15:49:29.285Z</time></trkpt><trkpt lat="36.7041083" lon="10.293345"><ele>26.0</ele><time>2026-04-04T15:49:30.285Z</time></trkpt><trkpt lat="36.7039633" lon="10.2935917"><ele>26.0</ele><time>2026-04-04T15:49:31.285Z</time></trkpt><trkpt lat="36.703815" lon="10.2938383"><ele>26.5</ele><time>2026-04-04T15:49:32.286Z</time></trkpt><trkpt lat="36.7036717" lon="10.2940833"><ele>27.0</ele><time>2026-04-04T15:49:33.283Z</time></trkpt><trkpt lat="36.7035283" lon="10.29433"><ele>27.5</ele><time>2026-04-04T15:49:34.283Z</time></trkpt><trkpt lat="36.7033833" lon="10.2945767"><ele>28.0</ele><time>2026-04-04T15:49:35.283Z</time></trkpt><trkpt lat="36.70324" lon="10.2948183"><ele>28.0</ele><time>2026-04-04T15:49:36.283Z</time></trkpt><trkpt lat="36.703095" lon="10.29506"><ele>28.0</ele><time>2026-04-04T15:49:37.284Z</time></trkpt><trkpt lat="36.7029517" lon="10.2953"><ele>28.0</ele><time>2026-04-04T15:49:38.282Z</time></trkpt><trkpt lat="36.7028067" lon="10.29554"><ele>28.0</ele><time>2026-04-04T15:49:39.282Z</time></trkpt><trkpt lat="36.70266" lon="10.2957817"><ele>28.5</ele><time>2026-04-04T15:49:40.283Z</time></trkpt><trkpt lat="36.702515" lon="10.2960233"><ele>29.0</ele><time>2026-04-04T15:49:41.282Z</time></trkpt><trkpt lat="36.7023667" lon="10.2962617"><ele>29.5</ele><time>2026-04-04T15:49:42.283Z</time></trkpt><trkpt lat="36.7022167" lon="10.2964967"><ele>30.0</ele><time>2026-04-04T15:49:43.283Z</time></trkpt><trkpt lat="36.702065" lon="10.29673"><ele>30.0</ele><time>2026-04-04T15:49:44.282Z</time></trkpt><trkpt lat="36.7019083" lon="10.296965"><ele>30.0</ele><time>2026-04-04T15:49:45.286Z</time></trkpt><trkpt lat="36.7017517" lon="10.2972117"><ele>30.5</ele><time>2026-04-04T15:49:46.285Z</time></trkpt><trkpt lat="36.70159" lon="10.2974667"><ele>31.0</ele><time>2026-04-04T15:49:47.285Z</time></trkpt><trkpt lat="36.701425" lon="10.2977217"><ele>31.0</ele><time>2026-04-04T15:49:48.285Z</time></trkpt><trkpt lat="36.7012517" lon="10.2979717"><ele>31.0</ele><time>2026-04-04T15:49:49.286Z</time></trkpt><trkpt lat="36.701075" lon="10.2982267"><ele>32.0</ele><time>2026-04-04T15:49:50.288Z</time></trkpt><trkpt lat="36.700895" lon="10.2984833"><ele>33.0</ele><time>2026-04-04T15:49:51.286Z</time></trkpt><trkpt lat="36.7007117" lon="10.2987383"><ele>34.5</ele><time>2026-04-04T15:49:52.285Z</time></trkpt><trkpt lat="36.7005267" lon="10.2989917"><ele>36.0</ele><time>2026-04-04T15:49:53.283Z</time></trkpt><trkpt lat="36.7003417" lon="10.2992467"><ele>35.0</ele><time>2026-04-04T15:49:54.285Z</time></trkpt><trkpt lat="36.7001567" lon="10.2995033"><ele>34.0</ele><time>2026-04-04T15:49:55.284Z</time></trkpt><trkpt lat="36.6999683" lon="10.2997533"><ele>36.0</ele><time>2026-04-04T15:49:56.282Z</time></trkpt><trkpt lat="36.6997817" lon="10.2999933"><ele>38.0</ele><time>2026-04-04T15:49:57.286Z</time></trkpt><trkpt lat="36.6995917" lon="10.3002267"><ele>37.5</ele><time>2026-04-04T15:49:58.285Z</time></trkpt><trkpt lat="36.699405" lon="10.3004583"><ele>37.0</ele><time>2026-04-04T15:49:59.286Z</time></trkpt><trkpt lat="36.69922" lon="10.3006867"><ele>38.0</ele><time>2026-04-04T15:50:00.285Z</time></trkpt><trkpt lat="36.6990367" lon="10.3009117"><ele>39.0</ele><time>2026-04-04T15:50:01.285Z</time></trkpt><trkpt lat="36.6988583" lon="10.3011333"><ele>39.0</ele><time>2026-04-04T15:50:02.285Z</time></trkpt><trkpt lat="36.6986867" lon="10.3013433"><ele>39.0</ele><time>2026-04-04T15:50:03.282Z</time></trkpt><trkpt lat="36.6985133" lon="10.3015483"><ele>40.0</ele><time>2026-04-04T15:50:04.284Z</time></trkpt><trkpt lat="36.6983383" lon="10.3017533"><ele>41.0</ele><time>2026-04-04T15:50:05.282Z</time></trkpt><trkpt lat="36.6981583" lon="10.3019617"><ele>41.0</ele><time>2026-04-04T15:50:06.283Z</time></trkpt><trkpt lat="36.6979767" lon="10.3021683"><ele>41.0</ele><time>2026-04-04T15:50:07.283Z</time></trkpt><trkpt lat="36.6977917" lon="10.3023767"><ele>41.5</ele><time>2026-04-04T15:50:08.282Z</time></trkpt><trkpt lat="36.697605" lon="10.302585"><ele>42.0</ele><time>2026-04-04T15:50:09.283Z</time></trkpt><trkpt lat="36.6974183" lon="10.3027933"><ele>42.0</ele><time>2026-04-04T15:50:10.282Z</time></trkpt><trkpt lat="36.69723" lon="10.3030017"><ele>42.0</ele><time>2026-04-04T15:50:11.284Z</time></trkpt><trkpt lat="36.6970433" lon="10.3032083"><ele>43.0</ele><time>2026-04-04T15:50:12.283Z</time></trkpt><trkpt lat="36.6968567" lon="10.303415"><ele>44.0</ele><time>2026-04-04T15:50:13.283Z</time></trkpt><trkpt lat="36.6966717" lon="10.3036183"><ele>44.0</ele><time>2026-04-04T15:50:14.283Z</time></trkpt><trkpt lat="36.696485" lon="10.30382"><ele>44.0</ele><time>2026-04-04T15:50:15.285Z</time></trkpt><trkpt lat="36.6963" lon="10.3040183"><ele>45.5</ele><time>2026-04-04T15:50:16.282Z</time></trkpt><trkpt lat="36.696115" lon="10.3042167"><ele>47.0</ele><time>2026-04-04T15:50:17.283Z</time></trkpt><trkpt lat="36.6959317" lon="10.304415"><ele>47.0</ele><time>2026-04-04T15:50:18.282Z</time></trkpt><trkpt lat="36.6957467" lon="10.3046117"><ele>47.0</ele><time>2026-04-04T15:50:19.284Z</time></trkpt><trkpt lat="36.6955617" lon="10.3048067"><ele>48.0</ele><time>2026-04-04T15:50:20.282Z</time></trkpt><trkpt lat="36.6953767" lon="10.3050017"><ele>49.0</ele><time>2026-04-04T15:50:21.285Z</time></trkpt><trkpt lat="36.6951933" lon="10.305195"><ele>49.0</ele><time>2026-04-04T15:50:22.285Z</time></trkpt><trkpt lat="36.6950117" lon="10.3053917"><ele>49.0</ele><time>2026-04-04T15:50:23.286Z</time></trkpt><trkpt lat="36.69483" lon="10.3055883"><ele>50.0</ele><time>2026-04-04T15:50:24.283Z</time></trkpt><trkpt lat="36.6946533" lon="10.3057883"><ele>51.0</ele><time>2026-04-04T15:50:25.286Z</time></trkpt><trkpt lat="36.694475" lon="10.3059917"><ele>50.0</ele><time>2026-04-04T15:50:26.285Z</time></trkpt><trkpt lat="36.6943" lon="10.3062"><ele>49.0</ele><time>2026-04-04T15:50:27.285Z</time></trkpt><trkpt lat="36.694125" lon="10.30641"><ele>51.0</ele><time>2026-04-04T15:50:28.286Z</time></trkpt><trkpt lat="36.69395" lon="10.3066233"><ele>53.0</ele><time>2026-04-04T15:50:29.286Z</time></trkpt><trkpt lat="36.6937767" lon="10.3068433"><ele>53.0</ele><time>2026-04-04T15:50:30.285Z</time></trkpt><trkpt lat="36.6936017" lon="10.3070617"><ele>53.0</ele><time>2026-04-04T15:50:31.282Z</time></trkpt><trkpt lat="36.6934283" lon="10.3072817"><ele>53.5</ele><time>2026-04-04T15:50:32.283Z</time></trkpt><trkpt lat="36.6932583" lon="10.3075033"><ele>54.0</ele><time>2026-04-04T15:50:33.285Z</time></trkpt><trkpt lat="36.69309" lon="10.3077233"><ele>54.0</ele><time>2026-04-04T15:50:34.282Z</time></trkpt><trkpt lat="36.6929233" lon="10.3079433"><ele>54.0</ele><time>2026-04-04T15:50:35.284Z</time></trkpt><trkpt lat="36.69276" lon="10.3081633"><ele>55.0</ele><time>2026-04-04T15:50:36.283Z</time></trkpt><trkpt lat="36.6925983" lon="10.3083833"><ele>56.0</ele><time>2026-04-04T15:50:37.284Z</time></trkpt><trkpt lat="36.6924367" lon="10.3086033"><ele>56.0</ele><time>2026-04-04T15:50:38.283Z</time></trkpt><trkpt lat="36.6922733" lon="10.3088267"><ele>56.0</ele><time>2026-04-04T15:50:39.282Z</time></trkpt><trkpt lat="36.6921133" lon="10.3090517"><ele>57.0</ele><time>2026-04-04T15:50:40.284Z</time></trkpt><trkpt lat="36.6919517" lon="10.3092767"><ele>58.0</ele><time>2026-04-04T15:50:41.284Z</time></trkpt><trkpt lat="36.69179" lon="10.3095017"><ele>58.0</ele><time>2026-04-04T15:50:42.284Z</time></trkpt><trkpt lat="36.6916317" lon="10.309725"><ele>58.0</ele><time>2026-04-04T15:50:43.284Z</time></trkpt><trkpt lat="36.69147" lon="10.3099517"><ele>57.5</ele><time>2026-04-04T15:50:44.284Z</time></trkpt><trkpt lat="36.6913083" lon="10.3101817"><ele>57.0</ele><time>2026-04-04T15:50:45.284Z</time></trkpt><trkpt lat="36.6911483" lon="10.3104117"><ele>57.5</ele><time>2026-04-04T15:50:46.283Z</time></trkpt><trkpt lat="36.6909883" lon="10.3106367"><ele>58.0</ele><time>2026-04-04T15:50:47.284Z</time></trkpt><trkpt lat="36.6908283" lon="10.31086"><ele>58.0</ele><time>2026-04-04T15:50:48.286Z</time></trkpt><trkpt lat="36.69067" lon="10.3110817"><ele>58.0</ele><time>2026-04-04T15:50:49.282Z</time></trkpt><trkpt lat="36.69051" lon="10.3113017"><ele>60.0</ele><time>2026-04-04T15:50:50.286Z</time></trkpt><trkpt lat="36.6903483" lon="10.3115233"><ele>62.0</ele><time>2026-04-04T15:50:51.286Z</time></trkpt><trkpt lat="36.6901833" lon="10.3117467"><ele>62.0</ele><time>2026-04-04T15:50:52.282Z</time></trkpt><trkpt lat="36.6900133" lon="10.3119767"><ele>62.0</ele><time>2026-04-04T15:50:53.283Z</time></trkpt><trkpt lat="36.6898367" lon="10.3122083"><ele>64.0</ele><time>2026-04-04T15:50:54.283Z</time></trkpt><trkpt lat="36.689655" lon="10.312445"><ele>66.0</ele><time>2026-04-04T15:50:55.284Z</time></trkpt><trkpt lat="36.6894717" lon="10.3126833"><ele>66.5</ele><time>2026-04-04T15:50:56.284Z</time></trkpt><trkpt lat="36.6892833" lon="10.3129267"><ele>67.0</ele><time>2026-04-04T15:50:57.284Z</time></trkpt><trkpt lat="36.6890917" lon="10.3131683"><ele>67.0</ele><time>2026-04-04T15:50:58.284Z</time></trkpt><trkpt lat="36.6888967" lon="10.3134117"><ele>67.0</ele><time>2026-04-04T15:50:59.283Z</time></trkpt><trkpt lat="36.6887" lon="10.3136533"><ele>66.5</ele><time>2026-04-04T15:51:00.283Z</time></trkpt><trkpt lat="36.6885033" lon="10.3138917"><ele>66.0</ele><time>2026-04-04T15:51:01.284Z</time></trkpt><trkpt lat="36.6883067" lon="10.314125"><ele>67.5</ele><time>2026-04-04T15:51:02.282Z</time></trkpt><trkpt lat="36.6881083" lon="10.3143567"><ele>69.0</ele><time>2026-04-04T15:51:03.283Z</time></trkpt><trkpt lat="36.68791" lon="10.3145867"><ele>70.0</ele><time>2026-04-04T15:51:04.283Z</time></trkpt><trkpt lat="36.6877117" lon="10.3148167"><ele>71.0</ele><time>2026-04-04T15:51:05.282Z</time></trkpt><trkpt lat="36.6875133" lon="10.3150467"><ele>71.0</ele><time>2026-04-04T15:51:06.282Z</time></trkpt><trkpt lat="36.687315" lon="10.31527"><ele>71.0</ele><time>2026-04-04T15:51:07.283Z</time></trkpt><trkpt lat="36.6871167" lon="10.3154967"><ele>72.0</ele><time>2026-04-04T15:51:08.283Z</time></trkpt><trkpt lat="36.6869167" lon="10.3157217"><ele>73.0</ele><time>2026-04-04T15:51:09.283Z</time></trkpt><trkpt lat="36.6867133" lon="10.315945"><ele>73.0</ele><time>2026-04-04T15:51:10.282Z</time></trkpt><trkpt lat="36.68651" lon="10.3161667"><ele>73.0</ele><time>2026-04-04T15:51:11.284Z</time></trkpt><trkpt lat="36.686305" lon="10.316385"><ele>74.0</ele><time>2026-04-04T15:51:12.283Z</time></trkpt><trkpt lat="36.6860983" lon="10.316605"><ele>75.0</ele><time>2026-04-04T15:51:13.282Z</time></trkpt><trkpt lat="36.68589" lon="10.3168233"><ele>75.0</ele><time>2026-04-04T15:51:14.282Z</time></trkpt><trkpt lat="36.68568" lon="10.3170433"><ele>75.0</ele><time>2026-04-04T15:51:15.282Z</time></trkpt><trkpt lat="36.6854683" lon="10.3172617"><ele>77.0</ele><time>2026-04-04T15:51:16.284Z</time></trkpt><trkpt lat="36.6852517" lon="10.31748"><ele>79.0</ele><time>2026-04-04T15:51:17.282Z</time></trkpt><trkpt lat="36.6850367" lon="10.3176967"><ele>79.0</ele><time>2026-04-04T15:51:18.283Z</time></trkpt><trkpt lat="36.6848233" lon="10.3179083"><ele>79.0</ele><time>2026-04-04T15:51:19.283Z</time></trkpt><trkpt lat="36.684615" lon="10.3181133"><ele>79.0</ele><time>2026-04-04T15:51:20.282Z</time></trkpt><trkpt lat="36.68441" lon="10.318315"><ele>79.0</ele><time>2026-04-04T15:51:21.282Z</time></trkpt><trkpt lat="36.6842083" lon="10.3185117"><ele>79.0</ele><time>2026-04-04T15:51:22.283Z</time></trkpt><trkpt lat="36.68401" lon="10.3187033"><ele>79.0</ele><time>2026-04-04T15:51:23.282Z</time></trkpt><trkpt lat="36.683815" lon="10.3188917"><ele>80.0</ele><time>2026-04-04T15:51:24.285Z</time></trkpt><trkpt lat="36.6836267" lon="10.3190767"><ele>81.0</ele><time>2026-04-04T15:51:25.283Z</time></trkpt><trkpt lat="36.6834417" lon="10.3192517"><ele>81.0</ele><time>2026-04-04T15:51:26.282Z</time></trkpt><trkpt lat="36.6832583" lon="10.319425"><ele>81.0</ele><time>2026-04-04T15:51:27.283Z</time></trkpt><trkpt lat="36.683075" lon="10.3196"><ele>82.5</ele><time>2026-04-04T15:51:28.282Z</time></trkpt><trkpt lat="36.6828967" lon="10.3197717"><ele>84.0</ele><time>2026-04-04T15:51:29.284Z</time></trkpt><trkpt lat="36.6827183" lon="10.319945"><ele>84.0</ele><time>2026-04-04T15:51:30.283Z</time></trkpt><trkpt lat="36.6825417" lon="10.3201167"><ele>84.0</ele><time>2026-04-04T15:51:31.282Z</time></trkpt><trkpt lat="36.6823667" lon="10.320285"><ele>84.0</ele><time>2026-04-04T15:51:32.282Z</time></trkpt><trkpt lat="36.68219" lon="10.3204517"><ele>84.0</ele><time>2026-04-04T15:51:33.282Z</time></trkpt><trkpt lat="36.682015" lon="10.3206217"><ele>84.0</ele><time>2026-04-04T15:51:34.282Z</time></trkpt><trkpt lat="36.68184" lon="10.320795"><ele>84.0</ele><time>2026-04-04T15:51:35.282Z</time></trkpt><trkpt lat="36.6816617" lon="10.3209683"><ele>84.0</ele><time>2026-04-04T15:51:36.282Z</time></trkpt><trkpt lat="36.68148" lon="10.3211433"><ele>84.0</ele><time>2026-04-04T15:51:37.282Z</time></trkpt><trkpt lat="36.6813" lon="10.3213183"><ele>84.0</ele><time>2026-04-04T15:51:38.281Z</time></trkpt><trkpt lat="36.6811183" lon="10.3214967"><ele>84.0</ele><time>2026-04-04T15:51:39.282Z</time></trkpt><trkpt lat="36.68094" lon="10.3216733"><ele>84.0</ele><time>2026-04-04T15:51:40.282Z</time></trkpt><trkpt lat="36.6807667" lon="10.3218433"><ele>84.0</ele><time>2026-04-04T15:51:41.282Z</time></trkpt><trkpt lat="36.6806033" lon="10.3220033"><ele>84.0</ele><time>2026-04-04T15:51:42.283Z</time></trkpt><trkpt lat="36.68045" lon="10.3221517"><ele>84.66666666666667</ele><time>2026-04-04T15:51:43.282Z</time></trkpt><trkpt lat="36.6803033" lon="10.32229"><ele>85.33333333333334</ele><time>2026-04-04T15:51:44.283Z</time></trkpt><trkpt lat="36.68016" lon="10.3224283"><ele>86.0</ele><time>2026-04-04T15:51:45.282Z</time></trkpt><trkpt lat="36.6800167" lon="10.3225633"><ele>86.0</ele><time>2026-04-04T15:51:46.282Z</time></trkpt><trkpt lat="36.6798767" lon="10.322695"><ele>86.0</ele><time>2026-04-04T15:51:47.283Z</time></trkpt><trkpt lat="36.6797433" lon="10.3228183"><ele>86.0</ele><time>2026-04-04T15:51:48.282Z</time></trkpt><trkpt lat="36.6796133" lon="10.3229383"><ele>86.0</ele><time>2026-04-04T15:51:49.283Z</time></trkpt><trkpt lat="36.67949" lon="10.3230517"><ele>86.0</ele><time>2026-04-04T15:51:50.281Z</time></trkpt><trkpt lat="36.6793717" lon="10.3231617"><ele>86.0</ele><time>2026-04-04T15:51:51.282Z</time></trkpt><trkpt lat="36.67926" lon="10.32326"><ele>86.0</ele><time>2026-04-04T15:51:52.283Z</time></trkpt><trkpt lat="36.6791567" lon="10.323355"><ele>85.25</ele><time>2026-04-04T15:51:53.282Z</time></trkpt><trkpt lat="36.6790583" lon="10.323445"><ele>84.5</ele><time>2026-04-04T15:51:54.285Z</time></trkpt><trkpt lat="36.678965" lon="10.3235333"><ele>83.75</ele><time>2026-04-04T15:51:55.284Z</time></trkpt><trkpt lat="36.6788767" lon="10.3236167"><ele>83.0</ele><time>2026-04-04T15:51:56.281Z</time></trkpt><trkpt lat="36.67879" lon="10.3236983"><ele>83.0</ele><time>2026-04-04T15:51:57.283Z</time></trkpt><trkpt lat="36.6787067" lon="10.3237783"><ele>83.0</ele><time>2026-04-04T15:51:58.282Z</time></trkpt><trkpt lat="36.6786283" lon="10.323855"><ele>83.0</ele><time>2026-04-04T15:51:59.283Z</time></trkpt><trkpt lat="36.6785517" lon="10.323925"><ele>83.0</ele><time>2026-04-04T15:52:00.286Z</time></trkpt><trkpt lat="36.6784783" lon="10.32399"><ele>83.0</ele><time>2026-04-04T15:52:01.282Z</time></trkpt><trkpt lat="36.6784083" lon="10.3240467"><ele>83.0</ele><time>2026-04-04T15:52:02.285Z</time></trkpt><trkpt lat="36.6783433" lon="10.3241017"><ele>83.0</ele><time>2026-04-04T15:52:03.282Z</time></trkpt><trkpt lat="36.6782867" lon="10.3241567"><ele>83.0</ele><time>2026-04-04T15:52:04.282Z</time></trkpt><trkpt lat="36.6782333" lon="10.3242117"><ele>83.0</ele><time>2026-04-04T15:52:05.282Z</time></trkpt><trkpt lat="36.6781833" lon="10.32426"><ele>83.0</ele><time>2026-04-04T15:52:06.282Z</time></trkpt><trkpt lat="36.67809" lon="10.32435"><ele>83.0</ele><time>2026-04-04T15:52:08.282Z</time></trkpt><trkpt lat="36.6780117" lon="10.324425"><ele>83.0</ele><time>2026-04-04T15:52:10.282Z</time></trkpt><trkpt lat="36.677945" lon="10.3244917"><ele>83.0</ele><time>2026-04-04T15:52:12.282Z</time></trkpt><trkpt lat="36.6778883" lon="10.32455"><ele>83.0</ele><time>2026-04-04T15:52:14.281Z</time></trkpt><trkpt lat="36.6778233" lon="10.3246183"><ele>83.0</ele><time>2026-04-04T15:52:17.285Z</time></trkpt><trkpt lat="36.6777717" lon="10.3246767"><ele>83.0</ele><time>2026-04-04T15:52:59.285Z</time></trkpt><trkpt lat="36.677715" lon="10.32477"><ele>83.0</ele><time>2026-04-04T15:53:19.285Z</time></trkpt><trkpt lat="36.6776467" lon="10.3248467"><ele>83.2</ele><time>2026-04-04T15:53:22.285Z</time></trkpt><trkpt lat="36.6775833" lon="10.32492"><ele>83.4</ele><time>2026-04-04T15:53:25.285Z</time></trkpt><trkpt lat="36.6774933" lon="10.3249917"><ele>83.60000000000001</ele><time>2026-04-04T15:54:21.285Z</time></trkpt><trkpt lat="36.677425" lon="10.3250783"><ele>83.80000000000001</ele><time>2026-04-04T15:54:42.285Z</time></trkpt><trkpt lat="36.6773317" lon="10.3251133"><ele>84.0</ele><time>2026-04-04T15:56:18.284Z</time></trkpt><trkpt lat="36.6772683" lon="10.32519"><ele>84.0</ele><time>2026-04-04T15:56:20.285Z</time></trkpt><trkpt lat="36.6772217" lon="10.325245"><ele>84.0</ele><time>2026-04-04T15:56:21.286Z</time></trkpt><trkpt lat="36.677165" lon="10.3253183"><ele>84.0</ele><time>2026-04-04T15:56:22.286Z</time></trkpt><trkpt lat="36.6771067" lon="10.32539"><ele>84.0</ele><time>2026-04-04T15:56:23.286Z</time></trkpt><trkpt lat="36.6770367" lon="10.3254833"><ele>84.0</ele><time>2026-04-04T15:56:24.285Z</time></trkpt><trkpt lat="36.67697" lon="10.3255717"><ele>84.0</ele><time>2026-04-04T15:56:25.287Z</time></trkpt><trkpt lat="36.676905" lon="10.325655"><ele>84.6</ele><time>2026-04-04T15:56:26.285Z</time></trkpt><trkpt lat="36.6768533" lon="10.3257217"><ele>85.2</ele><time>2026-04-04T15:56:27.286Z</time></trkpt><trkpt lat="36.6768083" lon="10.32578"><ele>85.8</ele><time>2026-04-04T15:56:28.286Z</time></trkpt><trkpt lat="36.6767417" lon="10.32586"><ele>86.39999999999999</ele><time>2026-04-04T15:56:30.285Z</time></trkpt><trkpt lat="36.6766683" lon="10.3259533"><ele>87.0</ele><time>2026-04-04T15:56:33.283Z</time></trkpt><trkpt lat="36.676575" lon="10.3260683"><ele>87.0</ele><time>2026-04-04T15:56:35.283Z</time></trkpt><trkpt lat="36.6765233" lon="10.3261367"><ele>87.0</ele><time>2026-04-04T15:56:36.283Z</time></trkpt><trkpt lat="36.6764667" lon="10.32621"><ele>87.0</ele><time>2026-04-04T15:56:37.283Z</time></trkpt><trkpt lat="36.6764067" lon="10.32629"><ele>87.0</ele><time>2026-04-04T15:56:38.282Z</time></trkpt><trkpt lat="36.67634" lon="10.326375"><ele>87.0</ele><time>2026-04-04T15:56:39.282Z</time></trkpt><trkpt lat="36.6762717" lon="10.32646"><ele>87.0</ele><time>2026-04-04T15:56:40.285Z</time></trkpt><trkpt lat="36.6762017" lon="10.3265483"><ele>87.0</ele><time>2026-04-04T15:56:41.285Z</time></trkpt><trkpt lat="36.6761333" lon="10.3266383"><ele>87.0</ele><time>2026-04-04T15:56:42.285Z</time></trkpt><trkpt lat="36.6760617" lon="10.3267283"><ele>87.0</ele><time>2026-04-04T15:56:43.285Z</time></trkpt><trkpt lat="36.67599" lon="10.326825"><ele>87.0</ele><time>2026-04-04T15:56:44.286Z</time></trkpt><trkpt lat="36.6759133" lon="10.326925"><ele>87.0</ele><time>2026-04-04T15:56:45.285Z</time></trkpt><trkpt lat="36.6758333" lon="10.3270317"><ele>87.0</ele><time>2026-04-04T15:56:46.285Z</time></trkpt><trkpt lat="36.67575" lon="10.3271383"><ele>87.0</ele><time>2026-04-04T15:56:47.285Z</time></trkpt><trkpt lat="36.675665" lon="10.3272467"><ele>87.0</ele><time>2026-04-04T15:56:48.286Z</time></trkpt><trkpt lat="36.6755833" lon="10.3273533"><ele>87.0</ele><time>2026-04-04T15:56:49.285Z</time></trkpt><trkpt lat="36.6754967" lon="10.3274633"><ele>87.0</ele><time>2026-04-04T15:56:50.285Z</time></trkpt><trkpt lat="36.6754067" lon="10.3275783"><ele>87.0</ele><time>2026-04-04T15:56:51.285Z</time></trkpt><trkpt lat="36.67531" lon="10.3277017"><ele>87.0</ele><time>2026-04-04T15:56:52.286Z</time></trkpt><trkpt lat="36.6752133" lon="10.327825"><ele>87.0</ele><time>2026-04-04T15:56:53.285Z</time></trkpt><trkpt lat="36.67511" lon="10.32796"><ele>88.33333333333333</ele><time>2026-04-04T15:56:54.286Z</time></trkpt><trkpt lat="36.6750033" lon="10.3280967"><ele>89.66666666666666</ele><time>2026-04-04T15:56:55.285Z</time></trkpt><trkpt lat="36.6749017" lon="10.32824"><ele>91.0</ele><time>2026-04-04T15:56:56.285Z</time></trkpt><trkpt lat="36.6747933" lon="10.3283767"><ele>91.0</ele><time>2026-04-04T15:56:57.285Z</time></trkpt><trkpt lat="36.6746833" lon="10.32852"><ele>91.0</ele><time>2026-04-04T15:56:58.285Z</time></trkpt><trkpt lat="36.6745733" lon="10.32866"><ele>91.0</ele><time>2026-04-04T15:56:59.288Z</time></trkpt><trkpt lat="36.674465" lon="10.3288017"><ele>90.66666666666666</ele><time>2026-04-04T15:57:00.285Z</time></trkpt><trkpt lat="36.6743533" lon="10.3289383"><ele>90.33333333333333</ele><time>2026-04-04T15:57:01.285Z</time></trkpt><trkpt lat="36.674245" lon="10.329075"><ele>90.0</ele><time>2026-04-04T15:57:02.288Z</time></trkpt><trkpt lat="36.6741367" lon="10.3292117"><ele>90.0</ele><time>2026-04-04T15:57:03.283Z</time></trkpt><trkpt lat="36.6740283" lon="10.32935"><ele>90.0</ele><time>2026-04-04T15:57:04.282Z</time></trkpt><trkpt lat="36.67392" lon="10.3294917"><ele>90.0</ele><time>2026-04-04T15:57:05.283Z</time></trkpt><trkpt lat="36.67381" lon="10.329635"><ele>90.33333333333333</ele><time>2026-04-04T15:57:06.283Z</time></trkpt><trkpt lat="36.6737" lon="10.3297783"><ele>90.66666666666666</ele><time>2026-04-04T15:57:07.282Z</time></trkpt><trkpt lat="36.67359" lon="10.32992"><ele>91.0</ele><time>2026-04-04T15:57:08.282Z</time></trkpt><trkpt lat="36.67348" lon="10.33006"><ele>91.33333333333333</ele><time>2026-04-04T15:57:09.283Z</time></trkpt><trkpt lat="36.6733733" lon="10.3302033"><ele>91.66666666666667</ele><time>2026-04-04T15:57:10.288Z</time></trkpt><trkpt lat="36.6732683" lon="10.3303467"><ele>92.0</ele><time>2026-04-04T15:57:11.285Z</time></trkpt><trkpt lat="36.67316" lon="10.3304867"><ele>93.0</ele><time>2026-04-04T15:57:12.284Z</time></trkpt><trkpt lat="36.6730533" lon="10.3306233"><ele>94.0</ele><time>2026-04-04T15:57:13.285Z</time></trkpt><trkpt lat="36.6729467" lon="10.330765"><ele>95.0</ele><time>2026-04-04T15:57:14.286Z</time></trkpt><trkpt lat="36.6728433" lon="10.3309033"><ele>94.0</ele><time>2026-04-04T15:57:15.285Z</time></trkpt><trkpt lat="36.6727383" lon="10.3310433"><ele>93.0</ele><time>2026-04-04T15:57:16.286Z</time></trkpt><trkpt lat="36.67263" lon="10.3311867"><ele>92.0</ele><time>2026-04-04T15:57:17.285Z</time></trkpt><trkpt lat="36.6725217" lon="10.3313333"><ele>92.66666666666667</ele><time>2026-04-04T15:57:18.286Z</time></trkpt><trkpt lat="36.6724133" lon="10.3314817"><ele>93.33333333333333</ele><time>2026-04-04T15:57:19.285Z</time></trkpt><trkpt lat="36.672305" lon="10.33163"><ele>94.0</ele><time>2026-04-04T15:57:20.286Z</time></trkpt><trkpt lat="36.672195" lon="10.3317817"><ele>94.0</ele><time>2026-04-04T15:57:21.286Z</time></trkpt><trkpt lat="36.6720833" lon="10.3319333"><ele>94.0</ele><time>2026-04-04T15:57:22.285Z</time></trkpt><trkpt lat="36.6719733" lon="10.3320867"><ele>94.0</ele><time>2026-04-04T15:57:23.289Z</time></trkpt><trkpt lat="36.6718617" lon="10.3322433"><ele>94.0</ele><time>2026-04-04T15:57:24.286Z</time></trkpt><trkpt lat="36.671745" lon="10.3324083"><ele>94.0</ele><time>2026-04-04T15:57:25.285Z</time></trkpt><trkpt lat="36.6716233" lon="10.3325767"><ele>94.0</ele><time>2026-04-04T15:57:26.286Z</time></trkpt><trkpt lat="36.6715" lon="10.3327467"><ele>94.0</ele><time>2026-04-04T15:57:27.285Z</time></trkpt><trkpt lat="36.6713733" lon="10.3329183"><ele>94.0</ele><time>2026-04-04T15:57:28.285Z</time></trkpt><trkpt lat="36.6712483" lon="10.33309"><ele>94.0</ele><time>2026-04-04T15:57:29.286Z</time></trkpt><trkpt lat="36.6711217" lon="10.3332633"><ele>94.66666666666666</ele><time>2026-04-04T15:57:30.285Z</time></trkpt><trkpt lat="36.6709933" lon="10.3334383"><ele>95.33333333333333</ele><time>2026-04-04T15:57:31.285Z</time></trkpt><trkpt lat="36.670865" lon="10.333615"><ele>96.0</ele><time>2026-04-04T15:57:32.285Z</time></trkpt><trkpt lat="36.6707367" lon="10.3337933"><ele>97.33333333333334</ele><time>2026-04-04T15:57:33.283Z</time></trkpt><trkpt lat="36.6706083" lon="10.3339717"><ele>98.66666666666667</ele><time>2026-04-04T15:57:34.283Z</time></trkpt><trkpt lat="36.6704767" lon="10.3341517"><ele>100.0</ele><time>2026-04-04T15:57:35.284Z</time></trkpt><trkpt lat="36.6703467" lon="10.3343283"><ele>99.66666666666667</ele><time>2026-04-04T15:57:36.284Z</time></trkpt><trkpt lat="36.6702133" lon="10.3345067"><ele>99.33333333333334</ele><time>2026-04-04T15:57:37.284Z</time></trkpt><trkpt lat="36.6700817" lon="10.33469"><ele>99.0</ele><time>2026-04-04T15:57:38.282Z</time></trkpt><trkpt lat="36.6699467" lon="10.3348767"><ele>99.0</ele><time>2026-04-04T15:57:39.283Z</time></trkpt><trkpt lat="36.6698117" lon="10.335065"><ele>99.0</ele><time>2026-04-04T15:57:40.285Z</time></trkpt><trkpt lat="36.669675" lon="10.335255"><ele>99.0</ele><time>2026-04-04T15:57:41.286Z</time></trkpt><trkpt lat="36.6695367" lon="10.3354517"><ele>99.33333333333334</ele><time>2026-04-04T15:57:42.286Z</time></trkpt><trkpt lat="36.6694017" lon="10.33565"><ele>99.66666666666667</ele><time>2026-04-04T15:57:43.285Z</time></trkpt><trkpt lat="36.6692633" lon="10.3358517"><ele>100.0</ele><time>2026-04-04T15:57:44.283Z</time></trkpt><trkpt lat="36.6691233" lon="10.3360483"><ele>100.0</ele><time>2026-04-04T15:57:45.283Z</time></trkpt><trkpt lat="36.6689817" lon="10.3362467"><ele>100.0</ele><time>2026-04-04T15:57:46.283Z</time></trkpt><trkpt lat="36.66884" lon="10.336445"><ele>100.0</ele><time>2026-04-04T15:57:47.283Z</time></trkpt><trkpt lat="36.6686967" lon="10.3366433"><ele>101.33333333333334</ele><time>2026-04-04T15:57:48.284Z</time></trkpt><trkpt lat="36.66855" lon="10.3368417"><ele>102.66666666666666</ele><time>2026-04-04T15:57:49.284Z</time></trkpt><trkpt lat="36.6684017" lon="10.3370417"><ele>104.0</ele><time>2026-04-04T15:57:50.283Z</time></trkpt><trkpt lat="36.6682483" lon="10.33724"><ele>105.0</ele><time>2026-04-04T15:57:51.283Z</time></trkpt><trkpt lat="36.6680933" lon="10.3374383"><ele>106.0</ele><time>2026-04-04T15:57:52.284Z</time></trkpt><trkpt lat="36.6679367" lon="10.3376383"><ele>107.0</ele><time>2026-04-04T15:57:53.284Z</time></trkpt><trkpt lat="36.6677817" lon="10.3378383"><ele>108.0</ele><time>2026-04-04T15:57:54.285Z</time></trkpt><trkpt lat="36.667625" lon="10.3380367"><ele>109.0</ele><time>2026-04-04T15:57:55.283Z</time></trkpt><trkpt lat="36.6674633" lon="10.3382383"><ele>110.0</ele><time>2026-04-04T15:57:56.284Z</time></trkpt><trkpt lat="36.6672983" lon="10.3384417"><ele>111.0</ele><time>2026-04-04T15:57:57.282Z</time></trkpt><trkpt lat="36.6671267" lon="10.33865"><ele>111.0</ele><time>2026-04-04T15:57:58.282Z</time></trkpt><trkpt lat="36.66695" lon="10.3388583"><ele>111.0</ele><time>2026-04-04T15:57:59.282Z</time></trkpt><trkpt lat="36.6667683" lon="10.3390683"><ele>114.0</ele><time>2026-04-04T15:58:00.283Z</time></trkpt><trkpt lat="36.666585" lon="10.339275"><ele>117.0</ele><time>2026-04-04T15:58:01.286Z</time></trkpt><trkpt lat="36.6664" lon="10.3394833"><ele>117.0</ele><time>2026-04-04T15:58:02.285Z</time></trkpt><trkpt lat="36.6662133" lon="10.33969"><ele>117.0</ele><time>2026-04-04T15:58:03.285Z</time></trkpt><trkpt lat="36.6660233" lon="10.3398967"><ele>118.0</ele><time>2026-04-04T15:58:04.284Z</time></trkpt><trkpt lat="36.6658333" lon="10.3401017"><ele>119.0</ele><time>2026-04-04T15:58:05.284Z</time></trkpt><trkpt lat="36.66564" lon="10.3403067"><ele>119.0</ele><time>2026-04-04T15:58:06.284Z</time></trkpt><trkpt lat="36.6654467" lon="10.34051"><ele>119.0</ele><time>2026-04-04T15:58:07.285Z</time></trkpt><trkpt lat="36.6652483" lon="10.3407117"><ele>120.5</ele><time>2026-04-04T15:58:08.285Z</time></trkpt><trkpt lat="36.6650483" lon="10.3409133"><ele>122.0</ele><time>2026-04-04T15:58:09.284Z</time></trkpt><trkpt lat="36.6648467" lon="10.3411117"><ele>122.0</ele><time>2026-04-04T15:58:10.285Z</time></trkpt><trkpt lat="36.664645" lon="10.3413083"><ele>122.0</ele><time>2026-04-04T15:58:11.285Z</time></trkpt><trkpt lat="36.6644417" lon="10.341505"><ele>122.0</ele><time>2026-04-04T15:58:12.284Z</time></trkpt><trkpt lat="36.6642367" lon="10.3416983"><ele>122.0</ele><time>2026-04-04T15:58:13.284Z</time></trkpt><trkpt lat="36.6640267" lon="10.3418917"><ele>122.0</ele><time>2026-04-04T15:58:14.281Z</time></trkpt><trkpt lat="36.6638167" lon="10.34208"><ele>122.0</ele><time>2026-04-04T15:58:15.282Z</time></trkpt><trkpt lat="36.663605" lon="10.3422683"><ele>123.5</ele><time>2026-04-04T15:58:16.284Z</time></trkpt><trkpt lat="36.6633933" lon="10.342455"><ele>125.0</ele><time>2026-04-04T15:58:17.283Z</time></trkpt><trkpt lat="36.66318" lon="10.3426417"><ele>125.0</ele><time>2026-04-04T15:58:18.283Z</time></trkpt><trkpt lat="36.66297" lon="10.3428283"><ele>125.0</ele><time>2026-04-04T15:58:19.282Z</time></trkpt><trkpt lat="36.6627567" lon="10.343015"><ele>125.5</ele><time>2026-04-04T15:58:20.281Z</time></trkpt><trkpt lat="36.66254" lon="10.3432"><ele>126.0</ele><time>2026-04-04T15:58:21.284Z</time></trkpt><trkpt lat="36.6623217" lon="10.3433833"><ele>126.0</ele><time>2026-04-04T15:58:22.282Z</time></trkpt><trkpt lat="36.6621033" lon="10.3435633"><ele>126.0</ele><time>2026-04-04T15:58:23.281Z</time></trkpt><trkpt lat="36.6618883" lon="10.343745"><ele>125.0</ele><time>2026-04-04T15:58:24.284Z</time></trkpt><trkpt lat="36.6616733" lon="10.343925"><ele>124.0</ele><time>2026-04-04T15:58:25.283Z</time></trkpt><trkpt lat="36.66146" lon="10.344105"><ele>124.0</ele><time>2026-04-04T15:58:26.281Z</time></trkpt><trkpt lat="36.6612467" lon="10.344285"><ele>124.0</ele><time>2026-04-04T15:58:27.284Z</time></trkpt><trkpt lat="36.6610333" lon="10.344465"><ele>124.0</ele><time>2026-04-04T15:58:28.284Z</time></trkpt><trkpt lat="36.6608167" lon="10.3446417"><ele>124.0</ele><time>2026-04-04T15:58:29.284Z</time></trkpt><trkpt lat="36.6606017" lon="10.3448183"><ele>124.0</ele><time>2026-04-04T15:58:30.285Z</time></trkpt><trkpt lat="36.660385" lon="10.344995"><ele>124.0</ele><time>2026-04-04T15:58:31.284Z</time></trkpt><trkpt lat="36.6601683" lon="10.3451717"><ele>123.0</ele><time>2026-04-04T15:58:32.286Z</time></trkpt><trkpt lat="36.6599567" lon="10.345345"><ele>122.0</ele><time>2026-04-04T15:58:33.285Z</time></trkpt><trkpt lat="36.6597417" lon="10.34552"><ele>123.0</ele><time>2026-04-04T15:58:34.284Z</time></trkpt><trkpt lat="36.6595283" lon="10.3456967"><ele>124.0</ele><time>2026-04-04T15:58:35.285Z</time></trkpt><trkpt lat="36.6593133" lon="10.34587"><ele>124.0</ele><time>2026-04-04T15:58:36.286Z</time></trkpt><trkpt lat="36.6590983" lon="10.3460433"><ele>124.0</ele><time>2026-04-04T15:58:37.285Z</time></trkpt><trkpt lat="36.6588867" lon="10.34622"><ele>124.5</ele><time>2026-04-04T15:58:38.285Z</time></trkpt><trkpt lat="36.6586733" lon="10.346395"><ele>125.0</ele><time>2026-04-04T15:58:39.284Z</time></trkpt><trkpt lat="36.65846" lon="10.34657"><ele>125.0</ele><time>2026-04-04T15:58:40.284Z</time></trkpt><trkpt lat="36.6582467" lon="10.346745"><ele>125.0</ele><time>2026-04-04T15:58:41.284Z</time></trkpt><trkpt lat="36.6580317" lon="10.3469217"><ele>125.0</ele><time>2026-04-04T15:58:42.284Z</time></trkpt><trkpt lat="36.6578183" lon="10.3470983"><ele>125.0</ele><time>2026-04-04T15:58:43.284Z</time></trkpt><trkpt lat="36.6576017" lon="10.347275"><ele>126.5</ele><time>2026-04-04T15:58:44.281Z</time></trkpt><trkpt lat="36.6573783" lon="10.34746"><ele>128.0</ele><time>2026-04-04T15:58:45.283Z</time></trkpt><trkpt lat="36.6571467" lon="10.347655"><ele>128.0</ele><time>2026-04-04T15:58:46.283Z</time></trkpt><trkpt lat="36.6569083" lon="10.3478567"><ele>128.0</ele><time>2026-04-04T15:58:47.283Z</time></trkpt><trkpt lat="36.6566633" lon="10.3480633"><ele>128.0</ele><time>2026-04-04T15:58:48.283Z</time></trkpt><trkpt lat="36.6564083" lon="10.3482767"><ele>128.0</ele><time>2026-04-04T15:58:49.284Z</time></trkpt><trkpt lat="36.6561433" lon="10.348495"><ele>127.0</ele><time>2026-04-04T15:58:50.282Z</time></trkpt><trkpt lat="36.6558767" lon="10.34871"><ele>126.0</ele><time>2026-04-04T15:58:51.282Z</time></trkpt><trkpt lat="36.6556133" lon="10.34892"><ele>127.5</ele><time>2026-04-04T15:58:52.282Z</time></trkpt><trkpt lat="36.6553583" lon="10.3491183"><ele>129.0</ele><time>2026-04-04T15:58:53.282Z</time></trkpt><trkpt lat="36.6551133" lon="10.3493083"><ele>129.0</ele><time>2026-04-04T15:58:54.286Z</time></trkpt><trkpt lat="36.6548817" lon="10.3494933"><ele>129.0</ele><time>2026-04-04T15:58:55.286Z</time></trkpt><trkpt lat="36.6546533" lon="10.3496767"><ele>130.0</ele><time>2026-04-04T15:58:56.285Z</time></trkpt><trkpt lat="36.6544283" lon="10.34986"><ele>131.0</ele><time>2026-04-04T15:58:57.284Z</time></trkpt><trkpt lat="36.6542083" lon="10.35004"><ele>131.0</ele><time>2026-04-04T15:58:58.285Z</time></trkpt><trkpt lat="36.6539917" lon="10.3502183"><ele>131.0</ele><time>2026-04-04T15:58:59.285Z</time></trkpt><trkpt lat="36.6537767" lon="10.3503967"><ele>131.5</ele><time>2026-04-04T15:59:00.285Z</time></trkpt><trkpt lat="36.653565" lon="10.350575"><ele>132.0</ele><time>2026-04-04T15:59:01.285Z</time></trkpt><trkpt lat="36.6533517" lon="10.3507583"><ele>132.0</ele><time>2026-04-04T15:59:02.284Z</time></trkpt><trkpt lat="36.65314" lon="10.3509483"><ele>132.0</ele><time>2026-04-04T15:59:03.284Z</time></trkpt><trkpt lat="36.6529267" lon="10.351145"><ele>132.5</ele><time>2026-04-04T15:59:04.285Z</time></trkpt><trkpt lat="36.652715" lon="10.3513433"><ele>133.0</ele><time>2026-04-04T15:59:05.284Z</time></trkpt><trkpt lat="36.652505" lon="10.3515467"><ele>133.0</ele><time>2026-04-04T15:59:06.285Z</time></trkpt><trkpt lat="36.6522917" lon="10.3517533"><ele>133.0</ele><time>2026-04-04T15:59:07.286Z</time></trkpt><trkpt lat="36.65208" lon="10.3519633"><ele>133.0</ele><time>2026-04-04T15:59:08.284Z</time></trkpt><trkpt lat="36.6518667" lon="10.3521733"><ele>133.0</ele><time>2026-04-04T15:59:09.285Z</time></trkpt><trkpt lat="36.6516567" lon="10.3523867"><ele>133.0</ele><time>2026-04-04T15:59:10.284Z</time></trkpt><trkpt lat="36.6514483" lon="10.352605"><ele>133.0</ele><time>2026-04-04T15:59:11.286Z</time></trkpt><trkpt lat="36.6512467" lon="10.35283"><ele>132.0</ele><time>2026-04-04T15:59:12.285Z</time></trkpt><trkpt lat="36.651055" lon="10.3530633"><ele>131.0</ele><time>2026-04-04T15:59:13.285Z</time></trkpt><trkpt lat="36.6508683" lon="10.3533017"><ele>131.0</ele><time>2026-04-04T15:59:14.281Z</time></trkpt><trkpt lat="36.6506867" lon="10.353545"><ele>131.0</ele><time>2026-04-04T15:59:15.282Z</time></trkpt><trkpt lat="36.6505067" lon="10.353795"><ele>132.0</ele><time>2026-04-04T15:59:16.284Z</time></trkpt><trkpt lat="36.6503333" lon="10.3540483"><ele>133.0</ele><time>2026-04-04T15:59:17.282Z</time></trkpt><trkpt lat="36.6501633" lon="10.3543083"><ele>133.0</ele><time>2026-04-04T15:59:18.282Z</time></trkpt><trkpt lat="36.6499967" lon="10.3545717"><ele>133.0</ele><time>2026-04-04T15:59:19.283Z</time></trkpt><trkpt lat="36.6498333" lon="10.35484"><ele>135.5</ele><time>2026-04-04T15:59:20.282Z</time></trkpt><trkpt lat="36.649675" lon="10.35511"><ele>138.0</ele><time>2026-04-04T15:59:21.282Z</time></trkpt><trkpt lat="36.6495217" lon="10.3553867"><ele>136.0</ele><time>2026-04-04T15:59:22.282Z</time></trkpt><trkpt lat="36.649375" lon="10.3556667"><ele>134.0</ele><time>2026-04-04T15:59:23.283Z</time></trkpt><trkpt lat="36.6492317" lon="10.3559467"><ele>134.0</ele><time>2026-04-04T15:59:24.285Z</time></trkpt><trkpt lat="36.6490917" lon="10.3562267"><ele>134.0</ele><time>2026-04-04T15:59:25.286Z</time></trkpt><trkpt lat="36.64895" lon="10.35651"><ele>135.5</ele><time>2026-04-04T15:59:26.285Z</time></trkpt><trkpt lat="36.64881" lon="10.3567983"><ele>137.0</ele><time>2026-04-04T15:59:27.284Z</time></trkpt><trkpt lat="36.648675" lon="10.3570867"><ele>135.5</ele><time>2026-04-04T15:59:28.285Z</time></trkpt><trkpt lat="36.6485433" lon="10.3573783"><ele>134.0</ele><time>2026-04-04T15:59:29.286Z</time></trkpt><trkpt lat="36.64841" lon="10.3576717"><ele>134.0</ele><time>2026-04-04T15:59:30.285Z</time></trkpt><trkpt lat="36.64828" lon="10.3579683"><ele>134.0</ele><time>2026-04-04T15:59:31.285Z</time></trkpt><trkpt lat="36.64815" lon="10.3582667"><ele>135.5</ele><time>2026-04-04T15:59:32.286Z</time></trkpt><trkpt lat="36.6480233" lon="10.3585617"><ele>137.0</ele><time>2026-04-04T15:59:33.282Z</time></trkpt><trkpt lat="36.6478967" lon="10.3588517"><ele>135.0</ele><time>2026-04-04T15:59:34.283Z</time></trkpt><trkpt lat="36.6477683" lon="10.35914"><ele>133.0</ele><time>2026-04-04T15:59:35.282Z</time></trkpt><trkpt lat="36.6476433" lon="10.3594217"><ele>133.0</ele><time>2026-04-04T15:59:36.284Z</time></trkpt><trkpt lat="36.647525" lon="10.3596933"><ele>133.0</ele><time>2026-04-04T15:59:37.282Z</time></trkpt><trkpt lat="36.6474083" lon="10.3599617"><ele>134.0</ele><time>2026-04-04T15:59:38.282Z</time></trkpt><trkpt lat="36.6472917" lon="10.3602317"><ele>135.0</ele><time>2026-04-04T15:59:39.282Z</time></trkpt><trkpt lat="36.6471717" lon="10.3605017"><ele>133.0</ele><time>2026-04-04T15:59:40.285Z</time></trkpt><trkpt lat="36.6470533" lon="10.3607717"><ele>131.0</ele><time>2026-04-04T15:59:41.285Z</time></trkpt><trkpt lat="36.6469367" lon="10.3610483"><ele>131.0</ele><time>2026-04-04T15:59:42.285Z</time></trkpt><trkpt lat="36.646825" lon="10.36133"><ele>131.0</ele><time>2026-04-04T15:59:43.286Z</time></trkpt><trkpt lat="36.646715" lon="10.361615"><ele>134.5</ele><time>2026-04-04T15:59:44.285Z</time></trkpt><trkpt lat="36.6466117" lon="10.3619017"><ele>138.0</ele><time>2026-04-04T15:59:45.285Z</time></trkpt><trkpt lat="36.6465133" lon="10.3621917"><ele>139.0</ele><time>2026-04-04T15:59:46.285Z</time></trkpt><trkpt lat="36.64642" lon="10.362485"><ele>140.0</ele><time>2026-04-04T15:59:47.285Z</time></trkpt><trkpt lat="36.646335" lon="10.3627817"><ele>139.5</ele><time>2026-04-04T15:59:48.286Z</time></trkpt><trkpt lat="36.6462567" lon="10.3630767"><ele>139.0</ele><time>2026-04-04T15:59:49.285Z</time></trkpt><trkpt lat="36.6461833" lon="10.36337"><ele>139.5</ele><time>2026-04-04T15:59:50.283Z</time></trkpt><trkpt lat="36.6461133" lon="10.3636583"><ele>140.0</ele><time>2026-04-04T15:59:51.283Z</time></trkpt><trkpt lat="36.64605" lon="10.363945"><ele>140.0</ele><time>2026-04-04T15:59:52.283Z</time></trkpt><trkpt lat="36.645995" lon="10.3642317"><ele>140.0</ele><time>2026-04-04T15:59:53.285Z</time></trkpt><trkpt lat="36.6459483" lon="10.3645133"><ele>141.33333333333331</ele><time>2026-04-04T15:59:54.285Z</time></trkpt><trkpt lat="36.6459033" lon="10.3647883"><ele>142.66666666666666</ele><time>2026-04-04T15:59:55.283Z</time></trkpt><trkpt lat="36.6458667" lon="10.3650633"><ele>144.0</ele><time>2026-04-04T15:59:56.282Z</time></trkpt><trkpt lat="36.6458283" lon="10.365325"><ele>145.33333333333334</ele><time>2026-04-04T15:59:57.286Z</time></trkpt><trkpt lat="36.6457967" lon="10.3655767"><ele>146.66666666666669</ele><time>2026-04-04T15:59:58.286Z</time></trkpt><trkpt lat="36.6457667" lon="10.36582"><ele>148.0</ele><time>2026-04-04T15:59:59.285Z</time></trkpt><trkpt lat="36.6457367" lon="10.3660667"><ele>148.0</ele><time>2026-04-04T16:00:00.285Z</time></trkpt><trkpt lat="36.645705" lon="10.3663217"><ele>148.0</ele><time>2026-04-04T16:00:01.285Z</time></trkpt><trkpt lat="36.6456717" lon="10.3665833"><ele>148.0</ele><time>2026-04-04T16:00:02.285Z</time></trkpt><trkpt lat="36.6456367" lon="10.3668417"><ele>149.33333333333334</ele><time>2026-04-04T16:00:03.282Z</time></trkpt><trkpt lat="36.645605" lon="10.3671033"><ele>150.66666666666666</ele><time>2026-04-04T16:00:04.283Z</time></trkpt><trkpt lat="36.6455733" lon="10.3673617"><ele>152.0</ele><time>2026-04-04T16:00:05.285Z</time></trkpt><trkpt lat="36.6455383" lon="10.36762"><ele>153.33333333333331</ele><time>2026-04-04T16:00:06.285Z</time></trkpt><trkpt lat="36.6455" lon="10.3678733"><ele>154.66666666666666</ele><time>2026-04-04T16:00:07.285Z</time></trkpt><trkpt lat="36.6454583" lon="10.3681283"><ele>156.0</ele><time>2026-04-04T16:00:08.284Z</time></trkpt><trkpt lat="36.6454117" lon="10.3683833"><ele>157.0</ele><time>2026-04-04T16:00:09.283Z</time></trkpt><trkpt lat="36.64536" lon="10.3686433"><ele>158.0</ele><time>2026-04-04T16:00:10.286Z</time></trkpt><trkpt lat="36.6453" lon="10.3689067"><ele>159.0</ele><time>2026-04-04T16:00:11.285Z</time></trkpt><trkpt lat="36.645235" lon="10.3691717"><ele>161.5</ele><time>2026-04-04T16:00:12.285Z</time></trkpt><trkpt lat="36.6451633" lon="10.3694367"><ele>164.0</ele><time>2026-04-04T16:00:13.285Z</time></trkpt><trkpt lat="36.6450867" lon="10.3697017"><ele>166.0</ele><time>2026-04-04T16:00:14.284Z</time></trkpt><trkpt lat="36.6450067" lon="10.3699617"><ele>168.0</ele><time>2026-04-04T16:00:15.282Z</time></trkpt><trkpt lat="36.6449183" lon="10.3702167"><ele>170.0</ele><time>2026-04-04T16:00:16.283Z</time></trkpt><trkpt lat="36.6448267" lon="10.3704667"><ele>171.33333333333331</ele><time>2026-04-04T16:00:17.283Z</time></trkpt><trkpt lat="36.64473" lon="10.3707133"><ele>172.66666666666666</ele><time>2026-04-04T16:00:18.283Z</time></trkpt><trkpt lat="36.6446317" lon="10.370955"><ele>174.0</ele><time>2026-04-04T16:00:19.283Z</time></trkpt><trkpt lat="36.6445283" lon="10.3711917"><ele>175.0</ele><time>2026-04-04T16:00:20.283Z</time></trkpt><trkpt lat="36.6444217" lon="10.37142"><ele>176.0</ele><time>2026-04-04T16:00:21.283Z</time></trkpt><trkpt lat="36.6443133" lon="10.3716433"><ele>177.0</ele><time>2026-04-04T16:00:22.284Z</time></trkpt><trkpt lat="36.6442017" lon="10.3718617"><ele>177.0</ele><time>2026-04-04T16:00:23.285Z</time></trkpt><trkpt lat="36.6440867" lon="10.3720767"><ele>177.0</ele><time>2026-04-04T16:00:24.287Z</time></trkpt><trkpt lat="36.6439683" lon="10.3722883"><ele>177.0</ele><time>2026-04-04T16:00:25.286Z</time></trkpt><trkpt lat="36.643845" lon="10.3724933"><ele>178.66666666666666</ele><time>2026-04-04T16:00:26.285Z</time></trkpt><trkpt lat="36.6437183" lon="10.3726967"><ele>180.33333333333331</ele><time>2026-04-04T16:00:27.285Z</time></trkpt><trkpt lat="36.643585" lon="10.3728933"><ele>182.0</ele><time>2026-04-04T16:00:28.286Z</time></trkpt><trkpt lat="36.6434467" lon="10.3730883"><ele>184.0</ele><time>2026-04-04T16:00:29.285Z</time></trkpt><trkpt lat="36.6433067" lon="10.3732817"><ele>186.0</ele><time>2026-04-04T16:00:30.285Z</time></trkpt><trkpt lat="36.6431617" lon="10.373475"><ele>188.0</ele><time>2026-04-04T16:00:31.286Z</time></trkpt><trkpt lat="36.6430167" lon="10.37366"><ele>188.0</ele><time>2026-04-04T16:00:32.286Z</time></trkpt><trkpt lat="36.6428667" lon="10.3738417"><ele>188.0</ele><time>2026-04-04T16:00:33.285Z</time></trkpt><trkpt lat="36.6427117" lon="10.37402"><ele>188.0</ele><time>2026-04-04T16:00:34.284Z</time></trkpt><trkpt lat="36.6425483" lon="10.374195"><ele>190.0</ele><time>2026-04-04T16:00:35.285Z</time></trkpt><trkpt lat="36.64238" lon="10.3743667"><ele>192.0</ele><time>2026-04-04T16:00:36.285Z</time></trkpt><trkpt lat="36.6422067" lon="10.3745367"><ele>194.0</ele><time>2026-04-04T16:00:37.285Z</time></trkpt><trkpt lat="36.6420283" lon="10.374705"><ele>195.0</ele><time>2026-04-04T16:00:38.284Z</time></trkpt><trkpt lat="36.6418467" lon="10.3748683"><ele>196.0</ele><time>2026-04-04T16:00:39.285Z</time></trkpt><trkpt lat="36.64166" lon="10.3750267"><ele>196.0</ele><time>2026-04-04T16:00:40.286Z</time></trkpt><trkpt lat="36.6414717" lon="10.3751867"><ele>196.0</ele><time>2026-04-04T16:00:41.285Z</time></trkpt><trkpt lat="36.6412833" lon="10.375345"><ele>196.5</ele><time>2026-04-04T16:00:42.285Z</time></trkpt><trkpt lat="36.641095" lon="10.3755033"><ele>197.0</ele><time>2026-04-04T16:00:43.286Z</time></trkpt><trkpt lat="36.6409067" lon="10.3756583"><ele>197.0</ele><time>2026-04-04T16:00:44.285Z</time></trkpt><trkpt lat="36.6407183" lon="10.3758133"><ele>197.0</ele><time>2026-04-04T16:00:45.285Z</time></trkpt><trkpt lat="36.64053" lon="10.37597"><ele>197.0</ele><time>2026-04-04T16:00:46.285Z</time></trkpt><trkpt lat="36.640345" lon="10.3761317"><ele>197.0</ele><time>2026-04-04T16:00:47.285Z</time></trkpt><trkpt lat="36.6401633" lon="10.3763"><ele>197.0</ele><time>2026-04-04T16:00:48.286Z</time></trkpt><trkpt lat="36.6399817" lon="10.37647"><ele>197.0</ele><time>2026-04-04T16:00:49.283Z</time></trkpt><trkpt lat="36.6398" lon="10.3766417"><ele>197.0</ele><time>2026-04-04T16:00:50.283Z</time></trkpt><trkpt lat="36.6396183" lon="10.3768167"><ele>197.0</ele><time>2026-04-04T16:00:51.286Z</time></trkpt><trkpt lat="36.6394417" lon="10.377"><ele>197.0</ele><time>2026-04-04T16:00:52.285Z</time></trkpt><trkpt lat="36.639275" lon="10.3771917"><ele>197.0</ele><time>2026-04-04T16:00:53.285Z</time></trkpt><trkpt lat="36.6391133" lon="10.3773933"><ele>197.0</ele><time>2026-04-04T16:00:54.285Z</time></trkpt><trkpt lat="36.6389517" lon="10.3776"><ele>197.0</ele><time>2026-04-04T16:00:55.285Z</time></trkpt><trkpt lat="36.6387867" lon="10.377815"><ele>196.0</ele><time>2026-04-04T16:00:56.285Z</time></trkpt><trkpt lat="36.6386283" lon="10.3780367"><ele>195.0</ele><time>2026-04-04T16:00:57.285Z</time></trkpt><trkpt lat="36.6384733" lon="10.3782683"><ele>195.0</ele><time>2026-04-04T16:00:58.285Z</time></trkpt><trkpt lat="36.6383217" lon="10.378505"><ele>195.0</ele><time>2026-04-04T16:00:59.285Z</time></trkpt><trkpt lat="36.6381717" lon="10.3787467"><ele>193.5</ele><time>2026-04-04T16:01:00.285Z</time></trkpt><trkpt lat="36.6380283" lon="10.3789967"><ele>192.0</ele><time>2026-04-04T16:01:01.286Z</time></trkpt><trkpt lat="36.6378917" lon="10.3792583"><ele>192.5</ele><time>2026-04-04T16:01:02.285Z</time></trkpt><trkpt lat="36.637755" lon="10.3795217"><ele>193.0</ele><time>2026-04-04T16:01:03.286Z</time></trkpt><trkpt lat="36.6376183" lon="10.3797833"><ele>190.5</ele><time>2026-04-04T16:01:04.286Z</time></trkpt><trkpt lat="36.6374833" lon="10.3800433"><ele>188.0</ele><time>2026-04-04T16:01:05.286Z</time></trkpt><trkpt lat="36.6373517" lon="10.380305"><ele>186.0</ele><time>2026-04-04T16:01:06.285Z</time></trkpt><trkpt lat="36.6372183" lon="10.3805683"><ele>184.0</ele><time>2026-04-04T16:01:07.285Z</time></trkpt><trkpt lat="36.6370817" lon="10.3808317"><ele>184.0</ele><time>2026-04-04T16:01:08.286Z</time></trkpt><trkpt lat="36.6369433" lon="10.3810917"><ele>184.0</ele><time>2026-04-04T16:01:09.285Z</time></trkpt><trkpt lat="36.636805" lon="10.3813533"><ele>182.5</ele><time>2026-04-04T16:01:10.285Z</time></trkpt><trkpt lat="36.6366667" lon="10.38162"><ele>181.0</ele><time>2026-04-04T16:01:11.285Z</time></trkpt><trkpt lat="36.63653" lon="10.3818867"><ele>181.0</ele><time>2026-04-04T16:01:12.285Z</time></trkpt><trkpt lat="36.6363867" lon="10.3821583"><ele>181.0</ele><time>2026-04-04T16:01:13.282Z</time></trkpt><trkpt lat="36.6362417" lon="10.382425"><ele>179.0</ele><time>2026-04-04T16:01:14.285Z</time></trkpt><trkpt lat="36.6360983" lon="10.382685"><ele>177.0</ele><time>2026-04-04T16:01:15.286Z</time></trkpt><trkpt lat="36.6359633" lon="10.38294"><ele>175.5</ele><time>2026-04-04T16:01:16.285Z</time></trkpt><trkpt lat="36.635825" lon="10.3831983"><ele>174.0</ele><time>2026-04-04T16:01:17.285Z</time></trkpt><trkpt lat="36.635685" lon="10.3834533"><ele>174.0</ele><time>2026-04-04T16:01:18.285Z</time></trkpt><trkpt lat="36.6355433" lon="10.38371"><ele>174.0</ele><time>2026-04-04T16:01:19.285Z</time></trkpt><trkpt lat="36.6353983" lon="10.3839633"><ele>171.5</ele><time>2026-04-04T16:01:20.286Z</time></trkpt><trkpt lat="36.6352533" lon="10.384215"><ele>169.0</ele><time>2026-04-04T16:01:21.286Z</time></trkpt><trkpt lat="36.6351083" lon="10.38447"><ele>168.5</ele><time>2026-04-04T16:01:22.286Z</time></trkpt><trkpt lat="36.6349567" lon="10.3847333"><ele>168.0</ele><time>2026-04-04T16:01:23.285Z</time></trkpt><trkpt lat="36.6348017" lon="10.3849967"><ele>168.0</ele><time>2026-04-04T16:01:24.285Z</time></trkpt><trkpt lat="36.634645" lon="10.3852633"><ele>168.0</ele><time>2026-04-04T16:01:25.285Z</time></trkpt><trkpt lat="36.634485" lon="10.38553"><ele>165.5</ele><time>2026-04-04T16:01:26.286Z</time></trkpt><trkpt lat="36.634325" lon="10.3858"><ele>163.0</ele><time>2026-04-04T16:01:27.285Z</time></trkpt><trkpt lat="36.634165" lon="10.3860633"><ele>163.0</ele><time>2026-04-04T16:01:28.286Z</time></trkpt><trkpt lat="36.634005" lon="10.386325"><ele>163.0</ele><time>2026-04-04T16:01:29.285Z</time></trkpt><trkpt lat="36.6338483" lon="10.386585"><ele>163.0</ele><time>2026-04-04T16:01:30.286Z</time></trkpt><trkpt lat="36.63369" lon="10.3868417"><ele>163.0</ele><time>2026-04-04T16:01:31.285Z</time></trkpt><trkpt lat="36.6335317" lon="10.387095"><ele>161.5</ele><time>2026-04-04T16:01:32.286Z</time></trkpt><trkpt lat="36.6333733" lon="10.3873467"><ele>160.0</ele><time>2026-04-04T16:01:33.286Z</time></trkpt><trkpt lat="36.6332117" lon="10.3876"><ele>160.0</ele><time>2026-04-04T16:01:34.284Z</time></trkpt><trkpt lat="36.63305" lon="10.3878533"><ele>160.0</ele><time>2026-04-04T16:01:35.282Z</time></trkpt><trkpt lat="36.6328867" lon="10.388105"><ele>157.5</ele><time>2026-04-04T16:01:36.283Z</time></trkpt><trkpt lat="36.6327233" lon="10.3883583"><ele>155.0</ele><time>2026-04-04T16:01:37.282Z</time></trkpt><trkpt lat="36.6325567" lon="10.38861"><ele>155.5</ele><time>2026-04-04T16:01:38.282Z</time></trkpt><trkpt lat="36.63239" lon="10.3888633"><ele>156.0</ele><time>2026-04-04T16:01:39.284Z</time></trkpt><trkpt lat="36.63222" lon="10.3891283"><ele>156.0</ele><time>2026-04-04T16:01:40.284Z</time></trkpt><trkpt lat="36.63204" lon="10.3894017"><ele>156.0</ele><time>2026-04-04T16:01:41.283Z</time></trkpt><trkpt lat="36.63185" lon="10.3896817"><ele>155.0</ele><time>2026-04-04T16:01:42.284Z</time></trkpt><trkpt lat="36.6316517" lon="10.38996"><ele>154.0</ele><time>2026-04-04T16:01:43.283Z</time></trkpt><trkpt lat="36.6314517" lon="10.3902333"><ele>154.0</ele><time>2026-04-04T16:01:44.282Z</time></trkpt><trkpt lat="36.6312517" lon="10.3905067"><ele>154.0</ele><time>2026-04-04T16:01:45.285Z</time></trkpt><trkpt lat="36.6310533" lon="10.3907783"><ele>153.5</ele><time>2026-04-04T16:01:46.284Z</time></trkpt><trkpt lat="36.6308583" lon="10.3910483"><ele>153.0</ele><time>2026-04-04T16:01:47.284Z</time></trkpt><trkpt lat="36.6306667" lon="10.3913167"><ele>153.5</ele><time>2026-04-04T16:01:48.285Z</time></trkpt><trkpt lat="36.6304767" lon="10.3915783"><ele>154.0</ele><time>2026-04-04T16:01:49.284Z</time></trkpt><trkpt lat="36.63029" lon="10.3918317"><ele>152.0</ele><time>2026-04-04T16:01:50.285Z</time></trkpt><trkpt lat="36.6301083" lon="10.3920767"><ele>150.0</ele><time>2026-04-04T16:01:51.285Z</time></trkpt><trkpt lat="36.6299317" lon="10.3923167"><ele>149.5</ele><time>2026-04-04T16:01:52.285Z</time></trkpt><trkpt lat="36.6297583" lon="10.3925533"><ele>149.0</ele><time>2026-04-04T16:01:53.285Z</time></trkpt><trkpt lat="36.629585" lon="10.3927867"><ele>148.5</ele><time>2026-04-04T16:01:54.284Z</time></trkpt><trkpt lat="36.6294133" lon="10.3930183"><ele>148.0</ele><time>2026-04-04T16:01:55.286Z</time></trkpt><trkpt lat="36.6292417" lon="10.3932483"><ele>148.0</ele><time>2026-04-04T16:01:56.284Z</time></trkpt><trkpt lat="36.629065" lon="10.3934783"><ele>148.0</ele><time>2026-04-04T16:01:57.285Z</time></trkpt><trkpt lat="36.62889" lon="10.393715"><ele>148.0</ele><time>2026-04-04T16:01:58.285Z</time></trkpt><trkpt lat="36.6287167" lon="10.39395"><ele>148.0</ele><time>2026-04-04T16:01:59.286Z</time></trkpt><trkpt lat="36.6285417" lon="10.3941883"><ele>146.5</ele><time>2026-04-04T16:02:00.284Z</time></trkpt><trkpt lat="36.6283633" lon="10.3944267"><ele>145.0</ele><time>2026-04-04T16:02:01.286Z</time></trkpt><trkpt lat="36.6281833" lon="10.3946633"><ele>145.5</ele><time>2026-04-04T16:02:02.284Z</time></trkpt><trkpt lat="36.6280033" lon="10.3948967"><ele>146.0</ele><time>2026-04-04T16:02:03.284Z</time></trkpt><trkpt lat="36.627825" lon="10.39513"><ele>145.0</ele><time>2026-04-04T16:02:04.281Z</time></trkpt><trkpt lat="36.6276483" lon="10.3953633"><ele>144.0</ele><time>2026-04-04T16:02:05.282Z</time></trkpt><trkpt lat="36.627475" lon="10.3956"><ele>144.0</ele><time>2026-04-04T16:02:06.283Z</time></trkpt><trkpt lat="36.6273017" lon="10.3958433"><ele>144.0</ele><time>2026-04-04T16:02:07.283Z</time></trkpt><trkpt lat="36.6271283" lon="10.3960867"><ele>143.0</ele><time>2026-04-04T16:02:08.284Z</time></trkpt><trkpt lat="36.6269517" lon="10.3963333"><ele>142.0</ele><time>2026-04-04T16:02:09.283Z</time></trkpt><trkpt lat="36.626775" lon="10.39658"><ele>141.5</ele><time>2026-04-04T16:02:10.283Z</time></trkpt><trkpt lat="36.626595" lon="10.39683"><ele>141.0</ele><time>2026-04-04T16:02:11.282Z</time></trkpt><trkpt lat="36.6264183" lon="10.3970817"><ele>140.5</ele><time>2026-04-04T16:02:12.282Z</time></trkpt><trkpt lat="36.6262383" lon="10.3973333"><ele>140.0</ele><time>2026-04-04T16:02:13.282Z</time></trkpt><trkpt lat="36.6260583" lon="10.397585"><ele>139.5</ele><time>2026-04-04T16:02:14.283Z</time></trkpt><trkpt lat="36.6258783" lon="10.3978383"><ele>139.0</ele><time>2026-04-04T16:02:15.284Z</time></trkpt><trkpt lat="36.6257017" lon="10.398095"><ele>139.0</ele><time>2026-04-04T16:02:16.282Z</time></trkpt><trkpt lat="36.6255233" lon="10.398355"><ele>139.0</ele><time>2026-04-04T16:02:17.284Z</time></trkpt><trkpt lat="36.6253483" lon="10.398615"><ele>138.0</ele><time>2026-04-04T16:02:18.287Z</time></trkpt><trkpt lat="36.6251733" lon="10.3988767"><ele>137.0</ele><time>2026-04-04T16:02:19.285Z</time></trkpt><trkpt lat="36.625" lon="10.39914"><ele>137.0</ele><time>2026-04-04T16:02:20.284Z</time></trkpt><trkpt lat="36.624825" lon="10.399405"><ele>137.0</ele><time>2026-04-04T16:02:21.284Z</time></trkpt><trkpt lat="36.6246517" lon="10.3996683"><ele>136.5</ele><time>2026-04-04T16:02:22.286Z</time></trkpt><trkpt lat="36.62448" lon="10.3999333"><ele>136.0</ele><time>2026-04-04T16:02:23.286Z</time></trkpt><trkpt lat="36.62431" lon="10.4002"><ele>136.0</ele><time>2026-04-04T16:02:24.285Z</time></trkpt><trkpt lat="36.6241417" lon="10.400465"><ele>136.0</ele><time>2026-04-04T16:02:25.285Z</time></trkpt><trkpt lat="36.6239767" lon="10.4007267"><ele>135.5</ele><time>2026-04-04T16:02:26.284Z</time></trkpt><trkpt lat="36.6238183" lon="10.4009817"><ele>135.0</ele><time>2026-04-04T16:02:27.286Z</time></trkpt><trkpt lat="36.6236617" lon="10.401235"><ele>134.0</ele><time>2026-04-04T16:02:28.284Z</time></trkpt><trkpt lat="36.6235033" lon="10.4014883"><ele>133.0</ele><time>2026-04-04T16:02:29.284Z</time></trkpt><trkpt lat="36.6233467" lon="10.401745"><ele>133.0</ele><time>2026-04-04T16:02:30.285Z</time></trkpt><trkpt lat="36.6231883" lon="10.4019983"><ele>133.0</ele><time>2026-04-04T16:02:31.284Z</time></trkpt><trkpt lat="36.6230317" lon="10.4022533"><ele>133.0</ele><time>2026-04-04T16:02:32.285Z</time></trkpt><trkpt lat="36.6228767" lon="10.40251"><ele>133.0</ele><time>2026-04-04T16:02:33.284Z</time></trkpt><trkpt lat="36.6227233" lon="10.40277"><ele>132.5</ele><time>2026-04-04T16:02:34.281Z</time></trkpt><trkpt lat="36.6225717" lon="10.4030283"><ele>132.0</ele><time>2026-04-04T16:02:35.283Z</time></trkpt><trkpt lat="36.6224233" lon="10.4032883"><ele>132.0</ele><time>2026-04-04T16:02:36.282Z</time></trkpt><trkpt lat="36.6222717" lon="10.40355"><ele>132.0</ele><time>2026-04-04T16:02:37.282Z</time></trkpt><trkpt lat="36.6221217" lon="10.403815"><ele>129.5</ele><time>2026-04-04T16:02:38.282Z</time></trkpt><trkpt lat="36.62197" lon="10.404085"><ele>127.0</ele><time>2026-04-04T16:02:39.282Z</time></trkpt><trkpt lat="36.6218183" lon="10.404355"><ele>127.0</ele><time>2026-04-04T16:02:40.282Z</time></trkpt><trkpt lat="36.62167" lon="10.4046217"><ele>127.0</ele><time>2026-04-04T16:02:41.282Z</time></trkpt><trkpt lat="36.621525" lon="10.4048817"><ele>127.5</ele><time>2026-04-04T16:02:42.282Z</time></trkpt><trkpt lat="36.6213867" lon="10.40514"><ele>128.0</ele><time>2026-04-04T16:02:43.283Z</time></trkpt><trkpt lat="36.62125" lon="10.4053983"><ele>127.0</ele><time>2026-04-04T16:02:44.281Z</time></trkpt><trkpt lat="36.6211117" lon="10.4056533"><ele>126.0</ele><time>2026-04-04T16:02:45.282Z</time></trkpt><trkpt lat="36.62097" lon="10.40591"><ele>126.0</ele><time>2026-04-04T16:02:46.285Z</time></trkpt><trkpt lat="36.6208267" lon="10.4061767"><ele>126.0</ele><time>2026-04-04T16:02:47.284Z</time></trkpt><trkpt lat="36.6206867" lon="10.4064467"><ele>126.0</ele><time>2026-04-04T16:02:48.285Z</time></trkpt><trkpt lat="36.6205467" lon="10.4067117"><ele>126.0</ele><time>2026-04-04T16:02:49.284Z</time></trkpt><trkpt lat="36.6204117" lon="10.4069783"><ele>125.5</ele><time>2026-04-04T16:02:50.285Z</time></trkpt><trkpt lat="36.6202783" lon="10.4072433"><ele>125.0</ele><time>2026-04-04T16:02:51.286Z</time></trkpt><trkpt lat="36.620145" lon="10.4075133"><ele>125.0</ele><time>2026-04-04T16:02:52.285Z</time></trkpt><trkpt lat="36.6200133" lon="10.407785"><ele>125.0</ele><time>2026-04-04T16:02:53.286Z</time></trkpt><trkpt lat="36.61988" lon="10.4080533"><ele>125.0</ele><time>2026-04-04T16:02:54.284Z</time></trkpt><trkpt lat="36.6197467" lon="10.4083217"><ele>125.0</ele><time>2026-04-04T16:02:55.286Z</time></trkpt><trkpt lat="36.6196133" lon="10.408595"><ele>124.0</ele><time>2026-04-04T16:02:56.285Z</time></trkpt><trkpt lat="36.6194783" lon="10.408875"><ele>123.0</ele><time>2026-04-04T16:02:57.285Z</time></trkpt><trkpt lat="36.619345" lon="10.409155"><ele>123.0</ele><time>2026-04-04T16:02:58.286Z</time></trkpt><trkpt lat="36.6192117" lon="10.4094317"><ele>123.0</ele><time>2026-04-04T16:02:59.282Z</time></trkpt><trkpt lat="36.61908" lon="10.40971"><ele>122.0</ele><time>2026-04-04T16:03:00.283Z</time></trkpt><trkpt lat="36.6189467" lon="10.4099817"><ele>121.0</ele><time>2026-04-04T16:03:01.285Z</time></trkpt><trkpt lat="36.61882" lon="10.410255"><ele>120.5</ele><time>2026-04-04T16:03:02.286Z</time></trkpt><trkpt lat="36.618695" lon="10.41053"><ele>120.0</ele><time>2026-04-04T16:03:03.284Z</time></trkpt><trkpt lat="36.61857" lon="10.410805"><ele>120.0</ele><time>2026-04-04T16:03:04.282Z</time></trkpt><trkpt lat="36.6184483" lon="10.4110783"><ele>120.0</ele><time>2026-04-04T16:03:05.283Z</time></trkpt><trkpt lat="36.61833" lon="10.4113533"><ele>119.0</ele><time>2026-04-04T16:03:06.282Z</time></trkpt><trkpt lat="36.61821" lon="10.4116267"><ele>118.0</ele><time>2026-04-04T16:03:07.283Z</time></trkpt><trkpt lat="36.6180917" lon="10.4118967"><ele>117.5</ele><time>2026-04-04T16:03:08.282Z</time></trkpt><trkpt lat="36.617975" lon="10.412165"><ele>117.0</ele><time>2026-04-04T16:03:09.284Z</time></trkpt><trkpt lat="36.6178583" lon="10.412435"><ele>115.5</ele><time>2026-04-04T16:03:10.283Z</time></trkpt><trkpt lat="36.617745" lon="10.412705"><ele>114.0</ele><time>2026-04-04T16:03:11.282Z</time></trkpt><trkpt lat="36.617635" lon="10.412975"><ele>114.5</ele><time>2026-04-04T16:03:12.282Z</time></trkpt><trkpt lat="36.6175233" lon="10.4132483"><ele>115.0</ele><time>2026-04-04T16:03:13.283Z</time></trkpt><trkpt lat="36.6174133" lon="10.41352"><ele>115.0</ele><time>2026-04-04T16:03:14.282Z</time></trkpt><trkpt lat="36.6173033" lon="10.4137967"><ele>115.0</ele><time>2026-04-04T16:03:15.285Z</time></trkpt><trkpt lat="36.6171917" lon="10.414075"><ele>114.5</ele><time>2026-04-04T16:03:16.285Z</time></trkpt><trkpt lat="36.6170767" lon="10.4143633"><ele>114.0</ele><time>2026-04-04T16:03:17.286Z</time></trkpt><trkpt lat="36.6169567" lon="10.4146567"><ele>112.5</ele><time>2026-04-04T16:03:18.286Z</time></trkpt><trkpt lat="36.6168367" lon="10.4149567"><ele>111.0</ele><time>2026-04-04T16:03:19.285Z</time></trkpt><trkpt lat="36.616715" lon="10.4152583"><ele>111.0</ele><time>2026-04-04T16:03:20.285Z</time></trkpt><trkpt lat="36.6165933" lon="10.4155617"><ele>111.0</ele><time>2026-04-04T16:03:21.285Z</time></trkpt><trkpt lat="36.6164733" lon="10.4158683"><ele>111.0</ele><time>2026-04-04T16:03:22.285Z</time></trkpt><trkpt lat="36.6163517" lon="10.41617"><ele>111.0</ele><time>2026-04-04T16:03:23.285Z</time></trkpt><trkpt lat="36.6162317" lon="10.41647"><ele>109.5</ele><time>2026-04-04T16:03:24.285Z</time></trkpt><trkpt lat="36.616115" lon="10.4167617"><ele>108.0</ele><time>2026-04-04T16:03:25.286Z</time></trkpt><trkpt lat="36.6160017" lon="10.417045"><ele>108.5</ele><time>2026-04-04T16:03:26.286Z</time></trkpt><trkpt lat="36.6158883" lon="10.4173283"><ele>109.0</ele><time>2026-04-04T16:03:27.286Z</time></trkpt><trkpt lat="36.6157767" lon="10.4176117"><ele>109.0</ele><time>2026-04-04T16:03:28.285Z</time></trkpt><trkpt lat="36.6156617" lon="10.4178983"><ele>109.0</ele><time>2026-04-04T16:03:29.286Z</time></trkpt><trkpt lat="36.6155483" lon="10.4181867"><ele>109.0</ele><time>2026-04-04T16:03:30.282Z</time></trkpt><trkpt lat="36.6154317" lon="10.4184767"><ele>109.0</ele><time>2026-04-04T16:03:31.285Z</time></trkpt><trkpt lat="36.615315" lon="10.4187683"><ele>108.0</ele><time>2026-04-04T16:03:32.286Z</time></trkpt><trkpt lat="36.6151967" lon="10.4190633"><ele>107.0</ele><time>2026-04-04T16:03:33.283Z</time></trkpt><trkpt lat="36.6150767" lon="10.41936"><ele>107.5</ele><time>2026-04-04T16:03:34.282Z</time></trkpt><trkpt lat="36.6149533" lon="10.419655"><ele>108.0</ele><time>2026-04-04T16:03:35.282Z</time></trkpt><trkpt lat="36.6148267" lon="10.4199517"><ele>108.0</ele><time>2026-04-04T16:03:36.282Z</time></trkpt><trkpt lat="36.6146967" lon="10.4202467"><ele>108.0</ele><time>2026-04-04T16:03:37.283Z</time></trkpt><trkpt lat="36.6145617" lon="10.4205383"><ele>107.5</ele><time>2026-04-04T16:03:38.282Z</time></trkpt><trkpt lat="36.6144183" lon="10.4208367"><ele>107.0</ele><time>2026-04-04T16:03:39.282Z</time></trkpt><trkpt lat="36.6142633" lon="10.4211467"><ele>106.5</ele><time>2026-04-04T16:03:40.285Z</time></trkpt><trkpt lat="36.6141017" lon="10.421475"><ele>106.0</ele><time>2026-04-04T16:03:41.286Z</time></trkpt><trkpt lat="36.613935" lon="10.4218083"><ele>106.0</ele><time>2026-04-04T16:03:42.285Z</time></trkpt><trkpt lat="36.6137683" lon="10.4221433"><ele>106.0</ele><time>2026-04-04T16:03:43.282Z</time></trkpt><trkpt lat="36.6135983" lon="10.422475"><ele>105.0</ele><time>2026-04-04T16:03:44.282Z</time></trkpt><trkpt lat="36.6134283" lon="10.4228017"><ele>104.0</ele><time>2026-04-04T16:03:45.285Z</time></trkpt><trkpt lat="36.6132583" lon="10.4231317"><ele>104.0</ele><time>2026-04-04T16:03:46.283Z</time></trkpt><trkpt lat="36.613085" lon="10.4234617"><ele>104.0</ele><time>2026-04-04T16:03:47.285Z</time></trkpt><trkpt lat="36.61291" lon="10.423785"><ele>103.5</ele><time>2026-04-04T16:03:48.286Z</time></trkpt><trkpt lat="36.6127317" lon="10.4241083"><ele>103.0</ele><time>2026-04-04T16:03:49.285Z</time></trkpt><trkpt lat="36.6125533" lon="10.4244283"><ele>104.5</ele><time>2026-04-04T16:03:50.285Z</time></trkpt><trkpt lat="36.6123733" lon="10.4247467"><ele>106.0</ele><time>2026-04-04T16:03:51.285Z</time></trkpt><trkpt lat="36.61219" lon="10.4250667"><ele>106.0</ele><time>2026-04-04T16:03:52.286Z</time></trkpt><trkpt lat="36.6120017" lon="10.4253833"><ele>106.0</ele><time>2026-04-04T16:03:53.285Z</time></trkpt><trkpt lat="36.6118117" lon="10.425695"><ele>104.5</ele><time>2026-04-04T16:03:54.286Z</time></trkpt><trkpt lat="36.6116183" lon="10.426"><ele>103.0</ele><time>2026-04-04T16:03:55.286Z</time></trkpt><trkpt lat="36.6114233" lon="10.4263033"><ele>104.0</ele><time>2026-04-04T16:03:56.285Z</time></trkpt><trkpt lat="36.61123" lon="10.4265967"><ele>105.0</ele><time>2026-04-04T16:03:57.286Z</time></trkpt><trkpt lat="36.611035" lon="10.42689"><ele>104.0</ele><time>2026-04-04T16:03:58.283Z</time></trkpt><trkpt lat="36.61084" lon="10.4271833"><ele>103.0</ele><time>2026-04-04T16:03:59.282Z</time></trkpt><trkpt lat="36.6106483" lon="10.4274667"><ele>103.0</ele><time>2026-04-04T16:04:00.286Z</time></trkpt><trkpt lat="36.6104633" lon="10.4277383"><ele>103.0</ele><time>2026-04-04T16:04:01.285Z</time></trkpt><trkpt lat="36.610285" lon="10.4279967"><ele>101.5</ele><time>2026-04-04T16:04:02.282Z</time></trkpt><trkpt lat="36.6101067" lon="10.42825"><ele>100.0</ele><time>2026-04-04T16:04:03.283Z</time></trkpt><trkpt lat="36.609925" lon="10.4285083"><ele>100.0</ele><time>2026-04-04T16:04:04.283Z</time></trkpt><trkpt lat="36.6097417" lon="10.4287667"><ele>100.0</ele><time>2026-04-04T16:04:05.283Z</time></trkpt><trkpt lat="36.6095567" lon="10.429025"><ele>99.0</ele><time>2026-04-04T16:04:06.283Z</time></trkpt><trkpt lat="36.6093733" lon="10.429285"><ele>98.0</ele><time>2026-04-04T16:04:07.283Z</time></trkpt><trkpt lat="36.6091867" lon="10.4295433"><ele>98.5</ele><time>2026-04-04T16:04:08.282Z</time></trkpt><trkpt lat="36.6090033" lon="10.429805"><ele>99.0</ele><time>2026-04-04T16:04:09.283Z</time></trkpt><trkpt lat="36.6088183" lon="10.4300683"><ele>98.0</ele><time>2026-04-04T16:04:10.285Z</time></trkpt><trkpt lat="36.6086333" lon="10.4303317"><ele>97.0</ele><time>2026-04-04T16:04:11.282Z</time></trkpt><trkpt lat="36.60845" lon="10.4306"><ele>97.0</ele><time>2026-04-04T16:04:12.285Z</time></trkpt><trkpt lat="36.6082683" lon="10.4308683"><ele>97.0</ele><time>2026-04-04T16:04:13.285Z</time></trkpt><trkpt lat="36.6080867" lon="10.43114"><ele>98.5</ele><time>2026-04-04T16:04:14.285Z</time></trkpt><trkpt lat="36.60791" lon="10.4314117"><ele>100.0</ele><time>2026-04-04T16:04:15.285Z</time></trkpt><trkpt lat="36.6077367" lon="10.4316867"><ele>97.0</ele><time>2026-04-04T16:04:16.286Z</time></trkpt><trkpt lat="36.6075633" lon="10.431965"><ele>94.0</ele><time>2026-04-04T16:04:17.285Z</time></trkpt><trkpt lat="36.607395" lon="10.43225"><ele>94.0</ele><time>2026-04-04T16:04:18.285Z</time></trkpt><trkpt lat="36.6072317" lon="10.4325383"><ele>94.0</ele><time>2026-04-04T16:04:19.283Z</time></trkpt><trkpt lat="36.6070717" lon="10.4328333"><ele>91.5</ele><time>2026-04-04T16:04:20.285Z</time></trkpt><trkpt lat="36.60692" lon="10.4331367"><ele>89.0</ele><time>2026-04-04T16:04:21.285Z</time></trkpt><trkpt lat="36.6067733" lon="10.4334433"><ele>89.0</ele><time>2026-04-04T16:04:22.284Z</time></trkpt><trkpt lat="36.6066317" lon="10.4337517"><ele>89.0</ele><time>2026-04-04T16:04:23.285Z</time></trkpt><trkpt lat="36.6064917" lon="10.4340717"><ele>89.5</ele><time>2026-04-04T16:04:24.283Z</time></trkpt><trkpt lat="36.60636" lon="10.4343917"><ele>90.0</ele><time>2026-04-04T16:04:25.286Z</time></trkpt><trkpt lat="36.6062383" lon="10.4347167"><ele>86.5</ele><time>2026-04-04T16:04:26.286Z</time></trkpt><trkpt lat="36.6061183" lon="10.4350383"><ele>83.0</ele><time>2026-04-04T16:04:27.286Z</time></trkpt><trkpt lat="36.6060017" lon="10.435365"><ele>82.5</ele><time>2026-04-04T16:04:28.286Z</time></trkpt><trkpt lat="36.6058933" lon="10.4356917"><ele>82.0</ele><time>2026-04-04T16:04:29.285Z</time></trkpt><trkpt lat="36.6057917" lon="10.4360183"><ele>81.5</ele><time>2026-04-04T16:04:30.286Z</time></trkpt><trkpt lat="36.6056983" lon="10.4363383"><ele>81.0</ele><time>2026-04-04T16:04:31.282Z</time></trkpt><trkpt lat="36.6056117" lon="10.4366517"><ele>81.0</ele><time>2026-04-04T16:04:32.282Z</time></trkpt><trkpt lat="36.6055283" lon="10.4369617"><ele>81.0</ele><time>2026-04-04T16:04:33.283Z</time></trkpt><trkpt lat="36.6054517" lon="10.4372733"><ele>81.0</ele><time>2026-04-04T16:04:34.282Z</time></trkpt><trkpt lat="36.60538" lon="10.4375883"><ele>81.0</ele><time>2026-04-04T16:04:35.284Z</time></trkpt><trkpt lat="36.6053117" lon="10.4379083"><ele>80.0</ele><time>2026-04-04T16:04:36.282Z</time></trkpt><trkpt lat="36.60525" lon="10.4382283"><ele>79.0</ele><time>2026-04-04T16:04:37.282Z</time></trkpt><trkpt lat="36.6051917" lon="10.43855"><ele>78.5</ele><time>2026-04-04T16:04:38.282Z</time></trkpt><trkpt lat="36.6051383" lon="10.4388733"><ele>78.0</ele><time>2026-04-04T16:04:39.284Z</time></trkpt><trkpt lat="36.6050867" lon="10.4391967"><ele>78.0</ele><time>2026-04-04T16:04:40.282Z</time></trkpt><trkpt lat="36.6050367" lon="10.4395217"><ele>78.0</ele><time>2026-04-04T16:04:41.283Z</time></trkpt><trkpt lat="36.6049883" lon="10.4398483"><ele>79.0</ele><time>2026-04-04T16:04:42.283Z</time></trkpt><trkpt lat="36.6049417" lon="10.4401767"><ele>80.0</ele><time>2026-04-04T16:04:43.282Z</time></trkpt><trkpt lat="36.604895" lon="10.4405067"><ele>80.5</ele><time>2026-04-04T16:04:44.282Z</time></trkpt><trkpt lat="36.6048483" lon="10.4408333"><ele>81.0</ele><time>2026-04-04T16:04:45.284Z</time></trkpt><trkpt lat="36.6048017" lon="10.4411583"><ele>81.0</ele><time>2026-04-04T16:04:46.286Z</time></trkpt><trkpt lat="36.6047533" lon="10.4414817"><ele>81.0</ele><time>2026-04-04T16:04:47.282Z</time></trkpt><trkpt lat="36.6047033" lon="10.4418033"><ele>81.0</ele><time>2026-04-04T16:04:48.283Z</time></trkpt><trkpt lat="36.6046517" lon="10.4421267"><ele>81.0</ele><time>2026-04-04T16:04:49.284Z</time></trkpt><trkpt lat="36.6046" lon="10.4424483"><ele>81.0</ele><time>2026-04-04T16:04:50.282Z</time></trkpt><trkpt lat="36.604545" lon="10.44277"><ele>81.0</ele><time>2026-04-04T16:04:51.282Z</time></trkpt><trkpt lat="36.6044867" lon="10.4430917"><ele>83.5</ele><time>2026-04-04T16:04:52.282Z</time></trkpt><trkpt lat="36.6044267" lon="10.4434117"><ele>86.0</ele><time>2026-04-04T16:04:53.286Z</time></trkpt><trkpt lat="36.6043567" lon="10.4437267"><ele>85.5</ele><time>2026-04-04T16:04:54.283Z</time></trkpt><trkpt lat="36.6042783" lon="10.4440433"><ele>85.0</ele><time>2026-04-04T16:04:55.285Z</time></trkpt><trkpt lat="36.604195" lon="10.44436"><ele>86.0</ele><time>2026-04-04T16:04:56.282Z</time></trkpt><trkpt lat="36.60411" lon="10.444675"><ele>87.0</ele><time>2026-04-04T16:04:57.283Z</time></trkpt><trkpt lat="36.6040217" lon="10.44499"><ele>87.0</ele><time>2026-04-04T16:04:58.283Z</time></trkpt><trkpt lat="36.6039317" lon="10.4453067"><ele>87.0</ele><time>2026-04-04T16:04:59.283Z</time></trkpt><trkpt lat="36.6038367" lon="10.4456217"><ele>87.0</ele><time>2026-04-04T16:05:00.282Z</time></trkpt><trkpt lat="36.6037383" lon="10.4459367"><ele>87.0</ele><time>2026-04-04T16:05:01.283Z</time></trkpt><trkpt lat="36.6036333" lon="10.44625"><ele>86.5</ele><time>2026-04-04T16:05:02.282Z</time></trkpt><trkpt lat="36.6035217" lon="10.44656"><ele>86.0</ele><time>2026-04-04T16:05:03.282Z</time></trkpt><trkpt lat="36.60341" lon="10.4468733"><ele>85.5</ele><time>2026-04-04T16:05:04.283Z</time></trkpt><trkpt lat="36.603295" lon="10.4471817"><ele>85.0</ele><time>2026-04-04T16:05:05.285Z</time></trkpt><trkpt lat="36.6031767" lon="10.4474933"><ele>85.0</ele><time>2026-04-04T16:05:06.285Z</time></trkpt><trkpt lat="36.6030533" lon="10.4478017"><ele>85.0</ele><time>2026-04-04T16:05:07.285Z</time></trkpt><trkpt lat="36.60293" lon="10.4481033"><ele>84.5</ele><time>2026-04-04T16:05:08.285Z</time></trkpt><trkpt lat="36.6028017" lon="10.4484033"><ele>84.0</ele><time>2026-04-04T16:05:09.285Z</time></trkpt><trkpt lat="36.60267" lon="10.4486967"><ele>83.0</ele><time>2026-04-04T16:05:10.286Z</time></trkpt><trkpt lat="36.60253" lon="10.4489833"><ele>82.0</ele><time>2026-04-04T16:05:11.285Z</time></trkpt><trkpt lat="36.602385" lon="10.4492667"><ele>82.0</ele><time>2026-04-04T16:05:12.285Z</time></trkpt><trkpt lat="36.6022383" lon="10.449545"><ele>82.0</ele><time>2026-04-04T16:05:13.286Z</time></trkpt><trkpt lat="36.6020917" lon="10.4498233"><ele>80.5</ele><time>2026-04-04T16:05:14.286Z</time></trkpt><trkpt lat="36.6019433" lon="10.4501017"><ele>79.0</ele><time>2026-04-04T16:05:15.285Z</time></trkpt><trkpt lat="36.601795" lon="10.4503833"><ele>78.0</ele><time>2026-04-04T16:05:16.285Z</time></trkpt><trkpt lat="36.6016383" lon="10.45066"><ele>77.0</ele><time>2026-04-04T16:05:17.283Z</time></trkpt><trkpt lat="36.601475" lon="10.4509367"><ele>77.0</ele><time>2026-04-04T16:05:18.282Z</time></trkpt><trkpt lat="36.6013083" lon="10.4512117"><ele>77.0</ele><time>2026-04-04T16:05:19.284Z</time></trkpt><trkpt lat="36.60114" lon="10.4514817"><ele>76.5</ele><time>2026-04-04T16:05:20.283Z</time></trkpt><trkpt lat="36.6009733" lon="10.4517467"><ele>76.0</ele><time>2026-04-04T16:05:21.284Z</time></trkpt><trkpt lat="36.6008067" lon="10.4520033"><ele>74.0</ele><time>2026-04-04T16:05:22.283Z</time></trkpt><trkpt lat="36.6006417" lon="10.45225"><ele>72.0</ele><time>2026-04-04T16:05:23.283Z</time></trkpt><trkpt lat="36.60048" lon="10.45249"><ele>72.0</ele><time>2026-04-04T16:05:24.284Z</time></trkpt><trkpt lat="36.6003183" lon="10.4527283"><ele>72.0</ele><time>2026-04-04T16:05:25.284Z</time></trkpt><trkpt lat="36.600155" lon="10.4529683"><ele>72.0</ele><time>2026-04-04T16:05:26.282Z</time></trkpt><trkpt lat="36.5999933" lon="10.4532083"><ele>72.0</ele><time>2026-04-04T16:05:27.282Z</time></trkpt><trkpt lat="36.5998283" lon="10.45345"><ele>72.0</ele><time>2026-04-04T16:05:28.284Z</time></trkpt><trkpt lat="36.5996633" lon="10.4536933"><ele>72.0</ele><time>2026-04-04T16:05:29.284Z</time></trkpt><trkpt lat="36.599495" lon="10.4539383"><ele>71.5</ele><time>2026-04-04T16:05:30.283Z</time></trkpt><trkpt lat="36.5993267" lon="10.454185"><ele>71.0</ele><time>2026-04-04T16:05:31.283Z</time></trkpt><trkpt lat="36.5991533" lon="10.454435"><ele>70.5</ele><time>2026-04-04T16:05:32.283Z</time></trkpt><trkpt lat="36.59898" lon="10.4546883"><ele>70.0</ele><time>2026-04-04T16:05:33.283Z</time></trkpt><trkpt lat="36.5988083" lon="10.4549417"><ele>71.0</ele><time>2026-04-04T16:05:34.285Z</time></trkpt><trkpt lat="36.598635" lon="10.4551967"><ele>72.0</ele><time>2026-04-04T16:05:35.282Z</time></trkpt><trkpt lat="36.598465" lon="10.4554583"><ele>72.0</ele><time>2026-04-04T16:05:36.283Z</time></trkpt><trkpt lat="36.5982967" lon="10.455725"><ele>72.0</ele><time>2026-04-04T16:05:37.286Z</time></trkpt><trkpt lat="36.59813" lon="10.4559917"><ele>72.0</ele><time>2026-04-04T16:05:38.283Z</time></trkpt><trkpt lat="36.5979633" lon="10.4562567"><ele>72.0</ele><time>2026-04-04T16:05:39.282Z</time></trkpt><trkpt lat="36.5977967" lon="10.4565283"><ele>71.0</ele><time>2026-04-04T16:05:40.286Z</time></trkpt><trkpt lat="36.5976317" lon="10.4568017"><ele>70.0</ele><time>2026-04-04T16:05:41.285Z</time></trkpt><trkpt lat="36.59747" lon="10.45708"><ele>70.5</ele><time>2026-04-04T16:05:42.285Z</time></trkpt><trkpt lat="36.59731" lon="10.45736"><ele>71.0</ele><time>2026-04-04T16:05:43.283Z</time></trkpt><trkpt lat="36.5971517" lon="10.4576383"><ele>71.0</ele><time>2026-04-04T16:05:44.284Z</time></trkpt><trkpt lat="36.596995" lon="10.4579167"><ele>71.0</ele><time>2026-04-04T16:05:45.285Z</time></trkpt><trkpt lat="36.59684" lon="10.4582"><ele>71.0</ele><time>2026-04-04T16:05:46.285Z</time></trkpt><trkpt lat="36.5966867" lon="10.4584833"><ele>71.0</ele><time>2026-04-04T16:05:47.282Z</time></trkpt><trkpt lat="36.596535" lon="10.4587683"><ele>71.0</ele><time>2026-04-04T16:05:48.284Z</time></trkpt><trkpt lat="36.5963867" lon="10.4590533"><ele>71.0</ele><time>2026-04-04T16:05:49.283Z</time></trkpt><trkpt lat="36.5962417" lon="10.45934"><ele>71.0</ele><time>2026-04-04T16:05:50.283Z</time></trkpt><trkpt lat="36.5961" lon="10.4596267"><ele>71.0</ele><time>2026-04-04T16:05:51.283Z</time></trkpt><trkpt lat="36.59596" lon="10.4599167"><ele>71.0</ele><time>2026-04-04T16:05:52.283Z</time></trkpt><trkpt lat="36.5958233" lon="10.4602033"><ele>71.0</ele><time>2026-04-04T16:05:53.283Z</time></trkpt><trkpt lat="36.5956883" lon="10.46049"><ele>70.5</ele><time>2026-04-04T16:05:54.284Z</time></trkpt><trkpt lat="36.595555" lon="10.4607767"><ele>70.0</ele><time>2026-04-04T16:05:55.283Z</time></trkpt><trkpt lat="36.5954267" lon="10.4610633"><ele>70.5</ele><time>2026-04-04T16:05:56.282Z</time></trkpt><trkpt lat="36.5953" lon="10.4613467"><ele>71.0</ele><time>2026-04-04T16:05:57.283Z</time></trkpt><trkpt lat="36.595175" lon="10.46163"><ele>71.0</ele><time>2026-04-04T16:05:58.283Z</time></trkpt><trkpt lat="36.595055" lon="10.4619133"><ele>71.0</ele><time>2026-04-04T16:05:59.283Z</time></trkpt><trkpt lat="36.594935" lon="10.4621983"><ele>70.5</ele><time>2026-04-04T16:06:00.284Z</time></trkpt><trkpt lat="36.5948183" lon="10.462485"><ele>70.0</ele><time>2026-04-04T16:06:01.282Z</time></trkpt><trkpt lat="36.5947017" lon="10.4627733"><ele>70.5</ele><time>2026-04-04T16:06:02.281Z</time></trkpt><trkpt lat="36.5945883" lon="10.4630633"><ele>71.0</ele><time>2026-04-04T16:06:03.283Z</time></trkpt><trkpt lat="36.594475" lon="10.4633583"><ele>71.0</ele><time>2026-04-04T16:06:04.284Z</time></trkpt><trkpt lat="36.5943633" lon="10.463655"><ele>71.0</ele><time>2026-04-04T16:06:05.285Z</time></trkpt><trkpt lat="36.5942533" lon="10.4639567"><ele>71.0</ele><time>2026-04-04T16:06:06.283Z</time></trkpt><trkpt lat="36.59414" lon="10.4642583"><ele>71.0</ele><time>2026-04-04T16:06:07.286Z</time></trkpt><trkpt lat="36.5940283" lon="10.4645617"><ele>69.5</ele><time>2026-04-04T16:06:08.286Z</time></trkpt><trkpt lat="36.5939217" lon="10.46487"><ele>68.0</ele><time>2026-04-04T16:06:09.284Z</time></trkpt><trkpt lat="36.593815" lon="10.4651733"><ele>68.0</ele><time>2026-04-04T16:06:10.285Z</time></trkpt><trkpt lat="36.5937067" lon="10.4654733"><ele>68.0</ele><time>2026-04-04T16:06:11.285Z</time></trkpt><trkpt lat="36.5935967" lon="10.465775"><ele>68.0</ele><time>2026-04-04T16:06:12.285Z</time></trkpt><trkpt lat="36.5934883" lon="10.4660783"><ele>68.0</ele><time>2026-04-04T16:06:13.286Z</time></trkpt><trkpt lat="36.59338" lon="10.466385"><ele>68.0</ele><time>2026-04-04T16:06:14.284Z</time></trkpt><trkpt lat="36.5932717" lon="10.4666917"><ele>68.0</ele><time>2026-04-04T16:06:15.281Z</time></trkpt><trkpt lat="36.5931617" lon="10.4669983"><ele>67.5</ele><time>2026-04-04T16:06:16.282Z</time></trkpt><trkpt lat="36.5930533" lon="10.4673083"><ele>67.0</ele><time>2026-04-04T16:06:17.283Z</time></trkpt><trkpt lat="36.592945" lon="10.4676167"><ele>67.0</ele><time>2026-04-04T16:06:18.283Z</time></trkpt><trkpt lat="36.59284" lon="10.4679183"><ele>67.0</ele><time>2026-04-04T16:06:19.283Z</time></trkpt><trkpt lat="36.5927383" lon="10.4682033"><ele>67.5</ele><time>2026-04-04T16:06:20.283Z</time></trkpt><trkpt lat="36.5926367" lon="10.468475"><ele>68.0</ele><time>2026-04-04T16:06:21.282Z</time></trkpt><trkpt lat="36.5925367" lon="10.4687433"><ele>68.5</ele><time>2026-04-04T16:06:22.282Z</time></trkpt><trkpt lat="36.5924367" lon="10.4690083"><ele>69.0</ele><time>2026-04-04T16:06:23.283Z</time></trkpt><trkpt lat="36.59234" lon="10.46927"><ele>69.0</ele><time>2026-04-04T16:06:24.286Z</time></trkpt><trkpt lat="36.5922467" lon="10.4695217"><ele>69.0</ele><time>2026-04-04T16:06:25.284Z</time></trkpt><trkpt lat="36.5921617" lon="10.4697667"><ele>69.0</ele><time>2026-04-04T16:06:26.285Z</time></trkpt><trkpt lat="36.592075" lon="10.4700117"><ele>68.66666666666667</ele><time>2026-04-04T16:06:27.286Z</time></trkpt><trkpt lat="36.59199" lon="10.470255"><ele>68.33333333333334</ele><time>2026-04-04T16:06:28.284Z</time></trkpt><trkpt lat="36.5919033" lon="10.4704917"><ele>68.0</ele><time>2026-04-04T16:06:29.285Z</time></trkpt><trkpt lat="36.59182" lon="10.47072"><ele>68.0</ele><time>2026-04-04T16:06:30.285Z</time></trkpt><trkpt lat="36.5917383" lon="10.470945"><ele>68.0</ele><time>2026-04-04T16:06:31.284Z</time></trkpt><trkpt lat="36.591655" lon="10.47117"><ele>68.0</ele><time>2026-04-04T16:06:32.284Z</time></trkpt><trkpt lat="36.59157" lon="10.471395"><ele>68.0</ele><time>2026-04-04T16:06:33.285Z</time></trkpt><trkpt lat="36.591485" lon="10.4716233"><ele>68.0</ele><time>2026-04-04T16:06:34.286Z</time></trkpt><trkpt lat="36.5913983" lon="10.4718533"><ele>68.0</ele><time>2026-04-04T16:06:35.284Z</time></trkpt><trkpt lat="36.5913117" lon="10.472085"><ele>68.0</ele><time>2026-04-04T16:06:36.285Z</time></trkpt><trkpt lat="36.5912267" lon="10.4723167"><ele>68.0</ele><time>2026-04-04T16:06:37.285Z</time></trkpt><trkpt lat="36.5911433" lon="10.4725533"><ele>68.0</ele><time>2026-04-04T16:06:38.285Z</time></trkpt><trkpt lat="36.591055" lon="10.4727867"><ele>68.66666666666667</ele><time>2026-04-04T16:06:39.285Z</time></trkpt><trkpt lat="36.5909633" lon="10.4730217"><ele>69.33333333333333</ele><time>2026-04-04T16:06:40.284Z</time></trkpt><trkpt lat="36.59087" lon="10.4732567"><ele>70.0</ele><time>2026-04-04T16:06:41.283Z</time></trkpt><trkpt lat="36.5907767" lon="10.473495"><ele>70.0</ele><time>2026-04-04T16:06:42.285Z</time></trkpt><trkpt lat="36.59068" lon="10.4737333"><ele>70.0</ele><time>2026-04-04T16:06:43.285Z</time></trkpt><trkpt lat="36.590585" lon="10.4739733"><ele>70.0</ele><time>2026-04-04T16:06:44.285Z</time></trkpt><trkpt lat="36.59049" lon="10.47421"><ele>69.66666666666666</ele><time>2026-04-04T16:06:45.285Z</time></trkpt><trkpt lat="36.590395" lon="10.47445"><ele>69.33333333333333</ele><time>2026-04-04T16:06:46.286Z</time></trkpt><trkpt lat="36.5903" lon="10.474685"><ele>69.0</ele><time>2026-04-04T16:06:47.285Z</time></trkpt><trkpt lat="36.590205" lon="10.474915"><ele>69.66666666666667</ele><time>2026-04-04T16:06:48.282Z</time></trkpt><trkpt lat="36.5901133" lon="10.475145"><ele>70.33333333333334</ele><time>2026-04-04T16:06:49.285Z</time></trkpt><trkpt lat="36.59002" lon="10.4753733"><ele>71.0</ele><time>2026-04-04T16:06:50.286Z</time></trkpt><trkpt lat="36.5899267" lon="10.4756033"><ele>71.0</ele><time>2026-04-04T16:06:51.285Z</time></trkpt><trkpt lat="36.58983" lon="10.475835"><ele>71.0</ele><time>2026-04-04T16:06:52.285Z</time></trkpt><trkpt lat="36.58973" lon="10.4760667"><ele>71.0</ele><time>2026-04-04T16:06:53.286Z</time></trkpt><trkpt lat="36.5896267" lon="10.4763017"><ele>70.33333333333334</ele><time>2026-04-04T16:06:54.286Z</time></trkpt><trkpt lat="36.589525" lon="10.47654"><ele>69.66666666666667</ele><time>2026-04-04T16:06:55.285Z</time></trkpt><trkpt lat="36.589425" lon="10.4767767"><ele>69.0</ele><time>2026-04-04T16:06:56.285Z</time></trkpt><trkpt lat="36.5893267" lon="10.4770083"><ele>69.0</ele><time>2026-04-04T16:06:57.285Z</time></trkpt><trkpt lat="36.5892283" lon="10.477235"><ele>69.0</ele><time>2026-04-04T16:06:58.285Z</time></trkpt><trkpt lat="36.5891317" lon="10.4774567"><ele>69.0</ele><time>2026-04-04T16:06:59.282Z</time></trkpt><trkpt lat="36.5890367" lon="10.47768"><ele>69.0</ele><time>2026-04-04T16:07:00.286Z</time></trkpt><trkpt lat="36.5889367" lon="10.4779067"><ele>69.0</ele><time>2026-04-04T16:07:01.282Z</time></trkpt><trkpt lat="36.5888367" lon="10.478135"><ele>69.0</ele><time>2026-04-04T16:07:02.283Z</time></trkpt><trkpt lat="36.5887333" lon="10.4783667"><ele>69.33333333333333</ele><time>2026-04-04T16:07:03.285Z</time></trkpt><trkpt lat="36.5886267" lon="10.4786"><ele>69.66666666666666</ele><time>2026-04-04T16:07:04.286Z</time></trkpt><trkpt lat="36.5885183" lon="10.4788333"><ele>70.0</ele><time>2026-04-04T16:07:05.285Z</time></trkpt><trkpt lat="36.5884117" lon="10.47907"><ele>69.66666666666666</ele><time>2026-04-04T16:07:06.286Z</time></trkpt><trkpt lat="36.5883017" lon="10.4793067"><ele>69.33333333333333</ele><time>2026-04-04T16:07:07.285Z</time></trkpt><trkpt lat="36.58819" lon="10.479545"><ele>69.0</ele><time>2026-04-04T16:07:08.286Z</time></trkpt><trkpt lat="36.58808" lon="10.4797783"><ele>69.0</ele><time>2026-04-04T16:07:09.283Z</time></trkpt><trkpt lat="36.5879683" lon="10.48001"><ele>69.0</ele><time>2026-04-04T16:07:10.285Z</time></trkpt><trkpt lat="36.5878567" lon="10.4802417"><ele>69.0</ele><time>2026-04-04T16:07:11.285Z</time></trkpt><trkpt lat="36.587745" lon="10.4804733"><ele>69.0</ele><time>2026-04-04T16:07:12.285Z</time></trkpt><trkpt lat="36.5876317" lon="10.4807033"><ele>69.0</ele><time>2026-04-04T16:07:13.285Z</time></trkpt><trkpt lat="36.58752" lon="10.4809317"><ele>69.0</ele><time>2026-04-04T16:07:14.285Z</time></trkpt><trkpt lat="36.5874067" lon="10.48116"><ele>69.33333333333333</ele><time>2026-04-04T16:07:15.286Z</time></trkpt><trkpt lat="36.5872933" lon="10.4813883"><ele>69.66666666666666</ele><time>2026-04-04T16:07:16.286Z</time></trkpt><trkpt lat="36.5871767" lon="10.4816167"><ele>70.0</ele><time>2026-04-04T16:07:17.285Z</time></trkpt><trkpt lat="36.5870617" lon="10.481845"><ele>69.33333333333333</ele><time>2026-04-04T16:07:18.285Z</time></trkpt><trkpt lat="36.5869467" lon="10.4820767"><ele>68.66666666666667</ele><time>2026-04-04T16:07:19.285Z</time></trkpt><trkpt lat="36.58683" lon="10.4823083"><ele>68.0</ele><time>2026-04-04T16:07:20.286Z</time></trkpt><trkpt lat="36.5867117" lon="10.4825433"><ele>68.0</ele><time>2026-04-04T16:07:21.285Z</time></trkpt><trkpt lat="36.58659" lon="10.48278"><ele>68.0</ele><time>2026-04-04T16:07:22.286Z</time></trkpt><trkpt lat="36.586465" lon="10.4830183"><ele>68.5</ele><time>2026-04-04T16:07:23.285Z</time></trkpt><trkpt lat="36.5863383" lon="10.4832617"><ele>69.0</ele><time>2026-04-04T16:07:24.286Z</time></trkpt><trkpt lat="36.5862083" lon="10.4835033"><ele>68.5</ele><time>2026-04-04T16:07:25.284Z</time></trkpt><trkpt lat="36.5860767" lon="10.4837483"><ele>68.0</ele><time>2026-04-04T16:07:26.281Z</time></trkpt><trkpt lat="36.585945" lon="10.4839983"><ele>69.5</ele><time>2026-04-04T16:07:27.282Z</time></trkpt><trkpt lat="36.58581" lon="10.484245"><ele>71.0</ele><time>2026-04-04T16:07:28.283Z</time></trkpt><trkpt lat="36.5856767" lon="10.4844933"><ele>72.0</ele><time>2026-04-04T16:07:29.283Z</time></trkpt><trkpt lat="36.5855467" lon="10.4847383"><ele>73.0</ele><time>2026-04-04T16:07:30.285Z</time></trkpt><trkpt lat="36.5854167" lon="10.4849733"><ele>73.66666666666666</ele><time>2026-04-04T16:07:31.285Z</time></trkpt><trkpt lat="36.5852933" lon="10.4852017"><ele>74.33333333333333</ele><time>2026-04-04T16:07:32.284Z</time></trkpt><trkpt lat="36.5851667" lon="10.4854267"><ele>75.0</ele><time>2026-04-04T16:07:33.282Z</time></trkpt><trkpt lat="36.5850383" lon="10.4856517"><ele>75.0</ele><time>2026-04-04T16:07:34.288Z</time></trkpt><trkpt lat="36.5849083" lon="10.485875"><ele>75.0</ele><time>2026-04-04T16:07:35.286Z</time></trkpt><trkpt lat="36.5847783" lon="10.4861"><ele>75.0</ele><time>2026-04-04T16:07:36.283Z</time></trkpt><trkpt lat="36.5846467" lon="10.486325"><ele>74.66666666666667</ele><time>2026-04-04T16:07:37.285Z</time></trkpt><trkpt lat="36.5845167" lon="10.4865517"><ele>74.33333333333334</ele><time>2026-04-04T16:07:38.286Z</time></trkpt><trkpt lat="36.5843883" lon="10.4867733"><ele>74.0</ele><time>2026-04-04T16:07:39.285Z</time></trkpt><trkpt lat="36.58426" lon="10.4869933"><ele>73.66666666666667</ele><time>2026-04-04T16:07:40.285Z</time></trkpt><trkpt lat="36.5841333" lon="10.4872133"><ele>73.33333333333333</ele><time>2026-04-04T16:07:41.283Z</time></trkpt><trkpt lat="36.584005" lon="10.487435"><ele>73.0</ele><time>2026-04-04T16:07:42.286Z</time></trkpt><trkpt lat="36.5838767" lon="10.4876567"><ele>73.0</ele><time>2026-04-04T16:07:43.285Z</time></trkpt><trkpt lat="36.5837433" lon="10.48788"><ele>73.0</ele><time>2026-04-04T16:07:44.284Z</time></trkpt><trkpt lat="36.5836083" lon="10.4881017"><ele>73.0</ele><time>2026-04-04T16:07:45.283Z</time></trkpt><trkpt lat="36.5834733" lon="10.4883233"><ele>73.33333333333333</ele><time>2026-04-04T16:07:46.285Z</time></trkpt><trkpt lat="36.58334" lon="10.4885417"><ele>73.66666666666667</ele><time>2026-04-04T16:07:47.285Z</time></trkpt><trkpt lat="36.5832067" lon="10.4887567"><ele>74.0</ele><time>2026-04-04T16:07:48.285Z</time></trkpt><trkpt lat="36.5830817" lon="10.4889633"><ele>74.33333333333334</ele><time>2026-04-04T16:07:49.285Z</time></trkpt><trkpt lat="36.5829617" lon="10.489165"><ele>74.66666666666667</ele><time>2026-04-04T16:07:50.285Z</time></trkpt><trkpt lat="36.5828417" lon="10.489355"><ele>75.0</ele><time>2026-04-04T16:07:51.286Z</time></trkpt><trkpt lat="36.5827267" lon="10.489545"><ele>74.0</ele><time>2026-04-04T16:07:52.285Z</time></trkpt><trkpt lat="36.58261" lon="10.489735"><ele>73.0</ele><time>2026-04-04T16:07:53.285Z</time></trkpt><trkpt lat="36.5824883" lon="10.4899267"><ele>72.0</ele><time>2026-04-04T16:07:54.285Z</time></trkpt><trkpt lat="36.582365" lon="10.49012"><ele>72.0</ele><time>2026-04-04T16:07:55.284Z</time></trkpt><trkpt lat="36.5822367" lon="10.4903133"><ele>72.0</ele><time>2026-04-04T16:07:56.285Z</time></trkpt><trkpt lat="36.5821117" lon="10.490505"><ele>72.0</ele><time>2026-04-04T16:07:57.285Z</time></trkpt><trkpt lat="36.5819917" lon="10.4906867"><ele>72.33333333333333</ele><time>2026-04-04T16:07:58.286Z</time></trkpt><trkpt lat="36.581875" lon="10.4908583"><ele>72.66666666666666</ele><time>2026-04-04T16:07:59.282Z</time></trkpt><trkpt lat="36.5817617" lon="10.4910167"><ele>73.0</ele><time>2026-04-04T16:08:00.283Z</time></trkpt><trkpt lat="36.5816567" lon="10.4911567"><ele>72.25</ele><time>2026-04-04T16:08:01.282Z</time></trkpt><trkpt lat="36.5815567" lon="10.491285"><ele>71.5</ele><time>2026-04-04T16:08:02.285Z</time></trkpt><trkpt lat="36.5814583" lon="10.4914017"><ele>70.75</ele><time>2026-04-04T16:08:03.283Z</time></trkpt><trkpt lat="36.5813617" lon="10.491505"><ele>70.0</ele><time>2026-04-04T16:08:04.283Z</time></trkpt><trkpt lat="36.5812667" lon="10.491595"><ele>70.6</ele><time>2026-04-04T16:08:05.284Z</time></trkpt><trkpt lat="36.58117" lon="10.4916733"><ele>71.2</ele><time>2026-04-04T16:08:06.284Z</time></trkpt><trkpt lat="36.5810767" lon="10.4917433"><ele>71.8</ele><time>2026-04-04T16:08:07.283Z</time></trkpt><trkpt lat="36.5809867" lon="10.4918"><ele>72.4</ele><time>2026-04-04T16:08:08.283Z</time></trkpt><trkpt lat="36.5808983" lon="10.4918483"><ele>73.0</ele><time>2026-04-04T16:08:09.284Z</time></trkpt><trkpt lat="36.58081" lon="10.49189"><ele>73.0</ele><time>2026-04-04T16:08:10.283Z</time></trkpt><trkpt lat="36.58073" lon="10.491925"><ele>73.0</ele><time>2026-04-04T16:08:11.286Z</time></trkpt><trkpt lat="36.580655" lon="10.4919567"><ele>73.0</ele><time>2026-04-04T16:08:12.283Z</time></trkpt><trkpt lat="36.5805867" lon="10.491985"><ele>73.0</ele><time>2026-04-04T16:08:13.282Z</time></trkpt><trkpt lat="36.58047" lon="10.492"><ele>73.0</ele><time>2026-04-04T16:08:15.285Z</time></trkpt><trkpt lat="36.58037" lon="10.4920017"><ele>73.16666666666666</ele><time>2026-04-04T16:08:17.286Z</time></trkpt><trkpt lat="36.5802783" lon="10.4920317"><ele>73.33333333333333</ele><time>2026-04-04T16:08:19.285Z</time></trkpt><trkpt lat="36.580215" lon="10.4920917"><ele>73.5</ele><time>2026-04-04T16:08:21.285Z</time></trkpt><trkpt lat="36.5801517" lon="10.4921633"><ele>73.66666666666667</ele><time>2026-04-04T16:08:24.286Z</time></trkpt><trkpt lat="36.5800967" lon="10.4922217"><ele>73.83333333333334</ele><time>2026-04-04T16:08:28.286Z</time></trkpt><trkpt lat="36.5800467" lon="10.4922717"><ele>74.0</ele><time>2026-04-04T16:08:33.283Z</time></trkpt><trkpt lat="36.579975" lon="10.4923167"><ele>74.0</ele><time>2026-04-04T16:08:37.283Z</time></trkpt><trkpt lat="36.5799183" lon="10.4923517"><ele>74.0</ele><time>2026-04-04T16:08:40.285Z</time></trkpt><trkpt lat="36.57986" lon="10.4924233"><ele>74.0</ele><time>2026-04-04T16:11:37.283Z</time></trkpt><trkpt lat="36.579815" lon="10.4925283"><ele>74.0</ele><time>2026-04-04T16:14:35.283Z</time></trkpt><trkpt lat="36.5798167" lon="10.4926467"><ele>74.0</ele><time>2026-04-04T16:22:45.283Z</time></trkpt><trkpt lat="36.5798833" lon="10.4927083"><ele>74.0</ele><time>2026-04-04T16:22:47.282Z</time></trkpt><trkpt lat="36.5798917" lon="10.49282"><ele>73.8</ele><time>2026-04-04T16:22:49.282Z</time></trkpt><trkpt lat="36.579835" lon="10.4929417"><ele>73.60000000000001</ele><time>2026-04-04T16:22:51.282Z</time></trkpt><trkpt lat="36.5797667" lon="10.4930467"><ele>73.4</ele><time>2026-04-04T16:22:53.282Z</time></trkpt><trkpt lat="36.5796883" lon="10.4931583"><ele>73.2</ele><time>2026-04-04T16:22:55.283Z</time></trkpt><trkpt lat="36.5796283" lon="10.4932667"><ele>73.0</ele><time>2026-04-04T16:22:57.282Z</time></trkpt><trkpt lat="36.57955" lon="10.49335"><ele>73.0</ele><time>2026-04-04T16:22:59.283Z</time></trkpt><trkpt lat="36.5794683" lon="10.493385"><ele>73.0</ele><time>2026-04-04T16:23:01.286Z</time></trkpt><trkpt lat="36.5793983" lon="10.4934433"><ele>73.0</ele><time>2026-04-04T16:23:03.283Z</time></trkpt><trkpt lat="36.5792917" lon="10.4935683"><ele>73.0</ele><time>2026-04-04T16:23:05.285Z</time></trkpt><trkpt lat="36.5792233" lon="10.49364"><ele>73.0</ele><time>2026-04-04T16:23:06.285Z</time></trkpt><trkpt lat="36.57915" lon="10.4937033"><ele>72.5</ele><time>2026-04-04T16:23:07.285Z</time></trkpt><trkpt lat="36.57908" lon="10.49376"><ele>72.0</ele><time>2026-04-04T16:23:08.285Z</time></trkpt><trkpt lat="36.5790183" lon="10.4938083"><ele>71.5</ele><time>2026-04-04T16:23:09.285Z</time></trkpt><trkpt lat="36.5789583" lon="10.4938583"><ele>71.0</ele><time>2026-04-04T16:23:10.286Z</time></trkpt><trkpt lat="36.5789" lon="10.4939167"><ele>70.5</ele><time>2026-04-04T16:23:11.285Z</time></trkpt><trkpt lat="36.5788567" lon="10.4939817"><ele>70.0</ele><time>2026-04-04T16:23:12.285Z</time></trkpt><trkpt lat="36.5788267" lon="10.4941283"><ele>70.0</ele><time>2026-04-04T16:23:14.286Z</time></trkpt><trkpt lat="36.5788467" lon="10.4942117"><ele>70.0</ele><time>2026-04-04T16:23:15.285Z</time></trkpt><trkpt lat="36.578885" lon="10.4942917"><ele>70.0</ele><time>2026-04-04T16:23:16.285Z</time></trkpt><trkpt lat="36.5789217" lon="10.4943717"><ele>70.0</ele><time>2026-04-04T16:23:17.287Z</time></trkpt><trkpt lat="36.578935" lon="10.4944583"><ele>70.0</ele><time>2026-04-04T16:23:18.285Z</time></trkpt><trkpt lat="36.5789233" lon="10.49456"><ele>70.0</ele><time>2026-04-04T16:23:19.285Z</time></trkpt><trkpt lat="36.5788967" lon="10.494675"><ele>70.0</ele><time>2026-04-04T16:23:20.282Z</time></trkpt><trkpt lat="36.5788667" lon="10.4947933"><ele>70.0</ele><time>2026-04-04T16:23:21.285Z</time></trkpt><trkpt lat="36.5788317" lon="10.4949133"><ele>70.0</ele><time>2026-04-04T16:23:22.285Z</time></trkpt><trkpt lat="36.5787867" lon="10.495035"><ele>70.0</ele><time>2026-04-04T16:23:23.286Z</time></trkpt><trkpt lat="36.5787383" lon="10.4951617"><ele>70.0</ele><time>2026-04-04T16:23:24.285Z</time></trkpt><trkpt lat="36.578685" lon="10.4952917"><ele>70.0</ele><time>2026-04-04T16:23:25.285Z</time></trkpt><trkpt lat="36.5786267" lon="10.49543"><ele>70.0</ele><time>2026-04-04T16:23:26.285Z</time></trkpt><trkpt lat="36.578565" lon="10.4955617"><ele>70.0</ele><time>2026-04-04T16:23:27.286Z</time></trkpt><trkpt lat="36.5785033" lon="10.4956933"><ele>70.0</ele><time>2026-04-04T16:23:28.285Z</time></trkpt><trkpt lat="36.578445" lon="10.4958067"><ele>70.0</ele><time>2026-04-04T16:23:29.285Z</time></trkpt><trkpt lat="36.5783933" lon="10.4959117"><ele>70.0</ele><time>2026-04-04T16:23:30.285Z</time></trkpt><trkpt lat="36.5783367" lon="10.496015"><ele>70.0</ele><time>2026-04-04T16:23:31.285Z</time></trkpt><trkpt lat="36.5782767" lon="10.4961217"><ele>70.0</ele><time>2026-04-04T16:23:32.285Z</time></trkpt><trkpt lat="36.5782083" lon="10.4962333"><ele>70.0</ele><time>2026-04-04T16:23:33.282Z</time></trkpt><trkpt lat="36.578135" lon="10.496355"><ele>70.0</ele><time>2026-04-04T16:23:34.283Z</time></trkpt><trkpt lat="36.5780533" lon="10.4964833"><ele>70.0</ele><time>2026-04-04T16:23:35.283Z</time></trkpt><trkpt lat="36.577965" lon="10.49662"><ele>70.0</ele><time>2026-04-04T16:23:36.283Z</time></trkpt><trkpt lat="36.5778717" lon="10.496765"><ele>70.0</ele><time>2026-04-04T16:23:37.283Z</time></trkpt><trkpt lat="36.5777733" lon="10.4969233"><ele>70.0</ele><time>2026-04-04T16:23:38.282Z</time></trkpt><trkpt lat="36.5776667" lon="10.4970967"><ele>70.0</ele><time>2026-04-04T16:23:39.282Z</time></trkpt><trkpt lat="36.577555" lon="10.497275"><ele>70.0</ele><time>2026-04-04T16:23:40.285Z</time></trkpt><trkpt lat="36.57744" lon="10.49746"><ele>70.0</ele><time>2026-04-04T16:23:41.285Z</time></trkpt><trkpt lat="36.5773217" lon="10.4976483"><ele>70.0</ele><time>2026-04-04T16:23:42.285Z</time></trkpt><trkpt lat="36.5772033" lon="10.49784"><ele>70.0</ele><time>2026-04-04T16:23:43.286Z</time></trkpt><trkpt lat="36.577085" lon="10.4980367"><ele>69.66666666666666</ele><time>2026-04-04T16:23:44.285Z</time></trkpt><trkpt lat="36.5769633" lon="10.49824"><ele>69.33333333333333</ele><time>2026-04-04T16:23:45.285Z</time></trkpt><trkpt lat="36.5768417" lon="10.4984467"><ele>69.0</ele><time>2026-04-04T16:23:46.285Z</time></trkpt><trkpt lat="36.5767167" lon="10.498655"><ele>68.0</ele><time>2026-04-04T16:23:47.286Z</time></trkpt><trkpt lat="36.5765933" lon="10.498865"><ele>67.0</ele><time>2026-04-04T16:23:48.287Z</time></trkpt><trkpt lat="36.5764683" lon="10.4990783"><ele>66.0</ele><time>2026-04-04T16:23:49.285Z</time></trkpt><trkpt lat="36.5763467" lon="10.499295"><ele>66.0</ele><time>2026-04-04T16:23:50.285Z</time></trkpt><trkpt lat="36.5762233" lon="10.4995133"><ele>66.0</ele><time>2026-04-04T16:23:51.286Z</time></trkpt><trkpt lat="36.5761033" lon="10.49973"><ele>66.0</ele><time>2026-04-04T16:23:52.285Z</time></trkpt><trkpt lat="36.57598" lon="10.4999467"><ele>66.0</ele><time>2026-04-04T16:23:53.285Z</time></trkpt><trkpt lat="36.5758583" lon="10.5001667"><ele>66.0</ele><time>2026-04-04T16:23:54.286Z</time></trkpt><trkpt lat="36.575735" lon="10.5003883"><ele>66.0</ele><time>2026-04-04T16:23:55.285Z</time></trkpt><trkpt lat="36.575615" lon="10.5006167"><ele>66.0</ele><time>2026-04-04T16:23:56.285Z</time></trkpt><trkpt lat="36.5754933" lon="10.5008467"><ele>66.0</ele><time>2026-04-04T16:23:57.285Z</time></trkpt><trkpt lat="36.5753717" lon="10.50108"><ele>66.0</ele><time>2026-04-04T16:23:58.285Z</time></trkpt><trkpt lat="36.5752483" lon="10.5013183"><ele>65.5</ele><time>2026-04-04T16:23:59.287Z</time></trkpt><trkpt lat="36.575125" lon="10.5015583"><ele>65.0</ele><time>2026-04-04T16:24:00.285Z</time></trkpt><trkpt lat="36.5750017" lon="10.5018"><ele>65.0</ele><time>2026-04-04T16:24:01.285Z</time></trkpt><trkpt lat="36.5748767" lon="10.5020467"><ele>65.0</ele><time>2026-04-04T16:24:02.287Z</time></trkpt><trkpt lat="36.5747517" lon="10.502295"><ele>64.5</ele><time>2026-04-04T16:24:03.286Z</time></trkpt><trkpt lat="36.5746283" lon="10.5025483"><ele>64.0</ele><time>2026-04-04T16:24:04.285Z</time></trkpt><trkpt lat="36.574505" lon="10.5028033"><ele>63.0</ele><time>2026-04-04T16:24:05.285Z</time></trkpt><trkpt lat="36.5743817" lon="10.5030617"><ele>62.0</ele><time>2026-04-04T16:24:06.285Z</time></trkpt><trkpt lat="36.5742583" lon="10.5033233"><ele>62.0</ele><time>2026-04-04T16:24:07.285Z</time></trkpt><trkpt lat="36.574135" lon="10.5035867"><ele>62.0</ele><time>2026-04-04T16:24:08.285Z</time></trkpt><trkpt lat="36.5740133" lon="10.5038533"><ele>62.0</ele><time>2026-04-04T16:24:09.285Z</time></trkpt><trkpt lat="36.57389" lon="10.504125"><ele>62.0</ele><time>2026-04-04T16:24:10.285Z</time></trkpt><trkpt lat="36.5737683" lon="10.504395"><ele>62.0</ele><time>2026-04-04T16:24:11.285Z</time></trkpt><trkpt lat="36.573645" lon="10.504665"><ele>62.0</ele><time>2026-04-04T16:24:12.285Z</time></trkpt><trkpt lat="36.5735217" lon="10.5049367"><ele>62.0</ele><time>2026-04-04T16:24:13.286Z</time></trkpt><trkpt lat="36.5733967" lon="10.50521"><ele>62.0</ele><time>2026-04-04T16:24:14.286Z</time></trkpt><trkpt lat="36.5732717" lon="10.5054833"><ele>62.0</ele><time>2026-04-04T16:24:15.286Z</time></trkpt><trkpt lat="36.5731483" lon="10.5057567"><ele>62.0</ele><time>2026-04-04T16:24:16.286Z</time></trkpt><trkpt lat="36.5730233" lon="10.50603"><ele>61.5</ele><time>2026-04-04T16:24:17.285Z</time></trkpt><trkpt lat="36.5728983" lon="10.5063033"><ele>61.0</ele><time>2026-04-04T16:24:18.287Z</time></trkpt><trkpt lat="36.5727717" lon="10.5065733"><ele>61.5</ele><time>2026-04-04T16:24:19.285Z</time></trkpt><trkpt lat="36.5726467" lon="10.5068433"><ele>62.0</ele><time>2026-04-04T16:24:20.285Z</time></trkpt><trkpt lat="36.572525" lon="10.5071133"><ele>62.0</ele><time>2026-04-04T16:24:21.285Z</time></trkpt><trkpt lat="36.5724033" lon="10.5073817"><ele>62.0</ele><time>2026-04-04T16:24:22.286Z</time></trkpt><trkpt lat="36.5722817" lon="10.5076483"><ele>60.5</ele><time>2026-04-04T16:24:23.286Z</time></trkpt><trkpt lat="36.5721583" lon="10.507915"><ele>59.0</ele><time>2026-04-04T16:24:24.286Z</time></trkpt><trkpt lat="36.5720367" lon="10.5081783"><ele>59.5</ele><time>2026-04-04T16:24:25.285Z</time></trkpt><trkpt lat="36.5719133" lon="10.50844"><ele>60.0</ele><time>2026-04-04T16:24:26.285Z</time></trkpt><trkpt lat="36.5717867" lon="10.5086983"><ele>61.0</ele><time>2026-04-04T16:24:27.285Z</time></trkpt><trkpt lat="36.571655" lon="10.5089567"><ele>62.0</ele><time>2026-04-04T16:24:28.285Z</time></trkpt><trkpt lat="36.571525" lon="10.5092133"><ele>62.0</ele><time>2026-04-04T16:24:29.285Z</time></trkpt><trkpt lat="36.5713983" lon="10.5094733"><ele>62.0</ele><time>2026-04-04T16:24:30.286Z</time></trkpt><trkpt lat="36.5712733" lon="10.509735"><ele>60.5</ele><time>2026-04-04T16:24:31.285Z</time></trkpt><trkpt lat="36.5711433" lon="10.51"><ele>59.0</ele><time>2026-04-04T16:24:32.285Z</time></trkpt><trkpt lat="36.5710083" lon="10.5102683"><ele>58.5</ele><time>2026-04-04T16:24:33.286Z</time></trkpt><trkpt lat="36.5708717" lon="10.510535"><ele>58.0</ele><time>2026-04-04T16:24:34.285Z</time></trkpt><trkpt lat="36.57073" lon="10.5108"><ele>58.0</ele><time>2026-04-04T16:24:35.286Z</time></trkpt><trkpt lat="36.570585" lon="10.5110567"><ele>58.0</ele><time>2026-04-04T16:24:36.285Z</time></trkpt><trkpt lat="36.5704383" lon="10.51131"><ele>59.0</ele><time>2026-04-04T16:24:37.286Z</time></trkpt><trkpt lat="36.5702933" lon="10.5115567"><ele>60.0</ele><time>2026-04-04T16:24:38.285Z</time></trkpt><trkpt lat="36.5701483" lon="10.5118"><ele>60.0</ele><time>2026-04-04T16:24:39.285Z</time></trkpt><trkpt lat="36.5700017" lon="10.5120367"><ele>60.0</ele><time>2026-04-04T16:24:40.285Z</time></trkpt><trkpt lat="36.56986" lon="10.5122667"><ele>59.0</ele><time>2026-04-04T16:24:41.285Z</time></trkpt><trkpt lat="36.5697183" lon="10.5124917"><ele>58.0</ele><time>2026-04-04T16:24:42.286Z</time></trkpt><trkpt lat="36.5695767" lon="10.5127133"><ele>57.33333333333333</ele><time>2026-04-04T16:24:43.286Z</time></trkpt><trkpt lat="36.5694383" lon="10.5129283"><ele>56.66666666666667</ele><time>2026-04-04T16:24:44.285Z</time></trkpt><trkpt lat="36.5692983" lon="10.51314"><ele>56.0</ele><time>2026-04-04T16:24:45.285Z</time></trkpt><trkpt lat="36.5691583" lon="10.5133483"><ele>56.0</ele><time>2026-04-04T16:24:46.285Z</time></trkpt><trkpt lat="36.5690183" lon="10.5135533"><ele>56.0</ele><time>2026-04-04T16:24:47.285Z</time></trkpt><trkpt lat="36.5688817" lon="10.5137583"><ele>56.0</ele><time>2026-04-04T16:24:48.286Z</time></trkpt><trkpt lat="36.5687433" lon="10.5139583"><ele>56.0</ele><time>2026-04-04T16:24:49.286Z</time></trkpt><trkpt lat="36.5686083" lon="10.5141583"><ele>56.0</ele><time>2026-04-04T16:24:50.285Z</time></trkpt><trkpt lat="36.5684717" lon="10.514355"><ele>56.0</ele><time>2026-04-04T16:24:51.286Z</time></trkpt><trkpt lat="36.5683367" lon="10.5145433"><ele>56.0</ele><time>2026-04-04T16:24:52.285Z</time></trkpt><trkpt lat="36.5682067" lon="10.5147217"><ele>56.0</ele><time>2026-04-04T16:24:53.285Z</time></trkpt><trkpt lat="36.568085" lon="10.51489"><ele>56.0</ele><time>2026-04-04T16:24:54.287Z</time></trkpt><trkpt lat="36.5679667" lon="10.5150517"><ele>56.66666666666667</ele><time>2026-04-04T16:24:55.285Z</time></trkpt><trkpt lat="36.567845" lon="10.5152117"><ele>57.33333333333333</ele><time>2026-04-04T16:24:56.285Z</time></trkpt><trkpt lat="36.5677183" lon="10.5153783"><ele>58.0</ele><time>2026-04-04T16:24:57.286Z</time></trkpt><trkpt lat="36.567585" lon="10.5155483"><ele>58.0</ele><time>2026-04-04T16:24:58.286Z</time></trkpt><trkpt lat="36.5674483" lon="10.515725"><ele>58.0</ele><time>2026-04-04T16:24:59.285Z</time></trkpt><trkpt lat="36.56731" lon="10.5159067"><ele>58.0</ele><time>2026-04-04T16:25:00.285Z</time></trkpt><trkpt lat="36.56717" lon="10.516085"><ele>57.666666666666664</ele><time>2026-04-04T16:25:01.285Z</time></trkpt><trkpt lat="36.567025" lon="10.5162683"><ele>57.33333333333333</ele><time>2026-04-04T16:25:02.285Z</time></trkpt><trkpt lat="36.5668767" lon="10.5164533"><ele>57.0</ele><time>2026-04-04T16:25:03.285Z</time></trkpt><trkpt lat="36.5667233" lon="10.5166433"><ele>57.0</ele><time>2026-04-04T16:25:04.285Z</time></trkpt><trkpt lat="36.566565" lon="10.5168333"><ele>57.0</ele><time>2026-04-04T16:25:05.286Z</time></trkpt><trkpt lat="36.5664067" lon="10.5170233"><ele>57.0</ele><time>2026-04-04T16:25:06.286Z</time></trkpt><trkpt lat="36.5662433" lon="10.5172117"><ele>56.66666666666667</ele><time>2026-04-04T16:25:07.285Z</time></trkpt><trkpt lat="36.56608" lon="10.5174"><ele>56.333333333333336</ele><time>2026-04-04T16:25:08.285Z</time></trkpt><trkpt lat="36.5659133" lon="10.51759"><ele>56.0</ele><time>2026-04-04T16:25:09.286Z</time></trkpt><trkpt lat="36.565745" lon="10.51778"><ele>56.5</ele><time>2026-04-04T16:25:10.285Z</time></trkpt><trkpt lat="36.5655733" lon="10.51797"><ele>57.0</ele><time>2026-04-04T16:25:11.285Z</time></trkpt><trkpt lat="36.5653983" lon="10.51816"><ele>57.0</ele><time>2026-04-04T16:25:12.286Z</time></trkpt><trkpt lat="36.5652217" lon="10.5183517"><ele>57.0</ele><time>2026-04-04T16:25:13.286Z</time></trkpt><trkpt lat="36.5650433" lon="10.5185433"><ele>57.5</ele><time>2026-04-04T16:25:14.285Z</time></trkpt><trkpt lat="36.5648617" lon="10.518735"><ele>58.0</ele><time>2026-04-04T16:25:15.285Z</time></trkpt><trkpt lat="36.5646783" lon="10.5189267"><ele>58.5</ele><time>2026-04-04T16:25:16.286Z</time></trkpt><trkpt lat="36.5644917" lon="10.519115"><ele>59.0</ele><time>2026-04-04T16:25:17.285Z</time></trkpt><trkpt lat="36.564305" lon="10.5193017"><ele>59.0</ele><time>2026-04-04T16:25:18.287Z</time></trkpt><trkpt lat="36.5641167" lon="10.5194867"><ele>59.0</ele><time>2026-04-04T16:25:19.285Z</time></trkpt><trkpt lat="36.563925" lon="10.5196683"><ele>59.0</ele><time>2026-04-04T16:25:20.285Z</time></trkpt><trkpt lat="36.5637317" lon="10.5198517"><ele>59.0</ele><time>2026-04-04T16:25:21.285Z</time></trkpt><trkpt lat="36.5635383" lon="10.52003"><ele>59.0</ele><time>2026-04-04T16:25:22.285Z</time></trkpt><trkpt lat="36.5633433" lon="10.5202017"><ele>59.0</ele><time>2026-04-04T16:25:23.289Z</time></trkpt><trkpt lat="36.5631517" lon="10.5203733"><ele>59.0</ele><time>2026-04-04T16:25:24.285Z</time></trkpt><trkpt lat="36.5629617" lon="10.5205417"><ele>59.0</ele><time>2026-04-04T16:25:25.285Z</time></trkpt><trkpt lat="36.5627817" lon="10.5207033"><ele>59.0</ele><time>2026-04-04T16:25:26.285Z</time></trkpt><trkpt lat="36.5626083" lon="10.5208583"><ele>59.0</ele><time>2026-04-04T16:25:27.286Z</time></trkpt><trkpt lat="36.562435" lon="10.5210117"><ele>59.0</ele><time>2026-04-04T16:25:28.285Z</time></trkpt><trkpt lat="36.562255" lon="10.521165"><ele>58.66666666666667</ele><time>2026-04-04T16:25:29.285Z</time></trkpt><trkpt lat="36.5620733" lon="10.52132"><ele>58.33333333333333</ele><time>2026-04-04T16:25:30.285Z</time></trkpt><trkpt lat="36.5618883" lon="10.5214733"><ele>58.0</ele><time>2026-04-04T16:25:31.285Z</time></trkpt><trkpt lat="36.5616983" lon="10.5216233"><ele>59.0</ele><time>2026-04-04T16:25:32.285Z</time></trkpt><trkpt lat="36.5615" lon="10.5217733"><ele>60.0</ele><time>2026-04-04T16:25:33.286Z</time></trkpt><trkpt lat="36.5613" lon="10.5219217"><ele>60.5</ele><time>2026-04-04T16:25:34.282Z</time></trkpt><trkpt lat="36.5610967" lon="10.5220733"><ele>61.0</ele><time>2026-04-04T16:25:35.283Z</time></trkpt><trkpt lat="36.560895" lon="10.5222283"><ele>61.0</ele><time>2026-04-04T16:25:36.284Z</time></trkpt><trkpt lat="36.56069" lon="10.522385"><ele>61.0</ele><time>2026-04-04T16:25:37.284Z</time></trkpt><trkpt lat="36.5604867" lon="10.52254"><ele>61.0</ele><time>2026-04-04T16:25:38.283Z</time></trkpt><trkpt lat="36.5602817" lon="10.522695"><ele>61.0</ele><time>2026-04-04T16:25:39.283Z</time></trkpt><trkpt lat="36.5600783" lon="10.5228517"><ele>60.5</ele><time>2026-04-04T16:25:40.284Z</time></trkpt><trkpt lat="36.5598717" lon="10.52301"><ele>60.0</ele><time>2026-04-04T16:25:41.284Z</time></trkpt><trkpt lat="36.5596617" lon="10.52317"><ele>60.5</ele><time>2026-04-04T16:25:42.283Z</time></trkpt><trkpt lat="36.5594483" lon="10.5233317"><ele>61.0</ele><time>2026-04-04T16:25:43.283Z</time></trkpt><trkpt lat="36.55923" lon="10.523495"><ele>61.0</ele><time>2026-04-04T16:25:44.282Z</time></trkpt><trkpt lat="36.5590117" lon="10.5236617"><ele>61.0</ele><time>2026-04-04T16:25:45.285Z</time></trkpt><trkpt lat="36.558795" lon="10.5238333"><ele>61.5</ele><time>2026-04-04T16:25:46.285Z</time></trkpt><trkpt lat="36.5585783" lon="10.5240083"><ele>62.0</ele><time>2026-04-04T16:25:47.286Z</time></trkpt><trkpt lat="36.5583617" lon="10.5241867"><ele>62.0</ele><time>2026-04-04T16:25:48.285Z</time></trkpt><trkpt lat="36.5581433" lon="10.52437"><ele>62.0</ele><time>2026-04-04T16:25:49.286Z</time></trkpt><trkpt lat="36.5579233" lon="10.524555"><ele>63.0</ele><time>2026-04-04T16:25:50.285Z</time></trkpt><trkpt lat="36.5577033" lon="10.5247417"><ele>64.0</ele><time>2026-04-04T16:25:51.285Z</time></trkpt><trkpt lat="36.5574833" lon="10.5249283"><ele>64.0</ele><time>2026-04-04T16:25:52.285Z</time></trkpt><trkpt lat="36.5572633" lon="10.5251183"><ele>64.0</ele><time>2026-04-04T16:25:53.285Z</time></trkpt><trkpt lat="36.5570433" lon="10.52531"><ele>64.0</ele><time>2026-04-04T16:25:54.285Z</time></trkpt><trkpt lat="36.556825" lon="10.525505"><ele>64.0</ele><time>2026-04-04T16:25:55.285Z</time></trkpt><trkpt lat="36.5566067" lon="10.525695"><ele>64.0</ele><time>2026-04-04T16:25:56.285Z</time></trkpt><trkpt lat="36.55639" lon="10.5258867"><ele>64.0</ele><time>2026-04-04T16:25:57.285Z</time></trkpt><trkpt lat="36.5561717" lon="10.5260767"><ele>65.0</ele><time>2026-04-04T16:25:58.285Z</time></trkpt><trkpt lat="36.5559567" lon="10.526265"><ele>66.0</ele><time>2026-04-04T16:25:59.285Z</time></trkpt><trkpt lat="36.555745" lon="10.5264533"><ele>66.0</ele><time>2026-04-04T16:26:00.285Z</time></trkpt><trkpt lat="36.555535" lon="10.5266367"><ele>66.0</ele><time>2026-04-04T16:26:01.285Z</time></trkpt><trkpt lat="36.5553283" lon="10.52682"><ele>66.0</ele><time>2026-04-04T16:26:02.285Z</time></trkpt><trkpt lat="36.5551233" lon="10.527"><ele>66.0</ele><time>2026-04-04T16:26:03.285Z</time></trkpt><trkpt lat="36.5549183" lon="10.52718"><ele>66.0</ele><time>2026-04-04T16:26:04.283Z</time></trkpt><trkpt lat="36.5547167" lon="10.527355"><ele>66.0</ele><time>2026-04-04T16:26:05.283Z</time></trkpt><trkpt lat="36.55452" lon="10.5275233"><ele>66.0</ele><time>2026-04-04T16:26:06.283Z</time></trkpt><trkpt lat="36.554325" lon="10.5276883"><ele>66.0</ele><time>2026-04-04T16:26:07.284Z</time></trkpt><trkpt lat="36.5541283" lon="10.5278517"><ele>66.5</ele><time>2026-04-04T16:26:08.282Z</time></trkpt><trkpt lat="36.5539283" lon="10.5280117"><ele>67.0</ele><time>2026-04-04T16:26:09.283Z</time></trkpt><trkpt lat="36.5537233" lon="10.5281733"><ele>67.5</ele><time>2026-04-04T16:26:10.283Z</time></trkpt><trkpt lat="36.5535117" lon="10.5283333"><ele>68.0</ele><time>2026-04-04T16:26:11.283Z</time></trkpt><trkpt lat="36.5532983" lon="10.528495"><ele>68.0</ele><time>2026-04-04T16:26:12.284Z</time></trkpt><trkpt lat="36.553085" lon="10.5286533"><ele>68.0</ele><time>2026-04-04T16:26:13.282Z</time></trkpt><trkpt lat="36.5528733" lon="10.5288033"><ele>68.0</ele><time>2026-04-04T16:26:14.282Z</time></trkpt><trkpt lat="36.552665" lon="10.5289483"><ele>68.0</ele><time>2026-04-04T16:26:15.285Z</time></trkpt><trkpt lat="36.5524617" lon="10.529085"><ele>68.0</ele><time>2026-04-04T16:26:16.285Z</time></trkpt><trkpt lat="36.5522583" lon="10.5292183"><ele>68.0</ele><time>2026-04-04T16:26:17.285Z</time></trkpt><trkpt lat="36.55205" lon="10.5293483"><ele>68.0</ele><time>2026-04-04T16:26:18.286Z</time></trkpt><trkpt lat="36.5518417" lon="10.5294783"><ele>68.0</ele><time>2026-04-04T16:26:19.285Z</time></trkpt><trkpt lat="36.5516417" lon="10.5296033"><ele>67.66666666666667</ele><time>2026-04-04T16:26:20.285Z</time></trkpt><trkpt lat="36.5514417" lon="10.5297233"><ele>67.33333333333333</ele><time>2026-04-04T16:26:21.286Z</time></trkpt><trkpt lat="36.5512367" lon="10.5298417"><ele>67.0</ele><time>2026-04-04T16:26:22.285Z</time></trkpt><trkpt lat="36.55103" lon="10.5299583"><ele>68.0</ele><time>2026-04-04T16:26:23.287Z</time></trkpt><trkpt lat="36.550825" lon="10.5300717"><ele>69.0</ele><time>2026-04-04T16:26:24.285Z</time></trkpt><trkpt lat="36.5506183" lon="10.5301833"><ele>69.0</ele><time>2026-04-04T16:26:25.285Z</time></trkpt><trkpt lat="36.5504017" lon="10.5303017"><ele>69.0</ele><time>2026-04-04T16:26:26.286Z</time></trkpt><trkpt lat="36.5501683" lon="10.530425"><ele>68.5</ele><time>2026-04-04T16:26:27.285Z</time></trkpt><trkpt lat="36.5499217" lon="10.5305517"><ele>68.0</ele><time>2026-04-04T16:26:28.285Z</time></trkpt><trkpt lat="36.5496633" lon="10.5306733"><ele>68.5</ele><time>2026-04-04T16:26:29.286Z</time></trkpt><trkpt lat="36.5494" lon="10.5307933"><ele>69.0</ele><time>2026-04-04T16:26:30.286Z</time></trkpt><trkpt lat="36.5491367" lon="10.530915"><ele>69.0</ele><time>2026-04-04T16:26:31.285Z</time></trkpt><trkpt lat="36.5488733" lon="10.5310333"><ele>69.0</ele><time>2026-04-04T16:26:32.285Z</time></trkpt><trkpt lat="36.5486117" lon="10.5311533"><ele>68.0</ele><time>2026-04-04T16:26:33.285Z</time></trkpt><trkpt lat="36.5483517" lon="10.5312717"><ele>67.0</ele><time>2026-04-04T16:26:34.282Z</time></trkpt><trkpt lat="36.548095" lon="10.5313883"><ele>66.5</ele><time>2026-04-04T16:26:35.282Z</time></trkpt><trkpt lat="36.5478417" lon="10.5315067"><ele>66.0</ele><time>2026-04-04T16:26:36.283Z</time></trkpt><trkpt lat="36.5475867" lon="10.5316267"><ele>66.0</ele><time>2026-04-04T16:26:37.284Z</time></trkpt><trkpt lat="36.5473317" lon="10.531745"><ele>66.0</ele><time>2026-04-04T16:26:38.282Z</time></trkpt><trkpt lat="36.547075" lon="10.5318633"><ele>65.5</ele><time>2026-04-04T16:26:39.283Z</time></trkpt><trkpt lat="36.5468183" lon="10.531985"><ele>65.0</ele><time>2026-04-04T16:26:40.284Z</time></trkpt><trkpt lat="36.54656" lon="10.532105"><ele>65.0</ele><time>2026-04-04T16:26:41.283Z</time></trkpt><trkpt lat="36.5463" lon="10.532225"><ele>65.0</ele><time>2026-04-04T16:26:42.283Z</time></trkpt><trkpt lat="36.5460417" lon="10.5323433"><ele>66.0</ele><time>2026-04-04T16:26:43.284Z</time></trkpt><trkpt lat="36.545785" lon="10.532465"><ele>67.0</ele><time>2026-04-04T16:26:44.283Z</time></trkpt><trkpt lat="36.5455233" lon="10.5325817"><ele>67.0</ele><time>2026-04-04T16:26:45.288Z</time></trkpt><trkpt lat="36.5452633" lon="10.532705"><ele>67.0</ele><time>2026-04-04T16:26:46.285Z</time></trkpt><trkpt lat="36.5450033" lon="10.5328283"><ele>66.5</ele><time>2026-04-04T16:26:47.285Z</time></trkpt><trkpt lat="36.5447433" lon="10.5329517"><ele>66.0</ele><time>2026-04-04T16:26:48.284Z</time></trkpt><trkpt lat="36.54448" lon="10.53307"><ele>66.0</ele><time>2026-04-04T16:26:49.285Z</time></trkpt><trkpt lat="36.5442217" lon="10.5331933"><ele>66.0</ele><time>2026-04-04T16:26:50.285Z</time></trkpt><trkpt lat="36.5439667" lon="10.533315"><ele>68.0</ele><time>2026-04-04T16:26:51.284Z</time></trkpt><trkpt lat="36.5437133" lon="10.533435"><ele>70.0</ele><time>2026-04-04T16:26:52.284Z</time></trkpt><trkpt lat="36.5434633" lon="10.5335667"><ele>70.0</ele><time>2026-04-04T16:26:53.284Z</time></trkpt><trkpt lat="36.543215" lon="10.5337067"><ele>70.0</ele><time>2026-04-04T16:26:54.286Z</time></trkpt><trkpt lat="36.5429667" lon="10.5338483"><ele>70.5</ele><time>2026-04-04T16:26:55.285Z</time></trkpt><trkpt lat="36.5427183" lon="10.533995"><ele>71.0</ele><time>2026-04-04T16:26:56.284Z</time></trkpt><trkpt lat="36.5424717" lon="10.5341433"><ele>71.0</ele><time>2026-04-04T16:26:57.285Z</time></trkpt><trkpt lat="36.542225" lon="10.5342983"><ele>71.0</ele><time>2026-04-04T16:26:58.285Z</time></trkpt><trkpt lat="36.54198" lon="10.534455"><ele>70.5</ele><time>2026-04-04T16:26:59.286Z</time></trkpt><trkpt lat="36.5417317" lon="10.53462"><ele>70.0</ele><time>2026-04-04T16:27:00.285Z</time></trkpt><trkpt lat="36.5414867" lon="10.5347917"><ele>70.0</ele><time>2026-04-04T16:27:01.284Z</time></trkpt><trkpt lat="36.5412417" lon="10.5349683"><ele>70.0</ele><time>2026-04-04T16:27:02.285Z</time></trkpt><trkpt lat="36.5409917" lon="10.535155"><ele>71.0</ele><time>2026-04-04T16:27:03.283Z</time></trkpt><trkpt lat="36.5407433" lon="10.5353517"><ele>72.0</ele><time>2026-04-04T16:27:04.282Z</time></trkpt><trkpt lat="36.5404933" lon="10.535555"><ele>73.5</ele><time>2026-04-04T16:27:05.282Z</time></trkpt><trkpt lat="36.5402417" lon="10.535765"><ele>75.0</ele><time>2026-04-04T16:27:06.282Z</time></trkpt><trkpt lat="36.5399917" lon="10.5359767"><ele>75.0</ele><time>2026-04-04T16:27:07.282Z</time></trkpt><trkpt lat="36.5397433" lon="10.536195"><ele>75.0</ele><time>2026-04-04T16:27:08.283Z</time></trkpt><trkpt lat="36.5394967" lon="10.53642"><ele>76.0</ele><time>2026-04-04T16:27:09.282Z</time></trkpt><trkpt lat="36.5392517" lon="10.53665"><ele>77.0</ele><time>2026-04-04T16:27:10.284Z</time></trkpt><trkpt lat="36.5390083" lon="10.536885"><ele>76.0</ele><time>2026-04-04T16:27:11.281Z</time></trkpt><trkpt lat="36.5387683" lon="10.537125"><ele>75.0</ele><time>2026-04-04T16:27:12.282Z</time></trkpt><trkpt lat="36.5385317" lon="10.5373683"><ele>77.0</ele><time>2026-04-04T16:27:13.282Z</time></trkpt><trkpt lat="36.5383017" lon="10.5376133"><ele>79.0</ele><time>2026-04-04T16:27:14.281Z</time></trkpt><trkpt lat="36.5380733" lon="10.5378567"><ele>79.5</ele><time>2026-04-04T16:27:15.285Z</time></trkpt><trkpt lat="36.537845" lon="10.5380967"><ele>80.0</ele><time>2026-04-04T16:27:16.284Z</time></trkpt><trkpt lat="36.53762" lon="10.5383367"><ele>80.0</ele><time>2026-04-04T16:27:17.284Z</time></trkpt><trkpt lat="36.5373983" lon="10.53858"><ele>80.0</ele><time>2026-04-04T16:27:18.286Z</time></trkpt><trkpt lat="36.5371733" lon="10.5388183"><ele>81.0</ele><time>2026-04-04T16:27:19.284Z</time></trkpt><trkpt lat="36.5369483" lon="10.5390567"><ele>82.0</ele><time>2026-04-04T16:27:20.284Z</time></trkpt><trkpt lat="36.53672" lon="10.5392917"><ele>82.0</ele><time>2026-04-04T16:27:21.285Z</time></trkpt><trkpt lat="36.5364867" lon="10.5395217"><ele>82.0</ele><time>2026-04-04T16:27:22.286Z</time></trkpt><trkpt lat="36.5362483" lon="10.5397483"><ele>82.0</ele><time>2026-04-04T16:27:23.284Z</time></trkpt><trkpt lat="36.53601" lon="10.5399683"><ele>82.0</ele><time>2026-04-04T16:27:24.284Z</time></trkpt><trkpt lat="36.535765" lon="10.5401883"><ele>82.0</ele><time>2026-04-04T16:27:25.284Z</time></trkpt><trkpt lat="36.5355133" lon="10.54041"><ele>82.0</ele><time>2026-04-04T16:27:26.284Z</time></trkpt><trkpt lat="36.535255" lon="10.540625"><ele>82.0</ele><time>2026-04-04T16:27:27.284Z</time></trkpt><trkpt lat="36.534995" lon="10.5408383"><ele>82.0</ele><time>2026-04-04T16:27:28.284Z</time></trkpt><trkpt lat="36.5347317" lon="10.5410417"><ele>81.0</ele><time>2026-04-04T16:27:29.284Z</time></trkpt><trkpt lat="36.534465" lon="10.5412383"><ele>80.0</ele><time>2026-04-04T16:27:30.284Z</time></trkpt><trkpt lat="36.5342" lon="10.54143"><ele>80.0</ele><time>2026-04-04T16:27:31.285Z</time></trkpt><trkpt lat="36.5339333" lon="10.5416183"><ele>80.0</ele><time>2026-04-04T16:27:32.285Z</time></trkpt><trkpt lat="36.5336667" lon="10.5418017"><ele>80.5</ele><time>2026-04-04T16:27:33.281Z</time></trkpt><trkpt lat="36.5334017" lon="10.541985"><ele>81.0</ele><time>2026-04-04T16:27:34.283Z</time></trkpt><trkpt lat="36.533135" lon="10.5421667"><ele>80.5</ele><time>2026-04-04T16:27:35.282Z</time></trkpt><trkpt lat="36.53287" lon="10.5423467"><ele>80.0</ele><time>2026-04-04T16:27:36.282Z</time></trkpt><trkpt lat="36.5326067" lon="10.542525"><ele>80.0</ele><time>2026-04-04T16:27:37.283Z</time></trkpt><trkpt lat="36.5323433" lon="10.5427067"><ele>80.0</ele><time>2026-04-04T16:27:38.282Z</time></trkpt><trkpt lat="36.5320817" lon="10.54289"><ele>78.0</ele><time>2026-04-04T16:27:39.282Z</time></trkpt><trkpt lat="36.5318217" lon="10.5430733"><ele>76.0</ele><time>2026-04-04T16:27:40.286Z</time></trkpt><trkpt lat="36.531565" lon="10.543255"><ele>76.0</ele><time>2026-04-04T16:27:41.285Z</time></trkpt><trkpt lat="36.5313133" lon="10.5434383"><ele>76.0</ele><time>2026-04-04T16:27:42.285Z</time></trkpt><trkpt lat="36.531065" lon="10.5436233"><ele>77.0</ele><time>2026-04-04T16:27:43.285Z</time></trkpt><trkpt lat="36.5308183" lon="10.5438117"><ele>78.0</ele><time>2026-04-04T16:27:44.285Z</time></trkpt><trkpt lat="36.5305767" lon="10.5439967"><ele>78.5</ele><time>2026-04-04T16:27:45.285Z</time></trkpt><trkpt lat="36.5303383" lon="10.5441833"><ele>79.0</ele><time>2026-04-04T16:27:46.285Z</time></trkpt><trkpt lat="36.5301" lon="10.5443633"><ele>79.0</ele><time>2026-04-04T16:27:47.286Z</time></trkpt><trkpt lat="36.5298617" lon="10.544545"><ele>79.0</ele><time>2026-04-04T16:27:48.285Z</time></trkpt><trkpt lat="36.5296183" lon="10.5447317"><ele>79.0</ele><time>2026-04-04T16:27:49.285Z</time></trkpt><trkpt lat="36.5293667" lon="10.5449217"><ele>79.0</ele><time>2026-04-04T16:27:50.285Z</time></trkpt><trkpt lat="36.52911" lon="10.54512"><ele>79.0</ele><time>2026-04-04T16:27:51.285Z</time></trkpt><trkpt lat="36.5288583" lon="10.5453217"><ele>79.0</ele><time>2026-04-04T16:27:52.285Z</time></trkpt><trkpt lat="36.52861" lon="10.5455217"><ele>78.0</ele><time>2026-04-04T16:27:53.285Z</time></trkpt><trkpt lat="36.5283633" lon="10.5457217"><ele>77.0</ele><time>2026-04-04T16:27:54.285Z</time></trkpt><trkpt lat="36.52812" lon="10.5459217"><ele>77.5</ele><time>2026-04-04T16:27:55.285Z</time></trkpt><trkpt lat="36.52788" lon="10.54612"><ele>78.0</ele><time>2026-04-04T16:27:56.286Z</time></trkpt><trkpt lat="36.52764" lon="10.546315"><ele>76.5</ele><time>2026-04-04T16:27:57.285Z</time></trkpt><trkpt lat="36.5274017" lon="10.54651"><ele>75.0</ele><time>2026-04-04T16:27:58.285Z</time></trkpt><trkpt lat="36.527165" lon="10.5466983"><ele>75.5</ele><time>2026-04-04T16:27:59.285Z</time></trkpt><trkpt lat="36.5269283" lon="10.5468817"><ele>76.0</ele><time>2026-04-04T16:28:00.285Z</time></trkpt><trkpt lat="36.52669" lon="10.5470617"><ele>75.5</ele><time>2026-04-04T16:28:01.286Z</time></trkpt><trkpt lat="36.5264533" lon="10.5472467"><ele>75.0</ele><time>2026-04-04T16:28:02.285Z</time></trkpt><trkpt lat="36.526215" lon="10.5474283"><ele>75.0</ele><time>2026-04-04T16:28:03.282Z</time></trkpt><trkpt lat="36.525975" lon="10.5476083"><ele>75.0</ele><time>2026-04-04T16:28:04.283Z</time></trkpt><trkpt lat="36.5257333" lon="10.547785"><ele>74.5</ele><time>2026-04-04T16:28:05.284Z</time></trkpt><trkpt lat="36.5254917" lon="10.5479633"><ele>74.0</ele><time>2026-04-04T16:28:06.282Z</time></trkpt><trkpt lat="36.5252467" lon="10.5481433"><ele>74.0</ele><time>2026-04-04T16:28:07.283Z</time></trkpt><trkpt lat="36.5249983" lon="10.5483217"><ele>74.0</ele><time>2026-04-04T16:28:08.282Z</time></trkpt><trkpt lat="36.5247483" lon="10.5484967"><ele>73.5</ele><time>2026-04-04T16:28:09.282Z</time></trkpt><trkpt lat="36.5244983" lon="10.5486717"><ele>73.0</ele><time>2026-04-04T16:28:10.285Z</time></trkpt><trkpt lat="36.52425" lon="10.5488467"><ele>71.5</ele><time>2026-04-04T16:28:11.285Z</time></trkpt><trkpt lat="36.5239983" lon="10.549015"><ele>70.0</ele><time>2026-04-04T16:28:12.285Z</time></trkpt><trkpt lat="36.5237483" lon="10.549185"><ele>70.5</ele><time>2026-04-04T16:28:13.285Z</time></trkpt><trkpt lat="36.5234933" lon="10.5493533"><ele>71.0</ele><time>2026-04-04T16:28:14.283Z</time></trkpt><trkpt lat="36.5232367" lon="10.54952"><ele>70.5</ele><time>2026-04-04T16:28:15.282Z</time></trkpt><trkpt lat="36.5229783" lon="10.5496867"><ele>70.0</ele><time>2026-04-04T16:28:16.283Z</time></trkpt><trkpt lat="36.5227183" lon="10.54985"><ele>69.5</ele><time>2026-04-04T16:28:17.282Z</time></trkpt><trkpt lat="36.5224583" lon="10.5500117"><ele>69.0</ele><time>2026-04-04T16:28:18.283Z</time></trkpt><trkpt lat="36.5222" lon="10.5501683"><ele>69.5</ele><time>2026-04-04T16:28:19.282Z</time></trkpt><trkpt lat="36.5219367" lon="10.5503267"><ele>70.0</ele><time>2026-04-04T16:28:20.282Z</time></trkpt><trkpt lat="36.5216733" lon="10.5504817"><ele>70.0</ele><time>2026-04-04T16:28:21.282Z</time></trkpt><trkpt lat="36.5214083" lon="10.550635"><ele>70.0</ele><time>2026-04-04T16:28:22.282Z</time></trkpt><trkpt lat="36.5211483" lon="10.5507833"><ele>71.5</ele><time>2026-04-04T16:28:23.283Z</time></trkpt><trkpt lat="36.5208933" lon="10.5509283"><ele>73.0</ele><time>2026-04-04T16:28:24.282Z</time></trkpt><trkpt lat="36.5206367" lon="10.5510733"><ele>73.5</ele><time>2026-04-04T16:28:25.282Z</time></trkpt><trkpt lat="36.5203783" lon="10.5512167"><ele>74.0</ele><time>2026-04-04T16:28:26.282Z</time></trkpt><trkpt lat="36.5201183" lon="10.5513583"><ele>74.0</ele><time>2026-04-04T16:28:27.285Z</time></trkpt><trkpt lat="36.51986" lon="10.5514967"><ele>74.0</ele><time>2026-04-04T16:28:28.285Z</time></trkpt><trkpt lat="36.5196033" lon="10.55163"><ele>75.0</ele><time>2026-04-04T16:28:29.286Z</time></trkpt><trkpt lat="36.519345" lon="10.5517617"><ele>76.0</ele><time>2026-04-04T16:28:30.287Z</time></trkpt><trkpt lat="36.5190867" lon="10.5518883"><ele>76.0</ele><time>2026-04-04T16:28:31.285Z</time></trkpt><trkpt lat="36.5188283" lon="10.552015"><ele>76.0</ele><time>2026-04-04T16:28:32.285Z</time></trkpt><trkpt lat="36.5185717" lon="10.5521433"><ele>77.0</ele><time>2026-04-04T16:28:33.286Z</time></trkpt><trkpt lat="36.518315" lon="10.5522733"><ele>78.0</ele><time>2026-04-04T16:28:34.285Z</time></trkpt><trkpt lat="36.5180567" lon="10.5523983"><ele>81.0</ele><time>2026-04-04T16:28:35.285Z</time></trkpt><trkpt lat="36.5177983" lon="10.55252"><ele>84.0</ele><time>2026-04-04T16:28:36.286Z</time></trkpt><trkpt lat="36.517535" lon="10.55264"><ele>84.0</ele><time>2026-04-04T16:28:37.286Z</time></trkpt><trkpt lat="36.51727" lon="10.5527633"><ele>84.0</ele><time>2026-04-04T16:28:38.284Z</time></trkpt><trkpt lat="36.517005" lon="10.552885"><ele>85.0</ele><time>2026-04-04T16:28:39.285Z</time></trkpt><trkpt lat="36.5167433" lon="10.5530033"><ele>86.0</ele><time>2026-04-04T16:28:40.285Z</time></trkpt><trkpt lat="36.5164817" lon="10.55312"><ele>87.5</ele><time>2026-04-04T16:28:41.285Z</time></trkpt><trkpt lat="36.5162233" lon="10.553235"><ele>89.0</ele><time>2026-04-04T16:28:42.285Z</time></trkpt><trkpt lat="36.5159667" lon="10.55335"><ele>89.0</ele><time>2026-04-04T16:28:43.285Z</time></trkpt><trkpt lat="36.51571" lon="10.553465"><ele>89.0</ele><time>2026-04-04T16:28:44.281Z</time></trkpt><trkpt lat="36.515455" lon="10.55358"><ele>88.5</ele><time>2026-04-04T16:28:45.282Z</time></trkpt><trkpt lat="36.5152" lon="10.5536917"><ele>88.0</ele><time>2026-04-04T16:28:46.282Z</time></trkpt><trkpt lat="36.514945" lon="10.5538017"><ele>87.0</ele><time>2026-04-04T16:28:47.282Z</time></trkpt><trkpt lat="36.5146883" lon="10.55391"><ele>86.0</ele><time>2026-04-04T16:28:48.282Z</time></trkpt><trkpt lat="36.5144317" lon="10.5540167"><ele>86.0</ele><time>2026-04-04T16:28:49.283Z</time></trkpt><trkpt lat="36.5141783" lon="10.554125"><ele>86.0</ele><time>2026-04-04T16:28:50.282Z</time></trkpt><trkpt lat="36.5139233" lon="10.5542333"><ele>85.0</ele><time>2026-04-04T16:28:51.283Z</time></trkpt><trkpt lat="36.513665" lon="10.5543433"><ele>84.0</ele><time>2026-04-04T16:28:52.282Z</time></trkpt><trkpt lat="36.5134017" lon="10.554455"><ele>84.5</ele><time>2026-04-04T16:28:53.282Z</time></trkpt><trkpt lat="36.5131383" lon="10.5545683"><ele>85.0</ele><time>2026-04-04T16:28:54.285Z</time></trkpt><trkpt lat="36.5128767" lon="10.5546783"><ele>85.0</ele><time>2026-04-04T16:28:55.284Z</time></trkpt><trkpt lat="36.512615" lon="10.5547867"><ele>85.0</ele><time>2026-04-04T16:28:56.285Z</time></trkpt><trkpt lat="36.5123533" lon="10.5548933"><ele>85.0</ele><time>2026-04-04T16:28:57.285Z</time></trkpt><trkpt lat="36.5120917" lon="10.5549983"><ele>85.0</ele><time>2026-04-04T16:28:58.286Z</time></trkpt><trkpt lat="36.5118267" lon="10.5551083"><ele>86.0</ele><time>2026-04-04T16:28:59.284Z</time></trkpt><trkpt lat="36.5115583" lon="10.55522"><ele>87.0</ele><time>2026-04-04T16:29:00.286Z</time></trkpt><trkpt lat="36.5112883" lon="10.555335"><ele>87.0</ele><time>2026-04-04T16:29:01.285Z</time></trkpt><trkpt lat="36.511015" lon="10.5554533"><ele>87.0</ele><time>2026-04-04T16:29:02.285Z</time></trkpt><trkpt lat="36.5107417" lon="10.5555683"><ele>87.0</ele><time>2026-04-04T16:29:03.282Z</time></trkpt><trkpt lat="36.5104633" lon="10.55569"><ele>87.0</ele><time>2026-04-04T16:29:04.285Z</time></trkpt><trkpt lat="36.5101833" lon="10.5558067"><ele>87.5</ele><time>2026-04-04T16:29:05.285Z</time></trkpt><trkpt lat="36.5099017" lon="10.555925"><ele>88.0</ele><time>2026-04-04T16:29:06.286Z</time></trkpt><trkpt lat="36.50962" lon="10.5560417"><ele>87.5</ele><time>2026-04-04T16:29:07.285Z</time></trkpt><trkpt lat="36.509335" lon="10.5561583"><ele>87.0</ele><time>2026-04-04T16:29:08.285Z</time></trkpt><trkpt lat="36.5090483" lon="10.5562767"><ele>87.0</ele><time>2026-04-04T16:29:09.285Z</time></trkpt><trkpt lat="36.5087617" lon="10.5563983"><ele>87.0</ele><time>2026-04-04T16:29:10.285Z</time></trkpt><trkpt lat="36.508475" lon="10.5565217"><ele>87.5</ele><time>2026-04-04T16:29:11.285Z</time></trkpt><trkpt lat="36.50819" lon="10.5566467"><ele>88.0</ele><time>2026-04-04T16:29:12.285Z</time></trkpt><trkpt lat="36.5079067" lon="10.556765"><ele>88.0</ele><time>2026-04-04T16:29:13.286Z</time></trkpt><trkpt lat="36.5076283" lon="10.5568867"><ele>88.0</ele><time>2026-04-04T16:29:14.286Z</time></trkpt><trkpt lat="36.507355" lon="10.55701"><ele>89.0</ele><time>2026-04-04T16:29:15.285Z</time></trkpt><trkpt lat="36.5070867" lon="10.557135"><ele>90.0</ele><time>2026-04-04T16:29:16.285Z</time></trkpt><trkpt lat="36.5068183" lon="10.5572567"><ele>90.0</ele><time>2026-04-04T16:29:17.285Z</time></trkpt><trkpt lat="36.5065533" lon="10.5573783"><ele>90.0</ele><time>2026-04-04T16:29:18.285Z</time></trkpt><trkpt lat="36.50629" lon="10.5575"><ele>89.5</ele><time>2026-04-04T16:29:19.285Z</time></trkpt><trkpt lat="36.5060267" lon="10.5576233"><ele>89.0</ele><time>2026-04-04T16:29:20.285Z</time></trkpt><trkpt lat="36.5057633" lon="10.5577533"><ele>90.5</ele><time>2026-04-04T16:29:21.286Z</time></trkpt><trkpt lat="36.5054933" lon="10.5578867"><ele>92.0</ele><time>2026-04-04T16:29:22.285Z</time></trkpt><trkpt lat="36.5052267" lon="10.55802"><ele>92.0</ele><time>2026-04-04T16:29:23.285Z</time></trkpt><trkpt lat="36.5049583" lon="10.5581583"><ele>92.0</ele><time>2026-04-04T16:29:24.285Z</time></trkpt><trkpt lat="36.5046917" lon="10.5583017"><ele>91.5</ele><time>2026-04-04T16:29:25.285Z</time></trkpt><trkpt lat="36.504425" lon="10.558445"><ele>91.0</ele><time>2026-04-04T16:29:26.285Z</time></trkpt><trkpt lat="36.50416" lon="10.55859"><ele>91.0</ele><time>2026-04-04T16:29:27.285Z</time></trkpt><trkpt lat="36.5038917" lon="10.55874"><ele>91.0</ele><time>2026-04-04T16:29:28.285Z</time></trkpt><trkpt lat="36.5036267" lon="10.5588917"><ele>91.0</ele><time>2026-04-04T16:29:29.285Z</time></trkpt><trkpt lat="36.5033617" lon="10.5590483"><ele>91.0</ele><time>2026-04-04T16:29:30.285Z</time></trkpt><trkpt lat="36.5031" lon="10.5592067"><ele>92.5</ele><time>2026-04-04T16:29:31.285Z</time></trkpt><trkpt lat="36.50284" lon="10.5593683"><ele>94.0</ele><time>2026-04-04T16:29:32.285Z</time></trkpt><trkpt lat="36.5025817" lon="10.5595283"><ele>93.5</ele><time>2026-04-04T16:29:33.285Z</time></trkpt><trkpt lat="36.5023267" lon="10.55969"><ele>93.0</ele><time>2026-04-04T16:29:34.285Z</time></trkpt><trkpt lat="36.5020717" lon="10.55985"><ele>94.0</ele><time>2026-04-04T16:29:35.285Z</time></trkpt><trkpt lat="36.50182" lon="10.5600117"><ele>95.0</ele><time>2026-04-04T16:29:36.285Z</time></trkpt><trkpt lat="36.50157" lon="10.5601733"><ele>95.0</ele><time>2026-04-04T16:29:37.285Z</time></trkpt><trkpt lat="36.5013217" lon="10.56034"><ele>95.0</ele><time>2026-04-04T16:29:38.282Z</time></trkpt><trkpt lat="36.501075" lon="10.5605033"><ele>96.0</ele><time>2026-04-04T16:29:39.286Z</time></trkpt><trkpt lat="36.5008267" lon="10.5606667"><ele>97.0</ele><time>2026-04-04T16:29:40.284Z</time></trkpt><trkpt lat="36.50058" lon="10.56083"><ele>98.0</ele><time>2026-04-04T16:29:41.285Z</time></trkpt><trkpt lat="36.5003333" lon="10.5609933"><ele>99.0</ele><time>2026-04-04T16:29:42.285Z</time></trkpt><trkpt lat="36.500085" lon="10.561155"><ele>99.0</ele><time>2026-04-04T16:29:43.283Z</time></trkpt><trkpt lat="36.4998367" lon="10.5613217"><ele>99.0</ele><time>2026-04-04T16:29:44.285Z</time></trkpt><trkpt lat="36.4995867" lon="10.561485"><ele>101.0</ele><time>2026-04-04T16:29:45.284Z</time></trkpt><trkpt lat="36.4993333" lon="10.5616517"><ele>103.0</ele><time>2026-04-04T16:29:46.285Z</time></trkpt><trkpt lat="36.49908" lon="10.56182"><ele>103.0</ele><time>2026-04-04T16:29:47.284Z</time></trkpt><trkpt lat="36.498825" lon="10.56199"><ele>103.0</ele><time>2026-04-04T16:29:48.285Z</time></trkpt><trkpt lat="36.4985667" lon="10.5621617"><ele>104.5</ele><time>2026-04-04T16:29:49.284Z</time></trkpt><trkpt lat="36.498305" lon="10.5623367"><ele>106.0</ele><time>2026-04-04T16:29:50.284Z</time></trkpt><trkpt lat="36.4980417" lon="10.5625133"><ele>107.0</ele><time>2026-04-04T16:29:51.284Z</time></trkpt><trkpt lat="36.4977783" lon="10.5626883"><ele>108.0</ele><time>2026-04-04T16:29:52.286Z</time></trkpt><trkpt lat="36.4975117" lon="10.562865"><ele>108.0</ele><time>2026-04-04T16:29:53.286Z</time></trkpt><trkpt lat="36.4972467" lon="10.563045"><ele>108.0</ele><time>2026-04-04T16:29:54.286Z</time></trkpt><trkpt lat="36.496985" lon="10.5632167"><ele>108.5</ele><time>2026-04-04T16:29:55.282Z</time></trkpt><trkpt lat="36.49673" lon="10.5633883"><ele>109.0</ele><time>2026-04-04T16:29:56.286Z</time></trkpt><trkpt lat="36.4964783" lon="10.5635567"><ele>109.0</ele><time>2026-04-04T16:29:57.282Z</time></trkpt><trkpt lat="36.49624" lon="10.5637167"><ele>109.0</ele><time>2026-04-04T16:29:58.285Z</time></trkpt><trkpt lat="36.4960067" lon="10.5638683"><ele>109.0</ele><time>2026-04-04T16:29:59.285Z</time></trkpt><trkpt lat="36.4957833" lon="10.5640167"><ele>109.0</ele><time>2026-04-04T16:30:00.286Z</time></trkpt><trkpt lat="36.495565" lon="10.5641633"><ele>108.5</ele><time>2026-04-04T16:30:01.284Z</time></trkpt><trkpt lat="36.49534" lon="10.5643133"><ele>108.0</ele><time>2026-04-04T16:30:02.286Z</time></trkpt><trkpt lat="36.4951117" lon="10.5644617"><ele>107.5</ele><time>2026-04-04T16:30:03.285Z</time></trkpt><trkpt lat="36.49488" lon="10.5646133"><ele>107.0</ele><time>2026-04-04T16:30:04.284Z</time></trkpt><trkpt lat="36.4946433" lon="10.56477"><ele>106.0</ele><time>2026-04-04T16:30:05.286Z</time></trkpt><trkpt lat="36.4944017" lon="10.5649317"><ele>105.0</ele><time>2026-04-04T16:30:06.287Z</time></trkpt><trkpt lat="36.4941533" lon="10.5650983"><ele>105.0</ele><time>2026-04-04T16:30:07.284Z</time></trkpt><trkpt lat="36.4939033" lon="10.5652683"><ele>105.0</ele><time>2026-04-04T16:30:08.285Z</time></trkpt><trkpt lat="36.4936483" lon="10.5654317"><ele>104.0</ele><time>2026-04-04T16:30:09.284Z</time></trkpt><trkpt lat="36.4933883" lon="10.5655983"><ele>103.0</ele><time>2026-04-04T16:30:10.285Z</time></trkpt><trkpt lat="36.493125" lon="10.5657683"><ele>102.5</ele><time>2026-04-04T16:30:11.285Z</time></trkpt><trkpt lat="36.49286" lon="10.5659433"><ele>102.0</ele><time>2026-04-04T16:30:12.286Z</time></trkpt><trkpt lat="36.4925933" lon="10.5661117"><ele>101.0</ele><time>2026-04-04T16:30:13.284Z</time></trkpt><trkpt lat="36.4923233" lon="10.5662817"><ele>100.0</ele><time>2026-04-04T16:30:14.286Z</time></trkpt><trkpt lat="36.49205" lon="10.56645"><ele>100.0</ele><time>2026-04-04T16:30:15.286Z</time></trkpt><trkpt lat="36.4917767" lon="10.56662"><ele>100.0</ele><time>2026-04-04T16:30:16.285Z</time></trkpt><trkpt lat="36.4915017" lon="10.56679"><ele>99.5</ele><time>2026-04-04T16:30:17.285Z</time></trkpt><trkpt lat="36.491225" lon="10.56696"><ele>99.0</ele><time>2026-04-04T16:30:18.285Z</time></trkpt><trkpt lat="36.4909467" lon="10.5671267"><ele>98.5</ele><time>2026-04-04T16:30:19.285Z</time></trkpt><trkpt lat="36.4906667" lon="10.56729"><ele>98.0</ele><time>2026-04-04T16:30:20.285Z</time></trkpt><trkpt lat="36.4903817" lon="10.5674467"><ele>97.5</ele><time>2026-04-04T16:30:21.285Z</time></trkpt><trkpt lat="36.4900967" lon="10.5676017"><ele>97.0</ele><time>2026-04-04T16:30:22.286Z</time></trkpt><trkpt lat="36.4898117" lon="10.56775"><ele>96.5</ele><time>2026-04-04T16:30:23.285Z</time></trkpt><trkpt lat="36.4895283" lon="10.5678967"><ele>96.0</ele><time>2026-04-04T16:30:24.285Z</time></trkpt><trkpt lat="36.4892417" lon="10.5680433"><ele>96.0</ele><time>2026-04-04T16:30:25.285Z</time></trkpt><trkpt lat="36.488955" lon="10.5681867"><ele>96.0</ele><time>2026-04-04T16:30:26.285Z</time></trkpt><trkpt lat="36.48867" lon="10.56832"><ele>96.0</ele><time>2026-04-04T16:30:27.285Z</time></trkpt><trkpt lat="36.4883833" lon="10.5684467"><ele>96.0</ele><time>2026-04-04T16:30:28.285Z</time></trkpt><trkpt lat="36.4881017" lon="10.568565"><ele>96.0</ele><time>2026-04-04T16:30:29.285Z</time></trkpt><trkpt lat="36.4878217" lon="10.5686833"><ele>96.0</ele><time>2026-04-04T16:30:30.286Z</time></trkpt><trkpt lat="36.4875467" lon="10.5687917"><ele>95.5</ele><time>2026-04-04T16:30:31.285Z</time></trkpt><trkpt lat="36.4872733" lon="10.568895"><ele>95.0</ele><time>2026-04-04T16:30:32.285Z</time></trkpt><trkpt lat="36.4869983" lon="10.5689967"><ele>95.0</ele><time>2026-04-04T16:30:33.286Z</time></trkpt><trkpt lat="36.4867183" lon="10.5690983"><ele>95.0</ele><time>2026-04-04T16:30:34.285Z</time></trkpt><trkpt lat="36.4864367" lon="10.5691967"><ele>95.5</ele><time>2026-04-04T16:30:35.285Z</time></trkpt><trkpt lat="36.4861517" lon="10.5692883"><ele>96.0</ele><time>2026-04-04T16:30:36.283Z</time></trkpt><trkpt lat="36.485865" lon="10.569375"><ele>96.0</ele><time>2026-04-04T16:30:37.286Z</time></trkpt><trkpt lat="36.4855783" lon="10.56946"><ele>96.0</ele><time>2026-04-04T16:30:38.285Z</time></trkpt><trkpt lat="36.4852933" lon="10.56954"><ele>95.0</ele><time>2026-04-04T16:30:39.285Z</time></trkpt><trkpt lat="36.4850117" lon="10.5696133"><ele>94.0</ele><time>2026-04-04T16:30:40.286Z</time></trkpt><trkpt lat="36.484735" lon="10.5696833"><ele>94.5</ele><time>2026-04-04T16:30:41.286Z</time></trkpt><trkpt lat="36.4844583" lon="10.5697483"><ele>95.0</ele><time>2026-04-04T16:30:42.285Z</time></trkpt><trkpt lat="36.4841767" lon="10.5698117"><ele>95.0</ele><time>2026-04-04T16:30:43.285Z</time></trkpt><trkpt lat="36.4838967" lon="10.5698717"><ele>95.0</ele><time>2026-04-04T16:30:44.285Z</time></trkpt><trkpt lat="36.4836183" lon="10.5699267"><ele>95.5</ele><time>2026-04-04T16:30:45.285Z</time></trkpt><trkpt lat="36.4833383" lon="10.5699783"><ele>96.0</ele><time>2026-04-04T16:30:46.285Z</time></trkpt><trkpt lat="36.4830583" lon="10.57003"><ele>95.5</ele><time>2026-04-04T16:30:47.285Z</time></trkpt><trkpt lat="36.4827767" lon="10.5700767"><ele>95.0</ele><time>2026-04-04T16:30:48.285Z</time></trkpt><trkpt lat="36.4824933" lon="10.57012"><ele>95.0</ele><time>2026-04-04T16:30:49.285Z</time></trkpt><trkpt lat="36.4822083" lon="10.5701617"><ele>95.0</ele><time>2026-04-04T16:30:50.285Z</time></trkpt><trkpt lat="36.4819233" lon="10.5701967"><ele>95.0</ele><time>2026-04-04T16:30:51.285Z</time></trkpt><trkpt lat="36.4816383" lon="10.57023"><ele>95.0</ele><time>2026-04-04T16:30:52.286Z</time></trkpt><trkpt lat="36.48135" lon="10.5702583"><ele>95.0</ele><time>2026-04-04T16:30:53.285Z</time></trkpt><trkpt lat="36.4810583" lon="10.5702833"><ele>95.0</ele><time>2026-04-04T16:30:54.286Z</time></trkpt><trkpt lat="36.4807683" lon="10.5703017"><ele>95.0</ele><time>2026-04-04T16:30:55.286Z</time></trkpt><trkpt lat="36.4804783" lon="10.5703167"><ele>95.0</ele><time>2026-04-04T16:30:56.285Z</time></trkpt><trkpt lat="36.4801883" lon="10.5703267"><ele>91.5</ele><time>2026-04-04T16:30:57.285Z</time></trkpt><trkpt lat="36.4798983" lon="10.5703333"><ele>88.0</ele><time>2026-04-04T16:30:58.285Z</time></trkpt><trkpt lat="36.479605" lon="10.5703367"><ele>87.5</ele><time>2026-04-04T16:30:59.285Z</time></trkpt><trkpt lat="36.4793117" lon="10.5703367"><ele>87.0</ele><time>2026-04-04T16:31:00.285Z</time></trkpt><trkpt lat="36.4790183" lon="10.5703333"><ele>88.5</ele><time>2026-04-04T16:31:01.286Z</time></trkpt><trkpt lat="36.4787267" lon="10.5703267"><ele>90.0</ele><time>2026-04-04T16:31:02.285Z</time></trkpt><trkpt lat="36.4784367" lon="10.570315"><ele>90.0</ele><time>2026-04-04T16:31:03.286Z</time></trkpt><trkpt lat="36.4781467" lon="10.5702967"><ele>90.0</ele><time>2026-04-04T16:31:04.285Z</time></trkpt><trkpt lat="36.4778567" lon="10.5702767"><ele>90.0</ele><time>2026-04-04T16:31:05.285Z</time></trkpt><trkpt lat="36.4775667" lon="10.5702533"><ele>90.0</ele><time>2026-04-04T16:31:06.285Z</time></trkpt><trkpt lat="36.4772783" lon="10.5702283"><ele>88.5</ele><time>2026-04-04T16:31:07.285Z</time></trkpt><trkpt lat="36.4769917" lon="10.5701983"><ele>87.0</ele><time>2026-04-04T16:31:08.286Z</time></trkpt><trkpt lat="36.476705" lon="10.570165"><ele>87.0</ele><time>2026-04-04T16:31:09.285Z</time></trkpt><trkpt lat="36.4764233" lon="10.5701267"><ele>87.0</ele><time>2026-04-04T16:31:10.285Z</time></trkpt><trkpt lat="36.47614" lon="10.570085"><ele>86.5</ele><time>2026-04-04T16:31:11.286Z</time></trkpt><trkpt lat="36.47586" lon="10.5700417"><ele>86.0</ele><time>2026-04-04T16:31:12.286Z</time></trkpt><trkpt lat="36.4755783" lon="10.569995"><ele>84.5</ele><time>2026-04-04T16:31:13.285Z</time></trkpt><trkpt lat="36.4752933" lon="10.5699417"><ele>83.0</ele><time>2026-04-04T16:31:14.285Z</time></trkpt><trkpt lat="36.4750033" lon="10.5698817"><ele>83.0</ele><time>2026-04-04T16:31:15.285Z</time></trkpt><trkpt lat="36.4747133" lon="10.5698183"><ele>83.0</ele><time>2026-04-04T16:31:16.285Z</time></trkpt><trkpt lat="36.4744217" lon="10.56975"><ele>81.0</ele><time>2026-04-04T16:31:17.285Z</time></trkpt><trkpt lat="36.4741283" lon="10.56968"><ele>79.0</ele><time>2026-04-04T16:31:18.285Z</time></trkpt><trkpt lat="36.4738383" lon="10.5696083"><ele>78.5</ele><time>2026-04-04T16:31:19.286Z</time></trkpt><trkpt lat="36.4735483" lon="10.5695333"><ele>78.0</ele><time>2026-04-04T16:31:20.285Z</time></trkpt><trkpt lat="36.47326" lon="10.5694567"><ele>77.0</ele><time>2026-04-04T16:31:21.286Z</time></trkpt><trkpt lat="36.4729683" lon="10.569375"><ele>76.0</ele><time>2026-04-04T16:31:22.285Z</time></trkpt><trkpt lat="36.47268" lon="10.569285"><ele>75.5</ele><time>2026-04-04T16:31:23.285Z</time></trkpt><trkpt lat="36.4723917" lon="10.5691917"><ele>75.0</ele><time>2026-04-04T16:31:24.287Z</time></trkpt><trkpt lat="36.4721067" lon="10.5690967"><ele>74.0</ele><time>2026-04-04T16:31:25.286Z</time></trkpt><trkpt lat="36.4718233" lon="10.5689983"><ele>73.0</ele><time>2026-04-04T16:31:26.287Z</time></trkpt><trkpt lat="36.471545" lon="10.5689033"><ele>73.0</ele><time>2026-04-04T16:31:27.285Z</time></trkpt><trkpt lat="36.47127" lon="10.56881"><ele>73.0</ele><time>2026-04-04T16:31:28.286Z</time></trkpt><trkpt lat="36.4709983" lon="10.5687167"><ele>73.0</ele><time>2026-04-04T16:31:29.285Z</time></trkpt><trkpt lat="36.4707267" lon="10.568625"><ele>73.0</ele><time>2026-04-04T16:31:30.285Z</time></trkpt><trkpt lat="36.4704567" lon="10.5685333"><ele>72.5</ele><time>2026-04-04T16:31:31.285Z</time></trkpt><trkpt lat="36.470185" lon="10.5684433"><ele>72.0</ele><time>2026-04-04T16:31:32.285Z</time></trkpt><trkpt lat="36.4699133" lon="10.56835"><ele>72.0</ele><time>2026-04-04T16:31:33.286Z</time></trkpt><trkpt lat="36.46964" lon="10.5682567"><ele>72.0</ele><time>2026-04-04T16:31:34.285Z</time></trkpt><trkpt lat="36.469365" lon="10.5681633"><ele>72.0</ele><time>2026-04-04T16:31:35.285Z</time></trkpt><trkpt lat="36.4690867" lon="10.5680717"><ele>72.0</ele><time>2026-04-04T16:31:36.286Z</time></trkpt><trkpt lat="36.468805" lon="10.567985"><ele>71.5</ele><time>2026-04-04T16:31:37.282Z</time></trkpt><trkpt lat="36.4685233" lon="10.5679017"><ele>71.0</ele><time>2026-04-04T16:31:38.285Z</time></trkpt><trkpt lat="36.4682417" lon="10.5678233"><ele>72.5</ele><time>2026-04-04T16:31:39.285Z</time></trkpt><trkpt lat="36.4679583" lon="10.5677533"><ele>74.0</ele><time>2026-04-04T16:31:40.286Z</time></trkpt><trkpt lat="36.46767" lon="10.5676883"><ele>74.0</ele><time>2026-04-04T16:31:41.285Z</time></trkpt><trkpt lat="36.4673783" lon="10.5676267"><ele>74.0</ele><time>2026-04-04T16:31:42.285Z</time></trkpt><trkpt lat="36.467085" lon="10.5675683"><ele>72.5</ele><time>2026-04-04T16:31:43.286Z</time></trkpt><trkpt lat="36.4667933" lon="10.5675133"><ele>71.0</ele><time>2026-04-04T16:31:44.286Z</time></trkpt><trkpt lat="36.4665067" lon="10.567465"><ele>70.0</ele><time>2026-04-04T16:31:45.286Z</time></trkpt><trkpt lat="36.466225" lon="10.5674233"><ele>69.0</ele><time>2026-04-04T16:31:46.286Z</time></trkpt><trkpt lat="36.4659383" lon="10.567385"><ele>69.0</ele><time>2026-04-04T16:31:47.285Z</time></trkpt><trkpt lat="36.4656517" lon="10.5673533"><ele>69.0</ele><time>2026-04-04T16:31:48.286Z</time></trkpt><trkpt lat="36.4653633" lon="10.56733"><ele>68.0</ele><time>2026-04-04T16:31:49.285Z</time></trkpt><trkpt lat="36.4650783" lon="10.567315"><ele>67.0</ele><time>2026-04-04T16:31:50.285Z</time></trkpt><trkpt lat="36.464795" lon="10.56731"><ele>66.5</ele><time>2026-04-04T16:31:51.286Z</time></trkpt><trkpt lat="36.46451" lon="10.56731"><ele>66.0</ele><time>2026-04-04T16:31:52.285Z</time></trkpt><trkpt lat="36.4642217" lon="10.56731"><ele>66.0</ele><time>2026-04-04T16:31:53.286Z</time></trkpt><trkpt lat="36.463925" lon="10.567315"><ele>66.0</ele><time>2026-04-04T16:31:54.285Z</time></trkpt><trkpt lat="36.4636283" lon="10.5673217"><ele>65.5</ele><time>2026-04-04T16:31:55.285Z</time></trkpt><trkpt lat="36.46333" lon="10.567335"><ele>65.0</ele><time>2026-04-04T16:31:56.286Z</time></trkpt><trkpt lat="36.463035" lon="10.5673483"><ele>66.0</ele><time>2026-04-04T16:31:57.286Z</time></trkpt><trkpt lat="36.462745" lon="10.56736"><ele>67.0</ele><time>2026-04-04T16:31:58.285Z</time></trkpt><trkpt lat="36.4624583" lon="10.56737"><ele>67.0</ele><time>2026-04-04T16:31:59.285Z</time></trkpt><trkpt lat="36.4621717" lon="10.5673783"><ele>67.0</ele><time>2026-04-04T16:32:00.285Z</time></trkpt><trkpt lat="36.461885" lon="10.5673883"><ele>66.5</ele><time>2026-04-04T16:32:01.285Z</time></trkpt><trkpt lat="36.4615967" lon="10.5673933"><ele>66.0</ele><time>2026-04-04T16:32:02.285Z</time></trkpt><trkpt lat="36.4613117" lon="10.567395"><ele>68.0</ele><time>2026-04-04T16:32:03.282Z</time></trkpt><trkpt lat="36.4610283" lon="10.5673917"><ele>70.0</ele><time>2026-04-04T16:32:04.282Z</time></trkpt><trkpt lat="36.4607467" lon="10.567385"><ele>70.0</ele><time>2026-04-04T16:32:05.283Z</time></trkpt><trkpt lat="36.4604667" lon="10.5673733"><ele>70.0</ele><time>2026-04-04T16:32:06.283Z</time></trkpt><trkpt lat="36.460185" lon="10.5673583"><ele>70.0</ele><time>2026-04-04T16:32:07.283Z</time></trkpt><trkpt lat="36.4599017" lon="10.56734"><ele>70.0</ele><time>2026-04-04T16:32:08.282Z</time></trkpt><trkpt lat="36.4596133" lon="10.5673133"><ele>69.5</ele><time>2026-04-04T16:32:09.283Z</time></trkpt><trkpt lat="36.4593217" lon="10.567285"><ele>69.0</ele><time>2026-04-04T16:32:10.285Z</time></trkpt><trkpt lat="36.45903" lon="10.5672467"><ele>69.5</ele><time>2026-04-04T16:32:11.286Z</time></trkpt><trkpt lat="36.4587333" lon="10.5672"><ele>70.0</ele><time>2026-04-04T16:32:12.286Z</time></trkpt><trkpt lat="36.4584367" lon="10.5671483"><ele>70.0</ele><time>2026-04-04T16:32:13.284Z</time></trkpt><trkpt lat="36.4581383" lon="10.5670883"><ele>70.0</ele><time>2026-04-04T16:32:14.284Z</time></trkpt><trkpt lat="36.457845" lon="10.5670267"><ele>72.0</ele><time>2026-04-04T16:32:15.284Z</time></trkpt><trkpt lat="36.4575517" lon="10.5669567"><ele>74.0</ele><time>2026-04-04T16:32:16.285Z</time></trkpt><trkpt lat="36.45726" lon="10.5668817"><ele>72.0</ele><time>2026-04-04T16:32:17.285Z</time></trkpt><trkpt lat="36.4569717" lon="10.5668017"><ele>70.0</ele><time>2026-04-04T16:32:18.285Z</time></trkpt><trkpt lat="36.4566867" lon="10.566715"><ele>70.0</ele><time>2026-04-04T16:32:19.284Z</time></trkpt><trkpt lat="36.4564067" lon="10.56663"><ele>70.0</ele><time>2026-04-04T16:32:20.284Z</time></trkpt><trkpt lat="36.456125" lon="10.5665417"><ele>69.0</ele><time>2026-04-04T16:32:21.285Z</time></trkpt><trkpt lat="36.4558417" lon="10.5664517"><ele>68.0</ele><time>2026-04-04T16:32:22.285Z</time></trkpt><trkpt lat="36.4555567" lon="10.56636"><ele>68.5</ele><time>2026-04-04T16:32:23.285Z</time></trkpt><trkpt lat="36.45527" lon="10.566265"><ele>69.0</ele><time>2026-04-04T16:32:24.284Z</time></trkpt><trkpt lat="36.4549817" lon="10.5661717"><ele>68.0</ele><time>2026-04-04T16:32:25.286Z</time></trkpt><trkpt lat="36.4546967" lon="10.56608"><ele>67.0</ele><time>2026-04-04T16:32:26.285Z</time></trkpt><trkpt lat="36.45442" lon="10.5659883"><ele>66.5</ele><time>2026-04-04T16:32:27.287Z</time></trkpt><trkpt lat="36.4541467" lon="10.5659033"><ele>66.0</ele><time>2026-04-04T16:32:28.284Z</time></trkpt><trkpt lat="36.453875" lon="10.5658217"><ele>65.5</ele><time>2026-04-04T16:32:29.281Z</time></trkpt><trkpt lat="36.4536033" lon="10.56574"><ele>65.0</ele><time>2026-04-04T16:32:30.282Z</time></trkpt><trkpt lat="36.453335" lon="10.56566"><ele>65.0</ele><time>2026-04-04T16:32:31.282Z</time></trkpt><trkpt lat="36.45307" lon="10.56559"><ele>65.0</ele><time>2026-04-04T16:32:32.281Z</time></trkpt><trkpt lat="36.4528033" lon="10.5655217"><ele>64.0</ele><time>2026-04-04T16:32:33.282Z</time></trkpt><trkpt lat="36.4525333" lon="10.5654583"><ele>63.0</ele><time>2026-04-04T16:32:34.282Z</time></trkpt><trkpt lat="36.4522583" lon="10.5654017"><ele>64.5</ele><time>2026-04-04T16:32:35.282Z</time></trkpt><trkpt lat="36.4519767" lon="10.565355"><ele>66.0</ele><time>2026-04-04T16:32:36.282Z</time></trkpt><trkpt lat="36.4516883" lon="10.5653133"><ele>66.0</ele><time>2026-04-04T16:32:37.283Z</time></trkpt><trkpt lat="36.4513967" lon="10.56528"><ele>66.0</ele><time>2026-04-04T16:32:38.281Z</time></trkpt><trkpt lat="36.4511033" lon="10.565255"><ele>67.0</ele><time>2026-04-04T16:32:39.282Z</time></trkpt><trkpt lat="36.45081" lon="10.56524"><ele>68.0</ele><time>2026-04-04T16:32:40.283Z</time></trkpt><trkpt lat="36.4505167" lon="10.5652333"><ele>68.5</ele><time>2026-04-04T16:32:41.282Z</time></trkpt><trkpt lat="36.4502183" lon="10.56524"><ele>69.0</ele><time>2026-04-04T16:32:42.282Z</time></trkpt><trkpt lat="36.4499217" lon="10.5652533"><ele>69.0</ele><time>2026-04-04T16:32:43.283Z</time></trkpt><trkpt lat="36.449625" lon="10.565275"><ele>69.0</ele><time>2026-04-04T16:32:44.285Z</time></trkpt><trkpt lat="36.4493283" lon="10.5653067"><ele>69.0</ele><time>2026-04-04T16:32:45.281Z</time></trkpt><trkpt lat="36.449035" lon="10.5653467"><ele>69.0</ele><time>2026-04-04T16:32:46.284Z</time></trkpt><trkpt lat="36.4487367" lon="10.56539"><ele>67.5</ele><time>2026-04-04T16:32:47.284Z</time></trkpt><trkpt lat="36.4484433" lon="10.5654333"><ele>66.0</ele><time>2026-04-04T16:32:48.281Z</time></trkpt><trkpt lat="36.4481467" lon="10.5654833"><ele>64.5</ele><time>2026-04-04T16:32:49.284Z</time></trkpt><trkpt lat="36.44785" lon="10.5655383"><ele>63.0</ele><time>2026-04-04T16:32:50.284Z</time></trkpt><trkpt lat="36.4475517" lon="10.5656"><ele>63.0</ele><time>2026-04-04T16:32:51.285Z</time></trkpt><trkpt lat="36.4472533" lon="10.565655"><ele>63.0</ele><time>2026-04-04T16:32:52.285Z</time></trkpt><trkpt lat="36.4469583" lon="10.5657017"><ele>61.5</ele><time>2026-04-04T16:32:53.284Z</time></trkpt><trkpt lat="36.4466617" lon="10.5657483"><ele>60.0</ele><time>2026-04-04T16:32:54.286Z</time></trkpt><trkpt lat="36.4463717" lon="10.5657933"><ele>58.5</ele><time>2026-04-04T16:32:55.284Z</time></trkpt><trkpt lat="36.4460867" lon="10.56583"><ele>57.0</ele><time>2026-04-04T16:32:56.284Z</time></trkpt><trkpt lat="36.4458033" lon="10.5658533"><ele>57.0</ele><time>2026-04-04T16:32:57.284Z</time></trkpt><trkpt lat="36.445525" lon="10.5658633"><ele>57.0</ele><time>2026-04-04T16:32:58.286Z</time></trkpt><trkpt lat="36.4452483" lon="10.5658633"><ele>58.0</ele><time>2026-04-04T16:32:59.286Z</time></trkpt><trkpt lat="36.44497" lon="10.56586"><ele>59.0</ele><time>2026-04-04T16:33:00.285Z</time></trkpt><trkpt lat="36.444695" lon="10.565845"><ele>59.5</ele><time>2026-04-04T16:33:01.286Z</time></trkpt><trkpt lat="36.4444183" lon="10.5658217"><ele>60.0</ele><time>2026-04-04T16:33:02.285Z</time></trkpt><trkpt lat="36.44414" lon="10.56579"><ele>60.0</ele><time>2026-04-04T16:33:03.282Z</time></trkpt><trkpt lat="36.4438617" lon="10.5657533"><ele>60.0</ele><time>2026-04-04T16:33:04.282Z</time></trkpt><trkpt lat="36.4435817" lon="10.5657083"><ele>58.0</ele><time>2026-04-04T16:33:05.282Z</time></trkpt><trkpt lat="36.4433067" lon="10.565655"><ele>56.0</ele><time>2026-04-04T16:33:06.282Z</time></trkpt><trkpt lat="36.4430333" lon="10.565595"><ele>54.0</ele><time>2026-04-04T16:33:07.282Z</time></trkpt><trkpt lat="36.44276" lon="10.565525"><ele>52.0</ele><time>2026-04-04T16:33:08.281Z</time></trkpt><trkpt lat="36.4424867" lon="10.5654483"><ele>54.5</ele><time>2026-04-04T16:33:09.282Z</time></trkpt><trkpt lat="36.442215" lon="10.56536"><ele>57.0</ele><time>2026-04-04T16:33:10.286Z</time></trkpt><trkpt lat="36.4419417" lon="10.565265"><ele>57.0</ele><time>2026-04-04T16:33:11.285Z</time></trkpt><trkpt lat="36.4416683" lon="10.5651617"><ele>57.0</ele><time>2026-04-04T16:33:12.286Z</time></trkpt><trkpt lat="36.441395" lon="10.56505"><ele>57.0</ele><time>2026-04-04T16:33:13.284Z</time></trkpt><trkpt lat="36.4411233" lon="10.5649267"><ele>57.0</ele><time>2026-04-04T16:33:14.285Z</time></trkpt><trkpt lat="36.440855" lon="10.564795"><ele>57.0</ele><time>2026-04-04T16:33:15.285Z</time></trkpt><trkpt lat="36.4405867" lon="10.564655"><ele>57.0</ele><time>2026-04-04T16:33:16.285Z</time></trkpt><trkpt lat="36.4403217" lon="10.5645033"><ele>55.5</ele><time>2026-04-04T16:33:17.284Z</time></trkpt><trkpt lat="36.4400567" lon="10.56435"><ele>54.0</ele><time>2026-04-04T16:33:18.286Z</time></trkpt><trkpt lat="36.4397967" lon="10.5641917"><ele>51.5</ele><time>2026-04-04T16:33:19.284Z</time></trkpt><trkpt lat="36.4395367" lon="10.56402"><ele>49.0</ele><time>2026-04-04T16:33:20.284Z</time></trkpt><trkpt lat="36.4392817" lon="10.5638367"><ele>49.0</ele><time>2026-04-04T16:33:21.285Z</time></trkpt><trkpt lat="36.4390333" lon="10.56365"><ele>49.0</ele><time>2026-04-04T16:33:22.284Z</time></trkpt><trkpt lat="36.4387933" lon="10.5634583"><ele>46.5</ele><time>2026-04-04T16:33:23.284Z</time></trkpt><trkpt lat="36.4385617" lon="10.5632617"><ele>44.0</ele><time>2026-04-04T16:33:24.284Z</time></trkpt><trkpt lat="36.43834" lon="10.563065"><ele>43.5</ele><time>2026-04-04T16:33:25.284Z</time></trkpt><trkpt lat="36.4381183" lon="10.5628633"><ele>43.0</ele><time>2026-04-04T16:33:26.284Z</time></trkpt><trkpt lat="36.4379033" lon="10.5626567"><ele>41.0</ele><time>2026-04-04T16:33:27.285Z</time></trkpt><trkpt lat="36.4377" lon="10.5624517"><ele>39.0</ele><time>2026-04-04T16:33:28.285Z</time></trkpt><trkpt lat="36.4374983" lon="10.5622483"><ele>39.0</ele><time>2026-04-04T16:33:29.285Z</time></trkpt><trkpt lat="36.4373067" lon="10.5620467"><ele>39.0</ele><time>2026-04-04T16:33:30.284Z</time></trkpt><trkpt lat="36.43712" lon="10.56185"><ele>36.5</ele><time>2026-04-04T16:33:31.284Z</time></trkpt><trkpt lat="36.4369383" lon="10.5616533"><ele>34.0</ele><time>2026-04-04T16:33:32.285Z</time></trkpt><trkpt lat="36.4367567" lon="10.561455"><ele>34.0</ele><time>2026-04-04T16:33:33.282Z</time></trkpt><trkpt lat="36.43657" lon="10.561255"><ele>34.0</ele><time>2026-04-04T16:33:34.282Z</time></trkpt><trkpt lat="36.436385" lon="10.5610533"><ele>33.0</ele><time>2026-04-04T16:33:35.282Z</time></trkpt><trkpt lat="36.4361933" lon="10.5608467"><ele>32.0</ele><time>2026-04-04T16:33:36.282Z</time></trkpt><trkpt lat="36.4359983" lon="10.5606317"><ele>32.0</ele><time>2026-04-04T16:33:37.283Z</time></trkpt><trkpt lat="36.4358033" lon="10.5604133"><ele>32.0</ele><time>2026-04-04T16:33:38.281Z</time></trkpt><trkpt lat="36.435605" lon="10.5601933"><ele>30.0</ele><time>2026-04-04T16:33:39.282Z</time></trkpt><trkpt lat="36.4354017" lon="10.55997"><ele>28.0</ele><time>2026-04-04T16:33:40.285Z</time></trkpt><trkpt lat="36.435195" lon="10.5597467"><ele>28.0</ele><time>2026-04-04T16:33:41.285Z</time></trkpt><trkpt lat="36.4349867" lon="10.5595233"><ele>28.0</ele><time>2026-04-04T16:33:42.285Z</time></trkpt><trkpt lat="36.4347817" lon="10.5592983"><ele>27.5</ele><time>2026-04-04T16:33:43.284Z</time></trkpt><trkpt lat="36.4345817" lon="10.55908"><ele>27.0</ele><time>2026-04-04T16:33:44.284Z</time></trkpt><trkpt lat="36.4343817" lon="10.558865"><ele>27.0</ele><time>2026-04-04T16:33:45.285Z</time></trkpt><trkpt lat="36.4341867" lon="10.558655"><ele>27.0</ele><time>2026-04-04T16:33:46.286Z</time></trkpt><trkpt lat="36.433995" lon="10.558445"><ele>28.5</ele><time>2026-04-04T16:33:47.285Z</time></trkpt><trkpt lat="36.4338017" lon="10.5582333"><ele>30.0</ele><time>2026-04-04T16:33:48.285Z</time></trkpt><trkpt lat="36.4336067" lon="10.5580183"><ele>30.5</ele><time>2026-04-04T16:33:49.284Z</time></trkpt><trkpt lat="36.4334117" lon="10.5578067"><ele>31.0</ele><time>2026-04-04T16:33:50.284Z</time></trkpt><trkpt lat="36.4332183" lon="10.5576"><ele>31.0</ele><time>2026-04-04T16:33:51.285Z</time></trkpt><trkpt lat="36.4330267" lon="10.557395"><ele>31.0</ele><time>2026-04-04T16:33:52.284Z</time></trkpt><trkpt lat="36.43284" lon="10.5571933"><ele>32.0</ele><time>2026-04-04T16:33:53.285Z</time></trkpt><trkpt lat="36.4326533" lon="10.5569917"><ele>33.0</ele><time>2026-04-04T16:33:54.285Z</time></trkpt><trkpt lat="36.4324667" lon="10.5567917"><ele>33.0</ele><time>2026-04-04T16:33:55.287Z</time></trkpt><trkpt lat="36.4322783" lon="10.5565883"><ele>33.0</ele><time>2026-04-04T16:33:56.285Z</time></trkpt><trkpt lat="36.43209" lon="10.5563867"><ele>36.0</ele><time>2026-04-04T16:33:57.284Z</time></trkpt><trkpt lat="36.4318967" lon="10.5561867"><ele>39.0</ele><time>2026-04-04T16:33:58.284Z</time></trkpt><trkpt lat="36.4317033" lon="10.55599"><ele>39.0</ele><time>2026-04-04T16:33:59.285Z</time></trkpt><trkpt lat="36.4315033" lon="10.55579"><ele>39.0</ele><time>2026-04-04T16:34:00.286Z</time></trkpt><trkpt lat="36.4312967" lon="10.55559"><ele>41.5</ele><time>2026-04-04T16:34:01.283Z</time></trkpt><trkpt lat="36.4310867" lon="10.5553967"><ele>44.0</ele><time>2026-04-04T16:34:02.284Z</time></trkpt><trkpt lat="36.4308717" lon="10.5552133"><ele>44.0</ele><time>2026-04-04T16:34:03.285Z</time></trkpt><trkpt lat="36.4306483" lon="10.5550383"><ele>44.0</ele><time>2026-04-04T16:34:04.284Z</time></trkpt><trkpt lat="36.4304233" lon="10.5548683"><ele>46.0</ele><time>2026-04-04T16:34:05.286Z</time></trkpt><trkpt lat="36.430195" lon="10.5546983"><ele>48.0</ele><time>2026-04-04T16:34:06.285Z</time></trkpt><trkpt lat="36.4299583" lon="10.5545333"><ele>48.0</ele><time>2026-04-04T16:34:07.286Z</time></trkpt><trkpt lat="36.4297117" lon="10.5543767"><ele>48.0</ele><time>2026-04-04T16:34:08.285Z</time></trkpt><trkpt lat="36.4294617" lon="10.5542317"><ele>48.5</ele><time>2026-04-04T16:34:09.285Z</time></trkpt><trkpt lat="36.4292117" lon="10.5540967"><ele>49.0</ele><time>2026-04-04T16:34:10.285Z</time></trkpt><trkpt lat="36.4289617" lon="10.5539733"><ele>49.0</ele><time>2026-04-04T16:34:11.286Z</time></trkpt><trkpt lat="36.4287117" lon="10.5538617"><ele>49.0</ele><time>2026-04-04T16:34:12.283Z</time></trkpt><trkpt lat="36.42846" lon="10.5537583"><ele>49.0</ele><time>2026-04-04T16:34:13.281Z</time></trkpt><trkpt lat="36.428205" lon="10.5536667"><ele>49.0</ele><time>2026-04-04T16:34:14.281Z</time></trkpt><trkpt lat="36.4279483" lon="10.5535817"><ele>46.5</ele><time>2026-04-04T16:34:15.284Z</time></trkpt><trkpt lat="36.427685" lon="10.5535083"><ele>44.0</ele><time>2026-04-04T16:34:16.284Z</time></trkpt><trkpt lat="36.42742" lon="10.55344"><ele>44.0</ele><time>2026-04-04T16:34:17.284Z</time></trkpt><trkpt lat="36.427145" lon="10.5533767"><ele>44.0</ele><time>2026-04-04T16:34:18.286Z</time></trkpt><trkpt lat="36.4268667" lon="10.5533233"><ele>42.0</ele><time>2026-04-04T16:34:19.284Z</time></trkpt><trkpt lat="36.4265833" lon="10.5532833"><ele>40.0</ele><time>2026-04-04T16:34:20.285Z</time></trkpt><trkpt lat="36.4263017" lon="10.5532533"><ele>39.0</ele><time>2026-04-04T16:34:21.284Z</time></trkpt><trkpt lat="36.426025" lon="10.553235"><ele>38.0</ele><time>2026-04-04T16:34:22.281Z</time></trkpt><trkpt lat="36.4257567" lon="10.5532267"><ele>38.0</ele><time>2026-04-04T16:34:23.285Z</time></trkpt><trkpt lat="36.4255" lon="10.5532283"><ele>38.0</ele><time>2026-04-04T16:34:24.285Z</time></trkpt><trkpt lat="36.4252517" lon="10.5532383"><ele>35.5</ele><time>2026-04-04T16:34:25.284Z</time></trkpt><trkpt lat="36.425015" lon="10.553255"><ele>33.0</ele><time>2026-04-04T16:34:26.284Z</time></trkpt><trkpt lat="36.424785" lon="10.5532817"><ele>31.666666666666664</ele><time>2026-04-04T16:34:27.285Z</time></trkpt><trkpt lat="36.4245617" lon="10.553315"><ele>30.333333333333332</ele><time>2026-04-04T16:34:28.284Z</time></trkpt><trkpt lat="36.4243417" lon="10.553355"><ele>29.0</ele><time>2026-04-04T16:34:29.285Z</time></trkpt><trkpt lat="36.4241183" lon="10.5534"><ele>29.0</ele><time>2026-04-04T16:34:30.282Z</time></trkpt><trkpt lat="36.4238967" lon="10.5534517"><ele>29.0</ele><time>2026-04-04T16:34:31.284Z</time></trkpt><trkpt lat="36.423675" lon="10.5535117"><ele>30.0</ele><time>2026-04-04T16:34:32.284Z</time></trkpt><trkpt lat="36.42345" lon="10.55358"><ele>31.0</ele><time>2026-04-04T16:34:33.285Z</time></trkpt><trkpt lat="36.4232167" lon="10.5536533"><ele>31.0</ele><time>2026-04-04T16:34:34.287Z</time></trkpt><trkpt lat="36.4229833" lon="10.55373"><ele>31.0</ele><time>2026-04-04T16:34:35.284Z</time></trkpt><trkpt lat="36.42275" lon="10.55381"><ele>32.5</ele><time>2026-04-04T16:34:36.282Z</time></trkpt><trkpt lat="36.42252" lon="10.5538967"><ele>34.0</ele><time>2026-04-04T16:34:37.285Z</time></trkpt><trkpt lat="36.4222883" lon="10.5539833"><ele>36.0</ele><time>2026-04-04T16:34:38.285Z</time></trkpt><trkpt lat="36.422065" lon="10.5540617"><ele>38.0</ele><time>2026-04-04T16:34:39.284Z</time></trkpt><trkpt lat="36.4218433" lon="10.55414"><ele>38.0</ele><time>2026-04-04T16:34:40.284Z</time></trkpt><trkpt lat="36.421625" lon="10.554215"><ele>38.0</ele><time>2026-04-04T16:34:41.284Z</time></trkpt><trkpt lat="36.4214017" lon="10.554285"><ele>39.0</ele><time>2026-04-04T16:34:42.285Z</time></trkpt><trkpt lat="36.4211733" lon="10.5543467"><ele>40.0</ele><time>2026-04-04T16:34:43.284Z</time></trkpt><trkpt lat="36.42094" lon="10.5544033"><ele>40.0</ele><time>2026-04-04T16:34:44.284Z</time></trkpt><trkpt lat="36.4206967" lon="10.5544533"><ele>40.0</ele><time>2026-04-04T16:34:45.282Z</time></trkpt><trkpt lat="36.4204517" lon="10.5544967"><ele>39.5</ele><time>2026-04-04T16:34:46.285Z</time></trkpt><trkpt lat="36.420215" lon="10.5545333"><ele>39.0</ele><time>2026-04-04T16:34:47.282Z</time></trkpt><trkpt lat="36.4199733" lon="10.5545683"><ele>39.0</ele><time>2026-04-04T16:34:48.282Z</time></trkpt><trkpt lat="36.4197167" lon="10.5546033"><ele>39.0</ele><time>2026-04-04T16:34:49.284Z</time></trkpt><trkpt lat="36.4194483" lon="10.554625"><ele>37.0</ele><time>2026-04-04T16:34:50.282Z</time></trkpt><trkpt lat="36.4191667" lon="10.5546283"><ele>35.0</ele><time>2026-04-04T16:34:51.283Z</time></trkpt><trkpt lat="36.4188767" lon="10.554615"><ele>35.0</ele><time>2026-04-04T16:34:52.283Z</time></trkpt><trkpt lat="36.4185867" lon="10.5545917"><ele>35.0</ele><time>2026-04-04T16:34:53.285Z</time></trkpt><trkpt lat="36.4182983" lon="10.5545567"><ele>34.5</ele><time>2026-04-04T16:34:54.282Z</time></trkpt><trkpt lat="36.4180133" lon="10.5545133"><ele>34.0</ele><time>2026-04-04T16:34:55.285Z</time></trkpt><trkpt lat="36.4177317" lon="10.5544583"><ele>34.0</ele><time>2026-04-04T16:34:56.285Z</time></trkpt><trkpt lat="36.4174533" lon="10.5543967"><ele>34.0</ele><time>2026-04-04T16:34:57.284Z</time></trkpt><trkpt lat="36.4171767" lon="10.554325"><ele>33.5</ele><time>2026-04-04T16:34:58.285Z</time></trkpt><trkpt lat="36.4169033" lon="10.5542483"><ele>33.0</ele><time>2026-04-04T16:34:59.284Z</time></trkpt><trkpt lat="36.4166333" lon="10.5541667"><ele>33.0</ele><time>2026-04-04T16:35:00.285Z</time></trkpt><trkpt lat="36.4163617" lon="10.55408"><ele>33.0</ele><time>2026-04-04T16:35:01.285Z</time></trkpt><trkpt lat="36.4160883" lon="10.554"><ele>32.0</ele><time>2026-04-04T16:35:02.286Z</time></trkpt><trkpt lat="36.415815" lon="10.5539217"><ele>31.0</ele><time>2026-04-04T16:35:03.285Z</time></trkpt><trkpt lat="36.4155367" lon="10.5538467"><ele>30.5</ele><time>2026-04-04T16:35:04.285Z</time></trkpt><trkpt lat="36.4152533" lon="10.5537867"><ele>30.0</ele><time>2026-04-04T16:35:05.285Z</time></trkpt><trkpt lat="36.4149717" lon="10.5537367"><ele>30.5</ele><time>2026-04-04T16:35:06.285Z</time></trkpt><trkpt lat="36.4146867" lon="10.553695"><ele>31.0</ele><time>2026-04-04T16:35:07.285Z</time></trkpt><trkpt lat="36.4144017" lon="10.5536633"><ele>29.5</ele><time>2026-04-04T16:35:08.285Z</time></trkpt><trkpt lat="36.4141183" lon="10.55364"><ele>28.0</ele><time>2026-04-04T16:35:09.285Z</time></trkpt><trkpt lat="36.4138333" lon="10.5536283"><ele>28.0</ele><time>2026-04-04T16:35:10.284Z</time></trkpt><trkpt lat="36.4135467" lon="10.5536233"><ele>28.0</ele><time>2026-04-04T16:35:11.284Z</time></trkpt><trkpt lat="36.4132583" lon="10.55363"><ele>27.0</ele><time>2026-04-04T16:35:12.285Z</time></trkpt><trkpt lat="36.41297" lon="10.5536467"><ele>26.0</ele><time>2026-04-04T16:35:13.285Z</time></trkpt><trkpt lat="36.412685" lon="10.5536733"><ele>25.5</ele><time>2026-04-04T16:35:14.282Z</time></trkpt><trkpt lat="36.4123983" lon="10.55371"><ele>25.0</ele><time>2026-04-04T16:35:15.282Z</time></trkpt><trkpt lat="36.4121067" lon="10.5537567"><ele>24.0</ele><time>2026-04-04T16:35:16.283Z</time></trkpt><trkpt lat="36.411815" lon="10.5538083"><ele>23.0</ele><time>2026-04-04T16:35:17.283Z</time></trkpt><trkpt lat="36.4115233" lon="10.55386"><ele>23.0</ele><time>2026-04-04T16:35:18.282Z</time></trkpt><trkpt lat="36.41123" lon="10.5539083"><ele>23.0</ele><time>2026-04-04T16:35:19.282Z</time></trkpt><trkpt lat="36.410945" lon="10.5539533"><ele>23.0</ele><time>2026-04-04T16:35:20.282Z</time></trkpt><trkpt lat="36.4106683" lon="10.554"><ele>23.0</ele><time>2026-04-04T16:35:21.282Z</time></trkpt><trkpt lat="36.4104017" lon="10.5540433"><ele>21.5</ele><time>2026-04-04T16:35:22.283Z</time></trkpt><trkpt lat="36.410145" lon="10.5540883"><ele>20.0</ele><time>2026-04-04T16:35:23.282Z</time></trkpt><trkpt lat="36.4098933" lon="10.5541283"><ele>19.0</ele><time>2026-04-04T16:35:24.282Z</time></trkpt><trkpt lat="36.4096433" lon="10.5541683"><ele>18.0</ele><time>2026-04-04T16:35:25.282Z</time></trkpt><trkpt lat="36.409395" lon="10.5542083"><ele>18.0</ele><time>2026-04-04T16:35:26.282Z</time></trkpt><trkpt lat="36.4091483" lon="10.5542467"><ele>18.0</ele><time>2026-04-04T16:35:27.282Z</time></trkpt><trkpt lat="36.408905" lon="10.5542867"><ele>17.0</ele><time>2026-04-04T16:35:28.282Z</time></trkpt><trkpt lat="36.4086633" lon="10.554325"><ele>16.0</ele><time>2026-04-04T16:35:29.282Z</time></trkpt><trkpt lat="36.408425" lon="10.554365"><ele>16.0</ele><time>2026-04-04T16:35:30.282Z</time></trkpt><trkpt lat="36.4081867" lon="10.5544033"><ele>16.0</ele><time>2026-04-04T16:35:31.285Z</time></trkpt><trkpt lat="36.4079467" lon="10.5544417"><ele>15.5</ele><time>2026-04-04T16:35:32.285Z</time></trkpt><trkpt lat="36.4077033" lon="10.55448"><ele>15.0</ele><time>2026-04-04T16:35:33.283Z</time></trkpt><trkpt lat="36.4074617" lon="10.5545133"><ele>14.5</ele><time>2026-04-04T16:35:34.282Z</time></trkpt><trkpt lat="36.4072167" lon="10.5545417"><ele>14.0</ele><time>2026-04-04T16:35:35.282Z</time></trkpt><trkpt lat="36.40697" lon="10.5545633"><ele>14.0</ele><time>2026-04-04T16:35:36.282Z</time></trkpt><trkpt lat="36.4067233" lon="10.55458"><ele>14.0</ele><time>2026-04-04T16:35:37.282Z</time></trkpt><trkpt lat="36.406475" lon="10.5545917"><ele>13.5</ele><time>2026-04-04T16:35:38.282Z</time></trkpt><trkpt lat="36.4062267" lon="10.554595"><ele>13.0</ele><time>2026-04-04T16:35:39.283Z</time></trkpt><trkpt lat="36.4059817" lon="10.5545917"><ele>13.0</ele><time>2026-04-04T16:35:40.286Z</time></trkpt><trkpt lat="36.4057383" lon="10.5545867"><ele>13.0</ele><time>2026-04-04T16:35:41.286Z</time></trkpt><trkpt lat="36.4054983" lon="10.5545767"><ele>13.0</ele><time>2026-04-04T16:35:42.286Z</time></trkpt><trkpt lat="36.4052617" lon="10.5545567"><ele>13.0</ele><time>2026-04-04T16:35:43.286Z</time></trkpt><trkpt lat="36.4050267" lon="10.55453"><ele>13.0</ele><time>2026-04-04T16:35:44.284Z</time></trkpt><trkpt lat="36.4047817" lon="10.5544883"><ele>13.0</ele><time>2026-04-04T16:35:45.285Z</time></trkpt><trkpt lat="36.404535" lon="10.5544367"><ele>12.0</ele><time>2026-04-04T16:35:46.285Z</time></trkpt><trkpt lat="36.4042833" lon="10.5543817"><ele>11.0</ele><time>2026-04-04T16:35:47.285Z</time></trkpt><trkpt lat="36.404025" lon="10.5543183"><ele>11.5</ele><time>2026-04-04T16:35:48.285Z</time></trkpt><trkpt lat="36.403765" lon="10.55424"><ele>12.0</ele><time>2026-04-04T16:35:49.285Z</time></trkpt><trkpt lat="36.4035" lon="10.5541533"><ele>12.0</ele><time>2026-04-04T16:35:50.285Z</time></trkpt><trkpt lat="36.4032333" lon="10.5540583"><ele>12.0</ele><time>2026-04-04T16:35:51.287Z</time></trkpt><trkpt lat="36.4029667" lon="10.5539583"><ele>11.0</ele><time>2026-04-04T16:35:52.285Z</time></trkpt><trkpt lat="36.4027017" lon="10.55385"><ele>10.0</ele><time>2026-04-04T16:35:53.282Z</time></trkpt><trkpt lat="36.40243" lon="10.5537283"><ele>9.5</ele><time>2026-04-04T16:35:54.285Z</time></trkpt><trkpt lat="36.40216" lon="10.5535917"><ele>9.0</ele><time>2026-04-04T16:35:55.285Z</time></trkpt><trkpt lat="36.401885" lon="10.553445"><ele>9.0</ele><time>2026-04-04T16:35:56.286Z</time></trkpt><trkpt lat="36.40161" lon="10.5532867"><ele>9.0</ele><time>2026-04-04T16:35:57.285Z</time></trkpt><trkpt lat="36.4013367" lon="10.55312"><ele>8.5</ele><time>2026-04-04T16:35:58.284Z</time></trkpt><trkpt lat="36.4010633" lon="10.552945"><ele>8.0</ele><time>2026-04-04T16:35:59.287Z</time></trkpt><trkpt lat="36.4007967" lon="10.5527567"><ele>9.0</ele><time>2026-04-04T16:36:00.285Z</time></trkpt><trkpt lat="36.4005317" lon="10.5525583"><ele>10.0</ele><time>2026-04-04T16:36:01.285Z</time></trkpt><trkpt lat="36.4002733" lon="10.5523517"><ele>12.0</ele><time>2026-04-04T16:36:02.286Z</time></trkpt><trkpt lat="36.400025" lon="10.5521367"><ele>14.0</ele><time>2026-04-04T16:36:03.285Z</time></trkpt><trkpt lat="36.3997767" lon="10.5519133"><ele>15.0</ele><time>2026-04-04T16:36:04.285Z</time></trkpt><trkpt lat="36.39953" lon="10.5516833"><ele>16.0</ele><time>2026-04-04T16:36:05.285Z</time></trkpt><trkpt lat="36.3992883" lon="10.5514433"><ele>16.5</ele><time>2026-04-04T16:36:06.285Z</time></trkpt><trkpt lat="36.399055" lon="10.551195"><ele>17.0</ele><time>2026-04-04T16:36:07.286Z</time></trkpt><trkpt lat="36.398825" lon="10.5509417"><ele>17.0</ele><time>2026-04-04T16:36:08.285Z</time></trkpt><trkpt lat="36.3986067" lon="10.5506817"><ele>17.0</ele><time>2026-04-04T16:36:09.285Z</time></trkpt><trkpt lat="36.3983917" lon="10.5504117"><ele>17.5</ele><time>2026-04-04T16:36:10.285Z</time></trkpt><trkpt lat="36.398185" lon="10.55013"><ele>18.0</ele><time>2026-04-04T16:36:11.285Z</time></trkpt><trkpt lat="36.3979783" lon="10.5498367"><ele>18.5</ele><time>2026-04-04T16:36:12.285Z</time></trkpt><trkpt lat="36.3977767" lon="10.5495333"><ele>19.0</ele><time>2026-04-04T16:36:13.285Z</time></trkpt><trkpt lat="36.3975817" lon="10.5492217"><ele>19.0</ele><time>2026-04-04T16:36:14.285Z</time></trkpt><trkpt lat="36.3973967" lon="10.5489067"><ele>19.0</ele><time>2026-04-04T16:36:15.285Z</time></trkpt><trkpt lat="36.3972217" lon="10.5485883"><ele>19.5</ele><time>2026-04-04T16:36:16.285Z</time></trkpt><trkpt lat="36.3970533" lon="10.5482633"><ele>20.0</ele><time>2026-04-04T16:36:17.285Z</time></trkpt><trkpt lat="36.396895" lon="10.54793"><ele>20.0</ele><time>2026-04-04T16:36:18.286Z</time></trkpt><trkpt lat="36.39674" lon="10.5475917"><ele>20.0</ele><time>2026-04-04T16:36:19.283Z</time></trkpt><trkpt lat="36.3965933" lon="10.54725"><ele>20.0</ele><time>2026-04-04T16:36:20.285Z</time></trkpt><trkpt lat="36.39645" lon="10.5469017"><ele>20.0</ele><time>2026-04-04T16:36:21.285Z</time></trkpt><trkpt lat="36.39631" lon="10.5465533"><ele>19.5</ele><time>2026-04-04T16:36:22.285Z</time></trkpt><trkpt lat="36.3961733" lon="10.5462067"><ele>19.0</ele><time>2026-04-04T16:36:23.285Z</time></trkpt><trkpt lat="36.3960383" lon="10.545865"><ele>19.0</ele><time>2026-04-04T16:36:24.282Z</time></trkpt><trkpt lat="36.3959" lon="10.5455367"><ele>19.0</ele><time>2026-04-04T16:36:25.285Z</time></trkpt><trkpt lat="36.3957583" lon="10.5452183"><ele>18.5</ele><time>2026-04-04T16:36:26.286Z</time></trkpt><trkpt lat="36.3956167" lon="10.5449033"><ele>18.0</ele><time>2026-04-04T16:36:27.285Z</time></trkpt><trkpt lat="36.395465" lon="10.5445867"><ele>16.5</ele><time>2026-04-04T16:36:28.285Z</time></trkpt><trkpt lat="36.3953083" lon="10.5442767"><ele>15.0</ele><time>2026-04-04T16:36:29.285Z</time></trkpt><trkpt lat="36.3951567" lon="10.5439833"><ele>14.0</ele><time>2026-04-04T16:36:30.285Z</time></trkpt><trkpt lat="36.3950033" lon="10.543695"><ele>13.0</ele><time>2026-04-04T16:36:31.282Z</time></trkpt><trkpt lat="36.3948483" lon="10.5434033"><ele>13.0</ele><time>2026-04-04T16:36:32.285Z</time></trkpt><trkpt lat="36.3946883" lon="10.5431133"><ele>13.0</ele><time>2026-04-04T16:36:33.285Z</time></trkpt><trkpt lat="36.3945167" lon="10.542825"><ele>12.0</ele><time>2026-04-04T16:36:34.287Z</time></trkpt><trkpt lat="36.3943383" lon="10.54254"><ele>11.0</ele><time>2026-04-04T16:36:35.286Z</time></trkpt><trkpt lat="36.3941533" lon="10.54226"><ele>11.5</ele><time>2026-04-04T16:36:36.285Z</time></trkpt><trkpt lat="36.3939683" lon="10.5419917"><ele>12.0</ele><time>2026-04-04T16:36:37.285Z</time></trkpt><trkpt lat="36.3937867" lon="10.5417333"><ele>11.0</ele><time>2026-04-04T16:36:38.286Z</time></trkpt><trkpt lat="36.3936017" lon="10.541485"><ele>10.0</ele><time>2026-04-04T16:36:39.286Z</time></trkpt><trkpt lat="36.3934183" lon="10.541245"><ele>10.0</ele><time>2026-04-04T16:36:40.285Z</time></trkpt><trkpt lat="36.3932383" lon="10.5410167"><ele>10.0</ele><time>2026-04-04T16:36:41.285Z</time></trkpt><trkpt lat="36.3930617" lon="10.5408017"><ele>9.0</ele><time>2026-04-04T16:36:42.285Z</time></trkpt><trkpt lat="36.392885" lon="10.540595"><ele>8.0</ele><time>2026-04-04T16:36:43.286Z</time></trkpt><trkpt lat="36.3927067" lon="10.5403967"><ele>9.5</ele><time>2026-04-04T16:36:44.285Z</time></trkpt><trkpt lat="36.3925317" lon="10.540205"><ele>11.0</ele><time>2026-04-04T16:36:45.285Z</time></trkpt><trkpt lat="36.392355" lon="10.540015"><ele>11.0</ele><time>2026-04-04T16:36:46.286Z</time></trkpt><trkpt lat="36.3921767" lon="10.53983"><ele>11.0</ele><time>2026-04-04T16:36:47.285Z</time></trkpt><trkpt lat="36.3919983" lon="10.5396483"><ele>9.5</ele><time>2026-04-04T16:36:48.285Z</time></trkpt><trkpt lat="36.3918183" lon="10.539465"><ele>8.0</ele><time>2026-04-04T16:36:49.285Z</time></trkpt><trkpt lat="36.3916383" lon="10.5392817"><ele>8.0</ele><time>2026-04-04T16:36:50.285Z</time></trkpt><trkpt lat="36.3914533" lon="10.5390967"><ele>8.0</ele><time>2026-04-04T16:36:51.285Z</time></trkpt><trkpt lat="36.3912683" lon="10.5389083"><ele>8.5</ele><time>2026-04-04T16:36:52.285Z</time></trkpt><trkpt lat="36.391085" lon="10.5387233"><ele>9.0</ele><time>2026-04-04T16:36:53.285Z</time></trkpt><trkpt lat="36.390905" lon="10.5385383"><ele>8.0</ele><time>2026-04-04T16:36:54.286Z</time></trkpt><trkpt lat="36.3907233" lon="10.538355"><ele>7.0</ele><time>2026-04-04T16:36:55.285Z</time></trkpt><trkpt lat="36.3905383" lon="10.5381717"><ele>7.0</ele><time>2026-04-04T16:36:56.286Z</time></trkpt><trkpt lat="36.39036" lon="10.53799"><ele>7.0</ele><time>2026-04-04T16:36:57.283Z</time></trkpt><trkpt lat="36.3901867" lon="10.5378167"><ele>7.0</ele><time>2026-04-04T16:36:58.286Z</time></trkpt><trkpt lat="36.3900183" lon="10.5376433"><ele>7.0</ele><time>2026-04-04T16:36:59.284Z</time></trkpt><trkpt lat="36.3898417" lon="10.5374667"><ele>7.0</ele><time>2026-04-04T16:37:00.282Z</time></trkpt><trkpt lat="36.3896617" lon="10.53728"><ele>7.5</ele><time>2026-04-04T16:37:01.286Z</time></trkpt><trkpt lat="36.389485" lon="10.5370917"><ele>8.0</ele><time>2026-04-04T16:37:02.285Z</time></trkpt><trkpt lat="36.3893067" lon="10.536905"><ele>8.0</ele><time>2026-04-04T16:37:03.285Z</time></trkpt><trkpt lat="36.3891267" lon="10.5367217"><ele>8.0</ele><time>2026-04-04T16:37:04.285Z</time></trkpt><trkpt lat="36.3889517" lon="10.5365433"><ele>8.0</ele><time>2026-04-04T16:37:05.285Z</time></trkpt><trkpt lat="36.3887717" lon="10.536365"><ele>8.0</ele><time>2026-04-04T16:37:06.287Z</time></trkpt><trkpt lat="36.3885917" lon="10.53619"><ele>8.0</ele><time>2026-04-04T16:37:07.285Z</time></trkpt><trkpt lat="36.3884167" lon="10.536015"><ele>8.0</ele><time>2026-04-04T16:37:08.286Z</time></trkpt><trkpt lat="36.38824" lon="10.5358333"><ele>8.0</ele><time>2026-04-04T16:37:09.285Z</time></trkpt><trkpt lat="36.3880583" lon="10.5356533"><ele>8.0</ele><time>2026-04-04T16:37:10.285Z</time></trkpt><trkpt lat="36.3878783" lon="10.535475"><ele>8.5</ele><time>2026-04-04T16:37:11.285Z</time></trkpt><trkpt lat="36.3876983" lon="10.5352933"><ele>9.0</ele><time>2026-04-04T16:37:12.285Z</time></trkpt><trkpt lat="36.3875133" lon="10.5351083"><ele>9.0</ele><time>2026-04-04T16:37:13.285Z</time></trkpt><trkpt lat="36.3873317" lon="10.53492"><ele>9.0</ele><time>2026-04-04T16:37:14.285Z</time></trkpt><trkpt lat="36.38715" lon="10.534725"><ele>10.0</ele><time>2026-04-04T16:37:15.285Z</time></trkpt><trkpt lat="36.386965" lon="10.5345283"><ele>11.0</ele><time>2026-04-04T16:37:16.285Z</time></trkpt><trkpt lat="36.38678" lon="10.53433"><ele>11.0</ele><time>2026-04-04T16:37:17.285Z</time></trkpt><trkpt lat="36.3865883" lon="10.5341317"><ele>11.0</ele><time>2026-04-04T16:37:18.285Z</time></trkpt><trkpt lat="36.386395" lon="10.533935"><ele>11.5</ele><time>2026-04-04T16:37:19.285Z</time></trkpt><trkpt lat="36.386195" lon="10.5337333"><ele>12.0</ele><time>2026-04-04T16:37:20.285Z</time></trkpt><trkpt lat="36.3859933" lon="10.5335233"><ele>12.0</ele><time>2026-04-04T16:37:21.285Z</time></trkpt><trkpt lat="36.3857867" lon="10.5333133"><ele>12.0</ele><time>2026-04-04T16:37:22.286Z</time></trkpt><trkpt lat="36.3855783" lon="10.5331033"><ele>12.0</ele><time>2026-04-04T16:37:23.285Z</time></trkpt><trkpt lat="36.3853717" lon="10.5328933"><ele>12.0</ele><time>2026-04-04T16:37:24.285Z</time></trkpt><trkpt lat="36.385165" lon="10.53268"><ele>11.0</ele><time>2026-04-04T16:37:25.285Z</time></trkpt><trkpt lat="36.384955" lon="10.5324683"><ele>10.0</ele><time>2026-04-04T16:37:26.285Z</time></trkpt><trkpt lat="36.3847483" lon="10.532255"><ele>10.0</ele><time>2026-04-04T16:37:27.285Z</time></trkpt><trkpt lat="36.38454" lon="10.5320417"><ele>10.0</ele><time>2026-04-04T16:37:28.285Z</time></trkpt><trkpt lat="36.3843267" lon="10.531825"><ele>10.0</ele><time>2026-04-04T16:37:29.285Z</time></trkpt><trkpt lat="36.38411" lon="10.5316033"><ele>10.0</ele><time>2026-04-04T16:37:30.285Z</time></trkpt><trkpt lat="36.38389" lon="10.5313767"><ele>10.5</ele><time>2026-04-04T16:37:31.285Z</time></trkpt><trkpt lat="36.38367" lon="10.5311467"><ele>11.0</ele><time>2026-04-04T16:37:32.286Z</time></trkpt><trkpt lat="36.38345" lon="10.5309117"><ele>11.0</ele><time>2026-04-04T16:37:33.285Z</time></trkpt><trkpt lat="36.3832367" lon="10.53068"><ele>11.0</ele><time>2026-04-04T16:37:34.282Z</time></trkpt><trkpt lat="36.3830217" lon="10.53045"><ele>12.0</ele><time>2026-04-04T16:37:35.283Z</time></trkpt><trkpt lat="36.3828083" lon="10.5302217"><ele>13.0</ele><time>2026-04-04T16:37:36.283Z</time></trkpt><trkpt lat="36.3825967" lon="10.5299933"><ele>13.0</ele><time>2026-04-04T16:37:37.283Z</time></trkpt><trkpt lat="36.382385" lon="10.529765"><ele>13.0</ele><time>2026-04-04T16:37:38.282Z</time></trkpt><trkpt lat="36.3821733" lon="10.529535"><ele>12.0</ele><time>2026-04-04T16:37:39.283Z</time></trkpt><trkpt lat="36.3819617" lon="10.5293033"><ele>11.0</ele><time>2026-04-04T16:37:40.283Z</time></trkpt><trkpt lat="36.3817467" lon="10.5290683"><ele>11.0</ele><time>2026-04-04T16:37:41.282Z</time></trkpt><trkpt lat="36.38154" lon="10.5288317"><ele>11.0</ele><time>2026-04-04T16:37:42.284Z</time></trkpt><trkpt lat="36.3813367" lon="10.528595"><ele>11.5</ele><time>2026-04-04T16:37:43.283Z</time></trkpt><trkpt lat="36.3811317" lon="10.5283617"><ele>12.0</ele><time>2026-04-04T16:37:44.283Z</time></trkpt><trkpt lat="36.38093" lon="10.5281267"><ele>11.0</ele><time>2026-04-04T16:37:45.285Z</time></trkpt><trkpt lat="36.3807283" lon="10.5278917"><ele>10.0</ele><time>2026-04-04T16:37:46.285Z</time></trkpt><trkpt lat="36.3805333" lon="10.5276567"><ele>10.5</ele><time>2026-04-04T16:37:47.285Z</time></trkpt><trkpt lat="36.3803467" lon="10.5274283"><ele>11.0</ele><time>2026-04-04T16:37:48.286Z</time></trkpt><trkpt lat="36.3801617" lon="10.5272067"><ele>12.5</ele><time>2026-04-04T16:37:49.285Z</time></trkpt><trkpt lat="36.3799817" lon="10.5269883"><ele>14.0</ele><time>2026-04-04T16:37:50.286Z</time></trkpt><trkpt lat="36.379805" lon="10.5267733"><ele>13.5</ele><time>2026-04-04T16:37:51.286Z</time></trkpt><trkpt lat="36.3796317" lon="10.5265583"><ele>13.0</ele><time>2026-04-04T16:37:52.285Z</time></trkpt><trkpt lat="36.3794583" lon="10.5263467"><ele>13.5</ele><time>2026-04-04T16:37:53.285Z</time></trkpt><trkpt lat="36.3792883" lon="10.5261383"><ele>14.0</ele><time>2026-04-04T16:37:54.286Z</time></trkpt><trkpt lat="36.3791183" lon="10.52593"><ele>14.0</ele><time>2026-04-04T16:37:55.285Z</time></trkpt><trkpt lat="36.3789467" lon="10.5257183"><ele>14.0</ele><time>2026-04-04T16:37:56.286Z</time></trkpt><trkpt lat="36.3787783" lon="10.5255033"><ele>14.0</ele><time>2026-04-04T16:37:57.285Z</time></trkpt><trkpt lat="36.3786083" lon="10.52529"><ele>14.0</ele><time>2026-04-04T16:37:58.285Z</time></trkpt><trkpt lat="36.3784333" lon="10.525075"><ele>14.0</ele><time>2026-04-04T16:37:59.285Z</time></trkpt><trkpt lat="36.3782583" lon="10.5248567"><ele>14.0</ele><time>2026-04-04T16:38:00.285Z</time></trkpt><trkpt lat="36.3780833" lon="10.52464"><ele>14.5</ele><time>2026-04-04T16:38:01.285Z</time></trkpt><trkpt lat="36.3779033" lon="10.5244183"><ele>15.0</ele><time>2026-04-04T16:38:02.286Z</time></trkpt><trkpt lat="36.3777233" lon="10.5241983"><ele>15.0</ele><time>2026-04-04T16:38:03.286Z</time></trkpt><trkpt lat="36.3775383" lon="10.5239733"><ele>15.0</ele><time>2026-04-04T16:38:04.282Z</time></trkpt><trkpt lat="36.3773533" lon="10.523745"><ele>15.5</ele><time>2026-04-04T16:38:05.282Z</time></trkpt><trkpt lat="36.3771667" lon="10.5235133"><ele>16.0</ele><time>2026-04-04T16:38:06.283Z</time></trkpt><trkpt lat="36.3769783" lon="10.52328"><ele>16.0</ele><time>2026-04-04T16:38:07.282Z</time></trkpt><trkpt lat="36.3767883" lon="10.5230433"><ele>16.0</ele><time>2026-04-04T16:38:08.282Z</time></trkpt><trkpt lat="36.3765967" lon="10.5228083"><ele>15.0</ele><time>2026-04-04T16:38:09.283Z</time></trkpt><trkpt lat="36.3764017" lon="10.5225733"><ele>14.0</ele><time>2026-04-04T16:38:10.284Z</time></trkpt><trkpt lat="36.37621" lon="10.5223383"><ele>14.0</ele><time>2026-04-04T16:38:11.283Z</time></trkpt><trkpt lat="36.3760183" lon="10.522105"><ele>14.0</ele><time>2026-04-04T16:38:12.283Z</time></trkpt><trkpt lat="36.375825" lon="10.52187"><ele>14.0</ele><time>2026-04-04T16:38:13.282Z</time></trkpt><trkpt lat="36.3756317" lon="10.5216333"><ele>14.0</ele><time>2026-04-04T16:38:14.282Z</time></trkpt><trkpt lat="36.3754367" lon="10.5213933"><ele>14.0</ele><time>2026-04-04T16:38:15.285Z</time></trkpt><trkpt lat="36.3752433" lon="10.52115"><ele>14.0</ele><time>2026-04-04T16:38:16.285Z</time></trkpt><trkpt lat="36.3750483" lon="10.5209017"><ele>14.0</ele><time>2026-04-04T16:38:17.285Z</time></trkpt><trkpt lat="36.3748533" lon="10.520655"><ele>14.0</ele><time>2026-04-04T16:38:18.289Z</time></trkpt><trkpt lat="36.3746583" lon="10.5204133"><ele>13.5</ele><time>2026-04-04T16:38:19.285Z</time></trkpt><trkpt lat="36.3744633" lon="10.5201683"><ele>13.0</ele><time>2026-04-04T16:38:20.285Z</time></trkpt><trkpt lat="36.3742733" lon="10.5199233"><ele>13.0</ele><time>2026-04-04T16:38:21.285Z</time></trkpt><trkpt lat="36.3740867" lon="10.5196767"><ele>13.0</ele><time>2026-04-04T16:38:22.285Z</time></trkpt><trkpt lat="36.3739033" lon="10.5194267"><ele>13.5</ele><time>2026-04-04T16:38:23.287Z</time></trkpt><trkpt lat="36.3737167" lon="10.5191767"><ele>14.0</ele><time>2026-04-04T16:38:24.285Z</time></trkpt><trkpt lat="36.3735317" lon="10.518925"><ele>14.0</ele><time>2026-04-04T16:38:25.285Z</time></trkpt><trkpt lat="36.3733467" lon="10.5186717"><ele>14.0</ele><time>2026-04-04T16:38:26.285Z</time></trkpt><trkpt lat="36.3731683" lon="10.518415"><ele>14.0</ele><time>2026-04-04T16:38:27.286Z</time></trkpt><trkpt lat="36.37299" lon="10.5181567"><ele>14.0</ele><time>2026-04-04T16:38:28.286Z</time></trkpt><trkpt lat="36.3728117" lon="10.517895"><ele>14.0</ele><time>2026-04-04T16:38:29.285Z</time></trkpt><trkpt lat="36.3726333" lon="10.517625"><ele>14.0</ele><time>2026-04-04T16:38:30.285Z</time></trkpt><trkpt lat="36.3724567" lon="10.5173517"><ele>14.0</ele><time>2026-04-04T16:38:31.285Z</time></trkpt><trkpt lat="36.372285" lon="10.5170783"><ele>14.0</ele><time>2026-04-04T16:38:32.285Z</time></trkpt><trkpt lat="36.3721133" lon="10.5168"><ele>13.5</ele><time>2026-04-04T16:38:33.286Z</time></trkpt><trkpt lat="36.3719433" lon="10.5165233"><ele>13.0</ele><time>2026-04-04T16:38:34.282Z</time></trkpt><trkpt lat="36.3717733" lon="10.5162467"><ele>13.0</ele><time>2026-04-04T16:38:35.283Z</time></trkpt><trkpt lat="36.3716067" lon="10.51597"><ele>13.0</ele><time>2026-04-04T16:38:36.283Z</time></trkpt><trkpt lat="36.371445" lon="10.51569"><ele>13.5</ele><time>2026-04-04T16:38:37.284Z</time></trkpt><trkpt lat="36.3712883" lon="10.5154083"><ele>14.0</ele><time>2026-04-04T16:38:38.282Z</time></trkpt><trkpt lat="36.3711333" lon="10.515125"><ele>14.5</ele><time>2026-04-04T16:38:39.282Z</time></trkpt><trkpt lat="36.37098" lon="10.514845"><ele>15.0</ele><time>2026-04-04T16:38:40.282Z</time></trkpt><trkpt lat="36.3708233" lon="10.5145617"><ele>15.0</ele><time>2026-04-04T16:38:41.283Z</time></trkpt><trkpt lat="36.3706667" lon="10.514275"><ele>15.0</ele><time>2026-04-04T16:38:42.282Z</time></trkpt><trkpt lat="36.3705117" lon="10.5139867"><ele>15.0</ele><time>2026-04-04T16:38:43.282Z</time></trkpt><trkpt lat="36.3703533" lon="10.5136917"><ele>15.0</ele><time>2026-04-04T16:38:44.281Z</time></trkpt><trkpt lat="36.3701917" lon="10.51339"><ele>15.0</ele><time>2026-04-04T16:38:45.284Z</time></trkpt><trkpt lat="36.370025" lon="10.5130817"><ele>15.0</ele><time>2026-04-04T16:38:46.284Z</time></trkpt><trkpt lat="36.3698583" lon="10.5127667"><ele>14.5</ele><time>2026-04-04T16:38:47.284Z</time></trkpt><trkpt lat="36.3696883" lon="10.512445"><ele>14.0</ele><time>2026-04-04T16:38:48.284Z</time></trkpt><trkpt lat="36.3695167" lon="10.5121217"><ele>14.0</ele><time>2026-04-04T16:38:49.285Z</time></trkpt><trkpt lat="36.3693467" lon="10.5117967"><ele>14.0</ele><time>2026-04-04T16:38:50.284Z</time></trkpt><trkpt lat="36.3691733" lon="10.5114733"><ele>13.5</ele><time>2026-04-04T16:38:51.284Z</time></trkpt><trkpt lat="36.369" lon="10.511155"><ele>13.0</ele><time>2026-04-04T16:38:52.284Z</time></trkpt><trkpt lat="36.368825" lon="10.51084"><ele>13.0</ele><time>2026-04-04T16:38:53.285Z</time></trkpt><trkpt lat="36.3686517" lon="10.5105367"><ele>13.0</ele><time>2026-04-04T16:38:54.285Z</time></trkpt><trkpt lat="36.3684817" lon="10.5102383"><ele>12.5</ele><time>2026-04-04T16:38:55.282Z</time></trkpt><trkpt lat="36.3683117" lon="10.5099433"><ele>12.0</ele><time>2026-04-04T16:38:56.284Z</time></trkpt><trkpt lat="36.36814" lon="10.5096567"><ele>13.0</ele><time>2026-04-04T16:38:57.284Z</time></trkpt><trkpt lat="36.3679633" lon="10.5093783"><ele>14.0</ele><time>2026-04-04T16:38:58.284Z</time></trkpt><trkpt lat="36.3677883" lon="10.5091033"><ele>14.0</ele><time>2026-04-04T16:38:59.285Z</time></trkpt><trkpt lat="36.3676133" lon="10.50883"><ele>14.0</ele><time>2026-04-04T16:39:00.285Z</time></trkpt><trkpt lat="36.3674383" lon="10.5085567"><ele>14.0</ele><time>2026-04-04T16:39:01.284Z</time></trkpt><trkpt lat="36.36726" lon="10.5082883"><ele>14.0</ele><time>2026-04-04T16:39:02.285Z</time></trkpt><trkpt lat="36.3670783" lon="10.5080217"><ele>14.0</ele><time>2026-04-04T16:39:03.281Z</time></trkpt><trkpt lat="36.366895" lon="10.5077583"><ele>14.0</ele><time>2026-04-04T16:39:04.282Z</time></trkpt><trkpt lat="36.36671" lon="10.5075"><ele>14.0</ele><time>2026-04-04T16:39:05.281Z</time></trkpt><trkpt lat="36.366525" lon="10.5072417"><ele>14.0</ele><time>2026-04-04T16:39:06.282Z</time></trkpt><trkpt lat="36.3663383" lon="10.5069867"><ele>13.0</ele><time>2026-04-04T16:39:07.282Z</time></trkpt><trkpt lat="36.36615" lon="10.506735"><ele>12.0</ele><time>2026-04-04T16:39:08.281Z</time></trkpt><trkpt lat="36.36596" lon="10.5064867"><ele>13.0</ele><time>2026-04-04T16:39:09.282Z</time></trkpt><trkpt lat="36.3657683" lon="10.50624"><ele>14.0</ele><time>2026-04-04T16:39:10.283Z</time></trkpt><trkpt lat="36.365575" lon="10.5059983"><ele>14.0</ele><time>2026-04-04T16:39:11.282Z</time></trkpt><trkpt lat="36.3653767" lon="10.5057583"><ele>14.0</ele><time>2026-04-04T16:39:12.282Z</time></trkpt><trkpt lat="36.3651817" lon="10.5055167"><ele>12.5</ele><time>2026-04-04T16:39:13.282Z</time></trkpt><trkpt lat="36.364985" lon="10.5052767"><ele>11.0</ele><time>2026-04-04T16:39:14.281Z</time></trkpt><trkpt lat="36.3647833" lon="10.50504"><ele>11.5</ele><time>2026-04-04T16:39:15.284Z</time></trkpt><trkpt lat="36.3645783" lon="10.5048083"><ele>12.0</ele><time>2026-04-04T16:39:16.284Z</time></trkpt><trkpt lat="36.364375" lon="10.5045817"><ele>13.0</ele><time>2026-04-04T16:39:17.284Z</time></trkpt><trkpt lat="36.3641733" lon="10.50436"><ele>14.0</ele><time>2026-04-04T16:39:18.285Z</time></trkpt><trkpt lat="36.3639733" lon="10.50414"><ele>14.0</ele><time>2026-04-04T16:39:19.284Z</time></trkpt><trkpt lat="36.36377" lon="10.5039217"><ele>14.0</ele><time>2026-04-04T16:39:20.285Z</time></trkpt><trkpt lat="36.363565" lon="10.5037067"><ele>13.5</ele><time>2026-04-04T16:39:21.286Z</time></trkpt><trkpt lat="36.363355" lon="10.5034917"><ele>13.0</ele><time>2026-04-04T16:39:22.284Z</time></trkpt><trkpt lat="36.3631483" lon="10.5032767"><ele>13.0</ele><time>2026-04-04T16:39:23.285Z</time></trkpt><trkpt lat="36.362935" lon="10.5030667"><ele>13.0</ele><time>2026-04-04T16:39:24.284Z</time></trkpt><trkpt lat="36.3627183" lon="10.5028583"><ele>13.0</ele><time>2026-04-04T16:39:25.285Z</time></trkpt><trkpt lat="36.362495" lon="10.5026517"><ele>13.0</ele><time>2026-04-04T16:39:26.285Z</time></trkpt><trkpt lat="36.3622733" lon="10.502445"><ele>13.0</ele><time>2026-04-04T16:39:27.284Z</time></trkpt><trkpt lat="36.3620483" lon="10.5022433"><ele>13.0</ele><time>2026-04-04T16:39:28.284Z</time></trkpt><trkpt lat="36.3618217" lon="10.5020433"><ele>13.0</ele><time>2026-04-04T16:39:29.287Z</time></trkpt><trkpt lat="36.36159" lon="10.5018417"><ele>13.0</ele><time>2026-04-04T16:39:30.285Z</time></trkpt><trkpt lat="36.3613567" lon="10.5016417"><ele>12.5</ele><time>2026-04-04T16:39:31.284Z</time></trkpt><trkpt lat="36.36112" lon="10.5014433"><ele>12.0</ele><time>2026-04-04T16:39:32.284Z</time></trkpt><trkpt lat="36.3608783" lon="10.5012467"><ele>12.0</ele><time>2026-04-04T16:39:33.281Z</time></trkpt><trkpt lat="36.360635" lon="10.5010517"><ele>12.0</ele><time>2026-04-04T16:39:34.282Z</time></trkpt><trkpt lat="36.3603883" lon="10.50086"><ele>11.5</ele><time>2026-04-04T16:39:35.282Z</time></trkpt><trkpt lat="36.3601417" lon="10.5006683"><ele>11.0</ele><time>2026-04-04T16:39:36.282Z</time></trkpt><trkpt lat="36.3598967" lon="10.50048"><ele>11.5</ele><time>2026-04-04T16:39:37.282Z</time></trkpt><trkpt lat="36.3596533" lon="10.5002967"><ele>12.0</ele><time>2026-04-04T16:39:38.281Z</time></trkpt><trkpt lat="36.35941" lon="10.50012"><ele>12.0</ele><time>2026-04-04T16:39:39.283Z</time></trkpt><trkpt lat="36.359165" lon="10.4999467"><ele>12.0</ele><time>2026-04-04T16:39:40.284Z</time></trkpt><trkpt lat="36.3589183" lon="10.4997783"><ele>12.0</ele><time>2026-04-04T16:39:41.284Z</time></trkpt><trkpt lat="36.3586683" lon="10.499605"><ele>12.0</ele><time>2026-04-04T16:39:42.285Z</time></trkpt><trkpt lat="36.358425" lon="10.499445"><ele>11.5</ele><time>2026-04-04T16:39:43.284Z</time></trkpt><trkpt lat="36.35818" lon="10.499285"><ele>11.0</ele><time>2026-04-04T16:39:44.284Z</time></trkpt><trkpt lat="36.35794" lon="10.4991317"><ele>11.0</ele><time>2026-04-04T16:39:45.285Z</time></trkpt><trkpt lat="36.3576983" lon="10.4989783"><ele>11.0</ele><time>2026-04-04T16:39:46.284Z</time></trkpt><trkpt lat="36.357455" lon="10.4988233"><ele>10.0</ele><time>2026-04-04T16:39:47.285Z</time></trkpt><trkpt lat="36.3572117" lon="10.4986717"><ele>9.0</ele><time>2026-04-04T16:39:48.285Z</time></trkpt><trkpt lat="36.3569683" lon="10.4985167"><ele>9.0</ele><time>2026-04-04T16:39:49.284Z</time></trkpt><trkpt lat="36.3567233" lon="10.4983633"><ele>9.0</ele><time>2026-04-04T16:39:50.285Z</time></trkpt><trkpt lat="36.3564817" lon="10.4982117"><ele>9.5</ele><time>2026-04-04T16:39:51.285Z</time></trkpt><trkpt lat="36.3562433" lon="10.49806"><ele>10.0</ele><time>2026-04-04T16:39:52.284Z</time></trkpt><trkpt lat="36.3560033" lon="10.4979067"><ele>10.0</ele><time>2026-04-04T16:39:53.285Z</time></trkpt><trkpt lat="36.3557633" lon="10.497755"><ele>10.0</ele><time>2026-04-04T16:39:54.285Z</time></trkpt><trkpt lat="36.35552" lon="10.497605"><ele>10.0</ele><time>2026-04-04T16:39:55.284Z</time></trkpt><trkpt lat="36.3552767" lon="10.4974517"><ele>10.0</ele><time>2026-04-04T16:39:56.284Z</time></trkpt><trkpt lat="36.3550317" lon="10.4972933"><ele>10.0</ele><time>2026-04-04T16:39:57.284Z</time></trkpt><trkpt lat="36.3547817" lon="10.497135"><ele>10.0</ele><time>2026-04-04T16:39:58.284Z</time></trkpt><trkpt lat="36.35453" lon="10.496975"><ele>9.5</ele><time>2026-04-04T16:39:59.284Z</time></trkpt><trkpt lat="36.3542783" lon="10.4968167"><ele>9.0</ele><time>2026-04-04T16:40:00.285Z</time></trkpt><trkpt lat="36.3540267" lon="10.4966583"><ele>8.5</ele><time>2026-04-04T16:40:01.284Z</time></trkpt><trkpt lat="36.353775" lon="10.4965"><ele>8.0</ele><time>2026-04-04T16:40:02.285Z</time></trkpt><trkpt lat="36.353525" lon="10.4963417"><ele>8.0</ele><time>2026-04-04T16:40:03.281Z</time></trkpt><trkpt lat="36.3532717" lon="10.496185"><ele>8.0</ele><time>2026-04-04T16:40:04.282Z</time></trkpt><trkpt lat="36.3530217" lon="10.49603"><ele>8.0</ele><time>2026-04-04T16:40:05.282Z</time></trkpt><trkpt lat="36.3527733" lon="10.4958767"><ele>8.0</ele><time>2026-04-04T16:40:06.283Z</time></trkpt><trkpt lat="36.352525" lon="10.49572"><ele>8.0</ele><time>2026-04-04T16:40:07.285Z</time></trkpt><trkpt lat="36.3522783" lon="10.4955667"><ele>8.0</ele><time>2026-04-04T16:40:08.281Z</time></trkpt><trkpt lat="36.3520333" lon="10.49541"><ele>7.0</ele><time>2026-04-04T16:40:09.283Z</time></trkpt><trkpt lat="36.3517883" lon="10.4952567"><ele>6.0</ele><time>2026-04-04T16:40:10.285Z</time></trkpt><trkpt lat="36.3515467" lon="10.4951067"><ele>6.5</ele><time>2026-04-04T16:40:11.285Z</time></trkpt><trkpt lat="36.3513067" lon="10.4949583"><ele>7.0</ele><time>2026-04-04T16:40:12.286Z</time></trkpt><trkpt lat="36.351065" lon="10.4948167"><ele>7.0</ele><time>2026-04-04T16:40:13.281Z</time></trkpt><trkpt lat="36.3508267" lon="10.4946683"><ele>7.0</ele><time>2026-04-04T16:40:14.284Z</time></trkpt><trkpt lat="36.3505917" lon="10.494515"><ele>7.5</ele><time>2026-04-04T16:40:15.284Z</time></trkpt><trkpt lat="36.35035" lon="10.494365"><ele>8.0</ele><time>2026-04-04T16:40:16.284Z</time></trkpt><trkpt lat="36.3501067" lon="10.4942133"><ele>8.0</ele><time>2026-04-04T16:40:17.284Z</time></trkpt><trkpt lat="36.3498633" lon="10.4940633"><ele>8.0</ele><time>2026-04-04T16:40:18.285Z</time></trkpt><trkpt lat="36.34962" lon="10.4939117"><ele>8.0</ele><time>2026-04-04T16:40:19.284Z</time></trkpt><trkpt lat="36.3493733" lon="10.4937583"><ele>8.0</ele><time>2026-04-04T16:40:20.286Z</time></trkpt><trkpt lat="36.3491267" lon="10.4936033"><ele>7.5</ele><time>2026-04-04T16:40:21.284Z</time></trkpt><trkpt lat="36.3488783" lon="10.49345"><ele>7.0</ele><time>2026-04-04T16:40:22.284Z</time></trkpt><trkpt lat="36.3486283" lon="10.4932983"><ele>7.0</ele><time>2026-04-04T16:40:23.284Z</time></trkpt><trkpt lat="36.348375" lon="10.4931433"><ele>7.0</ele><time>2026-04-04T16:40:24.285Z</time></trkpt><trkpt lat="36.3481217" lon="10.49299"><ele>6.0</ele><time>2026-04-04T16:40:25.285Z</time></trkpt><trkpt lat="36.34787" lon="10.492835"><ele>5.0</ele><time>2026-04-04T16:40:26.284Z</time></trkpt><trkpt lat="36.3476167" lon="10.4926783"><ele>5.0</ele><time>2026-04-04T16:40:27.286Z</time></trkpt><trkpt lat="36.3473633" lon="10.4925233"><ele>5.0</ele><time>2026-04-04T16:40:28.285Z</time></trkpt><trkpt lat="36.3471117" lon="10.492365"><ele>5.0</ele><time>2026-04-04T16:40:29.285Z</time></trkpt><trkpt lat="36.3468567" lon="10.4922067"><ele>5.0</ele><time>2026-04-04T16:40:30.284Z</time></trkpt><trkpt lat="36.3466017" lon="10.4920517"><ele>5.0</ele><time>2026-04-04T16:40:31.284Z</time></trkpt><trkpt lat="36.3463467" lon="10.4918917"><ele>5.0</ele><time>2026-04-04T16:40:32.284Z</time></trkpt><trkpt lat="36.34609" lon="10.4917317"><ele>5.0</ele><time>2026-04-04T16:40:33.285Z</time></trkpt><trkpt lat="36.345835" lon="10.49157"><ele>5.0</ele><time>2026-04-04T16:40:34.284Z</time></trkpt><trkpt lat="36.34558" lon="10.4914083"><ele>5.5</ele><time>2026-04-04T16:40:35.285Z</time></trkpt><trkpt lat="36.3453283" lon="10.4912467"><ele>6.0</ele><time>2026-04-04T16:40:36.285Z</time></trkpt><trkpt lat="36.3450717" lon="10.4910833"><ele>6.0</ele><time>2026-04-04T16:40:37.286Z</time></trkpt><trkpt lat="36.3448167" lon="10.4909267"><ele>6.0</ele><time>2026-04-04T16:40:38.284Z</time></trkpt><trkpt lat="36.3445633" lon="10.49077"><ele>6.0</ele><time>2026-04-04T16:40:39.286Z</time></trkpt><trkpt lat="36.3443133" lon="10.4906083"><ele>6.0</ele><time>2026-04-04T16:40:40.284Z</time></trkpt><trkpt lat="36.3440617" lon="10.4904467"><ele>5.5</ele><time>2026-04-04T16:40:41.285Z</time></trkpt><trkpt lat="36.3438083" lon="10.4902833"><ele>5.0</ele><time>2026-04-04T16:40:42.284Z</time></trkpt><trkpt lat="36.343555" lon="10.49012"><ele>5.0</ele><time>2026-04-04T16:40:43.284Z</time></trkpt><trkpt lat="36.3433067" lon="10.489965"><ele>5.0</ele><time>2026-04-04T16:40:44.284Z</time></trkpt><trkpt lat="36.343065" lon="10.48981"><ele>5.0</ele><time>2026-04-04T16:40:45.284Z</time></trkpt><trkpt lat="36.3428267" lon="10.4896533"><ele>5.0</ele><time>2026-04-04T16:40:46.284Z</time></trkpt><trkpt lat="36.3425867" lon="10.4894967"><ele>5.0</ele><time>2026-04-04T16:40:47.284Z</time></trkpt><trkpt lat="36.3423433" lon="10.48934"><ele>5.0</ele><time>2026-04-04T16:40:48.282Z</time></trkpt><trkpt lat="36.3420983" lon="10.4891733"><ele>5.0</ele><time>2026-04-04T16:40:49.286Z</time></trkpt><trkpt lat="36.34185" lon="10.4890067"><ele>5.0</ele><time>2026-04-04T16:40:50.284Z</time></trkpt><trkpt lat="36.341595" lon="10.4888367"><ele>4.0</ele><time>2026-04-04T16:40:51.284Z</time></trkpt><trkpt lat="36.3413433" lon="10.4886633"><ele>3.0</ele><time>2026-04-04T16:40:52.284Z</time></trkpt><trkpt lat="36.3410917" lon="10.4884883"><ele>3.0</ele><time>2026-04-04T16:40:53.284Z</time></trkpt><trkpt lat="36.3408433" lon="10.4883133"><ele>3.0</ele><time>2026-04-04T16:40:54.285Z</time></trkpt><trkpt lat="36.3406" lon="10.4881333"><ele>3.0</ele><time>2026-04-04T16:40:55.284Z</time></trkpt><trkpt lat="36.3403617" lon="10.487955"><ele>3.0</ele><time>2026-04-04T16:40:56.285Z</time></trkpt><trkpt lat="36.340125" lon="10.4877717"><ele>3.0</ele><time>2026-04-04T16:40:57.285Z</time></trkpt><trkpt lat="36.3398917" lon="10.4875867"><ele>3.0</ele><time>2026-04-04T16:40:58.285Z</time></trkpt><trkpt lat="36.3396567" lon="10.4874"><ele>3.0</ele><time>2026-04-04T16:40:59.284Z</time></trkpt><trkpt lat="36.3394233" lon="10.487215"><ele>3.0</ele><time>2026-04-04T16:41:00.285Z</time></trkpt><trkpt lat="36.3391917" lon="10.4870283"><ele>3.0</ele><time>2026-04-04T16:41:01.284Z</time></trkpt><trkpt lat="36.33896" lon="10.48684"><ele>3.0</ele><time>2026-04-04T16:41:02.285Z</time></trkpt><trkpt lat="36.33873" lon="10.48665"><ele>3.0</ele><time>2026-04-04T16:41:03.284Z</time></trkpt><trkpt lat="36.3385033" lon="10.4864583"><ele>3.0</ele><time>2026-04-04T16:41:04.284Z</time></trkpt><trkpt lat="36.3382767" lon="10.4862617"><ele>3.5</ele><time>2026-04-04T16:41:05.284Z</time></trkpt><trkpt lat="36.3380517" lon="10.48606"><ele>4.0</ele><time>2026-04-04T16:41:06.285Z</time></trkpt><trkpt lat="36.33783" lon="10.485855"><ele>4.5</ele><time>2026-04-04T16:41:07.284Z</time></trkpt><trkpt lat="36.3376083" lon="10.4856433"><ele>5.0</ele><time>2026-04-04T16:41:08.284Z</time></trkpt><trkpt lat="36.33739" lon="10.48543"><ele>5.0</ele><time>2026-04-04T16:41:09.286Z</time></trkpt><trkpt lat="36.33717" lon="10.4852117"><ele>5.0</ele><time>2026-04-04T16:41:10.284Z</time></trkpt><trkpt lat="36.3369533" lon="10.4849917"><ele>5.0</ele><time>2026-04-04T16:41:11.284Z</time></trkpt><trkpt lat="36.3367367" lon="10.4847667"><ele>5.0</ele><time>2026-04-04T16:41:12.286Z</time></trkpt><trkpt lat="36.336525" lon="10.4845383"><ele>5.5</ele><time>2026-04-04T16:41:13.284Z</time></trkpt><trkpt lat="36.3363167" lon="10.4843083"><ele>6.0</ele><time>2026-04-04T16:41:14.286Z</time></trkpt><trkpt lat="36.3361117" lon="10.4840783"><ele>6.0</ele><time>2026-04-04T16:41:15.285Z</time></trkpt><trkpt lat="36.3359117" lon="10.4838467"><ele>6.0</ele><time>2026-04-04T16:41:16.285Z</time></trkpt><trkpt lat="36.3357167" lon="10.4836117"><ele>5.5</ele><time>2026-04-04T16:41:17.284Z</time></trkpt><trkpt lat="36.335525" lon="10.4833733"><ele>5.0</ele><time>2026-04-04T16:41:18.285Z</time></trkpt><trkpt lat="36.3353367" lon="10.4831317"><ele>5.5</ele><time>2026-04-04T16:41:19.284Z</time></trkpt><trkpt lat="36.33515" lon="10.4828867"><ele>6.0</ele><time>2026-04-04T16:41:20.284Z</time></trkpt><trkpt lat="36.3349667" lon="10.4826417"><ele>6.0</ele><time>2026-04-04T16:41:21.284Z</time></trkpt><trkpt lat="36.33479" lon="10.4823967"><ele>6.0</ele><time>2026-04-04T16:41:22.285Z</time></trkpt><trkpt lat="36.3346233" lon="10.4821517"><ele>6.0</ele><time>2026-04-04T16:41:23.286Z</time></trkpt><trkpt lat="36.3344583" lon="10.4819033"><ele>6.0</ele><time>2026-04-04T16:41:24.285Z</time></trkpt><trkpt lat="36.3342967" lon="10.481655"><ele>6.0</ele><time>2026-04-04T16:41:25.284Z</time></trkpt><trkpt lat="36.334135" lon="10.4814033"><ele>6.0</ele><time>2026-04-04T16:41:26.284Z</time></trkpt><trkpt lat="36.3339733" lon="10.4811483"><ele>6.0</ele><time>2026-04-04T16:41:27.285Z</time></trkpt><trkpt lat="36.3338183" lon="10.4808883"><ele>6.0</ele><time>2026-04-04T16:41:28.284Z</time></trkpt><trkpt lat="36.333665" lon="10.480625"><ele>5.5</ele><time>2026-04-04T16:41:29.285Z</time></trkpt><trkpt lat="36.3335133" lon="10.48036"><ele>5.0</ele><time>2026-04-04T16:41:30.285Z</time></trkpt><trkpt lat="36.333365" lon="10.480095"><ele>5.0</ele><time>2026-04-04T16:41:31.286Z</time></trkpt><trkpt lat="36.33322" lon="10.4798283"><ele>5.0</ele><time>2026-04-04T16:41:32.284Z</time></trkpt><trkpt lat="36.3330783" lon="10.47956"><ele>5.5</ele><time>2026-04-04T16:41:33.284Z</time></trkpt><trkpt lat="36.3329433" lon="10.4792917"><ele>6.0</ele><time>2026-04-04T16:41:34.285Z</time></trkpt><trkpt lat="36.3328183" lon="10.479025"><ele>6.5</ele><time>2026-04-04T16:41:35.285Z</time></trkpt><trkpt lat="36.332695" lon="10.4787617"><ele>7.0</ele><time>2026-04-04T16:41:36.286Z</time></trkpt><trkpt lat="36.3325767" lon="10.478495"><ele>7.0</ele><time>2026-04-04T16:41:37.285Z</time></trkpt><trkpt lat="36.33246" lon="10.4782317"><ele>7.0</ele><time>2026-04-04T16:41:38.284Z</time></trkpt><trkpt lat="36.3323517" lon="10.4779667"><ele>7.0</ele><time>2026-04-04T16:41:39.285Z</time></trkpt><trkpt lat="36.332245" lon="10.477705"><ele>7.0</ele><time>2026-04-04T16:41:40.284Z</time></trkpt><trkpt lat="36.3321417" lon="10.4774417"><ele>6.5</ele><time>2026-04-04T16:41:41.284Z</time></trkpt><trkpt lat="36.3320333" lon="10.4771683"><ele>6.0</ele><time>2026-04-04T16:41:42.285Z</time></trkpt><trkpt lat="36.33193" lon="10.4768867"><ele>6.0</ele><time>2026-04-04T16:41:43.284Z</time></trkpt><trkpt lat="36.33183" lon="10.4765983"><ele>6.0</ele><time>2026-04-04T16:41:44.285Z</time></trkpt><trkpt lat="36.33173" lon="10.476305"><ele>6.5</ele><time>2026-04-04T16:41:45.284Z</time></trkpt><trkpt lat="36.3316333" lon="10.476005"><ele>7.0</ele><time>2026-04-04T16:41:46.285Z</time></trkpt><trkpt lat="36.331535" lon="10.4756983"><ele>7.0</ele><time>2026-04-04T16:41:47.285Z</time></trkpt><trkpt lat="36.3314367" lon="10.4753883"><ele>7.0</ele><time>2026-04-04T16:41:48.285Z</time></trkpt><trkpt lat="36.33134" lon="10.4750717"><ele>7.0</ele><time>2026-04-04T16:41:49.286Z</time></trkpt><trkpt lat="36.3312433" lon="10.47475"><ele>7.0</ele><time>2026-04-04T16:41:50.285Z</time></trkpt><trkpt lat="36.331145" lon="10.47443"><ele>7.0</ele><time>2026-04-04T16:41:51.284Z</time></trkpt><trkpt lat="36.3310483" lon="10.4741117"><ele>7.0</ele><time>2026-04-04T16:41:52.284Z</time></trkpt><trkpt lat="36.33095" lon="10.47379"><ele>7.5</ele><time>2026-04-04T16:41:53.285Z</time></trkpt><trkpt lat="36.33085" lon="10.47347"><ele>8.0</ele><time>2026-04-04T16:41:54.286Z</time></trkpt><trkpt lat="36.3307517" lon="10.4731467"><ele>8.0</ele><time>2026-04-04T16:41:55.285Z</time></trkpt><trkpt lat="36.3306517" lon="10.4728267"><ele>8.0</ele><time>2026-04-04T16:41:56.285Z</time></trkpt><trkpt lat="36.3305567" lon="10.47251"><ele>8.0</ele><time>2026-04-04T16:41:57.285Z</time></trkpt><trkpt lat="36.3304633" lon="10.472195"><ele>8.0</ele><time>2026-04-04T16:41:58.285Z</time></trkpt><trkpt lat="36.3303733" lon="10.4718833"><ele>8.0</ele><time>2026-04-04T16:41:59.285Z</time></trkpt><trkpt lat="36.3302767" lon="10.4715717"><ele>8.0</ele><time>2026-04-04T16:42:00.286Z</time></trkpt><trkpt lat="36.3301817" lon="10.47126"><ele>7.5</ele><time>2026-04-04T16:42:01.286Z</time></trkpt><trkpt lat="36.3300867" lon="10.4709483"><ele>7.0</ele><time>2026-04-04T16:42:02.286Z</time></trkpt><trkpt lat="36.329995" lon="10.4706383"><ele>7.0</ele><time>2026-04-04T16:42:03.285Z</time></trkpt><trkpt lat="36.3299017" lon="10.470325"><ele>7.0</ele><time>2026-04-04T16:42:04.285Z</time></trkpt><trkpt lat="36.3298083" lon="10.4700117"><ele>7.0</ele><time>2026-04-04T16:42:05.286Z</time></trkpt><trkpt lat="36.3297117" lon="10.4696967"><ele>7.0</ele><time>2026-04-04T16:42:06.285Z</time></trkpt><trkpt lat="36.3296183" lon="10.4693833"><ele>7.5</ele><time>2026-04-04T16:42:07.285Z</time></trkpt><trkpt lat="36.329525" lon="10.4690683"><ele>8.0</ele><time>2026-04-04T16:42:08.285Z</time></trkpt><trkpt lat="36.32943" lon="10.468755"><ele>8.0</ele><time>2026-04-04T16:42:09.285Z</time></trkpt><trkpt lat="36.329335" lon="10.4684417"><ele>8.0</ele><time>2026-04-04T16:42:10.286Z</time></trkpt><trkpt lat="36.32924" lon="10.4681267"><ele>8.5</ele><time>2026-04-04T16:42:11.285Z</time></trkpt><trkpt lat="36.329145" lon="10.4678133"><ele>9.0</ele><time>2026-04-04T16:42:12.285Z</time></trkpt><trkpt lat="36.32905" lon="10.4675017"><ele>9.0</ele><time>2026-04-04T16:42:13.286Z</time></trkpt><trkpt lat="36.3289567" lon="10.4672"><ele>9.0</ele><time>2026-04-04T16:42:14.286Z</time></trkpt><trkpt lat="36.328865" lon="10.4668967"><ele>9.5</ele><time>2026-04-04T16:42:15.285Z</time></trkpt><trkpt lat="36.3287717" lon="10.4665917"><ele>10.0</ele><time>2026-04-04T16:42:16.285Z</time></trkpt><trkpt lat="36.3286783" lon="10.46628"><ele>10.0</ele><time>2026-04-04T16:42:17.285Z</time></trkpt><trkpt lat="36.3285767" lon="10.4659683"><ele>10.0</ele><time>2026-04-04T16:42:18.285Z</time></trkpt><trkpt lat="36.32848" lon="10.4656483"><ele>10.0</ele><time>2026-04-04T16:42:19.284Z</time></trkpt><trkpt lat="36.3283833" lon="10.465325"><ele>10.0</ele><time>2026-04-04T16:42:20.286Z</time></trkpt><trkpt lat="36.328285" lon="10.4649983"><ele>10.0</ele><time>2026-04-04T16:42:21.284Z</time></trkpt><trkpt lat="36.32819" lon="10.4646667"><ele>10.0</ele><time>2026-04-04T16:42:22.284Z</time></trkpt><trkpt lat="36.32809" lon="10.4643383"><ele>10.0</ele><time>2026-04-04T16:42:23.286Z</time></trkpt><trkpt lat="36.32799" lon="10.46401"><ele>10.0</ele><time>2026-04-04T16:42:24.285Z</time></trkpt><trkpt lat="36.3278883" lon="10.4636817"><ele>11.5</ele><time>2026-04-04T16:42:25.286Z</time></trkpt><trkpt lat="36.327785" lon="10.463355"><ele>13.0</ele><time>2026-04-04T16:42:26.285Z</time></trkpt><trkpt lat="36.3276817" lon="10.46303"><ele>13.0</ele><time>2026-04-04T16:42:27.284Z</time></trkpt><trkpt lat="36.3275717" lon="10.4627067"><ele>13.0</ele><time>2026-04-04T16:42:28.285Z</time></trkpt><trkpt lat="36.327455" lon="10.462385"><ele>13.0</ele><time>2026-04-04T16:42:29.285Z</time></trkpt><trkpt lat="36.327335" lon="10.4620667"><ele>13.0</ele><time>2026-04-04T16:42:30.285Z</time></trkpt><trkpt lat="36.3272167" lon="10.4617533"><ele>13.5</ele><time>2026-04-04T16:42:31.286Z</time></trkpt><trkpt lat="36.3270967" lon="10.4614467"><ele>14.0</ele><time>2026-04-04T16:42:32.285Z</time></trkpt><trkpt lat="36.326975" lon="10.461145"><ele>14.0</ele><time>2026-04-04T16:42:33.284Z</time></trkpt><trkpt lat="36.3268517" lon="10.4608467"><ele>14.0</ele><time>2026-04-04T16:42:34.284Z</time></trkpt><trkpt lat="36.326725" lon="10.4605533"><ele>14.0</ele><time>2026-04-04T16:42:35.285Z</time></trkpt><trkpt lat="36.3265933" lon="10.4602633"><ele>14.0</ele><time>2026-04-04T16:42:36.286Z</time></trkpt><trkpt lat="36.3264583" lon="10.4599733"><ele>13.5</ele><time>2026-04-04T16:42:37.286Z</time></trkpt><trkpt lat="36.3263167" lon="10.4596817"><ele>13.0</ele><time>2026-04-04T16:42:38.285Z</time></trkpt><trkpt lat="36.32617" lon="10.4593917"><ele>13.0</ele><time>2026-04-04T16:42:39.285Z</time></trkpt><trkpt lat="36.3260183" lon="10.4591017"><ele>13.0</ele><time>2026-04-04T16:42:40.284Z</time></trkpt><trkpt lat="36.3258583" lon="10.45881"><ele>12.5</ele><time>2026-04-04T16:42:41.285Z</time></trkpt><trkpt lat="36.3256967" lon="10.45852"><ele>12.0</ele><time>2026-04-04T16:42:42.285Z</time></trkpt><trkpt lat="36.3255317" lon="10.4582333"><ele>13.0</ele><time>2026-04-04T16:42:43.285Z</time></trkpt><trkpt lat="36.325365" lon="10.45795"><ele>14.0</ele><time>2026-04-04T16:42:44.286Z</time></trkpt><trkpt lat="36.3251967" lon="10.4576717"><ele>14.0</ele><time>2026-04-04T16:42:45.288Z</time></trkpt><trkpt lat="36.32503" lon="10.4574"><ele>14.0</ele><time>2026-04-04T16:42:46.285Z</time></trkpt><trkpt lat="36.3248667" lon="10.45713"><ele>13.5</ele><time>2026-04-04T16:42:47.285Z</time></trkpt><trkpt lat="36.3246967" lon="10.456865"><ele>13.0</ele><time>2026-04-04T16:42:48.285Z</time></trkpt><trkpt lat="36.3245233" lon="10.4566017"><ele>13.0</ele><time>2026-04-04T16:42:49.286Z</time></trkpt><trkpt lat="36.3243433" lon="10.45634"><ele>13.0</ele><time>2026-04-04T16:42:50.285Z</time></trkpt><trkpt lat="36.32416" lon="10.4560833"><ele>12.0</ele><time>2026-04-04T16:42:51.285Z</time></trkpt><trkpt lat="36.3239717" lon="10.4558283"><ele>11.0</ele><time>2026-04-04T16:42:52.285Z</time></trkpt><trkpt lat="36.32378" lon="10.4555733"><ele>12.0</ele><time>2026-04-04T16:42:53.285Z</time></trkpt><trkpt lat="36.3235833" lon="10.4553217"><ele>13.0</ele><time>2026-04-04T16:42:54.286Z</time></trkpt><trkpt lat="36.3233867" lon="10.455075"><ele>13.0</ele><time>2026-04-04T16:42:55.286Z</time></trkpt><trkpt lat="36.323185" lon="10.4548283"><ele>13.0</ele><time>2026-04-04T16:42:56.286Z</time></trkpt><trkpt lat="36.32298" lon="10.454585"><ele>13.0</ele><time>2026-04-04T16:42:57.285Z</time></trkpt><trkpt lat="36.3227683" lon="10.4543433"><ele>13.0</ele><time>2026-04-04T16:42:58.285Z</time></trkpt><trkpt lat="36.3225583" lon="10.454105"><ele>13.0</ele><time>2026-04-04T16:42:59.286Z</time></trkpt><trkpt lat="36.322345" lon="10.4538667"><ele>13.0</ele><time>2026-04-04T16:43:00.286Z</time></trkpt><trkpt lat="36.3221217" lon="10.45363"><ele>13.0</ele><time>2026-04-04T16:43:01.286Z</time></trkpt><trkpt lat="36.3218983" lon="10.4534"><ele>13.0</ele><time>2026-04-04T16:43:02.285Z</time></trkpt><trkpt lat="36.3216717" lon="10.4531733"><ele>12.5</ele><time>2026-04-04T16:43:03.286Z</time></trkpt><trkpt lat="36.3214383" lon="10.4529517"><ele>12.0</ele><time>2026-04-04T16:43:04.286Z</time></trkpt><trkpt lat="36.3212017" lon="10.45273"><ele>12.0</ele><time>2026-04-04T16:43:05.285Z</time></trkpt><trkpt lat="36.3209617" lon="10.4525117"><ele>12.0</ele><time>2026-04-04T16:43:06.285Z</time></trkpt><trkpt lat="36.32072" lon="10.452295"><ele>13.0</ele><time>2026-04-04T16:43:07.285Z</time></trkpt><trkpt lat="36.3204767" lon="10.452085"><ele>14.0</ele><time>2026-04-04T16:43:08.285Z</time></trkpt><trkpt lat="36.3202283" lon="10.45188"><ele>14.0</ele><time>2026-04-04T16:43:09.286Z</time></trkpt><trkpt lat="36.31998" lon="10.4516833"><ele>14.0</ele><time>2026-04-04T16:43:10.285Z</time></trkpt><trkpt lat="36.31973" lon="10.4514933"><ele>13.5</ele><time>2026-04-04T16:43:11.285Z</time></trkpt><trkpt lat="36.319475" lon="10.4513033"><ele>13.0</ele><time>2026-04-04T16:43:12.285Z</time></trkpt><trkpt lat="36.3192183" lon="10.4511167"><ele>12.5</ele><time>2026-04-04T16:43:13.285Z</time></trkpt><trkpt lat="36.3189583" lon="10.4509333"><ele>12.0</ele><time>2026-04-04T16:43:14.285Z</time></trkpt><trkpt lat="36.318695" lon="10.4507533"><ele>12.0</ele><time>2026-04-04T16:43:15.285Z</time></trkpt><trkpt lat="36.3184317" lon="10.4505817"><ele>12.0</ele><time>2026-04-04T16:43:16.285Z</time></trkpt><trkpt lat="36.318165" lon="10.4504133"><ele>12.0</ele><time>2026-04-04T16:43:17.285Z</time></trkpt><trkpt lat="36.3178983" lon="10.4502483"><ele>12.0</ele><time>2026-04-04T16:43:18.286Z</time></trkpt><trkpt lat="36.3176283" lon="10.4500867"><ele>12.0</ele><time>2026-04-04T16:43:19.286Z</time></trkpt><trkpt lat="36.3173567" lon="10.449935"><ele>12.0</ele><time>2026-04-04T16:43:20.287Z</time></trkpt><trkpt lat="36.3170867" lon="10.4497917"><ele>12.0</ele><time>2026-04-04T16:43:21.285Z</time></trkpt><trkpt lat="36.3168183" lon="10.4496517"><ele>12.0</ele><time>2026-04-04T16:43:22.285Z</time></trkpt><trkpt lat="36.3165533" lon="10.449515"><ele>12.5</ele><time>2026-04-04T16:43:23.285Z</time></trkpt><trkpt lat="36.3162917" lon="10.4493817"><ele>13.0</ele><time>2026-04-04T16:43:24.285Z</time></trkpt><trkpt lat="36.3160333" lon="10.449255"><ele>13.0</ele><time>2026-04-04T16:43:25.286Z</time></trkpt><trkpt lat="36.3157767" lon="10.4491267"><ele>13.0</ele><time>2026-04-04T16:43:26.285Z</time></trkpt><trkpt lat="36.31552" lon="10.4490017"><ele>13.0</ele><time>2026-04-04T16:43:27.285Z</time></trkpt><trkpt lat="36.3152633" lon="10.4488733"><ele>13.0</ele><time>2026-04-04T16:43:28.285Z</time></trkpt><trkpt lat="36.315005" lon="10.448745"><ele>12.5</ele><time>2026-04-04T16:43:29.286Z</time></trkpt><trkpt lat="36.3147467" lon="10.4486167"><ele>12.0</ele><time>2026-04-04T16:43:30.286Z</time></trkpt><trkpt lat="36.31449" lon="10.4484867"><ele>12.0</ele><time>2026-04-04T16:43:31.286Z</time></trkpt><trkpt lat="36.3142317" lon="10.4483583"><ele>12.0</ele><time>2026-04-04T16:43:32.285Z</time></trkpt><trkpt lat="36.31397" lon="10.4482333"><ele>13.0</ele><time>2026-04-04T16:43:33.285Z</time></trkpt><trkpt lat="36.3137" lon="10.44811"><ele>14.0</ele><time>2026-04-04T16:43:34.285Z</time></trkpt><trkpt lat="36.3134217" lon="10.4479867"><ele>13.5</ele><time>2026-04-04T16:43:35.285Z</time></trkpt><trkpt lat="36.31314" lon="10.4478583"><ele>13.0</ele><time>2026-04-04T16:43:36.285Z</time></trkpt><trkpt lat="36.3128667" lon="10.4477283"><ele>12.5</ele><time>2026-04-04T16:43:37.286Z</time></trkpt><trkpt lat="36.31261" lon="10.4476033"><ele>12.0</ele><time>2026-04-04T16:43:38.286Z</time></trkpt><trkpt lat="36.31236" lon="10.4474833"><ele>13.5</ele><time>2026-04-04T16:43:39.286Z</time></trkpt><trkpt lat="36.3121" lon="10.4473583"><ele>15.0</ele><time>2026-04-04T16:43:40.285Z</time></trkpt><trkpt lat="36.3118367" lon="10.4472333"><ele>14.0</ele><time>2026-04-04T16:43:41.285Z</time></trkpt><trkpt lat="36.3115733" lon="10.4471033"><ele>13.0</ele><time>2026-04-04T16:43:42.285Z</time></trkpt><trkpt lat="36.3113083" lon="10.44697"><ele>12.5</ele><time>2026-04-04T16:43:43.285Z</time></trkpt><trkpt lat="36.3110433" lon="10.446835"><ele>12.0</ele><time>2026-04-04T16:43:44.286Z</time></trkpt><trkpt lat="36.31078" lon="10.4466983"><ele>12.5</ele><time>2026-04-04T16:43:45.286Z</time></trkpt><trkpt lat="36.3105133" lon="10.4465633"><ele>13.0</ele><time>2026-04-04T16:43:46.285Z</time></trkpt><trkpt lat="36.310245" lon="10.4464283"><ele>13.0</ele><time>2026-04-04T16:43:47.285Z</time></trkpt><trkpt lat="36.309975" lon="10.4462967"><ele>13.0</ele><time>2026-04-04T16:43:48.286Z</time></trkpt><trkpt lat="36.3097033" lon="10.446165"><ele>12.0</ele><time>2026-04-04T16:43:49.285Z</time></trkpt><trkpt lat="36.3094317" lon="10.446035"><ele>11.0</ele><time>2026-04-04T16:43:50.285Z</time></trkpt><trkpt lat="36.3091583" lon="10.445905"><ele>11.5</ele><time>2026-04-04T16:43:51.285Z</time></trkpt><trkpt lat="36.308885" lon="10.445775"><ele>12.0</ele><time>2026-04-04T16:43:52.285Z</time></trkpt><trkpt lat="36.3086133" lon="10.4456417"><ele>12.0</ele><time>2026-04-04T16:43:53.285Z</time></trkpt><trkpt lat="36.3083417" lon="10.4455067"><ele>12.0</ele><time>2026-04-04T16:43:54.286Z</time></trkpt><trkpt lat="36.3080683" lon="10.4453717"><ele>14.0</ele><time>2026-04-04T16:43:55.285Z</time></trkpt><trkpt lat="36.3078" lon="10.4452383"><ele>16.0</ele><time>2026-04-04T16:43:56.285Z</time></trkpt><trkpt lat="36.3075283" lon="10.4451033"><ele>16.0</ele><time>2026-04-04T16:43:57.285Z</time></trkpt><trkpt lat="36.30726" lon="10.4449733"><ele>16.0</ele><time>2026-04-04T16:43:58.285Z</time></trkpt><trkpt lat="36.3069917" lon="10.4448433"><ele>14.5</ele><time>2026-04-04T16:43:59.285Z</time></trkpt><trkpt lat="36.3067183" lon="10.4447167"><ele>13.0</ele><time>2026-04-04T16:44:00.285Z</time></trkpt><trkpt lat="36.3064483" lon="10.4445933"><ele>13.5</ele><time>2026-04-04T16:44:01.285Z</time></trkpt><trkpt lat="36.3061783" lon="10.4444717"><ele>14.0</ele><time>2026-04-04T16:44:02.285Z</time></trkpt><trkpt lat="36.3059083" lon="10.4443517"><ele>14.0</ele><time>2026-04-04T16:44:03.284Z</time></trkpt><trkpt lat="36.305635" lon="10.4442333"><ele>14.0</ele><time>2026-04-04T16:44:04.284Z</time></trkpt><trkpt lat="36.3053617" lon="10.444115"><ele>13.5</ele><time>2026-04-04T16:44:05.282Z</time></trkpt><trkpt lat="36.305085" lon="10.4439983"><ele>13.0</ele><time>2026-04-04T16:44:06.283Z</time></trkpt><trkpt lat="36.3048067" lon="10.4438817"><ele>13.0</ele><time>2026-04-04T16:44:07.283Z</time></trkpt><trkpt lat="36.304525" lon="10.4437683"><ele>13.0</ele><time>2026-04-04T16:44:08.283Z</time></trkpt><trkpt lat="36.304245" lon="10.4436533"><ele>13.0</ele><time>2026-04-04T16:44:09.283Z</time></trkpt><trkpt lat="36.3039617" lon="10.4435383"><ele>13.0</ele><time>2026-04-04T16:44:10.283Z</time></trkpt><trkpt lat="36.303675" lon="10.4434283"><ele>12.5</ele><time>2026-04-04T16:44:11.286Z</time></trkpt><trkpt lat="36.3033833" lon="10.4433217"><ele>12.0</ele><time>2026-04-04T16:44:12.286Z</time></trkpt><trkpt lat="36.30309" lon="10.4432133"><ele>12.0</ele><time>2026-04-04T16:44:13.285Z</time></trkpt><trkpt lat="36.3027967" lon="10.4431033"><ele>12.0</ele><time>2026-04-04T16:44:14.286Z</time></trkpt><trkpt lat="36.3025017" lon="10.442995"><ele>12.0</ele><time>2026-04-04T16:44:15.285Z</time></trkpt><trkpt lat="36.3022083" lon="10.44289"><ele>12.0</ele><time>2026-04-04T16:44:16.286Z</time></trkpt><trkpt lat="36.3019183" lon="10.4427833"><ele>12.0</ele><time>2026-04-04T16:44:17.286Z</time></trkpt><trkpt lat="36.3016267" lon="10.4426767"><ele>12.0</ele><time>2026-04-04T16:44:18.285Z</time></trkpt><trkpt lat="36.301335" lon="10.4425733"><ele>12.0</ele><time>2026-04-04T16:44:19.286Z</time></trkpt><trkpt lat="36.3010417" lon="10.4424783"><ele>12.0</ele><time>2026-04-04T16:44:20.286Z</time></trkpt><trkpt lat="36.3007467" lon="10.4423883"><ele>12.0</ele><time>2026-04-04T16:44:21.285Z</time></trkpt><trkpt lat="36.3004517" lon="10.4422983"><ele>12.0</ele><time>2026-04-04T16:44:22.285Z</time></trkpt><trkpt lat="36.3001667" lon="10.4422117"><ele>12.0</ele><time>2026-04-04T16:44:23.286Z</time></trkpt><trkpt lat="36.2998933" lon="10.4421367"><ele>12.0</ele><time>2026-04-04T16:44:24.285Z</time></trkpt><trkpt lat="36.2996283" lon="10.442065"><ele>12.0</ele><time>2026-04-04T16:44:25.285Z</time></trkpt><trkpt lat="36.2993617" lon="10.4419933"><ele>12.0</ele><time>2026-04-04T16:44:26.285Z</time></trkpt><trkpt lat="36.2991" lon="10.4419217"><ele>12.5</ele><time>2026-04-04T16:44:27.285Z</time></trkpt><trkpt lat="36.29884" lon="10.4418533"><ele>13.0</ele><time>2026-04-04T16:44:28.286Z</time></trkpt><trkpt lat="36.2985833" lon="10.44178"><ele>13.0</ele><time>2026-04-04T16:44:29.285Z</time></trkpt><trkpt lat="36.2983233" lon="10.4417083"><ele>13.0</ele><time>2026-04-04T16:44:30.285Z</time></trkpt><trkpt lat="36.29806" lon="10.44164"><ele>12.5</ele><time>2026-04-04T16:44:31.285Z</time></trkpt><trkpt lat="36.2977967" lon="10.4415767"><ele>12.0</ele><time>2026-04-04T16:44:32.286Z</time></trkpt><trkpt lat="36.2975383" lon="10.4415117"><ele>12.0</ele><time>2026-04-04T16:44:33.282Z</time></trkpt><trkpt lat="36.297285" lon="10.4414483"><ele>12.0</ele><time>2026-04-04T16:44:34.283Z</time></trkpt><trkpt lat="36.2970367" lon="10.441385"><ele>12.0</ele><time>2026-04-04T16:44:35.282Z</time></trkpt><trkpt lat="36.2967917" lon="10.44132"><ele>12.0</ele><time>2026-04-04T16:44:36.283Z</time></trkpt><trkpt lat="36.29655" lon="10.441255"><ele>12.0</ele><time>2026-04-04T16:44:37.283Z</time></trkpt><trkpt lat="36.2963083" lon="10.44119"><ele>12.0</ele><time>2026-04-04T16:44:38.284Z</time></trkpt><trkpt lat="36.296065" lon="10.4411217"><ele>12.0</ele><time>2026-04-04T16:44:39.283Z</time></trkpt><trkpt lat="36.295815" lon="10.4410533"><ele>12.0</ele><time>2026-04-04T16:44:40.286Z</time></trkpt><trkpt lat="36.2955617" lon="10.440985"><ele>12.0</ele><time>2026-04-04T16:44:41.285Z</time></trkpt><trkpt lat="36.2953033" lon="10.440915"><ele>12.0</ele><time>2026-04-04T16:44:42.285Z</time></trkpt><trkpt lat="36.29504" lon="10.4408417"><ele>12.0</ele><time>2026-04-04T16:44:43.286Z</time></trkpt><trkpt lat="36.294775" lon="10.4407667"><ele>12.0</ele><time>2026-04-04T16:44:44.285Z</time></trkpt><trkpt lat="36.2945067" lon="10.4406917"><ele>11.5</ele><time>2026-04-04T16:44:45.286Z</time></trkpt><trkpt lat="36.294235" lon="10.44061"><ele>11.0</ele><time>2026-04-04T16:44:46.286Z</time></trkpt><trkpt lat="36.2939617" lon="10.4405267"><ele>11.5</ele><time>2026-04-04T16:44:47.286Z</time></trkpt><trkpt lat="36.293685" lon="10.4404433"><ele>12.0</ele><time>2026-04-04T16:44:48.285Z</time></trkpt><trkpt lat="36.2934083" lon="10.4403617"><ele>12.0</ele><time>2026-04-04T16:44:49.285Z</time></trkpt><trkpt lat="36.2931317" lon="10.4402767"><ele>12.0</ele><time>2026-04-04T16:44:50.285Z</time></trkpt><trkpt lat="36.2928517" lon="10.4401867"><ele>12.0</ele><time>2026-04-04T16:44:51.285Z</time></trkpt><trkpt lat="36.29257" lon="10.4400983"><ele>12.0</ele><time>2026-04-04T16:44:52.285Z</time></trkpt><trkpt lat="36.2922883" lon="10.4400033"><ele>12.0</ele><time>2026-04-04T16:44:53.286Z</time></trkpt><trkpt lat="36.2920017" lon="10.4399067"><ele>12.0</ele><time>2026-04-04T16:44:54.285Z</time></trkpt><trkpt lat="36.2917133" lon="10.43981"><ele>12.0</ele><time>2026-04-04T16:44:55.285Z</time></trkpt><trkpt lat="36.29143" lon="10.43971"><ele>12.0</ele><time>2026-04-04T16:44:56.285Z</time></trkpt><trkpt lat="36.2911433" lon="10.4396083"><ele>11.5</ele><time>2026-04-04T16:44:57.285Z</time></trkpt><trkpt lat="36.2908567" lon="10.4395083"><ele>11.0</ele><time>2026-04-04T16:44:58.285Z</time></trkpt><trkpt lat="36.2905733" lon="10.439405"><ele>11.0</ele><time>2026-04-04T16:44:59.285Z</time></trkpt><trkpt lat="36.2902867" lon="10.4393017"><ele>11.0</ele><time>2026-04-04T16:45:00.288Z</time></trkpt><trkpt lat="36.2899983" lon="10.4391983"><ele>11.0</ele><time>2026-04-04T16:45:01.285Z</time></trkpt><trkpt lat="36.289705" lon="10.4390917"><ele>11.0</ele><time>2026-04-04T16:45:02.286Z</time></trkpt><trkpt lat="36.2894117" lon="10.4389783"><ele>11.0</ele><time>2026-04-04T16:45:03.282Z</time></trkpt><trkpt lat="36.2891183" lon="10.4388567"><ele>11.0</ele><time>2026-04-04T16:45:04.284Z</time></trkpt><trkpt lat="36.2888233" lon="10.438735"><ele>10.5</ele><time>2026-04-04T16:45:05.282Z</time></trkpt><trkpt lat="36.288525" lon="10.4386167"><ele>10.0</ele><time>2026-04-04T16:45:06.283Z</time></trkpt><trkpt lat="36.288225" lon="10.4385033"><ele>10.5</ele><time>2026-04-04T16:45:07.282Z</time></trkpt><trkpt lat="36.2879233" lon="10.43839"><ele>11.0</ele><time>2026-04-04T16:45:08.283Z</time></trkpt><trkpt lat="36.287625" lon="10.438275"><ele>11.0</ele><time>2026-04-04T16:45:09.285Z</time></trkpt><trkpt lat="36.287325" lon="10.438165"><ele>11.0</ele><time>2026-04-04T16:45:10.287Z</time></trkpt><trkpt lat="36.2870283" lon="10.4380567"><ele>10.5</ele><time>2026-04-04T16:45:11.285Z</time></trkpt><trkpt lat="36.2867317" lon="10.4379533"><ele>10.0</ele><time>2026-04-04T16:45:12.285Z</time></trkpt><trkpt lat="36.28644" lon="10.4378533"><ele>10.5</ele><time>2026-04-04T16:45:13.285Z</time></trkpt><trkpt lat="36.2861483" lon="10.4377483"><ele>11.0</ele><time>2026-04-04T16:45:14.286Z</time></trkpt><trkpt lat="36.285855" lon="10.4376467"><ele>10.5</ele><time>2026-04-04T16:45:15.285Z</time></trkpt><trkpt lat="36.2855617" lon="10.4375483"><ele>10.0</ele><time>2026-04-04T16:45:16.285Z</time></trkpt><trkpt lat="36.285265" lon="10.4374517"><ele>10.0</ele><time>2026-04-04T16:45:17.285Z</time></trkpt><trkpt lat="36.2849683" lon="10.4373567"><ele>10.0</ele><time>2026-04-04T16:45:18.285Z</time></trkpt><trkpt lat="36.28467" lon="10.4372583"><ele>10.0</ele><time>2026-04-04T16:45:19.286Z</time></trkpt><trkpt lat="36.28437" lon="10.4371617"><ele>10.0</ele><time>2026-04-04T16:45:20.285Z</time></trkpt><trkpt lat="36.2840683" lon="10.437065"><ele>10.0</ele><time>2026-04-04T16:45:21.285Z</time></trkpt><trkpt lat="36.283765" lon="10.4369717"><ele>10.0</ele><time>2026-04-04T16:45:22.284Z</time></trkpt><trkpt lat="36.2834667" lon="10.43688"><ele>10.0</ele><time>2026-04-04T16:45:23.284Z</time></trkpt><trkpt lat="36.2831733" lon="10.4367933"><ele>10.0</ele><time>2026-04-04T16:45:24.284Z</time></trkpt><trkpt lat="36.28289" lon="10.43671"><ele>10.0</ele><time>2026-04-04T16:45:25.284Z</time></trkpt><trkpt lat="36.2826067" lon="10.4366283"><ele>10.0</ele><time>2026-04-04T16:45:26.284Z</time></trkpt><trkpt lat="36.2823217" lon="10.4365433"><ele>9.5</ele><time>2026-04-04T16:45:27.284Z</time></trkpt><trkpt lat="36.2820333" lon="10.4364617"><ele>9.0</ele><time>2026-04-04T16:45:28.285Z</time></trkpt><trkpt lat="36.2817433" lon="10.4363783"><ele>8.5</ele><time>2026-04-04T16:45:29.284Z</time></trkpt><trkpt lat="36.2814483" lon="10.4362967"><ele>8.0</ele><time>2026-04-04T16:45:30.284Z</time></trkpt><trkpt lat="36.281155" lon="10.436215"><ele>8.0</ele><time>2026-04-04T16:45:31.284Z</time></trkpt><trkpt lat="36.2808633" lon="10.4361367"><ele>8.0</ele><time>2026-04-04T16:45:32.284Z</time></trkpt><trkpt lat="36.2805817" lon="10.4360583"><ele>8.5</ele><time>2026-04-04T16:45:33.282Z</time></trkpt><trkpt lat="36.280305" lon="10.4359833"><ele>9.0</ele><time>2026-04-04T16:45:34.282Z</time></trkpt><trkpt lat="36.280025" lon="10.4359067"><ele>8.5</ele><time>2026-04-04T16:45:35.282Z</time></trkpt><trkpt lat="36.2797417" lon="10.4358283"><ele>8.0</ele><time>2026-04-04T16:45:36.283Z</time></trkpt><trkpt lat="36.279455" lon="10.43575"><ele>8.0</ele><time>2026-04-04T16:45:37.282Z</time></trkpt><trkpt lat="36.2791667" lon="10.4356717"><ele>8.0</ele><time>2026-04-04T16:45:38.281Z</time></trkpt><trkpt lat="36.2788783" lon="10.4355933"><ele>8.0</ele><time>2026-04-04T16:45:39.282Z</time></trkpt><trkpt lat="36.27859" lon="10.4355133"><ele>8.0</ele><time>2026-04-04T16:45:40.284Z</time></trkpt><trkpt lat="36.2783017" lon="10.4354317"><ele>9.0</ele><time>2026-04-04T16:45:41.285Z</time></trkpt><trkpt lat="36.278015" lon="10.4353467"><ele>10.0</ele><time>2026-04-04T16:45:42.284Z</time></trkpt><trkpt lat="36.277725" lon="10.43526"><ele>10.0</ele><time>2026-04-04T16:45:43.284Z</time></trkpt><trkpt lat="36.277435" lon="10.4351717"><ele>10.0</ele><time>2026-04-04T16:45:44.286Z</time></trkpt><trkpt lat="36.277145" lon="10.4350817"><ele>10.5</ele><time>2026-04-04T16:45:45.284Z</time></trkpt><trkpt lat="36.276855" lon="10.4349883"><ele>11.0</ele><time>2026-04-04T16:45:46.284Z</time></trkpt><trkpt lat="36.2765683" lon="10.4348933"><ele>10.5</ele><time>2026-04-04T16:45:47.284Z</time></trkpt><trkpt lat="36.2762767" lon="10.4347933"><ele>10.0</ele><time>2026-04-04T16:45:48.284Z</time></trkpt><trkpt lat="36.2759833" lon="10.434695"><ele>10.0</ele><time>2026-04-04T16:45:49.284Z</time></trkpt><trkpt lat="36.275685" lon="10.4345967"><ele>10.0</ele><time>2026-04-04T16:45:50.284Z</time></trkpt><trkpt lat="36.2753817" lon="10.4344933"><ele>10.0</ele><time>2026-04-04T16:45:51.285Z</time></trkpt><trkpt lat="36.27508" lon="10.4343833"><ele>10.0</ele><time>2026-04-04T16:45:52.284Z</time></trkpt><trkpt lat="36.2747767" lon="10.43427"><ele>9.5</ele><time>2026-04-04T16:45:53.284Z</time></trkpt><trkpt lat="36.274475" lon="10.43415"><ele>9.0</ele><time>2026-04-04T16:45:54.286Z</time></trkpt><trkpt lat="36.274175" lon="10.43403"><ele>9.5</ele><time>2026-04-04T16:45:55.285Z</time></trkpt><trkpt lat="36.273875" lon="10.4339117"><ele>10.0</ele><time>2026-04-04T16:45:56.284Z</time></trkpt><trkpt lat="36.2735767" lon="10.43379"><ele>10.5</ele><time>2026-04-04T16:45:57.284Z</time></trkpt><trkpt lat="36.2732783" lon="10.4336667"><ele>11.0</ele><time>2026-04-04T16:45:58.284Z</time></trkpt><trkpt lat="36.27298" lon="10.43354"><ele>11.0</ele><time>2026-04-04T16:45:59.284Z</time></trkpt><trkpt lat="36.2726817" lon="10.4334117"><ele>11.0</ele><time>2026-04-04T16:46:00.284Z</time></trkpt><trkpt lat="36.2723833" lon="10.433285"><ele>11.5</ele><time>2026-04-04T16:46:01.284Z</time></trkpt><trkpt lat="36.2720883" lon="10.4331617"><ele>12.0</ele><time>2026-04-04T16:46:02.284Z</time></trkpt><trkpt lat="36.2718" lon="10.43304"><ele>12.5</ele><time>2026-04-04T16:46:03.285Z</time></trkpt><trkpt lat="36.2715133" lon="10.4329183"><ele>13.0</ele><time>2026-04-04T16:46:04.285Z</time></trkpt><trkpt lat="36.271225" lon="10.432795"><ele>13.0</ele><time>2026-04-04T16:46:05.285Z</time></trkpt><trkpt lat="36.27094" lon="10.432675"><ele>13.0</ele><time>2026-04-04T16:46:06.286Z</time></trkpt><trkpt lat="36.2706533" lon="10.4325533"><ele>13.5</ele><time>2026-04-04T16:46:07.285Z</time></trkpt><trkpt lat="36.2703633" lon="10.4324333"><ele>14.0</ele><time>2026-04-04T16:46:08.284Z</time></trkpt><trkpt lat="36.270075" lon="10.43231"><ele>14.0</ele><time>2026-04-04T16:46:09.284Z</time></trkpt><trkpt lat="36.2697833" lon="10.432185"><ele>14.0</ele><time>2026-04-04T16:46:10.284Z</time></trkpt><trkpt lat="36.2694917" lon="10.4320617"><ele>15.0</ele><time>2026-04-04T16:46:11.284Z</time></trkpt><trkpt lat="36.2692" lon="10.43194"><ele>16.0</ele><time>2026-04-04T16:46:12.284Z</time></trkpt><trkpt lat="36.26891" lon="10.4318167"><ele>16.5</ele><time>2026-04-04T16:46:13.285Z</time></trkpt><trkpt lat="36.2686233" lon="10.431695"><ele>17.0</ele><time>2026-04-04T16:46:14.284Z</time></trkpt><trkpt lat="36.2683367" lon="10.4315733"><ele>16.5</ele><time>2026-04-04T16:46:15.284Z</time></trkpt><trkpt lat="36.26805" lon="10.4314517"><ele>16.0</ele><time>2026-04-04T16:46:16.284Z</time></trkpt><trkpt lat="36.267765" lon="10.4313283"><ele>15.5</ele><time>2026-04-04T16:46:17.285Z</time></trkpt><trkpt lat="36.2674783" lon="10.4312067"><ele>15.0</ele><time>2026-04-04T16:46:18.284Z</time></trkpt><trkpt lat="36.2671917" lon="10.4310817"><ele>16.0</ele><time>2026-04-04T16:46:19.284Z</time></trkpt><trkpt lat="36.2669067" lon="10.4309567"><ele>17.0</ele><time>2026-04-04T16:46:20.285Z</time></trkpt><trkpt lat="36.266625" lon="10.430835"><ele>16.5</ele><time>2026-04-04T16:46:21.284Z</time></trkpt><trkpt lat="36.26635" lon="10.4307183"><ele>16.0</ele><time>2026-04-04T16:46:22.285Z</time></trkpt><trkpt lat="36.2660817" lon="10.430605"><ele>16.0</ele><time>2026-04-04T16:46:23.284Z</time></trkpt><trkpt lat="36.265815" lon="10.4304933"><ele>16.0</ele><time>2026-04-04T16:46:24.284Z</time></trkpt><trkpt lat="36.2655533" lon="10.4303833"><ele>15.5</ele><time>2026-04-04T16:46:25.285Z</time></trkpt><trkpt lat="36.2652917" lon="10.430275"><ele>15.0</ele><time>2026-04-04T16:46:26.284Z</time></trkpt><trkpt lat="36.2650317" lon="10.4301683"><ele>14.0</ele><time>2026-04-04T16:46:27.284Z</time></trkpt><trkpt lat="36.2647717" lon="10.4300617"><ele>13.0</ele><time>2026-04-04T16:46:28.285Z</time></trkpt><trkpt lat="36.2645133" lon="10.4299517"><ele>13.0</ele><time>2026-04-04T16:46:29.284Z</time></trkpt><trkpt lat="36.2642533" lon="10.4298417"><ele>13.0</ele><time>2026-04-04T16:46:30.284Z</time></trkpt><trkpt lat="36.2639967" lon="10.4297317"><ele>15.0</ele><time>2026-04-04T16:46:31.284Z</time></trkpt><trkpt lat="36.2637367" lon="10.42962"><ele>17.0</ele><time>2026-04-04T16:46:32.285Z</time></trkpt><trkpt lat="36.263475" lon="10.4295067"><ele>17.0</ele><time>2026-04-04T16:46:33.284Z</time></trkpt><trkpt lat="36.2632117" lon="10.4293933"><ele>17.0</ele><time>2026-04-04T16:46:34.284Z</time></trkpt><trkpt lat="36.2629467" lon="10.4292817"><ele>17.0</ele><time>2026-04-04T16:46:35.286Z</time></trkpt><trkpt lat="36.2626783" lon="10.4291683"><ele>17.0</ele><time>2026-04-04T16:46:36.285Z</time></trkpt><trkpt lat="36.2624083" lon="10.429055"><ele>16.5</ele><time>2026-04-04T16:46:37.284Z</time></trkpt><trkpt lat="36.2621367" lon="10.42894"><ele>16.0</ele><time>2026-04-04T16:46:38.284Z</time></trkpt><trkpt lat="36.261865" lon="10.4288267"><ele>17.0</ele><time>2026-04-04T16:46:39.285Z</time></trkpt><trkpt lat="36.26159" lon="10.4287167"><ele>18.0</ele><time>2026-04-04T16:46:40.284Z</time></trkpt><trkpt lat="36.2613133" lon="10.4286067"><ele>18.0</ele><time>2026-04-04T16:46:41.284Z</time></trkpt><trkpt lat="36.2610333" lon="10.4284967"><ele>18.0</ele><time>2026-04-04T16:46:42.284Z</time></trkpt><trkpt lat="36.2607517" lon="10.4283883"><ele>18.0</ele><time>2026-04-04T16:46:43.285Z</time></trkpt><trkpt lat="36.260465" lon="10.4282883"><ele>18.0</ele><time>2026-04-04T16:46:44.284Z</time></trkpt><trkpt lat="36.2601783" lon="10.4281883"><ele>18.0</ele><time>2026-04-04T16:46:45.284Z</time></trkpt><trkpt lat="36.25989" lon="10.4280933"><ele>18.0</ele><time>2026-04-04T16:46:46.285Z</time></trkpt><trkpt lat="36.2596017" lon="10.4280017"><ele>18.5</ele><time>2026-04-04T16:46:47.284Z</time></trkpt><trkpt lat="36.2593133" lon="10.4279167"><ele>19.0</ele><time>2026-04-04T16:46:48.284Z</time></trkpt><trkpt lat="36.2590233" lon="10.4278333"><ele>19.0</ele><time>2026-04-04T16:46:49.285Z</time></trkpt><trkpt lat="36.2587333" lon="10.4277517"><ele>19.0</ele><time>2026-04-04T16:46:50.284Z</time></trkpt><trkpt lat="36.2584417" lon="10.4276717"><ele>19.0</ele><time>2026-04-04T16:46:51.284Z</time></trkpt><trkpt lat="36.2581483" lon="10.427595"><ele>19.0</ele><time>2026-04-04T16:46:52.285Z</time></trkpt><trkpt lat="36.257855" lon="10.4275217"><ele>19.5</ele><time>2026-04-04T16:46:53.284Z</time></trkpt><trkpt lat="36.2575617" lon="10.42745"><ele>20.0</ele><time>2026-04-04T16:46:54.285Z</time></trkpt><trkpt lat="36.2572683" lon="10.427375"><ele>20.5</ele><time>2026-04-04T16:46:55.285Z</time></trkpt><trkpt lat="36.2569733" lon="10.4273017"><ele>21.0</ele><time>2026-04-04T16:46:56.284Z</time></trkpt><trkpt lat="36.2566767" lon="10.42723"><ele>21.0</ele><time>2026-04-04T16:46:57.285Z</time></trkpt><trkpt lat="36.2563817" lon="10.4271617"><ele>21.0</ele><time>2026-04-04T16:46:58.284Z</time></trkpt><trkpt lat="36.2560867" lon="10.4270917"><ele>21.5</ele><time>2026-04-04T16:46:59.284Z</time></trkpt><trkpt lat="36.2557917" lon="10.4270233"><ele>22.0</ele><time>2026-04-04T16:47:00.286Z</time></trkpt><trkpt lat="36.2554983" lon="10.4269567"><ele>22.0</ele><time>2026-04-04T16:47:01.284Z</time></trkpt><trkpt lat="36.255205" lon="10.4268933"><ele>22.0</ele><time>2026-04-04T16:47:02.284Z</time></trkpt><trkpt lat="36.2549133" lon="10.4268267"><ele>22.5</ele><time>2026-04-04T16:47:03.285Z</time></trkpt><trkpt lat="36.254625" lon="10.4267617"><ele>23.0</ele><time>2026-04-04T16:47:04.286Z</time></trkpt><trkpt lat="36.2543383" lon="10.4266867"><ele>23.0</ele><time>2026-04-04T16:47:05.284Z</time></trkpt><trkpt lat="36.2540483" lon="10.426605"><ele>23.0</ele><time>2026-04-04T16:47:06.285Z</time></trkpt><trkpt lat="36.2537567" lon="10.4265267"><ele>22.0</ele><time>2026-04-04T16:47:07.285Z</time></trkpt><trkpt lat="36.25346" lon="10.4264567"><ele>21.0</ele><time>2026-04-04T16:47:08.284Z</time></trkpt><trkpt lat="36.2531633" lon="10.4263883"><ele>22.0</ele><time>2026-04-04T16:47:09.284Z</time></trkpt><trkpt lat="36.2528667" lon="10.4263183"><ele>23.0</ele><time>2026-04-04T16:47:10.285Z</time></trkpt><trkpt lat="36.2525683" lon="10.42625"><ele>23.5</ele><time>2026-04-04T16:47:11.285Z</time></trkpt><trkpt lat="36.2522717" lon="10.4261817"><ele>24.0</ele><time>2026-04-04T16:47:12.284Z</time></trkpt><trkpt lat="36.2519717" lon="10.4261083"><ele>24.0</ele><time>2026-04-04T16:47:13.284Z</time></trkpt><trkpt lat="36.2516717" lon="10.426035"><ele>24.0</ele><time>2026-04-04T16:47:14.284Z</time></trkpt><trkpt lat="36.25137" lon="10.4259633"><ele>24.5</ele><time>2026-04-04T16:47:15.285Z</time></trkpt><trkpt lat="36.2510683" lon="10.42589"><ele>25.0</ele><time>2026-04-04T16:47:16.284Z</time></trkpt><trkpt lat="36.250765" lon="10.4258183"><ele>25.0</ele><time>2026-04-04T16:47:17.284Z</time></trkpt><trkpt lat="36.2504617" lon="10.4257433"><ele>25.0</ele><time>2026-04-04T16:47:18.285Z</time></trkpt><trkpt lat="36.25016" lon="10.4256667"><ele>25.0</ele><time>2026-04-04T16:47:19.285Z</time></trkpt><trkpt lat="36.24986" lon="10.4255883"><ele>25.0</ele><time>2026-04-04T16:47:20.286Z</time></trkpt><trkpt lat="36.249565" lon="10.4255083"><ele>27.5</ele><time>2026-04-04T16:47:21.284Z</time></trkpt><trkpt lat="36.24927" lon="10.4254217"><ele>30.0</ele><time>2026-04-04T16:47:22.284Z</time></trkpt><trkpt lat="36.2489783" lon="10.42533"><ele>29.0</ele><time>2026-04-04T16:47:23.285Z</time></trkpt><trkpt lat="36.248685" lon="10.4252367"><ele>28.0</ele><time>2026-04-04T16:47:24.285Z</time></trkpt><trkpt lat="36.248395" lon="10.4251433"><ele>28.0</ele><time>2026-04-04T16:47:25.286Z</time></trkpt><trkpt lat="36.2481067" lon="10.425045"><ele>28.0</ele><time>2026-04-04T16:47:26.284Z</time></trkpt><trkpt lat="36.2478183" lon="10.42494"><ele>28.0</ele><time>2026-04-04T16:47:27.285Z</time></trkpt><trkpt lat="36.2475333" lon="10.4248317"><ele>28.0</ele><time>2026-04-04T16:47:28.284Z</time></trkpt><trkpt lat="36.2472533" lon="10.42472"><ele>30.0</ele><time>2026-04-04T16:47:29.285Z</time></trkpt><trkpt lat="36.2469733" lon="10.4246033"><ele>32.0</ele><time>2026-04-04T16:47:30.285Z</time></trkpt><trkpt lat="36.2466917" lon="10.4244867"><ele>31.0</ele><time>2026-04-04T16:47:31.285Z</time></trkpt><trkpt lat="36.24641" lon="10.424365"><ele>30.0</ele><time>2026-04-04T16:47:32.284Z</time></trkpt><trkpt lat="36.24613" lon="10.4242417"><ele>30.0</ele><time>2026-04-04T16:47:33.283Z</time></trkpt><trkpt lat="36.2458483" lon="10.4241133"><ele>30.0</ele><time>2026-04-04T16:47:34.282Z</time></trkpt><trkpt lat="36.2455683" lon="10.4239833"><ele>28.5</ele><time>2026-04-04T16:47:35.282Z</time></trkpt><trkpt lat="36.24529" lon="10.4238517"><ele>27.0</ele><time>2026-04-04T16:47:36.282Z</time></trkpt><trkpt lat="36.2450133" lon="10.4237133"><ele>26.5</ele><time>2026-04-04T16:47:37.282Z</time></trkpt><trkpt lat="36.2447383" lon="10.4235717"><ele>26.0</ele><time>2026-04-04T16:47:38.282Z</time></trkpt><trkpt lat="36.244465" lon="10.4234283"><ele>26.0</ele><time>2026-04-04T16:47:39.283Z</time></trkpt><trkpt lat="36.2441933" lon="10.4232833"><ele>26.0</ele><time>2026-04-04T16:47:40.286Z</time></trkpt><trkpt lat="36.2439233" lon="10.4231317"><ele>28.0</ele><time>2026-04-04T16:47:41.285Z</time></trkpt><trkpt lat="36.2436583" lon="10.4229783"><ele>30.0</ele><time>2026-04-04T16:47:42.284Z</time></trkpt><trkpt lat="36.2433983" lon="10.42283"><ele>30.0</ele><time>2026-04-04T16:47:43.285Z</time></trkpt><trkpt lat="36.2431433" lon="10.4226817"><ele>30.0</ele><time>2026-04-04T16:47:44.282Z</time></trkpt><trkpt lat="36.2428883" lon="10.422525"><ele>30.5</ele><time>2026-04-04T16:47:45.282Z</time></trkpt><trkpt lat="36.242635" lon="10.4223617"><ele>31.0</ele><time>2026-04-04T16:47:46.283Z</time></trkpt><trkpt lat="36.2423867" lon="10.42219"><ele>32.5</ele><time>2026-04-04T16:47:47.282Z</time></trkpt><trkpt lat="36.2421433" lon="10.4220117"><ele>34.0</ele><time>2026-04-04T16:47:48.283Z</time></trkpt><trkpt lat="36.2419" lon="10.42182"><ele>34.0</ele><time>2026-04-04T16:47:49.282Z</time></trkpt><trkpt lat="36.2416617" lon="10.4216183"><ele>34.0</ele><time>2026-04-04T16:47:50.281Z</time></trkpt><trkpt lat="36.2414267" lon="10.4214067"><ele>35.0</ele><time>2026-04-04T16:47:51.283Z</time></trkpt><trkpt lat="36.241195" lon="10.4211817"><ele>36.0</ele><time>2026-04-04T16:47:52.282Z</time></trkpt><trkpt lat="36.24097" lon="10.42095"><ele>36.0</ele><time>2026-04-04T16:47:53.284Z</time></trkpt><trkpt lat="36.2407483" lon="10.4207117"><ele>36.0</ele><time>2026-04-04T16:47:54.282Z</time></trkpt><trkpt lat="36.2405333" lon="10.42046"><ele>36.5</ele><time>2026-04-04T16:47:55.283Z</time></trkpt><trkpt lat="36.2403267" lon="10.4201967"><ele>37.0</ele><time>2026-04-04T16:47:56.282Z</time></trkpt><trkpt lat="36.240125" lon="10.4199233"><ele>37.5</ele><time>2026-04-04T16:47:57.282Z</time></trkpt><trkpt lat="36.2399333" lon="10.41965"><ele>38.0</ele><time>2026-04-04T16:47:58.282Z</time></trkpt><trkpt lat="36.2397533" lon="10.4193783"><ele>38.0</ele><time>2026-04-04T16:47:59.282Z</time></trkpt><trkpt lat="36.2395833" lon="10.4191033"><ele>38.0</ele><time>2026-04-04T16:48:00.283Z</time></trkpt><trkpt lat="36.239415" lon="10.4188217"><ele>39.0</ele><time>2026-04-04T16:48:01.285Z</time></trkpt><trkpt lat="36.2392517" lon="10.4185383"><ele>40.0</ele><time>2026-04-04T16:48:02.285Z</time></trkpt><trkpt lat="36.2390883" lon="10.4182533"><ele>41.5</ele><time>2026-04-04T16:48:03.285Z</time></trkpt><trkpt lat="36.238925" lon="10.4179683"><ele>43.0</ele><time>2026-04-04T16:48:04.284Z</time></trkpt><trkpt lat="36.23876" lon="10.4176817"><ele>43.0</ele><time>2026-04-04T16:48:05.284Z</time></trkpt><trkpt lat="36.2385917" lon="10.4174"><ele>43.0</ele><time>2026-04-04T16:48:06.285Z</time></trkpt><trkpt lat="36.2384133" lon="10.41712"><ele>42.0</ele><time>2026-04-04T16:48:07.284Z</time></trkpt><trkpt lat="36.2382267" lon="10.4168433"><ele>41.0</ele><time>2026-04-04T16:48:08.284Z</time></trkpt><trkpt lat="36.2380333" lon="10.41657"><ele>40.0</ele><time>2026-04-04T16:48:09.284Z</time></trkpt><trkpt lat="36.2378367" lon="10.4163083"><ele>39.0</ele><time>2026-04-04T16:48:10.285Z</time></trkpt><trkpt lat="36.237635" lon="10.4160533"><ele>39.0</ele><time>2026-04-04T16:48:11.285Z</time></trkpt><trkpt lat="36.2374283" lon="10.4158083"><ele>39.0</ele><time>2026-04-04T16:48:12.286Z</time></trkpt><trkpt lat="36.23722" lon="10.4155733"><ele>40.5</ele><time>2026-04-04T16:48:13.285Z</time></trkpt><trkpt lat="36.2370033" lon="10.4153467"><ele>42.0</ele><time>2026-04-04T16:48:14.284Z</time></trkpt><trkpt lat="36.2367817" lon="10.4151317"><ele>42.0</ele><time>2026-04-04T16:48:15.284Z</time></trkpt><trkpt lat="36.2365533" lon="10.4149267"><ele>42.0</ele><time>2026-04-04T16:48:16.284Z</time></trkpt><trkpt lat="36.2363217" lon="10.4147333"><ele>42.5</ele><time>2026-04-04T16:48:17.285Z</time></trkpt><trkpt lat="36.2360867" lon="10.41455"><ele>43.0</ele><time>2026-04-04T16:48:18.283Z</time></trkpt><trkpt lat="36.2358417" lon="10.4143733"><ele>41.5</ele><time>2026-04-04T16:48:19.285Z</time></trkpt><trkpt lat="36.23559" lon="10.414205"><ele>40.0</ele><time>2026-04-04T16:48:20.284Z</time></trkpt><trkpt lat="36.2353367" lon="10.4140433"><ele>40.0</ele><time>2026-04-04T16:48:21.281Z</time></trkpt><trkpt lat="36.23508" lon="10.41389"><ele>40.0</ele><time>2026-04-04T16:48:22.285Z</time></trkpt><trkpt lat="36.234825" lon="10.41375"><ele>41.5</ele><time>2026-04-04T16:48:23.285Z</time></trkpt><trkpt lat="36.2345667" lon="10.4136217"><ele>43.0</ele><time>2026-04-04T16:48:24.285Z</time></trkpt><trkpt lat="36.2343067" lon="10.4135083"><ele>43.0</ele><time>2026-04-04T16:48:25.285Z</time></trkpt><trkpt lat="36.234045" lon="10.4134017"><ele>43.0</ele><time>2026-04-04T16:48:26.285Z</time></trkpt><trkpt lat="36.233775" lon="10.4133067"><ele>44.0</ele><time>2026-04-04T16:48:27.286Z</time></trkpt><trkpt lat="36.2334983" lon="10.4132217"><ele>45.0</ele><time>2026-04-04T16:48:28.285Z</time></trkpt><trkpt lat="36.2332183" lon="10.4131433"><ele>45.5</ele><time>2026-04-04T16:48:29.286Z</time></trkpt><trkpt lat="36.2329383" lon="10.4130733"><ele>46.0</ele><time>2026-04-04T16:48:30.285Z</time></trkpt><trkpt lat="36.2326567" lon="10.4130183"><ele>47.5</ele><time>2026-04-04T16:48:31.284Z</time></trkpt><trkpt lat="36.2323717" lon="10.4129767"><ele>49.0</ele><time>2026-04-04T16:48:32.284Z</time></trkpt><trkpt lat="36.2320817" lon="10.4129433"><ele>50.0</ele><time>2026-04-04T16:48:33.284Z</time></trkpt><trkpt lat="36.2317867" lon="10.412925"><ele>51.0</ele><time>2026-04-04T16:48:34.284Z</time></trkpt><trkpt lat="36.2314867" lon="10.41292"><ele>52.5</ele><time>2026-04-04T16:48:35.284Z</time></trkpt><trkpt lat="36.2311833" lon="10.4129217"><ele>54.0</ele><time>2026-04-04T16:48:36.286Z</time></trkpt><trkpt lat="36.2308783" lon="10.4129367"><ele>52.5</ele><time>2026-04-04T16:48:37.285Z</time></trkpt><trkpt lat="36.230575" lon="10.412965"><ele>51.0</ele><time>2026-04-04T16:48:38.284Z</time></trkpt><trkpt lat="36.2302717" lon="10.413005"><ele>49.0</ele><time>2026-04-04T16:48:39.285Z</time></trkpt><trkpt lat="36.22997" lon="10.4130517"><ele>47.0</ele><time>2026-04-04T16:48:40.284Z</time></trkpt><trkpt lat="36.22967" lon="10.4131117"><ele>46.5</ele><time>2026-04-04T16:48:41.285Z</time></trkpt><trkpt lat="36.22937" lon="10.413185"><ele>46.0</ele><time>2026-04-04T16:48:42.285Z</time></trkpt><trkpt lat="36.2290717" lon="10.4132717"><ele>46.0</ele><time>2026-04-04T16:48:43.285Z</time></trkpt><trkpt lat="36.2287767" lon="10.4133717"><ele>46.0</ele><time>2026-04-04T16:48:44.284Z</time></trkpt><trkpt lat="36.2284833" lon="10.413485"><ele>46.0</ele><time>2026-04-04T16:48:45.285Z</time></trkpt><trkpt lat="36.2281917" lon="10.41361"><ele>46.0</ele><time>2026-04-04T16:48:46.285Z</time></trkpt><trkpt lat="36.227905" lon="10.413745"><ele>43.5</ele><time>2026-04-04T16:48:47.285Z</time></trkpt><trkpt lat="36.227625" lon="10.4138817"><ele>41.0</ele><time>2026-04-04T16:48:48.285Z</time></trkpt><trkpt lat="36.2273533" lon="10.4140233"><ele>41.0</ele><time>2026-04-04T16:48:49.285Z</time></trkpt><trkpt lat="36.2270833" lon="10.4141633"><ele>41.0</ele><time>2026-04-04T16:48:50.285Z</time></trkpt><trkpt lat="36.2268217" lon="10.4143017"><ele>41.0</ele><time>2026-04-04T16:48:51.285Z</time></trkpt><trkpt lat="36.226565" lon="10.4144383"><ele>41.0</ele><time>2026-04-04T16:48:52.284Z</time></trkpt><trkpt lat="36.2263083" lon="10.4145733"><ele>38.0</ele><time>2026-04-04T16:48:53.286Z</time></trkpt><trkpt lat="36.22605" lon="10.4147133"><ele>35.0</ele><time>2026-04-04T16:48:54.285Z</time></trkpt><trkpt lat="36.22579" lon="10.4148533"><ele>35.0</ele><time>2026-04-04T16:48:55.285Z</time></trkpt><trkpt lat="36.225525" lon="10.4149933"><ele>35.0</ele><time>2026-04-04T16:48:56.282Z</time></trkpt><trkpt lat="36.22526" lon="10.4151367"><ele>35.0</ele><time>2026-04-04T16:48:57.285Z</time></trkpt><trkpt lat="36.2249917" lon="10.4152783"><ele>35.0</ele><time>2026-04-04T16:48:58.285Z</time></trkpt><trkpt lat="36.224725" lon="10.4154217"><ele>34.5</ele><time>2026-04-04T16:48:59.285Z</time></trkpt><trkpt lat="36.224455" lon="10.4155667"><ele>34.0</ele><time>2026-04-04T16:49:00.285Z</time></trkpt><trkpt lat="36.2241817" lon="10.4157133"><ele>34.5</ele><time>2026-04-04T16:49:01.285Z</time></trkpt><trkpt lat="36.2239083" lon="10.4158567"><ele>35.0</ele><time>2026-04-04T16:49:02.285Z</time></trkpt><trkpt lat="36.2236317" lon="10.4160033"><ele>35.0</ele><time>2026-04-04T16:49:03.285Z</time></trkpt><trkpt lat="36.2233517" lon="10.4161517"><ele>35.0</ele><time>2026-04-04T16:49:04.285Z</time></trkpt><trkpt lat="36.2230717" lon="10.4163"><ele>34.0</ele><time>2026-04-04T16:49:05.282Z</time></trkpt><trkpt lat="36.22279" lon="10.41645"><ele>33.0</ele><time>2026-04-04T16:49:06.285Z</time></trkpt><trkpt lat="36.222505" lon="10.4166"><ele>33.5</ele><time>2026-04-04T16:49:07.282Z</time></trkpt><trkpt lat="36.2222183" lon="10.4167517"><ele>34.0</ele><time>2026-04-04T16:49:08.285Z</time></trkpt><trkpt lat="36.2219283" lon="10.4169067"><ele>34.0</ele><time>2026-04-04T16:49:09.285Z</time></trkpt><trkpt lat="36.2216417" lon="10.41706"><ele>34.0</ele><time>2026-04-04T16:49:10.282Z</time></trkpt><trkpt lat="36.2213533" lon="10.4172117"><ele>33.5</ele><time>2026-04-04T16:49:11.286Z</time></trkpt><trkpt lat="36.2210633" lon="10.4173617"><ele>33.0</ele><time>2026-04-04T16:49:12.286Z</time></trkpt><trkpt lat="36.220775" lon="10.4175133"><ele>32.5</ele><time>2026-04-04T16:49:13.282Z</time></trkpt><trkpt lat="36.2204883" lon="10.4176667"><ele>32.0</ele><time>2026-04-04T16:49:14.286Z</time></trkpt><trkpt lat="36.2202067" lon="10.4178217"><ele>32.0</ele><time>2026-04-04T16:49:15.282Z</time></trkpt><trkpt lat="36.2199267" lon="10.4179717"><ele>32.0</ele><time>2026-04-04T16:49:16.286Z</time></trkpt><trkpt lat="36.2196483" lon="10.4181167"><ele>31.0</ele><time>2026-04-04T16:49:17.285Z</time></trkpt><trkpt lat="36.2193717" lon="10.4182633"><ele>30.0</ele><time>2026-04-04T16:49:18.286Z</time></trkpt><trkpt lat="36.219095" lon="10.4184083"><ele>30.0</ele><time>2026-04-04T16:49:19.285Z</time></trkpt><trkpt lat="36.21882" lon="10.4185567"><ele>30.0</ele><time>2026-04-04T16:49:20.284Z</time></trkpt><trkpt lat="36.2185483" lon="10.4187017"><ele>29.5</ele><time>2026-04-04T16:49:21.284Z</time></trkpt><trkpt lat="36.2182783" lon="10.418845"><ele>29.0</ele><time>2026-04-04T16:49:22.284Z</time></trkpt><trkpt lat="36.218015" lon="10.4189883"><ele>27.5</ele><time>2026-04-04T16:49:23.284Z</time></trkpt><trkpt lat="36.2177583" lon="10.4191333"><ele>26.0</ele><time>2026-04-04T16:49:24.285Z</time></trkpt><trkpt lat="36.2175067" lon="10.4192833"><ele>26.0</ele><time>2026-04-04T16:49:25.284Z</time></trkpt><trkpt lat="36.2172567" lon="10.4194433"><ele>26.0</ele><time>2026-04-04T16:49:26.281Z</time></trkpt><trkpt lat="36.2170067" lon="10.4196067"><ele>26.0</ele><time>2026-04-04T16:49:27.282Z</time></trkpt><trkpt lat="36.216755" lon="10.41978"><ele>26.0</ele><time>2026-04-04T16:49:28.283Z</time></trkpt><trkpt lat="36.2165033" lon="10.4199583"><ele>25.0</ele><time>2026-04-04T16:49:29.283Z</time></trkpt><trkpt lat="36.2162533" lon="10.4201467"><ele>24.0</ele><time>2026-04-04T16:49:30.282Z</time></trkpt><trkpt lat="36.2160033" lon="10.420335"><ele>24.0</ele><time>2026-04-04T16:49:31.285Z</time></trkpt><trkpt lat="36.2157567" lon="10.420525"><ele>24.0</ele><time>2026-04-04T16:49:32.283Z</time></trkpt><trkpt lat="36.2155117" lon="10.42072"><ele>23.5</ele><time>2026-04-04T16:49:33.282Z</time></trkpt><trkpt lat="36.2152683" lon="10.4209233"><ele>23.0</ele><time>2026-04-04T16:49:34.284Z</time></trkpt><trkpt lat="36.2150267" lon="10.4211283"><ele>24.0</ele><time>2026-04-04T16:49:35.282Z</time></trkpt><trkpt lat="36.2147867" lon="10.4213433"><ele>25.0</ele><time>2026-04-04T16:49:36.283Z</time></trkpt><trkpt lat="36.21455" lon="10.4215633"><ele>25.0</ele><time>2026-04-04T16:49:37.283Z</time></trkpt><trkpt lat="36.2143133" lon="10.4217867"><ele>25.0</ele><time>2026-04-04T16:49:38.282Z</time></trkpt><trkpt lat="36.2140783" lon="10.4220183"><ele>23.5</ele><time>2026-04-04T16:49:39.284Z</time></trkpt><trkpt lat="36.213845" lon="10.422255"><ele>22.0</ele><time>2026-04-04T16:49:40.284Z</time></trkpt><trkpt lat="36.2136167" lon="10.4224917"><ele>22.0</ele><time>2026-04-04T16:49:41.283Z</time></trkpt><trkpt lat="36.213395" lon="10.42273"><ele>22.0</ele><time>2026-04-04T16:49:42.284Z</time></trkpt><trkpt lat="36.21318" lon="10.4229633"><ele>21.0</ele><time>2026-04-04T16:49:43.283Z</time></trkpt><trkpt lat="36.212975" lon="10.42319"><ele>20.0</ele><time>2026-04-04T16:49:44.282Z</time></trkpt><trkpt lat="36.2127767" lon="10.42341"><ele>20.0</ele><time>2026-04-04T16:49:45.285Z</time></trkpt><trkpt lat="36.2125833" lon="10.4236267"><ele>20.0</ele><time>2026-04-04T16:49:46.283Z</time></trkpt><trkpt lat="36.2123933" lon="10.4238433"><ele>19.5</ele><time>2026-04-04T16:49:47.285Z</time></trkpt><trkpt lat="36.212205" lon="10.4240633"><ele>19.0</ele><time>2026-04-04T16:49:48.285Z</time></trkpt><trkpt lat="36.2120167" lon="10.4242817"><ele>19.0</ele><time>2026-04-04T16:49:49.285Z</time></trkpt><trkpt lat="36.2118267" lon="10.4244983"><ele>19.0</ele><time>2026-04-04T16:49:50.285Z</time></trkpt><trkpt lat="36.2116383" lon="10.424715"><ele>18.5</ele><time>2026-04-04T16:49:51.285Z</time></trkpt><trkpt lat="36.2114517" lon="10.4249317"><ele>18.0</ele><time>2026-04-04T16:49:52.285Z</time></trkpt><trkpt lat="36.211265" lon="10.425145"><ele>18.0</ele><time>2026-04-04T16:49:53.286Z</time></trkpt><trkpt lat="36.2110817" lon="10.425355"><ele>18.0</ele><time>2026-04-04T16:49:54.286Z</time></trkpt><trkpt lat="36.2109017" lon="10.4255617"><ele>18.0</ele><time>2026-04-04T16:49:55.285Z</time></trkpt><trkpt lat="36.2107233" lon="10.4257667"><ele>18.0</ele><time>2026-04-04T16:49:56.285Z</time></trkpt><trkpt lat="36.2105433" lon="10.4259683"><ele>18.0</ele><time>2026-04-04T16:49:57.285Z</time></trkpt><trkpt lat="36.21036" lon="10.42617"><ele>18.0</ele><time>2026-04-04T16:49:58.285Z</time></trkpt><trkpt lat="36.2101783" lon="10.4263717"><ele>18.0</ele><time>2026-04-04T16:49:59.286Z</time></trkpt><trkpt lat="36.209995" lon="10.426575"><ele>18.0</ele><time>2026-04-04T16:50:00.285Z</time></trkpt><trkpt lat="36.2098067" lon="10.4267767"><ele>18.5</ele><time>2026-04-04T16:50:01.285Z</time></trkpt><trkpt lat="36.2096133" lon="10.426975"><ele>19.0</ele><time>2026-04-04T16:50:02.286Z</time></trkpt><trkpt lat="36.20942" lon="10.4271683"><ele>19.0</ele><time>2026-04-04T16:50:03.285Z</time></trkpt><trkpt lat="36.2092317" lon="10.427355"><ele>19.0</ele><time>2026-04-04T16:50:04.283Z</time></trkpt><trkpt lat="36.209045" lon="10.4275383"><ele>20.5</ele><time>2026-04-04T16:50:05.283Z</time></trkpt><trkpt lat="36.208855" lon="10.4277217"><ele>22.0</ele><time>2026-04-04T16:50:06.284Z</time></trkpt><trkpt lat="36.208665" lon="10.4279"><ele>20.0</ele><time>2026-04-04T16:50:07.283Z</time></trkpt><trkpt lat="36.2084717" lon="10.4280783"><ele>18.0</ele><time>2026-04-04T16:50:08.284Z</time></trkpt><trkpt lat="36.208275" lon="10.4282517"><ele>18.0</ele><time>2026-04-04T16:50:09.283Z</time></trkpt><trkpt lat="36.20808" lon="10.428415"><ele>18.0</ele><time>2026-04-04T16:50:10.284Z</time></trkpt><trkpt lat="36.2078933" lon="10.42857"><ele>18.0</ele><time>2026-04-04T16:50:11.284Z</time></trkpt><trkpt lat="36.2077033" lon="10.4287217"><ele>18.0</ele><time>2026-04-04T16:50:12.284Z</time></trkpt><trkpt lat="36.2075117" lon="10.4288733"><ele>16.666666666666668</ele><time>2026-04-04T16:50:13.283Z</time></trkpt><trkpt lat="36.20732" lon="10.4290183"><ele>15.333333333333334</ele><time>2026-04-04T16:50:14.282Z</time></trkpt><trkpt lat="36.20713" lon="10.4291617"><ele>14.0</ele><time>2026-04-04T16:50:15.287Z</time></trkpt><trkpt lat="36.2069383" lon="10.4292983"><ele>14.0</ele><time>2026-04-04T16:50:16.285Z</time></trkpt><trkpt lat="36.206745" lon="10.4294283"><ele>14.0</ele><time>2026-04-04T16:50:17.285Z</time></trkpt><trkpt lat="36.2065517" lon="10.429555"><ele>14.0</ele><time>2026-04-04T16:50:18.285Z</time></trkpt><trkpt lat="36.2063567" lon="10.4296817"><ele>13.666666666666668</ele><time>2026-04-04T16:50:19.286Z</time></trkpt><trkpt lat="36.2061583" lon="10.4298067"><ele>13.333333333333332</ele><time>2026-04-04T16:50:20.285Z</time></trkpt><trkpt lat="36.20596" lon="10.4299317"><ele>13.0</ele><time>2026-04-04T16:50:21.286Z</time></trkpt><trkpt lat="36.20576" lon="10.4300533"><ele>12.666666666666666</ele><time>2026-04-04T16:50:22.285Z</time></trkpt><trkpt lat="36.2055617" lon="10.4301683"><ele>12.333333333333332</ele><time>2026-04-04T16:50:23.285Z</time></trkpt><trkpt lat="36.205365" lon="10.4302767"><ele>12.0</ele><time>2026-04-04T16:50:24.286Z</time></trkpt><trkpt lat="36.2051733" lon="10.4303783"><ele>11.666666666666666</ele><time>2026-04-04T16:50:25.285Z</time></trkpt><trkpt lat="36.20498" lon="10.43048"><ele>11.333333333333332</ele><time>2026-04-04T16:50:26.283Z</time></trkpt><trkpt lat="36.2047867" lon="10.4305817"><ele>11.0</ele><time>2026-04-04T16:50:27.282Z</time></trkpt><trkpt lat="36.2045883" lon="10.4306817"><ele>10.5</ele><time>2026-04-04T16:50:28.284Z</time></trkpt><trkpt lat="36.2043817" lon="10.4307833"><ele>10.0</ele><time>2026-04-04T16:50:29.286Z</time></trkpt><trkpt lat="36.2041683" lon="10.4308817"><ele>9.5</ele><time>2026-04-04T16:50:30.285Z</time></trkpt><trkpt lat="36.2039483" lon="10.4309733"><ele>9.0</ele><time>2026-04-04T16:50:31.286Z</time></trkpt><trkpt lat="36.2037217" lon="10.4310683"><ele>9.0</ele><time>2026-04-04T16:50:32.285Z</time></trkpt><trkpt lat="36.2034933" lon="10.4311617"><ele>9.0</ele><time>2026-04-04T16:50:33.286Z</time></trkpt><trkpt lat="36.2032633" lon="10.4312567"><ele>9.5</ele><time>2026-04-04T16:50:34.282Z</time></trkpt><trkpt lat="36.2030367" lon="10.43134"><ele>10.0</ele><time>2026-04-04T16:50:35.283Z</time></trkpt><trkpt lat="36.2028083" lon="10.4314167"><ele>10.0</ele><time>2026-04-04T16:50:36.283Z</time></trkpt><trkpt lat="36.2025817" lon="10.4314933"><ele>10.0</ele><time>2026-04-04T16:50:37.284Z</time></trkpt><trkpt lat="36.2023517" lon="10.4315683"><ele>9.5</ele><time>2026-04-04T16:50:38.284Z</time></trkpt><trkpt lat="36.2021167" lon="10.4316417"><ele>9.0</ele><time>2026-04-04T16:50:39.285Z</time></trkpt><trkpt lat="36.2018783" lon="10.4317117"><ele>9.0</ele><time>2026-04-04T16:50:40.283Z</time></trkpt><trkpt lat="36.201635" lon="10.4317817"><ele>9.0</ele><time>2026-04-04T16:50:41.284Z</time></trkpt><trkpt lat="36.2013917" lon="10.4318483"><ele>9.5</ele><time>2026-04-04T16:50:42.284Z</time></trkpt><trkpt lat="36.2011467" lon="10.4319133"><ele>10.0</ele><time>2026-04-04T16:50:43.284Z</time></trkpt><trkpt lat="36.2009017" lon="10.4319767"><ele>10.0</ele><time>2026-04-04T16:50:44.283Z</time></trkpt><trkpt lat="36.2006533" lon="10.4320367"><ele>10.0</ele><time>2026-04-04T16:50:45.286Z</time></trkpt><trkpt lat="36.2004" lon="10.432095"><ele>9.5</ele><time>2026-04-04T16:50:46.286Z</time></trkpt><trkpt lat="36.2001433" lon="10.4321517"><ele>9.0</ele><time>2026-04-04T16:50:47.285Z</time></trkpt><trkpt lat="36.199885" lon="10.4322083"><ele>9.0</ele><time>2026-04-04T16:50:48.285Z</time></trkpt><trkpt lat="36.1996217" lon="10.4322617"><ele>9.0</ele><time>2026-04-04T16:50:49.286Z</time></trkpt><trkpt lat="36.1993567" lon="10.432315"><ele>9.0</ele><time>2026-04-04T16:50:50.285Z</time></trkpt><trkpt lat="36.1990883" lon="10.4323633"><ele>9.0</ele><time>2026-04-04T16:50:51.285Z</time></trkpt><trkpt lat="36.19882" lon="10.43241"><ele>9.5</ele><time>2026-04-04T16:50:52.286Z</time></trkpt><trkpt lat="36.1985517" lon="10.43245"><ele>10.0</ele><time>2026-04-04T16:50:53.285Z</time></trkpt><trkpt lat="36.1982867" lon="10.432485"><ele>10.0</ele><time>2026-04-04T16:50:54.285Z</time></trkpt><trkpt lat="36.198025" lon="10.432515"><ele>10.0</ele><time>2026-04-04T16:50:55.285Z</time></trkpt><trkpt lat="36.1977617" lon="10.4325467"><ele>10.0</ele><time>2026-04-04T16:50:56.282Z</time></trkpt><trkpt lat="36.1975017" lon="10.4325767"><ele>10.0</ele><time>2026-04-04T16:50:57.282Z</time></trkpt><trkpt lat="36.19724" lon="10.432605"><ele>10.0</ele><time>2026-04-04T16:50:58.285Z</time></trkpt><trkpt lat="36.1969783" lon="10.432625"><ele>10.0</ele><time>2026-04-04T16:50:59.285Z</time></trkpt><trkpt lat="36.19672" lon="10.4326433"><ele>10.5</ele><time>2026-04-04T16:51:00.282Z</time></trkpt><trkpt lat="36.196465" lon="10.432655"><ele>11.0</ele><time>2026-04-04T16:51:01.282Z</time></trkpt><trkpt lat="36.1962067" lon="10.4326633"><ele>11.0</ele><time>2026-04-04T16:51:02.282Z</time></trkpt><trkpt lat="36.1959483" lon="10.4326683"><ele>11.0</ele><time>2026-04-04T16:51:03.283Z</time></trkpt><trkpt lat="36.1956883" lon="10.4326717"><ele>11.0</ele><time>2026-04-04T16:51:04.283Z</time></trkpt><trkpt lat="36.1954283" lon="10.4326717"><ele>11.0</ele><time>2026-04-04T16:51:05.282Z</time></trkpt><trkpt lat="36.195165" lon="10.4326667"><ele>11.0</ele><time>2026-04-04T16:51:06.283Z</time></trkpt><trkpt lat="36.1949017" lon="10.4326567"><ele>11.0</ele><time>2026-04-04T16:51:07.283Z</time></trkpt><trkpt lat="36.194635" lon="10.4326433"><ele>11.5</ele><time>2026-04-04T16:51:08.283Z</time></trkpt><trkpt lat="36.1943667" lon="10.4326233"><ele>12.0</ele><time>2026-04-04T16:51:09.282Z</time></trkpt><trkpt lat="36.1940967" lon="10.432595"><ele>11.0</ele><time>2026-04-04T16:51:10.283Z</time></trkpt><trkpt lat="36.1938233" lon="10.4325617"><ele>10.0</ele><time>2026-04-04T16:51:11.283Z</time></trkpt><trkpt lat="36.193545" lon="10.4325283"><ele>10.0</ele><time>2026-04-04T16:51:12.284Z</time></trkpt><trkpt lat="36.1932633" lon="10.4324883"><ele>10.0</ele><time>2026-04-04T16:51:13.283Z</time></trkpt><trkpt lat="36.1929817" lon="10.4324433"><ele>10.5</ele><time>2026-04-04T16:51:14.282Z</time></trkpt><trkpt lat="36.1926967" lon="10.4323917"><ele>11.0</ele><time>2026-04-04T16:51:15.283Z</time></trkpt><trkpt lat="36.1924133" lon="10.4323367"><ele>11.5</ele><time>2026-04-04T16:51:16.285Z</time></trkpt><trkpt lat="36.1921283" lon="10.4322767"><ele>12.0</ele><time>2026-04-04T16:51:17.286Z</time></trkpt><trkpt lat="36.1918467" lon="10.4322117"><ele>12.0</ele><time>2026-04-04T16:51:18.286Z</time></trkpt><trkpt lat="36.191565" lon="10.4321433"><ele>12.0</ele><time>2026-04-04T16:51:19.286Z</time></trkpt><trkpt lat="36.1912833" lon="10.4320717"><ele>12.5</ele><time>2026-04-04T16:51:20.286Z</time></trkpt><trkpt lat="36.1910017" lon="10.43199"><ele>13.0</ele><time>2026-04-04T16:51:21.285Z</time></trkpt><trkpt lat="36.190725" lon="10.4319017"><ele>12.5</ele><time>2026-04-04T16:51:22.285Z</time></trkpt><trkpt lat="36.19045" lon="10.43181"><ele>12.0</ele><time>2026-04-04T16:51:23.285Z</time></trkpt><trkpt lat="36.190175" lon="10.431715"><ele>12.0</ele><time>2026-04-04T16:51:24.285Z</time></trkpt><trkpt lat="36.189905" lon="10.43162"><ele>12.0</ele><time>2026-04-04T16:51:25.285Z</time></trkpt><trkpt lat="36.1896317" lon="10.43152"><ele>11.0</ele><time>2026-04-04T16:51:26.285Z</time></trkpt><trkpt lat="36.18936" lon="10.431415"><ele>10.0</ele><time>2026-04-04T16:51:27.285Z</time></trkpt><trkpt lat="36.1890867" lon="10.4313067"><ele>9.5</ele><time>2026-04-04T16:51:28.282Z</time></trkpt><trkpt lat="36.18881" lon="10.4311967"><ele>9.0</ele><time>2026-04-04T16:51:29.285Z</time></trkpt><trkpt lat="36.18853" lon="10.431085"><ele>9.0</ele><time>2026-04-04T16:51:30.285Z</time></trkpt><trkpt lat="36.18825" lon="10.4309683"><ele>9.0</ele><time>2026-04-04T16:51:31.285Z</time></trkpt><trkpt lat="36.187965" lon="10.4308483"><ele>9.0</ele><time>2026-04-04T16:51:32.285Z</time></trkpt><trkpt lat="36.1876817" lon="10.4307317"><ele>9.0</ele><time>2026-04-04T16:51:33.283Z</time></trkpt><trkpt lat="36.1874017" lon="10.4306183"><ele>8.5</ele><time>2026-04-04T16:51:34.284Z</time></trkpt><trkpt lat="36.187125" lon="10.4305083"><ele>8.0</ele><time>2026-04-04T16:51:35.283Z</time></trkpt><trkpt lat="36.18685" lon="10.4304033"><ele>7.5</ele><time>2026-04-04T16:51:36.284Z</time></trkpt><trkpt lat="36.1865767" lon="10.4302983"><ele>7.0</ele><time>2026-04-04T16:51:37.284Z</time></trkpt><trkpt lat="36.1863033" lon="10.430195"><ele>7.0</ele><time>2026-04-04T16:51:38.282Z</time></trkpt><trkpt lat="36.18603" lon="10.43009"><ele>7.0</ele><time>2026-04-04T16:51:39.282Z</time></trkpt><trkpt lat="36.1857583" lon="10.4299867"><ele>7.0</ele><time>2026-04-04T16:51:40.284Z</time></trkpt><trkpt lat="36.185485" lon="10.4298883"><ele>7.0</ele><time>2026-04-04T16:51:41.285Z</time></trkpt><trkpt lat="36.185215" lon="10.4297883"><ele>7.0</ele><time>2026-04-04T16:51:42.283Z</time></trkpt><trkpt lat="36.184945" lon="10.4296883"><ele>7.0</ele><time>2026-04-04T16:51:43.283Z</time></trkpt><trkpt lat="36.18467" lon="10.4295883"><ele>7.0</ele><time>2026-04-04T16:51:44.283Z</time></trkpt><trkpt lat="36.184395" lon="10.4294883"><ele>7.0</ele><time>2026-04-04T16:51:45.283Z</time></trkpt><trkpt lat="36.1841217" lon="10.4293933"><ele>6.5</ele><time>2026-04-04T16:51:46.286Z</time></trkpt><trkpt lat="36.1838483" lon="10.4292933"><ele>6.0</ele><time>2026-04-04T16:51:47.285Z</time></trkpt><trkpt lat="36.1835733" lon="10.4291933"><ele>6.0</ele><time>2026-04-04T16:51:48.285Z</time></trkpt><trkpt lat="36.1832967" lon="10.4290917"><ele>6.0</ele><time>2026-04-04T16:51:49.286Z</time></trkpt><trkpt lat="36.1830183" lon="10.4289933"><ele>6.5</ele><time>2026-04-04T16:51:50.285Z</time></trkpt><trkpt lat="36.1827367" lon="10.4288917"><ele>7.0</ele><time>2026-04-04T16:51:51.285Z</time></trkpt><trkpt lat="36.1824533" lon="10.4287917"><ele>6.5</ele><time>2026-04-04T16:51:52.285Z</time></trkpt><trkpt lat="36.1821717" lon="10.4286933"><ele>6.0</ele><time>2026-04-04T16:51:53.285Z</time></trkpt><trkpt lat="36.1818883" lon="10.4285933"><ele>6.0</ele><time>2026-04-04T16:51:54.285Z</time></trkpt><trkpt lat="36.1816083" lon="10.4284933"><ele>6.0</ele><time>2026-04-04T16:51:55.286Z</time></trkpt><trkpt lat="36.18133" lon="10.4283967"><ele>6.0</ele><time>2026-04-04T16:51:56.285Z</time></trkpt><trkpt lat="36.181055" lon="10.4283033"><ele>6.0</ele><time>2026-04-04T16:51:57.286Z</time></trkpt><trkpt lat="36.1807817" lon="10.4282117"><ele>5.5</ele><time>2026-04-04T16:51:58.285Z</time></trkpt><trkpt lat="36.1805117" lon="10.4281183"><ele>5.0</ele><time>2026-04-04T16:51:59.285Z</time></trkpt><trkpt lat="36.1802483" lon="10.4280267"><ele>5.0</ele><time>2026-04-04T16:52:00.283Z</time></trkpt><trkpt lat="36.17999" lon="10.4279333"><ele>5.0</ele><time>2026-04-04T16:52:01.282Z</time></trkpt><trkpt lat="36.1797333" lon="10.4278417"><ele>5.0</ele><time>2026-04-04T16:52:02.283Z</time></trkpt><trkpt lat="36.1794817" lon="10.4277533"><ele>5.0</ele><time>2026-04-04T16:52:03.282Z</time></trkpt><trkpt lat="36.1792267" lon="10.4276667"><ele>5.0</ele><time>2026-04-04T16:52:04.283Z</time></trkpt><trkpt lat="36.1789633" lon="10.427585"><ele>5.0</ele><time>2026-04-04T16:52:05.284Z</time></trkpt><trkpt lat="36.178695" lon="10.427505"><ele>5.0</ele><time>2026-04-04T16:52:06.283Z</time></trkpt><trkpt lat="36.17843" lon="10.4274233"><ele>5.0</ele><time>2026-04-04T16:52:07.282Z</time></trkpt><trkpt lat="36.1781733" lon="10.4273383"><ele>4.5</ele><time>2026-04-04T16:52:08.283Z</time></trkpt><trkpt lat="36.1779167" lon="10.427255"><ele>4.0</ele><time>2026-04-04T16:52:09.282Z</time></trkpt><trkpt lat="36.17766" lon="10.4271667"><ele>4.5</ele><time>2026-04-04T16:52:10.283Z</time></trkpt><trkpt lat="36.1774" lon="10.42708"><ele>5.0</ele><time>2026-04-04T16:52:11.282Z</time></trkpt><trkpt lat="36.17714" lon="10.4269917"><ele>5.0</ele><time>2026-04-04T16:52:12.284Z</time></trkpt><trkpt lat="36.1768833" lon="10.4269067"><ele>5.0</ele><time>2026-04-04T16:52:13.282Z</time></trkpt><trkpt lat="36.176625" lon="10.42682"><ele>5.0</ele><time>2026-04-04T16:52:14.283Z</time></trkpt><trkpt lat="36.1763633" lon="10.42673"><ele>5.0</ele><time>2026-04-04T16:52:15.284Z</time></trkpt><trkpt lat="36.1760983" lon="10.4266367"><ele>5.0</ele><time>2026-04-04T16:52:16.284Z</time></trkpt><trkpt lat="36.1758267" lon="10.4265433"><ele>5.0</ele><time>2026-04-04T16:52:17.285Z</time></trkpt><trkpt lat="36.1755533" lon="10.426445"><ele>5.0</ele><time>2026-04-04T16:52:18.285Z</time></trkpt><trkpt lat="36.1752767" lon="10.4263467"><ele>5.0</ele><time>2026-04-04T16:52:19.285Z</time></trkpt><trkpt lat="36.1749983" lon="10.4262467"><ele>5.0</ele><time>2026-04-04T16:52:20.286Z</time></trkpt><trkpt lat="36.1747167" lon="10.4261417"><ele>5.0</ele><time>2026-04-04T16:52:21.285Z</time></trkpt><trkpt lat="36.1744333" lon="10.4260383"><ele>5.0</ele><time>2026-04-04T16:52:22.286Z</time></trkpt><trkpt lat="36.1741483" lon="10.4259367"><ele>5.0</ele><time>2026-04-04T16:52:23.285Z</time></trkpt><trkpt lat="36.1738633" lon="10.4258383"><ele>4.5</ele><time>2026-04-04T16:52:24.285Z</time></trkpt><trkpt lat="36.1735817" lon="10.42574"><ele>4.0</ele><time>2026-04-04T16:52:25.285Z</time></trkpt><trkpt lat="36.1733033" lon="10.4256433"><ele>4.0</ele><time>2026-04-04T16:52:26.285Z</time></trkpt><trkpt lat="36.1730283" lon="10.4255483"><ele>4.0</ele><time>2026-04-04T16:52:27.285Z</time></trkpt><trkpt lat="36.1727583" lon="10.4254567"><ele>4.0</ele><time>2026-04-04T16:52:28.284Z</time></trkpt><trkpt lat="36.1724917" lon="10.42537"><ele>4.0</ele><time>2026-04-04T16:52:29.282Z</time></trkpt><trkpt lat="36.1722267" lon="10.42528"><ele>4.0</ele><time>2026-04-04T16:52:30.283Z</time></trkpt><trkpt lat="36.17196" lon="10.4251883"><ele>4.0</ele><time>2026-04-04T16:52:31.282Z</time></trkpt><trkpt lat="36.17169" lon="10.4250983"><ele>4.0</ele><time>2026-04-04T16:52:32.281Z</time></trkpt><trkpt lat="36.1714183" lon="10.425005"><ele>4.0</ele><time>2026-04-04T16:52:33.282Z</time></trkpt><trkpt lat="36.1711483" lon="10.42491"><ele>4.0</ele><time>2026-04-04T16:52:34.282Z</time></trkpt><trkpt lat="36.1708783" lon="10.424815"><ele>4.0</ele><time>2026-04-04T16:52:35.282Z</time></trkpt><trkpt lat="36.1706083" lon="10.4247183"><ele>3.5</ele><time>2026-04-04T16:52:36.282Z</time></trkpt><trkpt lat="36.1703367" lon="10.42462"><ele>3.0</ele><time>2026-04-04T16:52:37.282Z</time></trkpt><trkpt lat="36.170065" lon="10.4245217"><ele>2.5</ele><time>2026-04-04T16:52:38.283Z</time></trkpt><trkpt lat="36.1698" lon="10.4244233"><ele>2.0</ele><time>2026-04-04T16:52:39.282Z</time></trkpt><trkpt lat="36.1695383" lon="10.4243217"><ele>2.0</ele><time>2026-04-04T16:52:40.282Z</time></trkpt><trkpt lat="36.1692833" lon="10.4242183"><ele>2.0</ele><time>2026-04-04T16:52:41.282Z</time></trkpt><trkpt lat="36.16903" lon="10.424115"><ele>2.5</ele><time>2026-04-04T16:52:42.282Z</time></trkpt><trkpt lat="36.1687783" lon="10.4240083"><ele>3.0</ele><time>2026-04-04T16:52:43.282Z</time></trkpt><trkpt lat="36.168525" lon="10.4239"><ele>3.0</ele><time>2026-04-04T16:52:44.281Z</time></trkpt><trkpt lat="36.16827" lon="10.4237867"><ele>3.0</ele><time>2026-04-04T16:52:45.282Z</time></trkpt><trkpt lat="36.1680167" lon="10.42367"><ele>3.0</ele><time>2026-04-04T16:52:46.282Z</time></trkpt><trkpt lat="36.1677617" lon="10.423555"><ele>3.0</ele><time>2026-04-04T16:52:47.284Z</time></trkpt><trkpt lat="36.16751" lon="10.4234383"><ele>3.0</ele><time>2026-04-04T16:52:48.285Z</time></trkpt><trkpt lat="36.1672633" lon="10.42332"><ele>3.0</ele><time>2026-04-04T16:52:49.285Z</time></trkpt><trkpt lat="36.1670183" lon="10.4231983"><ele>3.0</ele><time>2026-04-04T16:52:50.284Z</time></trkpt><trkpt lat="36.166775" lon="10.423075"><ele>3.0</ele><time>2026-04-04T16:52:51.285Z</time></trkpt><trkpt lat="36.16653" lon="10.4229467"><ele>2.5</ele><time>2026-04-04T16:52:52.285Z</time></trkpt><trkpt lat="36.1662833" lon="10.4228133"><ele>2.0</ele><time>2026-04-04T16:52:53.284Z</time></trkpt><trkpt lat="36.166035" lon="10.42268"><ele>2.0</ele><time>2026-04-04T16:52:54.284Z</time></trkpt><trkpt lat="36.1657867" lon="10.422545"><ele>2.0</ele><time>2026-04-04T16:52:55.284Z</time></trkpt><trkpt lat="36.1655333" lon="10.42241"><ele>2.0</ele><time>2026-04-04T16:52:56.282Z</time></trkpt><trkpt lat="36.16528" lon="10.42227"><ele>2.0</ele><time>2026-04-04T16:52:57.281Z</time></trkpt><trkpt lat="36.165025" lon="10.4221283"><ele>3.0</ele><time>2026-04-04T16:52:58.285Z</time></trkpt><trkpt lat="36.1647717" lon="10.4219817"><ele>4.0</ele><time>2026-04-04T16:52:59.284Z</time></trkpt><trkpt lat="36.1645183" lon="10.4218333"><ele>4.0</ele><time>2026-04-04T16:53:00.282Z</time></trkpt><trkpt lat="36.1642667" lon="10.4216833"><ele>4.0</ele><time>2026-04-04T16:53:01.285Z</time></trkpt><trkpt lat="36.1640167" lon="10.421535"><ele>3.0</ele><time>2026-04-04T16:53:02.284Z</time></trkpt><trkpt lat="36.1637667" lon="10.4213867"><ele>2.0</ele><time>2026-04-04T16:53:03.282Z</time></trkpt><trkpt lat="36.163525" lon="10.4212433"><ele>2.0</ele><time>2026-04-04T16:53:04.285Z</time></trkpt><trkpt lat="36.1632917" lon="10.421105"><ele>2.0</ele><time>2026-04-04T16:53:05.282Z</time></trkpt><trkpt lat="36.1630667" lon="10.42097"><ele>2.0</ele><time>2026-04-04T16:53:06.282Z</time></trkpt><trkpt lat="36.1628467" lon="10.420835"><ele>2.0</ele><time>2026-04-04T16:53:07.282Z</time></trkpt><trkpt lat="36.16263" lon="10.4207017"><ele>2.0</ele><time>2026-04-04T16:53:08.285Z</time></trkpt><trkpt lat="36.1624217" lon="10.4205733"><ele>2.0</ele><time>2026-04-04T16:53:09.281Z</time></trkpt><trkpt lat="36.1622083" lon="10.4204433"><ele>2.0</ele><time>2026-04-04T16:53:10.282Z</time></trkpt><trkpt lat="36.1619933" lon="10.420315"><ele>2.0</ele><time>2026-04-04T16:53:11.284Z</time></trkpt><trkpt lat="36.1617733" lon="10.420185"><ele>2.0</ele><time>2026-04-04T16:53:12.282Z</time></trkpt><trkpt lat="36.161555" lon="10.420055"><ele>2.0</ele><time>2026-04-04T16:53:13.283Z</time></trkpt><trkpt lat="36.1613367" lon="10.419925"><ele>2.5</ele><time>2026-04-04T16:53:14.282Z</time></trkpt><trkpt lat="36.1611183" lon="10.419795"><ele>3.0</ele><time>2026-04-04T16:53:15.282Z</time></trkpt><trkpt lat="36.1608967" lon="10.4196667"><ele>2.5</ele><time>2026-04-04T16:53:16.282Z</time></trkpt><trkpt lat="36.1606767" lon="10.41954"><ele>2.0</ele><time>2026-04-04T16:53:17.285Z</time></trkpt><trkpt lat="36.1604567" lon="10.4194133"><ele>2.0</ele><time>2026-04-04T16:53:18.284Z</time></trkpt><trkpt lat="36.1602417" lon="10.4192883"><ele>2.0</ele><time>2026-04-04T16:53:19.284Z</time></trkpt><trkpt lat="36.1600283" lon="10.4191633"><ele>2.0</ele><time>2026-04-04T16:53:20.284Z</time></trkpt><trkpt lat="36.159815" lon="10.4190333"><ele>2.0</ele><time>2026-04-04T16:53:21.285Z</time></trkpt><trkpt lat="36.1595933" lon="10.4189"><ele>2.5</ele><time>2026-04-04T16:53:22.284Z</time></trkpt><trkpt lat="36.1593733" lon="10.41877"><ele>3.0</ele><time>2026-04-04T16:53:23.284Z</time></trkpt><trkpt lat="36.159155" lon="10.4186417"><ele>3.5</ele><time>2026-04-04T16:53:24.284Z</time></trkpt><trkpt lat="36.1589383" lon="10.4185117"><ele>4.0</ele><time>2026-04-04T16:53:25.284Z</time></trkpt><trkpt lat="36.1587233" lon="10.4183833"><ele>4.0</ele><time>2026-04-04T16:53:26.283Z</time></trkpt><trkpt lat="36.1585067" lon="10.4182533"><ele>4.0</ele><time>2026-04-04T16:53:27.282Z</time></trkpt><trkpt lat="36.1582933" lon="10.41812"><ele>3.5</ele><time>2026-04-04T16:53:28.282Z</time></trkpt><trkpt lat="36.1580717" lon="10.4179767"><ele>3.0</ele><time>2026-04-04T16:53:29.281Z</time></trkpt><trkpt lat="36.1578433" lon="10.4178283"><ele>3.0</ele><time>2026-04-04T16:53:30.282Z</time></trkpt><trkpt lat="36.1576133" lon="10.4176817"><ele>3.0</ele><time>2026-04-04T16:53:31.282Z</time></trkpt><trkpt lat="36.15738" lon="10.4175383"><ele>3.0</ele><time>2026-04-04T16:53:32.281Z</time></trkpt><trkpt lat="36.15715" lon="10.4173967"><ele>3.0</ele><time>2026-04-04T16:53:33.282Z</time></trkpt><trkpt lat="36.1569233" lon="10.4172583"><ele>3.5</ele><time>2026-04-04T16:53:34.283Z</time></trkpt><trkpt lat="36.1567017" lon="10.4171233"><ele>4.0</ele><time>2026-04-04T16:53:35.282Z</time></trkpt><trkpt lat="36.156485" lon="10.4169933"><ele>4.0</ele><time>2026-04-04T16:53:36.286Z</time></trkpt><trkpt lat="36.1562717" lon="10.4168633"><ele>4.0</ele><time>2026-04-04T16:53:37.283Z</time></trkpt><trkpt lat="36.156055" lon="10.4167367"><ele>4.0</ele><time>2026-04-04T16:53:38.281Z</time></trkpt><trkpt lat="36.1558317" lon="10.4166033"><ele>4.0</ele><time>2026-04-04T16:53:39.285Z</time></trkpt><trkpt lat="36.1555933" lon="10.4164617"><ele>3.0</ele><time>2026-04-04T16:53:40.284Z</time></trkpt><trkpt lat="36.1553417" lon="10.4163117"><ele>2.0</ele><time>2026-04-04T16:53:41.285Z</time></trkpt><trkpt lat="36.15508" lon="10.4161567"><ele>2.5</ele><time>2026-04-04T16:53:42.285Z</time></trkpt><trkpt lat="36.1548117" lon="10.4160017"><ele>3.0</ele><time>2026-04-04T16:53:43.284Z</time></trkpt><trkpt lat="36.1545417" lon="10.4158433"><ele>3.0</ele><time>2026-04-04T16:53:44.284Z</time></trkpt><trkpt lat="36.15427" lon="10.4156817"><ele>3.0</ele><time>2026-04-04T16:53:45.284Z</time></trkpt><trkpt lat="36.1540017" lon="10.415525"><ele>3.5</ele><time>2026-04-04T16:53:46.284Z</time></trkpt><trkpt lat="36.1537367" lon="10.4153683"><ele>4.0</ele><time>2026-04-04T16:53:47.284Z</time></trkpt><trkpt lat="36.1534733" lon="10.41521"><ele>4.0</ele><time>2026-04-04T16:53:48.284Z</time></trkpt><trkpt lat="36.1532083" lon="10.41505"><ele>4.0</ele><time>2026-04-04T16:53:49.285Z</time></trkpt><trkpt lat="36.1529467" lon="10.41489"><ele>4.5</ele><time>2026-04-04T16:53:50.285Z</time></trkpt><trkpt lat="36.1526833" lon="10.41473"><ele>5.0</ele><time>2026-04-04T16:53:51.285Z</time></trkpt><trkpt lat="36.1524233" lon="10.4145767"><ele>4.5</ele><time>2026-04-04T16:53:52.284Z</time></trkpt><trkpt lat="36.1521667" lon="10.414425"><ele>4.0</ele><time>2026-04-04T16:53:53.285Z</time></trkpt><trkpt lat="36.1519067" lon="10.4142733"><ele>4.0</ele><time>2026-04-04T16:53:54.285Z</time></trkpt><trkpt lat="36.15165" lon="10.4141217"><ele>4.0</ele><time>2026-04-04T16:53:55.284Z</time></trkpt><trkpt lat="36.151395" lon="10.41397"><ele>4.0</ele><time>2026-04-04T16:53:56.283Z</time></trkpt><trkpt lat="36.1511433" lon="10.4138183"><ele>4.0</ele><time>2026-04-04T16:53:57.282Z</time></trkpt><trkpt lat="36.15089" lon="10.41367"><ele>3.5</ele><time>2026-04-04T16:53:58.282Z</time></trkpt><trkpt lat="36.15064" lon="10.4135217"><ele>3.0</ele><time>2026-04-04T16:53:59.282Z</time></trkpt><trkpt lat="36.15039" lon="10.4133733"><ele>3.0</ele><time>2026-04-04T16:54:00.283Z</time></trkpt><trkpt lat="36.1501417" lon="10.4132217"><ele>3.0</ele><time>2026-04-04T16:54:01.282Z</time></trkpt><trkpt lat="36.14989" lon="10.4130683"><ele>4.5</ele><time>2026-04-04T16:54:02.283Z</time></trkpt><trkpt lat="36.14964" lon="10.4129167"><ele>6.0</ele><time>2026-04-04T16:54:03.283Z</time></trkpt><trkpt lat="36.149385" lon="10.412765"><ele>6.0</ele><time>2026-04-04T16:54:04.282Z</time></trkpt><trkpt lat="36.14913" lon="10.4126133"><ele>6.0</ele><time>2026-04-04T16:54:05.283Z</time></trkpt><trkpt lat="36.148875" lon="10.41246"><ele>6.0</ele><time>2026-04-04T16:54:06.283Z</time></trkpt><trkpt lat="36.1486183" lon="10.4123083"><ele>6.0</ele><time>2026-04-04T16:54:07.282Z</time></trkpt><trkpt lat="36.148355" lon="10.412155"><ele>5.5</ele><time>2026-04-04T16:54:08.281Z</time></trkpt><trkpt lat="36.1480917" lon="10.4120033"><ele>5.0</ele><time>2026-04-04T16:54:09.282Z</time></trkpt><trkpt lat="36.147825" lon="10.4118533"><ele>5.0</ele><time>2026-04-04T16:54:10.284Z</time></trkpt><trkpt lat="36.147555" lon="10.411705"><ele>5.0</ele><time>2026-04-04T16:54:11.286Z</time></trkpt><trkpt lat="36.1472867" lon="10.4115617"><ele>5.0</ele><time>2026-04-04T16:54:12.284Z</time></trkpt><trkpt lat="36.1470183" lon="10.4114233"><ele>5.0</ele><time>2026-04-04T16:54:13.285Z</time></trkpt><trkpt lat="36.1467467" lon="10.4112867"><ele>5.5</ele><time>2026-04-04T16:54:14.284Z</time></trkpt><trkpt lat="36.146475" lon="10.4111517"><ele>6.0</ele><time>2026-04-04T16:54:15.285Z</time></trkpt><trkpt lat="36.1462017" lon="10.41102"><ele>6.0</ele><time>2026-04-04T16:54:16.284Z</time></trkpt><trkpt lat="36.1459283" lon="10.41089"><ele>6.0</ele><time>2026-04-04T16:54:17.284Z</time></trkpt><trkpt lat="36.1456567" lon="10.41076"><ele>5.5</ele><time>2026-04-04T16:54:18.288Z</time></trkpt><trkpt lat="36.14538" lon="10.4106333"><ele>5.0</ele><time>2026-04-04T16:54:19.284Z</time></trkpt><trkpt lat="36.145105" lon="10.4105117"><ele>6.0</ele><time>2026-04-04T16:54:20.284Z</time></trkpt><trkpt lat="36.1448317" lon="10.410395"><ele>7.0</ele><time>2026-04-04T16:54:21.285Z</time></trkpt><trkpt lat="36.1445567" lon="10.4102817"><ele>7.0</ele><time>2026-04-04T16:54:22.285Z</time></trkpt><trkpt lat="36.1442783" lon="10.41017"><ele>7.0</ele><time>2026-04-04T16:54:23.285Z</time></trkpt><trkpt lat="36.1440017" lon="10.410065"><ele>6.5</ele><time>2026-04-04T16:54:24.285Z</time></trkpt><trkpt lat="36.143725" lon="10.4099633"><ele>6.0</ele><time>2026-04-04T16:54:25.284Z</time></trkpt><trkpt lat="36.1434467" lon="10.409865"><ele>6.0</ele><time>2026-04-04T16:54:26.285Z</time></trkpt><trkpt lat="36.143165" lon="10.409765"><ele>6.0</ele><time>2026-04-04T16:54:27.284Z</time></trkpt><trkpt lat="36.1428833" lon="10.409665"><ele>6.0</ele><time>2026-04-04T16:54:28.285Z</time></trkpt><trkpt lat="36.1426033" lon="10.40957"><ele>6.0</ele><time>2026-04-04T16:54:29.285Z</time></trkpt><trkpt lat="36.1423233" lon="10.4094767"><ele>6.0</ele><time>2026-04-04T16:54:30.287Z</time></trkpt><trkpt lat="36.1420467" lon="10.4093833"><ele>6.0</ele><time>2026-04-04T16:54:31.285Z</time></trkpt><trkpt lat="36.1417833" lon="10.4093"><ele>7.0</ele><time>2026-04-04T16:54:32.284Z</time></trkpt><trkpt lat="36.141525" lon="10.40922"><ele>8.0</ele><time>2026-04-04T16:54:33.284Z</time></trkpt><trkpt lat="36.141265" lon="10.409145"><ele>8.0</ele><time>2026-04-04T16:54:34.285Z</time></trkpt><trkpt lat="36.141005" lon="10.40907"><ele>8.0</ele><time>2026-04-04T16:54:35.285Z</time></trkpt><trkpt lat="36.1407433" lon="10.409"><ele>7.5</ele><time>2026-04-04T16:54:36.286Z</time></trkpt><trkpt lat="36.1404817" lon="10.4089317"><ele>7.0</ele><time>2026-04-04T16:54:37.284Z</time></trkpt><trkpt lat="36.14022" lon="10.4088667"><ele>7.5</ele><time>2026-04-04T16:54:38.286Z</time></trkpt><trkpt lat="36.1399517" lon="10.4088"><ele>8.0</ele><time>2026-04-04T16:54:39.285Z</time></trkpt><trkpt lat="36.1396817" lon="10.4087367"><ele>8.0</ele><time>2026-04-04T16:54:40.284Z</time></trkpt><trkpt lat="36.1394083" lon="10.408675"><ele>8.0</ele><time>2026-04-04T16:54:41.284Z</time></trkpt><trkpt lat="36.1391317" lon="10.4086133"><ele>7.5</ele><time>2026-04-04T16:54:42.285Z</time></trkpt><trkpt lat="36.1388517" lon="10.408555"><ele>7.0</ele><time>2026-04-04T16:54:43.285Z</time></trkpt><trkpt lat="36.13857" lon="10.408495"><ele>7.0</ele><time>2026-04-04T16:54:44.285Z</time></trkpt><trkpt lat="36.138285" lon="10.4084383"><ele>7.0</ele><time>2026-04-04T16:54:45.284Z</time></trkpt><trkpt lat="36.138" lon="10.4083817"><ele>8.0</ele><time>2026-04-04T16:54:46.284Z</time></trkpt><trkpt lat="36.1377133" lon="10.40832"><ele>9.0</ele><time>2026-04-04T16:54:47.284Z</time></trkpt><trkpt lat="36.137425" lon="10.4082583"><ele>9.0</ele><time>2026-04-04T16:54:48.285Z</time></trkpt><trkpt lat="36.1371333" lon="10.4081983"><ele>9.0</ele><time>2026-04-04T16:54:49.284Z</time></trkpt><trkpt lat="36.13684" lon="10.4081383"><ele>8.5</ele><time>2026-04-04T16:54:50.284Z</time></trkpt><trkpt lat="36.1365467" lon="10.40808"><ele>8.0</ele><time>2026-04-04T16:54:51.285Z</time></trkpt><trkpt lat="36.136255" lon="10.40802"><ele>8.0</ele><time>2026-04-04T16:54:52.285Z</time></trkpt><trkpt lat="36.1359633" lon="10.4079617"><ele>8.0</ele><time>2026-04-04T16:54:53.285Z</time></trkpt><trkpt lat="36.1356767" lon="10.4079067"><ele>8.0</ele><time>2026-04-04T16:54:54.285Z</time></trkpt><trkpt lat="36.135395" lon="10.4078483"><ele>8.0</ele><time>2026-04-04T16:54:55.284Z</time></trkpt><trkpt lat="36.1351183" lon="10.407795"><ele>8.5</ele><time>2026-04-04T16:54:56.284Z</time></trkpt><trkpt lat="36.1348417" lon="10.4077417"><ele>9.0</ele><time>2026-04-04T16:54:57.284Z</time></trkpt><trkpt lat="36.1345617" lon="10.4076867"><ele>9.0</ele><time>2026-04-04T16:54:58.284Z</time></trkpt><trkpt lat="36.1342767" lon="10.40763"><ele>9.0</ele><time>2026-04-04T16:54:59.284Z</time></trkpt><trkpt lat="36.13399" lon="10.4075683"><ele>8.5</ele><time>2026-04-04T16:55:00.285Z</time></trkpt><trkpt lat="36.1337067" lon="10.4075117"><ele>8.0</ele><time>2026-04-04T16:55:01.285Z</time></trkpt><trkpt lat="36.1334233" lon="10.4074567"><ele>8.5</ele><time>2026-04-04T16:55:02.284Z</time></trkpt><trkpt lat="36.1331417" lon="10.4073983"><ele>9.0</ele><time>2026-04-04T16:55:03.285Z</time></trkpt><trkpt lat="36.1328583" lon="10.40734"><ele>9.0</ele><time>2026-04-04T16:55:04.284Z</time></trkpt><trkpt lat="36.1325733" lon="10.40728"><ele>9.0</ele><time>2026-04-04T16:55:05.285Z</time></trkpt><trkpt lat="36.1322883" lon="10.4072233"><ele>9.5</ele><time>2026-04-04T16:55:06.286Z</time></trkpt><trkpt lat="36.1320067" lon="10.4071667"><ele>10.0</ele><time>2026-04-04T16:55:07.286Z</time></trkpt><trkpt lat="36.13173" lon="10.4071133"><ele>9.5</ele><time>2026-04-04T16:55:08.287Z</time></trkpt><trkpt lat="36.1314583" lon="10.4070617"><ele>9.0</ele><time>2026-04-04T16:55:09.284Z</time></trkpt><trkpt lat="36.131185" lon="10.4070083"><ele>9.0</ele><time>2026-04-04T16:55:10.284Z</time></trkpt><trkpt lat="36.1309133" lon="10.4069533"><ele>9.0</ele><time>2026-04-04T16:55:11.285Z</time></trkpt><trkpt lat="36.1306417" lon="10.4069"><ele>9.5</ele><time>2026-04-04T16:55:12.285Z</time></trkpt><trkpt lat="36.1303717" lon="10.406845"><ele>10.0</ele><time>2026-04-04T16:55:13.284Z</time></trkpt><trkpt lat="36.130105" lon="10.40679"><ele>9.0</ele><time>2026-04-04T16:55:14.284Z</time></trkpt><trkpt lat="36.1298367" lon="10.406735"><ele>8.0</ele><time>2026-04-04T16:55:15.284Z</time></trkpt><trkpt lat="36.1295667" lon="10.4066817"><ele>8.0</ele><time>2026-04-04T16:55:16.284Z</time></trkpt><trkpt lat="36.129295" lon="10.4066267"><ele>8.0</ele><time>2026-04-04T16:55:17.284Z</time></trkpt><trkpt lat="36.12902" lon="10.4065717"><ele>8.5</ele><time>2026-04-04T16:55:18.285Z</time></trkpt><trkpt lat="36.1287483" lon="10.406515"><ele>9.0</ele><time>2026-04-04T16:55:19.284Z</time></trkpt><trkpt lat="36.1284733" lon="10.4064567"><ele>8.5</ele><time>2026-04-04T16:55:20.284Z</time></trkpt><trkpt lat="36.1281967" lon="10.4063967"><ele>8.0</ele><time>2026-04-04T16:55:21.284Z</time></trkpt><trkpt lat="36.1279183" lon="10.4063383"><ele>8.5</ele><time>2026-04-04T16:55:22.284Z</time></trkpt><trkpt lat="36.1276383" lon="10.4062783"><ele>9.0</ele><time>2026-04-04T16:55:23.284Z</time></trkpt><trkpt lat="36.127355" lon="10.4062217"><ele>9.0</ele><time>2026-04-04T16:55:24.285Z</time></trkpt><trkpt lat="36.1270683" lon="10.406165"><ele>9.0</ele><time>2026-04-04T16:55:25.285Z</time></trkpt><trkpt lat="36.1267817" lon="10.4061083"><ele>9.0</ele><time>2026-04-04T16:55:26.284Z</time></trkpt><trkpt lat="36.1264933" lon="10.4060517"><ele>9.0</ele><time>2026-04-04T16:55:27.284Z</time></trkpt><trkpt lat="36.1262033" lon="10.4059967"><ele>9.0</ele><time>2026-04-04T16:55:28.284Z</time></trkpt><trkpt lat="36.12591" lon="10.40594"><ele>9.0</ele><time>2026-04-04T16:55:29.284Z</time></trkpt><trkpt lat="36.1256183" lon="10.4058883"><ele>9.5</ele><time>2026-04-04T16:55:30.285Z</time></trkpt><trkpt lat="36.1253283" lon="10.405835"><ele>10.0</ele><time>2026-04-04T16:55:31.285Z</time></trkpt><trkpt lat="36.1250383" lon="10.4057833"><ele>9.5</ele><time>2026-04-04T16:55:32.285Z</time></trkpt><trkpt lat="36.12475" lon="10.405735"><ele>9.0</ele><time>2026-04-04T16:55:33.284Z</time></trkpt><trkpt lat="36.1244633" lon="10.40569"><ele>9.0</ele><time>2026-04-04T16:55:34.284Z</time></trkpt><trkpt lat="36.1241767" lon="10.4056433"><ele>9.0</ele><time>2026-04-04T16:55:35.285Z</time></trkpt><trkpt lat="36.1238883" lon="10.4055983"><ele>9.0</ele><time>2026-04-04T16:55:36.285Z</time></trkpt><trkpt lat="36.1235967" lon="10.4055533"><ele>9.0</ele><time>2026-04-04T16:55:37.285Z</time></trkpt><trkpt lat="36.1233067" lon="10.4055067"><ele>8.5</ele><time>2026-04-04T16:55:38.285Z</time></trkpt><trkpt lat="36.1230167" lon="10.4054533"><ele>8.0</ele><time>2026-04-04T16:55:39.284Z</time></trkpt><trkpt lat="36.1227267" lon="10.405405"><ele>8.0</ele><time>2026-04-04T16:55:40.286Z</time></trkpt><trkpt lat="36.122435" lon="10.4053617"><ele>8.0</ele><time>2026-04-04T16:55:41.284Z</time></trkpt><trkpt lat="36.1221383" lon="10.405325"><ele>8.0</ele><time>2026-04-04T16:55:42.285Z</time></trkpt><trkpt lat="36.1218417" lon="10.4052917"><ele>8.0</ele><time>2026-04-04T16:55:43.284Z</time></trkpt><trkpt lat="36.1215433" lon="10.4052617"><ele>8.0</ele><time>2026-04-04T16:55:44.284Z</time></trkpt><trkpt lat="36.1212433" lon="10.4052317"><ele>8.0</ele><time>2026-04-04T16:55:45.285Z</time></trkpt><trkpt lat="36.1209383" lon="10.405205"><ele>9.0</ele><time>2026-04-04T16:55:46.284Z</time></trkpt><trkpt lat="36.1206317" lon="10.4051817"><ele>10.0</ele><time>2026-04-04T16:55:47.285Z</time></trkpt><trkpt lat="36.1203233" lon="10.4051583"><ele>10.0</ele><time>2026-04-04T16:55:48.285Z</time></trkpt><trkpt lat="36.120015" lon="10.4051367"><ele>10.0</ele><time>2026-04-04T16:55:49.284Z</time></trkpt><trkpt lat="36.1197083" lon="10.4051183"><ele>10.0</ele><time>2026-04-04T16:55:50.285Z</time></trkpt><trkpt lat="36.1194067" lon="10.4051033"><ele>10.0</ele><time>2026-04-04T16:55:51.284Z</time></trkpt><trkpt lat="36.1191083" lon="10.4050867"><ele>10.0</ele><time>2026-04-04T16:55:52.285Z</time></trkpt><trkpt lat="36.118815" lon="10.4050733"><ele>10.0</ele><time>2026-04-04T16:55:53.283Z</time></trkpt><trkpt lat="36.1185217" lon="10.4050617"><ele>9.5</ele><time>2026-04-04T16:55:54.286Z</time></trkpt><trkpt lat="36.1182333" lon="10.4050483"><ele>9.0</ele><time>2026-04-04T16:55:55.284Z</time></trkpt><trkpt lat="36.1179467" lon="10.4050383"><ele>9.0</ele><time>2026-04-04T16:55:56.284Z</time></trkpt><trkpt lat="36.11766" lon="10.4050267"><ele>9.0</ele><time>2026-04-04T16:55:57.284Z</time></trkpt><trkpt lat="36.1173683" lon="10.405015"><ele>9.0</ele><time>2026-04-04T16:55:58.286Z</time></trkpt><trkpt lat="36.1170717" lon="10.4050033"><ele>9.0</ele><time>2026-04-04T16:55:59.284Z</time></trkpt><trkpt lat="36.116775" lon="10.40499"><ele>9.0</ele><time>2026-04-04T16:56:00.285Z</time></trkpt><trkpt lat="36.116475" lon="10.4049783"><ele>9.0</ele><time>2026-04-04T16:56:01.285Z</time></trkpt><trkpt lat="36.1161717" lon="10.4049667"><ele>9.0</ele><time>2026-04-04T16:56:02.286Z</time></trkpt><trkpt lat="36.1158683" lon="10.4049567"><ele>9.0</ele><time>2026-04-04T16:56:03.283Z</time></trkpt><trkpt lat="36.1155667" lon="10.4049467"><ele>9.0</ele><time>2026-04-04T16:56:04.283Z</time></trkpt><trkpt lat="36.1152667" lon="10.4049367"><ele>9.0</ele><time>2026-04-04T16:56:05.284Z</time></trkpt><trkpt lat="36.1149667" lon="10.404925"><ele>8.5</ele><time>2026-04-04T16:56:06.282Z</time></trkpt><trkpt lat="36.1146667" lon="10.404915"><ele>8.0</ele><time>2026-04-04T16:56:07.282Z</time></trkpt><trkpt lat="36.1143667" lon="10.4049033"><ele>8.0</ele><time>2026-04-04T16:56:08.282Z</time></trkpt><trkpt lat="36.11407" lon="10.40489"><ele>8.0</ele><time>2026-04-04T16:56:09.282Z</time></trkpt><trkpt lat="36.1137817" lon="10.4048767"><ele>8.0</ele><time>2026-04-04T16:56:10.285Z</time></trkpt><trkpt lat="36.1135067" lon="10.404865"><ele>8.0</ele><time>2026-04-04T16:56:11.284Z</time></trkpt><trkpt lat="36.113235" lon="10.4048567"><ele>9.0</ele><time>2026-04-04T16:56:12.286Z</time></trkpt><trkpt lat="36.1129683" lon="10.4048467"><ele>10.0</ele><time>2026-04-04T16:56:13.284Z</time></trkpt><trkpt lat="36.1127" lon="10.4048383"><ele>10.0</ele><time>2026-04-04T16:56:14.285Z</time></trkpt><trkpt lat="36.11243" lon="10.404835"><ele>10.0</ele><time>2026-04-04T16:56:15.284Z</time></trkpt><trkpt lat="36.1121533" lon="10.4048317"><ele>10.0</ele><time>2026-04-04T16:56:16.284Z</time></trkpt><trkpt lat="36.111875" lon="10.40483"><ele>10.0</ele><time>2026-04-04T16:56:17.286Z</time></trkpt><trkpt lat="36.1115967" lon="10.404825"><ele>9.5</ele><time>2026-04-04T16:56:18.285Z</time></trkpt><trkpt lat="36.11132" lon="10.404815"><ele>9.0</ele><time>2026-04-04T16:56:19.285Z</time></trkpt><trkpt lat="36.111045" lon="10.4048033"><ele>9.0</ele><time>2026-04-04T16:56:20.284Z</time></trkpt><trkpt lat="36.1107717" lon="10.40479"><ele>9.0</ele><time>2026-04-04T16:56:21.284Z</time></trkpt><trkpt lat="36.110495" lon="10.4047767"><ele>9.5</ele><time>2026-04-04T16:56:22.284Z</time></trkpt><trkpt lat="36.1102167" lon="10.4047633"><ele>10.0</ele><time>2026-04-04T16:56:23.286Z</time></trkpt><trkpt lat="36.1099383" lon="10.4047533"><ele>10.0</ele><time>2026-04-04T16:56:24.285Z</time></trkpt><trkpt lat="36.1096567" lon="10.4047383"><ele>10.0</ele><time>2026-04-04T16:56:25.286Z</time></trkpt><trkpt lat="36.1093767" lon="10.404725"><ele>10.0</ele><time>2026-04-04T16:56:26.284Z</time></trkpt><trkpt lat="36.109095" lon="10.4047133"><ele>10.0</ele><time>2026-04-04T16:56:27.286Z</time></trkpt><trkpt lat="36.10881" lon="10.4047033"><ele>10.0</ele><time>2026-04-04T16:56:28.288Z</time></trkpt><trkpt lat="36.108525" lon="10.4046917"><ele>10.0</ele><time>2026-04-04T16:56:29.284Z</time></trkpt><trkpt lat="36.1082383" lon="10.4046767"><ele>9.5</ele><time>2026-04-04T16:56:30.285Z</time></trkpt><trkpt lat="36.10795" lon="10.4046583"><ele>9.0</ele><time>2026-04-04T16:56:31.284Z</time></trkpt><trkpt lat="36.1076583" lon="10.40464"><ele>10.5</ele><time>2026-04-04T16:56:32.286Z</time></trkpt><trkpt lat="36.1073667" lon="10.4046183"><ele>12.0</ele><time>2026-04-04T16:56:33.282Z</time></trkpt><trkpt lat="36.1070733" lon="10.404595"><ele>12.0</ele><time>2026-04-04T16:56:34.283Z</time></trkpt><trkpt lat="36.10678" lon="10.4045683"><ele>12.0</ele><time>2026-04-04T16:56:35.282Z</time></trkpt><trkpt lat="36.106485" lon="10.4045383"><ele>11.0</ele><time>2026-04-04T16:56:36.283Z</time></trkpt><trkpt lat="36.1061917" lon="10.404505"><ele>10.0</ele><time>2026-04-04T16:56:37.282Z</time></trkpt><trkpt lat="36.105895" lon="10.404475"><ele>9.5</ele><time>2026-04-04T16:56:38.283Z</time></trkpt><trkpt lat="36.1055983" lon="10.40444"><ele>9.0</ele><time>2026-04-04T16:56:39.282Z</time></trkpt><trkpt lat="36.1053083" lon="10.404405"><ele>9.0</ele><time>2026-04-04T16:56:40.286Z</time></trkpt><trkpt lat="36.1050217" lon="10.40437"><ele>9.0</ele><time>2026-04-04T16:56:41.285Z</time></trkpt><trkpt lat="36.104735" lon="10.404335"><ele>8.5</ele><time>2026-04-04T16:56:42.285Z</time></trkpt><trkpt lat="36.1044483" lon="10.4042967"><ele>8.0</ele><time>2026-04-04T16:56:43.284Z</time></trkpt><trkpt lat="36.1041633" lon="10.4042533"><ele>7.5</ele><time>2026-04-04T16:56:44.284Z</time></trkpt><trkpt lat="36.1038783" lon="10.40421"><ele>7.0</ele><time>2026-04-04T16:56:45.284Z</time></trkpt><trkpt lat="36.1035917" lon="10.4041633"><ele>7.0</ele><time>2026-04-04T16:56:46.285Z</time></trkpt><trkpt lat="36.1033017" lon="10.4041133"><ele>7.0</ele><time>2026-04-04T16:56:47.285Z</time></trkpt><trkpt lat="36.1030083" lon="10.40406"><ele>6.5</ele><time>2026-04-04T16:56:48.287Z</time></trkpt><trkpt lat="36.1027133" lon="10.404005"><ele>6.0</ele><time>2026-04-04T16:56:49.285Z</time></trkpt><trkpt lat="36.1024183" lon="10.4039483"><ele>7.0</ele><time>2026-04-04T16:56:50.285Z</time></trkpt><trkpt lat="36.1021233" lon="10.4038917"><ele>8.0</ele><time>2026-04-04T16:56:51.286Z</time></trkpt><trkpt lat="36.1018283" lon="10.4038317"><ele>9.0</ele><time>2026-04-04T16:56:52.285Z</time></trkpt><trkpt lat="36.101535" lon="10.4037717"><ele>10.0</ele><time>2026-04-04T16:56:53.286Z</time></trkpt><trkpt lat="36.1012467" lon="10.4037083"><ele>10.0</ele><time>2026-04-04T16:56:54.286Z</time></trkpt><trkpt lat="36.1009617" lon="10.4036467"><ele>10.0</ele><time>2026-04-04T16:56:55.284Z</time></trkpt><trkpt lat="36.100675" lon="10.4035817"><ele>10.0</ele><time>2026-04-04T16:56:56.285Z</time></trkpt><trkpt lat="36.1003883" lon="10.40352"><ele>10.0</ele><time>2026-04-04T16:56:57.285Z</time></trkpt><trkpt lat="36.1001017" lon="10.4034617"><ele>9.5</ele><time>2026-04-04T16:56:58.285Z</time></trkpt><trkpt lat="36.0998183" lon="10.4034017"><ele>9.0</ele><time>2026-04-04T16:56:59.284Z</time></trkpt><trkpt lat="36.0995383" lon="10.4033417"><ele>9.0</ele><time>2026-04-04T16:57:00.285Z</time></trkpt><trkpt lat="36.09926" lon="10.40328"><ele>9.0</ele><time>2026-04-04T16:57:01.285Z</time></trkpt><trkpt lat="36.098985" lon="10.4032183"><ele>9.0</ele><time>2026-04-04T16:57:02.285Z</time></trkpt><trkpt lat="36.0987117" lon="10.4031583"><ele>9.0</ele><time>2026-04-04T16:57:03.282Z</time></trkpt><trkpt lat="36.0984333" lon="10.4030967"><ele>9.0</ele><time>2026-04-04T16:57:04.283Z</time></trkpt><trkpt lat="36.0981533" lon="10.4030367"><ele>9.0</ele><time>2026-04-04T16:57:05.282Z</time></trkpt><trkpt lat="36.0978733" lon="10.40298"><ele>9.0</ele><time>2026-04-04T16:57:06.283Z</time></trkpt><trkpt lat="36.097595" lon="10.4029233"><ele>9.0</ele><time>2026-04-04T16:57:07.283Z</time></trkpt><trkpt lat="36.0973133" lon="10.402865"><ele>9.0</ele><time>2026-04-04T16:57:08.282Z</time></trkpt><trkpt lat="36.0970317" lon="10.4028083"><ele>9.0</ele><time>2026-04-04T16:57:09.283Z</time></trkpt><trkpt lat="36.0967483" lon="10.40275"><ele>9.5</ele><time>2026-04-04T16:57:10.285Z</time></trkpt><trkpt lat="36.09646" lon="10.4026933"><ele>10.0</ele><time>2026-04-04T16:57:11.284Z</time></trkpt><trkpt lat="36.0961767" lon="10.4026383"><ele>10.0</ele><time>2026-04-04T16:57:12.285Z</time></trkpt><trkpt lat="36.0958967" lon="10.4025817"><ele>10.0</ele><time>2026-04-04T16:57:13.285Z</time></trkpt><trkpt lat="36.095615" lon="10.402525"><ele>9.0</ele><time>2026-04-04T16:57:14.285Z</time></trkpt><trkpt lat="36.0953317" lon="10.4024633"><ele>8.0</ele><time>2026-04-04T16:57:15.285Z</time></trkpt><trkpt lat="36.0950483" lon="10.4024"><ele>8.0</ele><time>2026-04-04T16:57:16.285Z</time></trkpt><trkpt lat="36.094765" lon="10.4023383"><ele>8.0</ele><time>2026-04-04T16:57:17.285Z</time></trkpt><trkpt lat="36.0944867" lon="10.4022783"><ele>8.0</ele><time>2026-04-04T16:57:18.285Z</time></trkpt><trkpt lat="36.0942083" lon="10.40222"><ele>8.0</ele><time>2026-04-04T16:57:19.286Z</time></trkpt><trkpt lat="36.09393" lon="10.4021633"><ele>8.0</ele><time>2026-04-04T16:57:20.287Z</time></trkpt><trkpt lat="36.0936517" lon="10.4021033"><ele>8.0</ele><time>2026-04-04T16:57:21.286Z</time></trkpt><trkpt lat="36.0933717" lon="10.4020433"><ele>8.0</ele><time>2026-04-04T16:57:22.285Z</time></trkpt><trkpt lat="36.09309" lon="10.4019867"><ele>8.0</ele><time>2026-04-04T16:57:23.285Z</time></trkpt><trkpt lat="36.0928017" lon="10.4019317"><ele>8.0</ele><time>2026-04-04T16:57:24.285Z</time></trkpt><trkpt lat="36.0925133" lon="10.40188"><ele>8.0</ele><time>2026-04-04T16:57:25.285Z</time></trkpt><trkpt lat="36.092215" lon="10.40183"><ele>8.0</ele><time>2026-04-04T16:57:26.285Z</time></trkpt><trkpt lat="36.0919067" lon="10.4017833"><ele>8.0</ele><time>2026-04-04T16:57:27.285Z</time></trkpt><trkpt lat="36.091595" lon="10.4017417"><ele>8.5</ele><time>2026-04-04T16:57:28.285Z</time></trkpt><trkpt lat="36.091275" lon="10.401705"><ele>9.0</ele><time>2026-04-04T16:57:29.285Z</time></trkpt><trkpt lat="36.0909533" lon="10.4016667"><ele>8.5</ele><time>2026-04-04T16:57:30.287Z</time></trkpt><trkpt lat="36.090635" lon="10.4016283"><ele>8.0</ele><time>2026-04-04T16:57:31.285Z</time></trkpt><trkpt lat="36.09032" lon="10.401595"><ele>8.0</ele><time>2026-04-04T16:57:32.286Z</time></trkpt><trkpt lat="36.0900133" lon="10.4015633"><ele>8.0</ele><time>2026-04-04T16:57:33.283Z</time></trkpt><trkpt lat="36.0897083" lon="10.4015367"><ele>8.0</ele><time>2026-04-04T16:57:34.283Z</time></trkpt><trkpt lat="36.0894083" lon="10.40151"><ele>8.0</ele><time>2026-04-04T16:57:35.282Z</time></trkpt><trkpt lat="36.089115" lon="10.401485"><ele>7.5</ele><time>2026-04-04T16:57:36.284Z</time></trkpt><trkpt lat="36.088825" lon="10.4014633"><ele>7.0</ele><time>2026-04-04T16:57:37.282Z</time></trkpt><trkpt lat="36.0885333" lon="10.4014383"><ele>7.5</ele><time>2026-04-04T16:57:38.283Z</time></trkpt><trkpt lat="36.0882467" lon="10.40142"><ele>8.0</ele><time>2026-04-04T16:57:39.284Z</time></trkpt><trkpt lat="36.0879583" lon="10.40141"><ele>8.0</ele><time>2026-04-04T16:57:40.285Z</time></trkpt><trkpt lat="36.0876733" lon="10.401405"><ele>8.0</ele><time>2026-04-04T16:57:41.285Z</time></trkpt><trkpt lat="36.0873867" lon="10.401405"><ele>7.5</ele><time>2026-04-04T16:57:42.286Z</time></trkpt><trkpt lat="36.0871017" lon="10.4014083"><ele>7.0</ele><time>2026-04-04T16:57:43.286Z</time></trkpt><trkpt lat="36.0868167" lon="10.4014167"><ele>7.0</ele><time>2026-04-04T16:57:44.285Z</time></trkpt><trkpt lat="36.0865367" lon="10.40143"><ele>7.0</ele><time>2026-04-04T16:57:45.285Z</time></trkpt><trkpt lat="36.0862533" lon="10.4014467"><ele>7.0</ele><time>2026-04-04T16:57:46.285Z</time></trkpt><trkpt lat="36.08597" lon="10.40146"><ele>7.0</ele><time>2026-04-04T16:57:47.285Z</time></trkpt><trkpt lat="36.0856833" lon="10.401475"><ele>7.0</ele><time>2026-04-04T16:57:48.286Z</time></trkpt><trkpt lat="36.0854" lon="10.401495"><ele>7.0</ele><time>2026-04-04T16:57:49.285Z</time></trkpt><trkpt lat="36.0851133" lon="10.401515"><ele>7.5</ele><time>2026-04-04T16:57:50.283Z</time></trkpt><trkpt lat="36.0848267" lon="10.40154"><ele>8.0</ele><time>2026-04-04T16:57:51.285Z</time></trkpt><trkpt lat="36.08454" lon="10.4015683"><ele>8.0</ele><time>2026-04-04T16:57:52.285Z</time></trkpt><trkpt lat="36.0842567" lon="10.4015983"><ele>8.0</ele><time>2026-04-04T16:57:53.285Z</time></trkpt><trkpt lat="36.083975" lon="10.4016317"><ele>8.0</ele><time>2026-04-04T16:57:54.286Z</time></trkpt><trkpt lat="36.08369" lon="10.4016683"><ele>8.0</ele><time>2026-04-04T16:57:55.286Z</time></trkpt><trkpt lat="36.0834033" lon="10.4017067"><ele>7.0</ele><time>2026-04-04T16:57:56.285Z</time></trkpt><trkpt lat="36.0831183" lon="10.4017467"><ele>6.0</ele><time>2026-04-04T16:57:57.286Z</time></trkpt><trkpt lat="36.0828333" lon="10.40179"><ele>6.0</ele><time>2026-04-04T16:57:58.285Z</time></trkpt><trkpt lat="36.0825483" lon="10.4018383"><ele>6.0</ele><time>2026-04-04T16:57:59.285Z</time></trkpt><trkpt lat="36.0822633" lon="10.4018883"><ele>6.5</ele><time>2026-04-04T16:58:00.286Z</time></trkpt><trkpt lat="36.0819817" lon="10.4019383"><ele>7.0</ele><time>2026-04-04T16:58:01.285Z</time></trkpt><trkpt lat="36.0817017" lon="10.4019917"><ele>7.5</ele><time>2026-04-04T16:58:02.286Z</time></trkpt><trkpt lat="36.08142" lon="10.40205"><ele>8.0</ele><time>2026-04-04T16:58:03.286Z</time></trkpt><trkpt lat="36.0811367" lon="10.4021117"><ele>7.5</ele><time>2026-04-04T16:58:04.286Z</time></trkpt><trkpt lat="36.0808517" lon="10.402175"><ele>7.0</ele><time>2026-04-04T16:58:05.286Z</time></trkpt><trkpt lat="36.0805667" lon="10.4022433"><ele>7.0</ele><time>2026-04-04T16:58:06.286Z</time></trkpt><trkpt lat="36.0802817" lon="10.4023167"><ele>7.0</ele><time>2026-04-04T16:58:07.287Z</time></trkpt><trkpt lat="36.0799967" lon="10.40239"><ele>7.0</ele><time>2026-04-04T16:58:08.286Z</time></trkpt><trkpt lat="36.0797133" lon="10.402465"><ele>7.0</ele><time>2026-04-04T16:58:09.285Z</time></trkpt><trkpt lat="36.0794283" lon="10.4025417"><ele>7.0</ele><time>2026-04-04T16:58:10.285Z</time></trkpt><trkpt lat="36.0791417" lon="10.4026217"><ele>7.0</ele><time>2026-04-04T16:58:11.285Z</time></trkpt><trkpt lat="36.078855" lon="10.402705"><ele>7.0</ele><time>2026-04-04T16:58:12.285Z</time></trkpt><trkpt lat="36.0785667" lon="10.4027917"><ele>7.0</ele><time>2026-04-04T16:58:13.285Z</time></trkpt><trkpt lat="36.0782783" lon="10.40288"><ele>7.5</ele><time>2026-04-04T16:58:14.282Z</time></trkpt><trkpt lat="36.0779867" lon="10.4029717"><ele>8.0</ele><time>2026-04-04T16:58:15.282Z</time></trkpt><trkpt lat="36.0776967" lon="10.403065"><ele>6.5</ele><time>2026-04-04T16:58:16.282Z</time></trkpt><trkpt lat="36.077405" lon="10.4031567"><ele>5.0</ele><time>2026-04-04T16:58:17.282Z</time></trkpt><trkpt lat="36.0771117" lon="10.4032483"><ele>5.0</ele><time>2026-04-04T16:58:18.284Z</time></trkpt><trkpt lat="36.07682" lon="10.4033367"><ele>5.0</ele><time>2026-04-04T16:58:19.282Z</time></trkpt><trkpt lat="36.07653" lon="10.4034283"><ele>5.0</ele><time>2026-04-04T16:58:20.282Z</time></trkpt><trkpt lat="36.0762433" lon="10.4035183"><ele>5.0</ele><time>2026-04-04T16:58:21.282Z</time></trkpt><trkpt lat="36.0759583" lon="10.4036083"><ele>5.0</ele><time>2026-04-04T16:58:22.284Z</time></trkpt><trkpt lat="36.0756767" lon="10.403695"><ele>5.0</ele><time>2026-04-04T16:58:23.283Z</time></trkpt><trkpt lat="36.0753967" lon="10.403785"><ele>5.0</ele><time>2026-04-04T16:58:24.282Z</time></trkpt><trkpt lat="36.07512" lon="10.4038717"><ele>5.0</ele><time>2026-04-04T16:58:25.282Z</time></trkpt><trkpt lat="36.074845" lon="10.4039567"><ele>5.5</ele><time>2026-04-04T16:58:26.282Z</time></trkpt><trkpt lat="36.0745717" lon="10.4040433"><ele>6.0</ele><time>2026-04-04T16:58:27.285Z</time></trkpt><trkpt lat="36.0742983" lon="10.40413"><ele>5.5</ele><time>2026-04-04T16:58:28.285Z</time></trkpt><trkpt lat="36.0740217" lon="10.4042183"><ele>5.0</ele><time>2026-04-04T16:58:29.286Z</time></trkpt><trkpt lat="36.073745" lon="10.4043083"><ele>5.0</ele><time>2026-04-04T16:58:30.285Z</time></trkpt><trkpt lat="36.0734667" lon="10.4044"><ele>5.0</ele><time>2026-04-04T16:58:31.285Z</time></trkpt><trkpt lat="36.0731883" lon="10.4044917"><ele>5.5</ele><time>2026-04-04T16:58:32.286Z</time></trkpt><trkpt lat="36.0729117" lon="10.40458"><ele>6.0</ele><time>2026-04-04T16:58:33.285Z</time></trkpt><trkpt lat="36.0726317" lon="10.4046683"><ele>5.5</ele><time>2026-04-04T16:58:34.286Z</time></trkpt><trkpt lat="36.072355" lon="10.4047517"><ele>5.0</ele><time>2026-04-04T16:58:35.286Z</time></trkpt><trkpt lat="36.072075" lon="10.4048383"><ele>5.0</ele><time>2026-04-04T16:58:36.285Z</time></trkpt><trkpt lat="36.0718" lon="10.4049217"><ele>5.0</ele><time>2026-04-04T16:58:37.286Z</time></trkpt><trkpt lat="36.0715283" lon="10.405005"><ele>4.5</ele><time>2026-04-04T16:58:38.286Z</time></trkpt><trkpt lat="36.07126" lon="10.4050817"><ele>4.0</ele><time>2026-04-04T16:58:39.285Z</time></trkpt><trkpt lat="36.07099" lon="10.4051617"><ele>4.0</ele><time>2026-04-04T16:58:40.285Z</time></trkpt><trkpt lat="36.0707183" lon="10.405245"><ele>4.0</ele><time>2026-04-04T16:58:41.285Z</time></trkpt><trkpt lat="36.070445" lon="10.4053317"><ele>4.0</ele><time>2026-04-04T16:58:42.285Z</time></trkpt><trkpt lat="36.07017" lon="10.405415"><ele>4.0</ele><time>2026-04-04T16:58:43.285Z</time></trkpt><trkpt lat="36.0698967" lon="10.4055017"><ele>3.0</ele><time>2026-04-04T16:58:44.282Z</time></trkpt><trkpt lat="36.0696233" lon="10.4055883"><ele>2.0</ele><time>2026-04-04T16:58:45.283Z</time></trkpt><trkpt lat="36.0693483" lon="10.4056717"><ele>4.0</ele><time>2026-04-04T16:58:46.283Z</time></trkpt><trkpt lat="36.069075" lon="10.4057533"><ele>6.0</ele><time>2026-04-04T16:58:47.283Z</time></trkpt><trkpt lat="36.0687983" lon="10.4058367"><ele>6.0</ele><time>2026-04-04T16:58:48.283Z</time></trkpt><trkpt lat="36.0685233" lon="10.40592"><ele>6.0</ele><time>2026-04-04T16:58:49.284Z</time></trkpt><trkpt lat="36.0682467" lon="10.4060083"><ele>5.5</ele><time>2026-04-04T16:58:50.282Z</time></trkpt><trkpt lat="36.06797" lon="10.4061"><ele>5.0</ele><time>2026-04-04T16:58:51.283Z</time></trkpt><trkpt lat="36.0676883" lon="10.4061917"><ele>5.0</ele><time>2026-04-04T16:58:52.283Z</time></trkpt><trkpt lat="36.0674033" lon="10.4062783"><ele>5.0</ele><time>2026-04-04T16:58:53.283Z</time></trkpt><trkpt lat="36.0671183" lon="10.406365"><ele>5.0</ele><time>2026-04-04T16:58:54.285Z</time></trkpt><trkpt lat="36.0668317" lon="10.40645"><ele>5.0</ele><time>2026-04-04T16:58:55.285Z</time></trkpt><trkpt lat="36.0665433" lon="10.4065367"><ele>6.0</ele><time>2026-04-04T16:58:56.285Z</time></trkpt><trkpt lat="36.066255" lon="10.4066267"><ele>7.0</ele><time>2026-04-04T16:58:57.285Z</time></trkpt><trkpt lat="36.0659667" lon="10.4067167"><ele>6.5</ele><time>2026-04-04T16:58:58.285Z</time></trkpt><trkpt lat="36.065675" lon="10.4068117"><ele>6.0</ele><time>2026-04-04T16:58:59.286Z</time></trkpt><trkpt lat="36.0653833" lon="10.4069033"><ele>6.0</ele><time>2026-04-04T16:59:00.286Z</time></trkpt><trkpt lat="36.0650917" lon="10.4069933"><ele>6.0</ele><time>2026-04-04T16:59:01.285Z</time></trkpt><trkpt lat="36.0648017" lon="10.4070833"><ele>5.0</ele><time>2026-04-04T16:59:02.285Z</time></trkpt><trkpt lat="36.0645083" lon="10.407175"><ele>4.0</ele><time>2026-04-04T16:59:03.285Z</time></trkpt><trkpt lat="36.0642167" lon="10.40727"><ele>4.5</ele><time>2026-04-04T16:59:04.286Z</time></trkpt><trkpt lat="36.063925" lon="10.407365"><ele>5.0</ele><time>2026-04-04T16:59:05.285Z</time></trkpt><trkpt lat="36.06364" lon="10.4074567"><ele>5.0</ele><time>2026-04-04T16:59:06.286Z</time></trkpt><trkpt lat="36.0633617" lon="10.4075467"><ele>5.0</ele><time>2026-04-04T16:59:07.285Z</time></trkpt><trkpt lat="36.06308" lon="10.4076417"><ele>5.5</ele><time>2026-04-04T16:59:08.285Z</time></trkpt><trkpt lat="36.0627883" lon="10.4077433"><ele>6.0</ele><time>2026-04-04T16:59:09.286Z</time></trkpt><trkpt lat="36.0624833" lon="10.4078467"><ele>6.0</ele><time>2026-04-04T16:59:10.285Z</time></trkpt><trkpt lat="36.062165" lon="10.4079467"><ele>6.0</ele><time>2026-04-04T16:59:11.285Z</time></trkpt><trkpt lat="36.0618367" lon="10.4080417"><ele>5.5</ele><time>2026-04-04T16:59:12.285Z</time></trkpt><trkpt lat="36.0615067" lon="10.408135"><ele>5.0</ele><time>2026-04-04T16:59:13.285Z</time></trkpt><trkpt lat="36.0611783" lon="10.40823"><ele>5.0</ele><time>2026-04-04T16:59:14.285Z</time></trkpt><trkpt lat="36.060855" lon="10.40833"><ele>5.0</ele><time>2026-04-04T16:59:15.286Z</time></trkpt><trkpt lat="36.06054" lon="10.408435"><ele>5.0</ele><time>2026-04-04T16:59:16.285Z</time></trkpt><trkpt lat="36.06023" lon="10.4085367"><ele>5.0</ele><time>2026-04-04T16:59:17.285Z</time></trkpt><trkpt lat="36.05992" lon="10.4086433"><ele>5.0</ele><time>2026-04-04T16:59:18.285Z</time></trkpt><trkpt lat="36.0596133" lon="10.40875"><ele>5.0</ele><time>2026-04-04T16:59:19.285Z</time></trkpt><trkpt lat="36.0593067" lon="10.40886"><ele>6.0</ele><time>2026-04-04T16:59:20.285Z</time></trkpt><trkpt lat="36.059005" lon="10.4089733"><ele>7.0</ele><time>2026-04-04T16:59:21.285Z</time></trkpt><trkpt lat="36.05871" lon="10.4090867"><ele>7.0</ele><time>2026-04-04T16:59:22.285Z</time></trkpt><trkpt lat="36.0584183" lon="10.4091967"><ele>7.0</ele><time>2026-04-04T16:59:23.286Z</time></trkpt><trkpt lat="36.058125" lon="10.4093117"><ele>7.5</ele><time>2026-04-04T16:59:24.286Z</time></trkpt><trkpt lat="36.0578317" lon="10.409425"><ele>8.0</ele><time>2026-04-04T16:59:25.285Z</time></trkpt><trkpt lat="36.0575383" lon="10.4095417"><ele>8.0</ele><time>2026-04-04T16:59:26.285Z</time></trkpt><trkpt lat="36.0572467" lon="10.40966"><ele>8.0</ele><time>2026-04-04T16:59:27.285Z</time></trkpt><trkpt lat="36.0569533" lon="10.4097817"><ele>8.0</ele><time>2026-04-04T16:59:28.286Z</time></trkpt><trkpt lat="36.0566583" lon="10.4099067"><ele>8.0</ele><time>2026-04-04T16:59:29.283Z</time></trkpt><trkpt lat="36.056365" lon="10.410035"><ele>8.5</ele><time>2026-04-04T16:59:30.283Z</time></trkpt><trkpt lat="36.0560717" lon="10.410165"><ele>9.0</ele><time>2026-04-04T16:59:31.285Z</time></trkpt><trkpt lat="36.0557783" lon="10.4102983"><ele>9.0</ele><time>2026-04-04T16:59:32.285Z</time></trkpt><trkpt lat="36.055485" lon="10.410435"><ele>9.0</ele><time>2026-04-04T16:59:33.283Z</time></trkpt><trkpt lat="36.0551883" lon="10.4105733"><ele>9.0</ele><time>2026-04-04T16:59:34.283Z</time></trkpt><trkpt lat="36.0548967" lon="10.4107133"><ele>9.0</ele><time>2026-04-04T16:59:35.281Z</time></trkpt><trkpt lat="36.0546083" lon="10.4108517"><ele>9.0</ele><time>2026-04-04T16:59:36.282Z</time></trkpt><trkpt lat="36.0543267" lon="10.4109933"><ele>9.0</ele><time>2026-04-04T16:59:37.282Z</time></trkpt><trkpt lat="36.054055" lon="10.41113"><ele>9.0</ele><time>2026-04-04T16:59:38.282Z</time></trkpt><trkpt lat="36.053785" lon="10.4112667"><ele>9.0</ele><time>2026-04-04T16:59:39.281Z</time></trkpt><trkpt lat="36.0535183" lon="10.4114033"><ele>8.5</ele><time>2026-04-04T16:59:40.285Z</time></trkpt><trkpt lat="36.053255" lon="10.4115417"><ele>8.0</ele><time>2026-04-04T16:59:41.284Z</time></trkpt><trkpt lat="36.0529917" lon="10.4116817"><ele>8.0</ele><time>2026-04-04T16:59:42.285Z</time></trkpt><trkpt lat="36.05273" lon="10.4118267"><ele>8.0</ele><time>2026-04-04T16:59:43.284Z</time></trkpt><trkpt lat="36.0524683" lon="10.411975"><ele>7.5</ele><time>2026-04-04T16:59:44.281Z</time></trkpt><trkpt lat="36.0522083" lon="10.4121233"><ele>7.0</ele><time>2026-04-04T16:59:45.285Z</time></trkpt><trkpt lat="36.051945" lon="10.41227"><ele>7.0</ele><time>2026-04-04T16:59:46.284Z</time></trkpt><trkpt lat="36.05168" lon="10.4124183"><ele>7.0</ele><time>2026-04-04T16:59:47.284Z</time></trkpt><trkpt lat="36.05141" lon="10.4125683"><ele>7.0</ele><time>2026-04-04T16:59:48.284Z</time></trkpt><trkpt lat="36.05114" lon="10.4127183"><ele>7.0</ele><time>2026-04-04T16:59:49.284Z</time></trkpt><trkpt lat="36.0508667" lon="10.4128733"><ele>6.5</ele><time>2026-04-04T16:59:50.286Z</time></trkpt><trkpt lat="36.050595" lon="10.4130267"><ele>6.0</ele><time>2026-04-04T16:59:51.284Z</time></trkpt><trkpt lat="36.0503217" lon="10.4131817"><ele>6.0</ele><time>2026-04-04T16:59:52.284Z</time></trkpt><trkpt lat="36.050045" lon="10.4133383"><ele>6.0</ele><time>2026-04-04T16:59:53.285Z</time></trkpt><trkpt lat="36.0497683" lon="10.4134933"><ele>5.5</ele><time>2026-04-04T16:59:54.284Z</time></trkpt><trkpt lat="36.0494933" lon="10.41365"><ele>5.0</ele><time>2026-04-04T16:59:55.284Z</time></trkpt><trkpt lat="36.0492167" lon="10.41381"><ele>5.5</ele><time>2026-04-04T16:59:56.284Z</time></trkpt><trkpt lat="36.0489417" lon="10.4139717"><ele>6.0</ele><time>2026-04-04T16:59:57.285Z</time></trkpt><trkpt lat="36.0486633" lon="10.414135"><ele>6.0</ele><time>2026-04-04T16:59:58.284Z</time></trkpt><trkpt lat="36.048385" lon="10.414295"><ele>6.0</ele><time>2026-04-04T16:59:59.284Z</time></trkpt><trkpt lat="36.048105" lon="10.414455"><ele>6.0</ele><time>2026-04-04T17:00:00.284Z</time></trkpt><trkpt lat="36.0478267" lon="10.414615"><ele>6.0</ele><time>2026-04-04T17:00:01.285Z</time></trkpt><trkpt lat="36.0475483" lon="10.4147767"><ele>7.5</ele><time>2026-04-04T17:00:02.286Z</time></trkpt><trkpt lat="36.0472717" lon="10.4149417"><ele>9.0</ele><time>2026-04-04T17:00:03.285Z</time></trkpt><trkpt lat="36.0469933" lon="10.4151033"><ele>9.0</ele><time>2026-04-04T17:00:04.284Z</time></trkpt><trkpt lat="36.0467133" lon="10.4152617"><ele>9.0</ele><time>2026-04-04T17:00:05.285Z</time></trkpt><trkpt lat="36.046435" lon="10.415415"><ele>7.5</ele><time>2026-04-04T17:00:06.285Z</time></trkpt><trkpt lat="36.0461633" lon="10.4155667"><ele>6.0</ele><time>2026-04-04T17:00:07.284Z</time></trkpt><trkpt lat="36.0459033" lon="10.415715"><ele>6.0</ele><time>2026-04-04T17:00:08.284Z</time></trkpt><trkpt lat="36.0456467" lon="10.4158583"><ele>6.0</ele><time>2026-04-04T17:00:09.284Z</time></trkpt><trkpt lat="36.0453867" lon="10.4160067"><ele>6.0</ele><time>2026-04-04T17:00:10.284Z</time></trkpt><trkpt lat="36.0451267" lon="10.4161533"><ele>6.0</ele><time>2026-04-04T17:00:11.285Z</time></trkpt><trkpt lat="36.044865" lon="10.4163"><ele>6.0</ele><time>2026-04-04T17:00:12.286Z</time></trkpt><trkpt lat="36.0446" lon="10.41645"><ele>6.0</ele><time>2026-04-04T17:00:13.284Z</time></trkpt><trkpt lat="36.044335" lon="10.4165983"><ele>6.0</ele><time>2026-04-04T17:00:14.283Z</time></trkpt><trkpt lat="36.0440683" lon="10.4167467"><ele>6.0</ele><time>2026-04-04T17:00:15.282Z</time></trkpt><trkpt lat="36.0438017" lon="10.4168967"><ele>6.0</ele><time>2026-04-04T17:00:16.282Z</time></trkpt><trkpt lat="36.0435333" lon="10.41705"><ele>6.0</ele><time>2026-04-04T17:00:17.281Z</time></trkpt><trkpt lat="36.0432667" lon="10.4171983"><ele>6.0</ele><time>2026-04-04T17:00:18.282Z</time></trkpt><trkpt lat="36.0430017" lon="10.4173467"><ele>6.0</ele><time>2026-04-04T17:00:19.283Z</time></trkpt><trkpt lat="36.0427383" lon="10.417495"><ele>6.0</ele><time>2026-04-04T17:00:20.281Z</time></trkpt><trkpt lat="36.042475" lon="10.4176433"><ele>6.0</ele><time>2026-04-04T17:00:21.281Z</time></trkpt><trkpt lat="36.042215" lon="10.41779"><ele>6.0</ele><time>2026-04-04T17:00:22.282Z</time></trkpt><trkpt lat="36.041955" lon="10.4179367"><ele>6.0</ele><time>2026-04-04T17:00:23.282Z</time></trkpt><trkpt lat="36.0416983" lon="10.41808"><ele>6.0</ele><time>2026-04-04T17:00:24.282Z</time></trkpt><trkpt lat="36.04144" lon="10.418225"><ele>6.0</ele><time>2026-04-04T17:00:25.282Z</time></trkpt><trkpt lat="36.0411733" lon="10.41837"><ele>6.0</ele><time>2026-04-04T17:00:26.281Z</time></trkpt><trkpt lat="36.0409033" lon="10.4185083"><ele>6.0</ele><time>2026-04-04T17:00:27.283Z</time></trkpt><trkpt lat="36.0406333" lon="10.4186483"><ele>5.5</ele><time>2026-04-04T17:00:28.282Z</time></trkpt><trkpt lat="36.04036" lon="10.4188"><ele>5.0</ele><time>2026-04-04T17:00:29.282Z</time></trkpt><trkpt lat="36.0400867" lon="10.4189533"><ele>4.5</ele><time>2026-04-04T17:00:30.283Z</time></trkpt><trkpt lat="36.0398133" lon="10.419105"><ele>4.0</ele><time>2026-04-04T17:00:31.284Z</time></trkpt><trkpt lat="36.0395417" lon="10.4192567"><ele>4.0</ele><time>2026-04-04T17:00:32.284Z</time></trkpt><trkpt lat="36.0392717" lon="10.4194067"><ele>4.0</ele><time>2026-04-04T17:00:33.284Z</time></trkpt><trkpt lat="36.039005" lon="10.4195533"><ele>3.5</ele><time>2026-04-04T17:00:34.284Z</time></trkpt><trkpt lat="36.03874" lon="10.4197"><ele>3.0</ele><time>2026-04-04T17:00:35.284Z</time></trkpt><trkpt lat="36.0384783" lon="10.4198483"><ele>3.0</ele><time>2026-04-04T17:00:36.285Z</time></trkpt><trkpt lat="36.0382133" lon="10.4199967"><ele>3.0</ele><time>2026-04-04T17:00:37.285Z</time></trkpt><trkpt lat="36.0379483" lon="10.4201467"><ele>3.0</ele><time>2026-04-04T17:00:38.284Z</time></trkpt><trkpt lat="36.0376833" lon="10.4202967"><ele>3.0</ele><time>2026-04-04T17:00:39.285Z</time></trkpt><trkpt lat="36.037415" lon="10.42045"><ele>3.0</ele><time>2026-04-04T17:00:40.284Z</time></trkpt><trkpt lat="36.037145" lon="10.420605"><ele>3.0</ele><time>2026-04-04T17:00:41.285Z</time></trkpt><trkpt lat="36.0368733" lon="10.4207617"><ele>3.0</ele><time>2026-04-04T17:00:42.286Z</time></trkpt><trkpt lat="36.0366" lon="10.4209183"><ele>3.0</ele><time>2026-04-04T17:00:43.284Z</time></trkpt><trkpt lat="36.036325" lon="10.4210717"><ele>3.0</ele><time>2026-04-04T17:00:44.285Z</time></trkpt><trkpt lat="36.0360483" lon="10.4212267"><ele>3.0</ele><time>2026-04-04T17:00:45.283Z</time></trkpt><trkpt lat="36.0357683" lon="10.4213867"><ele>3.0</ele><time>2026-04-04T17:00:46.284Z</time></trkpt><trkpt lat="36.0354867" lon="10.4215433"><ele>3.0</ele><time>2026-04-04T17:00:47.284Z</time></trkpt><trkpt lat="36.0352033" lon="10.4217"><ele>3.0</ele><time>2026-04-04T17:00:48.285Z</time></trkpt><trkpt lat="36.03492" lon="10.4218583"><ele>3.0</ele><time>2026-04-04T17:00:49.286Z</time></trkpt><trkpt lat="36.03464" lon="10.4220167"><ele>2.5</ele><time>2026-04-04T17:00:50.284Z</time></trkpt><trkpt lat="36.03436" lon="10.422175"><ele>2.0</ele><time>2026-04-04T17:00:51.284Z</time></trkpt><trkpt lat="36.03408" lon="10.4223333"><ele>2.0</ele><time>2026-04-04T17:00:52.285Z</time></trkpt><trkpt lat="36.033805" lon="10.422485"><ele>2.0</ele><time>2026-04-04T17:00:53.284Z</time></trkpt><trkpt lat="36.03353" lon="10.4226367"><ele>2.5</ele><time>2026-04-04T17:00:54.285Z</time></trkpt><trkpt lat="36.033255" lon="10.422785"><ele>3.0</ele><time>2026-04-04T17:00:55.284Z</time></trkpt><trkpt lat="36.03298" lon="10.42293"><ele>3.0</ele><time>2026-04-04T17:00:56.284Z</time></trkpt><trkpt lat="36.032705" lon="10.423075"><ele>3.0</ele><time>2026-04-04T17:00:57.284Z</time></trkpt><trkpt lat="36.0324283" lon="10.42322"><ele>3.5</ele><time>2026-04-04T17:00:58.281Z</time></trkpt><trkpt lat="36.03215" lon="10.42336"><ele>4.0</ele><time>2026-04-04T17:00:59.284Z</time></trkpt><trkpt lat="36.03187" lon="10.4234983"><ele>4.5</ele><time>2026-04-04T17:01:00.286Z</time></trkpt><trkpt lat="36.031595" lon="10.4236283"><ele>5.0</ele><time>2026-04-04T17:01:01.284Z</time></trkpt><trkpt lat="36.0313233" lon="10.4237633"><ele>5.5</ele><time>2026-04-04T17:01:02.284Z</time></trkpt><trkpt lat="36.0310517" lon="10.4238867"><ele>6.0</ele><time>2026-04-04T17:01:03.284Z</time></trkpt><trkpt lat="36.0307733" lon="10.424015"><ele>6.0</ele><time>2026-04-04T17:01:04.285Z</time></trkpt><trkpt lat="36.0304967" lon="10.4241417"><ele>6.0</ele><time>2026-04-04T17:01:05.284Z</time></trkpt><trkpt lat="36.0302233" lon="10.4242717"><ele>6.0</ele><time>2026-04-04T17:01:06.285Z</time></trkpt><trkpt lat="36.0299517" lon="10.4243967"><ele>6.0</ele><time>2026-04-04T17:01:07.284Z</time></trkpt><trkpt lat="36.0296817" lon="10.4245133"><ele>6.0</ele><time>2026-04-04T17:01:08.284Z</time></trkpt><trkpt lat="36.0294117" lon="10.4246233"><ele>6.0</ele><time>2026-04-04T17:01:09.284Z</time></trkpt><trkpt lat="36.0291433" lon="10.4247267"><ele>5.0</ele><time>2026-04-04T17:01:10.284Z</time></trkpt><trkpt lat="36.028875" lon="10.424825"><ele>4.0</ele><time>2026-04-04T17:01:11.284Z</time></trkpt><trkpt lat="36.028605" lon="10.42492"><ele>4.0</ele><time>2026-04-04T17:01:12.286Z</time></trkpt><trkpt lat="36.028335" lon="10.4250083"><ele>4.0</ele><time>2026-04-04T17:01:13.285Z</time></trkpt><trkpt lat="36.0280617" lon="10.4250933"><ele>4.0</ele><time>2026-04-04T17:01:14.281Z</time></trkpt><trkpt lat="36.027785" lon="10.4251767"><ele>4.0</ele><time>2026-04-04T17:01:15.285Z</time></trkpt><trkpt lat="36.0275067" lon="10.42526"><ele>4.0</ele><time>2026-04-04T17:01:16.282Z</time></trkpt><trkpt lat="36.0272267" lon="10.425345"><ele>4.0</ele><time>2026-04-04T17:01:17.282Z</time></trkpt><trkpt lat="36.026945" lon="10.4254283"><ele>4.0</ele><time>2026-04-04T17:01:18.282Z</time></trkpt><trkpt lat="36.0266617" lon="10.4255083"><ele>4.0</ele><time>2026-04-04T17:01:19.282Z</time></trkpt><trkpt lat="36.0263783" lon="10.4255833"><ele>4.0</ele><time>2026-04-04T17:01:20.281Z</time></trkpt><trkpt lat="36.0260917" lon="10.4256567"><ele>4.0</ele><time>2026-04-04T17:01:21.282Z</time></trkpt><trkpt lat="36.025805" lon="10.4257317"><ele>4.5</ele><time>2026-04-04T17:01:22.282Z</time></trkpt><trkpt lat="36.0255167" lon="10.425805"><ele>5.0</ele><time>2026-04-04T17:01:23.282Z</time></trkpt><trkpt lat="36.025225" lon="10.4258783"><ele>5.0</ele><time>2026-04-04T17:01:24.284Z</time></trkpt><trkpt lat="36.0249317" lon="10.4259483"><ele>5.0</ele><time>2026-04-04T17:01:25.284Z</time></trkpt><trkpt lat="36.0246367" lon="10.426015"><ele>5.0</ele><time>2026-04-04T17:01:26.285Z</time></trkpt><trkpt lat="36.0243383" lon="10.4260833"><ele>5.0</ele><time>2026-04-04T17:01:27.284Z</time></trkpt><trkpt lat="36.0240417" lon="10.42615"><ele>4.5</ele><time>2026-04-04T17:01:28.284Z</time></trkpt><trkpt lat="36.023745" lon="10.426215"><ele>4.0</ele><time>2026-04-04T17:01:29.284Z</time></trkpt><trkpt lat="36.0234483" lon="10.4262817"><ele>5.0</ele><time>2026-04-04T17:01:30.285Z</time></trkpt><trkpt lat="36.023155" lon="10.4263467"><ele>6.0</ele><time>2026-04-04T17:01:31.284Z</time></trkpt><trkpt lat="36.02287" lon="10.42641"><ele>6.0</ele><time>2026-04-04T17:01:32.285Z</time></trkpt><trkpt lat="36.0225933" lon="10.4264683"><ele>6.0</ele><time>2026-04-04T17:01:33.284Z</time></trkpt><trkpt lat="36.0223217" lon="10.426525"><ele>4.5</ele><time>2026-04-04T17:01:34.282Z</time></trkpt><trkpt lat="36.0220533" lon="10.42658"><ele>3.0</ele><time>2026-04-04T17:01:35.283Z</time></trkpt><trkpt lat="36.0217867" lon="10.426635"><ele>3.0</ele><time>2026-04-04T17:01:36.282Z</time></trkpt><trkpt lat="36.0215183" lon="10.4266917"><ele>3.0</ele><time>2026-04-04T17:01:37.283Z</time></trkpt><trkpt lat="36.0212483" lon="10.4267483"><ele>3.0</ele><time>2026-04-04T17:01:38.281Z</time></trkpt><trkpt lat="36.0209767" lon="10.4268083"><ele>3.0</ele><time>2026-04-04T17:01:39.283Z</time></trkpt><trkpt lat="36.020705" lon="10.4268733"><ele>2.5</ele><time>2026-04-04T17:01:40.283Z</time></trkpt><trkpt lat="36.0204467" lon="10.426935"><ele>2.0</ele><time>2026-04-04T17:01:41.283Z</time></trkpt><trkpt lat="36.0202017" lon="10.42699"><ele>2.5</ele><time>2026-04-04T17:01:42.283Z</time></trkpt><trkpt lat="36.0199717" lon="10.4270383"><ele>3.0</ele><time>2026-04-04T17:01:43.282Z</time></trkpt><trkpt lat="36.019745" lon="10.4270883"><ele>3.0</ele><time>2026-04-04T17:01:44.281Z</time></trkpt><trkpt lat="36.0195217" lon="10.4271433"><ele>3.0</ele><time>2026-04-04T17:01:45.285Z</time></trkpt><trkpt lat="36.0192983" lon="10.4272"><ele>2.0</ele><time>2026-04-04T17:01:46.284Z</time></trkpt><trkpt lat="36.0190683" lon="10.4272667"><ele>1.0</ele><time>2026-04-04T17:01:47.285Z</time></trkpt><trkpt lat="36.01882" lon="10.4273433"><ele>1.0</ele><time>2026-04-04T17:01:48.285Z</time></trkpt><trkpt lat="36.01856" lon="10.42742"><ele>1.0</ele><time>2026-04-04T17:01:49.284Z</time></trkpt><trkpt lat="36.0182867" lon="10.4274917"><ele>2.0</ele><time>2026-04-04T17:01:50.284Z</time></trkpt><trkpt lat="36.018015" lon="10.4275633"><ele>3.0</ele><time>2026-04-04T17:01:51.284Z</time></trkpt><trkpt lat="36.01774" lon="10.42764"><ele>3.0</ele><time>2026-04-04T17:01:52.284Z</time></trkpt><trkpt lat="36.017465" lon="10.42772"><ele>3.0</ele><time>2026-04-04T17:01:53.285Z</time></trkpt><trkpt lat="36.0171883" lon="10.4278"><ele>3.0</ele><time>2026-04-04T17:01:54.285Z</time></trkpt><trkpt lat="36.0169117" lon="10.4278833"><ele>3.0</ele><time>2026-04-04T17:01:55.284Z</time></trkpt><trkpt lat="36.0166317" lon="10.4279683"><ele>2.5</ele><time>2026-04-04T17:01:56.284Z</time></trkpt><trkpt lat="36.0163533" lon="10.4280567"><ele>2.0</ele><time>2026-04-04T17:01:57.284Z</time></trkpt><trkpt lat="36.016075" lon="10.42815"><ele>2.0</ele><time>2026-04-04T17:01:58.284Z</time></trkpt><trkpt lat="36.015795" lon="10.4282483"><ele>2.0</ele><time>2026-04-04T17:01:59.284Z</time></trkpt><trkpt lat="36.01551" lon="10.428355"><ele>2.0</ele><time>2026-04-04T17:02:00.285Z</time></trkpt><trkpt lat="36.0152183" lon="10.42847"><ele>2.0</ele><time>2026-04-04T17:02:01.284Z</time></trkpt><trkpt lat="36.01492" lon="10.4285967"><ele>2.0</ele><time>2026-04-04T17:02:02.284Z</time></trkpt><trkpt lat="36.014615" lon="10.4287267"><ele>2.0</ele><time>2026-04-04T17:02:03.284Z</time></trkpt><trkpt lat="36.014305" lon="10.4288567"><ele>2.0</ele><time>2026-04-04T17:02:04.282Z</time></trkpt><trkpt lat="36.01399" lon="10.4289867"><ele>2.0</ele><time>2026-04-04T17:02:05.281Z</time></trkpt><trkpt lat="36.0136717" lon="10.42912"><ele>2.0</ele><time>2026-04-04T17:02:06.283Z</time></trkpt><trkpt lat="36.013355" lon="10.429255"><ele>2.0</ele><time>2026-04-04T17:02:07.282Z</time></trkpt><trkpt lat="36.013035" lon="10.429395"><ele>2.0</ele><time>2026-04-04T17:02:08.282Z</time></trkpt><trkpt lat="36.0127167" lon="10.4295433"><ele>2.0</ele><time>2026-04-04T17:02:09.283Z</time></trkpt><trkpt lat="36.0124" lon="10.429695"><ele>2.0</ele><time>2026-04-04T17:02:10.283Z</time></trkpt><trkpt lat="36.0120917" lon="10.42985"><ele>2.0</ele><time>2026-04-04T17:02:11.283Z</time></trkpt><trkpt lat="36.011795" lon="10.4300033"><ele>1.5</ele><time>2026-04-04T17:02:12.283Z</time></trkpt><trkpt lat="36.0115133" lon="10.43015"><ele>1.0</ele><time>2026-04-04T17:02:13.282Z</time></trkpt><trkpt lat="36.011245" lon="10.4302933"><ele>1.0</ele><time>2026-04-04T17:02:14.282Z</time></trkpt><trkpt lat="36.0109867" lon="10.430435"><ele>1.0</ele><time>2026-04-04T17:02:15.285Z</time></trkpt><trkpt lat="36.0107383" lon="10.430575"><ele>1.0</ele><time>2026-04-04T17:02:16.284Z</time></trkpt><trkpt lat="36.010495" lon="10.430715"><ele>1.0</ele><time>2026-04-04T17:02:17.284Z</time></trkpt><trkpt lat="36.010255" lon="10.43086"><ele>1.0</ele><time>2026-04-04T17:02:18.285Z</time></trkpt><trkpt lat="36.0100167" lon="10.4310067"><ele>1.0</ele><time>2026-04-04T17:02:19.284Z</time></trkpt><trkpt lat="36.0097733" lon="10.43116"><ele>1.5</ele><time>2026-04-04T17:02:20.284Z</time></trkpt><trkpt lat="36.0095267" lon="10.431315"><ele>2.0</ele><time>2026-04-04T17:02:21.284Z</time></trkpt><trkpt lat="36.0092783" lon="10.4314767"><ele>2.0</ele><time>2026-04-04T17:02:22.285Z</time></trkpt><trkpt lat="36.0090283" lon="10.4316383"><ele>2.0</ele><time>2026-04-04T17:02:23.285Z</time></trkpt><trkpt lat="36.0087783" lon="10.4318017"><ele>2.0</ele><time>2026-04-04T17:02:24.285Z</time></trkpt><trkpt lat="36.0085267" lon="10.43197"><ele>2.0</ele><time>2026-04-04T17:02:25.285Z</time></trkpt><trkpt lat="36.0082733" lon="10.4321467"><ele>3.0</ele><time>2026-04-04T17:02:26.284Z</time></trkpt><trkpt lat="36.008015" lon="10.4323267"><ele>4.0</ele><time>2026-04-04T17:02:27.284Z</time></trkpt><trkpt lat="36.00776" lon="10.4325033"><ele>4.0</ele><time>2026-04-04T17:02:28.284Z</time></trkpt><trkpt lat="36.0075133" lon="10.4326717"><ele>4.0</ele><time>2026-04-04T17:02:29.284Z</time></trkpt><trkpt lat="36.0072817" lon="10.4328317"><ele>4.0</ele><time>2026-04-04T17:02:30.286Z</time></trkpt><trkpt lat="36.0070633" lon="10.432985"><ele>4.0</ele><time>2026-04-04T17:02:31.284Z</time></trkpt><trkpt lat="36.0068633" lon="10.4331267"><ele>4.0</ele><time>2026-04-04T17:02:32.285Z</time></trkpt><trkpt lat="36.0066783" lon="10.433255"><ele>4.0</ele><time>2026-04-04T17:02:33.284Z</time></trkpt><trkpt lat="36.00651" lon="10.4333717"><ele>4.0</ele><time>2026-04-04T17:02:34.282Z</time></trkpt><trkpt lat="36.006355" lon="10.4334817"><ele>4.0</ele><time>2026-04-04T17:02:35.283Z</time></trkpt><trkpt lat="36.0062083" lon="10.433585"><ele>4.0</ele><time>2026-04-04T17:02:36.282Z</time></trkpt><trkpt lat="36.0060717" lon="10.4336817"><ele>4.0</ele><time>2026-04-04T17:02:37.282Z</time></trkpt><trkpt lat="36.0059467" lon="10.4337633"><ele>4.0</ele><time>2026-04-04T17:02:38.282Z</time></trkpt><trkpt lat="36.0058367" lon="10.4338367"><ele>4.0</ele><time>2026-04-04T17:02:39.283Z</time></trkpt><trkpt lat="36.005735" lon="10.4339017"><ele>4.0</ele><time>2026-04-04T17:02:40.283Z</time></trkpt><trkpt lat="36.0056383" lon="10.433965"><ele>4.0</ele><time>2026-04-04T17:02:41.283Z</time></trkpt><trkpt lat="36.005545" lon="10.43403"><ele>3.9999999999999996</ele><time>2026-04-04T17:02:42.282Z</time></trkpt><trkpt lat="36.00546" lon="10.43409"><ele>4.0</ele><time>2026-04-04T17:02:43.282Z</time></trkpt><trkpt lat="36.0053817" lon="10.4341483"><ele>4.0</ele><time>2026-04-04T17:02:44.282Z</time></trkpt><trkpt lat="36.0053067" lon="10.434205"><ele>4.0</ele><time>2026-04-04T17:02:45.282Z</time></trkpt><trkpt lat="36.0052367" lon="10.434255"><ele>3.9999999999999996</ele><time>2026-04-04T17:02:46.286Z</time></trkpt><trkpt lat="36.00517" lon="10.4342967"><ele>4.0</ele><time>2026-04-04T17:02:47.284Z</time></trkpt><trkpt lat="36.005105" lon="10.43434"><ele>3.9999999999999996</ele><time>2026-04-04T17:02:48.285Z</time></trkpt><trkpt lat="36.0050333" lon="10.434385"><ele>4.0</ele><time>2026-04-04T17:02:49.285Z</time></trkpt><trkpt lat="36.0049533" lon="10.4344333"><ele>4.0</ele><time>2026-04-04T17:02:50.284Z</time></trkpt><trkpt lat="36.0048733" lon="10.434485"><ele>4.0</ele><time>2026-04-04T17:02:51.282Z</time></trkpt><trkpt lat="36.0047983" lon="10.4345383"><ele>3.9999999999999996</ele><time>2026-04-04T17:02:52.285Z</time></trkpt><trkpt lat="36.004725" lon="10.434585"><ele>4.0</ele><time>2026-04-04T17:02:53.286Z</time></trkpt><trkpt lat="36.004655" lon="10.43463"><ele>4.333333333333333</ele><time>2026-04-04T17:02:54.286Z</time></trkpt><trkpt lat="36.0045867" lon="10.4346767"><ele>4.666666666666666</ele><time>2026-04-04T17:02:55.284Z</time></trkpt><trkpt lat="36.0045133" lon="10.4347317"><ele>5.0</ele><time>2026-04-04T17:02:56.284Z</time></trkpt><trkpt lat="36.0044383" lon="10.4347833"><ele>5.333333333333333</ele><time>2026-04-04T17:02:57.284Z</time></trkpt><trkpt lat="36.0043633" lon="10.4348317"><ele>5.666666666666667</ele><time>2026-04-04T17:02:58.285Z</time></trkpt><trkpt lat="36.0042983" lon="10.43487"><ele>6.0</ele><time>2026-04-04T17:02:59.284Z</time></trkpt><trkpt lat="36.0041867" lon="10.4349383"><ele>6.166666666666667</ele><time>2026-04-04T17:03:01.284Z</time></trkpt><trkpt lat="36.0040867" lon="10.435005"><ele>6.333333333333334</ele><time>2026-04-04T17:03:03.282Z</time></trkpt><trkpt lat="36.0039983" lon="10.4350633"><ele>6.5</ele><time>2026-04-04T17:03:05.282Z</time></trkpt><trkpt lat="36.0039267" lon="10.4351083"><ele>6.666666666666667</ele><time>2026-04-04T17:03:07.282Z</time></trkpt><trkpt lat="36.0038633" lon="10.4351483"><ele>6.833333333333334</ele><time>2026-04-04T17:03:09.282Z</time></trkpt><trkpt lat="36.0038083" lon="10.4351967"><ele>7.0</ele><time>2026-04-04T17:03:11.284Z</time></trkpt><trkpt lat="36.0037367" lon="10.4352533"><ele>7.0</ele><time>2026-04-04T17:03:13.282Z</time></trkpt><trkpt lat="36.003665" lon="10.435305"><ele>6.999999999999999</ele><time>2026-04-04T17:03:15.285Z</time></trkpt><trkpt lat="36.0036067" lon="10.435345"><ele>6.999999999999999</ele><time>2026-04-04T17:05:17.283Z</time></trkpt><trkpt lat="36.003515" lon="10.4354167"><ele>7.0</ele><time>2026-04-04T17:05:20.285Z</time></trkpt><trkpt lat="36.0034" lon="10.4355117"><ele>7.0</ele><time>2026-04-04T17:05:22.285Z</time></trkpt><trkpt lat="36.003325" lon="10.4355717"><ele>6.333333333333334</ele><time>2026-04-04T17:05:23.285Z</time></trkpt><trkpt lat="36.0032483" lon="10.43563"><ele>5.666666666666667</ele><time>2026-04-04T17:05:24.287Z</time></trkpt><trkpt lat="36.003165" lon="10.4356967"><ele>5.0</ele><time>2026-04-04T17:05:25.285Z</time></trkpt><trkpt lat="36.0030883" lon="10.43576"><ele>4.333333333333334</ele><time>2026-04-04T17:05:26.285Z</time></trkpt><trkpt lat="36.0030167" lon="10.4358117"><ele>3.666666666666667</ele><time>2026-04-04T17:05:27.286Z</time></trkpt><trkpt lat="36.0029567" lon="10.4358583"><ele>3.0</ele><time>2026-04-04T17:05:28.285Z</time></trkpt><trkpt lat="36.00286" lon="10.4359283"><ele>3.0</ele><time>2026-04-04T17:05:30.286Z</time></trkpt><trkpt lat="36.0028067" lon="10.4359817"><ele>3.0</ele><time>2026-04-04T17:05:32.285Z</time></trkpt><trkpt lat="36.0027433" lon="10.4360617"><ele>3.0</ele><time>2026-04-04T17:06:18.285Z</time></trkpt><trkpt lat="36.0026583" lon="10.4360983"><ele>3.0</ele><time>2026-04-04T17:06:19.285Z</time></trkpt><trkpt lat="36.0025417" lon="10.436165"><ele>3.0</ele><time>2026-04-04T17:06:20.284Z</time></trkpt><trkpt lat="36.002385" lon="10.4362683"><ele>2.6666666666666665</ele><time>2026-04-04T17:06:21.284Z</time></trkpt><trkpt lat="36.0022283" lon="10.4363767"><ele>2.333333333333333</ele><time>2026-04-04T17:06:22.284Z</time></trkpt><trkpt lat="36.00207" lon="10.4364917"><ele>2.0</ele><time>2026-04-04T17:06:23.284Z</time></trkpt><trkpt lat="36.0019183" lon="10.4366033"><ele>2.0</ele><time>2026-04-04T17:06:24.286Z</time></trkpt><trkpt lat="36.0017667" lon="10.4367117"><ele>2.0</ele><time>2026-04-04T17:06:25.284Z</time></trkpt><trkpt lat="36.0015983" lon="10.4368283"><ele>2.0</ele><time>2026-04-04T17:06:26.284Z</time></trkpt><trkpt lat="36.00143" lon="10.4369383"><ele>1.6666666666666665</ele><time>2026-04-04T17:06:27.284Z</time></trkpt><trkpt lat="36.0012667" lon="10.437045"><ele>1.3333333333333333</ele><time>2026-04-04T17:06:28.284Z</time></trkpt><trkpt lat="36.0011017" lon="10.4371533"><ele>1.0</ele><time>2026-04-04T17:06:29.284Z</time></trkpt><trkpt lat="36.0009367" lon="10.437265"><ele>1.6666666666666665</ele><time>2026-04-04T17:06:30.285Z</time></trkpt><trkpt lat="36.0007733" lon="10.4373783"><ele>2.3333333333333335</ele><time>2026-04-04T17:06:31.284Z</time></trkpt><trkpt lat="36.0005983" lon="10.4374983"><ele>3.0</ele><time>2026-04-04T17:06:32.286Z</time></trkpt><trkpt lat="36.0004167" lon="10.437625"><ele>3.0</ele><time>2026-04-04T17:06:33.285Z</time></trkpt><trkpt lat="36.0002317" lon="10.4377567"><ele>3.0</ele><time>2026-04-04T17:06:34.284Z</time></trkpt><trkpt lat="36.0000467" lon="10.4378867"><ele>3.0</ele><time>2026-04-04T17:06:35.284Z</time></trkpt><trkpt lat="35.999855" lon="10.4380133"><ele>3.0</ele><time>2026-04-04T17:06:36.285Z</time></trkpt><trkpt lat="35.9996583" lon="10.438145"><ele>3.0</ele><time>2026-04-04T17:06:37.285Z</time></trkpt><trkpt lat="35.9994567" lon="10.4382867"><ele>3.0</ele><time>2026-04-04T17:06:38.285Z</time></trkpt><trkpt lat="35.9992483" lon="10.4384367"><ele>3.0</ele><time>2026-04-04T17:06:39.284Z</time></trkpt><trkpt lat="35.999025" lon="10.43859"><ele>3.0</ele><time>2026-04-04T17:06:40.284Z</time></trkpt><trkpt lat="35.9987917" lon="10.43875"><ele>3.0</ele><time>2026-04-04T17:06:41.284Z</time></trkpt><trkpt lat="35.9985517" lon="10.4389133"><ele>3.0</ele><time>2026-04-04T17:06:42.285Z</time></trkpt><trkpt lat="35.9983067" lon="10.4390833"><ele>3.0</ele><time>2026-04-04T17:06:43.284Z</time></trkpt><trkpt lat="35.9980567" lon="10.4392567"><ele>3.0</ele><time>2026-04-04T17:06:44.285Z</time></trkpt><trkpt lat="35.9978033" lon="10.43943"><ele>3.0</ele><time>2026-04-04T17:06:45.284Z</time></trkpt><trkpt lat="35.9975483" lon="10.439605"><ele>3.5</ele><time>2026-04-04T17:06:46.284Z</time></trkpt><trkpt lat="35.99729" lon="10.43978"><ele>4.0</ele><time>2026-04-04T17:06:47.284Z</time></trkpt><trkpt lat="35.9970283" lon="10.4399583"><ele>4.0</ele><time>2026-04-04T17:06:48.285Z</time></trkpt><trkpt lat="35.9967633" lon="10.4401367"><ele>4.0</ele><time>2026-04-04T17:06:49.284Z</time></trkpt><trkpt lat="35.9964933" lon="10.4403217"><ele>4.0</ele><time>2026-04-04T17:06:50.284Z</time></trkpt><trkpt lat="35.99622" lon="10.4405067"><ele>4.0</ele><time>2026-04-04T17:06:51.284Z</time></trkpt><trkpt lat="35.9959483" lon="10.44069"><ele>5.5</ele><time>2026-04-04T17:06:52.284Z</time></trkpt><trkpt lat="35.9956783" lon="10.4408733"><ele>7.0</ele><time>2026-04-04T17:06:53.285Z</time></trkpt><trkpt lat="35.99541" lon="10.44105"><ele>7.0</ele><time>2026-04-04T17:06:54.285Z</time></trkpt><trkpt lat="35.9951433" lon="10.44123"><ele>7.0</ele><time>2026-04-04T17:06:55.284Z</time></trkpt><trkpt lat="35.9948767" lon="10.44141"><ele>5.5</ele><time>2026-04-04T17:06:56.284Z</time></trkpt><trkpt lat="35.9946083" lon="10.4415867"><ele>4.0</ele><time>2026-04-04T17:06:57.285Z</time></trkpt><trkpt lat="35.99435" lon="10.441765"><ele>3.5</ele><time>2026-04-04T17:06:58.285Z</time></trkpt><trkpt lat="35.9940933" lon="10.4419383"><ele>3.0</ele><time>2026-04-04T17:06:59.286Z</time></trkpt><trkpt lat="35.9938367" lon="10.4421033"><ele>3.5</ele><time>2026-04-04T17:07:00.286Z</time></trkpt><trkpt lat="35.9935817" lon="10.4422617"><ele>4.0</ele><time>2026-04-04T17:07:01.285Z</time></trkpt><trkpt lat="35.9933283" lon="10.4424233"><ele>4.0</ele><time>2026-04-04T17:07:02.285Z</time></trkpt><trkpt lat="35.9930733" lon="10.4425933"><ele>4.0</ele><time>2026-04-04T17:07:03.284Z</time></trkpt><trkpt lat="35.99281" lon="10.4427683"><ele>4.0</ele><time>2026-04-04T17:07:04.284Z</time></trkpt><trkpt lat="35.9925383" lon="10.442945"><ele>4.0</ele><time>2026-04-04T17:07:05.284Z</time></trkpt><trkpt lat="35.9922717" lon="10.4431233"><ele>3.0</ele><time>2026-04-04T17:07:06.286Z</time></trkpt><trkpt lat="35.9920067" lon="10.4433"><ele>2.0</ele><time>2026-04-04T17:07:07.284Z</time></trkpt><trkpt lat="35.9917483" lon="10.4434767"><ele>3.0</ele><time>2026-04-04T17:07:08.285Z</time></trkpt><trkpt lat="35.9914883" lon="10.4436533"><ele>4.0</ele><time>2026-04-04T17:07:09.284Z</time></trkpt><trkpt lat="35.9912317" lon="10.443825"><ele>4.0</ele><time>2026-04-04T17:07:10.284Z</time></trkpt><trkpt lat="35.9909733" lon="10.4439983"><ele>4.0</ele><time>2026-04-04T17:07:11.284Z</time></trkpt><trkpt lat="35.9907183" lon="10.4441733"><ele>4.0</ele><time>2026-04-04T17:07:12.286Z</time></trkpt><trkpt lat="35.9904633" lon="10.4443467"><ele>4.0</ele><time>2026-04-04T17:07:13.284Z</time></trkpt><trkpt lat="35.9902067" lon="10.4445183"><ele>4.0</ele><time>2026-04-04T17:07:14.284Z</time></trkpt><trkpt lat="35.9899483" lon="10.444685"><ele>4.0</ele><time>2026-04-04T17:07:15.285Z</time></trkpt><trkpt lat="35.9896883" lon="10.444855"><ele>4.0</ele><time>2026-04-04T17:07:16.285Z</time></trkpt><trkpt lat="35.9894267" lon="10.44503"><ele>4.0</ele><time>2026-04-04T17:07:17.284Z</time></trkpt><trkpt lat="35.98917" lon="10.4451983"><ele>4.0</ele><time>2026-04-04T17:07:18.285Z</time></trkpt><trkpt lat="35.9889217" lon="10.44536"><ele>4.0</ele><time>2026-04-04T17:07:19.284Z</time></trkpt><trkpt lat="35.98868" lon="10.445515"><ele>4.0</ele><time>2026-04-04T17:07:20.284Z</time></trkpt><trkpt lat="35.9884417" lon="10.4456667"><ele>4.0</ele><time>2026-04-04T17:07:21.284Z</time></trkpt><trkpt lat="35.9881967" lon="10.4458267"><ele>4.0</ele><time>2026-04-04T17:07:22.284Z</time></trkpt><trkpt lat="35.9879483" lon="10.445995"><ele>4.0</ele><time>2026-04-04T17:07:23.284Z</time></trkpt><trkpt lat="35.9876983" lon="10.4461583"><ele>4.5</ele><time>2026-04-04T17:07:24.286Z</time></trkpt><trkpt lat="35.9874567" lon="10.446315"><ele>5.0</ele><time>2026-04-04T17:07:25.285Z</time></trkpt><trkpt lat="35.987225" lon="10.4464683"><ele>5.0</ele><time>2026-04-04T17:07:26.284Z</time></trkpt><trkpt lat="35.9869967" lon="10.4466167"><ele>5.0</ele><time>2026-04-04T17:07:27.284Z</time></trkpt><trkpt lat="35.98677" lon="10.446765"><ele>5.5</ele><time>2026-04-04T17:07:28.284Z</time></trkpt><trkpt lat="35.9865433" lon="10.446915"><ele>6.0</ele><time>2026-04-04T17:07:29.285Z</time></trkpt><trkpt lat="35.9863183" lon="10.4470617"><ele>4.5</ele><time>2026-04-04T17:07:30.285Z</time></trkpt><trkpt lat="35.98609" lon="10.4472117"><ele>3.0</ele><time>2026-04-04T17:07:31.286Z</time></trkpt><trkpt lat="35.98586" lon="10.4473633"><ele>4.0</ele><time>2026-04-04T17:07:32.284Z</time></trkpt><trkpt lat="35.9856283" lon="10.4475183"><ele>5.0</ele><time>2026-04-04T17:07:33.284Z</time></trkpt><trkpt lat="35.985395" lon="10.447675"><ele>5.0</ele><time>2026-04-04T17:07:34.285Z</time></trkpt><trkpt lat="35.98516" lon="10.4478317"><ele>5.0</ele><time>2026-04-04T17:07:35.285Z</time></trkpt><trkpt lat="35.9849233" lon="10.4479933"><ele>4.5</ele><time>2026-04-04T17:07:36.285Z</time></trkpt><trkpt lat="35.9846833" lon="10.448155"><ele>4.0</ele><time>2026-04-04T17:07:37.285Z</time></trkpt><trkpt lat="35.9844417" lon="10.448315"><ele>4.0</ele><time>2026-04-04T17:07:38.285Z</time></trkpt><trkpt lat="35.9841967" lon="10.4484783"><ele>4.0</ele><time>2026-04-04T17:07:39.284Z</time></trkpt><trkpt lat="35.9839517" lon="10.44864"><ele>3.0</ele><time>2026-04-04T17:07:40.286Z</time></trkpt><trkpt lat="35.9837067" lon="10.4488017"><ele>2.0</ele><time>2026-04-04T17:07:41.284Z</time></trkpt><trkpt lat="35.9834583" lon="10.4489683"><ele>3.0</ele><time>2026-04-04T17:07:42.286Z</time></trkpt><trkpt lat="35.9832067" lon="10.449135"><ele>4.0</ele><time>2026-04-04T17:07:43.284Z</time></trkpt><trkpt lat="35.9829567" lon="10.4493017"><ele>4.0</ele><time>2026-04-04T17:07:44.285Z</time></trkpt><trkpt lat="35.982705" lon="10.44947"><ele>4.0</ele><time>2026-04-04T17:07:45.284Z</time></trkpt><trkpt lat="35.98245" lon="10.449645"><ele>3.5</ele><time>2026-04-04T17:07:46.284Z</time></trkpt><trkpt lat="35.9821933" lon="10.449825"><ele>3.0</ele><time>2026-04-04T17:07:47.285Z</time></trkpt><trkpt lat="35.9819317" lon="10.4500133"><ele>4.0</ele><time>2026-04-04T17:07:48.285Z</time></trkpt><trkpt lat="35.9816617" lon="10.4502117"><ele>5.0</ele><time>2026-04-04T17:07:49.284Z</time></trkpt><trkpt lat="35.98138" lon="10.45042"><ele>4.5</ele><time>2026-04-04T17:07:50.285Z</time></trkpt><trkpt lat="35.9810883" lon="10.4506367"><ele>4.0</ele><time>2026-04-04T17:07:51.285Z</time></trkpt><trkpt lat="35.9807883" lon="10.4508667"><ele>4.5</ele><time>2026-04-04T17:07:52.284Z</time></trkpt><trkpt lat="35.98048" lon="10.4511117"><ele>5.0</ele><time>2026-04-04T17:07:53.285Z</time></trkpt><trkpt lat="35.9801683" lon="10.45137"><ele>5.0</ele><time>2026-04-04T17:07:54.285Z</time></trkpt><trkpt lat="35.97985" lon="10.451645"><ele>5.0</ele><time>2026-04-04T17:07:55.284Z</time></trkpt><trkpt lat="35.97953" lon="10.4519283"><ele>5.5</ele><time>2026-04-04T17:07:56.284Z</time></trkpt><trkpt lat="35.9792067" lon="10.45222"><ele>6.0</ele><time>2026-04-04T17:07:57.285Z</time></trkpt><trkpt lat="35.9788817" lon="10.4525233"><ele>6.0</ele><time>2026-04-04T17:07:58.284Z</time></trkpt><trkpt lat="35.9785533" lon="10.4528367"><ele>6.0</ele><time>2026-04-04T17:07:59.285Z</time></trkpt><trkpt lat="35.978235" lon="10.45315"><ele>6.0</ele><time>2026-04-04T17:08:00.285Z</time></trkpt><trkpt lat="35.9779383" lon="10.453445"><ele>6.0</ele><time>2026-04-04T17:08:01.286Z</time></trkpt><trkpt lat="35.9776633" lon="10.4537283"><ele>6.5</ele><time>2026-04-04T17:08:02.284Z</time></trkpt><trkpt lat="35.9774067" lon="10.454"><ele>7.0</ele><time>2026-04-04T17:08:03.284Z</time></trkpt><trkpt lat="35.9771617" lon="10.4542617"><ele>7.0</ele><time>2026-04-04T17:08:04.283Z</time></trkpt><trkpt lat="35.9769317" lon="10.454515"><ele>7.0</ele><time>2026-04-04T17:08:05.282Z</time></trkpt><trkpt lat="35.9767083" lon="10.4547683"><ele>5.5</ele><time>2026-04-04T17:08:06.282Z</time></trkpt><trkpt lat="35.9764833" lon="10.45503"><ele>4.0</ele><time>2026-04-04T17:08:07.282Z</time></trkpt><trkpt lat="35.9762517" lon="10.4553033"><ele>4.0</ele><time>2026-04-04T17:08:08.283Z</time></trkpt><trkpt lat="35.97602" lon="10.4555767"><ele>4.0</ele><time>2026-04-04T17:08:09.282Z</time></trkpt><trkpt lat="35.9757933" lon="10.4558533"><ele>4.0</ele><time>2026-04-04T17:08:10.285Z</time></trkpt><trkpt lat="35.9755733" lon="10.4561283"><ele>4.0</ele><time>2026-04-04T17:08:11.285Z</time></trkpt><trkpt lat="35.9753633" lon="10.4564017"><ele>4.5</ele><time>2026-04-04T17:08:12.285Z</time></trkpt><trkpt lat="35.9751567" lon="10.45667"><ele>5.0</ele><time>2026-04-04T17:08:13.284Z</time></trkpt><trkpt lat="35.9749567" lon="10.4569333"><ele>4.5</ele><time>2026-04-04T17:08:14.284Z</time></trkpt><trkpt lat="35.974765" lon="10.4571933"><ele>4.0</ele><time>2026-04-04T17:08:15.285Z</time></trkpt><trkpt lat="35.9745817" lon="10.4574517"><ele>4.0</ele><time>2026-04-04T17:08:16.285Z</time></trkpt><trkpt lat="35.9743983" lon="10.4577033"><ele>4.0</ele><time>2026-04-04T17:08:17.285Z</time></trkpt><trkpt lat="35.9742217" lon="10.4579567"><ele>4.0</ele><time>2026-04-04T17:08:18.286Z</time></trkpt><trkpt lat="35.9740483" lon="10.4582133"><ele>4.0</ele><time>2026-04-04T17:08:19.284Z</time></trkpt><trkpt lat="35.9738767" lon="10.45847"><ele>4.0</ele><time>2026-04-04T17:08:20.285Z</time></trkpt><trkpt lat="35.9737067" lon="10.4587267"><ele>4.0</ele><time>2026-04-04T17:08:21.285Z</time></trkpt><trkpt lat="35.9735433" lon="10.458985"><ele>3.5</ele><time>2026-04-04T17:08:22.285Z</time></trkpt><trkpt lat="35.9733817" lon="10.4592483"><ele>3.0</ele><time>2026-04-04T17:08:23.284Z</time></trkpt><trkpt lat="35.973215" lon="10.4595233"><ele>3.0</ele><time>2026-04-04T17:08:24.285Z</time></trkpt><trkpt lat="35.9730433" lon="10.4598083"><ele>3.0</ele><time>2026-04-04T17:08:25.285Z</time></trkpt><trkpt lat="35.9728683" lon="10.4601067"><ele>3.0</ele><time>2026-04-04T17:08:26.284Z</time></trkpt><trkpt lat="35.9726933" lon="10.460415"><ele>3.0</ele><time>2026-04-04T17:08:27.285Z</time></trkpt><trkpt lat="35.972515" lon="10.46073"><ele>3.5</ele><time>2026-04-04T17:08:28.285Z</time></trkpt><trkpt lat="35.9723367" lon="10.4610533"><ele>4.0</ele><time>2026-04-04T17:08:29.284Z</time></trkpt><trkpt lat="35.9721617" lon="10.4613833"><ele>4.0</ele><time>2026-04-04T17:08:30.285Z</time></trkpt><trkpt lat="35.9719883" lon="10.4617183"><ele>4.0</ele><time>2026-04-04T17:08:31.285Z</time></trkpt><trkpt lat="35.9718117" lon="10.4620567"><ele>4.0</ele><time>2026-04-04T17:08:32.285Z</time></trkpt><trkpt lat="35.9716383" lon="10.4623983"><ele>4.0</ele><time>2026-04-04T17:08:33.283Z</time></trkpt><trkpt lat="35.9714683" lon="10.4627467"><ele>4.0</ele><time>2026-04-04T17:08:34.282Z</time></trkpt><trkpt lat="35.9713033" lon="10.4630967"><ele>4.0</ele><time>2026-04-04T17:08:35.283Z</time></trkpt><trkpt lat="35.97114" lon="10.46345"><ele>4.0</ele><time>2026-04-04T17:08:36.282Z</time></trkpt><trkpt lat="35.97098" lon="10.4638017"><ele>4.0</ele><time>2026-04-04T17:08:37.282Z</time></trkpt><trkpt lat="35.9708233" lon="10.4641517"><ele>4.5</ele><time>2026-04-04T17:08:38.282Z</time></trkpt><trkpt lat="35.9706717" lon="10.4645017"><ele>5.0</ele><time>2026-04-04T17:08:39.282Z</time></trkpt><trkpt lat="35.9705233" lon="10.46485"><ele>5.0</ele><time>2026-04-04T17:08:40.285Z</time></trkpt><trkpt lat="35.9703717" lon="10.4652033"><ele>5.0</ele><time>2026-04-04T17:08:41.286Z</time></trkpt><trkpt lat="35.9702167" lon="10.4655633"><ele>5.0</ele><time>2026-04-04T17:08:42.285Z</time></trkpt><trkpt lat="35.9700633" lon="10.4659267"><ele>5.0</ele><time>2026-04-04T17:08:43.284Z</time></trkpt><trkpt lat="35.969915" lon="10.466275"><ele>6.0</ele><time>2026-04-04T17:08:44.286Z</time></trkpt><trkpt lat="35.9697733" lon="10.4666033"><ele>7.0</ele><time>2026-04-04T17:08:45.284Z</time></trkpt><trkpt lat="35.9696383" lon="10.466925"><ele>7.0</ele><time>2026-04-04T17:08:46.286Z</time></trkpt><trkpt lat="35.9695033" lon="10.46725"><ele>7.0</ele><time>2026-04-04T17:08:47.286Z</time></trkpt><trkpt lat="35.9693683" lon="10.467575"><ele>7.0</ele><time>2026-04-04T17:08:48.285Z</time></trkpt><trkpt lat="35.9692367" lon="10.4678933"><ele>7.0</ele><time>2026-04-04T17:08:49.285Z</time></trkpt><trkpt lat="35.9691067" lon="10.4682067"><ele>7.0</ele><time>2026-04-04T17:08:50.285Z</time></trkpt><trkpt lat="35.9689783" lon="10.46851"><ele>7.0</ele><time>2026-04-04T17:08:51.288Z</time></trkpt><trkpt lat="35.968855" lon="10.468805"><ele>9.5</ele><time>2026-04-04T17:08:52.284Z</time></trkpt><trkpt lat="35.9687367" lon="10.469095"><ele>12.0</ele><time>2026-04-04T17:08:53.285Z</time></trkpt><trkpt lat="35.9686183" lon="10.469375"><ele>12.5</ele><time>2026-04-04T17:08:54.285Z</time></trkpt><trkpt lat="35.9685" lon="10.46965"><ele>13.0</ele><time>2026-04-04T17:08:55.285Z</time></trkpt><trkpt lat="35.9683867" lon="10.4699183"><ele>13.0</ele><time>2026-04-04T17:08:56.285Z</time></trkpt><trkpt lat="35.968275" lon="10.4701817"><ele>13.0</ele><time>2026-04-04T17:08:57.286Z</time></trkpt><trkpt lat="35.9681617" lon="10.4704417"><ele>13.0</ele><time>2026-04-04T17:08:58.284Z</time></trkpt><trkpt lat="35.9680483" lon="10.4707"><ele>13.0</ele><time>2026-04-04T17:08:59.284Z</time></trkpt><trkpt lat="35.9679283" lon="10.4709683"><ele>13.0</ele><time>2026-04-04T17:09:00.285Z</time></trkpt><trkpt lat="35.9678017" lon="10.4712467"><ele>13.0</ele><time>2026-04-04T17:09:01.284Z</time></trkpt><trkpt lat="35.9676767" lon="10.4715267"><ele>13.5</ele><time>2026-04-04T17:09:02.284Z</time></trkpt><trkpt lat="35.9675517" lon="10.4718117"><ele>14.0</ele><time>2026-04-04T17:09:03.283Z</time></trkpt><trkpt lat="35.9674217" lon="10.472095"><ele>15.5</ele><time>2026-04-04T17:09:04.283Z</time></trkpt><trkpt lat="35.9672917" lon="10.4723717"><ele>17.0</ele><time>2026-04-04T17:09:05.282Z</time></trkpt><trkpt lat="35.9671567" lon="10.4726533"><ele>17.0</ele><time>2026-04-04T17:09:06.283Z</time></trkpt><trkpt lat="35.9670183" lon="10.472935"><ele>17.0</ele><time>2026-04-04T17:09:07.282Z</time></trkpt><trkpt lat="35.9668767" lon="10.473215"><ele>17.5</ele><time>2026-04-04T17:09:08.282Z</time></trkpt><trkpt lat="35.96673" lon="10.4734933"><ele>18.0</ele><time>2026-04-04T17:09:09.282Z</time></trkpt><trkpt lat="35.9665783" lon="10.4737733"><ele>18.5</ele><time>2026-04-04T17:09:10.285Z</time></trkpt><trkpt lat="35.9664233" lon="10.474055"><ele>19.0</ele><time>2026-04-04T17:09:11.285Z</time></trkpt><trkpt lat="35.9662617" lon="10.474335"><ele>19.5</ele><time>2026-04-04T17:09:12.285Z</time></trkpt><trkpt lat="35.9660967" lon="10.4746133"><ele>20.0</ele><time>2026-04-04T17:09:13.284Z</time></trkpt><trkpt lat="35.965925" lon="10.4748933"><ele>20.0</ele><time>2026-04-04T17:09:14.284Z</time></trkpt><trkpt lat="35.9657467" lon="10.4751783"><ele>20.0</ele><time>2026-04-04T17:09:15.286Z</time></trkpt><trkpt lat="35.9655633" lon="10.47547"><ele>20.0</ele><time>2026-04-04T17:09:16.284Z</time></trkpt><trkpt lat="35.9653717" lon="10.4757667"><ele>20.0</ele><time>2026-04-04T17:09:17.284Z</time></trkpt><trkpt lat="35.9651717" lon="10.476065"><ele>21.0</ele><time>2026-04-04T17:09:18.287Z</time></trkpt><trkpt lat="35.9649667" lon="10.47637"><ele>22.0</ele><time>2026-04-04T17:09:19.285Z</time></trkpt><trkpt lat="35.9647617" lon="10.4766833"><ele>22.0</ele><time>2026-04-04T17:09:20.284Z</time></trkpt><trkpt lat="35.9645567" lon="10.4770017"><ele>22.0</ele><time>2026-04-04T17:09:21.285Z</time></trkpt><trkpt lat="35.9643467" lon="10.4773233"><ele>22.0</ele><time>2026-04-04T17:09:22.285Z</time></trkpt><trkpt lat="35.9641283" lon="10.4776483"><ele>22.0</ele><time>2026-04-04T17:09:23.285Z</time></trkpt><trkpt lat="35.9639133" lon="10.4779767"><ele>22.0</ele><time>2026-04-04T17:09:24.285Z</time></trkpt><trkpt lat="35.9637067" lon="10.4783083"><ele>22.0</ele><time>2026-04-04T17:09:25.285Z</time></trkpt><trkpt lat="35.96351" lon="10.47865"><ele>24.5</ele><time>2026-04-04T17:09:26.286Z</time></trkpt><trkpt lat="35.9633183" lon="10.478995"><ele>27.0</ele><time>2026-04-04T17:09:27.285Z</time></trkpt><trkpt lat="35.9631333" lon="10.4793383"><ele>28.5</ele><time>2026-04-04T17:09:28.286Z</time></trkpt><trkpt lat="35.962955" lon="10.4796833"><ele>30.0</ele><time>2026-04-04T17:09:29.284Z</time></trkpt><trkpt lat="35.9627833" lon="10.48003"><ele>30.0</ele><time>2026-04-04T17:09:30.285Z</time></trkpt><trkpt lat="35.962615" lon="10.480375"><ele>30.0</ele><time>2026-04-04T17:09:31.285Z</time></trkpt><trkpt lat="35.9624567" lon="10.4807183"><ele>31.0</ele><time>2026-04-04T17:09:32.284Z</time></trkpt><trkpt lat="35.962305" lon="10.4810583"><ele>32.0</ele><time>2026-04-04T17:09:33.282Z</time></trkpt><trkpt lat="35.9621633" lon="10.481395"><ele>33.5</ele><time>2026-04-04T17:09:34.283Z</time></trkpt><trkpt lat="35.9620317" lon="10.4817283"><ele>35.0</ele><time>2026-04-04T17:09:35.283Z</time></trkpt><trkpt lat="35.9619117" lon="10.4820583"><ele>36.0</ele><time>2026-04-04T17:09:36.282Z</time></trkpt><trkpt lat="35.9617933" lon="10.4823833"><ele>37.0</ele><time>2026-04-04T17:09:37.283Z</time></trkpt><trkpt lat="35.9616783" lon="10.4827083"><ele>35.0</ele><time>2026-04-04T17:09:38.282Z</time></trkpt><trkpt lat="35.961565" lon="10.4830383"><ele>33.0</ele><time>2026-04-04T17:09:39.282Z</time></trkpt><trkpt lat="35.9614533" lon="10.4833783"><ele>33.0</ele><time>2026-04-04T17:09:40.285Z</time></trkpt><trkpt lat="35.9613467" lon="10.483725"><ele>33.0</ele><time>2026-04-04T17:09:41.285Z</time></trkpt><trkpt lat="35.9612433" lon="10.4840733"><ele>33.5</ele><time>2026-04-04T17:09:42.286Z</time></trkpt><trkpt lat="35.96115" lon="10.4844233"><ele>34.0</ele><time>2026-04-04T17:09:43.285Z</time></trkpt><trkpt lat="35.9610617" lon="10.48477"><ele>34.0</ele><time>2026-04-04T17:09:44.285Z</time></trkpt><trkpt lat="35.9609767" lon="10.4851183"><ele>34.0</ele><time>2026-04-04T17:09:45.286Z</time></trkpt><trkpt lat="35.9608983" lon="10.4854683"><ele>34.5</ele><time>2026-04-04T17:09:46.286Z</time></trkpt><trkpt lat="35.9608217" lon="10.4858233"><ele>35.0</ele><time>2026-04-04T17:09:47.286Z</time></trkpt><trkpt lat="35.9607483" lon="10.48618"><ele>35.0</ele><time>2026-04-04T17:09:48.285Z</time></trkpt><trkpt lat="35.9606767" lon="10.48654"><ele>35.0</ele><time>2026-04-04T17:09:49.285Z</time></trkpt><trkpt lat="35.9606117" lon="10.486905"><ele>35.0</ele><time>2026-04-04T17:09:50.285Z</time></trkpt><trkpt lat="35.9605533" lon="10.4872783"><ele>35.0</ele><time>2026-04-04T17:09:51.285Z</time></trkpt><trkpt lat="35.9604983" lon="10.4876567"><ele>34.5</ele><time>2026-04-04T17:09:52.285Z</time></trkpt><trkpt lat="35.9604483" lon="10.488025"><ele>34.0</ele><time>2026-04-04T17:09:53.285Z</time></trkpt><trkpt lat="35.9604067" lon="10.4883833"><ele>34.0</ele><time>2026-04-04T17:09:54.285Z</time></trkpt><trkpt lat="35.96037" lon="10.488745"><ele>34.0</ele><time>2026-04-04T17:09:55.286Z</time></trkpt><trkpt lat="35.9603367" lon="10.4891133"><ele>35.0</ele><time>2026-04-04T17:09:56.285Z</time></trkpt><trkpt lat="35.9603067" lon="10.4894817"><ele>36.0</ele><time>2026-04-04T17:09:57.285Z</time></trkpt><trkpt lat="35.9602833" lon="10.4898417"><ele>36.0</ele><time>2026-04-04T17:09:58.285Z</time></trkpt><trkpt lat="35.9602583" lon="10.4901967"><ele>36.0</ele><time>2026-04-04T17:09:59.285Z</time></trkpt><trkpt lat="35.9602383" lon="10.4905533"><ele>36.0</ele><time>2026-04-04T17:10:00.287Z</time></trkpt><trkpt lat="35.960215" lon="10.49091"><ele>36.0</ele><time>2026-04-04T17:10:01.285Z</time></trkpt><trkpt lat="35.9601917" lon="10.4912733"><ele>35.5</ele><time>2026-04-04T17:10:02.285Z</time></trkpt><trkpt lat="35.960165" lon="10.4916367"><ele>35.0</ele><time>2026-04-04T17:10:03.286Z</time></trkpt><trkpt lat="35.9601367" lon="10.4919983"><ele>32.5</ele><time>2026-04-04T17:10:04.285Z</time></trkpt><trkpt lat="35.9601083" lon="10.49236"><ele>30.0</ele><time>2026-04-04T17:10:05.285Z</time></trkpt><trkpt lat="35.9600717" lon="10.4927183"><ele>30.5</ele><time>2026-04-04T17:10:06.286Z</time></trkpt><trkpt lat="35.9600267" lon="10.4930733"><ele>31.0</ele><time>2026-04-04T17:10:07.285Z</time></trkpt><trkpt lat="35.9599767" lon="10.4934333"><ele>31.0</ele><time>2026-04-04T17:10:08.285Z</time></trkpt><trkpt lat="35.95992" lon="10.4937967"><ele>31.0</ele><time>2026-04-04T17:10:09.286Z</time></trkpt><trkpt lat="35.959855" lon="10.4941633"><ele>31.0</ele><time>2026-04-04T17:10:10.286Z</time></trkpt><trkpt lat="35.9597783" lon="10.4945333"><ele>31.0</ele><time>2026-04-04T17:10:11.286Z</time></trkpt><trkpt lat="35.959695" lon="10.4949067"><ele>30.0</ele><time>2026-04-04T17:10:12.285Z</time></trkpt><trkpt lat="35.9596017" lon="10.4952817"><ele>29.0</ele><time>2026-04-04T17:10:13.285Z</time></trkpt><trkpt lat="35.9595017" lon="10.4956567"><ele>29.0</ele><time>2026-04-04T17:10:14.286Z</time></trkpt><trkpt lat="35.9593917" lon="10.496025"><ele>29.0</ele><time>2026-04-04T17:10:15.285Z</time></trkpt><trkpt lat="35.959275" lon="10.4963867"><ele>29.5</ele><time>2026-04-04T17:10:16.285Z</time></trkpt><trkpt lat="35.95915" lon="10.49675"><ele>30.0</ele><time>2026-04-04T17:10:17.286Z</time></trkpt><trkpt lat="35.9590167" lon="10.4971117"><ele>30.0</ele><time>2026-04-04T17:10:18.285Z</time></trkpt><trkpt lat="35.9588783" lon="10.4974567"><ele>30.0</ele><time>2026-04-04T17:10:19.286Z</time></trkpt><trkpt lat="35.9587367" lon="10.4977967"><ele>28.0</ele><time>2026-04-04T17:10:20.285Z</time></trkpt><trkpt lat="35.9585917" lon="10.498125"><ele>26.0</ele><time>2026-04-04T17:10:21.285Z</time></trkpt><trkpt lat="35.9584417" lon="10.4984467"><ele>26.0</ele><time>2026-04-04T17:10:22.285Z</time></trkpt><trkpt lat="35.9582883" lon="10.4987583"><ele>26.0</ele><time>2026-04-04T17:10:23.286Z</time></trkpt><trkpt lat="35.9581283" lon="10.49906"><ele>26.0</ele><time>2026-04-04T17:10:24.285Z</time></trkpt><trkpt lat="35.9579617" lon="10.4993517"><ele>26.0</ele><time>2026-04-04T17:10:25.286Z</time></trkpt><trkpt lat="35.9577933" lon="10.4996417"><ele>26.0</ele><time>2026-04-04T17:10:26.285Z</time></trkpt><trkpt lat="35.9576217" lon="10.499925"><ele>26.0</ele><time>2026-04-04T17:10:27.286Z</time></trkpt><trkpt lat="35.9574433" lon="10.5002067"><ele>24.0</ele><time>2026-04-04T17:10:28.286Z</time></trkpt><trkpt lat="35.9572583" lon="10.500485"><ele>22.0</ele><time>2026-04-04T17:10:29.285Z</time></trkpt><trkpt lat="35.9570683" lon="10.5007583"><ele>22.0</ele><time>2026-04-04T17:10:30.285Z</time></trkpt><trkpt lat="35.9568733" lon="10.5010267"><ele>22.0</ele><time>2026-04-04T17:10:31.285Z</time></trkpt><trkpt lat="35.9566733" lon="10.501295"><ele>23.0</ele><time>2026-04-04T17:10:32.286Z</time></trkpt><trkpt lat="35.9564683" lon="10.5015583"><ele>24.0</ele><time>2026-04-04T17:10:33.285Z</time></trkpt><trkpt lat="35.95626" lon="10.5018133"><ele>24.0</ele><time>2026-04-04T17:10:34.285Z</time></trkpt><trkpt lat="35.956045" lon="10.50207"><ele>24.0</ele><time>2026-04-04T17:10:35.285Z</time></trkpt><trkpt lat="35.9558217" lon="10.502325"><ele>25.5</ele><time>2026-04-04T17:10:36.286Z</time></trkpt><trkpt lat="35.9555883" lon="10.5025733"><ele>27.0</ele><time>2026-04-04T17:10:37.29Z</time></trkpt><trkpt lat="35.9553517" lon="10.5028183"><ele>26.5</ele><time>2026-04-04T17:10:38.285Z</time></trkpt><trkpt lat="35.955115" lon="10.5030583"><ele>26.0</ele><time>2026-04-04T17:10:39.285Z</time></trkpt><trkpt lat="35.9548817" lon="10.50329"><ele>27.5</ele><time>2026-04-04T17:10:40.285Z</time></trkpt><trkpt lat="35.9546467" lon="10.5035183"><ele>29.0</ele><time>2026-04-04T17:10:41.285Z</time></trkpt><trkpt lat="35.954415" lon="10.5037433"><ele>29.5</ele><time>2026-04-04T17:10:42.287Z</time></trkpt><trkpt lat="35.954185" lon="10.5039667"><ele>30.0</ele><time>2026-04-04T17:10:43.285Z</time></trkpt><trkpt lat="35.9539567" lon="10.504195"><ele>30.0</ele><time>2026-04-04T17:10:44.286Z</time></trkpt><trkpt lat="35.9537267" lon="10.5044267"><ele>30.0</ele><time>2026-04-04T17:10:45.285Z</time></trkpt><trkpt lat="35.9534933" lon="10.5046617"><ele>30.0</ele><time>2026-04-04T17:10:46.285Z</time></trkpt><trkpt lat="35.953255" lon="10.5049"><ele>30.0</ele><time>2026-04-04T17:10:47.285Z</time></trkpt><trkpt lat="35.9530083" lon="10.50514"><ele>30.0</ele><time>2026-04-04T17:10:48.285Z</time></trkpt><trkpt lat="35.9527567" lon="10.5053833"><ele>30.0</ele><time>2026-04-04T17:10:49.286Z</time></trkpt><trkpt lat="35.9525017" lon="10.5056283"><ele>31.5</ele><time>2026-04-04T17:10:50.285Z</time></trkpt><trkpt lat="35.95225" lon="10.5058783"><ele>33.0</ele><time>2026-04-04T17:10:51.286Z</time></trkpt><trkpt lat="35.952" lon="10.5061267"><ele>34.0</ele><time>2026-04-04T17:10:52.286Z</time></trkpt><trkpt lat="35.951755" lon="10.50637"><ele>35.0</ele><time>2026-04-04T17:10:53.285Z</time></trkpt><trkpt lat="35.9515117" lon="10.50661"><ele>36.0</ele><time>2026-04-04T17:10:54.286Z</time></trkpt><trkpt lat="35.9512733" lon="10.506845"><ele>37.0</ele><time>2026-04-04T17:10:55.286Z</time></trkpt><trkpt lat="35.9510333" lon="10.5070733"><ele>37.5</ele><time>2026-04-04T17:10:56.285Z</time></trkpt><trkpt lat="35.9507967" lon="10.5072983"><ele>38.0</ele><time>2026-04-04T17:10:57.286Z</time></trkpt><trkpt lat="35.9505617" lon="10.5075217"><ele>38.0</ele><time>2026-04-04T17:10:58.286Z</time></trkpt><trkpt lat="35.9503217" lon="10.5077383"><ele>38.0</ele><time>2026-04-04T17:10:59.286Z</time></trkpt><trkpt lat="35.95008" lon="10.5079483"><ele>40.0</ele><time>2026-04-04T17:11:00.286Z</time></trkpt><trkpt lat="35.9498317" lon="10.5081517"><ele>42.0</ele><time>2026-04-04T17:11:01.285Z</time></trkpt><trkpt lat="35.9495767" lon="10.5083483"><ele>42.0</ele><time>2026-04-04T17:11:02.285Z</time></trkpt><trkpt lat="35.9493117" lon="10.5085417"><ele>42.0</ele><time>2026-04-04T17:11:03.285Z</time></trkpt><trkpt lat="35.9490417" lon="10.5087317"><ele>40.0</ele><time>2026-04-04T17:11:04.285Z</time></trkpt><trkpt lat="35.9487617" lon="10.5089233"><ele>38.0</ele><time>2026-04-04T17:11:05.284Z</time></trkpt><trkpt lat="35.9484783" lon="10.5091067"><ele>38.5</ele><time>2026-04-04T17:11:06.286Z</time></trkpt><trkpt lat="35.948195" lon="10.5092767"><ele>39.0</ele><time>2026-04-04T17:11:07.284Z</time></trkpt><trkpt lat="35.9479117" lon="10.5094333"><ele>39.0</ele><time>2026-04-04T17:11:08.284Z</time></trkpt><trkpt lat="35.947635" lon="10.5095733"><ele>39.0</ele><time>2026-04-04T17:11:09.284Z</time></trkpt><trkpt lat="35.9473617" lon="10.5097033"><ele>39.0</ele><time>2026-04-04T17:11:10.285Z</time></trkpt><trkpt lat="35.9470883" lon="10.509825"><ele>39.0</ele><time>2026-04-04T17:11:11.285Z</time></trkpt><trkpt lat="35.94681" lon="10.50994"><ele>39.5</ele><time>2026-04-04T17:11:12.285Z</time></trkpt><trkpt lat="35.946525" lon="10.510045"><ele>40.0</ele><time>2026-04-04T17:11:13.284Z</time></trkpt><trkpt lat="35.9462383" lon="10.5101433"><ele>40.0</ele><time>2026-04-04T17:11:14.284Z</time></trkpt><trkpt lat="35.94595" lon="10.5102333"><ele>40.0</ele><time>2026-04-04T17:11:15.285Z</time></trkpt><trkpt lat="35.9456533" lon="10.5103183"><ele>40.5</ele><time>2026-04-04T17:11:16.285Z</time></trkpt><trkpt lat="35.9453517" lon="10.510395"><ele>41.0</ele><time>2026-04-04T17:11:17.285Z</time></trkpt><trkpt lat="35.94505" lon="10.510465"><ele>45.0</ele><time>2026-04-04T17:11:18.284Z</time></trkpt><trkpt lat="35.9447617" lon="10.5105283"><ele>49.0</ele><time>2026-04-04T17:11:19.284Z</time></trkpt><trkpt lat="35.944485" lon="10.5105817"><ele>49.0</ele><time>2026-04-04T17:11:20.284Z</time></trkpt><trkpt lat="35.9442217" lon="10.5106233"><ele>49.0</ele><time>2026-04-04T17:11:21.284Z</time></trkpt><trkpt lat="35.9439667" lon="10.5106533"><ele>47.0</ele><time>2026-04-04T17:11:22.284Z</time></trkpt><trkpt lat="35.9437117" lon="10.5106767"><ele>45.0</ele><time>2026-04-04T17:11:23.285Z</time></trkpt><trkpt lat="35.9434567" lon="10.5106933"><ele>45.0</ele><time>2026-04-04T17:11:24.284Z</time></trkpt><trkpt lat="35.9432" lon="10.5107033"><ele>45.0</ele><time>2026-04-04T17:11:25.284Z</time></trkpt><trkpt lat="35.942935" lon="10.5107083"><ele>45.0</ele><time>2026-04-04T17:11:26.284Z</time></trkpt><trkpt lat="35.9426667" lon="10.510705"><ele>45.0</ele><time>2026-04-04T17:11:27.284Z</time></trkpt><trkpt lat="35.942395" lon="10.51069"><ele>45.0</ele><time>2026-04-04T17:11:28.284Z</time></trkpt><trkpt lat="35.942125" lon="10.51067"><ele>45.0</ele><time>2026-04-04T17:11:29.284Z</time></trkpt><trkpt lat="35.9418617" lon="10.510645"><ele>47.0</ele><time>2026-04-04T17:11:30.286Z</time></trkpt><trkpt lat="35.94161" lon="10.510615"><ele>49.0</ele><time>2026-04-04T17:11:31.285Z</time></trkpt><trkpt lat="35.94136" lon="10.5105833"><ele>49.0</ele><time>2026-04-04T17:11:32.284Z</time></trkpt><trkpt lat="35.9411067" lon="10.5105417"><ele>49.0</ele><time>2026-04-04T17:11:33.285Z</time></trkpt><trkpt lat="35.9408467" lon="10.5104933"><ele>49.5</ele><time>2026-04-04T17:11:34.284Z</time></trkpt><trkpt lat="35.9405867" lon="10.510435"><ele>50.0</ele><time>2026-04-04T17:11:35.282Z</time></trkpt><trkpt lat="35.9403217" lon="10.510365"><ele>51.0</ele><time>2026-04-04T17:11:36.282Z</time></trkpt><trkpt lat="35.9400583" lon="10.5102883"><ele>52.0</ele><time>2026-04-04T17:11:37.282Z</time></trkpt><trkpt lat="35.9398" lon="10.510205"><ele>52.0</ele><time>2026-04-04T17:11:38.283Z</time></trkpt><trkpt lat="35.93954" lon="10.5101133"><ele>52.0</ele><time>2026-04-04T17:11:39.282Z</time></trkpt><trkpt lat="35.9392817" lon="10.5100133"><ele>50.5</ele><time>2026-04-04T17:11:40.284Z</time></trkpt><trkpt lat="35.9390283" lon="10.5099083"><ele>49.0</ele><time>2026-04-04T17:11:41.287Z</time></trkpt><trkpt lat="35.9387783" lon="10.5097967"><ele>49.0</ele><time>2026-04-04T17:11:42.286Z</time></trkpt><trkpt lat="35.9385233" lon="10.5096767"><ele>49.0</ele><time>2026-04-04T17:11:43.284Z</time></trkpt><trkpt lat="35.9382633" lon="10.5095517"><ele>50.5</ele><time>2026-04-04T17:11:44.285Z</time></trkpt><trkpt lat="35.937995" lon="10.5094217"><ele>52.0</ele><time>2026-04-04T17:11:45.285Z</time></trkpt><trkpt lat="35.937725" lon="10.50929"><ele>53.5</ele><time>2026-04-04T17:11:46.284Z</time></trkpt><trkpt lat="35.937455" lon="10.5091567"><ele>55.0</ele><time>2026-04-04T17:11:47.284Z</time></trkpt><trkpt lat="35.9371833" lon="10.5090267"><ele>55.0</ele><time>2026-04-04T17:11:48.285Z</time></trkpt><trkpt lat="35.9369117" lon="10.5088933"><ele>55.0</ele><time>2026-04-04T17:11:49.284Z</time></trkpt><trkpt lat="35.93664" lon="10.5087633"><ele>57.0</ele><time>2026-04-04T17:11:50.284Z</time></trkpt><trkpt lat="35.9363683" lon="10.5086317"><ele>59.0</ele><time>2026-04-04T17:11:51.284Z</time></trkpt><trkpt lat="35.936095" lon="10.5085017"><ele>59.5</ele><time>2026-04-04T17:11:52.284Z</time></trkpt><trkpt lat="35.9358233" lon="10.50837"><ele>60.0</ele><time>2026-04-04T17:11:53.284Z</time></trkpt><trkpt lat="35.9355533" lon="10.5082417"><ele>60.0</ele><time>2026-04-04T17:11:54.285Z</time></trkpt><trkpt lat="35.9352817" lon="10.508115"><ele>60.0</ele><time>2026-04-04T17:11:55.285Z</time></trkpt><trkpt lat="35.9350167" lon="10.50799"><ele>63.5</ele><time>2026-04-04T17:11:56.281Z</time></trkpt><trkpt lat="35.93475" lon="10.5078617"><ele>67.0</ele><time>2026-04-04T17:11:57.284Z</time></trkpt><trkpt lat="35.9344783" lon="10.5077333"><ele>65.0</ele><time>2026-04-04T17:11:58.285Z</time></trkpt><trkpt lat="35.9342067" lon="10.507605"><ele>63.0</ele><time>2026-04-04T17:11:59.285Z</time></trkpt><trkpt lat="35.9339417" lon="10.5074817"><ele>63.0</ele><time>2026-04-04T17:12:00.285Z</time></trkpt><trkpt lat="35.9336767" lon="10.5073583"><ele>63.0</ele><time>2026-04-04T17:12:01.285Z</time></trkpt><trkpt lat="35.9334133" lon="10.5072317"><ele>63.0</ele><time>2026-04-04T17:12:02.285Z</time></trkpt><trkpt lat="35.933155" lon="10.5071067"><ele>63.0</ele><time>2026-04-04T17:12:03.284Z</time></trkpt><trkpt lat="35.9328917" lon="10.5069833"><ele>63.0</ele><time>2026-04-04T17:12:04.285Z</time></trkpt><trkpt lat="35.9326283" lon="10.5068617"><ele>63.0</ele><time>2026-04-04T17:12:05.284Z</time></trkpt><trkpt lat="35.932365" lon="10.5067383"><ele>64.0</ele><time>2026-04-04T17:12:06.285Z</time></trkpt><trkpt lat="35.9321" lon="10.5066117"><ele>65.0</ele><time>2026-04-04T17:12:07.285Z</time></trkpt><trkpt lat="35.9318317" lon="10.5064867"><ele>66.5</ele><time>2026-04-04T17:12:08.284Z</time></trkpt><trkpt lat="35.93156" lon="10.50636"><ele>68.0</ele><time>2026-04-04T17:12:09.285Z</time></trkpt><trkpt lat="35.931285" lon="10.506235"><ele>69.0</ele><time>2026-04-04T17:12:10.284Z</time></trkpt><trkpt lat="35.9310083" lon="10.50611"><ele>70.0</ele><time>2026-04-04T17:12:11.284Z</time></trkpt><trkpt lat="35.93073" lon="10.50598"><ele>72.0</ele><time>2026-04-04T17:12:12.286Z</time></trkpt><trkpt lat="35.93045" lon="10.5058467"><ele>74.0</ele><time>2026-04-04T17:12:13.284Z</time></trkpt><trkpt lat="35.9301667" lon="10.50571"><ele>73.0</ele><time>2026-04-04T17:12:14.285Z</time></trkpt><trkpt lat="35.929885" lon="10.50557"><ele>72.0</ele><time>2026-04-04T17:12:15.281Z</time></trkpt><trkpt lat="35.9296083" lon="10.505435"><ele>71.0</ele><time>2026-04-04T17:12:16.286Z</time></trkpt><trkpt lat="35.92933" lon="10.5052983"><ele>70.0</ele><time>2026-04-04T17:12:17.285Z</time></trkpt><trkpt lat="35.92905" lon="10.50516"><ele>68.0</ele><time>2026-04-04T17:12:18.285Z</time></trkpt><trkpt lat="35.928765" lon="10.5050217"><ele>66.0</ele><time>2026-04-04T17:12:19.286Z</time></trkpt><trkpt lat="35.9284767" lon="10.50488"><ele>65.0</ele><time>2026-04-04T17:12:20.285Z</time></trkpt><trkpt lat="35.9281867" lon="10.50474"><ele>64.0</ele><time>2026-04-04T17:12:21.284Z</time></trkpt><trkpt lat="35.927895" lon="10.5045967"><ele>63.5</ele><time>2026-04-04T17:12:22.285Z</time></trkpt><trkpt lat="35.9276117" lon="10.504455"><ele>63.0</ele><time>2026-04-04T17:12:23.285Z</time></trkpt><trkpt lat="35.92733" lon="10.5043167"><ele>63.0</ele><time>2026-04-04T17:12:24.286Z</time></trkpt><trkpt lat="35.9270467" lon="10.5041733"><ele>63.0</ele><time>2026-04-04T17:12:25.285Z</time></trkpt><trkpt lat="35.9267617" lon="10.50403"><ele>64.0</ele><time>2026-04-04T17:12:26.285Z</time></trkpt><trkpt lat="35.9264783" lon="10.50388"><ele>65.0</ele><time>2026-04-04T17:12:27.285Z</time></trkpt><trkpt lat="35.9261967" lon="10.503725"><ele>63.5</ele><time>2026-04-04T17:12:28.284Z</time></trkpt><trkpt lat="35.92592" lon="10.503565"><ele>62.0</ele><time>2026-04-04T17:12:29.284Z</time></trkpt><trkpt lat="35.9256467" lon="10.5034033"><ele>62.0</ele><time>2026-04-04T17:12:30.286Z</time></trkpt><trkpt lat="35.9253783" lon="10.5032333"><ele>62.0</ele><time>2026-04-04T17:12:31.284Z</time></trkpt><trkpt lat="35.925105" lon="10.503055"><ele>63.5</ele><time>2026-04-04T17:12:32.284Z</time></trkpt><trkpt lat="35.92484" lon="10.5028783"><ele>65.0</ele><time>2026-04-04T17:12:33.284Z</time></trkpt><trkpt lat="35.9245867" lon="10.5027017"><ele>65.0</ele><time>2026-04-04T17:12:34.284Z</time></trkpt><trkpt lat="35.9243433" lon="10.502525"><ele>65.0</ele><time>2026-04-04T17:12:35.284Z</time></trkpt><trkpt lat="35.9240967" lon="10.5023417"><ele>67.0</ele><time>2026-04-04T17:12:36.285Z</time></trkpt><trkpt lat="35.9238517" lon="10.5021467"><ele>69.0</ele><time>2026-04-04T17:12:37.284Z</time></trkpt><trkpt lat="35.923605" lon="10.5019433"><ele>71.0</ele><time>2026-04-04T17:12:38.284Z</time></trkpt><trkpt lat="35.9233583" lon="10.5017333"><ele>73.0</ele><time>2026-04-04T17:12:39.284Z</time></trkpt><trkpt lat="35.923115" lon="10.501515"><ele>73.0</ele><time>2026-04-04T17:12:40.284Z</time></trkpt><trkpt lat="35.922875" lon="10.501295"><ele>73.0</ele><time>2026-04-04T17:12:41.285Z</time></trkpt><trkpt lat="35.9226433" lon="10.5010733"><ele>73.0</ele><time>2026-04-04T17:12:42.285Z</time></trkpt><trkpt lat="35.9224167" lon="10.50085"><ele>73.0</ele><time>2026-04-04T17:12:43.284Z</time></trkpt><trkpt lat="35.9221933" lon="10.5006233"><ele>73.5</ele><time>2026-04-04T17:12:44.283Z</time></trkpt><trkpt lat="35.9219667" lon="10.5003867"><ele>74.0</ele><time>2026-04-04T17:12:45.283Z</time></trkpt><trkpt lat="35.9217367" lon="10.5001433"><ele>76.0</ele><time>2026-04-04T17:12:46.282Z</time></trkpt><trkpt lat="35.921505" lon="10.49989"><ele>78.0</ele><time>2026-04-04T17:12:47.282Z</time></trkpt><trkpt lat="35.921275" lon="10.49963"><ele>78.0</ele><time>2026-04-04T17:12:48.283Z</time></trkpt><trkpt lat="35.9210467" lon="10.499365"><ele>78.0</ele><time>2026-04-04T17:12:49.283Z</time></trkpt><trkpt lat="35.9208183" lon="10.4991"><ele>78.0</ele><time>2026-04-04T17:12:50.283Z</time></trkpt><trkpt lat="35.920595" lon="10.4988333"><ele>78.0</ele><time>2026-04-04T17:12:51.282Z</time></trkpt><trkpt lat="35.920375" lon="10.49857"><ele>78.5</ele><time>2026-04-04T17:12:52.282Z</time></trkpt><trkpt lat="35.9201583" lon="10.49831"><ele>79.0</ele><time>2026-04-04T17:12:53.282Z</time></trkpt><trkpt lat="35.9199417" lon="10.4980483"><ele>78.0</ele><time>2026-04-04T17:12:54.283Z</time></trkpt><trkpt lat="35.9197233" lon="10.4977867"><ele>77.0</ele><time>2026-04-04T17:12:55.282Z</time></trkpt><trkpt lat="35.9195033" lon="10.497525"><ele>77.0</ele><time>2026-04-04T17:12:56.282Z</time></trkpt><trkpt lat="35.9192817" lon="10.4972617"><ele>77.0</ele><time>2026-04-04T17:12:57.283Z</time></trkpt><trkpt lat="35.919065" lon="10.4969983"><ele>77.0</ele><time>2026-04-04T17:12:58.282Z</time></trkpt><trkpt lat="35.9188483" lon="10.4967383"><ele>77.0</ele><time>2026-04-04T17:12:59.282Z</time></trkpt><trkpt lat="35.9186333" lon="10.4964783"><ele>76.5</ele><time>2026-04-04T17:13:00.284Z</time></trkpt><trkpt lat="35.9184217" lon="10.4962233"><ele>76.0</ele><time>2026-04-04T17:13:01.284Z</time></trkpt><trkpt lat="35.9182167" lon="10.49598"><ele>76.0</ele><time>2026-04-04T17:13:02.284Z</time></trkpt><trkpt lat="35.91801" lon="10.4957367"><ele>76.0</ele><time>2026-04-04T17:13:03.285Z</time></trkpt><trkpt lat="35.9177967" lon="10.49549"><ele>76.5</ele><time>2026-04-04T17:13:04.284Z</time></trkpt><trkpt lat="35.9175717" lon="10.4952417"><ele>77.0</ele><time>2026-04-04T17:13:05.284Z</time></trkpt><trkpt lat="35.9173367" lon="10.494995"><ele>78.5</ele><time>2026-04-04T17:13:06.286Z</time></trkpt><trkpt lat="35.9171" lon="10.494755"><ele>80.0</ele><time>2026-04-04T17:13:07.285Z</time></trkpt><trkpt lat="35.9168583" lon="10.4945217"><ele>80.0</ele><time>2026-04-04T17:13:08.281Z</time></trkpt><trkpt lat="35.9166117" lon="10.494295"><ele>80.0</ele><time>2026-04-04T17:13:09.285Z</time></trkpt><trkpt lat="35.9163633" lon="10.494075"><ele>80.0</ele><time>2026-04-04T17:13:10.284Z</time></trkpt><trkpt lat="35.9161117" lon="10.49386"><ele>80.0</ele><time>2026-04-04T17:13:11.284Z</time></trkpt><trkpt lat="35.915855" lon="10.493655"><ele>79.0</ele><time>2026-04-04T17:13:12.285Z</time></trkpt><trkpt lat="35.9155967" lon="10.4934583"><ele>78.0</ele><time>2026-04-04T17:13:13.285Z</time></trkpt><trkpt lat="35.915335" lon="10.493265"><ele>78.0</ele><time>2026-04-04T17:13:14.284Z</time></trkpt><trkpt lat="35.9150733" lon="10.49308"><ele>78.0</ele><time>2026-04-04T17:13:15.286Z</time></trkpt><trkpt lat="35.914805" lon="10.4929033"><ele>76.5</ele><time>2026-04-04T17:13:16.285Z</time></trkpt><trkpt lat="35.9145333" lon="10.4927333"><ele>75.0</ele><time>2026-04-04T17:13:17.286Z</time></trkpt><trkpt lat="35.914255" lon="10.4925667"><ele>74.0</ele><time>2026-04-04T17:13:18.285Z</time></trkpt><trkpt lat="35.9139717" lon="10.4924083"><ele>73.0</ele><time>2026-04-04T17:13:19.282Z</time></trkpt><trkpt lat="35.913685" lon="10.4922567"><ele>73.5</ele><time>2026-04-04T17:13:20.285Z</time></trkpt><trkpt lat="35.9133967" lon="10.492115"><ele>74.0</ele><time>2026-04-04T17:13:21.285Z</time></trkpt><trkpt lat="35.913105" lon="10.4919817"><ele>75.5</ele><time>2026-04-04T17:13:22.284Z</time></trkpt><trkpt lat="35.912815" lon="10.4918567"><ele>77.0</ele><time>2026-04-04T17:13:23.285Z</time></trkpt><trkpt lat="35.9125283" lon="10.4917417"><ele>77.5</ele><time>2026-04-04T17:13:24.285Z</time></trkpt><trkpt lat="35.91224" lon="10.4916367"><ele>78.0</ele><time>2026-04-04T17:13:25.285Z</time></trkpt><trkpt lat="35.91195" lon="10.4915433"><ele>79.0</ele><time>2026-04-04T17:13:26.284Z</time></trkpt><trkpt lat="35.9116567" lon="10.4914517"><ele>80.0</ele><time>2026-04-04T17:13:27.283Z</time></trkpt><trkpt lat="35.9113583" lon="10.49137"><ele>80.0</ele><time>2026-04-04T17:13:28.285Z</time></trkpt><trkpt lat="35.9110583" lon="10.491295"><ele>80.0</ele><time>2026-04-04T17:13:29.284Z</time></trkpt><trkpt lat="35.9107583" lon="10.4912283"><ele>80.0</ele><time>2026-04-04T17:13:30.285Z</time></trkpt><trkpt lat="35.9104567" lon="10.491175"><ele>80.0</ele><time>2026-04-04T17:13:31.284Z</time></trkpt><trkpt lat="35.9101567" lon="10.49113"><ele>81.0</ele><time>2026-04-04T17:13:32.284Z</time></trkpt><trkpt lat="35.90986" lon="10.491085"><ele>82.0</ele><time>2026-04-04T17:13:33.285Z</time></trkpt><trkpt lat="35.90957" lon="10.4910483"><ele>82.0</ele><time>2026-04-04T17:13:34.282Z</time></trkpt><trkpt lat="35.9092833" lon="10.4910217"><ele>82.0</ele><time>2026-04-04T17:13:35.282Z</time></trkpt><trkpt lat="35.909" lon="10.491005"><ele>83.5</ele><time>2026-04-04T17:13:36.283Z</time></trkpt><trkpt lat="35.908715" lon="10.4909967"><ele>85.0</ele><time>2026-04-04T17:13:37.282Z</time></trkpt><trkpt lat="35.9084333" lon="10.4909967"><ele>87.5</ele><time>2026-04-04T17:13:38.283Z</time></trkpt><trkpt lat="35.9081617" lon="10.4910017"><ele>90.0</ele><time>2026-04-04T17:13:39.283Z</time></trkpt><trkpt lat="35.9079017" lon="10.4910133"><ele>90.0</ele><time>2026-04-04T17:13:40.284Z</time></trkpt><trkpt lat="35.9076483" lon="10.4910333"><ele>90.0</ele><time>2026-04-04T17:13:41.284Z</time></trkpt><trkpt lat="35.907395" lon="10.4910583"><ele>90.5</ele><time>2026-04-04T17:13:42.283Z</time></trkpt><trkpt lat="35.9071317" lon="10.49109"><ele>91.0</ele><time>2026-04-04T17:13:43.282Z</time></trkpt><trkpt lat="35.9068617" lon="10.491125"><ele>92.5</ele><time>2026-04-04T17:13:44.282Z</time></trkpt><trkpt lat="35.906595" lon="10.491165"><ele>94.0</ele><time>2026-04-04T17:13:45.285Z</time></trkpt><trkpt lat="35.9063333" lon="10.4912133"><ele>93.5</ele><time>2026-04-04T17:13:46.284Z</time></trkpt><trkpt lat="35.9060817" lon="10.491265"><ele>93.0</ele><time>2026-04-04T17:13:47.284Z</time></trkpt><trkpt lat="35.90584" lon="10.491325"><ele>93.0</ele><time>2026-04-04T17:13:48.285Z</time></trkpt><trkpt lat="35.9055983" lon="10.4913867"><ele>93.0</ele><time>2026-04-04T17:13:49.284Z</time></trkpt><trkpt lat="35.9053517" lon="10.491455"><ele>93.0</ele><time>2026-04-04T17:13:50.285Z</time></trkpt><trkpt lat="35.905105" lon="10.49153"><ele>93.0</ele><time>2026-04-04T17:13:51.285Z</time></trkpt><trkpt lat="35.9048617" lon="10.4916083"><ele>93.5</ele><time>2026-04-04T17:13:52.286Z</time></trkpt><trkpt lat="35.9046267" lon="10.4916883"><ele>94.0</ele><time>2026-04-04T17:13:53.284Z</time></trkpt><trkpt lat="35.9043917" lon="10.49177"><ele>93.5</ele><time>2026-04-04T17:13:54.285Z</time></trkpt><trkpt lat="35.9041567" lon="10.4918517"><ele>93.0</ele><time>2026-04-04T17:13:55.285Z</time></trkpt><trkpt lat="35.9039167" lon="10.491935"><ele>93.0</ele><time>2026-04-04T17:13:56.285Z</time></trkpt><trkpt lat="35.903675" lon="10.4920167"><ele>93.0</ele><time>2026-04-04T17:13:57.285Z</time></trkpt><trkpt lat="35.90343" lon="10.492105"><ele>92.5</ele><time>2026-04-04T17:13:58.285Z</time></trkpt><trkpt lat="35.9031867" lon="10.4921933"><ele>92.0</ele><time>2026-04-04T17:13:59.285Z</time></trkpt><trkpt lat="35.9029417" lon="10.4922867"><ele>92.0</ele><time>2026-04-04T17:14:00.286Z</time></trkpt><trkpt lat="35.90269" lon="10.4923817"><ele>92.0</ele><time>2026-04-04T17:14:01.284Z</time></trkpt><trkpt lat="35.902435" lon="10.49248"><ele>91.0</ele><time>2026-04-04T17:14:02.284Z</time></trkpt><trkpt lat="35.9021767" lon="10.4925817"><ele>90.0</ele><time>2026-04-04T17:14:03.284Z</time></trkpt><trkpt lat="35.90192" lon="10.49268"><ele>91.0</ele><time>2026-04-04T17:14:04.281Z</time></trkpt><trkpt lat="35.9016633" lon="10.4927817"><ele>92.0</ele><time>2026-04-04T17:14:05.284Z</time></trkpt><trkpt lat="35.9013983" lon="10.49289"><ele>91.5</ele><time>2026-04-04T17:14:06.282Z</time></trkpt><trkpt lat="35.9011233" lon="10.4929967"><ele>91.0</ele><time>2026-04-04T17:14:07.282Z</time></trkpt><trkpt lat="35.900845" lon="10.493105"><ele>90.5</ele><time>2026-04-04T17:14:08.281Z</time></trkpt><trkpt lat="35.9005633" lon="10.4932167"><ele>90.0</ele><time>2026-04-04T17:14:09.282Z</time></trkpt><trkpt lat="35.9002783" lon="10.493335"><ele>92.0</ele><time>2026-04-04T17:14:10.283Z</time></trkpt><trkpt lat="35.8999917" lon="10.493455"><ele>94.0</ele><time>2026-04-04T17:14:11.283Z</time></trkpt><trkpt lat="35.8996983" lon="10.4935833"><ele>94.0</ele><time>2026-04-04T17:14:12.282Z</time></trkpt><trkpt lat="35.8994017" lon="10.4937117"><ele>94.0</ele><time>2026-04-04T17:14:13.282Z</time></trkpt><trkpt lat="35.8991033" lon="10.493845"><ele>90.0</ele><time>2026-04-04T17:14:14.283Z</time></trkpt><trkpt lat="35.8988" lon="10.4939817"><ele>86.0</ele><time>2026-04-04T17:14:15.286Z</time></trkpt><trkpt lat="35.8984933" lon="10.4941217"><ele>86.5</ele><time>2026-04-04T17:14:16.286Z</time></trkpt><trkpt lat="35.898185" lon="10.494265"><ele>87.0</ele><time>2026-04-04T17:14:17.286Z</time></trkpt><trkpt lat="35.8978767" lon="10.4944167"><ele>87.0</ele><time>2026-04-04T17:14:18.285Z</time></trkpt><trkpt lat="35.897565" lon="10.4945667"><ele>87.0</ele><time>2026-04-04T17:14:19.284Z</time></trkpt><trkpt lat="35.8972517" lon="10.4947183"><ele>84.5</ele><time>2026-04-04T17:14:20.285Z</time></trkpt><trkpt lat="35.8969367" lon="10.4948733"><ele>82.0</ele><time>2026-04-04T17:14:21.286Z</time></trkpt><trkpt lat="35.8966267" lon="10.4950283"><ele>81.0</ele><time>2026-04-04T17:14:22.285Z</time></trkpt><trkpt lat="35.89633" lon="10.4951767"><ele>80.0</ele><time>2026-04-04T17:14:23.284Z</time></trkpt><trkpt lat="35.8960533" lon="10.4953233"><ele>78.5</ele><time>2026-04-04T17:14:24.282Z</time></trkpt><trkpt lat="35.8957867" lon="10.4954667"><ele>77.0</ele><time>2026-04-04T17:14:25.286Z</time></trkpt><trkpt lat="35.8955217" lon="10.4956133"><ele>77.0</ele><time>2026-04-04T17:14:26.284Z</time></trkpt><trkpt lat="35.8952533" lon="10.4957667"><ele>77.0</ele><time>2026-04-04T17:14:27.285Z</time></trkpt><trkpt lat="35.8949817" lon="10.4959283"><ele>77.0</ele><time>2026-04-04T17:14:28.285Z</time></trkpt><trkpt lat="35.8947117" lon="10.4960967"><ele>77.0</ele><time>2026-04-04T17:14:29.284Z</time></trkpt><trkpt lat="35.8944517" lon="10.496265"><ele>78.0</ele><time>2026-04-04T17:14:30.285Z</time></trkpt><trkpt lat="35.89421" lon="10.4964283"><ele>79.0</ele><time>2026-04-04T17:14:31.284Z</time></trkpt><trkpt lat="35.89398" lon="10.49659"><ele>79.0</ele><time>2026-04-04T17:14:32.284Z</time></trkpt><trkpt lat="35.8937567" lon="10.4967533"><ele>79.0</ele><time>2026-04-04T17:14:33.286Z</time></trkpt><trkpt lat="35.893535" lon="10.49692"><ele>77.0</ele><time>2026-04-04T17:14:34.283Z</time></trkpt><trkpt lat="35.8933183" lon="10.4970883"><ele>75.0</ele><time>2026-04-04T17:14:35.282Z</time></trkpt><trkpt lat="35.8930983" lon="10.49726"><ele>75.0</ele><time>2026-04-04T17:14:36.283Z</time></trkpt><trkpt lat="35.8928783" lon="10.49743"><ele>75.0</ele><time>2026-04-04T17:14:37.283Z</time></trkpt><trkpt lat="35.8926583" lon="10.4976117"><ele>75.0</ele><time>2026-04-04T17:14:38.282Z</time></trkpt><trkpt lat="35.89244" lon="10.4978033"><ele>75.0</ele><time>2026-04-04T17:14:39.283Z</time></trkpt><trkpt lat="35.89222" lon="10.498005"><ele>75.0</ele><time>2026-04-04T17:14:40.283Z</time></trkpt><trkpt lat="35.8919967" lon="10.4982167"><ele>75.0</ele><time>2026-04-04T17:14:41.282Z</time></trkpt><trkpt lat="35.8917683" lon="10.4984333"><ele>75.0</ele><time>2026-04-04T17:14:42.283Z</time></trkpt><trkpt lat="35.891535" lon="10.4986567"><ele>75.0</ele><time>2026-04-04T17:14:43.282Z</time></trkpt><trkpt lat="35.8912967" lon="10.4988817"><ele>75.0</ele><time>2026-04-04T17:14:44.283Z</time></trkpt><trkpt lat="35.891055" lon="10.4991133"><ele>75.0</ele><time>2026-04-04T17:14:45.285Z</time></trkpt><trkpt lat="35.8908083" lon="10.49935"><ele>71.5</ele><time>2026-04-04T17:14:46.285Z</time></trkpt><trkpt lat="35.890555" lon="10.4995917"><ele>68.0</ele><time>2026-04-04T17:14:47.284Z</time></trkpt><trkpt lat="35.8902933" lon="10.4998333"><ele>68.0</ele><time>2026-04-04T17:14:48.285Z</time></trkpt><trkpt lat="35.8900233" lon="10.5000667"><ele>68.0</ele><time>2026-04-04T17:14:49.286Z</time></trkpt><trkpt lat="35.8897433" lon="10.500295"><ele>66.5</ele><time>2026-04-04T17:14:50.285Z</time></trkpt><trkpt lat="35.8894517" lon="10.5005067"><ele>65.0</ele><time>2026-04-04T17:14:51.282Z</time></trkpt><trkpt lat="35.8891483" lon="10.500705"><ele>63.5</ele><time>2026-04-04T17:14:52.285Z</time></trkpt><trkpt lat="35.8888383" lon="10.5008933"><ele>62.0</ele><time>2026-04-04T17:14:53.285Z</time></trkpt><trkpt lat="35.8885233" lon="10.5010667"><ele>59.5</ele><time>2026-04-04T17:14:54.285Z</time></trkpt><trkpt lat="35.8882033" lon="10.501225"><ele>57.0</ele><time>2026-04-04T17:14:55.285Z</time></trkpt><trkpt lat="35.8878783" lon="10.50137"><ele>57.0</ele><time>2026-04-04T17:14:56.286Z</time></trkpt><trkpt lat="35.88755" lon="10.501495"><ele>57.0</ele><time>2026-04-04T17:14:57.285Z</time></trkpt><trkpt lat="35.8872167" lon="10.5016067"><ele>57.0</ele><time>2026-04-04T17:14:58.284Z</time></trkpt><trkpt lat="35.8868767" lon="10.5016967"><ele>57.0</ele><time>2026-04-04T17:14:59.285Z</time></trkpt><trkpt lat="35.8865333" lon="10.501785"><ele>58.0</ele><time>2026-04-04T17:15:00.285Z</time></trkpt><trkpt lat="35.8861817" lon="10.5018517"><ele>59.0</ele><time>2026-04-04T17:15:01.282Z</time></trkpt><trkpt lat="35.8858283" lon="10.5019083"><ele>61.5</ele><time>2026-04-04T17:15:02.284Z</time></trkpt><trkpt lat="35.8854767" lon="10.50195"><ele>64.0</ele><time>2026-04-04T17:15:03.282Z</time></trkpt><trkpt lat="35.8851283" lon="10.5019783"><ele>66.5</ele><time>2026-04-04T17:15:04.283Z</time></trkpt><trkpt lat="35.8847817" lon="10.5019933"><ele>69.0</ele><time>2026-04-04T17:15:05.283Z</time></trkpt><trkpt lat="35.8844317" lon="10.5020067"><ele>69.0</ele><time>2026-04-04T17:15:06.282Z</time></trkpt><trkpt lat="35.8840783" lon="10.5020117"><ele>69.0</ele><time>2026-04-04T17:15:07.282Z</time></trkpt><trkpt lat="35.883725" lon="10.5020233"><ele>69.5</ele><time>2026-04-04T17:15:08.283Z</time></trkpt><trkpt lat="35.8833733" lon="10.5020417"><ele>70.0</ele><time>2026-04-04T17:15:09.283Z</time></trkpt><trkpt lat="35.88303" lon="10.5020717"><ele>68.0</ele><time>2026-04-04T17:15:10.282Z</time></trkpt><trkpt lat="35.882705" lon="10.5021167"><ele>66.0</ele><time>2026-04-04T17:15:11.283Z</time></trkpt><trkpt lat="35.8824" lon="10.5021783"><ele>66.0</ele><time>2026-04-04T17:15:12.282Z</time></trkpt><trkpt lat="35.8821033" lon="10.5022517"><ele>66.0</ele><time>2026-04-04T17:15:13.283Z</time></trkpt><trkpt lat="35.88181" lon="10.5023383"><ele>66.0</ele><time>2026-04-04T17:15:14.283Z</time></trkpt><trkpt lat="35.881515" lon="10.5024417"><ele>66.0</ele><time>2026-04-04T17:15:15.285Z</time></trkpt><trkpt lat="35.881215" lon="10.50256"><ele>68.0</ele><time>2026-04-04T17:15:16.285Z</time></trkpt><trkpt lat="35.8809183" lon="10.5026933"><ele>70.0</ele><time>2026-04-04T17:15:17.284Z</time></trkpt><trkpt lat="35.8806267" lon="10.5028383"><ele>70.0</ele><time>2026-04-04T17:15:18.286Z</time></trkpt><trkpt lat="35.8803433" lon="10.5029867"><ele>70.0</ele><time>2026-04-04T17:15:19.285Z</time></trkpt><trkpt lat="35.880065" lon="10.5031467"><ele>70.0</ele><time>2026-04-04T17:15:20.286Z</time></trkpt><trkpt lat="35.8797983" lon="10.503315"><ele>70.0</ele><time>2026-04-04T17:15:21.285Z</time></trkpt><trkpt lat="35.8795383" lon="10.503495"><ele>70.0</ele><time>2026-04-04T17:15:22.285Z</time></trkpt><trkpt lat="35.87928" lon="10.50368"><ele>70.0</ele><time>2026-04-04T17:15:23.285Z</time></trkpt><trkpt lat="35.8790283" lon="10.503865"><ele>69.5</ele><time>2026-04-04T17:15:24.285Z</time></trkpt><trkpt lat="35.8787783" lon="10.5040583"><ele>69.0</ele><time>2026-04-04T17:15:25.285Z</time></trkpt><trkpt lat="35.878535" lon="10.5042517"><ele>70.5</ele><time>2026-04-04T17:15:26.285Z</time></trkpt><trkpt lat="35.8782883" lon="10.504435"><ele>72.0</ele><time>2026-04-04T17:15:27.284Z</time></trkpt><trkpt lat="35.8780383" lon="10.5046233"><ele>72.5</ele><time>2026-04-04T17:15:28.285Z</time></trkpt><trkpt lat="35.877785" lon="10.5048117"><ele>73.0</ele><time>2026-04-04T17:15:29.285Z</time></trkpt><trkpt lat="35.8775317" lon="10.5050017"><ele>73.0</ele><time>2026-04-04T17:15:30.286Z</time></trkpt><trkpt lat="35.877285" lon="10.5051917"><ele>73.0</ele><time>2026-04-04T17:15:31.287Z</time></trkpt><trkpt lat="35.87704" lon="10.5053767"><ele>73.5</ele><time>2026-04-04T17:15:32.285Z</time></trkpt><trkpt lat="35.876795" lon="10.50556"><ele>74.0</ele><time>2026-04-04T17:15:33.282Z</time></trkpt><trkpt lat="35.8765517" lon="10.5057467"><ele>72.5</ele><time>2026-04-04T17:15:34.282Z</time></trkpt><trkpt lat="35.87631" lon="10.5059283"><ele>71.0</ele><time>2026-04-04T17:15:35.282Z</time></trkpt><trkpt lat="35.87607" lon="10.506115"><ele>70.0</ele><time>2026-04-04T17:15:36.283Z</time></trkpt><trkpt lat="35.875825" lon="10.5063"><ele>69.0</ele><time>2026-04-04T17:15:37.282Z</time></trkpt><trkpt lat="35.8755783" lon="10.506495"><ele>69.0</ele><time>2026-04-04T17:15:38.282Z</time></trkpt><trkpt lat="35.8753267" lon="10.5066933"><ele>69.0</ele><time>2026-04-04T17:15:39.282Z</time></trkpt><trkpt lat="35.87507" lon="10.5069"><ele>67.0</ele><time>2026-04-04T17:15:40.286Z</time></trkpt><trkpt lat="35.87481" lon="10.5071033"><ele>65.0</ele><time>2026-04-04T17:15:41.286Z</time></trkpt><trkpt lat="35.87455" lon="10.5073033"><ele>65.0</ele><time>2026-04-04T17:15:42.285Z</time></trkpt><trkpt lat="35.8742917" lon="10.5074983"><ele>65.0</ele><time>2026-04-04T17:15:43.285Z</time></trkpt><trkpt lat="35.874035" lon="10.5076983"><ele>63.5</ele><time>2026-04-04T17:15:44.285Z</time></trkpt><trkpt lat="35.8737767" lon="10.5078983"><ele>62.0</ele><time>2026-04-04T17:15:45.286Z</time></trkpt><trkpt lat="35.873515" lon="10.5080967"><ele>62.5</ele><time>2026-04-04T17:15:46.285Z</time></trkpt><trkpt lat="35.8732617" lon="10.5082933"><ele>63.0</ele><time>2026-04-04T17:15:47.286Z</time></trkpt><trkpt lat="35.8730183" lon="10.5084783"><ele>63.0</ele><time>2026-04-04T17:15:48.285Z</time></trkpt><trkpt lat="35.8727817" lon="10.5086567"><ele>63.0</ele><time>2026-04-04T17:15:49.285Z</time></trkpt><trkpt lat="35.8725517" lon="10.5088317"><ele>60.0</ele><time>2026-04-04T17:15:50.285Z</time></trkpt><trkpt lat="35.8723233" lon="10.5090067"><ele>57.0</ele><time>2026-04-04T17:15:51.285Z</time></trkpt><trkpt lat="35.8721" lon="10.5091833"><ele>57.0</ele><time>2026-04-04T17:15:52.286Z</time></trkpt><trkpt lat="35.8718767" lon="10.5093583"><ele>57.0</ele><time>2026-04-04T17:15:53.286Z</time></trkpt><trkpt lat="35.87165" lon="10.5095383"><ele>56.5</ele><time>2026-04-04T17:15:54.286Z</time></trkpt><trkpt lat="35.8714217" lon="10.5097217"><ele>56.0</ele><time>2026-04-04T17:15:55.285Z</time></trkpt><trkpt lat="35.87119" lon="10.509905"><ele>56.0</ele><time>2026-04-04T17:15:56.285Z</time></trkpt><trkpt lat="35.8709533" lon="10.510095"><ele>56.0</ele><time>2026-04-04T17:15:57.285Z</time></trkpt><trkpt lat="35.87071" lon="10.5102933"><ele>56.5</ele><time>2026-04-04T17:15:58.285Z</time></trkpt><trkpt lat="35.87046" lon="10.5104967"><ele>57.0</ele><time>2026-04-04T17:15:59.285Z</time></trkpt><trkpt lat="35.8702067" lon="10.51071"><ele>58.0</ele><time>2026-04-04T17:16:00.286Z</time></trkpt><trkpt lat="35.8699483" lon="10.510925"><ele>59.0</ele><time>2026-04-04T17:16:01.285Z</time></trkpt><trkpt lat="35.86968" lon="10.5111417"><ele>59.0</ele><time>2026-04-04T17:16:02.285Z</time></trkpt><trkpt lat="35.869405" lon="10.5113583"><ele>59.0</ele><time>2026-04-04T17:16:03.283Z</time></trkpt><trkpt lat="35.8691317" lon="10.5115883"><ele>59.0</ele><time>2026-04-04T17:16:04.283Z</time></trkpt><trkpt lat="35.8688617" lon="10.5118217"><ele>59.0</ele><time>2026-04-04T17:16:05.282Z</time></trkpt><trkpt lat="35.8685967" lon="10.512055"><ele>54.5</ele><time>2026-04-04T17:16:06.283Z</time></trkpt><trkpt lat="35.8683433" lon="10.5122783"><ele>50.0</ele><time>2026-04-04T17:16:07.282Z</time></trkpt><trkpt lat="35.8681033" lon="10.5124933"><ele>50.0</ele><time>2026-04-04T17:16:08.283Z</time></trkpt><trkpt lat="35.8678767" lon="10.5127017"><ele>50.0</ele><time>2026-04-04T17:16:09.283Z</time></trkpt><trkpt lat="35.8676567" lon="10.51291"><ele>48.5</ele><time>2026-04-04T17:16:10.285Z</time></trkpt><trkpt lat="35.86744" lon="10.513115"><ele>47.0</ele><time>2026-04-04T17:16:11.285Z</time></trkpt><trkpt lat="35.86722" lon="10.5133267"><ele>47.0</ele><time>2026-04-04T17:16:12.285Z</time></trkpt><trkpt lat="35.8669933" lon="10.5135367"><ele>47.0</ele><time>2026-04-04T17:16:13.286Z</time></trkpt><trkpt lat="35.8667667" lon="10.5137483"><ele>48.5</ele><time>2026-04-04T17:16:14.285Z</time></trkpt><trkpt lat="35.8665383" lon="10.5139617"><ele>50.0</ele><time>2026-04-04T17:16:15.285Z</time></trkpt><trkpt lat="35.8663083" lon="10.514175"><ele>50.0</ele><time>2026-04-04T17:16:16.285Z</time></trkpt><trkpt lat="35.8660783" lon="10.5143933"><ele>50.0</ele><time>2026-04-04T17:16:17.286Z</time></trkpt><trkpt lat="35.8658467" lon="10.5146133"><ele>52.0</ele><time>2026-04-04T17:16:18.285Z</time></trkpt><trkpt lat="35.8656133" lon="10.5148383"><ele>54.0</ele><time>2026-04-04T17:16:19.285Z</time></trkpt><trkpt lat="35.8653767" lon="10.5150667"><ele>54.0</ele><time>2026-04-04T17:16:20.285Z</time></trkpt><trkpt lat="35.8651383" lon="10.515295"><ele>54.0</ele><time>2026-04-04T17:16:21.285Z</time></trkpt><trkpt lat="35.8648983" lon="10.5155217"><ele>54.0</ele><time>2026-04-04T17:16:22.285Z</time></trkpt><trkpt lat="35.86466" lon="10.51575"><ele>54.0</ele><time>2026-04-04T17:16:23.286Z</time></trkpt><trkpt lat="35.86442" lon="10.5159833"><ele>56.0</ele><time>2026-04-04T17:16:24.285Z</time></trkpt><trkpt lat="35.8641833" lon="10.5162183"><ele>58.0</ele><time>2026-04-04T17:16:25.285Z</time></trkpt><trkpt lat="35.8639467" lon="10.5164617"><ele>58.0</ele><time>2026-04-04T17:16:26.287Z</time></trkpt><trkpt lat="35.8637033" lon="10.5167033"><ele>58.0</ele><time>2026-04-04T17:16:27.286Z</time></trkpt><trkpt lat="35.8634583" lon="10.5169433"><ele>58.0</ele><time>2026-04-04T17:16:28.286Z</time></trkpt><trkpt lat="35.86321" lon="10.5171833"><ele>58.0</ele><time>2026-04-04T17:16:29.286Z</time></trkpt><trkpt lat="35.8629617" lon="10.5174283"><ele>58.0</ele><time>2026-04-04T17:16:30.285Z</time></trkpt><trkpt lat="35.8627117" lon="10.5176783"><ele>58.0</ele><time>2026-04-04T17:16:31.285Z</time></trkpt><trkpt lat="35.8624617" lon="10.5179317"><ele>58.0</ele><time>2026-04-04T17:16:32.283Z</time></trkpt><trkpt lat="35.8622083" lon="10.5181867"><ele>58.0</ele><time>2026-04-04T17:16:33.285Z</time></trkpt><trkpt lat="35.861955" lon="10.51844"><ele>58.5</ele><time>2026-04-04T17:16:34.285Z</time></trkpt><trkpt lat="35.8617033" lon="10.5186933"><ele>59.0</ele><time>2026-04-04T17:16:35.285Z</time></trkpt><trkpt lat="35.861455" lon="10.5189433"><ele>59.0</ele><time>2026-04-04T17:16:36.286Z</time></trkpt><trkpt lat="35.8612083" lon="10.5191883"><ele>59.0</ele><time>2026-04-04T17:16:37.285Z</time></trkpt><trkpt lat="35.8609633" lon="10.5194317"><ele>58.5</ele><time>2026-04-04T17:16:38.285Z</time></trkpt><trkpt lat="35.8607167" lon="10.5196683"><ele>58.0</ele><time>2026-04-04T17:16:39.285Z</time></trkpt><trkpt lat="35.8604683" lon="10.5199083"><ele>58.0</ele><time>2026-04-04T17:16:40.285Z</time></trkpt><trkpt lat="35.8602133" lon="10.5201517"><ele>58.0</ele><time>2026-04-04T17:16:41.285Z</time></trkpt><trkpt lat="35.8599567" lon="10.520395"><ele>57.0</ele><time>2026-04-04T17:16:42.285Z</time></trkpt><trkpt lat="35.8597017" lon="10.5206333"><ele>56.0</ele><time>2026-04-04T17:16:43.285Z</time></trkpt><trkpt lat="35.859455" lon="10.5208633"><ele>56.0</ele><time>2026-04-04T17:16:44.286Z</time></trkpt><trkpt lat="35.85921" lon="10.521085"><ele>56.0</ele><time>2026-04-04T17:16:45.285Z</time></trkpt><trkpt lat="35.8589617" lon="10.5213067"><ele>55.5</ele><time>2026-04-04T17:16:46.285Z</time></trkpt><trkpt lat="35.8587067" lon="10.5215267"><ele>55.0</ele><time>2026-04-04T17:16:47.283Z</time></trkpt><trkpt lat="35.858445" lon="10.52175"><ele>55.0</ele><time>2026-04-04T17:16:48.286Z</time></trkpt><trkpt lat="35.8581783" lon="10.5219767"><ele>55.0</ele><time>2026-04-04T17:16:49.285Z</time></trkpt><trkpt lat="35.8579117" lon="10.5222033"><ele>54.5</ele><time>2026-04-04T17:16:50.285Z</time></trkpt><trkpt lat="35.8576467" lon="10.5224217"><ele>54.0</ele><time>2026-04-04T17:16:51.287Z</time></trkpt><trkpt lat="35.8573817" lon="10.5226333"><ele>54.0</ele><time>2026-04-04T17:16:52.285Z</time></trkpt><trkpt lat="35.8571167" lon="10.52284"><ele>54.0</ele><time>2026-04-04T17:16:53.286Z</time></trkpt><trkpt lat="35.85685" lon="10.523045"><ele>57.0</ele><time>2026-04-04T17:16:54.285Z</time></trkpt><trkpt lat="35.8565817" lon="10.5232433"><ele>60.0</ele><time>2026-04-04T17:16:55.286Z</time></trkpt><trkpt lat="35.8563167" lon="10.5234367"><ele>60.0</ele><time>2026-04-04T17:16:56.285Z</time></trkpt><trkpt lat="35.8560567" lon="10.523625"><ele>60.0</ele><time>2026-04-04T17:16:57.285Z</time></trkpt><trkpt lat="35.8558033" lon="10.52381"><ele>61.0</ele><time>2026-04-04T17:16:58.285Z</time></trkpt><trkpt lat="35.8555517" lon="10.523985"><ele>62.0</ele><time>2026-04-04T17:16:59.285Z</time></trkpt><trkpt lat="35.8553033" lon="10.524155"><ele>64.0</ele><time>2026-04-04T17:17:00.286Z</time></trkpt><trkpt lat="35.855055" lon="10.5243183"><ele>66.0</ele><time>2026-04-04T17:17:01.285Z</time></trkpt><trkpt lat="35.8548" lon="10.5244867"><ele>65.5</ele><time>2026-04-04T17:17:02.285Z</time></trkpt><trkpt lat="35.8545367" lon="10.5246567"><ele>65.0</ele><time>2026-04-04T17:17:03.286Z</time></trkpt><trkpt lat="35.8542683" lon="10.5248267"><ele>64.5</ele><time>2026-04-04T17:17:04.285Z</time></trkpt><trkpt lat="35.8540017" lon="10.5249983"><ele>64.0</ele><time>2026-04-04T17:17:05.285Z</time></trkpt><trkpt lat="35.853735" lon="10.52517"><ele>64.0</ele><time>2026-04-04T17:17:06.285Z</time></trkpt><trkpt lat="35.8534667" lon="10.5253333"><ele>64.0</ele><time>2026-04-04T17:17:07.286Z</time></trkpt><trkpt lat="35.853195" lon="10.5254967"><ele>62.0</ele><time>2026-04-04T17:17:08.285Z</time></trkpt><trkpt lat="35.8529183" lon="10.5256583"><ele>60.0</ele><time>2026-04-04T17:17:09.285Z</time></trkpt><trkpt lat="35.8526383" lon="10.5258217"><ele>61.0</ele><time>2026-04-04T17:17:10.285Z</time></trkpt><trkpt lat="35.8523533" lon="10.5259817"><ele>62.0</ele><time>2026-04-04T17:17:11.286Z</time></trkpt><trkpt lat="35.8520683" lon="10.526135"><ele>62.0</ele><time>2026-04-04T17:17:12.285Z</time></trkpt><trkpt lat="35.8517833" lon="10.5262867"><ele>62.0</ele><time>2026-04-04T17:17:13.285Z</time></trkpt><trkpt lat="35.851495" lon="10.52644"><ele>62.0</ele><time>2026-04-04T17:17:14.286Z</time></trkpt><trkpt lat="35.851205" lon="10.5265983"><ele>62.0</ele><time>2026-04-04T17:17:15.285Z</time></trkpt><trkpt lat="35.8509133" lon="10.5267583"><ele>60.5</ele><time>2026-04-04T17:17:16.285Z</time></trkpt><trkpt lat="35.8506233" lon="10.5269167"><ele>59.0</ele><time>2026-04-04T17:17:17.285Z</time></trkpt><trkpt lat="35.8503317" lon="10.52707"><ele>58.5</ele><time>2026-04-04T17:17:18.286Z</time></trkpt><trkpt lat="35.85004" lon="10.5272283"><ele>58.0</ele><time>2026-04-04T17:17:19.286Z</time></trkpt><trkpt lat="35.8497517" lon="10.5273783"><ele>58.0</ele><time>2026-04-04T17:17:20.285Z</time></trkpt><trkpt lat="35.84947" lon="10.5275267"><ele>58.0</ele><time>2026-04-04T17:17:21.285Z</time></trkpt><trkpt lat="35.8491917" lon="10.52767"><ele>58.0</ele><time>2026-04-04T17:17:22.282Z</time></trkpt><trkpt lat="35.84892" lon="10.5278133"><ele>58.0</ele><time>2026-04-04T17:17:23.285Z</time></trkpt><trkpt lat="35.84865" lon="10.52796"><ele>60.0</ele><time>2026-04-04T17:17:24.285Z</time></trkpt><trkpt lat="35.84838" lon="10.5281117"><ele>62.0</ele><time>2026-04-04T17:17:25.286Z</time></trkpt><trkpt lat="35.8481083" lon="10.5282667"><ele>62.0</ele><time>2026-04-04T17:17:26.285Z</time></trkpt><trkpt lat="35.847835" lon="10.5284267"><ele>62.0</ele><time>2026-04-04T17:17:27.286Z</time></trkpt><trkpt lat="35.84756" lon="10.528595"><ele>60.5</ele><time>2026-04-04T17:17:28.285Z</time></trkpt><trkpt lat="35.84729" lon="10.5287617"><ele>59.0</ele><time>2026-04-04T17:17:29.285Z</time></trkpt><trkpt lat="35.84703" lon="10.5289217"><ele>58.5</ele><time>2026-04-04T17:17:30.285Z</time></trkpt><trkpt lat="35.8467733" lon="10.5290817"><ele>58.0</ele><time>2026-04-04T17:17:31.285Z</time></trkpt><trkpt lat="35.84652" lon="10.5292433"><ele>58.0</ele><time>2026-04-04T17:17:32.285Z</time></trkpt><trkpt lat="35.8462633" lon="10.52941"><ele>58.0</ele><time>2026-04-04T17:17:33.285Z</time></trkpt><trkpt lat="35.8460067" lon="10.52958"><ele>58.5</ele><time>2026-04-04T17:17:34.285Z</time></trkpt><trkpt lat="35.8457467" lon="10.5297517"><ele>59.0</ele><time>2026-04-04T17:17:35.285Z</time></trkpt><trkpt lat="35.8454867" lon="10.52993"><ele>59.0</ele><time>2026-04-04T17:17:36.286Z</time></trkpt><trkpt lat="35.8452233" lon="10.53011"><ele>59.0</ele><time>2026-04-04T17:17:37.286Z</time></trkpt><trkpt lat="35.8449583" lon="10.5302933"><ele>59.5</ele><time>2026-04-04T17:17:38.286Z</time></trkpt><trkpt lat="35.8446883" lon="10.5304767"><ele>60.0</ele><time>2026-04-04T17:17:39.285Z</time></trkpt><trkpt lat="35.8444167" lon="10.5306617"><ele>58.5</ele><time>2026-04-04T17:17:40.285Z</time></trkpt><trkpt lat="35.8441417" lon="10.5308483"><ele>57.0</ele><time>2026-04-04T17:17:41.285Z</time></trkpt><trkpt lat="35.8438667" lon="10.531035"><ele>57.0</ele><time>2026-04-04T17:17:42.285Z</time></trkpt><trkpt lat="35.8435933" lon="10.5312167"><ele>57.0</ele><time>2026-04-04T17:17:43.285Z</time></trkpt><trkpt lat="35.8433267" lon="10.5313917"><ele>56.0</ele><time>2026-04-04T17:17:44.285Z</time></trkpt><trkpt lat="35.8430683" lon="10.531565"><ele>55.0</ele><time>2026-04-04T17:17:45.285Z</time></trkpt><trkpt lat="35.8428083" lon="10.53174"><ele>54.5</ele><time>2026-04-04T17:17:46.286Z</time></trkpt><trkpt lat="35.8425467" lon="10.5319167"><ele>54.0</ele><time>2026-04-04T17:17:47.285Z</time></trkpt><trkpt lat="35.8422833" lon="10.5320933"><ele>53.0</ele><time>2026-04-04T17:17:48.286Z</time></trkpt><trkpt lat="35.84202" lon="10.5322733"><ele>52.0</ele><time>2026-04-04T17:17:49.286Z</time></trkpt><trkpt lat="35.8417567" lon="10.5324583"><ele>52.0</ele><time>2026-04-04T17:17:50.285Z</time></trkpt><trkpt lat="35.8414933" lon="10.53264"><ele>52.0</ele><time>2026-04-04T17:17:51.287Z</time></trkpt><trkpt lat="35.8412267" lon="10.532825"><ele>51.5</ele><time>2026-04-04T17:17:52.285Z</time></trkpt><trkpt lat="35.8409567" lon="10.5330133"><ele>51.0</ele><time>2026-04-04T17:17:53.285Z</time></trkpt><trkpt lat="35.8406883" lon="10.533205"><ele>51.0</ele><time>2026-04-04T17:17:54.285Z</time></trkpt><trkpt lat="35.8404167" lon="10.5333983"><ele>51.0</ele><time>2026-04-04T17:17:55.285Z</time></trkpt><trkpt lat="35.8401467" lon="10.5335917"><ele>51.0</ele><time>2026-04-04T17:17:56.285Z</time></trkpt><trkpt lat="35.839875" lon="10.5337817"><ele>51.0</ele><time>2026-04-04T17:17:57.286Z</time></trkpt><trkpt lat="35.8396067" lon="10.5339683"><ele>51.0</ele><time>2026-04-04T17:17:58.285Z</time></trkpt><trkpt lat="35.839335" lon="10.5341467"><ele>51.0</ele><time>2026-04-04T17:17:59.285Z</time></trkpt><trkpt lat="35.839065" lon="10.53433"><ele>51.5</ele><time>2026-04-04T17:18:00.286Z</time></trkpt><trkpt lat="35.83881" lon="10.53451"><ele>52.0</ele><time>2026-04-04T17:18:01.282Z</time></trkpt><trkpt lat="35.8385583" lon="10.5346817"><ele>52.0</ele><time>2026-04-04T17:18:02.285Z</time></trkpt><trkpt lat="35.8383067" lon="10.5348467"><ele>52.0</ele><time>2026-04-04T17:18:03.284Z</time></trkpt><trkpt lat="35.8380583" lon="10.53501"><ele>52.0</ele><time>2026-04-04T17:18:04.285Z</time></trkpt><trkpt lat="35.8378117" lon="10.5351683"><ele>52.0</ele><time>2026-04-04T17:18:05.285Z</time></trkpt><trkpt lat="35.83757" lon="10.5353317"><ele>49.5</ele><time>2026-04-04T17:18:06.285Z</time></trkpt><trkpt lat="35.83733" lon="10.5354983"><ele>47.0</ele><time>2026-04-04T17:18:07.284Z</time></trkpt><trkpt lat="35.8370867" lon="10.535665"><ele>47.0</ele><time>2026-04-04T17:18:08.284Z</time></trkpt><trkpt lat="35.8368383" lon="10.535835"><ele>47.0</ele><time>2026-04-04T17:18:09.284Z</time></trkpt><trkpt lat="35.8365867" lon="10.5360067"><ele>47.0</ele><time>2026-04-04T17:18:10.284Z</time></trkpt><trkpt lat="35.8363317" lon="10.53618"><ele>47.0</ele><time>2026-04-04T17:18:11.284Z</time></trkpt><trkpt lat="35.8360733" lon="10.5363567"><ele>45.0</ele><time>2026-04-04T17:18:12.285Z</time></trkpt><trkpt lat="35.8358133" lon="10.536535"><ele>43.0</ele><time>2026-04-04T17:18:13.284Z</time></trkpt><trkpt lat="35.8355533" lon="10.53671"><ele>43.0</ele><time>2026-04-04T17:18:14.284Z</time></trkpt><trkpt lat="35.83529" lon="10.5368833"><ele>43.0</ele><time>2026-04-04T17:18:15.284Z</time></trkpt><trkpt lat="35.835025" lon="10.5370567"><ele>41.5</ele><time>2026-04-04T17:18:16.284Z</time></trkpt><trkpt lat="35.8347583" lon="10.53723"><ele>40.0</ele><time>2026-04-04T17:18:17.284Z</time></trkpt><trkpt lat="35.8344933" lon="10.53741"><ele>40.0</ele><time>2026-04-04T17:18:18.284Z</time></trkpt><trkpt lat="35.83423" lon="10.5375883"><ele>40.0</ele><time>2026-04-04T17:18:19.284Z</time></trkpt><trkpt lat="35.833965" lon="10.5377667"><ele>40.0</ele><time>2026-04-04T17:18:20.284Z</time></trkpt><trkpt lat="35.8337" lon="10.537945"><ele>40.0</ele><time>2026-04-04T17:18:21.284Z</time></trkpt><trkpt lat="35.8334333" lon="10.538125"><ele>40.0</ele><time>2026-04-04T17:18:22.284Z</time></trkpt><trkpt lat="35.8331617" lon="10.5383067"><ele>40.0</ele><time>2026-04-04T17:18:23.286Z</time></trkpt><trkpt lat="35.8328867" lon="10.5384933"><ele>40.5</ele><time>2026-04-04T17:18:24.285Z</time></trkpt><trkpt lat="35.8326117" lon="10.5386783"><ele>41.0</ele><time>2026-04-04T17:18:25.285Z</time></trkpt><trkpt lat="35.832335" lon="10.5388667"><ele>41.0</ele><time>2026-04-04T17:18:26.284Z</time></trkpt><trkpt lat="35.832055" lon="10.5390567"><ele>41.0</ele><time>2026-04-04T17:18:27.285Z</time></trkpt><trkpt lat="35.8317733" lon="10.539245"><ele>41.5</ele><time>2026-04-04T17:18:28.284Z</time></trkpt><trkpt lat="35.8314883" lon="10.539435"><ele>42.0</ele><time>2026-04-04T17:18:29.284Z</time></trkpt><trkpt lat="35.8312017" lon="10.5396233"><ele>43.0</ele><time>2026-04-04T17:18:30.285Z</time></trkpt><trkpt lat="35.8309117" lon="10.5398067"><ele>44.0</ele><time>2026-04-04T17:18:31.285Z</time></trkpt><trkpt lat="35.83062" lon="10.5399867"><ele>44.0</ele><time>2026-04-04T17:18:32.285Z</time></trkpt><trkpt lat="35.8303267" lon="10.540165"><ele>44.0</ele><time>2026-04-04T17:18:33.284Z</time></trkpt><trkpt lat="35.8300333" lon="10.5403417"><ele>43.5</ele><time>2026-04-04T17:18:34.284Z</time></trkpt><trkpt lat="35.829745" lon="10.5405167"><ele>43.0</ele><time>2026-04-04T17:18:35.284Z</time></trkpt><trkpt lat="35.8294583" lon="10.540685"><ele>41.5</ele><time>2026-04-04T17:18:36.285Z</time></trkpt><trkpt lat="35.8291767" lon="10.5408417"><ele>40.0</ele><time>2026-04-04T17:18:37.284Z</time></trkpt><trkpt lat="35.8289033" lon="10.5409917"><ele>40.0</ele><time>2026-04-04T17:18:38.284Z</time></trkpt><trkpt lat="35.8286367" lon="10.5411367"><ele>40.0</ele><time>2026-04-04T17:18:39.284Z</time></trkpt><trkpt lat="35.8283733" lon="10.54128"><ele>41.5</ele><time>2026-04-04T17:18:40.284Z</time></trkpt><trkpt lat="35.8281083" lon="10.54142"><ele>43.0</ele><time>2026-04-04T17:18:41.284Z</time></trkpt><trkpt lat="35.8278433" lon="10.5415583"><ele>43.0</ele><time>2026-04-04T17:18:42.286Z</time></trkpt><trkpt lat="35.8275733" lon="10.5416933"><ele>43.0</ele><time>2026-04-04T17:18:43.284Z</time></trkpt><trkpt lat="35.8273017" lon="10.541825"><ele>43.0</ele><time>2026-04-04T17:18:44.284Z</time></trkpt><trkpt lat="35.8270233" lon="10.5419583"><ele>43.0</ele><time>2026-04-04T17:18:45.284Z</time></trkpt><trkpt lat="35.8267433" lon="10.54209"><ele>42.0</ele><time>2026-04-04T17:18:46.281Z</time></trkpt><trkpt lat="35.826465" lon="10.54222"><ele>41.0</ele><time>2026-04-04T17:18:47.281Z</time></trkpt><trkpt lat="35.8261833" lon="10.542345"><ele>40.5</ele><time>2026-04-04T17:18:48.282Z</time></trkpt><trkpt lat="35.8259" lon="10.54247"><ele>40.0</ele><time>2026-04-04T17:18:49.281Z</time></trkpt><trkpt lat="35.825615" lon="10.5425933"><ele>40.0</ele><time>2026-04-04T17:18:50.284Z</time></trkpt><trkpt lat="35.8253317" lon="10.5427067"><ele>40.0</ele><time>2026-04-04T17:18:51.283Z</time></trkpt><trkpt lat="35.8250467" lon="10.5428233"><ele>38.0</ele><time>2026-04-04T17:18:52.283Z</time></trkpt><trkpt lat="35.82476" lon="10.54293"><ele>36.0</ele><time>2026-04-04T17:18:53.282Z</time></trkpt><trkpt lat="35.8244733" lon="10.5430367"><ele>36.5</ele><time>2026-04-04T17:18:54.282Z</time></trkpt><trkpt lat="35.8242" lon="10.5431383"><ele>37.0</ele><time>2026-04-04T17:18:55.281Z</time></trkpt><trkpt lat="35.8239383" lon="10.5432317"><ele>37.0</ele><time>2026-04-04T17:18:56.281Z</time></trkpt><trkpt lat="35.82369" lon="10.5433183"><ele>37.0</ele><time>2026-04-04T17:18:57.286Z</time></trkpt><trkpt lat="35.8234533" lon="10.5434"><ele>37.5</ele><time>2026-04-04T17:18:58.283Z</time></trkpt><trkpt lat="35.823225" lon="10.54348"><ele>38.0</ele><time>2026-04-04T17:18:59.284Z</time></trkpt><trkpt lat="35.8229933" lon="10.54356"><ele>38.0</ele><time>2026-04-04T17:19:00.286Z</time></trkpt><trkpt lat="35.8227533" lon="10.5436417"><ele>38.0</ele><time>2026-04-04T17:19:01.284Z</time></trkpt><trkpt lat="35.82251" lon="10.54372"><ele>35.5</ele><time>2026-04-04T17:19:02.284Z</time></trkpt><trkpt lat="35.8222617" lon="10.5437967"><ele>33.0</ele><time>2026-04-04T17:19:03.284Z</time></trkpt><trkpt lat="35.82201" lon="10.54387"><ele>32.0</ele><time>2026-04-04T17:19:04.284Z</time></trkpt><trkpt lat="35.821755" lon="10.5439367"><ele>31.0</ele><time>2026-04-04T17:19:05.284Z</time></trkpt><trkpt lat="35.821495" lon="10.5439983"><ele>31.0</ele><time>2026-04-04T17:19:06.286Z</time></trkpt><trkpt lat="35.8212333" lon="10.5440583"><ele>31.0</ele><time>2026-04-04T17:19:07.284Z</time></trkpt><trkpt lat="35.82098" lon="10.5441133"><ele>29.0</ele><time>2026-04-04T17:19:08.284Z</time></trkpt><trkpt lat="35.8207317" lon="10.5441683"><ele>27.0</ele><time>2026-04-04T17:19:09.284Z</time></trkpt><trkpt lat="35.8204867" lon="10.5442233"><ele>27.0</ele><time>2026-04-04T17:19:10.281Z</time></trkpt><trkpt lat="35.8202383" lon="10.54428"><ele>27.0</ele><time>2026-04-04T17:19:11.284Z</time></trkpt><trkpt lat="35.8199867" lon="10.5443367"><ele>26.5</ele><time>2026-04-04T17:19:12.285Z</time></trkpt><trkpt lat="35.8197333" lon="10.544395"><ele>26.0</ele><time>2026-04-04T17:19:13.284Z</time></trkpt><trkpt lat="35.819485" lon="10.5444517"><ele>26.5</ele><time>2026-04-04T17:19:14.281Z</time></trkpt><trkpt lat="35.819245" lon="10.5445017"><ele>27.0</ele><time>2026-04-04T17:19:15.282Z</time></trkpt><trkpt lat="35.8190167" lon="10.5445517"><ele>27.666666666666664</ele><time>2026-04-04T17:19:16.282Z</time></trkpt><trkpt lat="35.818805" lon="10.5445983"><ele>28.333333333333332</ele><time>2026-04-04T17:19:17.282Z</time></trkpt><trkpt lat="35.81861" lon="10.5446383"><ele>29.0</ele><time>2026-04-04T17:19:18.282Z</time></trkpt><trkpt lat="35.8184333" lon="10.5446783"><ele>29.0</ele><time>2026-04-04T17:19:19.281Z</time></trkpt><trkpt lat="35.8182733" lon="10.544715"><ele>29.0</ele><time>2026-04-04T17:19:20.282Z</time></trkpt><trkpt lat="35.818125" lon="10.54475"><ele>29.0</ele><time>2026-04-04T17:19:21.283Z</time></trkpt><trkpt lat="35.817985" lon="10.5447817"><ele>29.0</ele><time>2026-04-04T17:19:22.283Z</time></trkpt><trkpt lat="35.8178533" lon="10.5448067"><ele>29.0</ele><time>2026-04-04T17:19:23.281Z</time></trkpt><trkpt lat="35.8177367" lon="10.5448317"><ele>29.0</ele><time>2026-04-04T17:19:24.285Z</time></trkpt><trkpt lat="35.8176317" lon="10.5448533"><ele>29.0</ele><time>2026-04-04T17:19:25.284Z</time></trkpt><trkpt lat="35.8175367" lon="10.544875"><ele>29.166666666666664</ele><time>2026-04-04T17:19:26.288Z</time></trkpt><trkpt lat="35.81745" lon="10.5448933"><ele>29.333333333333332</ele><time>2026-04-04T17:19:27.284Z</time></trkpt><trkpt lat="35.81737" lon="10.5449133"><ele>29.5</ele><time>2026-04-04T17:19:28.284Z</time></trkpt><trkpt lat="35.8172983" lon="10.5449317"><ele>29.666666666666664</ele><time>2026-04-04T17:19:29.284Z</time></trkpt><trkpt lat="35.8172317" lon="10.54495"><ele>29.833333333333332</ele><time>2026-04-04T17:19:30.285Z</time></trkpt><trkpt lat="35.8171617" lon="10.5449667"><ele>30.0</ele><time>2026-04-04T17:19:31.284Z</time></trkpt><trkpt lat="35.8170917" lon="10.544985"><ele>30.0</ele><time>2026-04-04T17:19:32.284Z</time></trkpt><trkpt lat="35.8170233" lon="10.5450033"><ele>30.0</ele><time>2026-04-04T17:19:33.284Z</time></trkpt><trkpt lat="35.8169517" lon="10.545025"><ele>30.0</ele><time>2026-04-04T17:19:34.285Z</time></trkpt><trkpt lat="35.81688" lon="10.54505"><ele>30.0</ele><time>2026-04-04T17:19:35.284Z</time></trkpt><trkpt lat="35.8168167" lon="10.5450717"><ele>30.0</ele><time>2026-04-04T17:19:36.285Z</time></trkpt><trkpt lat="35.8167017" lon="10.5451067"><ele>30.0</ele><time>2026-04-04T17:19:38.284Z</time></trkpt><trkpt lat="35.8165983" lon="10.5451583"><ele>30.0</ele><time>2026-04-04T17:19:40.284Z</time></trkpt><trkpt lat="35.8165117" lon="10.5452233"><ele>30.0</ele><time>2026-04-04T17:19:42.285Z</time></trkpt><trkpt lat="35.8164167" lon="10.5452933"><ele>30.0</ele><time>2026-04-04T17:19:44.284Z</time></trkpt><trkpt lat="35.8163567" lon="10.5453333"><ele>30.0</ele><time>2026-04-04T17:19:45.284Z</time></trkpt><trkpt lat="35.81629" lon="10.5453733"><ele>30.0</ele><time>2026-04-04T17:19:46.286Z</time></trkpt><trkpt lat="35.8162183" lon="10.5454033"><ele>30.0</ele><time>2026-04-04T17:19:47.284Z</time></trkpt><trkpt lat="35.8161467" lon="10.545425"><ele>30.0</ele><time>2026-04-04T17:19:48.286Z</time></trkpt><trkpt lat="35.8160667" lon="10.54544"><ele>30.0</ele><time>2026-04-04T17:19:49.284Z</time></trkpt><trkpt lat="35.81598" lon="10.5454567"><ele>30.0</ele><time>2026-04-04T17:19:50.284Z</time></trkpt><trkpt lat="35.8158917" lon="10.5454767"><ele>30.0</ele><time>2026-04-04T17:19:51.286Z</time></trkpt><trkpt lat="35.815805" lon="10.545495"><ele>30.0</ele><time>2026-04-04T17:19:52.285Z</time></trkpt><trkpt lat="35.8157167" lon="10.545515"><ele>30.0</ele><time>2026-04-04T17:19:53.284Z</time></trkpt><trkpt lat="35.8156233" lon="10.5455383"><ele>30.333333333333332</ele><time>2026-04-04T17:19:54.285Z</time></trkpt><trkpt lat="35.81553" lon="10.5455617"><ele>30.666666666666664</ele><time>2026-04-04T17:19:55.287Z</time></trkpt><trkpt lat="35.8154417" lon="10.545585"><ele>31.0</ele><time>2026-04-04T17:19:56.284Z</time></trkpt><trkpt lat="35.8153633" lon="10.5456033"><ele>31.333333333333332</ele><time>2026-04-04T17:19:57.284Z</time></trkpt><trkpt lat="35.8152867" lon="10.5456217"><ele>31.666666666666664</ele><time>2026-04-04T17:19:58.285Z</time></trkpt><trkpt lat="35.81521" lon="10.5456383"><ele>32.0</ele><time>2026-04-04T17:19:59.285Z</time></trkpt><trkpt lat="35.81513" lon="10.545655"><ele>32.33333333333333</ele><time>2026-04-04T17:20:00.285Z</time></trkpt><trkpt lat="35.8150517" lon="10.5456733"><ele>32.666666666666664</ele><time>2026-04-04T17:20:01.284Z</time></trkpt><trkpt lat="35.8149817" lon="10.5456883"><ele>33.0</ele><time>2026-04-04T17:20:02.284Z</time></trkpt><trkpt lat="35.8149133" lon="10.545705"><ele>33.333333333333336</ele><time>2026-04-04T17:20:03.281Z</time></trkpt><trkpt lat="35.8148383" lon="10.5457267"><ele>33.66666666666667</ele><time>2026-04-04T17:20:04.284Z</time></trkpt><trkpt lat="35.814755" lon="10.54575"><ele>34.0</ele><time>2026-04-04T17:20:05.282Z</time></trkpt><trkpt lat="35.8146683" lon="10.5457733"><ele>34.0</ele><time>2026-04-04T17:20:06.283Z</time></trkpt><trkpt lat="35.8145767" lon="10.545795"><ele>34.0</ele><time>2026-04-04T17:20:07.283Z</time></trkpt><trkpt lat="35.814485" lon="10.5458183"><ele>34.0</ele><time>2026-04-04T17:20:08.281Z</time></trkpt><trkpt lat="35.8143883" lon="10.5458383"><ele>34.0</ele><time>2026-04-04T17:20:09.282Z</time></trkpt><trkpt lat="35.8142867" lon="10.5458583"><ele>34.0</ele><time>2026-04-04T17:20:10.285Z</time></trkpt><trkpt lat="35.8141767" lon="10.54588"><ele>34.25</ele><time>2026-04-04T17:20:11.284Z</time></trkpt><trkpt lat="35.8140583" lon="10.545905"><ele>34.5</ele><time>2026-04-04T17:20:12.286Z</time></trkpt><trkpt lat="35.81393" lon="10.54593"><ele>34.75</ele><time>2026-04-04T17:20:13.285Z</time></trkpt><trkpt lat="35.8138" lon="10.54596"><ele>35.0</ele><time>2026-04-04T17:20:14.284Z</time></trkpt><trkpt lat="35.81367" lon="10.545985"><ele>35.0</ele><time>2026-04-04T17:20:15.284Z</time></trkpt><trkpt lat="35.81354" lon="10.5460033"><ele>35.0</ele><time>2026-04-04T17:20:16.284Z</time></trkpt><trkpt lat="35.8134083" lon="10.54601"><ele>35.0</ele><time>2026-04-04T17:20:17.284Z</time></trkpt><trkpt lat="35.8132683" lon="10.5459933"><ele>35.0</ele><time>2026-04-04T17:20:18.285Z</time></trkpt><trkpt lat="35.813125" lon="10.5459733"><ele>34.75</ele><time>2026-04-04T17:20:19.284Z</time></trkpt><trkpt lat="35.8129783" lon="10.5459767"><ele>34.5</ele><time>2026-04-04T17:20:20.285Z</time></trkpt><trkpt lat="35.8128333" lon="10.5460017"><ele>34.25</ele><time>2026-04-04T17:20:21.284Z</time></trkpt><trkpt lat="35.8126817" lon="10.5460367"><ele>34.0</ele><time>2026-04-04T17:20:22.285Z</time></trkpt><trkpt lat="35.8125233" lon="10.546075"><ele>35.66666666666667</ele><time>2026-04-04T17:20:23.285Z</time></trkpt><trkpt lat="35.8123583" lon="10.546115"><ele>37.333333333333336</ele><time>2026-04-04T17:20:24.285Z</time></trkpt><trkpt lat="35.81219" lon="10.546155"><ele>39.0</ele><time>2026-04-04T17:20:25.284Z</time></trkpt><trkpt lat="35.8120117" lon="10.5461983"><ele>38.333333333333336</ele><time>2026-04-04T17:20:26.284Z</time></trkpt><trkpt lat="35.8118317" lon="10.5462417"><ele>37.66666666666667</ele><time>2026-04-04T17:20:27.284Z</time></trkpt><trkpt lat="35.8116467" lon="10.5462883"><ele>37.0</ele><time>2026-04-04T17:20:28.284Z</time></trkpt><trkpt lat="35.8114533" lon="10.5463317"><ele>37.0</ele><time>2026-04-04T17:20:29.284Z</time></trkpt><trkpt lat="35.811255" lon="10.546375"><ele>37.0</ele><time>2026-04-04T17:20:30.285Z</time></trkpt><trkpt lat="35.8110517" lon="10.5464217"><ele>37.0</ele><time>2026-04-04T17:20:31.286Z</time></trkpt><trkpt lat="35.81084" lon="10.54647"><ele>36.5</ele><time>2026-04-04T17:20:32.287Z</time></trkpt><trkpt lat="35.81062" lon="10.5465183"><ele>36.0</ele><time>2026-04-04T17:20:33.281Z</time></trkpt><trkpt lat="35.8103933" lon="10.5465633"><ele>37.5</ele><time>2026-04-04T17:20:34.282Z</time></trkpt><trkpt lat="35.8101567" lon="10.5466083"><ele>39.0</ele><time>2026-04-04T17:20:35.282Z</time></trkpt><trkpt lat="35.80992" lon="10.54665"><ele>39.0</ele><time>2026-04-04T17:20:36.282Z</time></trkpt><trkpt lat="35.8096883" lon="10.5466867"><ele>39.0</ele><time>2026-04-04T17:20:37.282Z</time></trkpt><trkpt lat="35.8094567" lon="10.54672"><ele>39.0</ele><time>2026-04-04T17:20:38.282Z</time></trkpt><trkpt lat="35.8092267" lon="10.5467517"><ele>39.0</ele><time>2026-04-04T17:20:39.283Z</time></trkpt><trkpt lat="35.8089983" lon="10.5467817"><ele>39.0</ele><time>2026-04-04T17:20:40.286Z</time></trkpt><trkpt lat="35.8087667" lon="10.54681"><ele>39.0</ele><time>2026-04-04T17:20:41.284Z</time></trkpt><trkpt lat="35.8085267" lon="10.5468417"><ele>41.0</ele><time>2026-04-04T17:20:42.285Z</time></trkpt><trkpt lat="35.8082717" lon="10.546875"><ele>43.0</ele><time>2026-04-04T17:20:43.284Z</time></trkpt><trkpt lat="35.808" lon="10.5469"><ele>43.0</ele><time>2026-04-04T17:20:44.284Z</time></trkpt><trkpt lat="35.8077233" lon="10.54692"><ele>43.0</ele><time>2026-04-04T17:20:45.284Z</time></trkpt><trkpt lat="35.807445" lon="10.5469317"><ele>44.0</ele><time>2026-04-04T17:20:46.285Z</time></trkpt><trkpt lat="35.8071683" lon="10.54694"><ele>45.0</ele><time>2026-04-04T17:20:47.284Z</time></trkpt><trkpt lat="35.80689" lon="10.5469517"><ele>45.5</ele><time>2026-04-04T17:20:48.285Z</time></trkpt><trkpt lat="35.8066133" lon="10.5469667"><ele>46.0</ele><time>2026-04-04T17:20:49.284Z</time></trkpt><trkpt lat="35.8063367" lon="10.5469733"><ele>46.0</ele><time>2026-04-04T17:20:50.284Z</time></trkpt><trkpt lat="35.806065" lon="10.54698"><ele>46.0</ele><time>2026-04-04T17:20:51.284Z</time></trkpt><trkpt lat="35.8057917" lon="10.54699"><ele>46.5</ele><time>2026-04-04T17:20:52.285Z</time></trkpt><trkpt lat="35.80552" lon="10.5470017"><ele>47.0</ele><time>2026-04-04T17:20:53.284Z</time></trkpt><trkpt lat="35.8052483" lon="10.547015"><ele>47.5</ele><time>2026-04-04T17:20:54.285Z</time></trkpt><trkpt lat="35.804975" lon="10.5470367"><ele>48.0</ele><time>2026-04-04T17:20:55.284Z</time></trkpt><trkpt lat="35.8047" lon="10.5470583"><ele>48.0</ele><time>2026-04-04T17:20:56.284Z</time></trkpt><trkpt lat="35.804425" lon="10.5470883"><ele>48.0</ele><time>2026-04-04T17:20:57.284Z</time></trkpt><trkpt lat="35.8041483" lon="10.5471183"><ele>48.0</ele><time>2026-04-04T17:20:58.285Z</time></trkpt><trkpt lat="35.8038683" lon="10.54715"><ele>48.0</ele><time>2026-04-04T17:20:59.284Z</time></trkpt><trkpt lat="35.8035867" lon="10.5471833"><ele>49.0</ele><time>2026-04-04T17:21:00.285Z</time></trkpt><trkpt lat="35.803305" lon="10.547225"><ele>50.0</ele><time>2026-04-04T17:21:01.284Z</time></trkpt><trkpt lat="35.8030217" lon="10.5472733"><ele>50.0</ele><time>2026-04-04T17:21:02.285Z</time></trkpt><trkpt lat="35.80274" lon="10.5473233"><ele>50.0</ele><time>2026-04-04T17:21:03.282Z</time></trkpt><trkpt lat="35.8024617" lon="10.547375"><ele>51.5</ele><time>2026-04-04T17:21:04.283Z</time></trkpt><trkpt lat="35.802185" lon="10.547435"><ele>53.0</ele><time>2026-04-04T17:21:05.282Z</time></trkpt><trkpt lat="35.8019117" lon="10.5474967"><ele>53.0</ele><time>2026-04-04T17:21:06.282Z</time></trkpt><trkpt lat="35.8016383" lon="10.547565"><ele>53.0</ele><time>2026-04-04T17:21:07.283Z</time></trkpt><trkpt lat="35.801365" lon="10.5476367"><ele>53.0</ele><time>2026-04-04T17:21:08.282Z</time></trkpt><trkpt lat="35.8010917" lon="10.54771"><ele>53.0</ele><time>2026-04-04T17:21:09.282Z</time></trkpt><trkpt lat="35.80082" lon="10.5477883"><ele>53.0</ele><time>2026-04-04T17:21:10.285Z</time></trkpt><trkpt lat="35.8005483" lon="10.547865"><ele>53.0</ele><time>2026-04-04T17:21:11.285Z</time></trkpt><trkpt lat="35.8002767" lon="10.5479417"><ele>55.0</ele><time>2026-04-04T17:21:12.285Z</time></trkpt><trkpt lat="35.8000083" lon="10.5480217"><ele>57.0</ele><time>2026-04-04T17:21:13.284Z</time></trkpt><trkpt lat="35.7997417" lon="10.54811"><ele>57.0</ele><time>2026-04-04T17:21:14.284Z</time></trkpt><trkpt lat="35.799475" lon="10.5482017"><ele>57.0</ele><time>2026-04-04T17:21:15.284Z</time></trkpt><trkpt lat="35.79921" lon="10.5482933"><ele>57.0</ele><time>2026-04-04T17:21:16.284Z</time></trkpt><trkpt lat="35.798945" lon="10.548385"><ele>57.0</ele><time>2026-04-04T17:21:17.285Z</time></trkpt><trkpt lat="35.79868" lon="10.54848"><ele>59.0</ele><time>2026-04-04T17:21:18.285Z</time></trkpt><trkpt lat="35.798415" lon="10.5485833"><ele>61.0</ele><time>2026-04-04T17:21:19.284Z</time></trkpt><trkpt lat="35.7981517" lon="10.5486933"><ele>59.5</ele><time>2026-04-04T17:21:20.284Z</time></trkpt><trkpt lat="35.797885" lon="10.5488017"><ele>58.0</ele><time>2026-04-04T17:21:21.284Z</time></trkpt><trkpt lat="35.7976183" lon="10.5489067"><ele>58.0</ele><time>2026-04-04T17:21:22.285Z</time></trkpt><trkpt lat="35.7973483" lon="10.5490117"><ele>58.0</ele><time>2026-04-04T17:21:23.285Z</time></trkpt><trkpt lat="35.7970767" lon="10.54912"><ele>59.5</ele><time>2026-04-04T17:21:24.285Z</time></trkpt><trkpt lat="35.796805" lon="10.5492367"><ele>61.0</ele><time>2026-04-04T17:21:25.285Z</time></trkpt><trkpt lat="35.796535" lon="10.5493567"><ele>61.0</ele><time>2026-04-04T17:21:26.285Z</time></trkpt><trkpt lat="35.79626" lon="10.54948"><ele>61.0</ele><time>2026-04-04T17:21:27.285Z</time></trkpt><trkpt lat="35.7959833" lon="10.549605"><ele>61.0</ele><time>2026-04-04T17:21:28.284Z</time></trkpt><trkpt lat="35.7957067" lon="10.5497333"><ele>61.0</ele><time>2026-04-04T17:21:29.284Z</time></trkpt><trkpt lat="35.7954283" lon="10.54986"><ele>61.5</ele><time>2026-04-04T17:21:30.285Z</time></trkpt><trkpt lat="35.7951533" lon="10.5499867"><ele>62.0</ele><time>2026-04-04T17:21:31.286Z</time></trkpt><trkpt lat="35.7948767" lon="10.5501183"><ele>62.0</ele><time>2026-04-04T17:21:32.284Z</time></trkpt><trkpt lat="35.7945983" lon="10.5502483"><ele>62.0</ele><time>2026-04-04T17:21:33.284Z</time></trkpt><trkpt lat="35.794315" lon="10.55038"><ele>60.5</ele><time>2026-04-04T17:21:34.283Z</time></trkpt><trkpt lat="35.7940317" lon="10.55051"><ele>59.0</ele><time>2026-04-04T17:21:35.282Z</time></trkpt><trkpt lat="35.793745" lon="10.5506383"><ele>59.5</ele><time>2026-04-04T17:21:36.283Z</time></trkpt><trkpt lat="35.7934583" lon="10.5507683"><ele>60.0</ele><time>2026-04-04T17:21:37.282Z</time></trkpt><trkpt lat="35.7931717" lon="10.5509017"><ele>60.0</ele><time>2026-04-04T17:21:38.283Z</time></trkpt><trkpt lat="35.7928833" lon="10.551035"><ele>60.0</ele><time>2026-04-04T17:21:39.282Z</time></trkpt><trkpt lat="35.7925933" lon="10.5511683"><ele>60.0</ele><time>2026-04-04T17:21:40.285Z</time></trkpt><trkpt lat="35.7923" lon="10.5513"><ele>60.0</ele><time>2026-04-04T17:21:41.284Z</time></trkpt><trkpt lat="35.7920033" lon="10.5514333"><ele>59.5</ele><time>2026-04-04T17:21:42.285Z</time></trkpt><trkpt lat="35.791705" lon="10.55157"><ele>59.0</ele><time>2026-04-04T17:21:43.284Z</time></trkpt><trkpt lat="35.791405" lon="10.55171"><ele>59.0</ele><time>2026-04-04T17:21:44.285Z</time></trkpt><trkpt lat="35.791105" lon="10.5518467"><ele>59.0</ele><time>2026-04-04T17:21:45.284Z</time></trkpt><trkpt lat="35.7908067" lon="10.5519867"><ele>58.5</ele><time>2026-04-04T17:21:46.285Z</time></trkpt><trkpt lat="35.790505" lon="10.552125"><ele>58.0</ele><time>2026-04-04T17:21:47.284Z</time></trkpt><trkpt lat="35.7902033" lon="10.5522667"><ele>58.0</ele><time>2026-04-04T17:21:48.285Z</time></trkpt><trkpt lat="35.7899017" lon="10.552405"><ele>58.0</ele><time>2026-04-04T17:21:49.287Z</time></trkpt><trkpt lat="35.7895983" lon="10.5525417"><ele>58.0</ele><time>2026-04-04T17:21:50.284Z</time></trkpt><trkpt lat="35.7892967" lon="10.5526767"><ele>58.0</ele><time>2026-04-04T17:21:51.284Z</time></trkpt><trkpt lat="35.7889967" lon="10.5528133"><ele>58.0</ele><time>2026-04-04T17:21:52.286Z</time></trkpt><trkpt lat="35.7886967" lon="10.5529433"><ele>58.0</ele><time>2026-04-04T17:21:53.285Z</time></trkpt><trkpt lat="35.7883967" lon="10.55307"><ele>58.0</ele><time>2026-04-04T17:21:54.286Z</time></trkpt><trkpt lat="35.7880967" lon="10.5531967"><ele>58.0</ele><time>2026-04-04T17:21:55.285Z</time></trkpt><trkpt lat="35.7877967" lon="10.5533183"><ele>57.0</ele><time>2026-04-04T17:21:56.284Z</time></trkpt><trkpt lat="35.7874967" lon="10.5534417"><ele>56.0</ele><time>2026-04-04T17:21:57.285Z</time></trkpt><trkpt lat="35.7871967" lon="10.5535633"><ele>56.0</ele><time>2026-04-04T17:21:58.285Z</time></trkpt><trkpt lat="35.7868983" lon="10.553685"><ele>56.0</ele><time>2026-04-04T17:21:59.284Z</time></trkpt><trkpt lat="35.7865983" lon="10.553805"><ele>56.0</ele><time>2026-04-04T17:22:00.286Z</time></trkpt><trkpt lat="35.7863" lon="10.553925"><ele>56.0</ele><time>2026-04-04T17:22:01.285Z</time></trkpt><trkpt lat="35.786" lon="10.5540367"><ele>57.0</ele><time>2026-04-04T17:22:02.281Z</time></trkpt><trkpt lat="35.7857083" lon="10.5541483"><ele>58.0</ele><time>2026-04-04T17:22:03.286Z</time></trkpt><trkpt lat="35.7854117" lon="10.55426"><ele>57.5</ele><time>2026-04-04T17:22:04.284Z</time></trkpt><trkpt lat="35.7851167" lon="10.5543667"><ele>57.0</ele><time>2026-04-04T17:22:05.284Z</time></trkpt><trkpt lat="35.784825" lon="10.5544717"><ele>56.5</ele><time>2026-04-04T17:22:06.286Z</time></trkpt><trkpt lat="35.7845333" lon="10.5545767"><ele>56.0</ele><time>2026-04-04T17:22:07.286Z</time></trkpt><trkpt lat="35.7842383" lon="10.55468"><ele>56.0</ele><time>2026-04-04T17:22:08.284Z</time></trkpt><trkpt lat="35.7839467" lon="10.55478"><ele>56.0</ele><time>2026-04-04T17:22:09.284Z</time></trkpt><trkpt lat="35.7836567" lon="10.5548783"><ele>58.0</ele><time>2026-04-04T17:22:10.285Z</time></trkpt><trkpt lat="35.7833667" lon="10.5549783"><ele>60.0</ele><time>2026-04-04T17:22:11.282Z</time></trkpt><trkpt lat="35.783075" lon="10.555075"><ele>60.0</ele><time>2026-04-04T17:22:12.285Z</time></trkpt><trkpt lat="35.782785" lon="10.5551717"><ele>60.0</ele><time>2026-04-04T17:22:13.285Z</time></trkpt><trkpt lat="35.782495" lon="10.5552633"><ele>60.5</ele><time>2026-04-04T17:22:14.285Z</time></trkpt><trkpt lat="35.782205" lon="10.555355"><ele>61.0</ele><time>2026-04-04T17:22:15.284Z</time></trkpt><trkpt lat="35.7819133" lon="10.5554483"><ele>62.0</ele><time>2026-04-04T17:22:16.284Z</time></trkpt><trkpt lat="35.7816217" lon="10.5555383"><ele>63.0</ele><time>2026-04-04T17:22:17.284Z</time></trkpt><trkpt lat="35.7813317" lon="10.555625"><ele>63.0</ele><time>2026-04-04T17:22:18.286Z</time></trkpt><trkpt lat="35.7810417" lon="10.55571"><ele>63.0</ele><time>2026-04-04T17:22:19.284Z</time></trkpt><trkpt lat="35.78075" lon="10.555795"><ele>64.5</ele><time>2026-04-04T17:22:20.285Z</time></trkpt><trkpt lat="35.7804567" lon="10.5558783"><ele>66.0</ele><time>2026-04-04T17:22:21.285Z</time></trkpt><trkpt lat="35.7801633" lon="10.55596"><ele>67.0</ele><time>2026-04-04T17:22:22.284Z</time></trkpt><trkpt lat="35.77987" lon="10.5560433"><ele>68.0</ele><time>2026-04-04T17:22:23.286Z</time></trkpt><trkpt lat="35.7795783" lon="10.5561217"><ele>68.0</ele><time>2026-04-04T17:22:24.285Z</time></trkpt><trkpt lat="35.77929" lon="10.5561967"><ele>68.0</ele><time>2026-04-04T17:22:25.285Z</time></trkpt><trkpt lat="35.7790033" lon="10.5562683"><ele>68.0</ele><time>2026-04-04T17:22:26.285Z</time></trkpt><trkpt lat="35.778715" lon="10.5563383"><ele>68.0</ele><time>2026-04-04T17:22:27.285Z</time></trkpt><trkpt lat="35.7784217" lon="10.55641"><ele>68.0</ele><time>2026-04-04T17:22:28.284Z</time></trkpt><trkpt lat="35.7781267" lon="10.5564783"><ele>68.0</ele><time>2026-04-04T17:22:29.285Z</time></trkpt><trkpt lat="35.77783" lon="10.5565467"><ele>68.0</ele><time>2026-04-04T17:22:30.286Z</time></trkpt><trkpt lat="35.77753" lon="10.5566133"><ele>68.0</ele><time>2026-04-04T17:22:31.284Z</time></trkpt><trkpt lat="35.7772283" lon="10.5566783"><ele>68.0</ele><time>2026-04-04T17:22:32.285Z</time></trkpt><trkpt lat="35.7769167" lon="10.55674"><ele>68.0</ele><time>2026-04-04T17:22:33.285Z</time></trkpt><trkpt lat="35.7766033" lon="10.5568083"><ele>68.5</ele><time>2026-04-04T17:22:34.284Z</time></trkpt><trkpt lat="35.776295" lon="10.5568717"><ele>69.0</ele><time>2026-04-04T17:22:35.285Z</time></trkpt><trkpt lat="35.7759967" lon="10.5569317"><ele>69.0</ele><time>2026-04-04T17:22:36.285Z</time></trkpt><trkpt lat="35.775705" lon="10.55699"><ele>69.0</ele><time>2026-04-04T17:22:37.283Z</time></trkpt><trkpt lat="35.7754083" lon="10.55705"><ele>67.5</ele><time>2026-04-04T17:22:38.284Z</time></trkpt><trkpt lat="35.7751083" lon="10.5571083"><ele>66.0</ele><time>2026-04-04T17:22:39.285Z</time></trkpt><trkpt lat="35.7748083" lon="10.5571683"><ele>66.0</ele><time>2026-04-04T17:22:40.284Z</time></trkpt><trkpt lat="35.774505" lon="10.5572183"><ele>66.0</ele><time>2026-04-04T17:22:41.285Z</time></trkpt><trkpt lat="35.7742017" lon="10.5572733"><ele>65.5</ele><time>2026-04-04T17:22:42.285Z</time></trkpt><trkpt lat="35.7739" lon="10.55733"><ele>65.0</ele><time>2026-04-04T17:22:43.285Z</time></trkpt><trkpt lat="35.7735967" lon="10.5573833"><ele>66.5</ele><time>2026-04-04T17:22:44.284Z</time></trkpt><trkpt lat="35.7732933" lon="10.5574433"><ele>68.0</ele><time>2026-04-04T17:22:45.284Z</time></trkpt><trkpt lat="35.7729883" lon="10.557505"><ele>68.5</ele><time>2026-04-04T17:22:46.284Z</time></trkpt><trkpt lat="35.7726833" lon="10.5575633"><ele>69.0</ele><time>2026-04-04T17:22:47.286Z</time></trkpt><trkpt lat="35.7723783" lon="10.5576167"><ele>69.0</ele><time>2026-04-04T17:22:48.285Z</time></trkpt><trkpt lat="35.772075" lon="10.5576683"><ele>69.0</ele><time>2026-04-04T17:22:49.285Z</time></trkpt><trkpt lat="35.771775" lon="10.5577167"><ele>68.5</ele><time>2026-04-04T17:22:50.286Z</time></trkpt><trkpt lat="35.771475" lon="10.5577617"><ele>68.0</ele><time>2026-04-04T17:22:51.283Z</time></trkpt><trkpt lat="35.7711767" lon="10.5578017"><ele>67.0</ele><time>2026-04-04T17:22:52.284Z</time></trkpt><trkpt lat="35.77088" lon="10.5578417"><ele>66.0</ele><time>2026-04-04T17:22:53.285Z</time></trkpt><trkpt lat="35.770585" lon="10.5578817"><ele>66.0</ele><time>2026-04-04T17:22:54.286Z</time></trkpt><trkpt lat="35.77029" lon="10.55792"><ele>66.0</ele><time>2026-04-04T17:22:55.284Z</time></trkpt><trkpt lat="35.769995" lon="10.5579583"><ele>65.0</ele><time>2026-04-04T17:22:56.285Z</time></trkpt><trkpt lat="35.7697" lon="10.5579933"><ele>64.0</ele><time>2026-04-04T17:22:57.286Z</time></trkpt><trkpt lat="35.7694017" lon="10.5580233"><ele>63.0</ele><time>2026-04-04T17:22:58.286Z</time></trkpt><trkpt lat="35.7691" lon="10.55805"><ele>62.0</ele><time>2026-04-04T17:22:59.284Z</time></trkpt><trkpt lat="35.7688" lon="10.5580783"><ele>61.5</ele><time>2026-04-04T17:23:00.285Z</time></trkpt><trkpt lat="35.7685033" lon="10.5581"><ele>61.0</ele><time>2026-04-04T17:23:01.285Z</time></trkpt><trkpt lat="35.76821" lon="10.5581217"><ele>61.0</ele><time>2026-04-04T17:23:02.282Z</time></trkpt><trkpt lat="35.767915" lon="10.5581417"><ele>61.0</ele><time>2026-04-04T17:23:03.285Z</time></trkpt><trkpt lat="35.7676183" lon="10.558155"><ele>60.0</ele><time>2026-04-04T17:23:04.286Z</time></trkpt><trkpt lat="35.76732" lon="10.5581683"><ele>59.0</ele><time>2026-04-04T17:23:05.286Z</time></trkpt><trkpt lat="35.7670217" lon="10.55818"><ele>58.5</ele><time>2026-04-04T17:23:06.282Z</time></trkpt><trkpt lat="35.7667217" lon="10.5581867"><ele>58.0</ele><time>2026-04-04T17:23:07.285Z</time></trkpt><trkpt lat="35.7664217" lon="10.5581933"><ele>58.0</ele><time>2026-04-04T17:23:08.284Z</time></trkpt><trkpt lat="35.7661217" lon="10.5581967"><ele>58.0</ele><time>2026-04-04T17:23:09.285Z</time></trkpt><trkpt lat="35.7658167" lon="10.5581933"><ele>57.5</ele><time>2026-04-04T17:23:10.284Z</time></trkpt><trkpt lat="35.76551" lon="10.5581867"><ele>57.0</ele><time>2026-04-04T17:23:11.285Z</time></trkpt><trkpt lat="35.7651967" lon="10.5581767"><ele>57.0</ele><time>2026-04-04T17:23:12.285Z</time></trkpt><trkpt lat="35.7648783" lon="10.5581717"><ele>57.0</ele><time>2026-04-04T17:23:13.284Z</time></trkpt><trkpt lat="35.76456" lon="10.5581617"><ele>57.0</ele><time>2026-04-04T17:23:14.286Z</time></trkpt><trkpt lat="35.7642367" lon="10.5581483"><ele>57.0</ele><time>2026-04-04T17:23:15.284Z</time></trkpt><trkpt lat="35.7639183" lon="10.5581317"><ele>57.0</ele><time>2026-04-04T17:23:16.284Z</time></trkpt><trkpt lat="35.7635983" lon="10.5581133"><ele>57.0</ele><time>2026-04-04T17:23:17.285Z</time></trkpt><trkpt lat="35.7632767" lon="10.5580967"><ele>58.0</ele><time>2026-04-04T17:23:18.286Z</time></trkpt><trkpt lat="35.762955" lon="10.5580767"><ele>59.0</ele><time>2026-04-04T17:23:19.285Z</time></trkpt><trkpt lat="35.76264" lon="10.558055"><ele>59.5</ele><time>2026-04-04T17:23:20.285Z</time></trkpt><trkpt lat="35.7623283" lon="10.55803"><ele>60.0</ele><time>2026-04-04T17:23:21.285Z</time></trkpt><trkpt lat="35.7620217" lon="10.5580033"><ele>61.0</ele><time>2026-04-04T17:23:22.285Z</time></trkpt><trkpt lat="35.7617167" lon="10.5579717"><ele>62.0</ele><time>2026-04-04T17:23:23.286Z</time></trkpt><trkpt lat="35.7614133" lon="10.5579383"><ele>62.0</ele><time>2026-04-04T17:23:24.285Z</time></trkpt><trkpt lat="35.76111" lon="10.5579"><ele>62.0</ele><time>2026-04-04T17:23:25.285Z</time></trkpt><trkpt lat="35.76081" lon="10.5578617"><ele>62.0</ele><time>2026-04-04T17:23:26.284Z</time></trkpt><trkpt lat="35.76051" lon="10.55782"><ele>62.0</ele><time>2026-04-04T17:23:27.285Z</time></trkpt><trkpt lat="35.7602067" lon="10.55778"><ele>62.0</ele><time>2026-04-04T17:23:28.285Z</time></trkpt><trkpt lat="35.7599017" lon="10.5577383"><ele>62.0</ele><time>2026-04-04T17:23:29.285Z</time></trkpt><trkpt lat="35.7595983" lon="10.5576967"><ele>63.5</ele><time>2026-04-04T17:23:30.287Z</time></trkpt><trkpt lat="35.759295" lon="10.55765"><ele>65.0</ele><time>2026-04-04T17:23:31.285Z</time></trkpt><trkpt lat="35.7589917" lon="10.5576"><ele>65.0</ele><time>2026-04-04T17:23:32.286Z</time></trkpt><trkpt lat="35.7586883" lon="10.5575467"><ele>65.0</ele><time>2026-04-04T17:23:33.282Z</time></trkpt><trkpt lat="35.7583867" lon="10.5574917"><ele>64.5</ele><time>2026-04-04T17:23:34.284Z</time></trkpt><trkpt lat="35.7580833" lon="10.557435"><ele>64.0</ele><time>2026-04-04T17:23:35.282Z</time></trkpt><trkpt lat="35.7577833" lon="10.55738"><ele>62.5</ele><time>2026-04-04T17:23:36.283Z</time></trkpt><trkpt lat="35.757485" lon="10.5573217"><ele>61.0</ele><time>2026-04-04T17:23:37.283Z</time></trkpt><trkpt lat="35.7571933" lon="10.5572617"><ele>61.0</ele><time>2026-04-04T17:23:38.282Z</time></trkpt><trkpt lat="35.7569033" lon="10.5572"><ele>61.0</ele><time>2026-04-04T17:23:39.283Z</time></trkpt><trkpt lat="35.7566133" lon="10.557135"><ele>60.5</ele><time>2026-04-04T17:23:40.285Z</time></trkpt><trkpt lat="35.756325" lon="10.5570683"><ele>60.0</ele><time>2026-04-04T17:23:41.285Z</time></trkpt><trkpt lat="35.7560317" lon="10.557"><ele>59.5</ele><time>2026-04-04T17:23:42.285Z</time></trkpt><trkpt lat="35.7557383" lon="10.5569283"><ele>59.0</ele><time>2026-04-04T17:23:43.285Z</time></trkpt><trkpt lat="35.7554417" lon="10.5568533"><ele>58.5</ele><time>2026-04-04T17:23:44.285Z</time></trkpt><trkpt lat="35.75514" lon="10.5567767"><ele>58.0</ele><time>2026-04-04T17:23:45.285Z</time></trkpt><trkpt lat="35.7548367" lon="10.5567017"><ele>58.0</ele><time>2026-04-04T17:23:46.286Z</time></trkpt><trkpt lat="35.7545367" lon="10.5566267"><ele>58.0</ele><time>2026-04-04T17:23:47.285Z</time></trkpt><trkpt lat="35.754235" lon="10.556545"><ele>58.0</ele><time>2026-04-04T17:23:48.285Z</time></trkpt><trkpt lat="35.753935" lon="10.55646"><ele>58.0</ele><time>2026-04-04T17:23:49.285Z</time></trkpt><trkpt lat="35.7536333" lon="10.5563683"><ele>58.0</ele><time>2026-04-04T17:23:50.285Z</time></trkpt><trkpt lat="35.7533333" lon="10.556275"><ele>58.0</ele><time>2026-04-04T17:23:51.286Z</time></trkpt><trkpt lat="35.7530317" lon="10.5561767"><ele>58.5</ele><time>2026-04-04T17:23:52.285Z</time></trkpt><trkpt lat="35.7527317" lon="10.5560817"><ele>59.0</ele><time>2026-04-04T17:23:53.285Z</time></trkpt><trkpt lat="35.75244" lon="10.55599"><ele>57.0</ele><time>2026-04-04T17:23:54.285Z</time></trkpt><trkpt lat="35.7521533" lon="10.5558967"><ele>55.0</ele><time>2026-04-04T17:23:55.285Z</time></trkpt><trkpt lat="35.751865" lon="10.555805"><ele>52.5</ele><time>2026-04-04T17:23:56.285Z</time></trkpt><trkpt lat="35.7515767" lon="10.5557133"><ele>50.0</ele><time>2026-04-04T17:23:57.285Z</time></trkpt><trkpt lat="35.7512883" lon="10.5556217"><ele>49.5</ele><time>2026-04-04T17:23:58.285Z</time></trkpt><trkpt lat="35.7509967" lon="10.5555267"><ele>49.0</ele><time>2026-04-04T17:23:59.285Z</time></trkpt><trkpt lat="35.7507033" lon="10.555435"><ele>49.0</ele><time>2026-04-04T17:24:00.285Z</time></trkpt><trkpt lat="35.7504083" lon="10.55534"><ele>49.0</ele><time>2026-04-04T17:24:01.285Z</time></trkpt><trkpt lat="35.7501133" lon="10.5552467"><ele>48.5</ele><time>2026-04-04T17:24:02.285Z</time></trkpt><trkpt lat="35.7498167" lon="10.5551517"><ele>48.0</ele><time>2026-04-04T17:24:03.285Z</time></trkpt><trkpt lat="35.7495183" lon="10.5550583"><ele>49.0</ele><time>2026-04-04T17:24:04.285Z</time></trkpt><trkpt lat="35.7492217" lon="10.554965"><ele>50.0</ele><time>2026-04-04T17:24:05.285Z</time></trkpt><trkpt lat="35.748925" lon="10.5548733"><ele>50.0</ele><time>2026-04-04T17:24:06.285Z</time></trkpt><trkpt lat="35.74863" lon="10.554785"><ele>50.0</ele><time>2026-04-04T17:24:07.285Z</time></trkpt><trkpt lat="35.74834" lon="10.5546983"><ele>50.5</ele><time>2026-04-04T17:24:08.283Z</time></trkpt><trkpt lat="35.7480517" lon="10.554615"><ele>51.0</ele><time>2026-04-04T17:24:09.286Z</time></trkpt><trkpt lat="35.7477617" lon="10.5545267"><ele>52.5</ele><time>2026-04-04T17:24:10.287Z</time></trkpt><trkpt lat="35.7474817" lon="10.5544333"><ele>54.0</ele><time>2026-04-04T17:24:11.286Z</time></trkpt><trkpt lat="35.747205" lon="10.5543467"><ele>54.0</ele><time>2026-04-04T17:24:12.285Z</time></trkpt><trkpt lat="35.7469217" lon="10.5542633"><ele>54.0</ele><time>2026-04-04T17:24:13.285Z</time></trkpt><trkpt lat="35.7466367" lon="10.5541783"><ele>56.0</ele><time>2026-04-04T17:24:14.285Z</time></trkpt><trkpt lat="35.7463533" lon="10.5540917"><ele>58.0</ele><time>2026-04-04T17:24:15.285Z</time></trkpt><trkpt lat="35.74607" lon="10.554005"><ele>58.5</ele><time>2026-04-04T17:24:16.285Z</time></trkpt><trkpt lat="35.7457933" lon="10.5539183"><ele>59.0</ele><time>2026-04-04T17:24:17.285Z</time></trkpt><trkpt lat="35.745515" lon="10.5538333"><ele>59.0</ele><time>2026-04-04T17:24:18.285Z</time></trkpt><trkpt lat="35.7452367" lon="10.55375"><ele>59.0</ele><time>2026-04-04T17:24:19.286Z</time></trkpt><trkpt lat="35.7449533" lon="10.5536683"><ele>60.0</ele><time>2026-04-04T17:24:20.285Z</time></trkpt><trkpt lat="35.7446633" lon="10.553585"><ele>61.0</ele><time>2026-04-04T17:24:21.285Z</time></trkpt><trkpt lat="35.74437" lon="10.5535017"><ele>61.0</ele><time>2026-04-04T17:24:22.285Z</time></trkpt><trkpt lat="35.744075" lon="10.55342"><ele>61.0</ele><time>2026-04-04T17:24:23.285Z</time></trkpt><trkpt lat="35.7437767" lon="10.5533367"><ele>61.5</ele><time>2026-04-04T17:24:24.285Z</time></trkpt><trkpt lat="35.743475" lon="10.5532533"><ele>62.0</ele><time>2026-04-04T17:24:25.285Z</time></trkpt><trkpt lat="35.7431733" lon="10.5531717"><ele>62.0</ele><time>2026-04-04T17:24:26.285Z</time></trkpt><trkpt lat="35.7428717" lon="10.5530983"><ele>62.0</ele><time>2026-04-04T17:24:27.285Z</time></trkpt><trkpt lat="35.7425683" lon="10.5530283"><ele>63.0</ele><time>2026-04-04T17:24:28.285Z</time></trkpt><trkpt lat="35.7422567" lon="10.5529583"><ele>64.0</ele><time>2026-04-04T17:24:29.285Z</time></trkpt><trkpt lat="35.741945" lon="10.552895"><ele>66.5</ele><time>2026-04-04T17:24:30.285Z</time></trkpt><trkpt lat="35.74163" lon="10.552835"><ele>69.0</ele><time>2026-04-04T17:24:31.285Z</time></trkpt><trkpt lat="35.7413133" lon="10.5527767"><ele>68.5</ele><time>2026-04-04T17:24:32.285Z</time></trkpt><trkpt lat="35.7410017" lon="10.5527233"><ele>68.0</ele><time>2026-04-04T17:24:33.285Z</time></trkpt><trkpt lat="35.7407067" lon="10.5526783"><ele>68.0</ele><time>2026-04-04T17:24:34.285Z</time></trkpt><trkpt lat="35.74042" lon="10.552635"><ele>68.0</ele><time>2026-04-04T17:24:35.285Z</time></trkpt><trkpt lat="35.7401383" lon="10.552595"><ele>66.5</ele><time>2026-04-04T17:24:36.285Z</time></trkpt><trkpt lat="35.7398583" lon="10.5525617"><ele>65.0</ele><time>2026-04-04T17:24:37.285Z</time></trkpt><trkpt lat="35.739575" lon="10.5525283"><ele>66.0</ele><time>2026-04-04T17:24:38.285Z</time></trkpt><trkpt lat="35.73929" lon="10.5524933"><ele>67.0</ele><time>2026-04-04T17:24:39.286Z</time></trkpt><trkpt lat="35.738995" lon="10.5524567"><ele>67.0</ele><time>2026-04-04T17:24:40.285Z</time></trkpt><trkpt lat="35.738695" lon="10.552415"><ele>67.0</ele><time>2026-04-04T17:24:41.285Z</time></trkpt><trkpt lat="35.7383867" lon="10.55238"><ele>68.0</ele><time>2026-04-04T17:24:42.286Z</time></trkpt><trkpt lat="35.7380733" lon="10.5523483"><ele>69.0</ele><time>2026-04-04T17:24:43.286Z</time></trkpt><trkpt lat="35.7377583" lon="10.5523217"><ele>68.5</ele><time>2026-04-04T17:24:44.285Z</time></trkpt><trkpt lat="35.7374517" lon="10.5523017"><ele>68.0</ele><time>2026-04-04T17:24:45.285Z</time></trkpt><trkpt lat="35.737145" lon="10.55229"><ele>70.0</ele><time>2026-04-04T17:24:46.285Z</time></trkpt><trkpt lat="35.7368367" lon="10.5522767"><ele>72.0</ele><time>2026-04-04T17:24:47.285Z</time></trkpt><trkpt lat="35.7365233" lon="10.5522683"><ele>72.0</ele><time>2026-04-04T17:24:48.285Z</time></trkpt><trkpt lat="35.7362067" lon="10.552265"><ele>72.0</ele><time>2026-04-04T17:24:49.286Z</time></trkpt><trkpt lat="35.7358883" lon="10.5522667"><ele>71.5</ele><time>2026-04-04T17:24:50.285Z</time></trkpt><trkpt lat="35.7355717" lon="10.552275"><ele>71.0</ele><time>2026-04-04T17:24:51.287Z</time></trkpt><trkpt lat="35.7352567" lon="10.5522867"><ele>71.0</ele><time>2026-04-04T17:24:52.285Z</time></trkpt><trkpt lat="35.73494" lon="10.5522983"><ele>71.0</ele><time>2026-04-04T17:24:53.286Z</time></trkpt><trkpt lat="35.7346233" lon="10.5523133"><ele>70.0</ele><time>2026-04-04T17:24:54.286Z</time></trkpt><trkpt lat="35.7343083" lon="10.5523283"><ele>69.0</ele><time>2026-04-04T17:24:55.286Z</time></trkpt><trkpt lat="35.733995" lon="10.5523467"><ele>69.0</ele><time>2026-04-04T17:24:56.286Z</time></trkpt><trkpt lat="35.733685" lon="10.5523667"><ele>69.0</ele><time>2026-04-04T17:24:57.285Z</time></trkpt><trkpt lat="35.7333783" lon="10.5523883"><ele>67.5</ele><time>2026-04-04T17:24:58.285Z</time></trkpt><trkpt lat="35.7330767" lon="10.5524133"><ele>66.0</ele><time>2026-04-04T17:24:59.285Z</time></trkpt><trkpt lat="35.732775" lon="10.5524417"><ele>66.5</ele><time>2026-04-04T17:25:00.285Z</time></trkpt><trkpt lat="35.7324783" lon="10.5524717"><ele>67.0</ele><time>2026-04-04T17:25:01.285Z</time></trkpt><trkpt lat="35.73218" lon="10.5525017"><ele>67.0</ele><time>2026-04-04T17:25:02.285Z</time></trkpt><trkpt lat="35.7318817" lon="10.55253"><ele>67.0</ele><time>2026-04-04T17:25:03.285Z</time></trkpt><trkpt lat="35.7315883" lon="10.5525633"><ele>67.0</ele><time>2026-04-04T17:25:04.285Z</time></trkpt><trkpt lat="35.7312967" lon="10.5525917"><ele>67.0</ele><time>2026-04-04T17:25:05.282Z</time></trkpt><trkpt lat="35.73101" lon="10.5526217"><ele>67.0</ele><time>2026-04-04T17:25:06.285Z</time></trkpt><trkpt lat="35.7307267" lon="10.5526533"><ele>67.0</ele><time>2026-04-04T17:25:07.285Z</time></trkpt><trkpt lat="35.7304467" lon="10.552685"><ele>66.5</ele><time>2026-04-04T17:25:08.286Z</time></trkpt><trkpt lat="35.730165" lon="10.5527183"><ele>66.0</ele><time>2026-04-04T17:25:09.285Z</time></trkpt><trkpt lat="35.7298817" lon="10.55275"><ele>66.0</ele><time>2026-04-04T17:25:10.284Z</time></trkpt><trkpt lat="35.729595" lon="10.5527817"><ele>66.0</ele><time>2026-04-04T17:25:11.286Z</time></trkpt><trkpt lat="35.72931" lon="10.552815"><ele>65.0</ele><time>2026-04-04T17:25:12.285Z</time></trkpt><trkpt lat="35.7290283" lon="10.5528483"><ele>64.0</ele><time>2026-04-04T17:25:13.285Z</time></trkpt><trkpt lat="35.72875" lon="10.55288"><ele>64.0</ele><time>2026-04-04T17:25:14.284Z</time></trkpt><trkpt lat="35.728475" lon="10.55291"><ele>64.0</ele><time>2026-04-04T17:25:15.282Z</time></trkpt><trkpt lat="35.7281967" lon="10.5529383"><ele>64.0</ele><time>2026-04-04T17:25:16.283Z</time></trkpt><trkpt lat="35.727915" lon="10.5529667"><ele>64.0</ele><time>2026-04-04T17:25:17.284Z</time></trkpt><trkpt lat="35.72763" lon="10.5529983"><ele>64.5</ele><time>2026-04-04T17:25:18.283Z</time></trkpt><trkpt lat="35.72734" lon="10.5530317"><ele>65.0</ele><time>2026-04-04T17:25:19.281Z</time></trkpt><trkpt lat="35.7270467" lon="10.5530667"><ele>65.0</ele><time>2026-04-04T17:25:20.282Z</time></trkpt><trkpt lat="35.72675" lon="10.5531"><ele>65.0</ele><time>2026-04-04T17:25:21.282Z</time></trkpt><trkpt lat="35.7264517" lon="10.5531317"><ele>65.0</ele><time>2026-04-04T17:25:22.282Z</time></trkpt><trkpt lat="35.7261517" lon="10.553165"><ele>65.0</ele><time>2026-04-04T17:25:23.282Z</time></trkpt><trkpt lat="35.7258517" lon="10.5532"><ele>65.5</ele><time>2026-04-04T17:25:24.282Z</time></trkpt><trkpt lat="35.7255483" lon="10.5532317"><ele>66.0</ele><time>2026-04-04T17:25:25.281Z</time></trkpt><trkpt lat="35.7252483" lon="10.553265"><ele>66.0</ele><time>2026-04-04T17:25:26.281Z</time></trkpt><trkpt lat="35.7249567" lon="10.5532983"><ele>66.0</ele><time>2026-04-04T17:25:27.285Z</time></trkpt><trkpt lat="35.7246667" lon="10.5533317"><ele>66.0</ele><time>2026-04-04T17:25:28.282Z</time></trkpt><trkpt lat="35.72437" lon="10.5533683"><ele>66.0</ele><time>2026-04-04T17:25:29.281Z</time></trkpt><trkpt lat="35.7240683" lon="10.5534083"><ele>66.0</ele><time>2026-04-04T17:25:30.283Z</time></trkpt><trkpt lat="35.7237617" lon="10.5534467"><ele>66.0</ele><time>2026-04-04T17:25:31.284Z</time></trkpt><trkpt lat="35.7234483" lon="10.5534817"><ele>63.5</ele><time>2026-04-04T17:25:32.285Z</time></trkpt><trkpt lat="35.7231333" lon="10.5535167"><ele>61.0</ele><time>2026-04-04T17:25:33.285Z</time></trkpt><trkpt lat="35.7228183" lon="10.5535517"><ele>63.0</ele><time>2026-04-04T17:25:34.281Z</time></trkpt><trkpt lat="35.722495" lon="10.5535933"><ele>65.0</ele><time>2026-04-04T17:25:35.282Z</time></trkpt><trkpt lat="35.7221717" lon="10.5536317"><ele>66.0</ele><time>2026-04-04T17:25:36.283Z</time></trkpt><trkpt lat="35.7218517" lon="10.5536667"><ele>67.0</ele><time>2026-04-04T17:25:37.283Z</time></trkpt><trkpt lat="35.7215283" lon="10.5537083"><ele>65.0</ele><time>2026-04-04T17:25:38.283Z</time></trkpt><trkpt lat="35.7212033" lon="10.5537467"><ele>63.0</ele><time>2026-04-04T17:25:39.281Z</time></trkpt><trkpt lat="35.720875" lon="10.5537883"><ele>63.0</ele><time>2026-04-04T17:25:40.283Z</time></trkpt><trkpt lat="35.720545" lon="10.55384"><ele>63.0</ele><time>2026-04-04T17:25:41.282Z</time></trkpt><trkpt lat="35.720215" lon="10.5539"><ele>62.5</ele><time>2026-04-04T17:25:42.283Z</time></trkpt><trkpt lat="35.719885" lon="10.55397"><ele>62.0</ele><time>2026-04-04T17:25:43.282Z</time></trkpt><trkpt lat="35.7195567" lon="10.5540483"><ele>63.5</ele><time>2026-04-04T17:25:44.283Z</time></trkpt><trkpt lat="35.71923" lon="10.5541317"><ele>65.0</ele><time>2026-04-04T17:25:45.281Z</time></trkpt><trkpt lat="35.718905" lon="10.5542183"><ele>65.0</ele><time>2026-04-04T17:25:46.285Z</time></trkpt><trkpt lat="35.7185867" lon="10.5543117"><ele>65.0</ele><time>2026-04-04T17:25:47.284Z</time></trkpt><trkpt lat="35.71827" lon="10.5544133"><ele>63.5</ele><time>2026-04-04T17:25:48.286Z</time></trkpt><trkpt lat="35.717955" lon="10.55452"><ele>62.0</ele><time>2026-04-04T17:25:49.284Z</time></trkpt><trkpt lat="35.7176417" lon="10.5546333"><ele>62.0</ele><time>2026-04-04T17:25:50.284Z</time></trkpt><trkpt lat="35.71733" lon="10.5547533"><ele>62.0</ele><time>2026-04-04T17:25:51.284Z</time></trkpt><trkpt lat="35.7170233" lon="10.5548783"><ele>63.0</ele><time>2026-04-04T17:25:52.285Z</time></trkpt><trkpt lat="35.716715" lon="10.55501"><ele>64.0</ele><time>2026-04-04T17:25:53.284Z</time></trkpt><trkpt lat="35.7164117" lon="10.555155"><ele>64.0</ele><time>2026-04-04T17:25:54.285Z</time></trkpt><trkpt lat="35.7161083" lon="10.55531"><ele>64.0</ele><time>2026-04-04T17:25:55.284Z</time></trkpt><trkpt lat="35.7158117" lon="10.5554683"><ele>63.5</ele><time>2026-04-04T17:25:56.284Z</time></trkpt><trkpt lat="35.715515" lon="10.5556367"><ele>63.0</ele><time>2026-04-04T17:25:57.284Z</time></trkpt><trkpt lat="35.7152217" lon="10.5558033"><ele>63.0</ele><time>2026-04-04T17:25:58.285Z</time></trkpt><trkpt lat="35.714935" lon="10.5559817"><ele>63.0</ele><time>2026-04-04T17:25:59.281Z</time></trkpt><trkpt lat="35.7146483" lon="10.55616"><ele>61.0</ele><time>2026-04-04T17:26:00.284Z</time></trkpt><trkpt lat="35.7143667" lon="10.5563467"><ele>59.0</ele><time>2026-04-04T17:26:01.282Z</time></trkpt><trkpt lat="35.71409" lon="10.55653"><ele>59.0</ele><time>2026-04-04T17:26:02.284Z</time></trkpt><trkpt lat="35.713825" lon="10.556725"><ele>59.0</ele><time>2026-04-04T17:26:03.284Z</time></trkpt><trkpt lat="35.7135583" lon="10.556925"><ele>59.0</ele><time>2026-04-04T17:26:04.282Z</time></trkpt><trkpt lat="35.7132933" lon="10.557125"><ele>59.0</ele><time>2026-04-04T17:26:05.283Z</time></trkpt><trkpt lat="35.713035" lon="10.5573317"><ele>59.0</ele><time>2026-04-04T17:26:06.283Z</time></trkpt><trkpt lat="35.7127833" lon="10.5575417"><ele>59.0</ele><time>2026-04-04T17:26:07.282Z</time></trkpt><trkpt lat="35.7125367" lon="10.55776"><ele>58.0</ele><time>2026-04-04T17:26:08.282Z</time></trkpt><trkpt lat="35.7122917" lon="10.5579783"><ele>57.0</ele><time>2026-04-04T17:26:09.283Z</time></trkpt><trkpt lat="35.7120483" lon="10.5582017"><ele>57.0</ele><time>2026-04-04T17:26:10.282Z</time></trkpt><trkpt lat="35.7118017" lon="10.5584317"><ele>57.0</ele><time>2026-04-04T17:26:11.283Z</time></trkpt><trkpt lat="35.711555" lon="10.558665"><ele>57.0</ele><time>2026-04-04T17:26:12.283Z</time></trkpt><trkpt lat="35.7113083" lon="10.5589017"><ele>57.0</ele><time>2026-04-04T17:26:13.283Z</time></trkpt><trkpt lat="35.7110583" lon="10.55914"><ele>57.0</ele><time>2026-04-04T17:26:14.282Z</time></trkpt><trkpt lat="35.71081" lon="10.5593767"><ele>57.0</ele><time>2026-04-04T17:26:15.285Z</time></trkpt><trkpt lat="35.71056" lon="10.559615"><ele>57.0</ele><time>2026-04-04T17:26:16.284Z</time></trkpt><trkpt lat="35.7103083" lon="10.559855"><ele>57.0</ele><time>2026-04-04T17:26:17.285Z</time></trkpt><trkpt lat="35.7100583" lon="10.5600967"><ele>56.5</ele><time>2026-04-04T17:26:18.285Z</time></trkpt><trkpt lat="35.7098083" lon="10.5603333"><ele>56.0</ele><time>2026-04-04T17:26:19.284Z</time></trkpt><trkpt lat="35.7095617" lon="10.5605617"><ele>56.0</ele><time>2026-04-04T17:26:20.285Z</time></trkpt><trkpt lat="35.7093217" lon="10.560775"><ele>56.0</ele><time>2026-04-04T17:26:21.284Z</time></trkpt><trkpt lat="35.7090883" lon="10.5609783"><ele>56.0</ele><time>2026-04-04T17:26:22.284Z</time></trkpt><trkpt lat="35.7088567" lon="10.5611717"><ele>56.0</ele><time>2026-04-04T17:26:23.284Z</time></trkpt><trkpt lat="35.7086183" lon="10.561365"><ele>55.5</ele><time>2026-04-04T17:26:24.285Z</time></trkpt><trkpt lat="35.7083733" lon="10.5615583"><ele>55.0</ele><time>2026-04-04T17:26:25.285Z</time></trkpt><trkpt lat="35.70812" lon="10.5617433"><ele>55.0</ele><time>2026-04-04T17:26:26.284Z</time></trkpt><trkpt lat="35.707865" lon="10.5619283"><ele>55.0</ele><time>2026-04-04T17:26:27.286Z</time></trkpt><trkpt lat="35.7076033" lon="10.5621117"><ele>52.0</ele><time>2026-04-04T17:26:28.285Z</time></trkpt><trkpt lat="35.707335" lon="10.5622917"><ele>49.0</ele><time>2026-04-04T17:26:29.284Z</time></trkpt><trkpt lat="35.7070567" lon="10.5624683"><ele>48.5</ele><time>2026-04-04T17:26:30.284Z</time></trkpt><trkpt lat="35.7067733" lon="10.5626433"><ele>48.0</ele><time>2026-04-04T17:26:31.284Z</time></trkpt><trkpt lat="35.7064883" lon="10.562815"><ele>47.5</ele><time>2026-04-04T17:26:32.285Z</time></trkpt><trkpt lat="35.7062" lon="10.5629817"><ele>47.0</ele><time>2026-04-04T17:26:33.286Z</time></trkpt><trkpt lat="35.7059083" lon="10.5631467"><ele>47.0</ele><time>2026-04-04T17:26:34.282Z</time></trkpt><trkpt lat="35.7056133" lon="10.5632983"><ele>47.0</ele><time>2026-04-04T17:26:35.281Z</time></trkpt><trkpt lat="35.7053167" lon="10.5634433"><ele>47.0</ele><time>2026-04-04T17:26:36.282Z</time></trkpt><trkpt lat="35.7050183" lon="10.56358"><ele>47.0</ele><time>2026-04-04T17:26:37.282Z</time></trkpt><trkpt lat="35.7047183" lon="10.5637083"><ele>47.0</ele><time>2026-04-04T17:26:38.284Z</time></trkpt><trkpt lat="35.7044167" lon="10.56383"><ele>47.0</ele><time>2026-04-04T17:26:39.282Z</time></trkpt><trkpt lat="35.7041217" lon="10.563945"><ele>47.0</ele><time>2026-04-04T17:26:40.282Z</time></trkpt><trkpt lat="35.703835" lon="10.56405"><ele>47.0</ele><time>2026-04-04T17:26:41.281Z</time></trkpt><trkpt lat="35.70355" lon="10.5641483"><ele>47.0</ele><time>2026-04-04T17:26:42.282Z</time></trkpt><trkpt lat="35.703265" lon="10.56424"><ele>47.0</ele><time>2026-04-04T17:26:43.282Z</time></trkpt><trkpt lat="35.70298" lon="10.5643267"><ele>47.5</ele><time>2026-04-04T17:26:44.281Z</time></trkpt><trkpt lat="35.7026933" lon="10.564405"><ele>48.0</ele><time>2026-04-04T17:26:45.284Z</time></trkpt><trkpt lat="35.7024033" lon="10.5644783"><ele>48.5</ele><time>2026-04-04T17:26:46.281Z</time></trkpt><trkpt lat="35.7021117" lon="10.564545"><ele>49.0</ele><time>2026-04-04T17:26:47.284Z</time></trkpt><trkpt lat="35.7018167" lon="10.5646117"><ele>48.0</ele><time>2026-04-04T17:26:48.285Z</time></trkpt><trkpt lat="35.7015167" lon="10.56467"><ele>47.0</ele><time>2026-04-04T17:26:49.282Z</time></trkpt><trkpt lat="35.701215" lon="10.564725"><ele>46.5</ele><time>2026-04-04T17:26:50.282Z</time></trkpt><trkpt lat="35.7009133" lon="10.56477"><ele>46.0</ele><time>2026-04-04T17:26:51.284Z</time></trkpt><trkpt lat="35.70061" lon="10.56481"><ele>46.0</ele><time>2026-04-04T17:26:52.284Z</time></trkpt><trkpt lat="35.700305" lon="10.5648483"><ele>46.0</ele><time>2026-04-04T17:26:53.285Z</time></trkpt><trkpt lat="35.7" lon="10.56488"><ele>46.5</ele><time>2026-04-04T17:26:54.285Z</time></trkpt><trkpt lat="35.699695" lon="10.5649067"><ele>47.0</ele><time>2026-04-04T17:26:55.284Z</time></trkpt><trkpt lat="35.6993867" lon="10.5649283"><ele>47.0</ele><time>2026-04-04T17:26:56.284Z</time></trkpt><trkpt lat="35.6990733" lon="10.5649433"><ele>47.0</ele><time>2026-04-04T17:26:57.284Z</time></trkpt><trkpt lat="35.6987567" lon="10.5649517"><ele>47.5</ele><time>2026-04-04T17:26:58.284Z</time></trkpt><trkpt lat="35.6984383" lon="10.564945"><ele>48.0</ele><time>2026-04-04T17:26:59.284Z</time></trkpt><trkpt lat="35.6981183" lon="10.5649267"><ele>48.0</ele><time>2026-04-04T17:27:00.285Z</time></trkpt><trkpt lat="35.6977967" lon="10.5648983"><ele>48.0</ele><time>2026-04-04T17:27:01.284Z</time></trkpt><trkpt lat="35.6974733" lon="10.5648667"><ele>48.0</ele><time>2026-04-04T17:27:02.284Z</time></trkpt><trkpt lat="35.69715" lon="10.5648283"><ele>48.0</ele><time>2026-04-04T17:27:03.281Z</time></trkpt><trkpt lat="35.6968267" lon="10.564785"><ele>48.0</ele><time>2026-04-04T17:27:04.282Z</time></trkpt><trkpt lat="35.6965067" lon="10.564735"><ele>48.0</ele><time>2026-04-04T17:27:05.281Z</time></trkpt><trkpt lat="35.6961917" lon="10.5646783"><ele>48.5</ele><time>2026-04-04T17:27:06.282Z</time></trkpt><trkpt lat="35.69589" lon="10.5646183"><ele>49.0</ele><time>2026-04-04T17:27:07.281Z</time></trkpt><trkpt lat="35.6956033" lon="10.5645583"><ele>49.5</ele><time>2026-04-04T17:27:08.283Z</time></trkpt><trkpt lat="35.6953317" lon="10.564495"><ele>50.0</ele><time>2026-04-04T17:27:09.281Z</time></trkpt><trkpt lat="35.6950717" lon="10.5644333"><ele>49.0</ele><time>2026-04-04T17:27:10.282Z</time></trkpt><trkpt lat="35.6948267" lon="10.56437"><ele>48.0</ele><time>2026-04-04T17:27:11.282Z</time></trkpt><trkpt lat="35.69459" lon="10.5643033"><ele>48.0</ele><time>2026-04-04T17:27:12.283Z</time></trkpt><trkpt lat="35.6943583" lon="10.5642367"><ele>48.0</ele><time>2026-04-04T17:27:13.283Z</time></trkpt><trkpt lat="35.694125" lon="10.5641667"><ele>48.0</ele><time>2026-04-04T17:27:14.282Z</time></trkpt><trkpt lat="35.6939" lon="10.5640983"><ele>48.0</ele><time>2026-04-04T17:27:15.284Z</time></trkpt><trkpt lat="35.693685" lon="10.5640317"><ele>47.666666666666664</ele><time>2026-04-04T17:27:16.285Z</time></trkpt><trkpt lat="35.6934817" lon="10.5639717"><ele>47.33333333333333</ele><time>2026-04-04T17:27:17.284Z</time></trkpt><trkpt lat="35.6932883" lon="10.563915"><ele>47.0</ele><time>2026-04-04T17:27:18.284Z</time></trkpt><trkpt lat="35.6931083" lon="10.56386"><ele>47.0</ele><time>2026-04-04T17:27:19.284Z</time></trkpt><trkpt lat="35.6929317" lon="10.5638133"><ele>47.0</ele><time>2026-04-04T17:27:20.284Z</time></trkpt><trkpt lat="35.6927717" lon="10.5637683"><ele>47.0</ele><time>2026-04-04T17:27:21.285Z</time></trkpt><trkpt lat="35.692635" lon="10.5637283"><ele>47.2</ele><time>2026-04-04T17:27:22.285Z</time></trkpt><trkpt lat="35.692515" lon="10.5636883"><ele>47.400000000000006</ele><time>2026-04-04T17:27:23.285Z</time></trkpt><trkpt lat="35.6924117" lon="10.5636517"><ele>47.599999999999994</ele><time>2026-04-04T17:27:24.285Z</time></trkpt><trkpt lat="35.69232" lon="10.563625"><ele>47.8</ele><time>2026-04-04T17:27:25.284Z</time></trkpt><trkpt lat="35.692235" lon="10.5635967"><ele>48.0</ele><time>2026-04-04T17:27:26.285Z</time></trkpt><trkpt lat="35.6921583" lon="10.5635717"><ele>48.0</ele><time>2026-04-04T17:27:27.283Z</time></trkpt><trkpt lat="35.692085" lon="10.5635483"><ele>48.0</ele><time>2026-04-04T17:27:28.282Z</time></trkpt><trkpt lat="35.6920133" lon="10.5635267"><ele>48.0</ele><time>2026-04-04T17:27:29.281Z</time></trkpt><trkpt lat="35.691945" lon="10.5635067"><ele>48.0</ele><time>2026-04-04T17:27:30.282Z</time></trkpt><trkpt lat="35.6918817" lon="10.5634883"><ele>48.0</ele><time>2026-04-04T17:27:31.285Z</time></trkpt><trkpt lat="35.6917767" lon="10.5634583"><ele>48.0</ele><time>2026-04-04T17:27:33.281Z</time></trkpt><trkpt lat="35.6916917" lon="10.563435"><ele>48.5</ele><time>2026-04-04T17:27:35.282Z</time></trkpt><trkpt lat="35.691585" lon="10.5634033"><ele>49.0</ele><time>2026-04-04T17:27:37.283Z</time></trkpt><trkpt lat="35.69152" lon="10.56339"><ele>49.5</ele><time>2026-04-04T17:27:38.282Z</time></trkpt><trkpt lat="35.6914483" lon="10.5633733"><ele>50.0</ele><time>2026-04-04T17:27:39.283Z</time></trkpt><trkpt lat="35.6913767" lon="10.5633583"><ele>50.5</ele><time>2026-04-04T17:27:40.282Z</time></trkpt><trkpt lat="35.69131" lon="10.5633417"><ele>51.0</ele><time>2026-04-04T17:27:41.282Z</time></trkpt><trkpt lat="35.6912433" lon="10.563325"><ele>51.0</ele><time>2026-04-04T17:27:42.282Z</time></trkpt><trkpt lat="35.691175" lon="10.563305"><ele>51.0</ele><time>2026-04-04T17:27:43.282Z</time></trkpt><trkpt lat="35.6911017" lon="10.563285"><ele>51.0</ele><time>2026-04-04T17:27:44.282Z</time></trkpt><trkpt lat="35.6910333" lon="10.5632633"><ele>51.0</ele><time>2026-04-04T17:27:45.281Z</time></trkpt><trkpt lat="35.6909717" lon="10.5632417"><ele>51.0</ele><time>2026-04-04T17:27:46.282Z</time></trkpt><trkpt lat="35.69087" lon="10.5632083"><ele>51.0</ele><time>2026-04-04T17:27:48.285Z</time></trkpt><trkpt lat="35.690775" lon="10.5631883"><ele>50.833333333333336</ele><time>2026-04-04T17:27:50.282Z</time></trkpt><trkpt lat="35.6907017" lon="10.563165"><ele>50.66666666666667</ele><time>2026-04-04T17:27:52.283Z</time></trkpt><trkpt lat="35.6906183" lon="10.5631433"><ele>50.5</ele><time>2026-04-04T17:27:55.281Z</time></trkpt><trkpt lat="35.6905567" lon="10.5631217"><ele>50.333333333333336</ele><time>2026-04-04T17:27:57.281Z</time></trkpt><trkpt lat="35.6904717" lon="10.5630967"><ele>50.16666666666667</ele><time>2026-04-04T17:28:00.285Z</time></trkpt><trkpt lat="35.6904033" lon="10.56307"><ele>50.0</ele><time>2026-04-04T17:28:06.282Z</time></trkpt><trkpt lat="35.6903733" lon="10.5629817"><ele>50.0</ele><time>2026-04-04T17:28:11.288Z</time></trkpt><trkpt lat="35.6902983" lon="10.5629567"><ele>50.0</ele><time>2026-04-04T17:28:35.282Z</time></trkpt><trkpt lat="35.6901817" lon="10.5629217"><ele>50.0</ele><time>2026-04-04T17:28:37.285Z</time></trkpt><trkpt lat="35.6901033" lon="10.562895"><ele>50.0</ele><time>2026-04-04T17:28:38.284Z</time></trkpt><trkpt lat="35.6900117" lon="10.562865"><ele>50.0</ele><time>2026-04-04T17:28:39.285Z</time></trkpt><trkpt lat="35.689915" lon="10.5628283"><ele>49.5</ele><time>2026-04-04T17:28:40.282Z</time></trkpt><trkpt lat="35.6898133" lon="10.5627883"><ele>49.0</ele><time>2026-04-04T17:28:41.282Z</time></trkpt><trkpt lat="35.6897067" lon="10.56274"><ele>48.5</ele><time>2026-04-04T17:28:42.286Z</time></trkpt><trkpt lat="35.6895867" lon="10.5626867"><ele>48.0</ele><time>2026-04-04T17:28:43.284Z</time></trkpt><trkpt lat="35.689465" lon="10.5626333"><ele>48.4</ele><time>2026-04-04T17:28:44.282Z</time></trkpt><trkpt lat="35.6893533" lon="10.5625833"><ele>48.8</ele><time>2026-04-04T17:28:45.282Z</time></trkpt><trkpt lat="35.6892533" lon="10.5625383"><ele>49.2</ele><time>2026-04-04T17:28:46.282Z</time></trkpt><trkpt lat="35.68917" lon="10.5625"><ele>49.6</ele><time>2026-04-04T17:28:47.283Z</time></trkpt><trkpt lat="35.6891067" lon="10.56247"><ele>50.0</ele><time>2026-04-04T17:28:48.282Z</time></trkpt><trkpt lat="35.6890367" lon="10.5624283"><ele>50.00000000000001</ele><time>2026-04-04T17:28:50.282Z</time></trkpt><trkpt lat="35.6889667" lon="10.5624367"><ele>50.0</ele><time>2026-04-04T17:34:21.282Z</time></trkpt><trkpt lat="35.6888617" lon="10.5624067"><ele>50.0</ele><time>2026-04-04T17:34:23.285Z</time></trkpt><trkpt lat="35.6887933" lon="10.562385"><ele>50.0</ele><time>2026-04-04T17:34:24.286Z</time></trkpt><trkpt lat="35.6887217" lon="10.562365"><ele>50.00000000000001</ele><time>2026-04-04T17:34:25.283Z</time></trkpt><trkpt lat="35.6886433" lon="10.56234"><ele>50.0</ele><time>2026-04-04T17:34:26.282Z</time></trkpt><trkpt lat="35.6885533" lon="10.5623117"><ele>50.0</ele><time>2026-04-04T17:34:27.285Z</time></trkpt><trkpt lat="35.68845" lon="10.56228"><ele>50.0</ele><time>2026-04-04T17:34:28.285Z</time></trkpt><trkpt lat="35.68834" lon="10.5622483"><ele>50.0</ele><time>2026-04-04T17:34:29.285Z</time></trkpt><trkpt lat="35.6882217" lon="10.5622117"><ele>50.0</ele><time>2026-04-04T17:34:30.286Z</time></trkpt><trkpt lat="35.6880983" lon="10.562175"><ele>50.0</ele><time>2026-04-04T17:34:31.284Z</time></trkpt><trkpt lat="35.6879667" lon="10.5621367"><ele>50.0</ele><time>2026-04-04T17:34:32.284Z</time></trkpt><trkpt lat="35.6878283" lon="10.5620983"><ele>50.0</ele><time>2026-04-04T17:34:33.284Z</time></trkpt><trkpt lat="35.6876883" lon="10.5620567"><ele>50.0</ele><time>2026-04-04T17:34:34.284Z</time></trkpt><trkpt lat="35.6875383" lon="10.56201"><ele>49.66666666666667</ele><time>2026-04-04T17:34:35.286Z</time></trkpt><trkpt lat="35.6873867" lon="10.5619617"><ele>49.33333333333333</ele><time>2026-04-04T17:34:36.287Z</time></trkpt><trkpt lat="35.68723" lon="10.5619117"><ele>49.0</ele><time>2026-04-04T17:34:37.286Z</time></trkpt><trkpt lat="35.687075" lon="10.5618617"><ele>49.0</ele><time>2026-04-04T17:34:38.285Z</time></trkpt><trkpt lat="35.6869117" lon="10.5618117"><ele>49.0</ele><time>2026-04-04T17:34:39.284Z</time></trkpt><trkpt lat="35.68674" lon="10.56176"><ele>49.0</ele><time>2026-04-04T17:34:40.284Z</time></trkpt><trkpt lat="35.686565" lon="10.5617067"><ele>49.0</ele><time>2026-04-04T17:34:41.285Z</time></trkpt><trkpt lat="35.686385" lon="10.5616533"><ele>49.0</ele><time>2026-04-04T17:34:42.285Z</time></trkpt><trkpt lat="35.6862017" lon="10.5616017"><ele>49.0</ele><time>2026-04-04T17:34:43.285Z</time></trkpt><trkpt lat="35.6860133" lon="10.5615483"><ele>49.0</ele><time>2026-04-04T17:34:44.281Z</time></trkpt><trkpt lat="35.6858183" lon="10.5614933"><ele>49.0</ele><time>2026-04-04T17:34:45.282Z</time></trkpt><trkpt lat="35.685615" lon="10.5614367"><ele>49.0</ele><time>2026-04-04T17:34:46.283Z</time></trkpt><trkpt lat="35.6854067" lon="10.5613817"><ele>49.0</ele><time>2026-04-04T17:34:47.282Z</time></trkpt><trkpt lat="35.6851967" lon="10.5613283"><ele>49.0</ele><time>2026-04-04T17:34:48.283Z</time></trkpt><trkpt lat="35.68498" lon="10.5612733"><ele>49.0</ele><time>2026-04-04T17:34:49.282Z</time></trkpt><trkpt lat="35.6847583" lon="10.5612217"><ele>48.5</ele><time>2026-04-04T17:34:50.282Z</time></trkpt><trkpt lat="35.6845317" lon="10.5611683"><ele>48.0</ele><time>2026-04-04T17:34:51.284Z</time></trkpt><trkpt lat="35.6843033" lon="10.5611183"><ele>47.5</ele><time>2026-04-04T17:34:52.283Z</time></trkpt><trkpt lat="35.6840733" lon="10.5610717"><ele>47.0</ele><time>2026-04-04T17:34:53.282Z</time></trkpt><trkpt lat="35.68384" lon="10.5610267"><ele>47.0</ele><time>2026-04-04T17:34:54.282Z</time></trkpt><trkpt lat="35.6836033" lon="10.5609817"><ele>47.0</ele><time>2026-04-04T17:34:55.283Z</time></trkpt><trkpt lat="35.6833633" lon="10.5609383"><ele>48.0</ele><time>2026-04-04T17:34:56.282Z</time></trkpt><trkpt lat="35.6831217" lon="10.5608933"><ele>49.0</ele><time>2026-04-04T17:34:57.284Z</time></trkpt><trkpt lat="35.6828783" lon="10.5608517"><ele>48.0</ele><time>2026-04-04T17:34:58.285Z</time></trkpt><trkpt lat="35.6826317" lon="10.5608133"><ele>47.0</ele><time>2026-04-04T17:34:59.285Z</time></trkpt><trkpt lat="35.6823817" lon="10.560775"><ele>47.0</ele><time>2026-04-04T17:35:00.285Z</time></trkpt><trkpt lat="35.68213" lon="10.5607383"><ele>47.0</ele><time>2026-04-04T17:35:01.284Z</time></trkpt><trkpt lat="35.6818783" lon="10.5607033"><ele>46.5</ele><time>2026-04-04T17:35:02.284Z</time></trkpt><trkpt lat="35.6816283" lon="10.5606733"><ele>46.0</ele><time>2026-04-04T17:35:03.285Z</time></trkpt><trkpt lat="35.681375" lon="10.5606467"><ele>46.0</ele><time>2026-04-04T17:35:04.284Z</time></trkpt><trkpt lat="35.68112" lon="10.5606217"><ele>46.0</ele><time>2026-04-04T17:35:05.284Z</time></trkpt><trkpt lat="35.680865" lon="10.5605983"><ele>46.5</ele><time>2026-04-04T17:35:06.285Z</time></trkpt><trkpt lat="35.6806067" lon="10.560575"><ele>47.0</ele><time>2026-04-04T17:35:07.284Z</time></trkpt><trkpt lat="35.6803467" lon="10.5605517"><ele>46.5</ele><time>2026-04-04T17:35:08.285Z</time></trkpt><trkpt lat="35.6800817" lon="10.5605333"><ele>46.0</ele><time>2026-04-04T17:35:09.284Z</time></trkpt><trkpt lat="35.6798133" lon="10.560515"><ele>46.0</ele><time>2026-04-04T17:35:10.284Z</time></trkpt><trkpt lat="35.6795433" lon="10.5605017"><ele>46.0</ele><time>2026-04-04T17:35:11.286Z</time></trkpt><trkpt lat="35.6792717" lon="10.56049"><ele>47.5</ele><time>2026-04-04T17:35:12.285Z</time></trkpt><trkpt lat="35.6789967" lon="10.5604783"><ele>49.0</ele><time>2026-04-04T17:35:13.285Z</time></trkpt><trkpt lat="35.6787167" lon="10.5604667"><ele>49.0</ele><time>2026-04-04T17:35:14.281Z</time></trkpt><trkpt lat="35.678435" lon="10.5604583"><ele>49.0</ele><time>2026-04-04T17:35:15.284Z</time></trkpt><trkpt lat="35.67815" lon="10.5604533"><ele>49.0</ele><time>2026-04-04T17:35:16.284Z</time></trkpt><trkpt lat="35.677865" lon="10.5604483"><ele>49.0</ele><time>2026-04-04T17:35:17.283Z</time></trkpt><trkpt lat="35.677575" lon="10.5604433"><ele>49.5</ele><time>2026-04-04T17:35:18.286Z</time></trkpt><trkpt lat="35.6772767" lon="10.5604383"><ele>50.0</ele><time>2026-04-04T17:35:19.285Z</time></trkpt><trkpt lat="35.6769717" lon="10.5604333"><ele>49.5</ele><time>2026-04-04T17:35:20.281Z</time></trkpt><trkpt lat="35.6766583" lon="10.5604283"><ele>49.0</ele><time>2026-04-04T17:35:21.282Z</time></trkpt><trkpt lat="35.6763367" lon="10.5604217"><ele>50.5</ele><time>2026-04-04T17:35:22.283Z</time></trkpt><trkpt lat="35.6760083" lon="10.5604167"><ele>52.0</ele><time>2026-04-04T17:35:23.283Z</time></trkpt><trkpt lat="35.675675" lon="10.5604133"><ele>52.0</ele><time>2026-04-04T17:35:24.285Z</time></trkpt><trkpt lat="35.67534" lon="10.56041"><ele>52.0</ele><time>2026-04-04T17:35:25.284Z</time></trkpt><trkpt lat="35.675" lon="10.560405"><ele>52.0</ele><time>2026-04-04T17:35:26.281Z</time></trkpt><trkpt lat="35.67466" lon="10.5603983"><ele>52.0</ele><time>2026-04-04T17:35:27.284Z</time></trkpt><trkpt lat="35.67432" lon="10.5603917"><ele>52.0</ele><time>2026-04-04T17:35:28.284Z</time></trkpt><trkpt lat="35.6739767" lon="10.5603867"><ele>52.0</ele><time>2026-04-04T17:35:29.285Z</time></trkpt><trkpt lat="35.673635" lon="10.5603817"><ele>52.5</ele><time>2026-04-04T17:35:30.285Z</time></trkpt><trkpt lat="35.6732917" lon="10.5603767"><ele>53.0</ele><time>2026-04-04T17:35:31.284Z</time></trkpt><trkpt lat="35.6729467" lon="10.5603683"><ele>52.5</ele><time>2026-04-04T17:35:32.284Z</time></trkpt><trkpt lat="35.6726" lon="10.5603617"><ele>52.0</ele><time>2026-04-04T17:35:33.282Z</time></trkpt><trkpt lat="35.6722517" lon="10.5603567"><ele>53.0</ele><time>2026-04-04T17:35:34.283Z</time></trkpt><trkpt lat="35.6719033" lon="10.5603533"><ele>54.0</ele><time>2026-04-04T17:35:35.282Z</time></trkpt><trkpt lat="35.671555" lon="10.5603483"><ele>54.0</ele><time>2026-04-04T17:35:36.282Z</time></trkpt><trkpt lat="35.67121" lon="10.5603433"><ele>54.0</ele><time>2026-04-04T17:35:37.282Z</time></trkpt><trkpt lat="35.6708783" lon="10.5603383"><ele>54.0</ele><time>2026-04-04T17:35:38.283Z</time></trkpt><trkpt lat="35.6705567" lon="10.5603333"><ele>54.0</ele><time>2026-04-04T17:35:39.282Z</time></trkpt><trkpt lat="35.6702383" lon="10.5603267"><ele>55.5</ele><time>2026-04-04T17:35:40.285Z</time></trkpt><trkpt lat="35.6699217" lon="10.56032"><ele>57.0</ele><time>2026-04-04T17:35:41.284Z</time></trkpt><trkpt lat="35.669605" lon="10.560315"><ele>56.0</ele><time>2026-04-04T17:35:42.285Z</time></trkpt><trkpt lat="35.66929" lon="10.56031"><ele>55.0</ele><time>2026-04-04T17:35:43.285Z</time></trkpt><trkpt lat="35.668975" lon="10.5603067"><ele>55.0</ele><time>2026-04-04T17:35:44.282Z</time></trkpt><trkpt lat="35.66866" lon="10.560305"><ele>55.0</ele><time>2026-04-04T17:35:45.282Z</time></trkpt><trkpt lat="35.6683433" lon="10.5603067"><ele>55.0</ele><time>2026-04-04T17:35:46.282Z</time></trkpt><trkpt lat="35.6680267" lon="10.5603133"><ele>55.0</ele><time>2026-04-04T17:35:47.283Z</time></trkpt><trkpt lat="35.6677117" lon="10.5603267"><ele>55.0</ele><time>2026-04-04T17:35:48.282Z</time></trkpt><trkpt lat="35.6673967" lon="10.560345"><ele>55.0</ele><time>2026-04-04T17:35:49.283Z</time></trkpt><trkpt lat="35.6670883" lon="10.5603667"><ele>55.5</ele><time>2026-04-04T17:35:50.285Z</time></trkpt><trkpt lat="35.66678" lon="10.5603883"><ele>56.0</ele><time>2026-04-04T17:35:51.283Z</time></trkpt><trkpt lat="35.6664717" lon="10.5604117"><ele>56.0</ele><time>2026-04-04T17:35:52.285Z</time></trkpt><trkpt lat="35.6661617" lon="10.5604417"><ele>56.0</ele><time>2026-04-04T17:35:53.282Z</time></trkpt><trkpt lat="35.6658483" lon="10.5604767"><ele>57.0</ele><time>2026-04-04T17:35:54.285Z</time></trkpt><trkpt lat="35.665535" lon="10.56052"><ele>58.0</ele><time>2026-04-04T17:35:55.283Z</time></trkpt><trkpt lat="35.665225" lon="10.5605683"><ele>59.5</ele><time>2026-04-04T17:35:56.284Z</time></trkpt><trkpt lat="35.6649133" lon="10.56062"><ele>61.0</ele><time>2026-04-04T17:35:57.286Z</time></trkpt><trkpt lat="35.6646017" lon="10.5606733"><ele>60.5</ele><time>2026-04-04T17:35:58.285Z</time></trkpt><trkpt lat="35.6642933" lon="10.5607333"><ele>60.0</ele><time>2026-04-04T17:35:59.284Z</time></trkpt><trkpt lat="35.663985" lon="10.560795"><ele>60.0</ele><time>2026-04-04T17:36:00.286Z</time></trkpt><trkpt lat="35.66368" lon="10.5608633"><ele>60.0</ele><time>2026-04-04T17:36:01.284Z</time></trkpt><trkpt lat="35.6633817" lon="10.5609333"><ele>60.0</ele><time>2026-04-04T17:36:02.284Z</time></trkpt><trkpt lat="35.663085" lon="10.5610083"><ele>60.0</ele><time>2026-04-04T17:36:03.285Z</time></trkpt><trkpt lat="35.6627867" lon="10.5610883"><ele>59.5</ele><time>2026-04-04T17:36:04.285Z</time></trkpt><trkpt lat="35.6624917" lon="10.56117"><ele>59.0</ele><time>2026-04-04T17:36:05.286Z</time></trkpt><trkpt lat="35.6621983" lon="10.5612567"><ele>60.5</ele><time>2026-04-04T17:36:06.286Z</time></trkpt><trkpt lat="35.6619033" lon="10.56135"><ele>62.0</ele><time>2026-04-04T17:36:07.286Z</time></trkpt><trkpt lat="35.6616083" lon="10.561445"><ele>62.0</ele><time>2026-04-04T17:36:08.284Z</time></trkpt><trkpt lat="35.6613117" lon="10.561545"><ele>62.0</ele><time>2026-04-04T17:36:09.284Z</time></trkpt><trkpt lat="35.661015" lon="10.5616483"><ele>62.0</ele><time>2026-04-04T17:36:10.285Z</time></trkpt><trkpt lat="35.6607133" lon="10.561755"><ele>62.0</ele><time>2026-04-04T17:36:11.284Z</time></trkpt><trkpt lat="35.6604167" lon="10.5618667"><ele>62.0</ele><time>2026-04-04T17:36:12.285Z</time></trkpt><trkpt lat="35.6601167" lon="10.5619833"><ele>62.0</ele><time>2026-04-04T17:36:13.286Z</time></trkpt><trkpt lat="35.6598183" lon="10.562105"><ele>62.5</ele><time>2026-04-04T17:36:14.282Z</time></trkpt><trkpt lat="35.6595217" lon="10.56223"><ele>63.0</ele><time>2026-04-04T17:36:15.284Z</time></trkpt><trkpt lat="35.659225" lon="10.5623617"><ele>64.0</ele><time>2026-04-04T17:36:16.283Z</time></trkpt><trkpt lat="35.65893" lon="10.5624967"><ele>65.0</ele><time>2026-04-04T17:36:17.285Z</time></trkpt><trkpt lat="35.6586367" lon="10.5626367"><ele>65.5</ele><time>2026-04-04T17:36:18.282Z</time></trkpt><trkpt lat="35.6583483" lon="10.5627783"><ele>66.0</ele><time>2026-04-04T17:36:19.283Z</time></trkpt><trkpt lat="35.6580633" lon="10.5629233"><ele>66.0</ele><time>2026-04-04T17:36:20.284Z</time></trkpt><trkpt lat="35.6577817" lon="10.56307"><ele>66.0</ele><time>2026-04-04T17:36:21.285Z</time></trkpt><trkpt lat="35.6575033" lon="10.5632217"><ele>66.0</ele><time>2026-04-04T17:36:22.281Z</time></trkpt><trkpt lat="35.6572233" lon="10.5633717"><ele>66.0</ele><time>2026-04-04T17:36:23.284Z</time></trkpt><trkpt lat="35.6569483" lon="10.56352"><ele>67.5</ele><time>2026-04-04T17:36:24.285Z</time></trkpt><trkpt lat="35.65668" lon="10.5636733"><ele>69.0</ele><time>2026-04-04T17:36:25.284Z</time></trkpt><trkpt lat="35.656415" lon="10.5638283"><ele>69.0</ele><time>2026-04-04T17:36:26.283Z</time></trkpt><trkpt lat="35.6561567" lon="10.5639883"><ele>69.0</ele><time>2026-04-04T17:36:27.285Z</time></trkpt><trkpt lat="35.6559017" lon="10.5641483"><ele>69.0</ele><time>2026-04-04T17:36:28.285Z</time></trkpt><trkpt lat="35.6556483" lon="10.5643117"><ele>69.0</ele><time>2026-04-04T17:36:29.284Z</time></trkpt><trkpt lat="35.6553983" lon="10.5644817"><ele>70.0</ele><time>2026-04-04T17:36:30.285Z</time></trkpt><trkpt lat="35.655145" lon="10.564655"><ele>71.0</ele><time>2026-04-04T17:36:31.286Z</time></trkpt><trkpt lat="35.654895" lon="10.56483"><ele>71.0</ele><time>2026-04-04T17:36:32.284Z</time></trkpt><trkpt lat="35.654645" lon="10.56501"><ele>71.0</ele><time>2026-04-04T17:36:33.284Z</time></trkpt><trkpt lat="35.6543983" lon="10.5651967"><ele>70.0</ele><time>2026-04-04T17:36:34.284Z</time></trkpt><trkpt lat="35.65415" lon="10.565385"><ele>69.0</ele><time>2026-04-04T17:36:35.285Z</time></trkpt><trkpt lat="35.6539017" lon="10.5655783"><ele>69.0</ele><time>2026-04-04T17:36:36.285Z</time></trkpt><trkpt lat="35.6536533" lon="10.5657767"><ele>69.0</ele><time>2026-04-04T17:36:37.286Z</time></trkpt><trkpt lat="35.6534067" lon="10.56598"><ele>70.0</ele><time>2026-04-04T17:36:38.284Z</time></trkpt><trkpt lat="35.6531617" lon="10.566185"><ele>71.0</ele><time>2026-04-04T17:36:39.284Z</time></trkpt><trkpt lat="35.652915" lon="10.566395"><ele>71.5</ele><time>2026-04-04T17:36:40.285Z</time></trkpt><trkpt lat="35.6526683" lon="10.5666083"><ele>72.0</ele><time>2026-04-04T17:36:41.285Z</time></trkpt><trkpt lat="35.6524217" lon="10.5668283"><ele>73.0</ele><time>2026-04-04T17:36:42.285Z</time></trkpt><trkpt lat="35.652175" lon="10.5670533"><ele>74.0</ele><time>2026-04-04T17:36:43.285Z</time></trkpt><trkpt lat="35.651935" lon="10.5672783"><ele>74.0</ele><time>2026-04-04T17:36:44.281Z</time></trkpt><trkpt lat="35.6516983" lon="10.567505"><ele>74.0</ele><time>2026-04-04T17:36:45.284Z</time></trkpt><trkpt lat="35.651465" lon="10.5677333"><ele>74.5</ele><time>2026-04-04T17:36:46.282Z</time></trkpt><trkpt lat="35.65123" lon="10.567965"><ele>75.0</ele><time>2026-04-04T17:36:47.283Z</time></trkpt><trkpt lat="35.650995" lon="10.5682017"><ele>75.5</ele><time>2026-04-04T17:36:48.284Z</time></trkpt><trkpt lat="35.6507617" lon="10.5684383"><ele>76.0</ele><time>2026-04-04T17:36:49.282Z</time></trkpt><trkpt lat="35.6505233" lon="10.5686783"><ele>77.0</ele><time>2026-04-04T17:36:50.282Z</time></trkpt><trkpt lat="35.6502833" lon="10.5689217"><ele>78.0</ele><time>2026-04-04T17:36:51.283Z</time></trkpt><trkpt lat="35.6500417" lon="10.5691633"><ele>78.0</ele><time>2026-04-04T17:36:52.283Z</time></trkpt><trkpt lat="35.6498" lon="10.5693967"><ele>78.0</ele><time>2026-04-04T17:36:53.282Z</time></trkpt><trkpt lat="35.6495583" lon="10.5696317"><ele>77.5</ele><time>2026-04-04T17:36:54.282Z</time></trkpt><trkpt lat="35.6493183" lon="10.56986"><ele>77.0</ele><time>2026-04-04T17:36:55.282Z</time></trkpt><trkpt lat="35.6490767" lon="10.5700983"><ele>77.0</ele><time>2026-04-04T17:36:56.282Z</time></trkpt><trkpt lat="35.6488383" lon="10.5703333"><ele>77.0</ele><time>2026-04-04T17:36:57.285Z</time></trkpt><trkpt lat="35.6486017" lon="10.5705733"><ele>78.0</ele><time>2026-04-04T17:36:58.284Z</time></trkpt><trkpt lat="35.6483667" lon="10.5708167"><ele>79.0</ele><time>2026-04-04T17:36:59.285Z</time></trkpt><trkpt lat="35.6481317" lon="10.57106"><ele>79.5</ele><time>2026-04-04T17:37:00.285Z</time></trkpt><trkpt lat="35.6478967" lon="10.5713"><ele>80.0</ele><time>2026-04-04T17:37:01.285Z</time></trkpt><trkpt lat="35.64766" lon="10.57154"><ele>80.0</ele><time>2026-04-04T17:37:02.284Z</time></trkpt><trkpt lat="35.6474217" lon="10.5717783"><ele>80.0</ele><time>2026-04-04T17:37:03.284Z</time></trkpt><trkpt lat="35.6471833" lon="10.5720217"><ele>79.0</ele><time>2026-04-04T17:37:04.285Z</time></trkpt><trkpt lat="35.6469433" lon="10.5722633"><ele>78.0</ele><time>2026-04-04T17:37:05.284Z</time></trkpt><trkpt lat="35.6467017" lon="10.572505"><ele>78.0</ele><time>2026-04-04T17:37:06.286Z</time></trkpt><trkpt lat="35.64646" lon="10.5727483"><ele>78.0</ele><time>2026-04-04T17:37:07.285Z</time></trkpt><trkpt lat="35.646215" lon="10.57299"><ele>80.0</ele><time>2026-04-04T17:37:08.286Z</time></trkpt><trkpt lat="35.64597" lon="10.57323"><ele>82.0</ele><time>2026-04-04T17:37:09.285Z</time></trkpt><trkpt lat="35.6457233" lon="10.5734683"><ele>82.0</ele><time>2026-04-04T17:37:10.284Z</time></trkpt><trkpt lat="35.6454783" lon="10.5737033"><ele>82.0</ele><time>2026-04-04T17:37:11.284Z</time></trkpt><trkpt lat="35.6452333" lon="10.5739383"><ele>83.5</ele><time>2026-04-04T17:37:12.285Z</time></trkpt><trkpt lat="35.6449917" lon="10.5741717"><ele>85.0</ele><time>2026-04-04T17:37:13.286Z</time></trkpt><trkpt lat="35.6447533" lon="10.574405"><ele>84.0</ele><time>2026-04-04T17:37:14.282Z</time></trkpt><trkpt lat="35.644515" lon="10.5746417"><ele>83.0</ele><time>2026-04-04T17:37:15.283Z</time></trkpt><trkpt lat="35.6442733" lon="10.574885"><ele>83.0</ele><time>2026-04-04T17:37:16.284Z</time></trkpt><trkpt lat="35.6440317" lon="10.5751233"><ele>83.0</ele><time>2026-04-04T17:37:17.284Z</time></trkpt><trkpt lat="35.64379" lon="10.5753633"><ele>85.5</ele><time>2026-04-04T17:37:18.283Z</time></trkpt><trkpt lat="35.64355" lon="10.5756017"><ele>88.0</ele><time>2026-04-04T17:37:19.284Z</time></trkpt><trkpt lat="35.64331" lon="10.57584"><ele>88.0</ele><time>2026-04-04T17:37:20.283Z</time></trkpt><trkpt lat="35.64307" lon="10.5760783"><ele>88.0</ele><time>2026-04-04T17:37:21.283Z</time></trkpt><trkpt lat="35.64283" lon="10.5763183"><ele>87.5</ele><time>2026-04-04T17:37:22.284Z</time></trkpt><trkpt lat="35.64259" lon="10.5765567"><ele>87.0</ele><time>2026-04-04T17:37:23.284Z</time></trkpt><trkpt lat="35.6423517" lon="10.5767967"><ele>86.0</ele><time>2026-04-04T17:37:24.283Z</time></trkpt><trkpt lat="35.6421133" lon="10.5770417"><ele>85.0</ele><time>2026-04-04T17:37:25.285Z</time></trkpt><trkpt lat="35.64187" lon="10.5772833"><ele>85.0</ele><time>2026-04-04T17:37:26.284Z</time></trkpt><trkpt lat="35.6416283" lon="10.5775267"><ele>85.0</ele><time>2026-04-04T17:37:27.285Z</time></trkpt><trkpt lat="35.6413883" lon="10.5777683"><ele>85.5</ele><time>2026-04-04T17:37:28.285Z</time></trkpt><trkpt lat="35.6411533" lon="10.5780117"><ele>86.0</ele><time>2026-04-04T17:37:29.285Z</time></trkpt><trkpt lat="35.640915" lon="10.5782567"><ele>86.0</ele><time>2026-04-04T17:37:30.286Z</time></trkpt><trkpt lat="35.6406783" lon="10.5785"><ele>86.0</ele><time>2026-04-04T17:37:31.285Z</time></trkpt><trkpt lat="35.6404383" lon="10.5787433"><ele>87.0</ele><time>2026-04-04T17:37:32.284Z</time></trkpt><trkpt lat="35.6402" lon="10.578985"><ele>88.0</ele><time>2026-04-04T17:37:33.285Z</time></trkpt><trkpt lat="35.6399583" lon="10.5792233"><ele>88.0</ele><time>2026-04-04T17:37:34.282Z</time></trkpt><trkpt lat="35.639715" lon="10.5794667"><ele>88.0</ele><time>2026-04-04T17:37:35.283Z</time></trkpt><trkpt lat="35.63947" lon="10.57971"><ele>88.0</ele><time>2026-04-04T17:37:36.284Z</time></trkpt><trkpt lat="35.6392267" lon="10.579955"><ele>88.0</ele><time>2026-04-04T17:37:37.285Z</time></trkpt><trkpt lat="35.6389817" lon="10.5801983"><ele>88.0</ele><time>2026-04-04T17:37:38.283Z</time></trkpt><trkpt lat="35.6387417" lon="10.5804383"><ele>88.0</ele><time>2026-04-04T17:37:39.283Z</time></trkpt><trkpt lat="35.6385033" lon="10.5806733"><ele>88.5</ele><time>2026-04-04T17:37:40.283Z</time></trkpt><trkpt lat="35.6382667" lon="10.5809067"><ele>89.0</ele><time>2026-04-04T17:37:41.283Z</time></trkpt><trkpt lat="35.6380283" lon="10.5811417"><ele>88.0</ele><time>2026-04-04T17:37:42.283Z</time></trkpt><trkpt lat="35.63779" lon="10.5813767"><ele>87.0</ele><time>2026-04-04T17:37:43.285Z</time></trkpt><trkpt lat="35.6375533" lon="10.5816117"><ele>87.0</ele><time>2026-04-04T17:37:44.283Z</time></trkpt><trkpt lat="35.6373167" lon="10.5818483"><ele>87.0</ele><time>2026-04-04T17:37:45.283Z</time></trkpt><trkpt lat="35.6370783" lon="10.582085"><ele>88.0</ele><time>2026-04-04T17:37:46.284Z</time></trkpt><trkpt lat="35.6368433" lon="10.5823217"><ele>89.0</ele><time>2026-04-04T17:37:47.283Z</time></trkpt><trkpt lat="35.6366067" lon="10.58256"><ele>89.0</ele><time>2026-04-04T17:37:48.283Z</time></trkpt><trkpt lat="35.6363683" lon="10.5827983"><ele>89.0</ele><time>2026-04-04T17:37:49.283Z</time></trkpt><trkpt lat="35.63613" lon="10.583035"><ele>88.5</ele><time>2026-04-04T17:37:50.283Z</time></trkpt><trkpt lat="35.63589" lon="10.5832717"><ele>88.0</ele><time>2026-04-04T17:37:51.283Z</time></trkpt><trkpt lat="35.63565" lon="10.5835067"><ele>89.0</ele><time>2026-04-04T17:37:52.283Z</time></trkpt><trkpt lat="35.6354133" lon="10.583745"><ele>90.0</ele><time>2026-04-04T17:37:53.284Z</time></trkpt><trkpt lat="35.6351733" lon="10.583985"><ele>90.0</ele><time>2026-04-04T17:37:54.284Z</time></trkpt><trkpt lat="35.6349333" lon="10.5842267"><ele>90.0</ele><time>2026-04-04T17:37:55.283Z</time></trkpt><trkpt lat="35.634695" lon="10.5844667"><ele>90.0</ele><time>2026-04-04T17:37:56.283Z</time></trkpt><trkpt lat="35.6344533" lon="10.5847067"><ele>90.0</ele><time>2026-04-04T17:37:57.283Z</time></trkpt><trkpt lat="35.63421" lon="10.5849467"><ele>90.0</ele><time>2026-04-04T17:37:58.284Z</time></trkpt><trkpt lat="35.6339667" lon="10.5851867"><ele>90.0</ele><time>2026-04-04T17:37:59.284Z</time></trkpt><trkpt lat="35.633725" lon="10.5854267"><ele>88.5</ele><time>2026-04-04T17:38:00.284Z</time></trkpt><trkpt lat="35.6334833" lon="10.5856683"><ele>87.0</ele><time>2026-04-04T17:38:01.285Z</time></trkpt><trkpt lat="35.6332433" lon="10.5859117"><ele>87.0</ele><time>2026-04-04T17:38:02.286Z</time></trkpt><trkpt lat="35.6329983" lon="10.58615"><ele>87.0</ele><time>2026-04-04T17:38:03.285Z</time></trkpt><trkpt lat="35.6327567" lon="10.58639"><ele>88.0</ele><time>2026-04-04T17:38:04.283Z</time></trkpt><trkpt lat="35.6325133" lon="10.58663"><ele>89.0</ele><time>2026-04-04T17:38:05.284Z</time></trkpt><trkpt lat="35.63227" lon="10.58687"><ele>88.5</ele><time>2026-04-04T17:38:06.284Z</time></trkpt><trkpt lat="35.632025" lon="10.5871117"><ele>88.0</ele><time>2026-04-04T17:38:07.283Z</time></trkpt><trkpt lat="35.63178" lon="10.587355"><ele>87.0</ele><time>2026-04-04T17:38:08.283Z</time></trkpt><trkpt lat="35.6315317" lon="10.5876017"><ele>86.0</ele><time>2026-04-04T17:38:09.283Z</time></trkpt><trkpt lat="35.631285" lon="10.5878467"><ele>86.0</ele><time>2026-04-04T17:38:10.284Z</time></trkpt><trkpt lat="35.6310367" lon="10.5880883"><ele>86.0</ele><time>2026-04-04T17:38:11.285Z</time></trkpt><trkpt lat="35.6307867" lon="10.5883283"><ele>86.0</ele><time>2026-04-04T17:38:12.284Z</time></trkpt><trkpt lat="35.6305333" lon="10.5885633"><ele>86.0</ele><time>2026-04-04T17:38:13.283Z</time></trkpt><trkpt lat="35.6302767" lon="10.5887967"><ele>86.0</ele><time>2026-04-04T17:38:14.284Z</time></trkpt><trkpt lat="35.6300183" lon="10.589025"><ele>86.0</ele><time>2026-04-04T17:38:15.284Z</time></trkpt><trkpt lat="35.6297567" lon="10.5892533"><ele>86.0</ele><time>2026-04-04T17:38:16.284Z</time></trkpt><trkpt lat="35.6294917" lon="10.5894783"><ele>86.0</ele><time>2026-04-04T17:38:17.284Z</time></trkpt><trkpt lat="35.6292217" lon="10.5897017"><ele>86.5</ele><time>2026-04-04T17:38:18.286Z</time></trkpt><trkpt lat="35.6289483" lon="10.58992"><ele>87.0</ele><time>2026-04-04T17:38:19.283Z</time></trkpt><trkpt lat="35.62867" lon="10.5901367"><ele>87.0</ele><time>2026-04-04T17:38:20.283Z</time></trkpt><trkpt lat="35.62839" lon="10.5903467"><ele>87.0</ele><time>2026-04-04T17:38:21.283Z</time></trkpt><trkpt lat="35.6281067" lon="10.5905533"><ele>87.0</ele><time>2026-04-04T17:38:22.284Z</time></trkpt><trkpt lat="35.62782" lon="10.590755"><ele>87.0</ele><time>2026-04-04T17:38:23.286Z</time></trkpt><trkpt lat="35.6275333" lon="10.59095"><ele>86.5</ele><time>2026-04-04T17:38:24.283Z</time></trkpt><trkpt lat="35.627245" lon="10.5911433"><ele>86.0</ele><time>2026-04-04T17:38:25.285Z</time></trkpt><trkpt lat="35.62696" lon="10.5913317"><ele>86.0</ele><time>2026-04-04T17:38:26.283Z</time></trkpt><trkpt lat="35.626675" lon="10.5915117"><ele>86.0</ele><time>2026-04-04T17:38:27.285Z</time></trkpt><trkpt lat="35.6263933" lon="10.591685"><ele>85.5</ele><time>2026-04-04T17:38:28.286Z</time></trkpt><trkpt lat="35.6261117" lon="10.591855"><ele>85.0</ele><time>2026-04-04T17:38:29.286Z</time></trkpt><trkpt lat="35.6258283" lon="10.5920217"><ele>86.0</ele><time>2026-04-04T17:38:30.287Z</time></trkpt><trkpt lat="35.6255417" lon="10.5921833"><ele>87.0</ele><time>2026-04-04T17:38:31.287Z</time></trkpt><trkpt lat="35.6252517" lon="10.5923383"><ele>87.0</ele><time>2026-04-04T17:38:32.285Z</time></trkpt><trkpt lat="35.62496" lon="10.5924883"><ele>87.0</ele><time>2026-04-04T17:38:33.285Z</time></trkpt><trkpt lat="35.624665" lon="10.5926367"><ele>87.5</ele><time>2026-04-04T17:38:34.282Z</time></trkpt><trkpt lat="35.6243683" lon="10.5927817"><ele>88.0</ele><time>2026-04-04T17:38:35.283Z</time></trkpt><trkpt lat="35.62407" lon="10.5929233"><ele>88.0</ele><time>2026-04-04T17:38:36.282Z</time></trkpt><trkpt lat="35.62377" lon="10.5930617"><ele>88.0</ele><time>2026-04-04T17:38:37.283Z</time></trkpt><trkpt lat="35.62347" lon="10.5931967"><ele>88.0</ele><time>2026-04-04T17:38:38.282Z</time></trkpt><trkpt lat="35.623175" lon="10.5933267"><ele>88.0</ele><time>2026-04-04T17:38:39.282Z</time></trkpt><trkpt lat="35.6228883" lon="10.59345"><ele>87.5</ele><time>2026-04-04T17:38:40.283Z</time></trkpt><trkpt lat="35.6226083" lon="10.59357"><ele>87.0</ele><time>2026-04-04T17:38:41.282Z</time></trkpt><trkpt lat="35.6223283" lon="10.5936833"><ele>87.0</ele><time>2026-04-04T17:38:42.282Z</time></trkpt><trkpt lat="35.6220517" lon="10.5937933"><ele>87.0</ele><time>2026-04-04T17:38:43.283Z</time></trkpt><trkpt lat="35.6217767" lon="10.5938967"><ele>87.5</ele><time>2026-04-04T17:38:44.282Z</time></trkpt><trkpt lat="35.6215017" lon="10.593995"><ele>88.0</ele><time>2026-04-04T17:38:45.282Z</time></trkpt><trkpt lat="35.6212283" lon="10.59409"><ele>88.5</ele><time>2026-04-04T17:38:46.282Z</time></trkpt><trkpt lat="35.620955" lon="10.59418"><ele>89.0</ele><time>2026-04-04T17:38:47.282Z</time></trkpt><trkpt lat="35.62068" lon="10.5942667"><ele>89.0</ele><time>2026-04-04T17:38:48.282Z</time></trkpt><trkpt lat="35.6204017" lon="10.5943517"><ele>89.0</ele><time>2026-04-04T17:38:49.283Z</time></trkpt><trkpt lat="35.6201183" lon="10.594435"><ele>89.0</ele><time>2026-04-04T17:38:50.282Z</time></trkpt><trkpt lat="35.61983" lon="10.5945167"><ele>89.0</ele><time>2026-04-04T17:38:51.282Z</time></trkpt><trkpt lat="35.6195417" lon="10.5945983"><ele>89.5</ele><time>2026-04-04T17:38:52.283Z</time></trkpt><trkpt lat="35.61925" lon="10.5946783"><ele>90.0</ele><time>2026-04-04T17:38:53.282Z</time></trkpt><trkpt lat="35.6189567" lon="10.5947633"><ele>90.0</ele><time>2026-04-04T17:38:54.285Z</time></trkpt><trkpt lat="35.6186617" lon="10.59485"><ele>90.0</ele><time>2026-04-04T17:38:55.285Z</time></trkpt><trkpt lat="35.6183633" lon="10.594935"><ele>89.0</ele><time>2026-04-04T17:38:56.286Z</time></trkpt><trkpt lat="35.6180683" lon="10.5950167"><ele>88.0</ele><time>2026-04-04T17:38:57.285Z</time></trkpt><trkpt lat="35.61777" lon="10.5950983"><ele>88.0</ele><time>2026-04-04T17:38:58.285Z</time></trkpt><trkpt lat="35.6174717" lon="10.5951817"><ele>88.0</ele><time>2026-04-04T17:38:59.285Z</time></trkpt><trkpt lat="35.6171733" lon="10.59527"><ele>88.0</ele><time>2026-04-04T17:39:00.286Z</time></trkpt><trkpt lat="35.616875" lon="10.595355"><ele>88.0</ele><time>2026-04-04T17:39:01.286Z</time></trkpt><trkpt lat="35.6165733" lon="10.5954417"><ele>88.0</ele><time>2026-04-04T17:39:02.285Z</time></trkpt><trkpt lat="35.6162733" lon="10.59553"><ele>88.0</ele><time>2026-04-04T17:39:03.282Z</time></trkpt><trkpt lat="35.6159717" lon="10.59562"><ele>89.5</ele><time>2026-04-04T17:39:04.283Z</time></trkpt><trkpt lat="35.6156667" lon="10.59571"><ele>91.0</ele><time>2026-04-04T17:39:05.283Z</time></trkpt><trkpt lat="35.6153617" lon="10.5958033"><ele>89.0</ele><time>2026-04-04T17:39:06.283Z</time></trkpt><trkpt lat="35.6150567" lon="10.595895"><ele>87.0</ele><time>2026-04-04T17:39:07.281Z</time></trkpt><trkpt lat="35.61475" lon="10.5959833"><ele>88.0</ele><time>2026-04-04T17:39:08.282Z</time></trkpt><trkpt lat="35.614445" lon="10.5960683"><ele>89.0</ele><time>2026-04-04T17:39:09.283Z</time></trkpt><trkpt lat="35.6141367" lon="10.5961567"><ele>88.0</ele><time>2026-04-04T17:39:10.282Z</time></trkpt><trkpt lat="35.6138317" lon="10.5962467"><ele>87.0</ele><time>2026-04-04T17:39:11.282Z</time></trkpt><trkpt lat="35.6135217" lon="10.5963383"><ele>86.5</ele><time>2026-04-04T17:39:12.282Z</time></trkpt><trkpt lat="35.6132117" lon="10.59643"><ele>86.0</ele><time>2026-04-04T17:39:13.282Z</time></trkpt><trkpt lat="35.6129" lon="10.5965233"><ele>87.5</ele><time>2026-04-04T17:39:14.281Z</time></trkpt><trkpt lat="35.6125883" lon="10.596615"><ele>89.0</ele><time>2026-04-04T17:39:15.284Z</time></trkpt><trkpt lat="35.6122783" lon="10.5967067"><ele>89.0</ele><time>2026-04-04T17:39:16.284Z</time></trkpt><trkpt lat="35.6119683" lon="10.5967967"><ele>89.0</ele><time>2026-04-04T17:39:17.285Z</time></trkpt><trkpt lat="35.6116583" lon="10.596885"><ele>89.0</ele><time>2026-04-04T17:39:18.284Z</time></trkpt><trkpt lat="35.6113517" lon="10.5969733"><ele>89.0</ele><time>2026-04-04T17:39:19.284Z</time></trkpt><trkpt lat="35.611045" lon="10.5970617"><ele>89.0</ele><time>2026-04-04T17:39:20.286Z</time></trkpt><trkpt lat="35.6107383" lon="10.59715"><ele>89.0</ele><time>2026-04-04T17:39:21.285Z</time></trkpt><trkpt lat="35.61043" lon="10.5972417"><ele>88.5</ele><time>2026-04-04T17:39:22.285Z</time></trkpt><trkpt lat="35.6101217" lon="10.5973317"><ele>88.0</ele><time>2026-04-04T17:39:23.284Z</time></trkpt><trkpt lat="35.609815" lon="10.597425"><ele>88.0</ele><time>2026-04-04T17:39:24.284Z</time></trkpt><trkpt lat="35.6095067" lon="10.597515"><ele>88.0</ele><time>2026-04-04T17:39:25.284Z</time></trkpt><trkpt lat="35.6091983" lon="10.597605"><ele>85.5</ele><time>2026-04-04T17:39:26.286Z</time></trkpt><trkpt lat="35.608895" lon="10.597695"><ele>83.0</ele><time>2026-04-04T17:39:27.284Z</time></trkpt><trkpt lat="35.6085933" lon="10.597785"><ele>82.0</ele><time>2026-04-04T17:39:28.284Z</time></trkpt><trkpt lat="35.608295" lon="10.59787"><ele>81.0</ele><time>2026-04-04T17:39:29.284Z</time></trkpt><trkpt lat="35.6079967" lon="10.597955"><ele>82.0</ele><time>2026-04-04T17:39:30.285Z</time></trkpt><trkpt lat="35.6076983" lon="10.59804"><ele>83.0</ele><time>2026-04-04T17:39:31.284Z</time></trkpt><trkpt lat="35.6073967" lon="10.59813"><ele>83.0</ele><time>2026-04-04T17:39:32.284Z</time></trkpt><trkpt lat="35.6070983" lon="10.59822"><ele>83.0</ele><time>2026-04-04T17:39:33.282Z</time></trkpt><trkpt lat="35.6068" lon="10.5983117"><ele>82.0</ele><time>2026-04-04T17:39:34.282Z</time></trkpt><trkpt lat="35.606505" lon="10.5984017"><ele>81.0</ele><time>2026-04-04T17:39:35.283Z</time></trkpt><trkpt lat="35.60621" lon="10.5984933"><ele>81.0</ele><time>2026-04-04T17:39:36.282Z</time></trkpt><trkpt lat="35.6059133" lon="10.598585"><ele>81.0</ele><time>2026-04-04T17:39:37.284Z</time></trkpt><trkpt lat="35.6056117" lon="10.59868"><ele>78.5</ele><time>2026-04-04T17:39:38.282Z</time></trkpt><trkpt lat="35.6053083" lon="10.5987783"><ele>76.0</ele><time>2026-04-04T17:39:39.282Z</time></trkpt><trkpt lat="35.6050017" lon="10.5988817"><ele>76.0</ele><time>2026-04-04T17:39:40.284Z</time></trkpt><trkpt lat="35.6046983" lon="10.5989883"><ele>76.0</ele><time>2026-04-04T17:39:41.284Z</time></trkpt><trkpt lat="35.60439" lon="10.599095"><ele>76.5</ele><time>2026-04-04T17:39:42.282Z</time></trkpt><trkpt lat="35.604085" lon="10.5992017"><ele>77.0</ele><time>2026-04-04T17:39:43.285Z</time></trkpt><trkpt lat="35.6037783" lon="10.5993167"><ele>75.5</ele><time>2026-04-04T17:39:44.286Z</time></trkpt><trkpt lat="35.60347" lon="10.5994283"><ele>74.0</ele><time>2026-04-04T17:39:45.284Z</time></trkpt><trkpt lat="35.6031567" lon="10.5995417"><ele>73.5</ele><time>2026-04-04T17:39:46.284Z</time></trkpt><trkpt lat="35.6028467" lon="10.599655"><ele>73.0</ele><time>2026-04-04T17:39:47.285Z</time></trkpt><trkpt lat="35.6025383" lon="10.59977"><ele>72.0</ele><time>2026-04-04T17:39:48.284Z</time></trkpt><trkpt lat="35.60223" lon="10.5998883"><ele>71.0</ele><time>2026-04-04T17:39:49.284Z</time></trkpt><trkpt lat="35.6019183" lon="10.6000067"><ele>70.0</ele><time>2026-04-04T17:39:50.284Z</time></trkpt><trkpt lat="35.6016067" lon="10.6001267"><ele>69.0</ele><time>2026-04-04T17:39:51.284Z</time></trkpt><trkpt lat="35.6012967" lon="10.6002517"><ele>67.5</ele><time>2026-04-04T17:39:52.284Z</time></trkpt><trkpt lat="35.6009867" lon="10.600375"><ele>66.0</ele><time>2026-04-04T17:39:53.285Z</time></trkpt><trkpt lat="35.6006783" lon="10.6005"><ele>66.0</ele><time>2026-04-04T17:39:54.284Z</time></trkpt><trkpt lat="35.60037" lon="10.6006283"><ele>66.0</ele><time>2026-04-04T17:39:55.284Z</time></trkpt><trkpt lat="35.6000617" lon="10.60076"><ele>65.0</ele><time>2026-04-04T17:39:56.284Z</time></trkpt><trkpt lat="35.5997517" lon="10.6008883"><ele>64.0</ele><time>2026-04-04T17:39:57.285Z</time></trkpt><trkpt lat="35.5994417" lon="10.6010183"><ele>63.0</ele><time>2026-04-04T17:39:58.285Z</time></trkpt><trkpt lat="35.5991333" lon="10.6011483"><ele>62.0</ele><time>2026-04-04T17:39:59.285Z</time></trkpt><trkpt lat="35.598825" lon="10.6012783"><ele>61.5</ele><time>2026-04-04T17:40:00.285Z</time></trkpt><trkpt lat="35.59852" lon="10.6014117"><ele>61.0</ele><time>2026-04-04T17:40:01.282Z</time></trkpt><trkpt lat="35.59822" lon="10.6015433"><ele>61.0</ele><time>2026-04-04T17:40:02.284Z</time></trkpt><trkpt lat="35.5979233" lon="10.6016733"><ele>61.0</ele><time>2026-04-04T17:40:03.282Z</time></trkpt><trkpt lat="35.5976283" lon="10.6018067"><ele>61.0</ele><time>2026-04-04T17:40:04.284Z</time></trkpt><trkpt lat="35.597335" lon="10.6019367"><ele>61.0</ele><time>2026-04-04T17:40:05.282Z</time></trkpt><trkpt lat="35.59704" lon="10.6020633"><ele>59.5</ele><time>2026-04-04T17:40:06.282Z</time></trkpt><trkpt lat="35.59675" lon="10.60219"><ele>58.0</ele><time>2026-04-04T17:40:07.281Z</time></trkpt><trkpt lat="35.5964583" lon="10.6023133"><ele>58.0</ele><time>2026-04-04T17:40:08.281Z</time></trkpt><trkpt lat="35.5961717" lon="10.6024367"><ele>58.0</ele><time>2026-04-04T17:40:09.281Z</time></trkpt><trkpt lat="35.5958833" lon="10.6025583"><ele>59.0</ele><time>2026-04-04T17:40:10.285Z</time></trkpt><trkpt lat="35.5955983" lon="10.60268"><ele>60.0</ele><time>2026-04-04T17:40:11.285Z</time></trkpt><trkpt lat="35.595315" lon="10.6028033"><ele>59.0</ele><time>2026-04-04T17:40:12.284Z</time></trkpt><trkpt lat="35.5950333" lon="10.6029267"><ele>58.0</ele><time>2026-04-04T17:40:13.284Z</time></trkpt><trkpt lat="35.5947517" lon="10.60305"><ele>58.5</ele><time>2026-04-04T17:40:14.284Z</time></trkpt><trkpt lat="35.59447" lon="10.603175"><ele>59.0</ele><time>2026-04-04T17:40:15.284Z</time></trkpt><trkpt lat="35.5941883" lon="10.6032967"><ele>59.0</ele><time>2026-04-04T17:40:16.285Z</time></trkpt><trkpt lat="35.5939033" lon="10.6034217"><ele>59.0</ele><time>2026-04-04T17:40:17.284Z</time></trkpt><trkpt lat="35.5936217" lon="10.603545"><ele>58.5</ele><time>2026-04-04T17:40:18.285Z</time></trkpt><trkpt lat="35.5933383" lon="10.6036667"><ele>58.0</ele><time>2026-04-04T17:40:19.284Z</time></trkpt><trkpt lat="35.5930567" lon="10.6037867"><ele>57.0</ele><time>2026-04-04T17:40:20.284Z</time></trkpt><trkpt lat="35.5927717" lon="10.6039117"><ele>56.0</ele><time>2026-04-04T17:40:21.284Z</time></trkpt><trkpt lat="35.5924883" lon="10.6040367"><ele>56.0</ele><time>2026-04-04T17:40:22.285Z</time></trkpt><trkpt lat="35.5922033" lon="10.60416"><ele>56.0</ele><time>2026-04-04T17:40:23.285Z</time></trkpt><trkpt lat="35.5919183" lon="10.6042817"><ele>56.0</ele><time>2026-04-04T17:40:24.285Z</time></trkpt><trkpt lat="35.5916367" lon="10.6044033"><ele>56.0</ele><time>2026-04-04T17:40:25.285Z</time></trkpt><trkpt lat="35.5913567" lon="10.6045233"><ele>55.5</ele><time>2026-04-04T17:40:26.285Z</time></trkpt><trkpt lat="35.5910817" lon="10.6046433"><ele>55.0</ele><time>2026-04-04T17:40:27.285Z</time></trkpt><trkpt lat="35.59081" lon="10.6047617"><ele>55.0</ele><time>2026-04-04T17:40:28.284Z</time></trkpt><trkpt lat="35.5905417" lon="10.6048783"><ele>55.0</ele><time>2026-04-04T17:40:29.285Z</time></trkpt><trkpt lat="35.590275" lon="10.6049967"><ele>54.5</ele><time>2026-04-04T17:40:30.284Z</time></trkpt><trkpt lat="35.5900067" lon="10.6051133"><ele>54.0</ele><time>2026-04-04T17:40:31.284Z</time></trkpt><trkpt lat="35.5897367" lon="10.6052317"><ele>53.5</ele><time>2026-04-04T17:40:32.284Z</time></trkpt><trkpt lat="35.5894633" lon="10.605345"><ele>53.0</ele><time>2026-04-04T17:40:33.284Z</time></trkpt><trkpt lat="35.58919" lon="10.605455"><ele>53.0</ele><time>2026-04-04T17:40:34.284Z</time></trkpt><trkpt lat="35.5889133" lon="10.6055617"><ele>53.0</ele><time>2026-04-04T17:40:35.285Z</time></trkpt><trkpt lat="35.5886367" lon="10.6056683"><ele>53.5</ele><time>2026-04-04T17:40:36.284Z</time></trkpt><trkpt lat="35.5883583" lon="10.60577"><ele>54.0</ele><time>2026-04-04T17:40:37.284Z</time></trkpt><trkpt lat="35.58808" lon="10.60587"><ele>52.0</ele><time>2026-04-04T17:40:38.284Z</time></trkpt><trkpt lat="35.5878" lon="10.60597"><ele>50.0</ele><time>2026-04-04T17:40:39.284Z</time></trkpt><trkpt lat="35.5875217" lon="10.6060733"><ele>50.0</ele><time>2026-04-04T17:40:40.284Z</time></trkpt><trkpt lat="35.5872483" lon="10.606175"><ele>50.0</ele><time>2026-04-04T17:40:41.284Z</time></trkpt><trkpt lat="35.5869783" lon="10.606275"><ele>51.0</ele><time>2026-04-04T17:40:42.284Z</time></trkpt><trkpt lat="35.5867083" lon="10.6063733"><ele>52.0</ele><time>2026-04-04T17:40:43.284Z</time></trkpt><trkpt lat="35.5864333" lon="10.6064717"><ele>51.0</ele><time>2026-04-04T17:40:44.284Z</time></trkpt><trkpt lat="35.58617" lon="10.6065667"><ele>50.0</ele><time>2026-04-04T17:40:45.284Z</time></trkpt><trkpt lat="35.5859133" lon="10.6066583"><ele>50.0</ele><time>2026-04-04T17:40:46.285Z</time></trkpt><trkpt lat="35.5856633" lon="10.6067483"><ele>50.0</ele><time>2026-04-04T17:40:47.285Z</time></trkpt><trkpt lat="35.585415" lon="10.6068383"><ele>50.0</ele><time>2026-04-04T17:40:48.284Z</time></trkpt><trkpt lat="35.5851683" lon="10.6069283"><ele>50.0</ele><time>2026-04-04T17:40:49.284Z</time></trkpt><trkpt lat="35.584925" lon="10.6070183"><ele>49.5</ele><time>2026-04-04T17:40:50.284Z</time></trkpt><trkpt lat="35.5846767" lon="10.60711"><ele>49.0</ele><time>2026-04-04T17:40:51.284Z</time></trkpt><trkpt lat="35.5844267" lon="10.6072"><ele>48.5</ele><time>2026-04-04T17:40:52.284Z</time></trkpt><trkpt lat="35.584175" lon="10.6072917"><ele>48.0</ele><time>2026-04-04T17:40:53.285Z</time></trkpt><trkpt lat="35.5839183" lon="10.6073817"><ele>48.0</ele><time>2026-04-04T17:40:54.284Z</time></trkpt><trkpt lat="35.5836583" lon="10.6074717"><ele>48.0</ele><time>2026-04-04T17:40:55.284Z</time></trkpt><trkpt lat="35.583395" lon="10.6075667"><ele>48.0</ele><time>2026-04-04T17:40:56.284Z</time></trkpt><trkpt lat="35.5831317" lon="10.60766"><ele>48.0</ele><time>2026-04-04T17:40:57.284Z</time></trkpt><trkpt lat="35.5828633" lon="10.6077483"><ele>47.5</ele><time>2026-04-04T17:40:58.284Z</time></trkpt><trkpt lat="35.5825917" lon="10.6078417"><ele>47.0</ele><time>2026-04-04T17:40:59.285Z</time></trkpt><trkpt lat="35.582315" lon="10.60794"><ele>47.0</ele><time>2026-04-04T17:41:00.285Z</time></trkpt><trkpt lat="35.582035" lon="10.60804"><ele>47.0</ele><time>2026-04-04T17:41:01.284Z</time></trkpt><trkpt lat="35.5817517" lon="10.608145"><ele>47.0</ele><time>2026-04-04T17:41:02.284Z</time></trkpt><trkpt lat="35.5814633" lon="10.6082483"><ele>47.0</ele><time>2026-04-04T17:41:03.284Z</time></trkpt><trkpt lat="35.58117" lon="10.608355"><ele>47.5</ele><time>2026-04-04T17:41:04.284Z</time></trkpt><trkpt lat="35.5808767" lon="10.6084633"><ele>48.0</ele><time>2026-04-04T17:41:05.285Z</time></trkpt><trkpt lat="35.5805767" lon="10.6085733"><ele>48.0</ele><time>2026-04-04T17:41:06.285Z</time></trkpt><trkpt lat="35.5802767" lon="10.6086883"><ele>48.0</ele><time>2026-04-04T17:41:07.285Z</time></trkpt><trkpt lat="35.579975" lon="10.608805"><ele>48.0</ele><time>2026-04-04T17:41:08.284Z</time></trkpt><trkpt lat="35.579675" lon="10.6089167"><ele>48.0</ele><time>2026-04-04T17:41:09.285Z</time></trkpt><trkpt lat="35.579375" lon="10.6090317"><ele>48.5</ele><time>2026-04-04T17:41:10.284Z</time></trkpt><trkpt lat="35.5790783" lon="10.6091433"><ele>49.0</ele><time>2026-04-04T17:41:11.284Z</time></trkpt><trkpt lat="35.5787783" lon="10.6092517"><ele>47.5</ele><time>2026-04-04T17:41:12.284Z</time></trkpt><trkpt lat="35.5784767" lon="10.60936"><ele>46.0</ele><time>2026-04-04T17:41:13.286Z</time></trkpt><trkpt lat="35.5781733" lon="10.6094717"><ele>46.5</ele><time>2026-04-04T17:41:14.284Z</time></trkpt><trkpt lat="35.5778717" lon="10.609585"><ele>47.0</ele><time>2026-04-04T17:41:15.286Z</time></trkpt><trkpt lat="35.5775717" lon="10.6097017"><ele>47.5</ele><time>2026-04-04T17:41:16.286Z</time></trkpt><trkpt lat="35.577275" lon="10.609815"><ele>48.0</ele><time>2026-04-04T17:41:17.284Z</time></trkpt><trkpt lat="35.576975" lon="10.60993"><ele>48.0</ele><time>2026-04-04T17:41:18.285Z</time></trkpt><trkpt lat="35.576675" lon="10.6100433"><ele>48.0</ele><time>2026-04-04T17:41:19.285Z</time></trkpt><trkpt lat="35.5763783" lon="10.6101567"><ele>47.5</ele><time>2026-04-04T17:41:20.284Z</time></trkpt><trkpt lat="35.57608" lon="10.6102683"><ele>47.0</ele><time>2026-04-04T17:41:21.284Z</time></trkpt><trkpt lat="35.57578" lon="10.61038"><ele>47.0</ele><time>2026-04-04T17:41:22.285Z</time></trkpt><trkpt lat="35.57548" lon="10.6104933"><ele>47.0</ele><time>2026-04-04T17:41:23.285Z</time></trkpt><trkpt lat="35.57518" lon="10.610605"><ele>46.0</ele><time>2026-04-04T17:41:24.285Z</time></trkpt><trkpt lat="35.5748783" lon="10.6107183"><ele>45.0</ele><time>2026-04-04T17:41:25.284Z</time></trkpt><trkpt lat="35.5745767" lon="10.6108317"><ele>46.0</ele><time>2026-04-04T17:41:26.284Z</time></trkpt><trkpt lat="35.574275" lon="10.6109483"><ele>47.0</ele><time>2026-04-04T17:41:27.284Z</time></trkpt><trkpt lat="35.5739767" lon="10.6110633"><ele>46.5</ele><time>2026-04-04T17:41:28.286Z</time></trkpt><trkpt lat="35.5736767" lon="10.6111783"><ele>46.0</ele><time>2026-04-04T17:41:29.284Z</time></trkpt><trkpt lat="35.5733767" lon="10.6112917"><ele>46.0</ele><time>2026-04-04T17:41:30.285Z</time></trkpt><trkpt lat="35.57308" lon="10.6114067"><ele>46.0</ele><time>2026-04-04T17:41:31.284Z</time></trkpt><trkpt lat="35.57278" lon="10.6115217"><ele>47.0</ele><time>2026-04-04T17:41:32.285Z</time></trkpt><trkpt lat="35.57248" lon="10.6116383"><ele>48.0</ele><time>2026-04-04T17:41:33.285Z</time></trkpt><trkpt lat="35.5721833" lon="10.6117567"><ele>48.0</ele><time>2026-04-04T17:41:34.285Z</time></trkpt><trkpt lat="35.5718867" lon="10.611875"><ele>48.0</ele><time>2026-04-04T17:41:35.285Z</time></trkpt><trkpt lat="35.57159" lon="10.6119917"><ele>48.0</ele><time>2026-04-04T17:41:36.286Z</time></trkpt><trkpt lat="35.5712933" lon="10.61211"><ele>48.0</ele><time>2026-04-04T17:41:37.284Z</time></trkpt><trkpt lat="35.5709967" lon="10.6122233"><ele>48.0</ele><time>2026-04-04T17:41:38.285Z</time></trkpt><trkpt lat="35.5707033" lon="10.612335"><ele>48.0</ele><time>2026-04-04T17:41:39.285Z</time></trkpt><trkpt lat="35.5704117" lon="10.6124467"><ele>47.5</ele><time>2026-04-04T17:41:40.285Z</time></trkpt><trkpt lat="35.57013" lon="10.612555"><ele>47.0</ele><time>2026-04-04T17:41:41.285Z</time></trkpt><trkpt lat="35.5698517" lon="10.6126617"><ele>47.0</ele><time>2026-04-04T17:41:42.285Z</time></trkpt><trkpt lat="35.5695717" lon="10.6127633"><ele>47.0</ele><time>2026-04-04T17:41:43.284Z</time></trkpt><trkpt lat="35.5692883" lon="10.6128633"><ele>47.5</ele><time>2026-04-04T17:41:44.284Z</time></trkpt><trkpt lat="35.5690067" lon="10.6129667"><ele>48.0</ele><time>2026-04-04T17:41:45.284Z</time></trkpt><trkpt lat="35.56872" lon="10.61307"><ele>48.0</ele><time>2026-04-04T17:41:46.285Z</time></trkpt><trkpt lat="35.568435" lon="10.6131783"><ele>48.0</ele><time>2026-04-04T17:41:47.284Z</time></trkpt><trkpt lat="35.5681483" lon="10.613285"><ele>48.0</ele><time>2026-04-04T17:41:48.285Z</time></trkpt><trkpt lat="35.5678617" lon="10.6133933"><ele>48.0</ele><time>2026-04-04T17:41:49.285Z</time></trkpt><trkpt lat="35.5675717" lon="10.6135"><ele>48.5</ele><time>2026-04-04T17:41:50.284Z</time></trkpt><trkpt lat="35.5672833" lon="10.61361"><ele>49.0</ele><time>2026-04-04T17:41:51.284Z</time></trkpt><trkpt lat="35.5669933" lon="10.6137217"><ele>49.0</ele><time>2026-04-04T17:41:52.284Z</time></trkpt><trkpt lat="35.5666983" lon="10.6138333"><ele>49.0</ele><time>2026-04-04T17:41:53.284Z</time></trkpt><trkpt lat="35.5664017" lon="10.613945"><ele>50.5</ele><time>2026-04-04T17:41:54.286Z</time></trkpt><trkpt lat="35.5661017" lon="10.61406"><ele>52.0</ele><time>2026-04-04T17:41:55.284Z</time></trkpt><trkpt lat="35.5658017" lon="10.6141767"><ele>52.0</ele><time>2026-04-04T17:41:56.284Z</time></trkpt><trkpt lat="35.5655083" lon="10.6142883"><ele>52.0</ele><time>2026-04-04T17:41:57.284Z</time></trkpt><trkpt lat="35.5652183" lon="10.6143983"><ele>52.0</ele><time>2026-04-04T17:41:58.284Z</time></trkpt><trkpt lat="35.5649283" lon="10.614505"><ele>52.0</ele><time>2026-04-04T17:41:59.286Z</time></trkpt><trkpt lat="35.5646367" lon="10.6146133"><ele>52.5</ele><time>2026-04-04T17:42:00.285Z</time></trkpt><trkpt lat="35.5643483" lon="10.6147233"><ele>53.0</ele><time>2026-04-04T17:42:01.285Z</time></trkpt><trkpt lat="35.56406" lon="10.614835"><ele>53.0</ele><time>2026-04-04T17:42:02.284Z</time></trkpt><trkpt lat="35.5637717" lon="10.6149467"><ele>53.0</ele><time>2026-04-04T17:42:03.284Z</time></trkpt><trkpt lat="35.56348" lon="10.61506"><ele>52.0</ele><time>2026-04-04T17:42:04.284Z</time></trkpt><trkpt lat="35.5631883" lon="10.6151733"><ele>51.0</ele><time>2026-04-04T17:42:05.285Z</time></trkpt><trkpt lat="35.5628967" lon="10.6152883"><ele>53.5</ele><time>2026-04-04T17:42:06.284Z</time></trkpt><trkpt lat="35.562605" lon="10.6154033"><ele>56.0</ele><time>2026-04-04T17:42:07.285Z</time></trkpt><trkpt lat="35.562315" lon="10.61552"><ele>56.0</ele><time>2026-04-04T17:42:08.284Z</time></trkpt><trkpt lat="35.5620267" lon="10.61564"><ele>56.0</ele><time>2026-04-04T17:42:09.284Z</time></trkpt><trkpt lat="35.56174" lon="10.6157583"><ele>56.0</ele><time>2026-04-04T17:42:10.284Z</time></trkpt><trkpt lat="35.5614533" lon="10.615875"><ele>56.0</ele><time>2026-04-04T17:42:11.284Z</time></trkpt><trkpt lat="35.561165" lon="10.6159883"><ele>56.5</ele><time>2026-04-04T17:42:12.285Z</time></trkpt><trkpt lat="35.560875" lon="10.6160967"><ele>57.0</ele><time>2026-04-04T17:42:13.286Z</time></trkpt><trkpt lat="35.5605817" lon="10.6162033"><ele>58.0</ele><time>2026-04-04T17:42:14.284Z</time></trkpt><trkpt lat="35.5602883" lon="10.6163067"><ele>59.0</ele><time>2026-04-04T17:42:15.284Z</time></trkpt><trkpt lat="35.5599917" lon="10.6164133"><ele>59.0</ele><time>2026-04-04T17:42:16.284Z</time></trkpt><trkpt lat="35.5596967" lon="10.6165233"><ele>59.0</ele><time>2026-04-04T17:42:17.286Z</time></trkpt><trkpt lat="35.5593983" lon="10.6166333"><ele>60.0</ele><time>2026-04-04T17:42:18.285Z</time></trkpt><trkpt lat="35.5590983" lon="10.6167433"><ele>61.0</ele><time>2026-04-04T17:42:19.285Z</time></trkpt><trkpt lat="35.5587983" lon="10.6168517"><ele>61.5</ele><time>2026-04-04T17:42:20.284Z</time></trkpt><trkpt lat="35.5584967" lon="10.61696"><ele>62.0</ele><time>2026-04-04T17:42:21.284Z</time></trkpt><trkpt lat="35.5581967" lon="10.6170683"><ele>62.0</ele><time>2026-04-04T17:42:22.284Z</time></trkpt><trkpt lat="35.5578983" lon="10.61718"><ele>62.0</ele><time>2026-04-04T17:42:23.284Z</time></trkpt><trkpt lat="35.5576017" lon="10.6172817"><ele>62.5</ele><time>2026-04-04T17:42:24.282Z</time></trkpt><trkpt lat="35.55731" lon="10.6173833"><ele>63.0</ele><time>2026-04-04T17:42:25.284Z</time></trkpt><trkpt lat="35.5570167" lon="10.6174833"><ele>63.5</ele><time>2026-04-04T17:42:26.285Z</time></trkpt><trkpt lat="35.5567283" lon="10.6175833"><ele>64.0</ele><time>2026-04-04T17:42:27.285Z</time></trkpt><trkpt lat="35.556435" lon="10.6176833"><ele>65.5</ele><time>2026-04-04T17:42:28.285Z</time></trkpt><trkpt lat="35.556145" lon="10.6177817"><ele>67.0</ele><time>2026-04-04T17:42:29.284Z</time></trkpt><trkpt lat="35.5558533" lon="10.6178833"><ele>68.0</ele><time>2026-04-04T17:42:30.285Z</time></trkpt><trkpt lat="35.5555617" lon="10.617985"><ele>69.0</ele><time>2026-04-04T17:42:31.285Z</time></trkpt><trkpt lat="35.5552683" lon="10.6180833"><ele>69.5</ele><time>2026-04-04T17:42:32.284Z</time></trkpt><trkpt lat="35.55497" lon="10.6181783"><ele>70.0</ele><time>2026-04-04T17:42:33.285Z</time></trkpt><trkpt lat="35.554675" lon="10.6182767"><ele>71.5</ele><time>2026-04-04T17:42:34.284Z</time></trkpt><trkpt lat="35.5543883" lon="10.6183767"><ele>73.0</ele><time>2026-04-04T17:42:35.285Z</time></trkpt><trkpt lat="35.554105" lon="10.6184767"><ele>73.0</ele><time>2026-04-04T17:42:36.285Z</time></trkpt><trkpt lat="35.5538233" lon="10.61857"><ele>73.0</ele><time>2026-04-04T17:42:37.285Z</time></trkpt><trkpt lat="35.5535367" lon="10.6186617"><ele>74.0</ele><time>2026-04-04T17:42:38.285Z</time></trkpt><trkpt lat="35.5532483" lon="10.6187433"><ele>75.0</ele><time>2026-04-04T17:42:39.284Z</time></trkpt><trkpt lat="35.552955" lon="10.618825"><ele>76.5</ele><time>2026-04-04T17:42:40.286Z</time></trkpt><trkpt lat="35.5526617" lon="10.61891"><ele>78.0</ele><time>2026-04-04T17:42:41.284Z</time></trkpt><trkpt lat="35.5523633" lon="10.6189967"><ele>78.0</ele><time>2026-04-04T17:42:42.285Z</time></trkpt><trkpt lat="35.5520667" lon="10.619085"><ele>78.0</ele><time>2026-04-04T17:42:43.285Z</time></trkpt><trkpt lat="35.5517717" lon="10.6191717"><ele>78.0</ele><time>2026-04-04T17:42:44.285Z</time></trkpt><trkpt lat="35.5514817" lon="10.6192567"><ele>78.0</ele><time>2026-04-04T17:42:45.284Z</time></trkpt><trkpt lat="35.5511883" lon="10.6193433"><ele>81.5</ele><time>2026-04-04T17:42:46.284Z</time></trkpt><trkpt lat="35.5509" lon="10.61943"><ele>85.0</ele><time>2026-04-04T17:42:47.284Z</time></trkpt><trkpt lat="35.5506117" lon="10.6195167"><ele>87.0</ele><time>2026-04-04T17:42:48.286Z</time></trkpt><trkpt lat="35.5503233" lon="10.619605"><ele>89.0</ele><time>2026-04-04T17:42:49.284Z</time></trkpt><trkpt lat="35.5500317" lon="10.6196933"><ele>89.0</ele><time>2026-04-04T17:42:50.285Z</time></trkpt><trkpt lat="35.5497383" lon="10.6197817"><ele>89.0</ele><time>2026-04-04T17:42:51.284Z</time></trkpt><trkpt lat="35.5494383" lon="10.6198717"><ele>89.0</ele><time>2026-04-04T17:42:52.284Z</time></trkpt><trkpt lat="35.549135" lon="10.6199617"><ele>89.0</ele><time>2026-04-04T17:42:53.286Z</time></trkpt><trkpt lat="35.5488317" lon="10.6200533"><ele>90.0</ele><time>2026-04-04T17:42:54.285Z</time></trkpt><trkpt lat="35.5485267" lon="10.6201433"><ele>91.0</ele><time>2026-04-04T17:42:55.285Z</time></trkpt><trkpt lat="35.54822" lon="10.6202367"><ele>92.0</ele><time>2026-04-04T17:42:56.284Z</time></trkpt><trkpt lat="35.5479133" lon="10.62033"><ele>93.0</ele><time>2026-04-04T17:42:57.284Z</time></trkpt><trkpt lat="35.5476083" lon="10.6204233"><ele>93.0</ele><time>2026-04-04T17:42:58.285Z</time></trkpt><trkpt lat="35.54731" lon="10.620515"><ele>93.0</ele><time>2026-04-04T17:42:59.285Z</time></trkpt><trkpt lat="35.5470117" lon="10.620605"><ele>92.5</ele><time>2026-04-04T17:43:00.285Z</time></trkpt><trkpt lat="35.5467167" lon="10.620695"><ele>92.0</ele><time>2026-04-04T17:43:01.285Z</time></trkpt><trkpt lat="35.5464217" lon="10.6207833"><ele>92.5</ele><time>2026-04-04T17:43:02.284Z</time></trkpt><trkpt lat="35.546125" lon="10.620875"><ele>93.0</ele><time>2026-04-04T17:43:03.284Z</time></trkpt><trkpt lat="35.5458283" lon="10.620965"><ele>93.0</ele><time>2026-04-04T17:43:04.284Z</time></trkpt><trkpt lat="35.54553" lon="10.6210583"><ele>93.0</ele><time>2026-04-04T17:43:05.284Z</time></trkpt><trkpt lat="35.545235" lon="10.6211483"><ele>90.5</ele><time>2026-04-04T17:43:06.285Z</time></trkpt><trkpt lat="35.5449417" lon="10.6212333"><ele>88.0</ele><time>2026-04-04T17:43:07.284Z</time></trkpt><trkpt lat="35.54465" lon="10.6213183"><ele>88.5</ele><time>2026-04-04T17:43:08.284Z</time></trkpt><trkpt lat="35.5443567" lon="10.6214033"><ele>89.0</ele><time>2026-04-04T17:43:09.286Z</time></trkpt><trkpt lat="35.5440633" lon="10.6214917"><ele>89.0</ele><time>2026-04-04T17:43:10.285Z</time></trkpt><trkpt lat="35.543775" lon="10.6215783"><ele>89.0</ele><time>2026-04-04T17:43:11.284Z</time></trkpt><trkpt lat="35.5434933" lon="10.6216667"><ele>89.5</ele><time>2026-04-04T17:43:12.285Z</time></trkpt><trkpt lat="35.543215" lon="10.62175"><ele>90.0</ele><time>2026-04-04T17:43:13.284Z</time></trkpt><trkpt lat="35.5429417" lon="10.6218333"><ele>90.5</ele><time>2026-04-04T17:43:14.284Z</time></trkpt><trkpt lat="35.5426817" lon="10.621915"><ele>91.0</ele><time>2026-04-04T17:43:15.285Z</time></trkpt><trkpt lat="35.5424333" lon="10.6219933"><ele>91.0</ele><time>2026-04-04T17:43:16.284Z</time></trkpt><trkpt lat="35.542195" lon="10.6220683"><ele>91.0</ele><time>2026-04-04T17:43:17.285Z</time></trkpt><trkpt lat="35.541965" lon="10.6221417"><ele>89.5</ele><time>2026-04-04T17:43:18.285Z</time></trkpt><trkpt lat="35.541735" lon="10.622215"><ele>88.0</ele><time>2026-04-04T17:43:19.284Z</time></trkpt><trkpt lat="35.541505" lon="10.6222867"><ele>88.0</ele><time>2026-04-04T17:43:20.284Z</time></trkpt><trkpt lat="35.5412667" lon="10.6223567"><ele>88.0</ele><time>2026-04-04T17:43:21.285Z</time></trkpt><trkpt lat="35.5410167" lon="10.6224317"><ele>86.0</ele><time>2026-04-04T17:43:22.285Z</time></trkpt><trkpt lat="35.5407533" lon="10.6225117"><ele>84.0</ele><time>2026-04-04T17:43:23.29Z</time></trkpt><trkpt lat="35.5404767" lon="10.6225967"><ele>83.5</ele><time>2026-04-04T17:43:24.285Z</time></trkpt><trkpt lat="35.54019" lon="10.6226833"><ele>83.0</ele><time>2026-04-04T17:43:25.284Z</time></trkpt><trkpt lat="35.5398917" lon="10.6227733"><ele>83.0</ele><time>2026-04-04T17:43:26.285Z</time></trkpt><trkpt lat="35.5395833" lon="10.622865"><ele>83.0</ele><time>2026-04-04T17:43:27.284Z</time></trkpt><trkpt lat="35.5392717" lon="10.6229583"><ele>83.0</ele><time>2026-04-04T17:43:28.282Z</time></trkpt><trkpt lat="35.5389533" lon="10.62305"><ele>83.0</ele><time>2026-04-04T17:43:29.284Z</time></trkpt><trkpt lat="35.5386317" lon="10.623145"><ele>83.0</ele><time>2026-04-04T17:43:30.285Z</time></trkpt><trkpt lat="35.53831" lon="10.6232417"><ele>83.0</ele><time>2026-04-04T17:43:31.285Z</time></trkpt><trkpt lat="35.5379867" lon="10.62334"><ele>82.5</ele><time>2026-04-04T17:43:32.284Z</time></trkpt><trkpt lat="35.53766" lon="10.6234317"><ele>82.0</ele><time>2026-04-04T17:43:33.285Z</time></trkpt><trkpt lat="35.5373317" lon="10.6235217"><ele>82.5</ele><time>2026-04-04T17:43:34.284Z</time></trkpt><trkpt lat="35.5370067" lon="10.6236067"><ele>83.0</ele><time>2026-04-04T17:43:35.284Z</time></trkpt><trkpt lat="35.5366833" lon="10.623695"><ele>82.0</ele><time>2026-04-04T17:43:36.286Z</time></trkpt><trkpt lat="35.53636" lon="10.62379"><ele>81.0</ele><time>2026-04-04T17:43:37.284Z</time></trkpt><trkpt lat="35.53604" lon="10.623885"><ele>81.0</ele><time>2026-04-04T17:43:38.285Z</time></trkpt><trkpt lat="35.5357183" lon="10.6239817"><ele>81.0</ele><time>2026-04-04T17:43:39.288Z</time></trkpt><trkpt lat="35.5353983" lon="10.6240767"><ele>80.5</ele><time>2026-04-04T17:43:40.285Z</time></trkpt><trkpt lat="35.5350767" lon="10.62417"><ele>80.0</ele><time>2026-04-04T17:43:41.284Z</time></trkpt><trkpt lat="35.5347583" lon="10.6242567"><ele>79.5</ele><time>2026-04-04T17:43:42.285Z</time></trkpt><trkpt lat="35.5344433" lon="10.624345"><ele>79.0</ele><time>2026-04-04T17:43:43.284Z</time></trkpt><trkpt lat="35.53413" lon="10.62443"><ele>77.5</ele><time>2026-04-04T17:43:44.285Z</time></trkpt><trkpt lat="35.533815" lon="10.6245133"><ele>76.0</ele><time>2026-04-04T17:43:45.286Z</time></trkpt><trkpt lat="35.5335" lon="10.6245933"><ele>75.5</ele><time>2026-04-04T17:43:46.285Z</time></trkpt><trkpt lat="35.533185" lon="10.6246717"><ele>75.0</ele><time>2026-04-04T17:43:47.285Z</time></trkpt><trkpt lat="35.53287" lon="10.6247483"><ele>75.0</ele><time>2026-04-04T17:43:48.286Z</time></trkpt><trkpt lat="35.5325533" lon="10.6248217"><ele>75.0</ele><time>2026-04-04T17:43:49.285Z</time></trkpt><trkpt lat="35.5322367" lon="10.624895"><ele>74.0</ele><time>2026-04-04T17:43:50.284Z</time></trkpt><trkpt lat="35.5319183" lon="10.6249683"><ele>73.0</ele><time>2026-04-04T17:43:51.286Z</time></trkpt><trkpt lat="35.5316017" lon="10.6250417"><ele>73.0</ele><time>2026-04-04T17:43:52.284Z</time></trkpt><trkpt lat="35.5312833" lon="10.6251133"><ele>73.0</ele><time>2026-04-04T17:43:53.285Z</time></trkpt><trkpt lat="35.5309667" lon="10.625185"><ele>72.0</ele><time>2026-04-04T17:43:54.286Z</time></trkpt><trkpt lat="35.5306467" lon="10.6252517"><ele>71.0</ele><time>2026-04-04T17:43:55.285Z</time></trkpt><trkpt lat="35.530325" lon="10.6253167"><ele>70.5</ele><time>2026-04-04T17:43:56.284Z</time></trkpt><trkpt lat="35.53" lon="10.6253783"><ele>70.0</ele><time>2026-04-04T17:43:57.284Z</time></trkpt><trkpt lat="35.529675" lon="10.6254367"><ele>69.5</ele><time>2026-04-04T17:43:58.285Z</time></trkpt><trkpt lat="35.5293467" lon="10.625495"><ele>69.0</ele><time>2026-04-04T17:43:59.284Z</time></trkpt><trkpt lat="35.5290183" lon="10.6255533"><ele>68.5</ele><time>2026-04-04T17:44:00.286Z</time></trkpt><trkpt lat="35.52869" lon="10.62561"><ele>68.0</ele><time>2026-04-04T17:44:01.285Z</time></trkpt><trkpt lat="35.5283583" lon="10.6256667"><ele>68.0</ele><time>2026-04-04T17:44:02.285Z</time></trkpt><trkpt lat="35.528025" lon="10.6257217"><ele>68.0</ele><time>2026-04-04T17:44:03.282Z</time></trkpt><trkpt lat="35.5276933" lon="10.625775"><ele>66.0</ele><time>2026-04-04T17:44:04.283Z</time></trkpt><trkpt lat="35.5273633" lon="10.6258283"><ele>64.0</ele><time>2026-04-04T17:44:05.283Z</time></trkpt><trkpt lat="35.5270317" lon="10.6258767"><ele>64.0</ele><time>2026-04-04T17:44:06.282Z</time></trkpt><trkpt lat="35.5267" lon="10.625925"><ele>64.0</ele><time>2026-04-04T17:44:07.282Z</time></trkpt><trkpt lat="35.5263683" lon="10.6259683"><ele>62.0</ele><time>2026-04-04T17:44:08.283Z</time></trkpt><trkpt lat="35.526035" lon="10.6260117"><ele>60.0</ele><time>2026-04-04T17:44:09.282Z</time></trkpt><trkpt lat="35.5257033" lon="10.6260517"><ele>60.0</ele><time>2026-04-04T17:44:10.285Z</time></trkpt><trkpt lat="35.5253683" lon="10.62609"><ele>60.0</ele><time>2026-04-04T17:44:11.284Z</time></trkpt><trkpt lat="35.5250317" lon="10.6261283"><ele>60.5</ele><time>2026-04-04T17:44:12.285Z</time></trkpt><trkpt lat="35.524695" lon="10.626165"><ele>61.0</ele><time>2026-04-04T17:44:13.284Z</time></trkpt><trkpt lat="35.5243583" lon="10.6262"><ele>60.0</ele><time>2026-04-04T17:44:14.284Z</time></trkpt><trkpt lat="35.5240217" lon="10.6262367"><ele>59.0</ele><time>2026-04-04T17:44:15.284Z</time></trkpt><trkpt lat="35.5236833" lon="10.6262717"><ele>58.5</ele><time>2026-04-04T17:44:16.285Z</time></trkpt><trkpt lat="35.523345" lon="10.6263067"><ele>58.0</ele><time>2026-04-04T17:44:17.285Z</time></trkpt><trkpt lat="35.5230083" lon="10.62634"><ele>57.5</ele><time>2026-04-04T17:44:18.285Z</time></trkpt><trkpt lat="35.52267" lon="10.6263667"><ele>57.0</ele><time>2026-04-04T17:44:19.285Z</time></trkpt><trkpt lat="35.5223317" lon="10.6263917"><ele>57.0</ele><time>2026-04-04T17:44:20.285Z</time></trkpt><trkpt lat="35.5219933" lon="10.62641"><ele>57.0</ele><time>2026-04-04T17:44:21.284Z</time></trkpt><trkpt lat="35.5216517" lon="10.6264233"><ele>57.0</ele><time>2026-04-04T17:44:22.284Z</time></trkpt><trkpt lat="35.5213133" lon="10.6264383"><ele>57.0</ele><time>2026-04-04T17:44:23.284Z</time></trkpt><trkpt lat="35.52097" lon="10.6264533"><ele>56.5</ele><time>2026-04-04T17:44:24.285Z</time></trkpt><trkpt lat="35.5206333" lon="10.6264667"><ele>56.0</ele><time>2026-04-04T17:44:25.285Z</time></trkpt><trkpt lat="35.520295" lon="10.6264783"><ele>56.0</ele><time>2026-04-04T17:44:26.284Z</time></trkpt><trkpt lat="35.5199583" lon="10.6264817"><ele>56.0</ele><time>2026-04-04T17:44:27.285Z</time></trkpt><trkpt lat="35.5196217" lon="10.6264783"><ele>55.0</ele><time>2026-04-04T17:44:28.285Z</time></trkpt><trkpt lat="35.51929" lon="10.6264733"><ele>54.0</ele><time>2026-04-04T17:44:29.285Z</time></trkpt><trkpt lat="35.5189617" lon="10.62647"><ele>54.0</ele><time>2026-04-04T17:44:30.286Z</time></trkpt><trkpt lat="35.518635" lon="10.626465"><ele>54.0</ele><time>2026-04-04T17:44:31.285Z</time></trkpt><trkpt lat="35.5183083" lon="10.6264583"><ele>54.0</ele><time>2026-04-04T17:44:32.285Z</time></trkpt><trkpt lat="35.5179817" lon="10.62645"><ele>54.0</ele><time>2026-04-04T17:44:33.282Z</time></trkpt><trkpt lat="35.517655" lon="10.6264417"><ele>53.5</ele><time>2026-04-04T17:44:34.283Z</time></trkpt><trkpt lat="35.5173283" lon="10.6264333"><ele>53.0</ele><time>2026-04-04T17:44:35.283Z</time></trkpt><trkpt lat="35.5170033" lon="10.6264233"><ele>52.0</ele><time>2026-04-04T17:44:36.283Z</time></trkpt><trkpt lat="35.5166833" lon="10.6264117"><ele>51.0</ele><time>2026-04-04T17:44:37.284Z</time></trkpt><trkpt lat="35.5163633" lon="10.6264"><ele>50.5</ele><time>2026-04-04T17:44:38.283Z</time></trkpt><trkpt lat="35.5160467" lon="10.626385"><ele>50.0</ele><time>2026-04-04T17:44:39.283Z</time></trkpt><trkpt lat="35.51573" lon="10.62637"><ele>50.0</ele><time>2026-04-04T17:44:40.285Z</time></trkpt><trkpt lat="35.515415" lon="10.6263533"><ele>50.0</ele><time>2026-04-04T17:44:41.286Z</time></trkpt><trkpt lat="35.5151033" lon="10.626335"><ele>49.0</ele><time>2026-04-04T17:44:42.285Z</time></trkpt><trkpt lat="35.5147933" lon="10.626315"><ele>48.0</ele><time>2026-04-04T17:44:43.285Z</time></trkpt><trkpt lat="35.514485" lon="10.6262917"><ele>48.0</ele><time>2026-04-04T17:44:44.285Z</time></trkpt><trkpt lat="35.5141817" lon="10.62627"><ele>48.0</ele><time>2026-04-04T17:44:45.286Z</time></trkpt><trkpt lat="35.5138783" lon="10.626245"><ele>46.5</ele><time>2026-04-04T17:44:46.284Z</time></trkpt><trkpt lat="35.5135733" lon="10.6262167"><ele>45.0</ele><time>2026-04-04T17:44:47.285Z</time></trkpt><trkpt lat="35.513265" lon="10.6261883"><ele>45.0</ele><time>2026-04-04T17:44:48.285Z</time></trkpt><trkpt lat="35.5129567" lon="10.62616"><ele>45.0</ele><time>2026-04-04T17:44:49.285Z</time></trkpt><trkpt lat="35.51265" lon="10.6261283"><ele>45.0</ele><time>2026-04-04T17:44:50.285Z</time></trkpt><trkpt lat="35.5123483" lon="10.626095"><ele>45.0</ele><time>2026-04-04T17:44:51.285Z</time></trkpt><trkpt lat="35.5120433" lon="10.6260617"><ele>45.5</ele><time>2026-04-04T17:44:52.285Z</time></trkpt><trkpt lat="35.5117367" lon="10.6260283"><ele>46.0</ele><time>2026-04-04T17:44:53.286Z</time></trkpt><trkpt lat="35.5114317" lon="10.6259933"><ele>46.0</ele><time>2026-04-04T17:44:54.286Z</time></trkpt><trkpt lat="35.5111233" lon="10.6259567"><ele>46.0</ele><time>2026-04-04T17:44:55.284Z</time></trkpt><trkpt lat="35.51081" lon="10.62592"><ele>46.0</ele><time>2026-04-04T17:44:56.285Z</time></trkpt><trkpt lat="35.5104933" lon="10.6258833"><ele>46.0</ele><time>2026-04-04T17:44:57.285Z</time></trkpt><trkpt lat="35.5101683" lon="10.6258467"><ele>46.0</ele><time>2026-04-04T17:44:58.284Z</time></trkpt><trkpt lat="35.509845" lon="10.62581"><ele>46.0</ele><time>2026-04-04T17:44:59.286Z</time></trkpt><trkpt lat="35.5095233" lon="10.625775"><ele>45.5</ele><time>2026-04-04T17:45:00.286Z</time></trkpt><trkpt lat="35.5091967" lon="10.6257367"><ele>45.0</ele><time>2026-04-04T17:45:01.285Z</time></trkpt><trkpt lat="35.5088717" lon="10.6256983"><ele>44.5</ele><time>2026-04-04T17:45:02.285Z</time></trkpt><trkpt lat="35.5085517" lon="10.6256583"><ele>44.0</ele><time>2026-04-04T17:45:03.282Z</time></trkpt><trkpt lat="35.5082333" lon="10.62562"><ele>44.0</ele><time>2026-04-04T17:45:04.283Z</time></trkpt><trkpt lat="35.5079167" lon="10.6255817"><ele>44.0</ele><time>2026-04-04T17:45:05.282Z</time></trkpt><trkpt lat="35.5075983" lon="10.625545"><ele>43.5</ele><time>2026-04-04T17:45:06.282Z</time></trkpt><trkpt lat="35.5072817" lon="10.6255083"><ele>43.0</ele><time>2026-04-04T17:45:07.283Z</time></trkpt><trkpt lat="35.506965" lon="10.6254767"><ele>42.5</ele><time>2026-04-04T17:45:08.282Z</time></trkpt><trkpt lat="35.5066517" lon="10.625445"><ele>42.0</ele><time>2026-04-04T17:45:09.283Z</time></trkpt><trkpt lat="35.50634" lon="10.6254133"><ele>42.0</ele><time>2026-04-04T17:45:10.285Z</time></trkpt><trkpt lat="35.5060283" lon="10.6253783"><ele>42.0</ele><time>2026-04-04T17:45:11.285Z</time></trkpt><trkpt lat="35.5057167" lon="10.6253417"><ele>41.0</ele><time>2026-04-04T17:45:12.285Z</time></trkpt><trkpt lat="35.5054033" lon="10.6253083"><ele>40.0</ele><time>2026-04-04T17:45:13.285Z</time></trkpt><trkpt lat="35.5050917" lon="10.6252733"><ele>40.0</ele><time>2026-04-04T17:45:14.285Z</time></trkpt><trkpt lat="35.5047817" lon="10.6252417"><ele>40.0</ele><time>2026-04-04T17:45:15.285Z</time></trkpt><trkpt lat="35.5044683" lon="10.62521"><ele>40.0</ele><time>2026-04-04T17:45:16.285Z</time></trkpt><trkpt lat="35.5041517" lon="10.6251833"><ele>40.0</ele><time>2026-04-04T17:45:17.285Z</time></trkpt><trkpt lat="35.5038333" lon="10.6251633"><ele>40.0</ele><time>2026-04-04T17:45:18.286Z</time></trkpt><trkpt lat="35.5035133" lon="10.6251433"><ele>40.0</ele><time>2026-04-04T17:45:19.285Z</time></trkpt><trkpt lat="35.503195" lon="10.6251283"><ele>39.0</ele><time>2026-04-04T17:45:20.284Z</time></trkpt><trkpt lat="35.5028767" lon="10.6251183"><ele>38.0</ele><time>2026-04-04T17:45:21.285Z</time></trkpt><trkpt lat="35.502555" lon="10.62511"><ele>38.0</ele><time>2026-04-04T17:45:22.284Z</time></trkpt><trkpt lat="35.502235" lon="10.625105"><ele>38.0</ele><time>2026-04-04T17:45:23.285Z</time></trkpt><trkpt lat="35.501915" lon="10.6251067"><ele>37.5</ele><time>2026-04-04T17:45:24.286Z</time></trkpt><trkpt lat="35.501595" lon="10.62511"><ele>37.0</ele><time>2026-04-04T17:45:25.288Z</time></trkpt><trkpt lat="35.5012783" lon="10.6251167"><ele>38.0</ele><time>2026-04-04T17:45:26.284Z</time></trkpt><trkpt lat="35.5009617" lon="10.6251267"><ele>39.0</ele><time>2026-04-04T17:45:27.286Z</time></trkpt><trkpt lat="35.5006467" lon="10.62514"><ele>38.0</ele><time>2026-04-04T17:45:28.285Z</time></trkpt><trkpt lat="35.5003333" lon="10.625155"><ele>37.0</ele><time>2026-04-04T17:45:29.284Z</time></trkpt><trkpt lat="35.5000183" lon="10.6251767"><ele>37.0</ele><time>2026-04-04T17:45:30.285Z</time></trkpt><trkpt lat="35.499705" lon="10.6252017"><ele>37.0</ele><time>2026-04-04T17:45:31.285Z</time></trkpt><trkpt lat="35.49939" lon="10.6252283"><ele>37.0</ele><time>2026-04-04T17:45:32.285Z</time></trkpt><trkpt lat="35.499075" lon="10.6252583"><ele>37.0</ele><time>2026-04-04T17:45:33.283Z</time></trkpt><trkpt lat="35.4987617" lon="10.6252933"><ele>38.0</ele><time>2026-04-04T17:45:34.283Z</time></trkpt><trkpt lat="35.4984483" lon="10.6253317"><ele>39.0</ele><time>2026-04-04T17:45:35.284Z</time></trkpt><trkpt lat="35.4981383" lon="10.6253717"><ele>38.0</ele><time>2026-04-04T17:45:36.282Z</time></trkpt><trkpt lat="35.49783" lon="10.6254133"><ele>37.0</ele><time>2026-04-04T17:45:37.283Z</time></trkpt><trkpt lat="35.4975217" lon="10.62546"><ele>37.0</ele><time>2026-04-04T17:45:38.283Z</time></trkpt><trkpt lat="35.497215" lon="10.62551"><ele>37.0</ele><time>2026-04-04T17:45:39.283Z</time></trkpt><trkpt lat="35.49691" lon="10.6255633"><ele>36.5</ele><time>2026-04-04T17:45:40.286Z</time></trkpt><trkpt lat="35.4966033" lon="10.6256217"><ele>36.0</ele><time>2026-04-04T17:45:41.285Z</time></trkpt><trkpt lat="35.496295" lon="10.625685"><ele>38.0</ele><time>2026-04-04T17:45:42.286Z</time></trkpt><trkpt lat="35.495985" lon="10.6257483"><ele>40.0</ele><time>2026-04-04T17:45:43.286Z</time></trkpt><trkpt lat="35.4956733" lon="10.625815"><ele>39.0</ele><time>2026-04-04T17:45:44.285Z</time></trkpt><trkpt lat="35.495365" lon="10.625885"><ele>38.0</ele><time>2026-04-04T17:45:45.284Z</time></trkpt><trkpt lat="35.4950567" lon="10.62596"><ele>38.0</ele><time>2026-04-04T17:45:46.285Z</time></trkpt><trkpt lat="35.4947517" lon="10.626035"><ele>38.0</ele><time>2026-04-04T17:45:47.285Z</time></trkpt><trkpt lat="35.4944533" lon="10.6261117"><ele>39.5</ele><time>2026-04-04T17:45:48.285Z</time></trkpt><trkpt lat="35.494155" lon="10.62619"><ele>41.0</ele><time>2026-04-04T17:45:49.285Z</time></trkpt><trkpt lat="35.4938567" lon="10.62627"><ele>40.0</ele><time>2026-04-04T17:45:50.286Z</time></trkpt><trkpt lat="35.4935617" lon="10.62635"><ele>39.0</ele><time>2026-04-04T17:45:51.286Z</time></trkpt><trkpt lat="35.4932667" lon="10.6264317"><ele>39.0</ele><time>2026-04-04T17:45:52.287Z</time></trkpt><trkpt lat="35.4929733" lon="10.6265117"><ele>39.0</ele><time>2026-04-04T17:45:53.285Z</time></trkpt><trkpt lat="35.4926833" lon="10.6265917"><ele>39.0</ele><time>2026-04-04T17:45:54.287Z</time></trkpt><trkpt lat="35.49239" lon="10.6266717"><ele>39.0</ele><time>2026-04-04T17:45:55.284Z</time></trkpt><trkpt lat="35.4920967" lon="10.62675"><ele>39.0</ele><time>2026-04-04T17:45:56.285Z</time></trkpt><trkpt lat="35.4918033" lon="10.6268267"><ele>39.0</ele><time>2026-04-04T17:45:57.285Z</time></trkpt><trkpt lat="35.49151" lon="10.6269033"><ele>38.0</ele><time>2026-04-04T17:45:58.285Z</time></trkpt><trkpt lat="35.491215" lon="10.62698"><ele>37.0</ele><time>2026-04-04T17:45:59.285Z</time></trkpt><trkpt lat="35.49092" lon="10.6270567"><ele>37.0</ele><time>2026-04-04T17:46:00.286Z</time></trkpt><trkpt lat="35.4906267" lon="10.6271317"><ele>37.0</ele><time>2026-04-04T17:46:01.285Z</time></trkpt><trkpt lat="35.4903317" lon="10.6272083"><ele>37.5</ele><time>2026-04-04T17:46:02.284Z</time></trkpt><trkpt lat="35.49004" lon="10.62729"><ele>38.0</ele><time>2026-04-04T17:46:03.285Z</time></trkpt><trkpt lat="35.4897467" lon="10.6273717"><ele>38.5</ele><time>2026-04-04T17:46:04.282Z</time></trkpt><trkpt lat="35.4894567" lon="10.62745"><ele>39.0</ele><time>2026-04-04T17:46:05.287Z</time></trkpt><trkpt lat="35.489165" lon="10.6275283"><ele>39.0</ele><time>2026-04-04T17:46:06.285Z</time></trkpt><trkpt lat="35.4888717" lon="10.627605"><ele>39.0</ele><time>2026-04-04T17:46:07.285Z</time></trkpt><trkpt lat="35.488575" lon="10.6276867"><ele>38.5</ele><time>2026-04-04T17:46:08.286Z</time></trkpt><trkpt lat="35.48828" lon="10.627765"><ele>38.0</ele><time>2026-04-04T17:46:09.285Z</time></trkpt><trkpt lat="35.4879867" lon="10.6278433"><ele>38.5</ele><time>2026-04-04T17:46:10.285Z</time></trkpt><trkpt lat="35.4876883" lon="10.6279183"><ele>39.0</ele><time>2026-04-04T17:46:11.285Z</time></trkpt><trkpt lat="35.4873917" lon="10.628"><ele>39.0</ele><time>2026-04-04T17:46:12.285Z</time></trkpt><trkpt lat="35.487095" lon="10.6280817"><ele>39.0</ele><time>2026-04-04T17:46:13.285Z</time></trkpt><trkpt lat="35.4867983" lon="10.6281633"><ele>38.5</ele><time>2026-04-04T17:46:14.286Z</time></trkpt><trkpt lat="35.4865017" lon="10.6282417"><ele>38.0</ele><time>2026-04-04T17:46:15.285Z</time></trkpt><trkpt lat="35.486205" lon="10.6283217"><ele>38.0</ele><time>2026-04-04T17:46:16.285Z</time></trkpt><trkpt lat="35.4859067" lon="10.6284"><ele>38.0</ele><time>2026-04-04T17:46:17.285Z</time></trkpt><trkpt lat="35.4856083" lon="10.62848"><ele>38.0</ele><time>2026-04-04T17:46:18.285Z</time></trkpt><trkpt lat="35.48531" lon="10.6285567"><ele>38.0</ele><time>2026-04-04T17:46:19.285Z</time></trkpt><trkpt lat="35.4850117" lon="10.6286367"><ele>37.0</ele><time>2026-04-04T17:46:20.285Z</time></trkpt><trkpt lat="35.4847133" lon="10.6287167"><ele>36.0</ele><time>2026-04-04T17:46:21.285Z</time></trkpt><trkpt lat="35.484415" lon="10.6287983"><ele>36.0</ele><time>2026-04-04T17:46:22.285Z</time></trkpt><trkpt lat="35.4841183" lon="10.6288767"><ele>36.0</ele><time>2026-04-04T17:46:23.285Z</time></trkpt><trkpt lat="35.4838217" lon="10.628955"><ele>37.5</ele><time>2026-04-04T17:46:24.287Z</time></trkpt><trkpt lat="35.4835233" lon="10.62903"><ele>39.0</ele><time>2026-04-04T17:46:25.285Z</time></trkpt><trkpt lat="35.4832267" lon="10.62911"><ele>38.5</ele><time>2026-04-04T17:46:26.286Z</time></trkpt><trkpt lat="35.4829267" lon="10.6291917"><ele>38.0</ele><time>2026-04-04T17:46:27.285Z</time></trkpt><trkpt lat="35.482625" lon="10.6292683"><ele>38.0</ele><time>2026-04-04T17:46:28.285Z</time></trkpt><trkpt lat="35.4823267" lon="10.62935"><ele>38.0</ele><time>2026-04-04T17:46:29.285Z</time></trkpt><trkpt lat="35.48203" lon="10.6294333"><ele>38.5</ele><time>2026-04-04T17:46:30.286Z</time></trkpt><trkpt lat="35.481735" lon="10.6295133"><ele>39.0</ele><time>2026-04-04T17:46:31.285Z</time></trkpt><trkpt lat="35.4814433" lon="10.6295917"><ele>38.0</ele><time>2026-04-04T17:46:32.285Z</time></trkpt><trkpt lat="35.48115" lon="10.6296683"><ele>37.0</ele><time>2026-04-04T17:46:33.285Z</time></trkpt><trkpt lat="35.480855" lon="10.629745"><ele>37.0</ele><time>2026-04-04T17:46:34.285Z</time></trkpt><trkpt lat="35.48056" lon="10.6298233"><ele>37.0</ele><time>2026-04-04T17:46:35.285Z</time></trkpt><trkpt lat="35.480265" lon="10.6299033"><ele>37.5</ele><time>2026-04-04T17:46:36.287Z</time></trkpt><trkpt lat="35.4799683" lon="10.629985"><ele>38.0</ele><time>2026-04-04T17:46:37.285Z</time></trkpt><trkpt lat="35.4796717" lon="10.6300667"><ele>38.5</ele><time>2026-04-04T17:46:38.286Z</time></trkpt><trkpt lat="35.4793783" lon="10.6301467"><ele>39.0</ele><time>2026-04-04T17:46:39.285Z</time></trkpt><trkpt lat="35.4790867" lon="10.6302283"><ele>38.0</ele><time>2026-04-04T17:46:40.286Z</time></trkpt><trkpt lat="35.4788017" lon="10.63031"><ele>37.0</ele><time>2026-04-04T17:46:41.285Z</time></trkpt><trkpt lat="35.47852" lon="10.6303917"><ele>36.5</ele><time>2026-04-04T17:46:42.286Z</time></trkpt><trkpt lat="35.4782383" lon="10.6304717"><ele>36.0</ele><time>2026-04-04T17:46:43.285Z</time></trkpt><trkpt lat="35.4779567" lon="10.6305517"><ele>36.0</ele><time>2026-04-04T17:46:44.285Z</time></trkpt><trkpt lat="35.4776717" lon="10.6306317"><ele>36.0</ele><time>2026-04-04T17:46:45.285Z</time></trkpt><trkpt lat="35.477385" lon="10.6307083"><ele>36.0</ele><time>2026-04-04T17:46:46.286Z</time></trkpt><trkpt lat="35.477105" lon="10.6307817"><ele>36.0</ele><time>2026-04-04T17:46:47.284Z</time></trkpt><trkpt lat="35.4768383" lon="10.6308533"><ele>35.5</ele><time>2026-04-04T17:46:48.285Z</time></trkpt><trkpt lat="35.4765833" lon="10.6309233"><ele>35.0</ele><time>2026-04-04T17:46:49.285Z</time></trkpt><trkpt lat="35.4763367" lon="10.63099"><ele>34.0</ele><time>2026-04-04T17:46:50.285Z</time></trkpt><trkpt lat="35.47609" lon="10.63106"><ele>33.0</ele><time>2026-04-04T17:46:51.285Z</time></trkpt><trkpt lat="35.4758533" lon="10.631125"><ele>34.0</ele><time>2026-04-04T17:46:52.285Z</time></trkpt><trkpt lat="35.4756233" lon="10.6311867"><ele>35.0</ele><time>2026-04-04T17:46:53.285Z</time></trkpt><trkpt lat="35.4753967" lon="10.63125"><ele>36.0</ele><time>2026-04-04T17:46:54.285Z</time></trkpt><trkpt lat="35.4751717" lon="10.63131"><ele>37.0</ele><time>2026-04-04T17:46:55.285Z</time></trkpt><trkpt lat="35.47495" lon="10.6313717"><ele>37.0</ele><time>2026-04-04T17:46:56.285Z</time></trkpt><trkpt lat="35.474725" lon="10.6314333"><ele>37.0</ele><time>2026-04-04T17:46:57.286Z</time></trkpt><trkpt lat="35.4745" lon="10.631495"><ele>36.5</ele><time>2026-04-04T17:46:58.286Z</time></trkpt><trkpt lat="35.4742717" lon="10.631555"><ele>36.0</ele><time>2026-04-04T17:46:59.285Z</time></trkpt><trkpt lat="35.47404" lon="10.6316167"><ele>36.0</ele><time>2026-04-04T17:47:00.285Z</time></trkpt><trkpt lat="35.473805" lon="10.63168"><ele>36.0</ele><time>2026-04-04T17:47:01.287Z</time></trkpt><trkpt lat="35.4735667" lon="10.6317433"><ele>34.5</ele><time>2026-04-04T17:47:02.285Z</time></trkpt><trkpt lat="35.4733217" lon="10.631805"><ele>33.0</ele><time>2026-04-04T17:47:03.285Z</time></trkpt><trkpt lat="35.4730667" lon="10.6318633"><ele>35.0</ele><time>2026-04-04T17:47:04.285Z</time></trkpt><trkpt lat="35.4727967" lon="10.63192"><ele>37.0</ele><time>2026-04-04T17:47:05.285Z</time></trkpt><trkpt lat="35.4725183" lon="10.6319867"><ele>37.0</ele><time>2026-04-04T17:47:06.286Z</time></trkpt><trkpt lat="35.472235" lon="10.63206"><ele>37.0</ele><time>2026-04-04T17:47:07.285Z</time></trkpt><trkpt lat="35.4719467" lon="10.63214"><ele>38.5</ele><time>2026-04-04T17:47:08.286Z</time></trkpt><trkpt lat="35.4716583" lon="10.63222"><ele>40.0</ele><time>2026-04-04T17:47:09.285Z</time></trkpt><trkpt lat="35.4713717" lon="10.6322983"><ele>40.0</ele><time>2026-04-04T17:47:10.285Z</time></trkpt><trkpt lat="35.47108" lon="10.6323767"><ele>40.0</ele><time>2026-04-04T17:47:11.285Z</time></trkpt><trkpt lat="35.4707817" lon="10.632455"><ele>40.0</ele><time>2026-04-04T17:47:12.285Z</time></trkpt><trkpt lat="35.47048" lon="10.6325383"><ele>40.0</ele><time>2026-04-04T17:47:13.285Z</time></trkpt><trkpt lat="35.4701733" lon="10.6326217"><ele>40.0</ele><time>2026-04-04T17:47:14.286Z</time></trkpt><trkpt lat="35.4698667" lon="10.6327033"><ele>40.0</ele><time>2026-04-04T17:47:15.286Z</time></trkpt><trkpt lat="35.46956" lon="10.6327833"><ele>41.0</ele><time>2026-04-04T17:47:16.285Z</time></trkpt><trkpt lat="35.469255" lon="10.632865"><ele>42.0</ele><time>2026-04-04T17:47:17.286Z</time></trkpt><trkpt lat="35.4689483" lon="10.63295"><ele>45.0</ele><time>2026-04-04T17:47:18.286Z</time></trkpt><trkpt lat="35.46864" lon="10.6330317"><ele>48.0</ele><time>2026-04-04T17:47:19.285Z</time></trkpt><trkpt lat="35.4683317" lon="10.6331117"><ele>48.0</ele><time>2026-04-04T17:47:20.285Z</time></trkpt><trkpt lat="35.4680233" lon="10.6331917"><ele>48.0</ele><time>2026-04-04T17:47:21.285Z</time></trkpt><trkpt lat="35.4677117" lon="10.6332733"><ele>49.5</ele><time>2026-04-04T17:47:22.285Z</time></trkpt><trkpt lat="35.4673983" lon="10.6333567"><ele>51.0</ele><time>2026-04-04T17:47:23.285Z</time></trkpt><trkpt lat="35.4670867" lon="10.6334433"><ele>53.0</ele><time>2026-04-04T17:47:24.286Z</time></trkpt><trkpt lat="35.4667783" lon="10.6335333"><ele>55.0</ele><time>2026-04-04T17:47:25.285Z</time></trkpt><trkpt lat="35.4664817" lon="10.633625"><ele>55.0</ele><time>2026-04-04T17:47:26.285Z</time></trkpt><trkpt lat="35.4661967" lon="10.63371"><ele>55.0</ele><time>2026-04-04T17:47:27.285Z</time></trkpt><trkpt lat="35.4659183" lon="10.6337883"><ele>55.0</ele><time>2026-04-04T17:47:28.286Z</time></trkpt><trkpt lat="35.4656417" lon="10.6338667"><ele>55.0</ele><time>2026-04-04T17:47:29.286Z</time></trkpt><trkpt lat="35.465375" lon="10.6339367"><ele>54.0</ele><time>2026-04-04T17:47:30.286Z</time></trkpt><trkpt lat="35.4651217" lon="10.634005"><ele>53.0</ele><time>2026-04-04T17:47:31.286Z</time></trkpt><trkpt lat="35.4648733" lon="10.6340717"><ele>53.0</ele><time>2026-04-04T17:47:32.286Z</time></trkpt><trkpt lat="35.46462" lon="10.6341417"><ele>53.0</ele><time>2026-04-04T17:47:33.283Z</time></trkpt><trkpt lat="35.46436" lon="10.6342133"><ele>52.5</ele><time>2026-04-04T17:47:34.283Z</time></trkpt><trkpt lat="35.4640917" lon="10.6342867"><ele>52.0</ele><time>2026-04-04T17:47:35.283Z</time></trkpt><trkpt lat="35.46382" lon="10.63436"><ele>52.5</ele><time>2026-04-04T17:47:36.283Z</time></trkpt><trkpt lat="35.4635433" lon="10.6344333"><ele>53.0</ele><time>2026-04-04T17:47:37.282Z</time></trkpt><trkpt lat="35.4632583" lon="10.6345067"><ele>53.5</ele><time>2026-04-04T17:47:38.282Z</time></trkpt><trkpt lat="35.4629717" lon="10.634585"><ele>54.0</ele><time>2026-04-04T17:47:39.283Z</time></trkpt><trkpt lat="35.4626783" lon="10.6346683"><ele>54.0</ele><time>2026-04-04T17:47:40.285Z</time></trkpt><trkpt lat="35.46238" lon="10.6347567"><ele>54.0</ele><time>2026-04-04T17:47:41.285Z</time></trkpt><trkpt lat="35.46208" lon="10.63485"><ele>55.0</ele><time>2026-04-04T17:47:42.285Z</time></trkpt><trkpt lat="35.4617783" lon="10.63495"><ele>56.0</ele><time>2026-04-04T17:47:43.286Z</time></trkpt><trkpt lat="35.46147" lon="10.63506"><ele>55.5</ele><time>2026-04-04T17:47:44.284Z</time></trkpt><trkpt lat="35.461165" lon="10.6351767"><ele>55.0</ele><time>2026-04-04T17:47:45.284Z</time></trkpt><trkpt lat="35.4608567" lon="10.6353"><ele>55.0</ele><time>2026-04-04T17:47:46.285Z</time></trkpt><trkpt lat="35.4605517" lon="10.6354283"><ele>55.0</ele><time>2026-04-04T17:47:47.284Z</time></trkpt><trkpt lat="35.46025" lon="10.63556"><ele>55.5</ele><time>2026-04-04T17:47:48.284Z</time></trkpt><trkpt lat="35.45995" lon="10.6356933"><ele>56.0</ele><time>2026-04-04T17:47:49.284Z</time></trkpt><trkpt lat="35.4596517" lon="10.6358317"><ele>57.5</ele><time>2026-04-04T17:47:50.284Z</time></trkpt><trkpt lat="35.4593567" lon="10.635975"><ele>59.0</ele><time>2026-04-04T17:47:51.284Z</time></trkpt><trkpt lat="35.4590633" lon="10.636125"><ele>59.5</ele><time>2026-04-04T17:47:52.285Z</time></trkpt><trkpt lat="35.4587717" lon="10.63628"><ele>60.0</ele><time>2026-04-04T17:47:53.284Z</time></trkpt><trkpt lat="35.4584817" lon="10.6364417"><ele>60.0</ele><time>2026-04-04T17:47:54.284Z</time></trkpt><trkpt lat="35.45819" lon="10.6366017"><ele>60.0</ele><time>2026-04-04T17:47:55.284Z</time></trkpt><trkpt lat="35.4579017" lon="10.6367667"><ele>61.0</ele><time>2026-04-04T17:47:56.284Z</time></trkpt><trkpt lat="35.457615" lon="10.6369367"><ele>62.0</ele><time>2026-04-04T17:47:57.284Z</time></trkpt><trkpt lat="35.4573333" lon="10.6371167"><ele>63.5</ele><time>2026-04-04T17:47:58.284Z</time></trkpt><trkpt lat="35.457055" lon="10.6372983"><ele>65.0</ele><time>2026-04-04T17:47:59.283Z</time></trkpt><trkpt lat="35.456785" lon="10.6374783"><ele>65.0</ele><time>2026-04-04T17:48:00.284Z</time></trkpt><trkpt lat="35.4565267" lon="10.6376583"><ele>65.0</ele><time>2026-04-04T17:48:01.285Z</time></trkpt><trkpt lat="35.4562733" lon="10.6378433"><ele>66.0</ele><time>2026-04-04T17:48:02.285Z</time></trkpt><trkpt lat="35.456025" lon="10.6380317"><ele>67.0</ele><time>2026-04-04T17:48:03.284Z</time></trkpt><trkpt lat="35.45578" lon="10.63822"><ele>67.0</ele><time>2026-04-04T17:48:04.285Z</time></trkpt><trkpt lat="35.4555367" lon="10.638415"><ele>67.0</ele><time>2026-04-04T17:48:05.284Z</time></trkpt><trkpt lat="35.455295" lon="10.6386117"><ele>67.5</ele><time>2026-04-04T17:48:06.284Z</time></trkpt><trkpt lat="35.4550533" lon="10.6388117"><ele>68.0</ele><time>2026-04-04T17:48:07.285Z</time></trkpt><trkpt lat="35.454815" lon="10.6390167"><ele>70.0</ele><time>2026-04-04T17:48:08.284Z</time></trkpt><trkpt lat="35.4545767" lon="10.6392217"><ele>72.0</ele><time>2026-04-04T17:48:09.285Z</time></trkpt><trkpt lat="35.454345" lon="10.6394267"><ele>72.5</ele><time>2026-04-04T17:48:10.285Z</time></trkpt><trkpt lat="35.45412" lon="10.6396317"><ele>73.0</ele><time>2026-04-04T17:48:11.285Z</time></trkpt><trkpt lat="35.4539" lon="10.63984"><ele>75.0</ele><time>2026-04-04T17:48:12.284Z</time></trkpt><trkpt lat="35.453685" lon="10.6400483"><ele>77.0</ele><time>2026-04-04T17:48:13.285Z</time></trkpt><trkpt lat="35.4534767" lon="10.6402567"><ele>78.0</ele><time>2026-04-04T17:48:14.285Z</time></trkpt><trkpt lat="35.4532733" lon="10.6404667"><ele>79.0</ele><time>2026-04-04T17:48:15.284Z</time></trkpt><trkpt lat="35.4530683" lon="10.64068"><ele>80.5</ele><time>2026-04-04T17:48:16.284Z</time></trkpt><trkpt lat="35.4528683" lon="10.640895"><ele>82.0</ele><time>2026-04-04T17:48:17.284Z</time></trkpt><trkpt lat="35.4526683" lon="10.641115"><ele>82.5</ele><time>2026-04-04T17:48:18.284Z</time></trkpt><trkpt lat="35.4524683" lon="10.64134"><ele>83.0</ele><time>2026-04-04T17:48:19.284Z</time></trkpt><trkpt lat="35.4522667" lon="10.64157"><ele>86.0</ele><time>2026-04-04T17:48:20.284Z</time></trkpt><trkpt lat="35.4520633" lon="10.64181"><ele>89.0</ele><time>2026-04-04T17:48:21.284Z</time></trkpt><trkpt lat="35.4518617" lon="10.6420583"><ele>89.0</ele><time>2026-04-04T17:48:22.287Z</time></trkpt><trkpt lat="35.4516583" lon="10.64231"><ele>89.0</ele><time>2026-04-04T17:48:23.284Z</time></trkpt><trkpt lat="35.4514567" lon="10.6425667"><ele>91.5</ele><time>2026-04-04T17:48:24.285Z</time></trkpt><trkpt lat="35.4512533" lon="10.6428267"><ele>94.0</ele><time>2026-04-04T17:48:25.284Z</time></trkpt><trkpt lat="35.4510533" lon="10.6430933"><ele>94.0</ele><time>2026-04-04T17:48:26.284Z</time></trkpt><trkpt lat="35.4508567" lon="10.6433617"><ele>94.0</ele><time>2026-04-04T17:48:27.285Z</time></trkpt><trkpt lat="35.450665" lon="10.6436367"><ele>92.5</ele><time>2026-04-04T17:48:28.284Z</time></trkpt><trkpt lat="35.4504717" lon="10.64391"><ele>91.0</ele><time>2026-04-04T17:48:29.285Z</time></trkpt><trkpt lat="35.4502833" lon="10.6441867"><ele>94.0</ele><time>2026-04-04T17:48:30.285Z</time></trkpt><trkpt lat="35.4500933" lon="10.64446"><ele>97.0</ele><time>2026-04-04T17:48:31.284Z</time></trkpt><trkpt lat="35.4499067" lon="10.64473"><ele>97.0</ele><time>2026-04-04T17:48:32.284Z</time></trkpt><trkpt lat="35.4497217" lon="10.645005"><ele>97.0</ele><time>2026-04-04T17:48:33.281Z</time></trkpt><trkpt lat="35.4495367" lon="10.64528"><ele>99.0</ele><time>2026-04-04T17:48:34.286Z</time></trkpt><trkpt lat="35.449355" lon="10.64556"><ele>101.0</ele><time>2026-04-04T17:48:35.285Z</time></trkpt><trkpt lat="35.449175" lon="10.64584"><ele>101.0</ele><time>2026-04-04T17:48:36.286Z</time></trkpt><trkpt lat="35.4489967" lon="10.646115"><ele>101.0</ele><time>2026-04-04T17:48:37.284Z</time></trkpt><trkpt lat="35.4488183" lon="10.6463933"><ele>104.0</ele><time>2026-04-04T17:48:38.283Z</time></trkpt><trkpt lat="35.4486417" lon="10.64667"><ele>107.0</ele><time>2026-04-04T17:48:39.285Z</time></trkpt><trkpt lat="35.4484617" lon="10.646945"><ele>107.5</ele><time>2026-04-04T17:48:40.281Z</time></trkpt><trkpt lat="35.44828" lon="10.6472217"><ele>108.0</ele><time>2026-04-04T17:48:41.285Z</time></trkpt><trkpt lat="35.4481" lon="10.6475033"><ele>110.0</ele><time>2026-04-04T17:48:42.284Z</time></trkpt><trkpt lat="35.4479183" lon="10.647785"><ele>112.0</ele><time>2026-04-04T17:48:43.283Z</time></trkpt><trkpt lat="35.4477367" lon="10.64807"><ele>112.5</ele><time>2026-04-04T17:48:44.284Z</time></trkpt><trkpt lat="35.4475533" lon="10.6483533"><ele>113.0</ele><time>2026-04-04T17:48:45.285Z</time></trkpt><trkpt lat="35.4473667" lon="10.6486367"><ele>113.5</ele><time>2026-04-04T17:48:46.284Z</time></trkpt><trkpt lat="35.4471817" lon="10.64892"><ele>114.0</ele><time>2026-04-04T17:48:47.284Z</time></trkpt><trkpt lat="35.4469983" lon="10.6492083"><ele>114.5</ele><time>2026-04-04T17:48:48.285Z</time></trkpt><trkpt lat="35.4468167" lon="10.6495033"><ele>115.0</ele><time>2026-04-04T17:48:49.285Z</time></trkpt><trkpt lat="35.446635" lon="10.6497933"><ele>115.0</ele><time>2026-04-04T17:48:50.284Z</time></trkpt><trkpt lat="35.44646" lon="10.6500733"><ele>115.0</ele><time>2026-04-04T17:48:51.283Z</time></trkpt><trkpt lat="35.446285" lon="10.6503467"><ele>111.5</ele><time>2026-04-04T17:48:52.284Z</time></trkpt><trkpt lat="35.44611" lon="10.6506183"><ele>108.0</ele><time>2026-04-04T17:48:53.283Z</time></trkpt><trkpt lat="35.445935" lon="10.6508883"><ele>108.0</ele><time>2026-04-04T17:48:54.284Z</time></trkpt><trkpt lat="35.4457583" lon="10.6511583"><ele>108.0</ele><time>2026-04-04T17:48:55.284Z</time></trkpt><trkpt lat="35.4455767" lon="10.6514283"><ele>109.0</ele><time>2026-04-04T17:48:56.285Z</time></trkpt><trkpt lat="35.4453933" lon="10.6517033"><ele>110.0</ele><time>2026-04-04T17:48:57.284Z</time></trkpt><trkpt lat="35.4452083" lon="10.6519833"><ele>111.5</ele><time>2026-04-04T17:48:58.285Z</time></trkpt><trkpt lat="35.44502" lon="10.6522667"><ele>113.0</ele><time>2026-04-04T17:48:59.284Z</time></trkpt><trkpt lat="35.44483" lon="10.6525517"><ele>114.5</ele><time>2026-04-04T17:49:00.285Z</time></trkpt><trkpt lat="35.4446433" lon="10.6528383"><ele>116.0</ele><time>2026-04-04T17:49:01.285Z</time></trkpt><trkpt lat="35.4444567" lon="10.653125"><ele>117.5</ele><time>2026-04-04T17:49:02.284Z</time></trkpt><trkpt lat="35.44427" lon="10.6534117"><ele>119.0</ele><time>2026-04-04T17:49:03.284Z</time></trkpt><trkpt lat="35.4440833" lon="10.653695"><ele>119.5</ele><time>2026-04-04T17:49:04.284Z</time></trkpt><trkpt lat="35.4438917" lon="10.6539817"><ele>120.0</ele><time>2026-04-04T17:49:05.284Z</time></trkpt><trkpt lat="35.44369" lon="10.6542633"><ele>122.0</ele><time>2026-04-04T17:49:06.285Z</time></trkpt><trkpt lat="35.4434817" lon="10.6545517"><ele>124.0</ele><time>2026-04-04T17:49:07.281Z</time></trkpt><trkpt lat="35.4432717" lon="10.654835"><ele>124.0</ele><time>2026-04-04T17:49:08.284Z</time></trkpt><trkpt lat="35.4430583" lon="10.6551167"><ele>124.0</ele><time>2026-04-04T17:49:09.283Z</time></trkpt><trkpt lat="35.4428383" lon="10.6554"><ele>124.0</ele><time>2026-04-04T17:49:10.284Z</time></trkpt><trkpt lat="35.442615" lon="10.6556783"><ele>124.0</ele><time>2026-04-04T17:49:11.285Z</time></trkpt><trkpt lat="35.4423933" lon="10.6559583"><ele>125.5</ele><time>2026-04-04T17:49:12.285Z</time></trkpt><trkpt lat="35.44217" lon="10.6562317"><ele>127.0</ele><time>2026-04-04T17:49:13.284Z</time></trkpt><trkpt lat="35.4419467" lon="10.656505"><ele>128.0</ele><time>2026-04-04T17:49:14.283Z</time></trkpt><trkpt lat="35.4417217" lon="10.6567783"><ele>129.0</ele><time>2026-04-04T17:49:15.284Z</time></trkpt><trkpt lat="35.4414933" lon="10.6570467"><ele>128.0</ele><time>2026-04-04T17:49:16.284Z</time></trkpt><trkpt lat="35.4412633" lon="10.6573117"><ele>127.0</ele><time>2026-04-04T17:49:17.284Z</time></trkpt><trkpt lat="35.4410317" lon="10.65757"><ele>126.5</ele><time>2026-04-04T17:49:18.285Z</time></trkpt><trkpt lat="35.4407983" lon="10.65782"><ele>126.0</ele><time>2026-04-04T17:49:19.283Z</time></trkpt><trkpt lat="35.4405617" lon="10.6580633"><ele>127.0</ele><time>2026-04-04T17:49:20.284Z</time></trkpt><trkpt lat="35.4403233" lon="10.658305"><ele>128.0</ele><time>2026-04-04T17:49:21.285Z</time></trkpt><trkpt lat="35.44008" lon="10.6585433"><ele>128.0</ele><time>2026-04-04T17:49:22.283Z</time></trkpt><trkpt lat="35.4398333" lon="10.6587817"><ele>128.0</ele><time>2026-04-04T17:49:23.285Z</time></trkpt><trkpt lat="35.4395833" lon="10.6590133"><ele>125.0</ele><time>2026-04-04T17:49:24.286Z</time></trkpt><trkpt lat="35.43933" lon="10.6592417"><ele>122.0</ele><time>2026-04-04T17:49:25.285Z</time></trkpt><trkpt lat="35.439075" lon="10.6594667"><ele>122.0</ele><time>2026-04-04T17:49:26.284Z</time></trkpt><trkpt lat="35.4388183" lon="10.6596883"><ele>122.0</ele><time>2026-04-04T17:49:27.284Z</time></trkpt><trkpt lat="35.4385617" lon="10.65991"><ele>124.5</ele><time>2026-04-04T17:49:28.284Z</time></trkpt><trkpt lat="35.438305" lon="10.6601283"><ele>127.0</ele><time>2026-04-04T17:49:29.284Z</time></trkpt><trkpt lat="35.4380483" lon="10.660345"><ele>131.5</ele><time>2026-04-04T17:49:30.284Z</time></trkpt><trkpt lat="35.4377883" lon="10.6605533"><ele>136.0</ele><time>2026-04-04T17:49:31.285Z</time></trkpt><trkpt lat="35.4375217" lon="10.660755"><ele>136.0</ele><time>2026-04-04T17:49:32.285Z</time></trkpt><trkpt lat="35.437245" lon="10.6609483"><ele>136.0</ele><time>2026-04-04T17:49:33.284Z</time></trkpt><trkpt lat="35.436965" lon="10.66114"><ele>134.5</ele><time>2026-04-04T17:49:34.281Z</time></trkpt><trkpt lat="35.4366833" lon="10.6613317"><ele>133.0</ele><time>2026-04-04T17:49:35.283Z</time></trkpt><trkpt lat="35.4364017" lon="10.6615233"><ele>134.0</ele><time>2026-04-04T17:49:36.282Z</time></trkpt><trkpt lat="35.43612" lon="10.6617133"><ele>135.0</ele><time>2026-04-04T17:49:37.281Z</time></trkpt><trkpt lat="35.4358383" lon="10.6618983"><ele>133.5</ele><time>2026-04-04T17:49:38.281Z</time></trkpt><trkpt lat="35.4355617" lon="10.6620767"><ele>132.0</ele><time>2026-04-04T17:49:39.281Z</time></trkpt><trkpt lat="35.4352817" lon="10.6622483"><ele>132.0</ele><time>2026-04-04T17:49:40.283Z</time></trkpt><trkpt lat="35.4350033" lon="10.6624133"><ele>132.0</ele><time>2026-04-04T17:49:41.282Z</time></trkpt><trkpt lat="35.4347217" lon="10.662575"><ele>132.5</ele><time>2026-04-04T17:49:42.282Z</time></trkpt><trkpt lat="35.4344333" lon="10.6627333"><ele>133.0</ele><time>2026-04-04T17:49:43.283Z</time></trkpt><trkpt lat="35.434145" lon="10.6628933"><ele>134.5</ele><time>2026-04-04T17:49:44.282Z</time></trkpt><trkpt lat="35.4338583" lon="10.6630483"><ele>136.0</ele><time>2026-04-04T17:49:45.284Z</time></trkpt><trkpt lat="35.4335683" lon="10.6631983"><ele>138.0</ele><time>2026-04-04T17:49:46.284Z</time></trkpt><trkpt lat="35.4332817" lon="10.6633433"><ele>140.0</ele><time>2026-04-04T17:49:47.284Z</time></trkpt><trkpt lat="35.4329967" lon="10.663485"><ele>138.0</ele><time>2026-04-04T17:49:48.287Z</time></trkpt><trkpt lat="35.4327133" lon="10.66363"><ele>136.0</ele><time>2026-04-04T17:49:49.284Z</time></trkpt><trkpt lat="35.4324267" lon="10.6637767"><ele>136.0</ele><time>2026-04-04T17:49:50.284Z</time></trkpt><trkpt lat="35.4321433" lon="10.663925"><ele>136.0</ele><time>2026-04-04T17:49:51.284Z</time></trkpt><trkpt lat="35.4318583" lon="10.6640717"><ele>136.5</ele><time>2026-04-04T17:49:52.284Z</time></trkpt><trkpt lat="35.4315717" lon="10.6642183"><ele>137.0</ele><time>2026-04-04T17:49:53.284Z</time></trkpt><trkpt lat="35.4312833" lon="10.664365"><ele>136.0</ele><time>2026-04-04T17:49:54.286Z</time></trkpt><trkpt lat="35.4309933" lon="10.6645117"><ele>135.0</ele><time>2026-04-04T17:49:55.285Z</time></trkpt><trkpt lat="35.4307" lon="10.6646583"><ele>134.0</ele><time>2026-04-04T17:49:56.284Z</time></trkpt><trkpt lat="35.4304083" lon="10.66481"><ele>133.0</ele><time>2026-04-04T17:49:57.284Z</time></trkpt><trkpt lat="35.430115" lon="10.6649567"><ele>133.0</ele><time>2026-04-04T17:49:58.288Z</time></trkpt><trkpt lat="35.4298217" lon="10.6651067"><ele>133.0</ele><time>2026-04-04T17:49:59.285Z</time></trkpt><trkpt lat="35.4295283" lon="10.6652567"><ele>130.5</ele><time>2026-04-04T17:50:00.285Z</time></trkpt><trkpt lat="35.4292367" lon="10.6654083"><ele>128.0</ele><time>2026-04-04T17:50:01.285Z</time></trkpt><trkpt lat="35.4289467" lon="10.6655583"><ele>126.0</ele><time>2026-04-04T17:50:02.285Z</time></trkpt><trkpt lat="35.428655" lon="10.6657067"><ele>124.0</ele><time>2026-04-04T17:50:03.285Z</time></trkpt><trkpt lat="35.4283683" lon="10.6658567"><ele>124.0</ele><time>2026-04-04T17:50:04.281Z</time></trkpt><trkpt lat="35.4280817" lon="10.666005"><ele>124.0</ele><time>2026-04-04T17:50:05.283Z</time></trkpt><trkpt lat="35.4277967" lon="10.6661517"><ele>125.0</ele><time>2026-04-04T17:50:06.283Z</time></trkpt><trkpt lat="35.4275117" lon="10.6662983"><ele>126.0</ele><time>2026-04-04T17:50:07.283Z</time></trkpt><trkpt lat="35.4272233" lon="10.666445"><ele>129.0</ele><time>2026-04-04T17:50:08.282Z</time></trkpt><trkpt lat="35.426935" lon="10.66659"><ele>132.0</ele><time>2026-04-04T17:50:09.283Z</time></trkpt><trkpt lat="35.4266467" lon="10.6667383"><ele>132.0</ele><time>2026-04-04T17:50:10.283Z</time></trkpt><trkpt lat="35.4263567" lon="10.666885"><ele>132.0</ele><time>2026-04-04T17:50:11.283Z</time></trkpt><trkpt lat="35.4260667" lon="10.6670333"><ele>132.5</ele><time>2026-04-04T17:50:12.283Z</time></trkpt><trkpt lat="35.425775" lon="10.6671817"><ele>133.0</ele><time>2026-04-04T17:50:13.282Z</time></trkpt><trkpt lat="35.4254817" lon="10.6673333"><ele>135.5</ele><time>2026-04-04T17:50:14.282Z</time></trkpt><trkpt lat="35.42519" lon="10.6674867"><ele>138.0</ele><time>2026-04-04T17:50:15.282Z</time></trkpt><trkpt lat="35.4248967" lon="10.66764"><ele>137.5</ele><time>2026-04-04T17:50:16.283Z</time></trkpt><trkpt lat="35.424605" lon="10.6677967"><ele>137.0</ele><time>2026-04-04T17:50:17.283Z</time></trkpt><trkpt lat="35.4243133" lon="10.6679533"><ele>137.0</ele><time>2026-04-04T17:50:18.283Z</time></trkpt><trkpt lat="35.4240183" lon="10.66811"><ele>137.0</ele><time>2026-04-04T17:50:19.282Z</time></trkpt><trkpt lat="35.423725" lon="10.6682667"><ele>137.5</ele><time>2026-04-04T17:50:20.282Z</time></trkpt><trkpt lat="35.4234317" lon="10.66842"><ele>138.0</ele><time>2026-04-04T17:50:21.283Z</time></trkpt><trkpt lat="35.4231367" lon="10.6685717"><ele>138.5</ele><time>2026-04-04T17:50:22.283Z</time></trkpt><trkpt lat="35.42284" lon="10.6687233"><ele>139.0</ele><time>2026-04-04T17:50:23.283Z</time></trkpt><trkpt lat="35.4225433" lon="10.668875"><ele>139.0</ele><time>2026-04-04T17:50:24.283Z</time></trkpt><trkpt lat="35.4222483" lon="10.6690283"><ele>139.0</ele><time>2026-04-04T17:50:25.283Z</time></trkpt><trkpt lat="35.4219567" lon="10.66918"><ele>139.5</ele><time>2026-04-04T17:50:26.283Z</time></trkpt><trkpt lat="35.4216667" lon="10.6693283"><ele>140.0</ele><time>2026-04-04T17:50:27.285Z</time></trkpt><trkpt lat="35.4213817" lon="10.66947"><ele>139.5</ele><time>2026-04-04T17:50:28.283Z</time></trkpt><trkpt lat="35.421095" lon="10.66961"><ele>139.0</ele><time>2026-04-04T17:50:29.282Z</time></trkpt><trkpt lat="35.4208083" lon="10.6697483"><ele>139.0</ele><time>2026-04-04T17:50:30.284Z</time></trkpt><trkpt lat="35.4205217" lon="10.66989"><ele>139.0</ele><time>2026-04-04T17:50:31.284Z</time></trkpt><trkpt lat="35.420235" lon="10.6700367"><ele>140.0</ele><time>2026-04-04T17:50:32.285Z</time></trkpt><trkpt lat="35.419955" lon="10.6701833"><ele>141.0</ele><time>2026-04-04T17:50:33.284Z</time></trkpt><trkpt lat="35.419675" lon="10.6703317"><ele>140.0</ele><time>2026-04-04T17:50:34.282Z</time></trkpt><trkpt lat="35.419395" lon="10.67048"><ele>139.0</ele><time>2026-04-04T17:50:35.281Z</time></trkpt><trkpt lat="35.419115" lon="10.67063"><ele>139.0</ele><time>2026-04-04T17:50:36.283Z</time></trkpt><trkpt lat="35.4188333" lon="10.6707783"><ele>139.0</ele><time>2026-04-04T17:50:37.282Z</time></trkpt><trkpt lat="35.41855" lon="10.670925"><ele>138.5</ele><time>2026-04-04T17:50:38.283Z</time></trkpt><trkpt lat="35.418265" lon="10.671075"><ele>138.0</ele><time>2026-04-04T17:50:39.282Z</time></trkpt><trkpt lat="35.4179767" lon="10.671225"><ele>140.0</ele><time>2026-04-04T17:50:40.282Z</time></trkpt><trkpt lat="35.417685" lon="10.6713717"><ele>142.0</ele><time>2026-04-04T17:50:41.282Z</time></trkpt><trkpt lat="35.4173917" lon="10.671515"><ele>144.5</ele><time>2026-04-04T17:50:42.282Z</time></trkpt><trkpt lat="35.4170967" lon="10.6716567"><ele>147.0</ele><time>2026-04-04T17:50:43.283Z</time></trkpt><trkpt lat="35.4168033" lon="10.6718"><ele>146.0</ele><time>2026-04-04T17:50:44.282Z</time></trkpt><trkpt lat="35.4165083" lon="10.67195"><ele>145.0</ele><time>2026-04-04T17:50:45.284Z</time></trkpt><trkpt lat="35.4162117" lon="10.6721"><ele>147.5</ele><time>2026-04-04T17:50:46.284Z</time></trkpt><trkpt lat="35.4159217" lon="10.67225"><ele>150.0</ele><time>2026-04-04T17:50:47.284Z</time></trkpt><trkpt lat="35.41563" lon="10.6723983"><ele>152.0</ele><time>2026-04-04T17:50:48.285Z</time></trkpt><trkpt lat="35.41534" lon="10.672545"><ele>154.0</ele><time>2026-04-04T17:50:49.284Z</time></trkpt><trkpt lat="35.41505" lon="10.6726917"><ele>153.5</ele><time>2026-04-04T17:50:50.284Z</time></trkpt><trkpt lat="35.4147567" lon="10.67284"><ele>153.0</ele><time>2026-04-04T17:50:51.285Z</time></trkpt><trkpt lat="35.414465" lon="10.67299"><ele>154.5</ele><time>2026-04-04T17:50:52.285Z</time></trkpt><trkpt lat="35.414175" lon="10.67314"><ele>156.0</ele><time>2026-04-04T17:50:53.284Z</time></trkpt><trkpt lat="35.4138817" lon="10.67329"><ele>155.5</ele><time>2026-04-04T17:50:54.286Z</time></trkpt><trkpt lat="35.4135917" lon="10.6734383"><ele>155.0</ele><time>2026-04-04T17:50:55.284Z</time></trkpt><trkpt lat="35.4133" lon="10.6735883"><ele>155.0</ele><time>2026-04-04T17:50:56.284Z</time></trkpt><trkpt lat="35.4130083" lon="10.6737367"><ele>155.0</ele><time>2026-04-04T17:50:57.284Z</time></trkpt><trkpt lat="35.4127167" lon="10.6738817"><ele>152.5</ele><time>2026-04-04T17:50:58.286Z</time></trkpt><trkpt lat="35.412425" lon="10.674025"><ele>150.0</ele><time>2026-04-04T17:50:59.285Z</time></trkpt><trkpt lat="35.4121317" lon="10.6741683"><ele>149.5</ele><time>2026-04-04T17:51:00.285Z</time></trkpt><trkpt lat="35.4118367" lon="10.6743033"><ele>149.0</ele><time>2026-04-04T17:51:01.284Z</time></trkpt><trkpt lat="35.4115433" lon="10.6744317"><ele>147.0</ele><time>2026-04-04T17:51:02.284Z</time></trkpt><trkpt lat="35.4112467" lon="10.6745583"><ele>145.0</ele><time>2026-04-04T17:51:03.283Z</time></trkpt><trkpt lat="35.41095" lon="10.6746767"><ele>145.0</ele><time>2026-04-04T17:51:04.283Z</time></trkpt><trkpt lat="35.4106517" lon="10.67479"><ele>145.0</ele><time>2026-04-04T17:51:05.281Z</time></trkpt><trkpt lat="35.4103533" lon="10.6748967"><ele>146.5</ele><time>2026-04-04T17:51:06.282Z</time></trkpt><trkpt lat="35.41005" lon="10.6749983"><ele>148.0</ele><time>2026-04-04T17:51:07.282Z</time></trkpt><trkpt lat="35.4097433" lon="10.6750933"><ele>149.0</ele><time>2026-04-04T17:51:08.281Z</time></trkpt><trkpt lat="35.4094367" lon="10.6751833"><ele>150.0</ele><time>2026-04-04T17:51:09.282Z</time></trkpt><trkpt lat="35.409125" lon="10.675265"><ele>152.0</ele><time>2026-04-04T17:51:10.282Z</time></trkpt><trkpt lat="35.4088133" lon="10.67534"><ele>154.0</ele><time>2026-04-04T17:51:11.282Z</time></trkpt><trkpt lat="35.4085" lon="10.6754083"><ele>154.0</ele><time>2026-04-04T17:51:12.283Z</time></trkpt><trkpt lat="35.408185" lon="10.6754733"><ele>154.0</ele><time>2026-04-04T17:51:13.283Z</time></trkpt><trkpt lat="35.40787" lon="10.6755333"><ele>155.5</ele><time>2026-04-04T17:51:14.282Z</time></trkpt><trkpt lat="35.40755" lon="10.6755883"><ele>157.0</ele><time>2026-04-04T17:51:15.284Z</time></trkpt><trkpt lat="35.407225" lon="10.6756367"><ele>157.5</ele><time>2026-04-04T17:51:16.285Z</time></trkpt><trkpt lat="35.4068883" lon="10.6756767"><ele>158.0</ele><time>2026-04-04T17:51:17.284Z</time></trkpt><trkpt lat="35.4065483" lon="10.6757083"><ele>158.5</ele><time>2026-04-04T17:51:18.286Z</time></trkpt><trkpt lat="35.406205" lon="10.6757267"><ele>159.0</ele><time>2026-04-04T17:51:19.284Z</time></trkpt><trkpt lat="35.4058617" lon="10.6757317"><ele>159.0</ele><time>2026-04-04T17:51:20.285Z</time></trkpt><trkpt lat="35.405525" lon="10.6757283"><ele>159.0</ele><time>2026-04-04T17:51:21.284Z</time></trkpt><trkpt lat="35.4051967" lon="10.6757183"><ele>159.0</ele><time>2026-04-04T17:51:22.284Z</time></trkpt><trkpt lat="35.4048717" lon="10.6757017"><ele>159.0</ele><time>2026-04-04T17:51:23.285Z</time></trkpt><trkpt lat="35.4045483" lon="10.6756817"><ele>158.0</ele><time>2026-04-04T17:51:24.285Z</time></trkpt><trkpt lat="35.4042283" lon="10.6756583"><ele>157.0</ele><time>2026-04-04T17:51:25.284Z</time></trkpt><trkpt lat="35.40391" lon="10.6756267"><ele>157.5</ele><time>2026-04-04T17:51:26.285Z</time></trkpt><trkpt lat="35.40359" lon="10.675585"><ele>158.0</ele><time>2026-04-04T17:51:27.284Z</time></trkpt><trkpt lat="35.4032717" lon="10.6755383"><ele>157.0</ele><time>2026-04-04T17:51:28.284Z</time></trkpt><trkpt lat="35.4029583" lon="10.6754883"><ele>156.0</ele><time>2026-04-04T17:51:29.284Z</time></trkpt><trkpt lat="35.402645" lon="10.6754333"><ele>156.0</ele><time>2026-04-04T17:51:30.286Z</time></trkpt><trkpt lat="35.402335" lon="10.6753783"><ele>156.0</ele><time>2026-04-04T17:51:31.281Z</time></trkpt><trkpt lat="35.40202" lon="10.6753183"><ele>153.5</ele><time>2026-04-04T17:51:32.285Z</time></trkpt><trkpt lat="35.4017017" lon="10.6752567"><ele>151.0</ele><time>2026-04-04T17:51:33.281Z</time></trkpt><trkpt lat="35.4013833" lon="10.6751933"><ele>150.5</ele><time>2026-04-04T17:51:34.283Z</time></trkpt><trkpt lat="35.4010683" lon="10.6751283"><ele>150.0</ele><time>2026-04-04T17:51:35.284Z</time></trkpt><trkpt lat="35.4007533" lon="10.675065"><ele>148.5</ele><time>2026-04-04T17:51:36.283Z</time></trkpt><trkpt lat="35.4004383" lon="10.6750017"><ele>147.0</ele><time>2026-04-04T17:51:37.284Z</time></trkpt><trkpt lat="35.4001217" lon="10.6749417"><ele>147.0</ele><time>2026-04-04T17:51:38.282Z</time></trkpt><trkpt lat="35.3998017" lon="10.6748833"><ele>147.0</ele><time>2026-04-04T17:51:39.284Z</time></trkpt><trkpt lat="35.3994817" lon="10.6748217"><ele>145.0</ele><time>2026-04-04T17:51:40.285Z</time></trkpt><trkpt lat="35.39916" lon="10.6747567"><ele>143.0</ele><time>2026-04-04T17:51:41.285Z</time></trkpt><trkpt lat="35.3988383" lon="10.6746917"><ele>141.5</ele><time>2026-04-04T17:51:42.285Z</time></trkpt><trkpt lat="35.3985183" lon="10.6746267"><ele>140.0</ele><time>2026-04-04T17:51:43.284Z</time></trkpt><trkpt lat="35.3982" lon="10.674565"><ele>138.0</ele><time>2026-04-04T17:51:44.284Z</time></trkpt><trkpt lat="35.3978833" lon="10.6745017"><ele>136.0</ele><time>2026-04-04T17:51:45.284Z</time></trkpt><trkpt lat="35.3975667" lon="10.6744417"><ele>135.5</ele><time>2026-04-04T17:51:46.284Z</time></trkpt><trkpt lat="35.397255" lon="10.67438"><ele>135.0</ele><time>2026-04-04T17:51:47.284Z</time></trkpt><trkpt lat="35.396945" lon="10.6743217"><ele>135.0</ele><time>2026-04-04T17:51:48.282Z</time></trkpt><trkpt lat="35.3966417" lon="10.674265"><ele>135.0</ele><time>2026-04-04T17:51:49.284Z</time></trkpt><trkpt lat="35.3963367" lon="10.6742083"><ele>133.0</ele><time>2026-04-04T17:51:50.284Z</time></trkpt><trkpt lat="35.3960367" lon="10.6741533"><ele>131.0</ele><time>2026-04-04T17:51:51.284Z</time></trkpt><trkpt lat="35.395735" lon="10.6740983"><ele>132.5</ele><time>2026-04-04T17:51:52.284Z</time></trkpt><trkpt lat="35.3954333" lon="10.67404"><ele>134.0</ele><time>2026-04-04T17:51:53.284Z</time></trkpt><trkpt lat="35.3951317" lon="10.6739817"><ele>134.0</ele><time>2026-04-04T17:51:54.285Z</time></trkpt><trkpt lat="35.394825" lon="10.6739217"><ele>134.0</ele><time>2026-04-04T17:51:55.284Z</time></trkpt><trkpt lat="35.3945133" lon="10.67386"><ele>134.5</ele><time>2026-04-04T17:51:56.285Z</time></trkpt><trkpt lat="35.3941983" lon="10.6738"><ele>135.0</ele><time>2026-04-04T17:51:57.284Z</time></trkpt><trkpt lat="35.39388" lon="10.6737383"><ele>137.0</ele><time>2026-04-04T17:51:58.284Z</time></trkpt><trkpt lat="35.393565" lon="10.6736767"><ele>139.0</ele><time>2026-04-04T17:51:59.284Z</time></trkpt><trkpt lat="35.3932517" lon="10.673615"><ele>138.0</ele><time>2026-04-04T17:52:00.285Z</time></trkpt><trkpt lat="35.3929433" lon="10.6735517"><ele>137.0</ele><time>2026-04-04T17:52:01.285Z</time></trkpt><trkpt lat="35.39263" lon="10.67349"><ele>137.0</ele><time>2026-04-04T17:52:02.285Z</time></trkpt><trkpt lat="35.3923167" lon="10.6734233"><ele>137.0</ele><time>2026-04-04T17:52:03.283Z</time></trkpt><trkpt lat="35.3920033" lon="10.67335"><ele>136.0</ele><time>2026-04-04T17:52:04.282Z</time></trkpt><trkpt lat="35.3916917" lon="10.6732717"><ele>135.0</ele><time>2026-04-04T17:52:05.283Z</time></trkpt><trkpt lat="35.3913767" lon="10.67319"><ele>134.0</ele><time>2026-04-04T17:52:06.282Z</time></trkpt><trkpt lat="35.3910633" lon="10.673105"><ele>133.0</ele><time>2026-04-04T17:52:07.282Z</time></trkpt><trkpt lat="35.39075" lon="10.6730183"><ele>131.0</ele><time>2026-04-04T17:52:08.281Z</time></trkpt><trkpt lat="35.39044" lon="10.6729283"><ele>129.0</ele><time>2026-04-04T17:52:09.282Z</time></trkpt><trkpt lat="35.3901333" lon="10.6728333"><ele>129.5</ele><time>2026-04-04T17:52:10.286Z</time></trkpt><trkpt lat="35.3898283" lon="10.6727367"><ele>130.0</ele><time>2026-04-04T17:52:11.284Z</time></trkpt><trkpt lat="35.3895267" lon="10.672635"><ele>130.0</ele><time>2026-04-04T17:52:12.285Z</time></trkpt><trkpt lat="35.3892267" lon="10.6725283"><ele>130.0</ele><time>2026-04-04T17:52:13.285Z</time></trkpt><trkpt lat="35.3889283" lon="10.67242"><ele>130.0</ele><time>2026-04-04T17:52:14.284Z</time></trkpt><trkpt lat="35.3886317" lon="10.67231"><ele>130.0</ele><time>2026-04-04T17:52:15.284Z</time></trkpt><trkpt lat="35.388335" lon="10.672195"><ele>130.0</ele><time>2026-04-04T17:52:16.284Z</time></trkpt><trkpt lat="35.38804" lon="10.672075"><ele>130.0</ele><time>2026-04-04T17:52:17.284Z</time></trkpt><trkpt lat="35.3877433" lon="10.6719517"><ele>132.0</ele><time>2026-04-04T17:52:18.285Z</time></trkpt><trkpt lat="35.3874483" lon="10.6718233"><ele>134.0</ele><time>2026-04-04T17:52:19.288Z</time></trkpt><trkpt lat="35.3871533" lon="10.6716933"><ele>134.0</ele><time>2026-04-04T17:52:20.285Z</time></trkpt><trkpt lat="35.3868583" lon="10.67156"><ele>134.0</ele><time>2026-04-04T17:52:21.284Z</time></trkpt><trkpt lat="35.3865683" lon="10.6714233"><ele>133.5</ele><time>2026-04-04T17:52:22.284Z</time></trkpt><trkpt lat="35.3862817" lon="10.671285"><ele>133.0</ele><time>2026-04-04T17:52:23.284Z</time></trkpt><trkpt lat="35.3859917" lon="10.671145"><ele>133.0</ele><time>2026-04-04T17:52:24.285Z</time></trkpt><trkpt lat="35.385705" lon="10.6710033"><ele>133.0</ele><time>2026-04-04T17:52:25.284Z</time></trkpt><trkpt lat="35.385415" lon="10.6708583"><ele>131.0</ele><time>2026-04-04T17:52:26.284Z</time></trkpt><trkpt lat="35.3851267" lon="10.67071"><ele>129.0</ele><time>2026-04-04T17:52:27.285Z</time></trkpt><trkpt lat="35.384835" lon="10.670555"><ele>128.0</ele><time>2026-04-04T17:52:28.284Z</time></trkpt><trkpt lat="35.38454" lon="10.6703917"><ele>127.0</ele><time>2026-04-04T17:52:29.285Z</time></trkpt><trkpt lat="35.3842383" lon="10.67022"><ele>130.0</ele><time>2026-04-04T17:52:30.285Z</time></trkpt><trkpt lat="35.3839383" lon="10.6700417"><ele>133.0</ele><time>2026-04-04T17:52:31.284Z</time></trkpt><trkpt lat="35.3836417" lon="10.6698617"><ele>134.5</ele><time>2026-04-04T17:52:32.284Z</time></trkpt><trkpt lat="35.38335" lon="10.6696767"><ele>136.0</ele><time>2026-04-04T17:52:33.284Z</time></trkpt><trkpt lat="35.3830617" lon="10.66949"><ele>136.0</ele><time>2026-04-04T17:52:34.284Z</time></trkpt><trkpt lat="35.3827717" lon="10.6693033"><ele>136.0</ele><time>2026-04-04T17:52:35.285Z</time></trkpt><trkpt lat="35.38248" lon="10.6691183"><ele>136.0</ele><time>2026-04-04T17:52:36.285Z</time></trkpt><trkpt lat="35.3821867" lon="10.66894"><ele>136.0</ele><time>2026-04-04T17:52:37.286Z</time></trkpt><trkpt lat="35.38189" lon="10.6687667"><ele>132.5</ele><time>2026-04-04T17:52:38.284Z</time></trkpt><trkpt lat="35.3816" lon="10.6685917"><ele>129.0</ele><time>2026-04-04T17:52:39.284Z</time></trkpt><trkpt lat="35.3813133" lon="10.66842"><ele>128.0</ele><time>2026-04-04T17:52:40.285Z</time></trkpt><trkpt lat="35.381025" lon="10.66825"><ele>127.0</ele><time>2026-04-04T17:52:41.285Z</time></trkpt><trkpt lat="35.3807367" lon="10.66808"><ele>125.5</ele><time>2026-04-04T17:52:42.286Z</time></trkpt><trkpt lat="35.38045" lon="10.66791"><ele>124.0</ele><time>2026-04-04T17:52:43.284Z</time></trkpt><trkpt lat="35.380165" lon="10.6677383"><ele>122.5</ele><time>2026-04-04T17:52:44.285Z</time></trkpt><trkpt lat="35.37988" lon="10.6675667"><ele>121.0</ele><time>2026-04-04T17:52:45.284Z</time></trkpt><trkpt lat="35.3795967" lon="10.6673967"><ele>119.5</ele><time>2026-04-04T17:52:46.284Z</time></trkpt><trkpt lat="35.37932" lon="10.6672267"><ele>118.0</ele><time>2026-04-04T17:52:47.284Z</time></trkpt><trkpt lat="35.379045" lon="10.6670583"><ele>120.5</ele><time>2026-04-04T17:52:48.285Z</time></trkpt><trkpt lat="35.3787767" lon="10.6668967"><ele>123.0</ele><time>2026-04-04T17:52:49.285Z</time></trkpt><trkpt lat="35.378505" lon="10.6667333"><ele>123.0</ele><time>2026-04-04T17:52:50.284Z</time></trkpt><trkpt lat="35.3782333" lon="10.6665733"><ele>123.0</ele><time>2026-04-04T17:52:51.285Z</time></trkpt><trkpt lat="35.3779667" lon="10.6664133"><ele>121.5</ele><time>2026-04-04T17:52:52.285Z</time></trkpt><trkpt lat="35.377705" lon="10.6662567"><ele>120.0</ele><time>2026-04-04T17:52:53.285Z</time></trkpt><trkpt lat="35.3774433" lon="10.6660983"><ele>120.5</ele><time>2026-04-04T17:52:54.285Z</time></trkpt><trkpt lat="35.3771817" lon="10.6659417"><ele>121.0</ele><time>2026-04-04T17:52:55.284Z</time></trkpt><trkpt lat="35.3769217" lon="10.665785"><ele>121.0</ele><time>2026-04-04T17:52:56.285Z</time></trkpt><trkpt lat="35.37666" lon="10.6656267"><ele>121.0</ele><time>2026-04-04T17:52:57.284Z</time></trkpt><trkpt lat="35.3763983" lon="10.6654717"><ele>123.0</ele><time>2026-04-04T17:52:58.284Z</time></trkpt><trkpt lat="35.376135" lon="10.6653183"><ele>125.0</ele><time>2026-04-04T17:52:59.284Z</time></trkpt><trkpt lat="35.37587" lon="10.6651683"><ele>125.0</ele><time>2026-04-04T17:53:00.282Z</time></trkpt><trkpt lat="35.3756017" lon="10.6650233"><ele>125.0</ele><time>2026-04-04T17:53:01.286Z</time></trkpt><trkpt lat="35.3753333" lon="10.66488"><ele>127.0</ele><time>2026-04-04T17:53:02.284Z</time></trkpt><trkpt lat="35.3750667" lon="10.6647383"><ele>129.0</ele><time>2026-04-04T17:53:03.284Z</time></trkpt><trkpt lat="35.374795" lon="10.6646017"><ele>130.0</ele><time>2026-04-04T17:53:04.284Z</time></trkpt><trkpt lat="35.3745183" lon="10.6644683"><ele>131.0</ele><time>2026-04-04T17:53:05.284Z</time></trkpt><trkpt lat="35.3742333" lon="10.6643383"><ele>131.0</ele><time>2026-04-04T17:53:06.286Z</time></trkpt><trkpt lat="35.3739417" lon="10.6642083"><ele>131.0</ele><time>2026-04-04T17:53:07.284Z</time></trkpt><trkpt lat="35.3736383" lon="10.6640767"><ele>131.0</ele><time>2026-04-04T17:53:08.284Z</time></trkpt><trkpt lat="35.373335" lon="10.66394"><ele>131.0</ele><time>2026-04-04T17:53:09.284Z</time></trkpt><trkpt lat="35.3730217" lon="10.6638067"><ele>132.0</ele><time>2026-04-04T17:53:10.284Z</time></trkpt><trkpt lat="35.3727033" lon="10.6636767"><ele>133.0</ele><time>2026-04-04T17:53:11.284Z</time></trkpt><trkpt lat="35.3723833" lon="10.6635483"><ele>134.0</ele><time>2026-04-04T17:53:12.285Z</time></trkpt><trkpt lat="35.37206" lon="10.6634233"><ele>135.0</ele><time>2026-04-04T17:53:13.285Z</time></trkpt><trkpt lat="35.3717317" lon="10.663305"><ele>135.0</ele><time>2026-04-04T17:53:14.284Z</time></trkpt><trkpt lat="35.3714083" lon="10.6631917"><ele>135.0</ele><time>2026-04-04T17:53:15.285Z</time></trkpt><trkpt lat="35.3710867" lon="10.6630767"><ele>136.0</ele><time>2026-04-04T17:53:16.285Z</time></trkpt><trkpt lat="35.370765" lon="10.6629633"><ele>137.0</ele><time>2026-04-04T17:53:17.285Z</time></trkpt><trkpt lat="35.3704417" lon="10.6628533"><ele>136.5</ele><time>2026-04-04T17:53:18.286Z</time></trkpt><trkpt lat="35.3701167" lon="10.662745"><ele>136.0</ele><time>2026-04-04T17:53:19.284Z</time></trkpt><trkpt lat="35.369795" lon="10.6626517"><ele>134.5</ele><time>2026-04-04T17:53:20.284Z</time></trkpt><trkpt lat="35.36947" lon="10.6625633"><ele>133.0</ele><time>2026-04-04T17:53:21.284Z</time></trkpt><trkpt lat="35.36915" lon="10.6624783"><ele>133.5</ele><time>2026-04-04T17:53:22.284Z</time></trkpt><trkpt lat="35.36883" lon="10.6623967"><ele>134.0</ele><time>2026-04-04T17:53:23.284Z</time></trkpt><trkpt lat="35.36851" lon="10.66232"><ele>134.0</ele><time>2026-04-04T17:53:24.286Z</time></trkpt><trkpt lat="35.3681933" lon="10.66225"><ele>134.0</ele><time>2026-04-04T17:53:25.284Z</time></trkpt><trkpt lat="35.36789" lon="10.6621867"><ele>133.0</ele><time>2026-04-04T17:53:26.284Z</time></trkpt><trkpt lat="35.36759" lon="10.66213"><ele>132.0</ele><time>2026-04-04T17:53:27.287Z</time></trkpt><trkpt lat="35.3672883" lon="10.662075"><ele>131.0</ele><time>2026-04-04T17:53:28.284Z</time></trkpt><trkpt lat="35.3669867" lon="10.662025"><ele>130.0</ele><time>2026-04-04T17:53:29.284Z</time></trkpt><trkpt lat="35.3666833" lon="10.6619817"><ele>130.0</ele><time>2026-04-04T17:53:30.286Z</time></trkpt><trkpt lat="35.3663817" lon="10.6619417"><ele>130.0</ele><time>2026-04-04T17:53:31.284Z</time></trkpt><trkpt lat="35.3660767" lon="10.661905"><ele>130.0</ele><time>2026-04-04T17:53:32.284Z</time></trkpt><trkpt lat="35.365775" lon="10.66187"><ele>130.0</ele><time>2026-04-04T17:53:33.284Z</time></trkpt><trkpt lat="35.365475" lon="10.6618383"><ele>130.0</ele><time>2026-04-04T17:53:34.284Z</time></trkpt><trkpt lat="35.365175" lon="10.6618033"><ele>130.0</ele><time>2026-04-04T17:53:35.284Z</time></trkpt><trkpt lat="35.364875" lon="10.66177"><ele>130.0</ele><time>2026-04-04T17:53:36.287Z</time></trkpt><trkpt lat="35.3645767" lon="10.6617317"><ele>130.0</ele><time>2026-04-04T17:53:37.284Z</time></trkpt><trkpt lat="35.3642717" lon="10.6616917"><ele>130.0</ele><time>2026-04-04T17:53:38.284Z</time></trkpt><trkpt lat="35.3639633" lon="10.6616483"><ele>130.0</ele><time>2026-04-04T17:53:39.285Z</time></trkpt><trkpt lat="35.363655" lon="10.6616067"><ele>130.5</ele><time>2026-04-04T17:53:40.284Z</time></trkpt><trkpt lat="35.3633433" lon="10.661565"><ele>131.0</ele><time>2026-04-04T17:53:41.284Z</time></trkpt><trkpt lat="35.3630333" lon="10.661525"><ele>130.0</ele><time>2026-04-04T17:53:42.286Z</time></trkpt><trkpt lat="35.3627183" lon="10.6614833"><ele>129.0</ele><time>2026-04-04T17:53:43.285Z</time></trkpt><trkpt lat="35.3624017" lon="10.6614433"><ele>129.0</ele><time>2026-04-04T17:53:44.285Z</time></trkpt><trkpt lat="35.3620833" lon="10.661405"><ele>129.0</ele><time>2026-04-04T17:53:45.284Z</time></trkpt><trkpt lat="35.361765" lon="10.6613633"><ele>129.0</ele><time>2026-04-04T17:53:46.284Z</time></trkpt><trkpt lat="35.361445" lon="10.6613217"><ele>129.0</ele><time>2026-04-04T17:53:47.284Z</time></trkpt><trkpt lat="35.361125" lon="10.6612817"><ele>128.5</ele><time>2026-04-04T17:53:48.286Z</time></trkpt><trkpt lat="35.3608067" lon="10.6612433"><ele>128.0</ele><time>2026-04-04T17:53:49.284Z</time></trkpt><trkpt lat="35.3604867" lon="10.6612067"><ele>128.0</ele><time>2026-04-04T17:53:50.284Z</time></trkpt><trkpt lat="35.3601683" lon="10.66117"><ele>128.0</ele><time>2026-04-04T17:53:51.284Z</time></trkpt><trkpt lat="35.3598483" lon="10.6611317"><ele>125.5</ele><time>2026-04-04T17:53:52.284Z</time></trkpt><trkpt lat="35.3595283" lon="10.6610917"><ele>123.0</ele><time>2026-04-04T17:53:53.284Z</time></trkpt><trkpt lat="35.35921" lon="10.6610517"><ele>123.0</ele><time>2026-04-04T17:53:54.285Z</time></trkpt><trkpt lat="35.3588933" lon="10.6610133"><ele>123.0</ele><time>2026-04-04T17:53:55.284Z</time></trkpt><trkpt lat="35.358575" lon="10.6609733"><ele>122.5</ele><time>2026-04-04T17:53:56.284Z</time></trkpt><trkpt lat="35.35826" lon="10.660935"><ele>122.0</ele><time>2026-04-04T17:53:57.284Z</time></trkpt><trkpt lat="35.357945" lon="10.6608967"><ele>122.0</ele><time>2026-04-04T17:53:58.284Z</time></trkpt><trkpt lat="35.357635" lon="10.66086"><ele>122.0</ele><time>2026-04-04T17:53:59.285Z</time></trkpt><trkpt lat="35.3573233" lon="10.66083"><ele>123.5</ele><time>2026-04-04T17:54:00.285Z</time></trkpt><trkpt lat="35.357015" lon="10.6608017"><ele>125.0</ele><time>2026-04-04T17:54:01.284Z</time></trkpt><trkpt lat="35.356705" lon="10.6607733"><ele>125.0</ele><time>2026-04-04T17:54:02.285Z</time></trkpt><trkpt lat="35.3563983" lon="10.66074"><ele>125.0</ele><time>2026-04-04T17:54:03.284Z</time></trkpt><trkpt lat="35.3560917" lon="10.6607067"><ele>125.0</ele><time>2026-04-04T17:54:04.284Z</time></trkpt><trkpt lat="35.355785" lon="10.6606733"><ele>125.0</ele><time>2026-04-04T17:54:05.285Z</time></trkpt><trkpt lat="35.35548" lon="10.66064"><ele>125.0</ele><time>2026-04-04T17:54:06.283Z</time></trkpt><trkpt lat="35.3551717" lon="10.6606033"><ele>125.0</ele><time>2026-04-04T17:54:07.285Z</time></trkpt><trkpt lat="35.3548567" lon="10.6605633"><ele>124.5</ele><time>2026-04-04T17:54:08.285Z</time></trkpt><trkpt lat="35.3545417" lon="10.6605233"><ele>124.0</ele><time>2026-04-04T17:54:09.284Z</time></trkpt><trkpt lat="35.3542217" lon="10.66048"><ele>124.0</ele><time>2026-04-04T17:54:10.284Z</time></trkpt><trkpt lat="35.3539033" lon="10.660435"><ele>124.0</ele><time>2026-04-04T17:54:11.286Z</time></trkpt><trkpt lat="35.353585" lon="10.6603933"><ele>125.0</ele><time>2026-04-04T17:54:12.285Z</time></trkpt><trkpt lat="35.3532667" lon="10.6603517"><ele>126.0</ele><time>2026-04-04T17:54:13.284Z</time></trkpt><trkpt lat="35.3529467" lon="10.66031"><ele>126.0</ele><time>2026-04-04T17:54:14.285Z</time></trkpt><trkpt lat="35.3526283" lon="10.6602667"><ele>126.0</ele><time>2026-04-04T17:54:15.284Z</time></trkpt><trkpt lat="35.3523083" lon="10.66022"><ele>125.0</ele><time>2026-04-04T17:54:16.284Z</time></trkpt><trkpt lat="35.3519883" lon="10.6601667"><ele>124.0</ele><time>2026-04-04T17:54:17.285Z</time></trkpt><trkpt lat="35.3516717" lon="10.66011"><ele>123.0</ele><time>2026-04-04T17:54:18.285Z</time></trkpt><trkpt lat="35.3513517" lon="10.6600533"><ele>122.0</ele><time>2026-04-04T17:54:19.285Z</time></trkpt><trkpt lat="35.351035" lon="10.6599933"><ele>122.0</ele><time>2026-04-04T17:54:20.284Z</time></trkpt><trkpt lat="35.3507167" lon="10.6599317"><ele>122.0</ele><time>2026-04-04T17:54:21.285Z</time></trkpt><trkpt lat="35.350395" lon="10.6598683"><ele>120.0</ele><time>2026-04-04T17:54:22.284Z</time></trkpt><trkpt lat="35.350075" lon="10.6598033"><ele>118.0</ele><time>2026-04-04T17:54:23.284Z</time></trkpt><trkpt lat="35.3497533" lon="10.659735"><ele>121.5</ele><time>2026-04-04T17:54:24.286Z</time></trkpt><trkpt lat="35.3494333" lon="10.65966"><ele>125.0</ele><time>2026-04-04T17:54:25.284Z</time></trkpt><trkpt lat="35.3491083" lon="10.65958"><ele>126.0</ele><time>2026-04-04T17:54:26.285Z</time></trkpt><trkpt lat="35.348785" lon="10.6594983"><ele>127.0</ele><time>2026-04-04T17:54:27.285Z</time></trkpt><trkpt lat="35.3484583" lon="10.6594183"><ele>127.0</ele><time>2026-04-04T17:54:28.285Z</time></trkpt><trkpt lat="35.3481333" lon="10.659335"><ele>127.0</ele><time>2026-04-04T17:54:29.284Z</time></trkpt><trkpt lat="35.347815" lon="10.6592533"><ele>124.0</ele><time>2026-04-04T17:54:30.285Z</time></trkpt><trkpt lat="35.3475033" lon="10.6591717"><ele>121.0</ele><time>2026-04-04T17:54:31.284Z</time></trkpt><trkpt lat="35.3471983" lon="10.6590867"><ele>120.5</ele><time>2026-04-04T17:54:32.284Z</time></trkpt><trkpt lat="35.3469" lon="10.6590017"><ele>120.0</ele><time>2026-04-04T17:54:33.284Z</time></trkpt><trkpt lat="35.3466017" lon="10.6589183"><ele>120.0</ele><time>2026-04-04T17:54:34.285Z</time></trkpt><trkpt lat="35.3463033" lon="10.6588383"><ele>120.0</ele><time>2026-04-04T17:54:35.286Z</time></trkpt><trkpt lat="35.346005" lon="10.6587617"><ele>120.0</ele><time>2026-04-04T17:54:36.287Z</time></trkpt><trkpt lat="35.3457083" lon="10.6586867"><ele>120.0</ele><time>2026-04-04T17:54:37.285Z</time></trkpt><trkpt lat="35.3454117" lon="10.65861"><ele>122.0</ele><time>2026-04-04T17:54:38.285Z</time></trkpt><trkpt lat="35.34511" lon="10.6585333"><ele>124.0</ele><time>2026-04-04T17:54:39.282Z</time></trkpt><trkpt lat="35.3448083" lon="10.65846"><ele>125.5</ele><time>2026-04-04T17:54:40.285Z</time></trkpt><trkpt lat="35.344505" lon="10.6583833"><ele>127.0</ele><time>2026-04-04T17:54:41.284Z</time></trkpt><trkpt lat="35.3441933" lon="10.6583033"><ele>126.5</ele><time>2026-04-04T17:54:42.282Z</time></trkpt><trkpt lat="35.34388" lon="10.6582167"><ele>126.0</ele><time>2026-04-04T17:54:43.284Z</time></trkpt><trkpt lat="35.3435617" lon="10.6581283"><ele>126.0</ele><time>2026-04-04T17:54:44.285Z</time></trkpt><trkpt lat="35.3432433" lon="10.6580383"><ele>126.0</ele><time>2026-04-04T17:54:45.285Z</time></trkpt><trkpt lat="35.3429217" lon="10.6579467"><ele>125.0</ele><time>2026-04-04T17:54:46.283Z</time></trkpt><trkpt lat="35.3426017" lon="10.6578567"><ele>124.0</ele><time>2026-04-04T17:54:47.285Z</time></trkpt><trkpt lat="35.34228" lon="10.6577717"><ele>123.5</ele><time>2026-04-04T17:54:48.285Z</time></trkpt><trkpt lat="35.3419667" lon="10.657685"><ele>123.0</ele><time>2026-04-04T17:54:49.283Z</time></trkpt><trkpt lat="35.3416533" lon="10.6575967"><ele>121.5</ele><time>2026-04-04T17:54:50.284Z</time></trkpt><trkpt lat="35.3413433" lon="10.65751"><ele>120.0</ele><time>2026-04-04T17:54:51.285Z</time></trkpt><trkpt lat="35.3410333" lon="10.6574233"><ele>120.0</ele><time>2026-04-04T17:54:52.286Z</time></trkpt><trkpt lat="35.340725" lon="10.65734"><ele>120.0</ele><time>2026-04-04T17:54:53.284Z</time></trkpt><trkpt lat="35.3404117" lon="10.6572567"><ele>119.0</ele><time>2026-04-04T17:54:54.285Z</time></trkpt><trkpt lat="35.3400983" lon="10.6571717"><ele>118.0</ele><time>2026-04-04T17:54:55.285Z</time></trkpt><trkpt lat="35.33978" lon="10.6570867"><ele>118.0</ele><time>2026-04-04T17:54:56.283Z</time></trkpt><trkpt lat="35.3394633" lon="10.6570033"><ele>118.0</ele><time>2026-04-04T17:54:57.285Z</time></trkpt><trkpt lat="35.3391433" lon="10.6569217"><ele>119.0</ele><time>2026-04-04T17:54:58.284Z</time></trkpt><trkpt lat="35.33882" lon="10.6568367"><ele>120.0</ele><time>2026-04-04T17:54:59.284Z</time></trkpt><trkpt lat="35.3384933" lon="10.65675"><ele>120.0</ele><time>2026-04-04T17:55:00.283Z</time></trkpt><trkpt lat="35.3381667" lon="10.65666"><ele>120.0</ele><time>2026-04-04T17:55:01.283Z</time></trkpt><trkpt lat="35.33784" lon="10.65657"><ele>121.0</ele><time>2026-04-04T17:55:02.283Z</time></trkpt><trkpt lat="35.3375133" lon="10.6564783"><ele>122.0</ele><time>2026-04-04T17:55:03.283Z</time></trkpt><trkpt lat="35.33719" lon="10.6563883"><ele>122.0</ele><time>2026-04-04T17:55:04.282Z</time></trkpt><trkpt lat="35.33687" lon="10.6562967"><ele>122.0</ele><time>2026-04-04T17:55:05.286Z</time></trkpt><trkpt lat="35.3365533" lon="10.6562067"><ele>121.0</ele><time>2026-04-04T17:55:06.285Z</time></trkpt><trkpt lat="35.3362383" lon="10.6561183"><ele>120.0</ele><time>2026-04-04T17:55:07.282Z</time></trkpt><trkpt lat="35.33592" lon="10.6560283"><ele>120.0</ele><time>2026-04-04T17:55:08.282Z</time></trkpt><trkpt lat="35.3356017" lon="10.65594"><ele>120.0</ele><time>2026-04-04T17:55:09.282Z</time></trkpt><trkpt lat="35.3352817" lon="10.6558533"><ele>120.0</ele><time>2026-04-04T17:55:10.282Z</time></trkpt><trkpt lat="35.3349617" lon="10.6557667"><ele>120.0</ele><time>2026-04-04T17:55:11.283Z</time></trkpt><trkpt lat="35.33464" lon="10.65568"><ele>120.0</ele><time>2026-04-04T17:55:12.282Z</time></trkpt><trkpt lat="35.33432" lon="10.655595"><ele>120.0</ele><time>2026-04-04T17:55:13.283Z</time></trkpt><trkpt lat="35.3340017" lon="10.6555133"><ele>119.0</ele><time>2026-04-04T17:55:14.282Z</time></trkpt><trkpt lat="35.333685" lon="10.6554367"><ele>118.0</ele><time>2026-04-04T17:55:15.282Z</time></trkpt><trkpt lat="35.33337" lon="10.6553633"><ele>118.0</ele><time>2026-04-04T17:55:16.283Z</time></trkpt><trkpt lat="35.3330567" lon="10.6552933"><ele>118.0</ele><time>2026-04-04T17:55:17.285Z</time></trkpt><trkpt lat="35.332745" lon="10.6552283"><ele>120.5</ele><time>2026-04-04T17:55:18.285Z</time></trkpt><trkpt lat="35.3324367" lon="10.655165"><ele>123.0</ele><time>2026-04-04T17:55:19.286Z</time></trkpt><trkpt lat="35.3321283" lon="10.6551067"><ele>123.0</ele><time>2026-04-04T17:55:20.284Z</time></trkpt><trkpt lat="35.3318183" lon="10.65505"><ele>123.0</ele><time>2026-04-04T17:55:21.285Z</time></trkpt><trkpt lat="35.3315083" lon="10.6549983"><ele>123.0</ele><time>2026-04-04T17:55:22.285Z</time></trkpt><trkpt lat="35.3312" lon="10.65495"><ele>123.0</ele><time>2026-04-04T17:55:23.285Z</time></trkpt><trkpt lat="35.3308867" lon="10.6549067"><ele>123.0</ele><time>2026-04-04T17:55:24.285Z</time></trkpt><trkpt lat="35.3305733" lon="10.6548617"><ele>123.0</ele><time>2026-04-04T17:55:25.284Z</time></trkpt><trkpt lat="35.3302583" lon="10.65482"><ele>121.5</ele><time>2026-04-04T17:55:26.282Z</time></trkpt><trkpt lat="35.3299483" lon="10.654775"><ele>120.0</ele><time>2026-04-04T17:55:27.284Z</time></trkpt><trkpt lat="35.329635" lon="10.65473"><ele>120.0</ele><time>2026-04-04T17:55:28.285Z</time></trkpt><trkpt lat="35.329315" lon="10.6546817"><ele>120.0</ele><time>2026-04-04T17:55:29.286Z</time></trkpt><trkpt lat="35.3289933" lon="10.6546333"><ele>119.5</ele><time>2026-04-04T17:55:30.286Z</time></trkpt><trkpt lat="35.3286733" lon="10.6545917"><ele>119.0</ele><time>2026-04-04T17:55:31.282Z</time></trkpt><trkpt lat="35.32835" lon="10.6545533"><ele>118.5</ele><time>2026-04-04T17:55:32.282Z</time></trkpt><trkpt lat="35.3280283" lon="10.654515"><ele>118.0</ele><time>2026-04-04T17:55:33.283Z</time></trkpt><trkpt lat="35.3277067" lon="10.65448"><ele>118.0</ele><time>2026-04-04T17:55:34.284Z</time></trkpt><trkpt lat="35.3273883" lon="10.654445"><ele>118.0</ele><time>2026-04-04T17:55:35.282Z</time></trkpt><trkpt lat="35.3270733" lon="10.6544117"><ele>118.0</ele><time>2026-04-04T17:55:36.283Z</time></trkpt><trkpt lat="35.32676" lon="10.6543767"><ele>118.0</ele><time>2026-04-04T17:55:37.283Z</time></trkpt><trkpt lat="35.326445" lon="10.6543433"><ele>119.0</ele><time>2026-04-04T17:55:38.283Z</time></trkpt><trkpt lat="35.3261333" lon="10.65431"><ele>120.0</ele><time>2026-04-04T17:55:39.282Z</time></trkpt><trkpt lat="35.3258233" lon="10.6542767"><ele>119.5</ele><time>2026-04-04T17:55:40.282Z</time></trkpt><trkpt lat="35.32552" lon="10.6542433"><ele>119.0</ele><time>2026-04-04T17:55:41.282Z</time></trkpt><trkpt lat="35.3252283" lon="10.6542083"><ele>119.0</ele><time>2026-04-04T17:55:42.284Z</time></trkpt><trkpt lat="35.3249383" lon="10.654175"><ele>119.0</ele><time>2026-04-04T17:55:43.282Z</time></trkpt><trkpt lat="35.324645" lon="10.6541433"><ele>118.0</ele><time>2026-04-04T17:55:44.283Z</time></trkpt><trkpt lat="35.3243517" lon="10.65411"><ele>117.0</ele><time>2026-04-04T17:55:45.282Z</time></trkpt><trkpt lat="35.3240567" lon="10.6540767"><ele>117.0</ele><time>2026-04-04T17:55:46.283Z</time></trkpt><trkpt lat="35.3237617" lon="10.654045"><ele>117.0</ele><time>2026-04-04T17:55:47.283Z</time></trkpt><trkpt lat="35.323465" lon="10.6540133"><ele>117.0</ele><time>2026-04-04T17:55:48.284Z</time></trkpt><trkpt lat="35.3231683" lon="10.6539833"><ele>117.0</ele><time>2026-04-04T17:55:49.286Z</time></trkpt><trkpt lat="35.3228683" lon="10.65395"><ele>118.0</ele><time>2026-04-04T17:55:50.285Z</time></trkpt><trkpt lat="35.3225633" lon="10.653915"><ele>119.0</ele><time>2026-04-04T17:55:51.285Z</time></trkpt><trkpt lat="35.322255" lon="10.6538817"><ele>119.0</ele><time>2026-04-04T17:55:52.285Z</time></trkpt><trkpt lat="35.321945" lon="10.6538483"><ele>119.0</ele><time>2026-04-04T17:55:53.285Z</time></trkpt><trkpt lat="35.321635" lon="10.653815"><ele>117.0</ele><time>2026-04-04T17:55:54.287Z</time></trkpt><trkpt lat="35.3213233" lon="10.6537783"><ele>115.0</ele><time>2026-04-04T17:55:55.286Z</time></trkpt><trkpt lat="35.3210133" lon="10.653745"><ele>115.0</ele><time>2026-04-04T17:55:56.282Z</time></trkpt><trkpt lat="35.3207033" lon="10.6537117"><ele>115.0</ele><time>2026-04-04T17:55:57.282Z</time></trkpt><trkpt lat="35.320395" lon="10.6536783"><ele>115.0</ele><time>2026-04-04T17:55:58.283Z</time></trkpt><trkpt lat="35.320085" lon="10.653645"><ele>115.0</ele><time>2026-04-04T17:55:59.283Z</time></trkpt><trkpt lat="35.3197767" lon="10.65361"><ele>114.0</ele><time>2026-04-04T17:56:00.283Z</time></trkpt><trkpt lat="35.3194667" lon="10.653575"><ele>113.0</ele><time>2026-04-04T17:56:01.282Z</time></trkpt><trkpt lat="35.3191567" lon="10.65354"><ele>113.5</ele><time>2026-04-04T17:56:02.283Z</time></trkpt><trkpt lat="35.3188467" lon="10.6535033"><ele>114.0</ele><time>2026-04-04T17:56:03.282Z</time></trkpt><trkpt lat="35.31854" lon="10.6534683"><ele>114.0</ele><time>2026-04-04T17:56:04.283Z</time></trkpt><trkpt lat="35.3182333" lon="10.6534333"><ele>114.0</ele><time>2026-04-04T17:56:05.282Z</time></trkpt><trkpt lat="35.3179267" lon="10.6533983"><ele>112.0</ele><time>2026-04-04T17:56:06.282Z</time></trkpt><trkpt lat="35.31762" lon="10.6533633"><ele>110.0</ele><time>2026-04-04T17:56:07.283Z</time></trkpt><trkpt lat="35.31731" lon="10.65333"><ele>109.5</ele><time>2026-04-04T17:56:08.282Z</time></trkpt><trkpt lat="35.3169983" lon="10.6532967"><ele>109.0</ele><time>2026-04-04T17:56:09.282Z</time></trkpt><trkpt lat="35.3166883" lon="10.6532633"><ele>111.0</ele><time>2026-04-04T17:56:10.286Z</time></trkpt><trkpt lat="35.316375" lon="10.6532283"><ele>113.0</ele><time>2026-04-04T17:56:11.285Z</time></trkpt><trkpt lat="35.3160617" lon="10.653195"><ele>113.0</ele><time>2026-04-04T17:56:12.285Z</time></trkpt><trkpt lat="35.3157483" lon="10.65316"><ele>113.0</ele><time>2026-04-04T17:56:13.285Z</time></trkpt><trkpt lat="35.315435" lon="10.6531233"><ele>115.0</ele><time>2026-04-04T17:56:14.282Z</time></trkpt><trkpt lat="35.3151217" lon="10.65309"><ele>117.0</ele><time>2026-04-04T17:56:15.283Z</time></trkpt><trkpt lat="35.3148083" lon="10.653055"><ele>117.5</ele><time>2026-04-04T17:56:16.282Z</time></trkpt><trkpt lat="35.3144917" lon="10.65302"><ele>118.0</ele><time>2026-04-04T17:56:17.282Z</time></trkpt><trkpt lat="35.3141733" lon="10.652985"><ele>118.0</ele><time>2026-04-04T17:56:18.285Z</time></trkpt><trkpt lat="35.3138567" lon="10.6529483"><ele>118.0</ele><time>2026-04-04T17:56:19.284Z</time></trkpt><trkpt lat="35.3135433" lon="10.6529167"><ele>118.0</ele><time>2026-04-04T17:56:20.285Z</time></trkpt><trkpt lat="35.313235" lon="10.6528817"><ele>118.0</ele><time>2026-04-04T17:56:21.285Z</time></trkpt><trkpt lat="35.3129283" lon="10.6528467"><ele>118.0</ele><time>2026-04-04T17:56:22.286Z</time></trkpt><trkpt lat="35.3126233" lon="10.6528117"><ele>118.0</ele><time>2026-04-04T17:56:23.285Z</time></trkpt><trkpt lat="35.3123167" lon="10.652775"><ele>117.0</ele><time>2026-04-04T17:56:24.285Z</time></trkpt><trkpt lat="35.31201" lon="10.65274"><ele>116.0</ele><time>2026-04-04T17:56:25.285Z</time></trkpt><trkpt lat="35.311705" lon="10.65271"><ele>116.5</ele><time>2026-04-04T17:56:26.283Z</time></trkpt><trkpt lat="35.3114017" lon="10.6526783"><ele>117.0</ele><time>2026-04-04T17:56:27.285Z</time></trkpt><trkpt lat="35.31109" lon="10.6526433"><ele>117.0</ele><time>2026-04-04T17:56:28.286Z</time></trkpt><trkpt lat="35.3107783" lon="10.652605"><ele>117.0</ele><time>2026-04-04T17:56:29.285Z</time></trkpt><trkpt lat="35.310465" lon="10.6525683"><ele>115.5</ele><time>2026-04-04T17:56:30.286Z</time></trkpt><trkpt lat="35.3101517" lon="10.6525317"><ele>114.0</ele><time>2026-04-04T17:56:31.286Z</time></trkpt><trkpt lat="35.3098383" lon="10.6524983"><ele>113.5</ele><time>2026-04-04T17:56:32.285Z</time></trkpt><trkpt lat="35.30953" lon="10.6524667"><ele>113.0</ele><time>2026-04-04T17:56:33.282Z</time></trkpt><trkpt lat="35.30923" lon="10.652435"><ele>113.0</ele><time>2026-04-04T17:56:34.283Z</time></trkpt><trkpt lat="35.3089417" lon="10.6524017"><ele>113.0</ele><time>2026-04-04T17:56:35.285Z</time></trkpt><trkpt lat="35.3086533" lon="10.6523717"><ele>112.0</ele><time>2026-04-04T17:56:36.282Z</time></trkpt><trkpt lat="35.3083683" lon="10.65234"><ele>111.0</ele><time>2026-04-04T17:56:37.284Z</time></trkpt><trkpt lat="35.3080833" lon="10.652305"><ele>111.0</ele><time>2026-04-04T17:56:38.282Z</time></trkpt><trkpt lat="35.3077933" lon="10.6522733"><ele>111.0</ele><time>2026-04-04T17:56:39.282Z</time></trkpt><trkpt lat="35.3075" lon="10.65224"><ele>110.0</ele><time>2026-04-04T17:56:40.286Z</time></trkpt><trkpt lat="35.3072017" lon="10.6522033"><ele>109.0</ele><time>2026-04-04T17:56:41.286Z</time></trkpt><trkpt lat="35.3069" lon="10.6521683"><ele>109.0</ele><time>2026-04-04T17:56:42.285Z</time></trkpt><trkpt lat="35.3065933" lon="10.6521333"><ele>109.0</ele><time>2026-04-04T17:56:43.286Z</time></trkpt><trkpt lat="35.306285" lon="10.6521"><ele>108.0</ele><time>2026-04-04T17:56:44.285Z</time></trkpt><trkpt lat="35.3059717" lon="10.6520667"><ele>107.0</ele><time>2026-04-04T17:56:45.287Z</time></trkpt><trkpt lat="35.3056567" lon="10.6520317"><ele>106.5</ele><time>2026-04-04T17:56:46.286Z</time></trkpt><trkpt lat="35.30534" lon="10.6519933"><ele>106.0</ele><time>2026-04-04T17:56:47.283Z</time></trkpt><trkpt lat="35.3050233" lon="10.6519567"><ele>106.0</ele><time>2026-04-04T17:56:48.287Z</time></trkpt><trkpt lat="35.304705" lon="10.6519217"><ele>106.0</ele><time>2026-04-04T17:56:49.285Z</time></trkpt><trkpt lat="35.3043883" lon="10.6518867"><ele>106.0</ele><time>2026-04-04T17:56:50.283Z</time></trkpt><trkpt lat="35.3040717" lon="10.6518517"><ele>106.0</ele><time>2026-04-04T17:56:51.285Z</time></trkpt><trkpt lat="35.3037567" lon="10.6518167"><ele>107.5</ele><time>2026-04-04T17:56:52.283Z</time></trkpt><trkpt lat="35.30344" lon="10.6517817"><ele>109.0</ele><time>2026-04-04T17:56:53.282Z</time></trkpt><trkpt lat="35.3031233" lon="10.651745"><ele>108.5</ele><time>2026-04-04T17:56:54.283Z</time></trkpt><trkpt lat="35.3028067" lon="10.65171"><ele>108.0</ele><time>2026-04-04T17:56:55.283Z</time></trkpt><trkpt lat="35.30249" lon="10.651675"><ele>108.0</ele><time>2026-04-04T17:56:56.283Z</time></trkpt><trkpt lat="35.3021717" lon="10.6516417"><ele>108.0</ele><time>2026-04-04T17:56:57.285Z</time></trkpt><trkpt lat="35.3018567" lon="10.651605"><ele>108.0</ele><time>2026-04-04T17:56:58.285Z</time></trkpt><trkpt lat="35.3015417" lon="10.6515667"><ele>108.0</ele><time>2026-04-04T17:56:59.285Z</time></trkpt><trkpt lat="35.3012217" lon="10.6515283"><ele>107.5</ele><time>2026-04-04T17:57:00.285Z</time></trkpt><trkpt lat="35.3009017" lon="10.6514917"><ele>107.0</ele><time>2026-04-04T17:57:01.286Z</time></trkpt><trkpt lat="35.3005783" lon="10.6514583"><ele>108.0</ele><time>2026-04-04T17:57:02.285Z</time></trkpt><trkpt lat="35.3002567" lon="10.65142"><ele>109.0</ele><time>2026-04-04T17:57:03.283Z</time></trkpt><trkpt lat="35.299935" lon="10.6513817"><ele>108.5</ele><time>2026-04-04T17:57:04.284Z</time></trkpt><trkpt lat="35.2996117" lon="10.651345"><ele>108.0</ele><time>2026-04-04T17:57:05.283Z</time></trkpt><trkpt lat="35.29929" lon="10.6513083"><ele>108.0</ele><time>2026-04-04T17:57:06.283Z</time></trkpt><trkpt lat="35.2989717" lon="10.651275"><ele>108.0</ele><time>2026-04-04T17:57:07.283Z</time></trkpt><trkpt lat="35.2986567" lon="10.6512417"><ele>108.0</ele><time>2026-04-04T17:57:08.284Z</time></trkpt><trkpt lat="35.2983483" lon="10.6512067"><ele>108.0</ele><time>2026-04-04T17:57:09.284Z</time></trkpt><trkpt lat="35.2980417" lon="10.65117"><ele>108.5</ele><time>2026-04-04T17:57:10.286Z</time></trkpt><trkpt lat="35.2977367" lon="10.6511333"><ele>109.0</ele><time>2026-04-04T17:57:11.286Z</time></trkpt><trkpt lat="35.2974383" lon="10.6511"><ele>110.0</ele><time>2026-04-04T17:57:12.285Z</time></trkpt><trkpt lat="35.29714" lon="10.65107"><ele>111.0</ele><time>2026-04-04T17:57:13.285Z</time></trkpt><trkpt lat="35.2968483" lon="10.6510383"><ele>111.0</ele><time>2026-04-04T17:57:14.285Z</time></trkpt><trkpt lat="35.2965583" lon="10.6510067"><ele>111.0</ele><time>2026-04-04T17:57:15.292Z</time></trkpt><trkpt lat="35.29627" lon="10.650975"><ele>110.0</ele><time>2026-04-04T17:57:16.282Z</time></trkpt><trkpt lat="35.29598" lon="10.6509417"><ele>109.0</ele><time>2026-04-04T17:57:17.282Z</time></trkpt><trkpt lat="35.29569" lon="10.65091"><ele>110.0</ele><time>2026-04-04T17:57:18.285Z</time></trkpt><trkpt lat="35.2953983" lon="10.6508783"><ele>111.0</ele><time>2026-04-04T17:57:19.287Z</time></trkpt><trkpt lat="35.2951" lon="10.6508467"><ele>111.0</ele><time>2026-04-04T17:57:20.286Z</time></trkpt><trkpt lat="35.294795" lon="10.6508133"><ele>111.0</ele><time>2026-04-04T17:57:21.285Z</time></trkpt><trkpt lat="35.2944883" lon="10.6507783"><ele>111.0</ele><time>2026-04-04T17:57:22.285Z</time></trkpt><trkpt lat="35.2941783" lon="10.6507417"><ele>111.0</ele><time>2026-04-04T17:57:23.286Z</time></trkpt><trkpt lat="35.293865" lon="10.650705"><ele>111.0</ele><time>2026-04-04T17:57:24.285Z</time></trkpt><trkpt lat="35.29355" lon="10.6506667"><ele>111.0</ele><time>2026-04-04T17:57:25.286Z</time></trkpt><trkpt lat="35.29323" lon="10.65063"><ele>111.5</ele><time>2026-04-04T17:57:26.285Z</time></trkpt><trkpt lat="35.29291" lon="10.650595"><ele>112.0</ele><time>2026-04-04T17:57:27.287Z</time></trkpt><trkpt lat="35.2925883" lon="10.6505633"><ele>112.0</ele><time>2026-04-04T17:57:28.285Z</time></trkpt><trkpt lat="35.2922667" lon="10.65053"><ele>112.0</ele><time>2026-04-04T17:57:29.285Z</time></trkpt><trkpt lat="35.2919433" lon="10.650495"><ele>112.0</ele><time>2026-04-04T17:57:30.285Z</time></trkpt><trkpt lat="35.2916217" lon="10.65046"><ele>112.0</ele><time>2026-04-04T17:57:31.285Z</time></trkpt><trkpt lat="35.2912967" lon="10.6504267"><ele>112.0</ele><time>2026-04-04T17:57:32.286Z</time></trkpt><trkpt lat="35.2909733" lon="10.6503933"><ele>112.0</ele><time>2026-04-04T17:57:33.282Z</time></trkpt><trkpt lat="35.2906483" lon="10.6503583"><ele>112.0</ele><time>2026-04-04T17:57:34.283Z</time></trkpt><trkpt lat="35.2903233" lon="10.6503217"><ele>112.0</ele><time>2026-04-04T17:57:35.282Z</time></trkpt><trkpt lat="35.2899967" lon="10.6502833"><ele>111.5</ele><time>2026-04-04T17:57:36.283Z</time></trkpt><trkpt lat="35.2896717" lon="10.65025"><ele>111.0</ele><time>2026-04-04T17:57:37.283Z</time></trkpt><trkpt lat="35.2893483" lon="10.6502183"><ele>111.0</ele><time>2026-04-04T17:57:38.282Z</time></trkpt><trkpt lat="35.2890283" lon="10.6501917"><ele>111.0</ele><time>2026-04-04T17:57:39.284Z</time></trkpt><trkpt lat="35.2887083" lon="10.6501717"><ele>110.5</ele><time>2026-04-04T17:57:40.285Z</time></trkpt><trkpt lat="35.2883883" lon="10.6501533"><ele>110.0</ele><time>2026-04-04T17:57:41.285Z</time></trkpt><trkpt lat="35.28807" lon="10.6501383"><ele>109.0</ele><time>2026-04-04T17:57:42.285Z</time></trkpt><trkpt lat="35.2877533" lon="10.6501267"><ele>108.0</ele><time>2026-04-04T17:57:43.285Z</time></trkpt><trkpt lat="35.28744" lon="10.6501167"><ele>107.0</ele><time>2026-04-04T17:57:44.285Z</time></trkpt><trkpt lat="35.2871333" lon="10.65011"><ele>106.0</ele><time>2026-04-04T17:57:45.286Z</time></trkpt><trkpt lat="35.2868267" lon="10.6501083"><ele>106.0</ele><time>2026-04-04T17:57:46.285Z</time></trkpt><trkpt lat="35.28652" lon="10.6501083"><ele>106.0</ele><time>2026-04-04T17:57:47.286Z</time></trkpt><trkpt lat="35.2862117" lon="10.6501117"><ele>105.0</ele><time>2026-04-04T17:57:48.285Z</time></trkpt><trkpt lat="35.2859" lon="10.6501133"><ele>104.0</ele><time>2026-04-04T17:57:49.285Z</time></trkpt><trkpt lat="35.2855883" lon="10.65012"><ele>104.0</ele><time>2026-04-04T17:57:50.288Z</time></trkpt><trkpt lat="35.2852783" lon="10.65013"><ele>104.0</ele><time>2026-04-04T17:57:51.282Z</time></trkpt><trkpt lat="35.28497" lon="10.6501433"><ele>103.5</ele><time>2026-04-04T17:57:52.284Z</time></trkpt><trkpt lat="35.2846583" lon="10.6501567"><ele>103.0</ele><time>2026-04-04T17:57:53.285Z</time></trkpt><trkpt lat="35.2843483" lon="10.6501733"><ele>103.0</ele><time>2026-04-04T17:57:54.286Z</time></trkpt><trkpt lat="35.284035" lon="10.6501933"><ele>103.0</ele><time>2026-04-04T17:57:55.285Z</time></trkpt><trkpt lat="35.2837183" lon="10.650215"><ele>103.0</ele><time>2026-04-04T17:57:56.285Z</time></trkpt><trkpt lat="35.2834017" lon="10.6502417"><ele>103.0</ele><time>2026-04-04T17:57:57.286Z</time></trkpt><trkpt lat="35.283085" lon="10.6502683"><ele>102.5</ele><time>2026-04-04T17:57:58.284Z</time></trkpt><trkpt lat="35.2827683" lon="10.6502967"><ele>102.0</ele><time>2026-04-04T17:57:59.285Z</time></trkpt><trkpt lat="35.28245" lon="10.6503283"><ele>101.5</ele><time>2026-04-04T17:58:00.284Z</time></trkpt><trkpt lat="35.2821333" lon="10.6503617"><ele>101.0</ele><time>2026-04-04T17:58:01.285Z</time></trkpt><trkpt lat="35.2818217" lon="10.6503967"><ele>101.0</ele><time>2026-04-04T17:58:02.284Z</time></trkpt><trkpt lat="35.2815133" lon="10.650435"><ele>101.0</ele><time>2026-04-04T17:58:03.285Z</time></trkpt><trkpt lat="35.2812067" lon="10.650475"><ele>102.0</ele><time>2026-04-04T17:58:04.285Z</time></trkpt><trkpt lat="35.2809" lon="10.6505183"><ele>103.0</ele><time>2026-04-04T17:58:05.285Z</time></trkpt><trkpt lat="35.2805933" lon="10.6505617"><ele>103.5</ele><time>2026-04-04T17:58:06.286Z</time></trkpt><trkpt lat="35.2802867" lon="10.6506067"><ele>104.0</ele><time>2026-04-04T17:58:07.284Z</time></trkpt><trkpt lat="35.2799783" lon="10.65065"><ele>104.0</ele><time>2026-04-04T17:58:08.285Z</time></trkpt><trkpt lat="35.2796717" lon="10.6506917"><ele>104.0</ele><time>2026-04-04T17:58:09.286Z</time></trkpt><trkpt lat="35.279365" lon="10.6507333"><ele>104.0</ele><time>2026-04-04T17:58:10.284Z</time></trkpt><trkpt lat="35.2790617" lon="10.6507733"><ele>104.0</ele><time>2026-04-04T17:58:11.284Z</time></trkpt><trkpt lat="35.2787633" lon="10.6508133"><ele>102.5</ele><time>2026-04-04T17:58:12.284Z</time></trkpt><trkpt lat="35.2784633" lon="10.65085"><ele>101.0</ele><time>2026-04-04T17:58:13.282Z</time></trkpt><trkpt lat="35.2781617" lon="10.6508883"><ele>99.5</ele><time>2026-04-04T17:58:14.281Z</time></trkpt><trkpt lat="35.2778617" lon="10.6509317"><ele>98.0</ele><time>2026-04-04T17:58:15.282Z</time></trkpt><trkpt lat="35.2775567" lon="10.6509733"><ele>98.0</ele><time>2026-04-04T17:58:16.283Z</time></trkpt><trkpt lat="35.2772483" lon="10.651015"><ele>98.0</ele><time>2026-04-04T17:58:17.281Z</time></trkpt><trkpt lat="35.27694" lon="10.6510583"><ele>98.0</ele><time>2026-04-04T17:58:18.282Z</time></trkpt><trkpt lat="35.2766267" lon="10.6511"><ele>98.0</ele><time>2026-04-04T17:58:19.281Z</time></trkpt><trkpt lat="35.276315" lon="10.6511417"><ele>97.5</ele><time>2026-04-04T17:58:20.281Z</time></trkpt><trkpt lat="35.276005" lon="10.6511833"><ele>97.0</ele><time>2026-04-04T17:58:21.282Z</time></trkpt><trkpt lat="35.2756967" lon="10.651225"><ele>98.0</ele><time>2026-04-04T17:58:22.282Z</time></trkpt><trkpt lat="35.2753933" lon="10.6512667"><ele>99.0</ele><time>2026-04-04T17:58:23.283Z</time></trkpt><trkpt lat="35.2750917" lon="10.6513083"><ele>99.0</ele><time>2026-04-04T17:58:24.282Z</time></trkpt><trkpt lat="35.2747933" lon="10.65135"><ele>99.0</ele><time>2026-04-04T17:58:25.281Z</time></trkpt><trkpt lat="35.2744967" lon="10.6513917"><ele>100.0</ele><time>2026-04-04T17:58:26.281Z</time></trkpt><trkpt lat="35.2742017" lon="10.6514333"><ele>101.0</ele><time>2026-04-04T17:58:27.285Z</time></trkpt><trkpt lat="35.2739067" lon="10.651475"><ele>101.0</ele><time>2026-04-04T17:58:28.284Z</time></trkpt><trkpt lat="35.27361" lon="10.6515133"><ele>101.0</ele><time>2026-04-04T17:58:29.284Z</time></trkpt><trkpt lat="35.27331" lon="10.6515517"><ele>98.5</ele><time>2026-04-04T17:58:30.284Z</time></trkpt><trkpt lat="35.2730083" lon="10.6515917"><ele>96.0</ele><time>2026-04-04T17:58:31.284Z</time></trkpt><trkpt lat="35.2727067" lon="10.6516317"><ele>96.0</ele><time>2026-04-04T17:58:32.284Z</time></trkpt><trkpt lat="35.2724067" lon="10.65167"><ele>96.0</ele><time>2026-04-04T17:58:33.284Z</time></trkpt><trkpt lat="35.2721083" lon="10.65171"><ele>96.0</ele><time>2026-04-04T17:58:34.284Z</time></trkpt><trkpt lat="35.27181" lon="10.6517517"><ele>96.0</ele><time>2026-04-04T17:58:35.284Z</time></trkpt><trkpt lat="35.2715133" lon="10.6517933"><ele>95.5</ele><time>2026-04-04T17:58:36.285Z</time></trkpt><trkpt lat="35.2712183" lon="10.6518367"><ele>95.0</ele><time>2026-04-04T17:58:37.285Z</time></trkpt><trkpt lat="35.2709233" lon="10.6518767"><ele>95.0</ele><time>2026-04-04T17:58:38.284Z</time></trkpt><trkpt lat="35.2706267" lon="10.651915"><ele>95.0</ele><time>2026-04-04T17:58:39.284Z</time></trkpt><trkpt lat="35.2703317" lon="10.65195"><ele>95.0</ele><time>2026-04-04T17:58:40.284Z</time></trkpt><trkpt lat="35.2700367" lon="10.6519783"><ele>95.0</ele><time>2026-04-04T17:58:41.284Z</time></trkpt><trkpt lat="35.26974" lon="10.652"><ele>95.0</ele><time>2026-04-04T17:58:42.286Z</time></trkpt><trkpt lat="35.2694433" lon="10.6520183"><ele>95.0</ele><time>2026-04-04T17:58:43.284Z</time></trkpt><trkpt lat="35.2691483" lon="10.6520367"><ele>96.0</ele><time>2026-04-04T17:58:44.281Z</time></trkpt><trkpt lat="35.2688533" lon="10.6520517"><ele>97.0</ele><time>2026-04-04T17:58:45.283Z</time></trkpt><trkpt lat="35.268555" lon="10.652065"><ele>97.0</ele><time>2026-04-04T17:58:46.287Z</time></trkpt><trkpt lat="35.2682533" lon="10.6520767"><ele>97.0</ele><time>2026-04-04T17:58:47.283Z</time></trkpt><trkpt lat="35.2679433" lon="10.6520817"><ele>95.5</ele><time>2026-04-04T17:58:48.283Z</time></trkpt><trkpt lat="35.2676333" lon="10.65208"><ele>94.0</ele><time>2026-04-04T17:58:49.282Z</time></trkpt><trkpt lat="35.2673233" lon="10.6520717"><ele>93.0</ele><time>2026-04-04T17:58:50.282Z</time></trkpt><trkpt lat="35.2670133" lon="10.6520617"><ele>92.0</ele><time>2026-04-04T17:58:51.282Z</time></trkpt><trkpt lat="35.2667033" lon="10.6520517"><ele>93.5</ele><time>2026-04-04T17:58:52.283Z</time></trkpt><trkpt lat="35.2663917" lon="10.6520383"><ele>95.0</ele><time>2026-04-04T17:58:53.282Z</time></trkpt><trkpt lat="35.2660817" lon="10.6520217"><ele>95.0</ele><time>2026-04-04T17:58:54.284Z</time></trkpt><trkpt lat="35.2657717" lon="10.652"><ele>95.0</ele><time>2026-04-04T17:58:55.284Z</time></trkpt><trkpt lat="35.265465" lon="10.6519733"><ele>94.0</ele><time>2026-04-04T17:58:56.282Z</time></trkpt><trkpt lat="35.2651633" lon="10.6519483"><ele>93.0</ele><time>2026-04-04T17:58:57.285Z</time></trkpt><trkpt lat="35.2648617" lon="10.6519167"><ele>92.5</ele><time>2026-04-04T17:58:58.284Z</time></trkpt><trkpt lat="35.2645617" lon="10.6518783"><ele>92.0</ele><time>2026-04-04T17:58:59.285Z</time></trkpt><trkpt lat="35.264265" lon="10.6518367"><ele>92.0</ele><time>2026-04-04T17:59:00.284Z</time></trkpt><trkpt lat="35.2639683" lon="10.6517967"><ele>92.0</ele><time>2026-04-04T17:59:01.285Z</time></trkpt><trkpt lat="35.2636733" lon="10.6517633"><ele>93.0</ele><time>2026-04-04T17:59:02.284Z</time></trkpt><trkpt lat="35.2633767" lon="10.65173"><ele>94.0</ele><time>2026-04-04T17:59:03.284Z</time></trkpt><trkpt lat="35.2630833" lon="10.6516983"><ele>94.5</ele><time>2026-04-04T17:59:04.286Z</time></trkpt><trkpt lat="35.26279" lon="10.6516667"><ele>95.0</ele><time>2026-04-04T17:59:05.284Z</time></trkpt><trkpt lat="35.2624967" lon="10.6516333"><ele>93.5</ele><time>2026-04-04T17:59:06.284Z</time></trkpt><trkpt lat="35.262205" lon="10.6516"><ele>92.0</ele><time>2026-04-04T17:59:07.284Z</time></trkpt><trkpt lat="35.26191" lon="10.651565"><ele>92.0</ele><time>2026-04-04T17:59:08.285Z</time></trkpt><trkpt lat="35.261615" lon="10.6515317"><ele>92.0</ele><time>2026-04-04T17:59:09.284Z</time></trkpt><trkpt lat="35.2613217" lon="10.6515017"><ele>91.0</ele><time>2026-04-04T17:59:10.285Z</time></trkpt><trkpt lat="35.2610333" lon="10.6514717"><ele>90.0</ele><time>2026-04-04T17:59:11.284Z</time></trkpt><trkpt lat="35.2607483" lon="10.6514417"><ele>89.0</ele><time>2026-04-04T17:59:12.284Z</time></trkpt><trkpt lat="35.2604717" lon="10.6514117"><ele>88.0</ele><time>2026-04-04T17:59:13.284Z</time></trkpt><trkpt lat="35.2602" lon="10.6513833"><ele>88.0</ele><time>2026-04-04T17:59:14.282Z</time></trkpt><trkpt lat="35.2599317" lon="10.6513517"><ele>88.0</ele><time>2026-04-04T17:59:15.282Z</time></trkpt><trkpt lat="35.25966" lon="10.6513217"><ele>88.5</ele><time>2026-04-04T17:59:16.284Z</time></trkpt><trkpt lat="35.2593833" lon="10.65129"><ele>89.0</ele><time>2026-04-04T17:59:17.282Z</time></trkpt><trkpt lat="35.259105" lon="10.65126"><ele>88.5</ele><time>2026-04-04T17:59:18.284Z</time></trkpt><trkpt lat="35.2588217" lon="10.6512283"><ele>88.0</ele><time>2026-04-04T17:59:19.281Z</time></trkpt><trkpt lat="35.258535" lon="10.6511983"><ele>88.0</ele><time>2026-04-04T17:59:20.284Z</time></trkpt><trkpt lat="35.2582483" lon="10.6511667"><ele>88.0</ele><time>2026-04-04T17:59:21.282Z</time></trkpt><trkpt lat="35.2579583" lon="10.6511333"><ele>86.5</ele><time>2026-04-04T17:59:22.283Z</time></trkpt><trkpt lat="35.257665" lon="10.6511017"><ele>85.0</ele><time>2026-04-04T17:59:23.281Z</time></trkpt><trkpt lat="35.2573683" lon="10.65107"><ele>85.0</ele><time>2026-04-04T17:59:24.284Z</time></trkpt><trkpt lat="35.25707" lon="10.651035"><ele>85.0</ele><time>2026-04-04T17:59:25.284Z</time></trkpt><trkpt lat="35.25677" lon="10.651"><ele>85.0</ele><time>2026-04-04T17:59:26.285Z</time></trkpt><trkpt lat="35.2564683" lon="10.6509667"><ele>85.0</ele><time>2026-04-04T17:59:27.284Z</time></trkpt><trkpt lat="35.256165" lon="10.6509317"><ele>85.0</ele><time>2026-04-04T17:59:28.284Z</time></trkpt><trkpt lat="35.2558567" lon="10.6508967"><ele>85.0</ele><time>2026-04-04T17:59:29.284Z</time></trkpt><trkpt lat="35.2555483" lon="10.650865"><ele>86.0</ele><time>2026-04-04T17:59:30.285Z</time></trkpt><trkpt lat="35.2552383" lon="10.650835"><ele>87.0</ele><time>2026-04-04T17:59:31.284Z</time></trkpt><trkpt lat="35.2549283" lon="10.6508033"><ele>86.5</ele><time>2026-04-04T17:59:32.284Z</time></trkpt><trkpt lat="35.2546167" lon="10.6507717"><ele>86.0</ele><time>2026-04-04T17:59:33.282Z</time></trkpt><trkpt lat="35.254305" lon="10.6507383"><ele>86.0</ele><time>2026-04-04T17:59:34.282Z</time></trkpt><trkpt lat="35.253995" lon="10.6507033"><ele>86.0</ele><time>2026-04-04T17:59:35.282Z</time></trkpt><trkpt lat="35.2536817" lon="10.6506683"><ele>87.0</ele><time>2026-04-04T17:59:36.282Z</time></trkpt><trkpt lat="35.2533717" lon="10.650635"><ele>88.0</ele><time>2026-04-04T17:59:37.282Z</time></trkpt><trkpt lat="35.2530633" lon="10.6506"><ele>88.0</ele><time>2026-04-04T17:59:38.281Z</time></trkpt><trkpt lat="35.25276" lon="10.6505667"><ele>88.0</ele><time>2026-04-04T17:59:39.283Z</time></trkpt><trkpt lat="35.252465" lon="10.650535"><ele>87.5</ele><time>2026-04-04T17:59:40.285Z</time></trkpt><trkpt lat="35.2521733" lon="10.6505017"><ele>87.0</ele><time>2026-04-04T17:59:41.285Z</time></trkpt><trkpt lat="35.2518833" lon="10.6504683"><ele>87.0</ele><time>2026-04-04T17:59:42.284Z</time></trkpt><trkpt lat="35.251595" lon="10.6504317"><ele>87.0</ele><time>2026-04-04T17:59:43.285Z</time></trkpt><trkpt lat="35.2513067" lon="10.6504017"><ele>88.0</ele><time>2026-04-04T17:59:44.284Z</time></trkpt><trkpt lat="35.2510167" lon="10.65037"><ele>89.0</ele><time>2026-04-04T17:59:45.284Z</time></trkpt><trkpt lat="35.2507233" lon="10.65034"><ele>89.5</ele><time>2026-04-04T17:59:46.284Z</time></trkpt><trkpt lat="35.2504267" lon="10.65031"><ele>90.0</ele><time>2026-04-04T17:59:47.285Z</time></trkpt><trkpt lat="35.2501283" lon="10.6502783"><ele>90.0</ele><time>2026-04-04T17:59:48.285Z</time></trkpt><trkpt lat="35.24983" lon="10.6502433"><ele>90.0</ele><time>2026-04-04T17:59:49.282Z</time></trkpt><trkpt lat="35.24953" lon="10.6502117"><ele>91.5</ele><time>2026-04-04T17:59:50.285Z</time></trkpt><trkpt lat="35.24924" lon="10.65018"><ele>93.0</ele><time>2026-04-04T17:59:51.281Z</time></trkpt><trkpt lat="35.24896" lon="10.65015"><ele>94.0</ele><time>2026-04-04T17:59:52.286Z</time></trkpt><trkpt lat="35.24868" lon="10.6501183"><ele>95.0</ele><time>2026-04-04T17:59:53.283Z</time></trkpt><trkpt lat="35.2483933" lon="10.6500883"><ele>97.0</ele><time>2026-04-04T17:59:54.283Z</time></trkpt><trkpt lat="35.2481033" lon="10.6500567"><ele>99.0</ele><time>2026-04-04T17:59:55.285Z</time></trkpt><trkpt lat="35.2478083" lon="10.650025"><ele>99.0</ele><time>2026-04-04T17:59:56.282Z</time></trkpt><trkpt lat="35.2475117" lon="10.6499917"><ele>99.0</ele><time>2026-04-04T17:59:57.285Z</time></trkpt><trkpt lat="35.24721" lon="10.6499567"><ele>99.5</ele><time>2026-04-04T17:59:58.285Z</time></trkpt><trkpt lat="35.2469067" lon="10.64992"><ele>100.0</ele><time>2026-04-04T17:59:59.285Z</time></trkpt><trkpt lat="35.2466017" lon="10.6498867"><ele>99.0</ele><time>2026-04-04T18:00:00.286Z</time></trkpt><trkpt lat="35.246295" lon="10.6498517"><ele>98.0</ele><time>2026-04-04T18:00:01.284Z</time></trkpt><trkpt lat="35.2459867" lon="10.64982"><ele>98.0</ele><time>2026-04-04T18:00:02.285Z</time></trkpt><trkpt lat="35.2456783" lon="10.6497883"><ele>98.0</ele><time>2026-04-04T18:00:03.285Z</time></trkpt><trkpt lat="35.24537" lon="10.6497567"><ele>97.0</ele><time>2026-04-04T18:00:04.284Z</time></trkpt><trkpt lat="35.24506" lon="10.6497233"><ele>96.0</ele><time>2026-04-04T18:00:05.284Z</time></trkpt><trkpt lat="35.2447483" lon="10.64969"><ele>96.0</ele><time>2026-04-04T18:00:06.284Z</time></trkpt><trkpt lat="35.2444367" lon="10.6496567"><ele>96.0</ele><time>2026-04-04T18:00:07.284Z</time></trkpt><trkpt lat="35.2441217" lon="10.6496217"><ele>93.5</ele><time>2026-04-04T18:00:08.284Z</time></trkpt><trkpt lat="35.243815" lon="10.6495883"><ele>91.0</ele><time>2026-04-04T18:00:09.284Z</time></trkpt><trkpt lat="35.2435133" lon="10.649555"><ele>91.0</ele><time>2026-04-04T18:00:10.284Z</time></trkpt><trkpt lat="35.243215" lon="10.64952"><ele>91.0</ele><time>2026-04-04T18:00:11.285Z</time></trkpt><trkpt lat="35.2429133" lon="10.6494867"><ele>90.0</ele><time>2026-04-04T18:00:12.285Z</time></trkpt><trkpt lat="35.242615" lon="10.649455"><ele>89.0</ele><time>2026-04-04T18:00:13.285Z</time></trkpt><trkpt lat="35.2423133" lon="10.6494217"><ele>88.5</ele><time>2026-04-04T18:00:14.281Z</time></trkpt><trkpt lat="35.2420117" lon="10.64939"><ele>88.0</ele><time>2026-04-04T18:00:15.282Z</time></trkpt><trkpt lat="35.2417117" lon="10.64936"><ele>86.0</ele><time>2026-04-04T18:00:16.283Z</time></trkpt><trkpt lat="35.2414117" lon="10.6493283"><ele>84.0</ele><time>2026-04-04T18:00:17.282Z</time></trkpt><trkpt lat="35.24111" lon="10.649295"><ele>84.0</ele><time>2026-04-04T18:00:18.282Z</time></trkpt><trkpt lat="35.2408067" lon="10.64926"><ele>84.0</ele><time>2026-04-04T18:00:19.281Z</time></trkpt><trkpt lat="35.2405033" lon="10.649225"><ele>85.5</ele><time>2026-04-04T18:00:20.281Z</time></trkpt><trkpt lat="35.240195" lon="10.64919"><ele>87.0</ele><time>2026-04-04T18:00:21.282Z</time></trkpt><trkpt lat="35.2398833" lon="10.6491567"><ele>88.0</ele><time>2026-04-04T18:00:22.285Z</time></trkpt><trkpt lat="35.23957" lon="10.6491233"><ele>89.0</ele><time>2026-04-04T18:00:23.285Z</time></trkpt><trkpt lat="35.2392583" lon="10.6490917"><ele>86.5</ele><time>2026-04-04T18:00:24.285Z</time></trkpt><trkpt lat="35.2389583" lon="10.64906"><ele>84.0</ele><time>2026-04-04T18:00:25.284Z</time></trkpt><trkpt lat="35.2386633" lon="10.6490283"><ele>84.0</ele><time>2026-04-04T18:00:26.284Z</time></trkpt><trkpt lat="35.2383717" lon="10.6489967"><ele>84.0</ele><time>2026-04-04T18:00:27.284Z</time></trkpt><trkpt lat="35.23808" lon="10.6489633"><ele>86.0</ele><time>2026-04-04T18:00:28.285Z</time></trkpt><trkpt lat="35.2377817" lon="10.6489283"><ele>88.0</ele><time>2026-04-04T18:00:29.281Z</time></trkpt><trkpt lat="35.2374783" lon="10.648895"><ele>88.0</ele><time>2026-04-04T18:00:30.284Z</time></trkpt><trkpt lat="35.2371733" lon="10.6488617"><ele>88.0</ele><time>2026-04-04T18:00:31.284Z</time></trkpt><trkpt lat="35.2368667" lon="10.6488283"><ele>88.0</ele><time>2026-04-04T18:00:32.282Z</time></trkpt><trkpt lat="35.236565" lon="10.6487933"><ele>88.0</ele><time>2026-04-04T18:00:33.284Z</time></trkpt><trkpt lat="35.2362633" lon="10.648765"><ele>90.0</ele><time>2026-04-04T18:00:34.284Z</time></trkpt><trkpt lat="35.2359617" lon="10.648735"><ele>92.0</ele><time>2026-04-04T18:00:35.284Z</time></trkpt><trkpt lat="35.23566" lon="10.648705"><ele>90.5</ele><time>2026-04-04T18:00:36.285Z</time></trkpt><trkpt lat="35.23536" lon="10.6486733"><ele>89.0</ele><time>2026-04-04T18:00:37.284Z</time></trkpt><trkpt lat="35.2350617" lon="10.6486383"><ele>93.0</ele><time>2026-04-04T18:00:38.284Z</time></trkpt><trkpt lat="35.2347683" lon="10.6486067"><ele>97.0</ele><time>2026-04-04T18:00:39.285Z</time></trkpt><trkpt lat="35.234475" lon="10.648575"><ele>97.0</ele><time>2026-04-04T18:00:40.286Z</time></trkpt><trkpt lat="35.2341867" lon="10.6485417"><ele>97.0</ele><time>2026-04-04T18:00:41.283Z</time></trkpt><trkpt lat="35.2339017" lon="10.64851"><ele>100.0</ele><time>2026-04-04T18:00:42.284Z</time></trkpt><trkpt lat="35.2336167" lon="10.6484783"><ele>103.0</ele><time>2026-04-04T18:00:43.284Z</time></trkpt><trkpt lat="35.2333283" lon="10.6484467"><ele>103.5</ele><time>2026-04-04T18:00:44.285Z</time></trkpt><trkpt lat="35.2330383" lon="10.648415"><ele>104.0</ele><time>2026-04-04T18:00:45.284Z</time></trkpt><trkpt lat="35.2327483" lon="10.6483833"><ele>104.0</ele><time>2026-04-04T18:00:46.285Z</time></trkpt><trkpt lat="35.2324583" lon="10.6483533"><ele>104.0</ele><time>2026-04-04T18:00:47.284Z</time></trkpt><trkpt lat="35.2321683" lon="10.6483217"><ele>101.0</ele><time>2026-04-04T18:00:48.285Z</time></trkpt><trkpt lat="35.2318783" lon="10.6482917"><ele>98.0</ele><time>2026-04-04T18:00:49.284Z</time></trkpt><trkpt lat="35.23159" lon="10.6482617"><ele>96.5</ele><time>2026-04-04T18:00:50.285Z</time></trkpt><trkpt lat="35.2313033" lon="10.6482317"><ele>95.0</ele><time>2026-04-04T18:00:51.284Z</time></trkpt><trkpt lat="35.23102" lon="10.6482"><ele>95.0</ele><time>2026-04-04T18:00:52.284Z</time></trkpt><trkpt lat="35.2307367" lon="10.64817"><ele>95.0</ele><time>2026-04-04T18:00:53.284Z</time></trkpt><trkpt lat="35.2304533" lon="10.64814"><ele>93.5</ele><time>2026-04-04T18:00:54.286Z</time></trkpt><trkpt lat="35.2301733" lon="10.6481083"><ele>92.0</ele><time>2026-04-04T18:00:55.285Z</time></trkpt><trkpt lat="35.2298883" lon="10.6480767"><ele>89.5</ele><time>2026-04-04T18:00:56.285Z</time></trkpt><trkpt lat="35.2296017" lon="10.6480433"><ele>87.0</ele><time>2026-04-04T18:00:57.285Z</time></trkpt><trkpt lat="35.2293133" lon="10.64801"><ele>87.0</ele><time>2026-04-04T18:00:58.284Z</time></trkpt><trkpt lat="35.229025" lon="10.6479767"><ele>87.0</ele><time>2026-04-04T18:00:59.285Z</time></trkpt><trkpt lat="35.228735" lon="10.647945"><ele>83.5</ele><time>2026-04-04T18:01:00.285Z</time></trkpt><trkpt lat="35.2284417" lon="10.6479167"><ele>80.0</ele><time>2026-04-04T18:01:01.285Z</time></trkpt><trkpt lat="35.2281483" lon="10.647885"><ele>79.5</ele><time>2026-04-04T18:01:02.284Z</time></trkpt><trkpt lat="35.2278517" lon="10.6478533"><ele>79.0</ele><time>2026-04-04T18:01:03.286Z</time></trkpt><trkpt lat="35.22755" lon="10.64782"><ele>78.0</ele><time>2026-04-04T18:01:04.284Z</time></trkpt><trkpt lat="35.2272483" lon="10.647785"><ele>77.0</ele><time>2026-04-04T18:01:05.284Z</time></trkpt><trkpt lat="35.2269433" lon="10.64775"><ele>77.0</ele><time>2026-04-04T18:01:06.285Z</time></trkpt><trkpt lat="35.2266367" lon="10.6477167"><ele>77.0</ele><time>2026-04-04T18:01:07.284Z</time></trkpt><trkpt lat="35.2263267" lon="10.6476833"><ele>76.0</ele><time>2026-04-04T18:01:08.282Z</time></trkpt><trkpt lat="35.2260167" lon="10.64765"><ele>75.0</ele><time>2026-04-04T18:01:09.285Z</time></trkpt><trkpt lat="35.2257017" lon="10.647615"><ele>73.0</ele><time>2026-04-04T18:01:10.285Z</time></trkpt><trkpt lat="35.2253867" lon="10.64758"><ele>71.0</ele><time>2026-04-04T18:01:11.285Z</time></trkpt><trkpt lat="35.2250683" lon="10.6475467"><ele>71.0</ele><time>2026-04-04T18:01:12.285Z</time></trkpt><trkpt lat="35.2247517" lon="10.6475117"><ele>71.0</ele><time>2026-04-04T18:01:13.284Z</time></trkpt><trkpt lat="35.2244333" lon="10.6474767"><ele>71.0</ele><time>2026-04-04T18:01:14.285Z</time></trkpt><trkpt lat="35.2241117" lon="10.6474417"><ele>71.0</ele><time>2026-04-04T18:01:15.285Z</time></trkpt><trkpt lat="35.22379" lon="10.6474083"><ele>70.5</ele><time>2026-04-04T18:01:16.284Z</time></trkpt><trkpt lat="35.2234717" lon="10.6473733"><ele>70.0</ele><time>2026-04-04T18:01:17.284Z</time></trkpt><trkpt lat="35.2231533" lon="10.64734"><ele>68.5</ele><time>2026-04-04T18:01:18.285Z</time></trkpt><trkpt lat="35.2228383" lon="10.647305"><ele>67.0</ele><time>2026-04-04T18:01:19.284Z</time></trkpt><trkpt lat="35.222525" lon="10.64727"><ele>65.5</ele><time>2026-04-04T18:01:20.286Z</time></trkpt><trkpt lat="35.2222133" lon="10.6472333"><ele>64.0</ele><time>2026-04-04T18:01:21.284Z</time></trkpt><trkpt lat="35.221905" lon="10.6471983"><ele>64.0</ele><time>2026-04-04T18:01:22.284Z</time></trkpt><trkpt lat="35.2216" lon="10.64716"><ele>64.0</ele><time>2026-04-04T18:01:23.284Z</time></trkpt><trkpt lat="35.221295" lon="10.647125"><ele>64.5</ele><time>2026-04-04T18:01:24.286Z</time></trkpt><trkpt lat="35.2209883" lon="10.6470917"><ele>65.0</ele><time>2026-04-04T18:01:25.281Z</time></trkpt><trkpt lat="35.22068" lon="10.64706"><ele>64.5</ele><time>2026-04-04T18:01:26.285Z</time></trkpt><trkpt lat="35.2203733" lon="10.6470283"><ele>64.0</ele><time>2026-04-04T18:01:27.284Z</time></trkpt><trkpt lat="35.220065" lon="10.6469967"><ele>62.5</ele><time>2026-04-04T18:01:28.285Z</time></trkpt><trkpt lat="35.2197567" lon="10.646965"><ele>61.0</ele><time>2026-04-04T18:01:29.284Z</time></trkpt><trkpt lat="35.2194467" lon="10.6469317"><ele>61.0</ele><time>2026-04-04T18:01:30.285Z</time></trkpt><trkpt lat="35.2191367" lon="10.6468983"><ele>61.0</ele><time>2026-04-04T18:01:31.285Z</time></trkpt><trkpt lat="35.2188217" lon="10.646865"><ele>60.0</ele><time>2026-04-04T18:01:32.285Z</time></trkpt><trkpt lat="35.218505" lon="10.6468317"><ele>59.0</ele><time>2026-04-04T18:01:33.285Z</time></trkpt><trkpt lat="35.2181867" lon="10.6467967"><ele>58.5</ele><time>2026-04-04T18:01:34.281Z</time></trkpt><trkpt lat="35.2178667" lon="10.6467633"><ele>58.0</ele><time>2026-04-04T18:01:35.281Z</time></trkpt><trkpt lat="35.2175483" lon="10.6467317"><ele>56.5</ele><time>2026-04-04T18:01:36.283Z</time></trkpt><trkpt lat="35.2172333" lon="10.6466983"><ele>55.0</ele><time>2026-04-04T18:01:37.282Z</time></trkpt><trkpt lat="35.2169217" lon="10.646665"><ele>55.0</ele><time>2026-04-04T18:01:38.282Z</time></trkpt><trkpt lat="35.2166083" lon="10.6466317"><ele>55.0</ele><time>2026-04-04T18:01:39.282Z</time></trkpt><trkpt lat="35.2163" lon="10.6465967"><ele>55.0</ele><time>2026-04-04T18:01:40.282Z</time></trkpt><trkpt lat="35.21599" lon="10.6465633"><ele>55.0</ele><time>2026-04-04T18:01:41.282Z</time></trkpt><trkpt lat="35.2156817" lon="10.6465333"><ele>57.0</ele><time>2026-04-04T18:01:42.282Z</time></trkpt><trkpt lat="35.2153717" lon="10.6465033"><ele>59.0</ele><time>2026-04-04T18:01:43.281Z</time></trkpt><trkpt lat="35.21506" lon="10.6464733"><ele>59.0</ele><time>2026-04-04T18:01:44.282Z</time></trkpt><trkpt lat="35.21475" lon="10.6464383"><ele>59.0</ele><time>2026-04-04T18:01:45.285Z</time></trkpt><trkpt lat="35.2144383" lon="10.6464033"><ele>59.0</ele><time>2026-04-04T18:01:46.281Z</time></trkpt><trkpt lat="35.2141283" lon="10.64637"><ele>59.0</ele><time>2026-04-04T18:01:47.285Z</time></trkpt><trkpt lat="35.21382" lon="10.6463367"><ele>59.0</ele><time>2026-04-04T18:01:48.285Z</time></trkpt><trkpt lat="35.2135133" lon="10.646305"><ele>59.0</ele><time>2026-04-04T18:01:49.284Z</time></trkpt><trkpt lat="35.2132083" lon="10.64627"><ele>60.0</ele><time>2026-04-04T18:01:50.285Z</time></trkpt><trkpt lat="35.2129017" lon="10.646235"><ele>61.0</ele><time>2026-04-04T18:01:51.284Z</time></trkpt><trkpt lat="35.2125933" lon="10.6462017"><ele>60.0</ele><time>2026-04-04T18:01:52.284Z</time></trkpt><trkpt lat="35.21229" lon="10.646165"><ele>59.0</ele><time>2026-04-04T18:01:53.286Z</time></trkpt><trkpt lat="35.2119883" lon="10.6461317"><ele>59.0</ele><time>2026-04-04T18:01:54.286Z</time></trkpt><trkpt lat="35.2116883" lon="10.6461017"><ele>59.0</ele><time>2026-04-04T18:01:55.285Z</time></trkpt><trkpt lat="35.2113883" lon="10.6460717"><ele>59.0</ele><time>2026-04-04T18:01:56.287Z</time></trkpt><trkpt lat="35.2110917" lon="10.6460383"><ele>59.0</ele><time>2026-04-04T18:01:57.284Z</time></trkpt><trkpt lat="35.2104933" lon="10.645975"><ele>57.5</ele><time>2026-04-04T18:01:59.284Z</time></trkpt><trkpt lat="35.2101933" lon="10.6459433"><ele>56.0</ele><time>2026-04-04T18:02:00.286Z</time></trkpt><trkpt lat="35.2098933" lon="10.64591"><ele>57.5</ele><time>2026-04-04T18:02:01.285Z</time></trkpt><trkpt lat="35.20959" lon="10.6458783"><ele>59.0</ele><time>2026-04-04T18:02:02.284Z</time></trkpt><trkpt lat="35.2092867" lon="10.645845"><ele>57.0</ele><time>2026-04-04T18:02:03.284Z</time></trkpt><trkpt lat="35.20898" lon="10.64581"><ele>55.0</ele><time>2026-04-04T18:02:04.281Z</time></trkpt><trkpt lat="35.20867" lon="10.645775"><ele>55.0</ele><time>2026-04-04T18:02:05.283Z</time></trkpt><trkpt lat="35.20836" lon="10.64574"><ele>55.0</ele><time>2026-04-04T18:02:06.284Z</time></trkpt><trkpt lat="35.2080467" lon="10.6457083"><ele>55.5</ele><time>2026-04-04T18:02:07.283Z</time></trkpt><trkpt lat="35.2077383" lon="10.645675"><ele>56.0</ele><time>2026-04-04T18:02:08.284Z</time></trkpt><trkpt lat="35.2074333" lon="10.6456417"><ele>56.5</ele><time>2026-04-04T18:02:09.283Z</time></trkpt><trkpt lat="35.20713" lon="10.6456083"><ele>57.0</ele><time>2026-04-04T18:02:10.284Z</time></trkpt><trkpt lat="35.2068283" lon="10.6455733"><ele>57.0</ele><time>2026-04-04T18:02:11.283Z</time></trkpt><trkpt lat="35.2065283" lon="10.64554"><ele>57.0</ele><time>2026-04-04T18:02:12.283Z</time></trkpt><trkpt lat="35.2062283" lon="10.6455117"><ele>56.5</ele><time>2026-04-04T18:02:13.284Z</time></trkpt><trkpt lat="35.2059267" lon="10.6454917"><ele>56.0</ele><time>2026-04-04T18:02:14.282Z</time></trkpt><trkpt lat="35.2056283" lon="10.6454717"><ele>56.0</ele><time>2026-04-04T18:02:15.284Z</time></trkpt><trkpt lat="35.2053283" lon="10.6454583"><ele>56.0</ele><time>2026-04-04T18:02:16.284Z</time></trkpt><trkpt lat="35.20503" lon="10.6454483"><ele>56.0</ele><time>2026-04-04T18:02:17.281Z</time></trkpt><trkpt lat="35.2047317" lon="10.6454417"><ele>56.0</ele><time>2026-04-04T18:02:18.285Z</time></trkpt><trkpt lat="35.2044367" lon="10.6454367"><ele>56.0</ele><time>2026-04-04T18:02:19.284Z</time></trkpt><trkpt lat="35.2041433" lon="10.6454367"><ele>56.0</ele><time>2026-04-04T18:02:20.284Z</time></trkpt><trkpt lat="35.20385" lon="10.6454383"><ele>56.5</ele><time>2026-04-04T18:02:21.284Z</time></trkpt><trkpt lat="35.2035617" lon="10.64544"><ele>57.0</ele><time>2026-04-04T18:02:22.284Z</time></trkpt><trkpt lat="35.2032733" lon="10.6454433"><ele>56.5</ele><time>2026-04-04T18:02:23.284Z</time></trkpt><trkpt lat="35.2029817" lon="10.6454533"><ele>56.0</ele><time>2026-04-04T18:02:24.285Z</time></trkpt><trkpt lat="35.2026883" lon="10.64547"><ele>56.0</ele><time>2026-04-04T18:02:25.284Z</time></trkpt><trkpt lat="35.20239" lon="10.6454933"><ele>56.0</ele><time>2026-04-04T18:02:26.284Z</time></trkpt><trkpt lat="35.202095" lon="10.6455167"><ele>56.5</ele><time>2026-04-04T18:02:27.285Z</time></trkpt><trkpt lat="35.2017983" lon="10.6455417"><ele>57.0</ele><time>2026-04-04T18:02:28.285Z</time></trkpt><trkpt lat="35.2015017" lon="10.6455683"><ele>56.0</ele><time>2026-04-04T18:02:29.284Z</time></trkpt><trkpt lat="35.201205" lon="10.6455983"><ele>55.0</ele><time>2026-04-04T18:02:30.285Z</time></trkpt><trkpt lat="35.200905" lon="10.645635"><ele>55.0</ele><time>2026-04-04T18:02:31.285Z</time></trkpt><trkpt lat="35.2006017" lon="10.6456733"><ele>55.0</ele><time>2026-04-04T18:02:32.286Z</time></trkpt><trkpt lat="35.2002967" lon="10.645715"><ele>55.0</ele><time>2026-04-04T18:02:33.284Z</time></trkpt><trkpt lat="35.1999917" lon="10.64576"><ele>55.0</ele><time>2026-04-04T18:02:34.282Z</time></trkpt><trkpt lat="35.1996867" lon="10.64581"><ele>56.5</ele><time>2026-04-04T18:02:35.282Z</time></trkpt><trkpt lat="35.19938" lon="10.6458667"><ele>58.0</ele><time>2026-04-04T18:02:36.282Z</time></trkpt><trkpt lat="35.1990717" lon="10.645925"><ele>57.5</ele><time>2026-04-04T18:02:37.282Z</time></trkpt><trkpt lat="35.198765" lon="10.6459883"><ele>57.0</ele><time>2026-04-04T18:02:38.283Z</time></trkpt><trkpt lat="35.198455" lon="10.646055"><ele>57.0</ele><time>2026-04-04T18:02:39.282Z</time></trkpt><trkpt lat="35.1981467" lon="10.6461267"><ele>57.0</ele><time>2026-04-04T18:02:40.282Z</time></trkpt><trkpt lat="35.1978367" lon="10.6462033"><ele>56.5</ele><time>2026-04-04T18:02:41.282Z</time></trkpt><trkpt lat="35.1975267" lon="10.6462833"><ele>56.0</ele><time>2026-04-04T18:02:42.282Z</time></trkpt><trkpt lat="35.197215" lon="10.6463633"><ele>56.0</ele><time>2026-04-04T18:02:43.282Z</time></trkpt><trkpt lat="35.1969033" lon="10.6464467"><ele>56.0</ele><time>2026-04-04T18:02:44.282Z</time></trkpt><trkpt lat="35.1965933" lon="10.6465317"><ele>56.5</ele><time>2026-04-04T18:02:45.282Z</time></trkpt><trkpt lat="35.1962833" lon="10.6466167"><ele>57.0</ele><time>2026-04-04T18:02:46.282Z</time></trkpt><trkpt lat="35.1959767" lon="10.6467017"><ele>57.0</ele><time>2026-04-04T18:02:47.283Z</time></trkpt><trkpt lat="35.1956717" lon="10.6467867"><ele>57.0</ele><time>2026-04-04T18:02:48.283Z</time></trkpt><trkpt lat="35.1953683" lon="10.646875"><ele>57.0</ele><time>2026-04-04T18:02:49.282Z</time></trkpt><trkpt lat="35.1950667" lon="10.6469617"><ele>57.0</ele><time>2026-04-04T18:02:50.283Z</time></trkpt><trkpt lat="35.1947617" lon="10.6470467"><ele>57.0</ele><time>2026-04-04T18:02:51.282Z</time></trkpt><trkpt lat="35.194455" lon="10.6471317"><ele>57.0</ele><time>2026-04-04T18:02:52.282Z</time></trkpt><trkpt lat="35.1941517" lon="10.6472133"><ele>56.5</ele><time>2026-04-04T18:02:53.282Z</time></trkpt><trkpt lat="35.1938467" lon="10.6472967"><ele>56.0</ele><time>2026-04-04T18:02:54.284Z</time></trkpt><trkpt lat="35.19354" lon="10.64738"><ele>56.0</ele><time>2026-04-04T18:02:55.282Z</time></trkpt><trkpt lat="35.1932317" lon="10.6474633"><ele>56.0</ele><time>2026-04-04T18:02:56.282Z</time></trkpt><trkpt lat="35.1929267" lon="10.6475467"><ele>55.5</ele><time>2026-04-04T18:02:57.283Z</time></trkpt><trkpt lat="35.1926217" lon="10.6476283"><ele>55.0</ele><time>2026-04-04T18:02:58.282Z</time></trkpt><trkpt lat="35.192315" lon="10.64771"><ele>55.5</ele><time>2026-04-04T18:02:59.282Z</time></trkpt><trkpt lat="35.1920067" lon="10.6477883"><ele>56.0</ele><time>2026-04-04T18:03:00.282Z</time></trkpt><trkpt lat="35.1917" lon="10.6478617"><ele>56.0</ele><time>2026-04-04T18:03:01.285Z</time></trkpt><trkpt lat="35.191395" lon="10.647935"><ele>56.0</ele><time>2026-04-04T18:03:02.284Z</time></trkpt><trkpt lat="35.1910917" lon="10.6480117"><ele>56.0</ele><time>2026-04-04T18:03:03.282Z</time></trkpt><trkpt lat="35.1907933" lon="10.6480867"><ele>56.0</ele><time>2026-04-04T18:03:04.282Z</time></trkpt><trkpt lat="35.1904967" lon="10.648165"><ele>58.5</ele><time>2026-04-04T18:03:05.283Z</time></trkpt><trkpt lat="35.1902033" lon="10.64824"><ele>61.0</ele><time>2026-04-04T18:03:06.283Z</time></trkpt><trkpt lat="35.1899133" lon="10.648315"><ele>59.0</ele><time>2026-04-04T18:03:07.283Z</time></trkpt><trkpt lat="35.1896233" lon="10.6483917"><ele>57.0</ele><time>2026-04-04T18:03:08.283Z</time></trkpt><trkpt lat="35.189335" lon="10.6484683"><ele>57.0</ele><time>2026-04-04T18:03:09.282Z</time></trkpt><trkpt lat="35.18905" lon="10.6485433"><ele>57.0</ele><time>2026-04-04T18:03:10.282Z</time></trkpt><trkpt lat="35.1887667" lon="10.6486167"><ele>56.5</ele><time>2026-04-04T18:03:11.282Z</time></trkpt><trkpt lat="35.188485" lon="10.6486917"><ele>56.0</ele><time>2026-04-04T18:03:12.282Z</time></trkpt><trkpt lat="35.188205" lon="10.6487633"><ele>56.5</ele><time>2026-04-04T18:03:13.285Z</time></trkpt><trkpt lat="35.1879267" lon="10.6488367"><ele>57.0</ele><time>2026-04-04T18:03:14.282Z</time></trkpt><trkpt lat="35.1876517" lon="10.6489083"><ele>57.0</ele><time>2026-04-04T18:03:15.285Z</time></trkpt><trkpt lat="35.1873767" lon="10.6489817"><ele>57.0</ele><time>2026-04-04T18:03:16.284Z</time></trkpt><trkpt lat="35.1871017" lon="10.649055"><ele>57.5</ele><time>2026-04-04T18:03:17.285Z</time></trkpt><trkpt lat="35.18683" lon="10.6491317"><ele>58.0</ele><time>2026-04-04T18:03:18.285Z</time></trkpt><trkpt lat="35.18656" lon="10.649205"><ele>56.5</ele><time>2026-04-04T18:03:19.283Z</time></trkpt><trkpt lat="35.18629" lon="10.649275"><ele>55.0</ele><time>2026-04-04T18:03:20.284Z</time></trkpt><trkpt lat="35.1860217" lon="10.649345"><ele>55.0</ele><time>2026-04-04T18:03:21.284Z</time></trkpt><trkpt lat="35.1857533" lon="10.6494167"><ele>55.0</ele><time>2026-04-04T18:03:22.284Z</time></trkpt><trkpt lat="35.1854833" lon="10.6494883"><ele>55.5</ele><time>2026-04-04T18:03:23.286Z</time></trkpt><trkpt lat="35.1852133" lon="10.6495617"><ele>56.0</ele><time>2026-04-04T18:03:24.286Z</time></trkpt><trkpt lat="35.1849417" lon="10.6496333"><ele>56.5</ele><time>2026-04-04T18:03:25.284Z</time></trkpt><trkpt lat="35.1846717" lon="10.6497067"><ele>57.0</ele><time>2026-04-04T18:03:26.284Z</time></trkpt><trkpt lat="35.1844017" lon="10.6497783"><ele>57.0</ele><time>2026-04-04T18:03:27.284Z</time></trkpt><trkpt lat="35.18413" lon="10.64985"><ele>57.0</ele><time>2026-04-04T18:03:28.284Z</time></trkpt><trkpt lat="35.1838633" lon="10.6499183"><ele>58.0</ele><time>2026-04-04T18:03:29.285Z</time></trkpt><trkpt lat="35.1836017" lon="10.649985"><ele>59.0</ele><time>2026-04-04T18:03:30.285Z</time></trkpt><trkpt lat="35.18334" lon="10.6500517"><ele>59.5</ele><time>2026-04-04T18:03:31.285Z</time></trkpt><trkpt lat="35.1830833" lon="10.6501183"><ele>60.0</ele><time>2026-04-04T18:03:32.281Z</time></trkpt><trkpt lat="35.182825" lon="10.6501833"><ele>60.0</ele><time>2026-04-04T18:03:33.284Z</time></trkpt><trkpt lat="35.1825633" lon="10.6502483"><ele>60.0</ele><time>2026-04-04T18:03:34.283Z</time></trkpt><trkpt lat="35.1822983" lon="10.6503117"><ele>60.0</ele><time>2026-04-04T18:03:35.283Z</time></trkpt><trkpt lat="35.1820317" lon="10.6503767"><ele>60.0</ele><time>2026-04-04T18:03:36.286Z</time></trkpt><trkpt lat="35.1817617" lon="10.6504433"><ele>61.0</ele><time>2026-04-04T18:03:37.283Z</time></trkpt><trkpt lat="35.1814883" lon="10.6505067"><ele>62.0</ele><time>2026-04-04T18:03:38.285Z</time></trkpt><trkpt lat="35.1812133" lon="10.6505683"><ele>62.0</ele><time>2026-04-04T18:03:39.283Z</time></trkpt><trkpt lat="35.180935" lon="10.6506333"><ele>62.0</ele><time>2026-04-04T18:03:40.284Z</time></trkpt><trkpt lat="35.1806567" lon="10.6506967"><ele>61.5</ele><time>2026-04-04T18:03:41.286Z</time></trkpt><trkpt lat="35.1803767" lon="10.65076"><ele>61.0</ele><time>2026-04-04T18:03:42.285Z</time></trkpt><trkpt lat="35.1801" lon="10.65082"><ele>61.5</ele><time>2026-04-04T18:03:43.285Z</time></trkpt><trkpt lat="35.1798217" lon="10.6508783"><ele>62.0</ele><time>2026-04-04T18:03:44.284Z</time></trkpt><trkpt lat="35.1795467" lon="10.6509333"><ele>62.0</ele><time>2026-04-04T18:03:45.285Z</time></trkpt><trkpt lat="35.17927" lon="10.65099"><ele>62.0</ele><time>2026-04-04T18:03:46.281Z</time></trkpt><trkpt lat="35.1789917" lon="10.6510467"><ele>62.5</ele><time>2026-04-04T18:03:47.286Z</time></trkpt><trkpt lat="35.1787167" lon="10.6511017"><ele>63.0</ele><time>2026-04-04T18:03:48.285Z</time></trkpt><trkpt lat="35.178165" lon="10.6512183"><ele>63.5</ele><time>2026-04-04T18:03:50.285Z</time></trkpt><trkpt lat="35.177885" lon="10.651275"><ele>64.0</ele><time>2026-04-04T18:03:51.285Z</time></trkpt><trkpt lat="35.1776017" lon="10.6513317"><ele>64.0</ele><time>2026-04-04T18:03:52.285Z</time></trkpt><trkpt lat="35.1773183" lon="10.65139"><ele>64.0</ele><time>2026-04-04T18:03:53.285Z</time></trkpt><trkpt lat="35.177035" lon="10.6514483"><ele>64.0</ele><time>2026-04-04T18:03:54.285Z</time></trkpt><trkpt lat="35.1767483" lon="10.6515083"><ele>64.0</ele><time>2026-04-04T18:03:55.285Z</time></trkpt><trkpt lat="35.176465" lon="10.6515683"><ele>63.0</ele><time>2026-04-04T18:03:56.285Z</time></trkpt><trkpt lat="35.1761833" lon="10.651625"><ele>62.0</ele><time>2026-04-04T18:03:57.284Z</time></trkpt><trkpt lat="35.1759017" lon="10.6516817"><ele>62.5</ele><time>2026-04-04T18:03:58.284Z</time></trkpt><trkpt lat="35.1756217" lon="10.6517333"><ele>63.0</ele><time>2026-04-04T18:03:59.284Z</time></trkpt><trkpt lat="35.1753433" lon="10.6517867"><ele>63.0</ele><time>2026-04-04T18:04:00.285Z</time></trkpt><trkpt lat="35.175065" lon="10.6518417"><ele>63.0</ele><time>2026-04-04T18:04:01.284Z</time></trkpt><trkpt lat="35.1747867" lon="10.6518983"><ele>64.5</ele><time>2026-04-04T18:04:02.287Z</time></trkpt><trkpt lat="35.1745117" lon="10.651955"><ele>66.0</ele><time>2026-04-04T18:04:03.282Z</time></trkpt><trkpt lat="35.17424" lon="10.6520117"><ele>66.0</ele><time>2026-04-04T18:04:04.285Z</time></trkpt><trkpt lat="35.1739683" lon="10.652065"><ele>66.0</ele><time>2026-04-04T18:04:05.283Z</time></trkpt><trkpt lat="35.1736967" lon="10.6521217"><ele>66.0</ele><time>2026-04-04T18:04:06.284Z</time></trkpt><trkpt lat="35.1734283" lon="10.6521767"><ele>66.0</ele><time>2026-04-04T18:04:07.283Z</time></trkpt><trkpt lat="35.1731583" lon="10.6522317"><ele>68.0</ele><time>2026-04-04T18:04:08.284Z</time></trkpt><trkpt lat="35.17262" lon="10.6523467"><ele>68.5</ele><time>2026-04-04T18:04:10.286Z</time></trkpt><trkpt lat="35.172355" lon="10.6524"><ele>69.0</ele><time>2026-04-04T18:04:11.285Z</time></trkpt><trkpt lat="35.17209" lon="10.652455"><ele>69.0</ele><time>2026-04-04T18:04:12.289Z</time></trkpt><trkpt lat="35.17156" lon="10.652565"><ele>68.5</ele><time>2026-04-04T18:04:14.284Z</time></trkpt><trkpt lat="35.171295" lon="10.6526233"><ele>68.0</ele><time>2026-04-04T18:04:15.284Z</time></trkpt><trkpt lat="35.17103" lon="10.6526883"><ele>70.0</ele><time>2026-04-04T18:04:16.285Z</time></trkpt><trkpt lat="35.1704983" lon="10.6528317"><ele>70.0</ele><time>2026-04-04T18:04:18.285Z</time></trkpt><trkpt lat="35.1702283" lon="10.6529117"><ele>70.0</ele><time>2026-04-04T18:04:19.285Z</time></trkpt><trkpt lat="35.16996" lon="10.6529933"><ele>71.0</ele><time>2026-04-04T18:04:20.284Z</time></trkpt><trkpt lat="35.169435" lon="10.6531783"><ele>71.0</ele><time>2026-04-04T18:04:22.285Z</time></trkpt><trkpt lat="35.1691717" lon="10.65328"><ele>71.0</ele><time>2026-04-04T18:04:23.284Z</time></trkpt><trkpt lat="35.16891" lon="10.653385"><ele>71.0</ele><time>2026-04-04T18:04:24.285Z</time></trkpt><trkpt lat="35.1683883" lon="10.65361"><ele>71.0</ele><time>2026-04-04T18:04:26.286Z</time></trkpt><trkpt lat="35.1681283" lon="10.6537267"><ele>71.0</ele><time>2026-04-04T18:04:27.286Z</time></trkpt><trkpt lat="35.1678717" lon="10.6538483"><ele>71.0</ele><time>2026-04-04T18:04:28.285Z</time></trkpt><trkpt lat="35.1676183" lon="10.6539733"><ele>71.0</ele><time>2026-04-04T18:04:29.285Z</time></trkpt><trkpt lat="35.1673667" lon="10.6541033"><ele>75.0</ele><time>2026-04-04T18:04:30.286Z</time></trkpt><trkpt lat="35.1668633" lon="10.65438"><ele>74.0</ele><time>2026-04-04T18:04:32.285Z</time></trkpt><trkpt lat="35.1666133" lon="10.6545267"><ele>73.0</ele><time>2026-04-04T18:04:33.282Z</time></trkpt><trkpt lat="35.166365" lon="10.65468"><ele>73.0</ele><time>2026-04-04T18:04:34.286Z</time></trkpt><trkpt lat="35.1661183" lon="10.6548383"><ele>73.0</ele><time>2026-04-04T18:04:35.284Z</time></trkpt><trkpt lat="35.165875" lon="10.6549967"><ele>73.0</ele><time>2026-04-04T18:04:36.286Z</time></trkpt><trkpt lat="35.1656333" lon="10.65516"><ele>73.0</ele><time>2026-04-04T18:04:37.284Z</time></trkpt><trkpt lat="35.165395" lon="10.65533"><ele>71.5</ele><time>2026-04-04T18:04:38.281Z</time></trkpt><trkpt lat="35.1651583" lon="10.6555033"><ele>70.0</ele><time>2026-04-04T18:04:39.284Z</time></trkpt><trkpt lat="35.164925" lon="10.65568"><ele>71.0</ele><time>2026-04-04T18:04:40.288Z</time></trkpt><trkpt lat="35.1646983" lon="10.6558583"><ele>72.0</ele><time>2026-04-04T18:04:41.285Z</time></trkpt><trkpt lat="35.1644717" lon="10.6560383"><ele>72.0</ele><time>2026-04-04T18:04:42.286Z</time></trkpt><trkpt lat="35.1642483" lon="10.6562233"><ele>72.0</ele><time>2026-04-04T18:04:43.285Z</time></trkpt><trkpt lat="35.1640283" lon="10.6564117"><ele>72.0</ele><time>2026-04-04T18:04:44.286Z</time></trkpt><trkpt lat="35.1638133" lon="10.6566033"><ele>72.0</ele><time>2026-04-04T18:04:45.285Z</time></trkpt><trkpt lat="35.1636" lon="10.6568017"><ele>72.0</ele><time>2026-04-04T18:04:46.286Z</time></trkpt><trkpt lat="35.16339" lon="10.6569983"><ele>72.0</ele><time>2026-04-04T18:04:47.286Z</time></trkpt><trkpt lat="35.1631767" lon="10.6571967"><ele>74.0</ele><time>2026-04-04T18:04:48.285Z</time></trkpt><trkpt lat="35.16296" lon="10.6573967"><ele>76.0</ele><time>2026-04-04T18:04:49.284Z</time></trkpt><trkpt lat="35.1627433" lon="10.6575983"><ele>74.5</ele><time>2026-04-04T18:04:50.284Z</time></trkpt><trkpt lat="35.162525" lon="10.6578017"><ele>73.0</ele><time>2026-04-04T18:04:51.285Z</time></trkpt><trkpt lat="35.162305" lon="10.6580067"><ele>73.0</ele><time>2026-04-04T18:04:52.285Z</time></trkpt><trkpt lat="35.1620867" lon="10.65821"><ele>73.0</ele><time>2026-04-04T18:04:53.285Z</time></trkpt><trkpt lat="35.1618683" lon="10.6584117"><ele>73.0</ele><time>2026-04-04T18:04:54.285Z</time></trkpt><trkpt lat="35.1616533" lon="10.6586117"><ele>73.0</ele><time>2026-04-04T18:04:55.285Z</time></trkpt><trkpt lat="35.1614383" lon="10.658815"><ele>74.0</ele><time>2026-04-04T18:04:56.284Z</time></trkpt><trkpt lat="35.1612233" lon="10.6590183"><ele>75.0</ele><time>2026-04-04T18:04:57.286Z</time></trkpt><trkpt lat="35.16101" lon="10.6592233"><ele>75.0</ele><time>2026-04-04T18:04:58.284Z</time></trkpt><trkpt lat="35.1607967" lon="10.6594267"><ele>75.0</ele><time>2026-04-04T18:04:59.284Z</time></trkpt><trkpt lat="35.1605833" lon="10.659625"><ele>73.5</ele><time>2026-04-04T18:05:00.285Z</time></trkpt><trkpt lat="35.1603717" lon="10.6598233"><ele>72.0</ele><time>2026-04-04T18:05:01.285Z</time></trkpt><trkpt lat="35.16016" lon="10.6600233"><ele>72.0</ele><time>2026-04-04T18:05:02.284Z</time></trkpt><trkpt lat="35.1599483" lon="10.6602233"><ele>72.0</ele><time>2026-04-04T18:05:03.285Z</time></trkpt><trkpt lat="35.15974" lon="10.6604217"><ele>72.5</ele><time>2026-04-04T18:05:04.284Z</time></trkpt><trkpt lat="35.1595283" lon="10.66062"><ele>73.0</ele><time>2026-04-04T18:05:05.284Z</time></trkpt><trkpt lat="35.1593183" lon="10.6608167"><ele>73.0</ele><time>2026-04-04T18:05:06.285Z</time></trkpt><trkpt lat="35.15911" lon="10.6610117"><ele>73.0</ele><time>2026-04-04T18:05:07.285Z</time></trkpt><trkpt lat="35.158905" lon="10.661205"><ele>73.0</ele><time>2026-04-04T18:05:08.284Z</time></trkpt><trkpt lat="35.1587067" lon="10.66139"><ele>73.0</ele><time>2026-04-04T18:05:09.286Z</time></trkpt><trkpt lat="35.1585183" lon="10.66157"><ele>73.0</ele><time>2026-04-04T18:05:10.284Z</time></trkpt><trkpt lat="35.1583383" lon="10.6617383"><ele>73.0</ele><time>2026-04-04T18:05:11.285Z</time></trkpt><trkpt lat="35.1581583" lon="10.6619033"><ele>72.5</ele><time>2026-04-04T18:05:12.285Z</time></trkpt><trkpt lat="35.1579783" lon="10.6620717"><ele>72.0</ele><time>2026-04-04T18:05:13.284Z</time></trkpt><trkpt lat="35.1577933" lon="10.662245"><ele>72.0</ele><time>2026-04-04T18:05:14.284Z</time></trkpt><trkpt lat="35.1576067" lon="10.66242"><ele>72.0</ele><time>2026-04-04T18:05:15.284Z</time></trkpt><trkpt lat="35.1574167" lon="10.6625967"><ele>71.5</ele><time>2026-04-04T18:05:16.285Z</time></trkpt><trkpt lat="35.1572233" lon="10.6627767"><ele>71.0</ele><time>2026-04-04T18:05:17.284Z</time></trkpt><trkpt lat="35.1570283" lon="10.6629583"><ele>71.0</ele><time>2026-04-04T18:05:18.285Z</time></trkpt><trkpt lat="35.1568283" lon="10.663145"><ele>71.0</ele><time>2026-04-04T18:05:19.282Z</time></trkpt><trkpt lat="35.1566283" lon="10.6633333"><ele>71.5</ele><time>2026-04-04T18:05:20.283Z</time></trkpt><trkpt lat="35.15643" lon="10.66352"><ele>72.0</ele><time>2026-04-04T18:05:21.285Z</time></trkpt><trkpt lat="35.1562333" lon="10.6637033"><ele>70.5</ele><time>2026-04-04T18:05:22.284Z</time></trkpt><trkpt lat="35.1560417" lon="10.6638817"><ele>69.0</ele><time>2026-04-04T18:05:23.284Z</time></trkpt><trkpt lat="35.1558533" lon="10.6640567"><ele>70.5</ele><time>2026-04-04T18:05:24.286Z</time></trkpt><trkpt lat="35.1556683" lon="10.6642283"><ele>72.0</ele><time>2026-04-04T18:05:25.285Z</time></trkpt><trkpt lat="35.155485" lon="10.6644017"><ele>71.5</ele><time>2026-04-04T18:05:26.284Z</time></trkpt><trkpt lat="35.1553033" lon="10.6645717"><ele>71.0</ele><time>2026-04-04T18:05:27.286Z</time></trkpt><trkpt lat="35.15512" lon="10.66474"><ele>71.0</ele><time>2026-04-04T18:05:28.285Z</time></trkpt><trkpt lat="35.1549383" lon="10.664915"><ele>71.0</ele><time>2026-04-04T18:05:29.285Z</time></trkpt><trkpt lat="35.15475" lon="10.6650967"><ele>70.5</ele><time>2026-04-04T18:05:30.285Z</time></trkpt><trkpt lat="35.15456" lon="10.665285"><ele>70.0</ele><time>2026-04-04T18:05:31.285Z</time></trkpt><trkpt lat="35.1543617" lon="10.6654783"><ele>70.0</ele><time>2026-04-04T18:05:32.285Z</time></trkpt><trkpt lat="35.1541633" lon="10.6656717"><ele>70.0</ele><time>2026-04-04T18:05:33.285Z</time></trkpt><trkpt lat="35.1539617" lon="10.6658633"><ele>70.5</ele><time>2026-04-04T18:05:34.286Z</time></trkpt><trkpt lat="35.1537567" lon="10.6660583"><ele>71.0</ele><time>2026-04-04T18:05:35.286Z</time></trkpt><trkpt lat="35.15355" lon="10.66625"><ele>71.0</ele><time>2026-04-04T18:05:36.285Z</time></trkpt><trkpt lat="35.1533433" lon="10.66644"><ele>71.0</ele><time>2026-04-04T18:05:37.286Z</time></trkpt><trkpt lat="35.1531367" lon="10.666625"><ele>70.5</ele><time>2026-04-04T18:05:38.284Z</time></trkpt><trkpt lat="35.15293" lon="10.6668083"><ele>70.0</ele><time>2026-04-04T18:05:39.285Z</time></trkpt><trkpt lat="35.15272" lon="10.667"><ele>70.0</ele><time>2026-04-04T18:05:40.285Z</time></trkpt><trkpt lat="35.1525117" lon="10.6672"><ele>70.0</ele><time>2026-04-04T18:05:41.285Z</time></trkpt><trkpt lat="35.1522967" lon="10.6674067"><ele>70.0</ele><time>2026-04-04T18:05:42.285Z</time></trkpt><trkpt lat="35.1520733" lon="10.667615"><ele>70.0</ele><time>2026-04-04T18:05:43.285Z</time></trkpt><trkpt lat="35.15185" lon="10.667825"><ele>70.5</ele><time>2026-04-04T18:05:44.285Z</time></trkpt><trkpt lat="35.151625" lon="10.6680367"><ele>71.0</ele><time>2026-04-04T18:05:45.286Z</time></trkpt><trkpt lat="35.1514033" lon="10.6682467"><ele>71.5</ele><time>2026-04-04T18:05:46.285Z</time></trkpt><trkpt lat="35.151185" lon="10.66845"><ele>72.0</ele><time>2026-04-04T18:05:47.284Z</time></trkpt><trkpt lat="35.1509633" lon="10.6686583"><ele>72.0</ele><time>2026-04-04T18:05:48.285Z</time></trkpt><trkpt lat="35.1507417" lon="10.6688667"><ele>72.0</ele><time>2026-04-04T18:05:49.285Z</time></trkpt><trkpt lat="35.150525" lon="10.669075"><ele>72.5</ele><time>2026-04-04T18:05:50.285Z</time></trkpt><trkpt lat="35.150305" lon="10.6692783"><ele>73.0</ele><time>2026-04-04T18:05:51.285Z</time></trkpt><trkpt lat="35.15009" lon="10.66948"><ele>72.0</ele><time>2026-04-04T18:05:52.285Z</time></trkpt><trkpt lat="35.149875" lon="10.6696817"><ele>71.0</ele><time>2026-04-04T18:05:53.286Z</time></trkpt><trkpt lat="35.1496583" lon="10.6698867"><ele>71.0</ele><time>2026-04-04T18:05:54.285Z</time></trkpt><trkpt lat="35.1494383" lon="10.6700933"><ele>71.0</ele><time>2026-04-04T18:05:55.286Z</time></trkpt><trkpt lat="35.1492167" lon="10.6702983"><ele>70.5</ele><time>2026-04-04T18:05:56.284Z</time></trkpt><trkpt lat="35.148995" lon="10.6705067"><ele>70.0</ele><time>2026-04-04T18:05:57.285Z</time></trkpt><trkpt lat="35.1487767" lon="10.6707133"><ele>70.0</ele><time>2026-04-04T18:05:58.284Z</time></trkpt><trkpt lat="35.1485617" lon="10.6709183"><ele>70.0</ele><time>2026-04-04T18:05:59.284Z</time></trkpt><trkpt lat="35.1483483" lon="10.6711217"><ele>71.5</ele><time>2026-04-04T18:06:00.285Z</time></trkpt><trkpt lat="35.148135" lon="10.6713233"><ele>73.0</ele><time>2026-04-04T18:06:01.286Z</time></trkpt><trkpt lat="35.1479217" lon="10.6715233"><ele>73.0</ele><time>2026-04-04T18:06:02.284Z</time></trkpt><trkpt lat="35.14771" lon="10.6717217"><ele>73.0</ele><time>2026-04-04T18:06:03.285Z</time></trkpt><trkpt lat="35.1474983" lon="10.67192"><ele>73.5</ele><time>2026-04-04T18:06:04.284Z</time></trkpt><trkpt lat="35.1472833" lon="10.6721233"><ele>74.0</ele><time>2026-04-04T18:06:05.285Z</time></trkpt><trkpt lat="35.1470683" lon="10.6723267"><ele>74.0</ele><time>2026-04-04T18:06:06.285Z</time></trkpt><trkpt lat="35.14685" lon="10.6725283"><ele>74.0</ele><time>2026-04-04T18:06:07.285Z</time></trkpt><trkpt lat="35.1466333" lon="10.67273"><ele>74.0</ele><time>2026-04-04T18:06:08.285Z</time></trkpt><trkpt lat="35.1464167" lon="10.6729317"><ele>74.0</ele><time>2026-04-04T18:06:09.285Z</time></trkpt><trkpt lat="35.1462033" lon="10.6731317"><ele>74.0</ele><time>2026-04-04T18:06:10.286Z</time></trkpt><trkpt lat="35.1459917" lon="10.6733267"><ele>74.0</ele><time>2026-04-04T18:06:11.285Z</time></trkpt><trkpt lat="35.1457783" lon="10.6735217"><ele>74.0</ele><time>2026-04-04T18:06:12.285Z</time></trkpt><trkpt lat="35.1455667" lon="10.6737167"><ele>74.0</ele><time>2026-04-04T18:06:13.285Z</time></trkpt><trkpt lat="35.1453533" lon="10.673915"><ele>74.0</ele><time>2026-04-04T18:06:14.282Z</time></trkpt><trkpt lat="35.1451417" lon="10.6741117"><ele>74.0</ele><time>2026-04-04T18:06:15.284Z</time></trkpt><trkpt lat="35.14493" lon="10.67431"><ele>75.0</ele><time>2026-04-04T18:06:16.283Z</time></trkpt><trkpt lat="35.1447183" lon="10.6745083"><ele>76.0</ele><time>2026-04-04T18:06:17.285Z</time></trkpt><trkpt lat="35.1445033" lon="10.6747067"><ele>76.0</ele><time>2026-04-04T18:06:18.285Z</time></trkpt><trkpt lat="35.1442867" lon="10.674905"><ele>76.0</ele><time>2026-04-04T18:06:19.285Z</time></trkpt><trkpt lat="35.1440683" lon="10.675105"><ele>76.5</ele><time>2026-04-04T18:06:20.282Z</time></trkpt><trkpt lat="35.1438483" lon="10.6753033"><ele>77.0</ele><time>2026-04-04T18:06:21.282Z</time></trkpt><trkpt lat="35.1436283" lon="10.6755033"><ele>77.0</ele><time>2026-04-04T18:06:22.283Z</time></trkpt><trkpt lat="35.143405" lon="10.6757067"><ele>77.0</ele><time>2026-04-04T18:06:23.282Z</time></trkpt><trkpt lat="35.1431817" lon="10.67591"><ele>78.0</ele><time>2026-04-04T18:06:24.283Z</time></trkpt><trkpt lat="35.14296" lon="10.6761117"><ele>79.0</ele><time>2026-04-04T18:06:25.285Z</time></trkpt><trkpt lat="35.1427333" lon="10.676315"><ele>79.0</ele><time>2026-04-04T18:06:26.282Z</time></trkpt><trkpt lat="35.142505" lon="10.67652"><ele>79.0</ele><time>2026-04-04T18:06:27.286Z</time></trkpt><trkpt lat="35.1422783" lon="10.676725"><ele>79.5</ele><time>2026-04-04T18:06:28.285Z</time></trkpt><trkpt lat="35.14205" lon="10.6769317"><ele>80.0</ele><time>2026-04-04T18:06:29.286Z</time></trkpt><trkpt lat="35.14182" lon="10.67714"><ele>80.0</ele><time>2026-04-04T18:06:30.286Z</time></trkpt><trkpt lat="35.1415933" lon="10.67735"><ele>80.0</ele><time>2026-04-04T18:06:31.286Z</time></trkpt><trkpt lat="35.14136" lon="10.6775683"><ele>80.5</ele><time>2026-04-04T18:06:32.285Z</time></trkpt><trkpt lat="35.141125" lon="10.6777783"><ele>81.0</ele><time>2026-04-04T18:06:33.285Z</time></trkpt><trkpt lat="35.14089" lon="10.6779867"><ele>81.0</ele><time>2026-04-04T18:06:34.285Z</time></trkpt><trkpt lat="35.14066" lon="10.6781933"><ele>81.0</ele><time>2026-04-04T18:06:35.286Z</time></trkpt><trkpt lat="35.1404267" lon="10.6783983"><ele>81.0</ele><time>2026-04-04T18:06:36.285Z</time></trkpt><trkpt lat="35.1401967" lon="10.6786067"><ele>81.0</ele><time>2026-04-04T18:06:37.281Z</time></trkpt><trkpt lat="35.1399683" lon="10.678815"><ele>81.0</ele><time>2026-04-04T18:06:38.286Z</time></trkpt><trkpt lat="35.1397433" lon="10.6790233"><ele>81.0</ele><time>2026-04-04T18:06:39.285Z</time></trkpt><trkpt lat="35.1395133" lon="10.6792367"><ele>80.5</ele><time>2026-04-04T18:06:40.285Z</time></trkpt><trkpt lat="35.13928" lon="10.6794533"><ele>80.0</ele><time>2026-04-04T18:06:41.286Z</time></trkpt><trkpt lat="35.1390433" lon="10.6796633"><ele>79.0</ele><time>2026-04-04T18:06:42.285Z</time></trkpt><trkpt lat="35.1388067" lon="10.6798767"><ele>78.0</ele><time>2026-04-04T18:06:43.286Z</time></trkpt><trkpt lat="35.1385683" lon="10.68009"><ele>78.0</ele><time>2026-04-04T18:06:44.286Z</time></trkpt><trkpt lat="35.1383317" lon="10.6803017"><ele>78.0</ele><time>2026-04-04T18:06:45.285Z</time></trkpt><trkpt lat="35.1380983" lon="10.6805133"><ele>78.0</ele><time>2026-04-04T18:06:46.285Z</time></trkpt><trkpt lat="35.1378667" lon="10.6807233"><ele>78.0</ele><time>2026-04-04T18:06:47.285Z</time></trkpt><trkpt lat="35.137635" lon="10.6809317"><ele>77.5</ele><time>2026-04-04T18:06:48.285Z</time></trkpt><trkpt lat="35.1374033" lon="10.6811383"><ele>77.0</ele><time>2026-04-04T18:06:49.283Z</time></trkpt><trkpt lat="35.1371733" lon="10.6813433"><ele>76.0</ele><time>2026-04-04T18:06:50.283Z</time></trkpt><trkpt lat="35.1369433" lon="10.6815483"><ele>75.0</ele><time>2026-04-04T18:06:51.286Z</time></trkpt><trkpt lat="35.1367167" lon="10.681755"><ele>74.5</ele><time>2026-04-04T18:06:52.285Z</time></trkpt><trkpt lat="35.13649" lon="10.6819617"><ele>74.0</ele><time>2026-04-04T18:06:53.286Z</time></trkpt><trkpt lat="35.1362667" lon="10.6821667"><ele>74.0</ele><time>2026-04-04T18:06:54.285Z</time></trkpt><trkpt lat="35.1360417" lon="10.6823683"><ele>74.0</ele><time>2026-04-04T18:06:55.285Z</time></trkpt><trkpt lat="35.1358167" lon="10.68257"><ele>76.5</ele><time>2026-04-04T18:06:56.282Z</time></trkpt><trkpt lat="35.1355917" lon="10.6827733"><ele>79.0</ele><time>2026-04-04T18:06:57.285Z</time></trkpt><trkpt lat="35.1353683" lon="10.682975"><ele>79.0</ele><time>2026-04-04T18:06:58.286Z</time></trkpt><trkpt lat="35.1351417" lon="10.6831783"><ele>79.0</ele><time>2026-04-04T18:06:59.286Z</time></trkpt><trkpt lat="35.1349133" lon="10.6833833"><ele>79.5</ele><time>2026-04-04T18:07:00.285Z</time></trkpt><trkpt lat="35.1346883" lon="10.6835833"><ele>80.0</ele><time>2026-04-04T18:07:01.285Z</time></trkpt><trkpt lat="35.1344617" lon="10.6837867"><ele>81.0</ele><time>2026-04-04T18:07:02.285Z</time></trkpt><trkpt lat="35.1342333" lon="10.6839933"><ele>82.0</ele><time>2026-04-04T18:07:03.285Z</time></trkpt><trkpt lat="35.1340033" lon="10.684205"><ele>83.5</ele><time>2026-04-04T18:07:04.285Z</time></trkpt><trkpt lat="35.1337733" lon="10.6844167"><ele>85.0</ele><time>2026-04-04T18:07:05.286Z</time></trkpt><trkpt lat="35.1335433" lon="10.68463"><ele>85.0</ele><time>2026-04-04T18:07:06.285Z</time></trkpt><trkpt lat="35.1333117" lon="10.68484"><ele>85.0</ele><time>2026-04-04T18:07:07.285Z</time></trkpt><trkpt lat="35.13308" lon="10.68505"><ele>86.0</ele><time>2026-04-04T18:07:08.285Z</time></trkpt><trkpt lat="35.1328483" lon="10.68526"><ele>87.0</ele><time>2026-04-04T18:07:09.285Z</time></trkpt><trkpt lat="35.1326133" lon="10.6854683"><ele>89.0</ele><time>2026-04-04T18:07:10.286Z</time></trkpt><trkpt lat="35.1323817" lon="10.6856767"><ele>91.0</ele><time>2026-04-04T18:07:11.286Z</time></trkpt><trkpt lat="35.1321483" lon="10.685885"><ele>91.0</ele><time>2026-04-04T18:07:12.285Z</time></trkpt><trkpt lat="35.1319183" lon="10.6860933"><ele>91.0</ele><time>2026-04-04T18:07:13.285Z</time></trkpt><trkpt lat="35.13169" lon="10.6863"><ele>91.0</ele><time>2026-04-04T18:07:14.286Z</time></trkpt><trkpt lat="35.1314617" lon="10.6865033"><ele>91.0</ele><time>2026-04-04T18:07:15.286Z</time></trkpt><trkpt lat="35.131235" lon="10.68671"><ele>91.0</ele><time>2026-04-04T18:07:16.285Z</time></trkpt><trkpt lat="35.1310083" lon="10.686915"><ele>91.0</ele><time>2026-04-04T18:07:17.285Z</time></trkpt><trkpt lat="35.1307783" lon="10.6871217"><ele>91.0</ele><time>2026-04-04T18:07:18.283Z</time></trkpt><trkpt lat="35.1305467" lon="10.6873283"><ele>91.0</ele><time>2026-04-04T18:07:19.283Z</time></trkpt><trkpt lat="35.1303167" lon="10.687535"><ele>91.0</ele><time>2026-04-04T18:07:20.283Z</time></trkpt><trkpt lat="35.1300883" lon="10.6877417"><ele>91.0</ele><time>2026-04-04T18:07:21.283Z</time></trkpt><trkpt lat="35.1298583" lon="10.68795"><ele>90.5</ele><time>2026-04-04T18:07:22.284Z</time></trkpt><trkpt lat="35.1296317" lon="10.688155"><ele>90.0</ele><time>2026-04-04T18:07:23.284Z</time></trkpt><trkpt lat="35.129405" lon="10.68836"><ele>90.0</ele><time>2026-04-04T18:07:24.284Z</time></trkpt><trkpt lat="35.1291817" lon="10.6885633"><ele>90.0</ele><time>2026-04-04T18:07:25.283Z</time></trkpt><trkpt lat="35.1289567" lon="10.68877"><ele>89.0</ele><time>2026-04-04T18:07:26.284Z</time></trkpt><trkpt lat="35.1287317" lon="10.6889733"><ele>88.0</ele><time>2026-04-04T18:07:27.285Z</time></trkpt><trkpt lat="35.128505" lon="10.6891767"><ele>88.0</ele><time>2026-04-04T18:07:28.285Z</time></trkpt><trkpt lat="35.12828" lon="10.68938"><ele>88.0</ele><time>2026-04-04T18:07:29.287Z</time></trkpt><trkpt lat="35.128055" lon="10.6895833"><ele>85.5</ele><time>2026-04-04T18:07:30.286Z</time></trkpt><trkpt lat="35.12783" lon="10.689785"><ele>83.0</ele><time>2026-04-04T18:07:31.286Z</time></trkpt><trkpt lat="35.127605" lon="10.68999"><ele>81.5</ele><time>2026-04-04T18:07:32.285Z</time></trkpt><trkpt lat="35.1273783" lon="10.6901933"><ele>80.0</ele><time>2026-04-04T18:07:33.286Z</time></trkpt><trkpt lat="35.1271533" lon="10.6903983"><ele>79.5</ele><time>2026-04-04T18:07:34.285Z</time></trkpt><trkpt lat="35.1269283" lon="10.690605"><ele>79.0</ele><time>2026-04-04T18:07:35.286Z</time></trkpt><trkpt lat="35.1267033" lon="10.69081"><ele>79.0</ele><time>2026-04-04T18:07:36.285Z</time></trkpt><trkpt lat="35.1264767" lon="10.6910133"><ele>79.0</ele><time>2026-04-04T18:07:37.286Z</time></trkpt><trkpt lat="35.1262483" lon="10.6912183"><ele>79.0</ele><time>2026-04-04T18:07:38.285Z</time></trkpt><trkpt lat="35.1260233" lon="10.6914233"><ele>79.0</ele><time>2026-04-04T18:07:39.285Z</time></trkpt><trkpt lat="35.1257983" lon="10.691625"><ele>79.0</ele><time>2026-04-04T18:07:40.285Z</time></trkpt><trkpt lat="35.125575" lon="10.6918267"><ele>79.0</ele><time>2026-04-04T18:07:41.285Z</time></trkpt><trkpt lat="35.1253483" lon="10.6920317"><ele>78.5</ele><time>2026-04-04T18:07:42.285Z</time></trkpt><trkpt lat="35.1251217" lon="10.692235"><ele>78.0</ele><time>2026-04-04T18:07:43.285Z</time></trkpt><trkpt lat="35.1248933" lon="10.6924383"><ele>78.0</ele><time>2026-04-04T18:07:44.282Z</time></trkpt><trkpt lat="35.124665" lon="10.692645"><ele>78.0</ele><time>2026-04-04T18:07:45.283Z</time></trkpt><trkpt lat="35.1244367" lon="10.6928533"><ele>78.5</ele><time>2026-04-04T18:07:46.284Z</time></trkpt><trkpt lat="35.124205" lon="10.69306"><ele>79.0</ele><time>2026-04-04T18:07:47.284Z</time></trkpt><trkpt lat="35.1239717" lon="10.69327"><ele>79.5</ele><time>2026-04-04T18:07:48.283Z</time></trkpt><trkpt lat="35.1237367" lon="10.69348"><ele>80.0</ele><time>2026-04-04T18:07:49.284Z</time></trkpt><trkpt lat="35.1235" lon="10.6936917"><ele>80.0</ele><time>2026-04-04T18:07:50.284Z</time></trkpt><trkpt lat="35.1232633" lon="10.6939033"><ele>80.0</ele><time>2026-04-04T18:07:51.283Z</time></trkpt><trkpt lat="35.123025" lon="10.6941183"><ele>81.0</ele><time>2026-04-04T18:07:52.285Z</time></trkpt><trkpt lat="35.12279" lon="10.6943317"><ele>82.0</ele><time>2026-04-04T18:07:53.282Z</time></trkpt><trkpt lat="35.1225533" lon="10.6945467"><ele>83.0</ele><time>2026-04-04T18:07:54.285Z</time></trkpt><trkpt lat="35.1223183" lon="10.6947583"><ele>84.0</ele><time>2026-04-04T18:07:55.282Z</time></trkpt><trkpt lat="35.1220833" lon="10.69497"><ele>84.0</ele><time>2026-04-04T18:07:56.285Z</time></trkpt><trkpt lat="35.12185" lon="10.69518"><ele>84.0</ele><time>2026-04-04T18:07:57.286Z</time></trkpt><trkpt lat="35.121615" lon="10.6953933"><ele>83.0</ele><time>2026-04-04T18:07:58.285Z</time></trkpt><trkpt lat="35.1213783" lon="10.6956033"><ele>82.0</ele><time>2026-04-04T18:07:59.282Z</time></trkpt><trkpt lat="35.1211433" lon="10.695815"><ele>82.0</ele><time>2026-04-04T18:08:00.286Z</time></trkpt><trkpt lat="35.1209067" lon="10.6960267"><ele>82.0</ele><time>2026-04-04T18:08:01.285Z</time></trkpt><trkpt lat="35.1206683" lon="10.69624"><ele>80.0</ele><time>2026-04-04T18:08:02.285Z</time></trkpt><trkpt lat="35.1204317" lon="10.6964567"><ele>78.0</ele><time>2026-04-04T18:08:03.282Z</time></trkpt><trkpt lat="35.1201933" lon="10.6966733"><ele>78.0</ele><time>2026-04-04T18:08:04.283Z</time></trkpt><trkpt lat="35.119955" lon="10.6968883"><ele>78.0</ele><time>2026-04-04T18:08:05.282Z</time></trkpt><trkpt lat="35.1197167" lon="10.697105"><ele>76.5</ele><time>2026-04-04T18:08:06.283Z</time></trkpt><trkpt lat="35.1194767" lon="10.6973217"><ele>75.0</ele><time>2026-04-04T18:08:07.283Z</time></trkpt><trkpt lat="35.1192383" lon="10.6975333"><ele>75.0</ele><time>2026-04-04T18:08:08.282Z</time></trkpt><trkpt lat="35.119" lon="10.697745"><ele>75.0</ele><time>2026-04-04T18:08:09.282Z</time></trkpt><trkpt lat="35.1187633" lon="10.69796"><ele>73.0</ele><time>2026-04-04T18:08:10.285Z</time></trkpt><trkpt lat="35.118525" lon="10.698175"><ele>71.0</ele><time>2026-04-04T18:08:11.286Z</time></trkpt><trkpt lat="35.1182867" lon="10.6983883"><ele>71.5</ele><time>2026-04-04T18:08:12.285Z</time></trkpt><trkpt lat="35.1180517" lon="10.6986033"><ele>72.0</ele><time>2026-04-04T18:08:13.285Z</time></trkpt><trkpt lat="35.11782" lon="10.6988133"><ele>72.0</ele><time>2026-04-04T18:08:14.282Z</time></trkpt><trkpt lat="35.11759" lon="10.69902"><ele>72.0</ele><time>2026-04-04T18:08:15.282Z</time></trkpt><trkpt lat="35.1173633" lon="10.699225"><ele>71.0</ele><time>2026-04-04T18:08:16.282Z</time></trkpt><trkpt lat="35.1171367" lon="10.69943"><ele>70.0</ele><time>2026-04-04T18:08:17.282Z</time></trkpt><trkpt lat="35.1169117" lon="10.6996367"><ele>70.0</ele><time>2026-04-04T18:08:18.283Z</time></trkpt><trkpt lat="35.1166833" lon="10.6998433"><ele>70.0</ele><time>2026-04-04T18:08:19.282Z</time></trkpt><trkpt lat="35.1164533" lon="10.70005"><ele>69.0</ele><time>2026-04-04T18:08:20.282Z</time></trkpt><trkpt lat="35.1162217" lon="10.7002567"><ele>68.0</ele><time>2026-04-04T18:08:21.282Z</time></trkpt><trkpt lat="35.11599" lon="10.7004667"><ele>68.0</ele><time>2026-04-04T18:08:22.286Z</time></trkpt><trkpt lat="35.11576" lon="10.700675"><ele>68.0</ele><time>2026-04-04T18:08:23.285Z</time></trkpt><trkpt lat="35.1155283" lon="10.7008833"><ele>68.5</ele><time>2026-04-04T18:08:24.285Z</time></trkpt><trkpt lat="35.1152983" lon="10.7010917"><ele>69.0</ele><time>2026-04-04T18:08:25.285Z</time></trkpt><trkpt lat="35.1150683" lon="10.7013"><ele>68.0</ele><time>2026-04-04T18:08:26.286Z</time></trkpt><trkpt lat="35.11484" lon="10.7015067"><ele>67.0</ele><time>2026-04-04T18:08:27.285Z</time></trkpt><trkpt lat="35.11461" lon="10.7017167"><ele>68.0</ele><time>2026-04-04T18:08:28.285Z</time></trkpt><trkpt lat="35.1143783" lon="10.7019267"><ele>69.0</ele><time>2026-04-04T18:08:29.285Z</time></trkpt><trkpt lat="35.1141417" lon="10.702145"><ele>69.0</ele><time>2026-04-04T18:08:30.286Z</time></trkpt><trkpt lat="35.1139083" lon="10.7023667"><ele>69.0</ele><time>2026-04-04T18:08:31.285Z</time></trkpt><trkpt lat="35.113675" lon="10.7025883"><ele>69.5</ele><time>2026-04-04T18:08:32.285Z</time></trkpt><trkpt lat="35.1134433" lon="10.7028067"><ele>70.0</ele><time>2026-04-04T18:08:33.282Z</time></trkpt><trkpt lat="35.1132083" lon="10.7030217"><ele>68.5</ele><time>2026-04-04T18:08:34.283Z</time></trkpt><trkpt lat="35.1129733" lon="10.7032333"><ele>67.0</ele><time>2026-04-04T18:08:35.282Z</time></trkpt><trkpt lat="35.112735" lon="10.7034417"><ele>67.0</ele><time>2026-04-04T18:08:36.283Z</time></trkpt><trkpt lat="35.1124917" lon="10.703645"><ele>67.0</ele><time>2026-04-04T18:08:37.283Z</time></trkpt><trkpt lat="35.112245" lon="10.7038433"><ele>68.0</ele><time>2026-04-04T18:08:38.282Z</time></trkpt><trkpt lat="35.1119967" lon="10.7040383"><ele>69.0</ele><time>2026-04-04T18:08:39.282Z</time></trkpt><trkpt lat="35.1117483" lon="10.70423"><ele>68.0</ele><time>2026-04-04T18:08:40.284Z</time></trkpt><trkpt lat="35.111505" lon="10.7044183"><ele>67.0</ele><time>2026-04-04T18:08:41.285Z</time></trkpt><trkpt lat="35.111265" lon="10.7046067"><ele>67.0</ele><time>2026-04-04T18:08:42.286Z</time></trkpt><trkpt lat="35.1110217" lon="10.7047967"><ele>67.0</ele><time>2026-04-04T18:08:43.285Z</time></trkpt><trkpt lat="35.1107767" lon="10.7049833"><ele>67.0</ele><time>2026-04-04T18:08:44.285Z</time></trkpt><trkpt lat="35.1105333" lon="10.7051667"><ele>67.0</ele><time>2026-04-04T18:08:45.285Z</time></trkpt><trkpt lat="35.1102933" lon="10.70535"><ele>67.5</ele><time>2026-04-04T18:08:46.286Z</time></trkpt><trkpt lat="35.110055" lon="10.7055267"><ele>68.0</ele><time>2026-04-04T18:08:47.285Z</time></trkpt><trkpt lat="35.109815" lon="10.7057017"><ele>68.0</ele><time>2026-04-04T18:08:48.285Z</time></trkpt><trkpt lat="35.1095683" lon="10.7058783"><ele>68.0</ele><time>2026-04-04T18:08:49.285Z</time></trkpt><trkpt lat="35.1093217" lon="10.7060533"><ele>69.5</ele><time>2026-04-04T18:08:50.286Z</time></trkpt><trkpt lat="35.109075" lon="10.7062217"><ele>71.0</ele><time>2026-04-04T18:08:51.286Z</time></trkpt><trkpt lat="35.1088267" lon="10.70639"><ele>71.0</ele><time>2026-04-04T18:08:52.286Z</time></trkpt><trkpt lat="35.1085817" lon="10.7065567"><ele>71.0</ele><time>2026-04-04T18:08:53.285Z</time></trkpt><trkpt lat="35.108335" lon="10.70672"><ele>71.0</ele><time>2026-04-04T18:08:54.286Z</time></trkpt><trkpt lat="35.10809" lon="10.7068817"><ele>71.0</ele><time>2026-04-04T18:08:55.284Z</time></trkpt><trkpt lat="35.107845" lon="10.7070433"><ele>72.0</ele><time>2026-04-04T18:08:56.285Z</time></trkpt><trkpt lat="35.1076" lon="10.7072"><ele>73.0</ele><time>2026-04-04T18:08:57.284Z</time></trkpt><trkpt lat="35.1073517" lon="10.707355"><ele>74.5</ele><time>2026-04-04T18:08:58.284Z</time></trkpt><trkpt lat="35.1071067" lon="10.7075083"><ele>76.0</ele><time>2026-04-04T18:08:59.285Z</time></trkpt><trkpt lat="35.1068583" lon="10.7076633"><ele>76.5</ele><time>2026-04-04T18:09:00.285Z</time></trkpt><trkpt lat="35.10661" lon="10.707815"><ele>77.0</ele><time>2026-04-04T18:09:01.285Z</time></trkpt><trkpt lat="35.10636" lon="10.707965"><ele>77.5</ele><time>2026-04-04T18:09:02.284Z</time></trkpt><trkpt lat="35.1061083" lon="10.7081133"><ele>78.0</ele><time>2026-04-04T18:09:03.281Z</time></trkpt><trkpt lat="35.1058583" lon="10.7082617"><ele>78.5</ele><time>2026-04-04T18:09:04.282Z</time></trkpt><trkpt lat="35.1056067" lon="10.708405"><ele>79.0</ele><time>2026-04-04T18:09:05.281Z</time></trkpt><trkpt lat="35.105355" lon="10.7085483"><ele>79.0</ele><time>2026-04-04T18:09:06.282Z</time></trkpt><trkpt lat="35.1051067" lon="10.7086883"><ele>79.0</ele><time>2026-04-04T18:09:07.281Z</time></trkpt><trkpt lat="35.1048567" lon="10.708825"><ele>79.0</ele><time>2026-04-04T18:09:08.283Z</time></trkpt><trkpt lat="35.1046017" lon="10.7089617"><ele>79.0</ele><time>2026-04-04T18:09:09.284Z</time></trkpt><trkpt lat="35.1043433" lon="10.7090983"><ele>79.0</ele><time>2026-04-04T18:09:10.285Z</time></trkpt><trkpt lat="35.1040833" lon="10.7092317"><ele>79.0</ele><time>2026-04-04T18:09:11.284Z</time></trkpt><trkpt lat="35.1038183" lon="10.7093633"><ele>79.0</ele><time>2026-04-04T18:09:12.284Z</time></trkpt><trkpt lat="35.1035517" lon="10.709495"><ele>79.0</ele><time>2026-04-04T18:09:13.286Z</time></trkpt><trkpt lat="35.103285" lon="10.7096283"><ele>79.0</ele><time>2026-04-04T18:09:14.285Z</time></trkpt><trkpt lat="35.1030167" lon="10.709755"><ele>79.0</ele><time>2026-04-04T18:09:15.284Z</time></trkpt><trkpt lat="35.1027433" lon="10.7098783"><ele>79.0</ele><time>2026-04-04T18:09:16.284Z</time></trkpt><trkpt lat="35.10247" lon="10.7099967"><ele>79.0</ele><time>2026-04-04T18:09:17.284Z</time></trkpt><trkpt lat="35.1021933" lon="10.7101117"><ele>78.5</ele><time>2026-04-04T18:09:18.284Z</time></trkpt><trkpt lat="35.1019217" lon="10.710225"><ele>78.0</ele><time>2026-04-04T18:09:19.284Z</time></trkpt><trkpt lat="35.1016483" lon="10.7103383"><ele>79.0</ele><time>2026-04-04T18:09:20.284Z</time></trkpt><trkpt lat="35.1013767" lon="10.7104517"><ele>80.0</ele><time>2026-04-04T18:09:21.284Z</time></trkpt><trkpt lat="35.1011033" lon="10.7105633"><ele>80.0</ele><time>2026-04-04T18:09:22.284Z</time></trkpt><trkpt lat="35.10083" lon="10.7106733"><ele>80.0</ele><time>2026-04-04T18:09:23.284Z</time></trkpt><trkpt lat="35.100555" lon="10.7107867"><ele>80.5</ele><time>2026-04-04T18:09:24.285Z</time></trkpt><trkpt lat="35.1002783" lon="10.7109017"><ele>81.0</ele><time>2026-04-04T18:09:25.285Z</time></trkpt><trkpt lat="35.1000033" lon="10.71102"><ele>80.5</ele><time>2026-04-04T18:09:26.284Z</time></trkpt><trkpt lat="35.0997267" lon="10.7111383"><ele>80.0</ele><time>2026-04-04T18:09:27.284Z</time></trkpt><trkpt lat="35.09945" lon="10.7112567"><ele>80.0</ele><time>2026-04-04T18:09:28.284Z</time></trkpt><trkpt lat="35.0991733" lon="10.7113733"><ele>80.0</ele><time>2026-04-04T18:09:29.284Z</time></trkpt><trkpt lat="35.0988967" lon="10.71149"><ele>80.5</ele><time>2026-04-04T18:09:30.284Z</time></trkpt><trkpt lat="35.09862" lon="10.7116067"><ele>81.0</ele><time>2026-04-04T18:09:31.286Z</time></trkpt><trkpt lat="35.0983433" lon="10.71172"><ele>81.0</ele><time>2026-04-04T18:09:32.284Z</time></trkpt><trkpt lat="35.0980667" lon="10.7118317"><ele>81.0</ele><time>2026-04-04T18:09:33.282Z</time></trkpt><trkpt lat="35.0977967" lon="10.711935"><ele>80.5</ele><time>2026-04-04T18:09:34.282Z</time></trkpt><trkpt lat="35.0975317" lon="10.7120333"><ele>80.0</ele><time>2026-04-04T18:09:35.282Z</time></trkpt><trkpt lat="35.09727" lon="10.7121267"><ele>81.5</ele><time>2026-04-04T18:09:36.282Z</time></trkpt><trkpt lat="35.0970083" lon="10.7122167"><ele>83.0</ele><time>2026-04-04T18:09:37.282Z</time></trkpt><trkpt lat="35.0967483" lon="10.7123067"><ele>82.0</ele><time>2026-04-04T18:09:38.281Z</time></trkpt><trkpt lat="35.0964867" lon="10.7123917"><ele>81.0</ele><time>2026-04-04T18:09:39.282Z</time></trkpt><trkpt lat="35.096225" lon="10.7124717"><ele>81.0</ele><time>2026-04-04T18:09:40.286Z</time></trkpt><trkpt lat="35.0959633" lon="10.7125517"><ele>81.0</ele><time>2026-04-04T18:09:41.286Z</time></trkpt><trkpt lat="35.0957033" lon="10.7126317"><ele>82.5</ele><time>2026-04-04T18:09:42.285Z</time></trkpt><trkpt lat="35.0954433" lon="10.71271"><ele>84.0</ele><time>2026-04-04T18:09:43.284Z</time></trkpt><trkpt lat="35.0951817" lon="10.7127783"><ele>85.0</ele><time>2026-04-04T18:09:44.284Z</time></trkpt><trkpt lat="35.0949117" lon="10.7128433"><ele>86.0</ele><time>2026-04-04T18:09:45.285Z</time></trkpt><trkpt lat="35.09464" lon="10.7129083"><ele>86.0</ele><time>2026-04-04T18:09:46.283Z</time></trkpt><trkpt lat="35.0943667" lon="10.71297"><ele>86.0</ele><time>2026-04-04T18:09:47.284Z</time></trkpt><trkpt lat="35.0940917" lon="10.7130333"><ele>87.5</ele><time>2026-04-04T18:09:48.285Z</time></trkpt><trkpt lat="35.0938167" lon="10.7130933"><ele>89.0</ele><time>2026-04-04T18:09:49.285Z</time></trkpt><trkpt lat="35.0935433" lon="10.7131483"><ele>89.0</ele><time>2026-04-04T18:09:50.284Z</time></trkpt><trkpt lat="35.0932667" lon="10.7132"><ele>89.0</ele><time>2026-04-04T18:09:51.284Z</time></trkpt><trkpt lat="35.09299" lon="10.7132517"><ele>89.5</ele><time>2026-04-04T18:09:52.285Z</time></trkpt><trkpt lat="35.092715" lon="10.7133"><ele>90.0</ele><time>2026-04-04T18:09:53.284Z</time></trkpt><trkpt lat="35.0924383" lon="10.7133483"><ele>89.5</ele><time>2026-04-04T18:09:54.285Z</time></trkpt><trkpt lat="35.0921617" lon="10.71339"><ele>89.0</ele><time>2026-04-04T18:09:55.284Z</time></trkpt><trkpt lat="35.091885" lon="10.7134283"><ele>89.0</ele><time>2026-04-04T18:09:56.283Z</time></trkpt><trkpt lat="35.0916083" lon="10.713465"><ele>89.0</ele><time>2026-04-04T18:09:57.284Z</time></trkpt><trkpt lat="35.0913333" lon="10.7134967"><ele>88.5</ele><time>2026-04-04T18:09:58.285Z</time></trkpt><trkpt lat="35.09106" lon="10.713525"><ele>88.0</ele><time>2026-04-04T18:09:59.284Z</time></trkpt><trkpt lat="35.0907883" lon="10.71355"><ele>88.0</ele><time>2026-04-04T18:10:00.285Z</time></trkpt><trkpt lat="35.090515" lon="10.7135717"><ele>88.0</ele><time>2026-04-04T18:10:01.285Z</time></trkpt><trkpt lat="35.09024" lon="10.71359"><ele>88.0</ele><time>2026-04-04T18:10:02.284Z</time></trkpt><trkpt lat="35.0899717" lon="10.7136067"><ele>88.0</ele><time>2026-04-04T18:10:03.283Z</time></trkpt><trkpt lat="35.0897033" lon="10.7136217"><ele>88.0</ele><time>2026-04-04T18:10:04.283Z</time></trkpt><trkpt lat="35.089435" lon="10.7136333"><ele>88.0</ele><time>2026-04-04T18:10:05.283Z</time></trkpt><trkpt lat="35.0891667" lon="10.7136433"><ele>89.5</ele><time>2026-04-04T18:10:06.285Z</time></trkpt><trkpt lat="35.0888967" lon="10.71365"><ele>91.0</ele><time>2026-04-04T18:10:07.284Z</time></trkpt><trkpt lat="35.088625" lon="10.7136567"><ele>91.0</ele><time>2026-04-04T18:10:08.285Z</time></trkpt><trkpt lat="35.08835" lon="10.7136583"><ele>91.0</ele><time>2026-04-04T18:10:09.284Z</time></trkpt><trkpt lat="35.0880733" lon="10.7136583"><ele>92.0</ele><time>2026-04-04T18:10:10.283Z</time></trkpt><trkpt lat="35.0877967" lon="10.7136567"><ele>93.0</ele><time>2026-04-04T18:10:11.284Z</time></trkpt><trkpt lat="35.08752" lon="10.7136517"><ele>93.5</ele><time>2026-04-04T18:10:12.285Z</time></trkpt><trkpt lat="35.0872433" lon="10.7136467"><ele>94.0</ele><time>2026-04-04T18:10:13.285Z</time></trkpt><trkpt lat="35.0869683" lon="10.7136433"><ele>94.0</ele><time>2026-04-04T18:10:14.283Z</time></trkpt><trkpt lat="35.086695" lon="10.7136417"><ele>94.0</ele><time>2026-04-04T18:10:15.285Z</time></trkpt><trkpt lat="35.08642" lon="10.7136383"><ele>93.5</ele><time>2026-04-04T18:10:16.283Z</time></trkpt><trkpt lat="35.0861417" lon="10.7136367"><ele>93.0</ele><time>2026-04-04T18:10:17.284Z</time></trkpt><trkpt lat="35.0858617" lon="10.713635"><ele>94.0</ele><time>2026-04-04T18:10:18.284Z</time></trkpt><trkpt lat="35.08558" lon="10.7136333"><ele>95.0</ele><time>2026-04-04T18:10:19.284Z</time></trkpt><trkpt lat="35.0852933" lon="10.7136333"><ele>95.0</ele><time>2026-04-04T18:10:20.284Z</time></trkpt><trkpt lat="35.0850083" lon="10.7136317"><ele>95.0</ele><time>2026-04-04T18:10:21.284Z</time></trkpt><trkpt lat="35.0847233" lon="10.7136283"><ele>96.0</ele><time>2026-04-04T18:10:22.283Z</time></trkpt><trkpt lat="35.0844417" lon="10.7136233"><ele>97.0</ele><time>2026-04-04T18:10:23.284Z</time></trkpt><trkpt lat="35.08416" lon="10.7136183"><ele>97.0</ele><time>2026-04-04T18:10:24.285Z</time></trkpt><trkpt lat="35.0838783" lon="10.7136133"><ele>97.0</ele><time>2026-04-04T18:10:25.285Z</time></trkpt><trkpt lat="35.0835967" lon="10.7136117"><ele>97.0</ele><time>2026-04-04T18:10:26.284Z</time></trkpt><trkpt lat="35.0833183" lon="10.7136083"><ele>97.0</ele><time>2026-04-04T18:10:27.284Z</time></trkpt><trkpt lat="35.0830383" lon="10.713605"><ele>98.0</ele><time>2026-04-04T18:10:28.285Z</time></trkpt><trkpt lat="35.0827617" lon="10.713605"><ele>99.0</ele><time>2026-04-04T18:10:29.281Z</time></trkpt><trkpt lat="35.0824867" lon="10.7136033"><ele>98.5</ele><time>2026-04-04T18:10:30.285Z</time></trkpt><trkpt lat="35.0822183" lon="10.713595"><ele>98.0</ele><time>2026-04-04T18:10:31.284Z</time></trkpt><trkpt lat="35.08195" lon="10.7135917"><ele>98.0</ele><time>2026-04-04T18:10:32.283Z</time></trkpt><trkpt lat="35.0816783" lon="10.71359"><ele>98.0</ele><time>2026-04-04T18:10:33.283Z</time></trkpt><trkpt lat="35.08141" lon="10.7135883"><ele>97.5</ele><time>2026-04-04T18:10:34.283Z</time></trkpt><trkpt lat="35.0811467" lon="10.7135833"><ele>97.0</ele><time>2026-04-04T18:10:35.284Z</time></trkpt><trkpt lat="35.080885" lon="10.71358"><ele>97.5</ele><time>2026-04-04T18:10:36.285Z</time></trkpt><trkpt lat="35.08062" lon="10.713575"><ele>98.0</ele><time>2026-04-04T18:10:37.287Z</time></trkpt><trkpt lat="35.0803567" lon="10.71357"><ele>98.5</ele><time>2026-04-04T18:10:38.284Z</time></trkpt><trkpt lat="35.0800933" lon="10.7135667"><ele>99.0</ele><time>2026-04-04T18:10:39.284Z</time></trkpt><trkpt lat="35.0798283" lon="10.7135633"><ele>99.0</ele><time>2026-04-04T18:10:40.283Z</time></trkpt><trkpt lat="35.079565" lon="10.71356"><ele>99.0</ele><time>2026-04-04T18:10:41.285Z</time></trkpt><trkpt lat="35.0793033" lon="10.7135583"><ele>98.5</ele><time>2026-04-04T18:10:42.285Z</time></trkpt><trkpt lat="35.07904" lon="10.7135533"><ele>98.0</ele><time>2026-04-04T18:10:43.284Z</time></trkpt><trkpt lat="35.0787733" lon="10.7135483"><ele>98.0</ele><time>2026-04-04T18:10:44.284Z</time></trkpt><trkpt lat="35.0785083" lon="10.713545"><ele>98.0</ele><time>2026-04-04T18:10:45.285Z</time></trkpt><trkpt lat="35.07824" lon="10.7135433"><ele>97.0</ele><time>2026-04-04T18:10:46.284Z</time></trkpt><trkpt lat="35.0779717" lon="10.7135433"><ele>96.0</ele><time>2026-04-04T18:10:47.284Z</time></trkpt><trkpt lat="35.0777017" lon="10.71354"><ele>96.0</ele><time>2026-04-04T18:10:48.285Z</time></trkpt><trkpt lat="35.0774317" lon="10.7135367"><ele>96.0</ele><time>2026-04-04T18:10:49.284Z</time></trkpt><trkpt lat="35.07716" lon="10.7135317"><ele>96.0</ele><time>2026-04-04T18:10:50.283Z</time></trkpt><trkpt lat="35.0768883" lon="10.7135283"><ele>96.0</ele><time>2026-04-04T18:10:51.285Z</time></trkpt><trkpt lat="35.076615" lon="10.713525"><ele>95.0</ele><time>2026-04-04T18:10:52.284Z</time></trkpt><trkpt lat="35.0763417" lon="10.71352"><ele>94.0</ele><time>2026-04-04T18:10:53.285Z</time></trkpt><trkpt lat="35.0760683" lon="10.7135183"><ele>94.0</ele><time>2026-04-04T18:10:54.282Z</time></trkpt><trkpt lat="35.07579" lon="10.713515"><ele>94.0</ele><time>2026-04-04T18:10:55.284Z</time></trkpt><trkpt lat="35.0755117" lon="10.713515"><ele>93.5</ele><time>2026-04-04T18:10:56.283Z</time></trkpt><trkpt lat="35.0752317" lon="10.7135133"><ele>93.0</ele><time>2026-04-04T18:10:57.284Z</time></trkpt><trkpt lat="35.07495" lon="10.7135117"><ele>93.0</ele><time>2026-04-04T18:10:58.283Z</time></trkpt><trkpt lat="35.0746717" lon="10.7135083"><ele>93.0</ele><time>2026-04-04T18:10:59.284Z</time></trkpt><trkpt lat="35.074395" lon="10.7135033"><ele>93.0</ele><time>2026-04-04T18:11:00.284Z</time></trkpt><trkpt lat="35.0741217" lon="10.7134983"><ele>93.0</ele><time>2026-04-04T18:11:01.285Z</time></trkpt><trkpt lat="35.0738483" lon="10.713495"><ele>93.0</ele><time>2026-04-04T18:11:02.285Z</time></trkpt><trkpt lat="35.073575" lon="10.71349"><ele>93.0</ele><time>2026-04-04T18:11:03.284Z</time></trkpt><trkpt lat="35.0733033" lon="10.7134867"><ele>94.0</ele><time>2026-04-04T18:11:04.283Z</time></trkpt><trkpt lat="35.0730333" lon="10.713485"><ele>95.0</ele><time>2026-04-04T18:11:05.284Z</time></trkpt><trkpt lat="35.0727617" lon="10.7134833"><ele>95.0</ele><time>2026-04-04T18:11:06.286Z</time></trkpt><trkpt lat="35.0724917" lon="10.71348"><ele>95.0</ele><time>2026-04-04T18:11:07.284Z</time></trkpt><trkpt lat="35.0722233" lon="10.7134783"><ele>96.5</ele><time>2026-04-04T18:11:08.284Z</time></trkpt><trkpt lat="35.071955" lon="10.7134767"><ele>98.0</ele><time>2026-04-04T18:11:09.284Z</time></trkpt><trkpt lat="35.0716833" lon="10.7134783"><ele>98.5</ele><time>2026-04-04T18:11:10.283Z</time></trkpt><trkpt lat="35.07141" lon="10.7134817"><ele>99.0</ele><time>2026-04-04T18:11:11.285Z</time></trkpt><trkpt lat="35.071135" lon="10.713485"><ele>99.0</ele><time>2026-04-04T18:11:12.285Z</time></trkpt><trkpt lat="35.0708583" lon="10.713485"><ele>99.0</ele><time>2026-04-04T18:11:13.285Z</time></trkpt><trkpt lat="35.0705783" lon="10.7134833"><ele>99.5</ele><time>2026-04-04T18:11:14.284Z</time></trkpt><trkpt lat="35.070295" lon="10.71348"><ele>100.0</ele><time>2026-04-04T18:11:15.284Z</time></trkpt><trkpt lat="35.0700083" lon="10.7134767"><ele>100.0</ele><time>2026-04-04T18:11:16.284Z</time></trkpt><trkpt lat="35.0697183" lon="10.7134733"><ele>100.0</ele><time>2026-04-04T18:11:17.284Z</time></trkpt><trkpt lat="35.0694267" lon="10.71347"><ele>100.0</ele><time>2026-04-04T18:11:18.285Z</time></trkpt><trkpt lat="35.0691317" lon="10.7134683"><ele>100.0</ele><time>2026-04-04T18:11:19.284Z</time></trkpt><trkpt lat="35.068835" lon="10.7134667"><ele>99.5</ele><time>2026-04-04T18:11:20.284Z</time></trkpt><trkpt lat="35.0685367" lon="10.7134633"><ele>99.0</ele><time>2026-04-04T18:11:21.284Z</time></trkpt><trkpt lat="35.068235" lon="10.7134617"><ele>99.0</ele><time>2026-04-04T18:11:22.283Z</time></trkpt><trkpt lat="35.0679333" lon="10.713465"><ele>99.0</ele><time>2026-04-04T18:11:23.284Z</time></trkpt><trkpt lat="35.0676333" lon="10.713475"><ele>98.5</ele><time>2026-04-04T18:11:24.286Z</time></trkpt><trkpt lat="35.0673317" lon="10.7134867"><ele>98.0</ele><time>2026-04-04T18:11:25.284Z</time></trkpt><trkpt lat="35.0670317" lon="10.7134983"><ele>98.0</ele><time>2026-04-04T18:11:26.285Z</time></trkpt><trkpt lat="35.0667317" lon="10.71351"><ele>98.0</ele><time>2026-04-04T18:11:27.284Z</time></trkpt><trkpt lat="35.0664283" lon="10.713525"><ele>99.0</ele><time>2026-04-04T18:11:28.283Z</time></trkpt><trkpt lat="35.0661267" lon="10.7135433"><ele>100.0</ele><time>2026-04-04T18:11:29.285Z</time></trkpt><trkpt lat="35.0658217" lon="10.713565"><ele>101.0</ele><time>2026-04-04T18:11:30.285Z</time></trkpt><trkpt lat="35.065515" lon="10.7135917"><ele>102.0</ele><time>2026-04-04T18:11:31.285Z</time></trkpt><trkpt lat="35.065205" lon="10.7136217"><ele>103.5</ele><time>2026-04-04T18:11:32.284Z</time></trkpt><trkpt lat="35.0648983" lon="10.7136517"><ele>105.0</ele><time>2026-04-04T18:11:33.282Z</time></trkpt><trkpt lat="35.0645933" lon="10.7136833"><ele>105.0</ele><time>2026-04-04T18:11:34.281Z</time></trkpt><trkpt lat="35.064295" lon="10.7137183"><ele>105.0</ele><time>2026-04-04T18:11:35.282Z</time></trkpt><trkpt lat="35.0640033" lon="10.713755"><ele>105.0</ele><time>2026-04-04T18:11:36.282Z</time></trkpt><trkpt lat="35.0637167" lon="10.7137917"><ele>105.0</ele><time>2026-04-04T18:11:37.285Z</time></trkpt><trkpt lat="35.063435" lon="10.7138283"><ele>105.5</ele><time>2026-04-04T18:11:38.282Z</time></trkpt><trkpt lat="35.0631583" lon="10.7138667"><ele>106.0</ele><time>2026-04-04T18:11:39.282Z</time></trkpt><trkpt lat="35.06288" lon="10.7139067"><ele>106.0</ele><time>2026-04-04T18:11:40.285Z</time></trkpt><trkpt lat="35.0626" lon="10.7139517"><ele>106.0</ele><time>2026-04-04T18:11:41.284Z</time></trkpt><trkpt lat="35.0623167" lon="10.714"><ele>106.0</ele><time>2026-04-04T18:11:42.285Z</time></trkpt><trkpt lat="35.06203" lon="10.71405"><ele>106.0</ele><time>2026-04-04T18:11:43.284Z</time></trkpt><trkpt lat="35.061735" lon="10.7141"><ele>106.5</ele><time>2026-04-04T18:11:44.284Z</time></trkpt><trkpt lat="35.0614367" lon="10.7141533"><ele>107.0</ele><time>2026-04-04T18:11:45.284Z</time></trkpt><trkpt lat="35.0611333" lon="10.7142067"><ele>107.0</ele><time>2026-04-04T18:11:46.284Z</time></trkpt><trkpt lat="35.060835" lon="10.7142583"><ele>107.0</ele><time>2026-04-04T18:11:47.284Z</time></trkpt><trkpt lat="35.0605483" lon="10.71431"><ele>106.5</ele><time>2026-04-04T18:11:48.285Z</time></trkpt><trkpt lat="35.06028" lon="10.714355"><ele>106.0</ele><time>2026-04-04T18:11:49.285Z</time></trkpt><trkpt lat="35.0600183" lon="10.7143917"><ele>105.5</ele><time>2026-04-04T18:11:50.284Z</time></trkpt><trkpt lat="35.059755" lon="10.7144367"><ele>105.0</ele><time>2026-04-04T18:11:51.285Z</time></trkpt><trkpt lat="35.05949" lon="10.7144833"><ele>105.0</ele><time>2026-04-04T18:11:52.284Z</time></trkpt><trkpt lat="35.0592233" lon="10.71453"><ele>105.0</ele><time>2026-04-04T18:11:53.284Z</time></trkpt><trkpt lat="35.058955" lon="10.7145767"><ele>105.5</ele><time>2026-04-04T18:11:54.284Z</time></trkpt><trkpt lat="35.058685" lon="10.7146233"><ele>106.0</ele><time>2026-04-04T18:11:55.284Z</time></trkpt><trkpt lat="35.0584133" lon="10.7146733"><ele>106.5</ele><time>2026-04-04T18:11:56.284Z</time></trkpt><trkpt lat="35.0581417" lon="10.71472"><ele>107.0</ele><time>2026-04-04T18:11:57.284Z</time></trkpt><trkpt lat="35.0578683" lon="10.7147683"><ele>107.0</ele><time>2026-04-04T18:11:58.284Z</time></trkpt><trkpt lat="35.0575967" lon="10.7148133"><ele>107.0</ele><time>2026-04-04T18:11:59.285Z</time></trkpt><trkpt lat="35.0573283" lon="10.71486"><ele>107.5</ele><time>2026-04-04T18:12:00.286Z</time></trkpt><trkpt lat="35.0570617" lon="10.71491"><ele>108.0</ele><time>2026-04-04T18:12:01.284Z</time></trkpt><trkpt lat="35.0568017" lon="10.71496"><ele>107.5</ele><time>2026-04-04T18:12:02.284Z</time></trkpt><trkpt lat="35.0565483" lon="10.7150067"><ele>107.0</ele><time>2026-04-04T18:12:03.284Z</time></trkpt><trkpt lat="35.0562917" lon="10.7150533"><ele>107.0</ele><time>2026-04-04T18:12:04.284Z</time></trkpt><trkpt lat="35.0560383" lon="10.715095"><ele>107.0</ele><time>2026-04-04T18:12:05.284Z</time></trkpt><trkpt lat="35.055775" lon="10.7151417"><ele>107.0</ele><time>2026-04-04T18:12:06.282Z</time></trkpt><trkpt lat="35.0555133" lon="10.715185"><ele>107.0</ele><time>2026-04-04T18:12:07.285Z</time></trkpt><trkpt lat="35.05525" lon="10.7152317"><ele>107.5</ele><time>2026-04-04T18:12:08.284Z</time></trkpt><trkpt lat="35.0549833" lon="10.7152783"><ele>108.0</ele><time>2026-04-04T18:12:09.284Z</time></trkpt><trkpt lat="35.054715" lon="10.7153283"><ele>108.0</ele><time>2026-04-04T18:12:10.284Z</time></trkpt><trkpt lat="35.0544483" lon="10.7153783"><ele>108.0</ele><time>2026-04-04T18:12:11.285Z</time></trkpt><trkpt lat="35.05418" lon="10.7154283"><ele>108.0</ele><time>2026-04-04T18:12:12.285Z</time></trkpt><trkpt lat="35.0539117" lon="10.7154767"><ele>108.0</ele><time>2026-04-04T18:12:13.284Z</time></trkpt><trkpt lat="35.0536433" lon="10.7155283"><ele>108.0</ele><time>2026-04-04T18:12:14.285Z</time></trkpt><trkpt lat="35.0533767" lon="10.7155817"><ele>108.0</ele><time>2026-04-04T18:12:15.284Z</time></trkpt><trkpt lat="35.05311" lon="10.715635"><ele>105.5</ele><time>2026-04-04T18:12:16.284Z</time></trkpt><trkpt lat="35.0528417" lon="10.7156917"><ele>103.0</ele><time>2026-04-04T18:12:17.284Z</time></trkpt><trkpt lat="35.0525717" lon="10.7157533"><ele>101.0</ele><time>2026-04-04T18:12:18.285Z</time></trkpt><trkpt lat="35.05231" lon="10.7158167"><ele>99.0</ele><time>2026-04-04T18:12:19.284Z</time></trkpt><trkpt lat="35.0520567" lon="10.7158833"><ele>99.0</ele><time>2026-04-04T18:12:20.284Z</time></trkpt><trkpt lat="35.05181" lon="10.715955"><ele>99.0</ele><time>2026-04-04T18:12:21.284Z</time></trkpt><trkpt lat="35.0515633" lon="10.7160317"><ele>99.5</ele><time>2026-04-04T18:12:22.285Z</time></trkpt><trkpt lat="35.05132" lon="10.7161133"><ele>100.0</ele><time>2026-04-04T18:12:23.284Z</time></trkpt><trkpt lat="35.0510767" lon="10.716195"><ele>100.0</ele><time>2026-04-04T18:12:24.285Z</time></trkpt><trkpt lat="35.0508367" lon="10.7162767"><ele>100.0</ele><time>2026-04-04T18:12:25.285Z</time></trkpt><trkpt lat="35.0505967" lon="10.7163633"><ele>99.5</ele><time>2026-04-04T18:12:26.284Z</time></trkpt><trkpt lat="35.05036" lon="10.716455"><ele>99.0</ele><time>2026-04-04T18:12:27.284Z</time></trkpt><trkpt lat="35.0501267" lon="10.7165517"><ele>98.0</ele><time>2026-04-04T18:12:28.285Z</time></trkpt><trkpt lat="35.049895" lon="10.7166517"><ele>97.0</ele><time>2026-04-04T18:12:29.285Z</time></trkpt><trkpt lat="35.0496633" lon="10.7167533"><ele>97.0</ele><time>2026-04-04T18:12:30.286Z</time></trkpt><trkpt lat="35.0494267" lon="10.7168583"><ele>97.0</ele><time>2026-04-04T18:12:31.285Z</time></trkpt><trkpt lat="35.0491883" lon="10.71697"><ele>96.5</ele><time>2026-04-04T18:12:32.285Z</time></trkpt><trkpt lat="35.04895" lon="10.7170883"><ele>96.0</ele><time>2026-04-04T18:12:33.284Z</time></trkpt><trkpt lat="35.0487133" lon="10.7172133"><ele>96.0</ele><time>2026-04-04T18:12:34.286Z</time></trkpt><trkpt lat="35.048475" lon="10.7173417"><ele>96.0</ele><time>2026-04-04T18:12:35.286Z</time></trkpt><trkpt lat="35.048235" lon="10.717475"><ele>96.0</ele><time>2026-04-04T18:12:36.285Z</time></trkpt><trkpt lat="35.0479933" lon="10.71761"><ele>96.0</ele><time>2026-04-04T18:12:37.286Z</time></trkpt><trkpt lat="35.047755" lon="10.7177517"><ele>96.0</ele><time>2026-04-04T18:12:38.284Z</time></trkpt><trkpt lat="35.0475183" lon="10.7179"><ele>96.0</ele><time>2026-04-04T18:12:39.284Z</time></trkpt><trkpt lat="35.0472833" lon="10.718055"><ele>95.5</ele><time>2026-04-04T18:12:40.285Z</time></trkpt><trkpt lat="35.04705" lon="10.7182167"><ele>95.0</ele><time>2026-04-04T18:12:41.284Z</time></trkpt><trkpt lat="35.0468183" lon="10.7183817"><ele>94.0</ele><time>2026-04-04T18:12:42.286Z</time></trkpt><trkpt lat="35.0465867" lon="10.71855"><ele>93.0</ele><time>2026-04-04T18:12:43.285Z</time></trkpt><trkpt lat="35.0463567" lon="10.7187233"><ele>92.5</ele><time>2026-04-04T18:12:44.285Z</time></trkpt><trkpt lat="35.046125" lon="10.7189017"><ele>92.0</ele><time>2026-04-04T18:12:45.284Z</time></trkpt><trkpt lat="35.0458967" lon="10.719085"><ele>91.5</ele><time>2026-04-04T18:12:46.284Z</time></trkpt><trkpt lat="35.0456667" lon="10.7192733"><ele>91.0</ele><time>2026-04-04T18:12:47.285Z</time></trkpt><trkpt lat="35.04544" lon="10.7194683"><ele>90.0</ele><time>2026-04-04T18:12:48.286Z</time></trkpt><trkpt lat="35.04521" lon="10.71967"><ele>89.0</ele><time>2026-04-04T18:12:49.287Z</time></trkpt><trkpt lat="35.04498" lon="10.7198783"><ele>89.5</ele><time>2026-04-04T18:12:50.284Z</time></trkpt><trkpt lat="35.0447483" lon="10.7200917"><ele>90.0</ele><time>2026-04-04T18:12:51.284Z</time></trkpt><trkpt lat="35.0445167" lon="10.7203117"><ele>89.0</ele><time>2026-04-04T18:12:52.285Z</time></trkpt><trkpt lat="35.0442833" lon="10.7205317"><ele>88.0</ele><time>2026-04-04T18:12:53.285Z</time></trkpt><trkpt lat="35.0440517" lon="10.7207583"><ele>88.0</ele><time>2026-04-04T18:12:54.285Z</time></trkpt><trkpt lat="35.0438217" lon="10.720985"><ele>88.0</ele><time>2026-04-04T18:12:55.285Z</time></trkpt><trkpt lat="35.0435933" lon="10.7212083"><ele>88.5</ele><time>2026-04-04T18:12:56.284Z</time></trkpt><trkpt lat="35.0433633" lon="10.72143"><ele>89.0</ele><time>2026-04-04T18:12:57.285Z</time></trkpt><trkpt lat="35.04313" lon="10.721655"><ele>89.0</ele><time>2026-04-04T18:12:58.285Z</time></trkpt><trkpt lat="35.0429" lon="10.7218783"><ele>89.0</ele><time>2026-04-04T18:12:59.284Z</time></trkpt><trkpt lat="35.0426717" lon="10.722105"><ele>88.5</ele><time>2026-04-04T18:13:00.287Z</time></trkpt><trkpt lat="35.0424417" lon="10.7223317"><ele>88.0</ele><time>2026-04-04T18:13:01.285Z</time></trkpt><trkpt lat="35.0422117" lon="10.7225533"><ele>86.5</ele><time>2026-04-04T18:13:02.284Z</time></trkpt><trkpt lat="35.0419767" lon="10.7227683"><ele>85.0</ele><time>2026-04-04T18:13:03.284Z</time></trkpt><trkpt lat="35.0417417" lon="10.7229783"><ele>85.0</ele><time>2026-04-04T18:13:04.285Z</time></trkpt><trkpt lat="35.0415033" lon="10.7231817"><ele>85.0</ele><time>2026-04-04T18:13:05.284Z</time></trkpt><trkpt lat="35.041265" lon="10.723385"><ele>86.5</ele><time>2026-04-04T18:13:06.285Z</time></trkpt><trkpt lat="35.0410267" lon="10.723585"><ele>88.0</ele><time>2026-04-04T18:13:07.285Z</time></trkpt><trkpt lat="35.040785" lon="10.7237833"><ele>89.5</ele><time>2026-04-04T18:13:08.284Z</time></trkpt><trkpt lat="35.0405417" lon="10.7239783"><ele>91.0</ele><time>2026-04-04T18:13:09.284Z</time></trkpt><trkpt lat="35.0402983" lon="10.7241733"><ele>91.0</ele><time>2026-04-04T18:13:10.284Z</time></trkpt><trkpt lat="35.04005" lon="10.724365"><ele>91.0</ele><time>2026-04-04T18:13:11.285Z</time></trkpt><trkpt lat="35.0398" lon="10.724555"><ele>91.0</ele><time>2026-04-04T18:13:12.286Z</time></trkpt><trkpt lat="35.0395483" lon="10.72474"><ele>91.0</ele><time>2026-04-04T18:13:13.284Z</time></trkpt><trkpt lat="35.0392983" lon="10.7249217"><ele>92.0</ele><time>2026-04-04T18:13:14.284Z</time></trkpt><trkpt lat="35.0390483" lon="10.7250983"><ele>93.0</ele><time>2026-04-04T18:13:15.285Z</time></trkpt><trkpt lat="35.038795" lon="10.72527"><ele>93.5</ele><time>2026-04-04T18:13:16.285Z</time></trkpt><trkpt lat="35.03854" lon="10.7254367"><ele>94.0</ele><time>2026-04-04T18:13:17.284Z</time></trkpt><trkpt lat="35.038285" lon="10.7255983"><ele>95.0</ele><time>2026-04-04T18:13:18.285Z</time></trkpt><trkpt lat="35.03803" lon="10.725755"><ele>96.0</ele><time>2026-04-04T18:13:19.285Z</time></trkpt><trkpt lat="35.0377733" lon="10.7259083"><ele>96.0</ele><time>2026-04-04T18:13:20.286Z</time></trkpt><trkpt lat="35.0375133" lon="10.72606"><ele>96.0</ele><time>2026-04-04T18:13:21.284Z</time></trkpt><trkpt lat="35.0372583" lon="10.7262117"><ele>97.0</ele><time>2026-04-04T18:13:22.285Z</time></trkpt><trkpt lat="35.0370117" lon="10.7263567"><ele>98.0</ele><time>2026-04-04T18:13:23.285Z</time></trkpt><trkpt lat="35.03677" lon="10.7265"><ele>99.0</ele><time>2026-04-04T18:13:24.284Z</time></trkpt><trkpt lat="35.0365333" lon="10.72664"><ele>100.0</ele><time>2026-04-04T18:13:25.284Z</time></trkpt><trkpt lat="35.0362933" lon="10.72678"><ele>100.0</ele><time>2026-04-04T18:13:26.285Z</time></trkpt><trkpt lat="35.0360533" lon="10.7269233"><ele>100.0</ele><time>2026-04-04T18:13:27.284Z</time></trkpt><trkpt lat="35.0358117" lon="10.7270683"><ele>100.0</ele><time>2026-04-04T18:13:28.286Z</time></trkpt><trkpt lat="35.035575" lon="10.7272117"><ele>100.0</ele><time>2026-04-04T18:13:29.284Z</time></trkpt><trkpt lat="35.0353367" lon="10.7273517"><ele>100.0</ele><time>2026-04-04T18:13:30.286Z</time></trkpt><trkpt lat="35.0350967" lon="10.72749"><ele>100.0</ele><time>2026-04-04T18:13:31.285Z</time></trkpt><trkpt lat="35.0348533" lon="10.7276283"><ele>101.5</ele><time>2026-04-04T18:13:32.284Z</time></trkpt><trkpt lat="35.0346067" lon="10.727765"><ele>103.0</ele><time>2026-04-04T18:13:33.284Z</time></trkpt><trkpt lat="35.0343617" lon="10.727905"><ele>103.5</ele><time>2026-04-04T18:13:34.282Z</time></trkpt><trkpt lat="35.0341167" lon="10.7280433"><ele>104.0</ele><time>2026-04-04T18:13:35.283Z</time></trkpt><trkpt lat="35.0338767" lon="10.7281833"><ele>104.0</ele><time>2026-04-04T18:13:36.282Z</time></trkpt><trkpt lat="35.0336383" lon="10.72832"><ele>104.0</ele><time>2026-04-04T18:13:37.282Z</time></trkpt><trkpt lat="35.0333983" lon="10.7284617"><ele>106.0</ele><time>2026-04-04T18:13:38.283Z</time></trkpt><trkpt lat="35.0331567" lon="10.7286033"><ele>108.0</ele><time>2026-04-04T18:13:39.282Z</time></trkpt><trkpt lat="35.0329117" lon="10.728745"><ele>108.0</ele><time>2026-04-04T18:13:40.282Z</time></trkpt><trkpt lat="35.0326617" lon="10.7288867"><ele>108.0</ele><time>2026-04-04T18:13:41.282Z</time></trkpt><trkpt lat="35.03241" lon="10.7290267"><ele>108.0</ele><time>2026-04-04T18:13:42.283Z</time></trkpt><trkpt lat="35.032155" lon="10.7291667"><ele>108.0</ele><time>2026-04-04T18:13:43.282Z</time></trkpt><trkpt lat="35.0318983" lon="10.7293067"><ele>110.0</ele><time>2026-04-04T18:13:44.281Z</time></trkpt><trkpt lat="35.0316417" lon="10.729445"><ele>112.0</ele><time>2026-04-04T18:13:45.284Z</time></trkpt><trkpt lat="35.03138" lon="10.729585"><ele>112.5</ele><time>2026-04-04T18:13:46.284Z</time></trkpt><trkpt lat="35.0311183" lon="10.7297233"><ele>113.0</ele><time>2026-04-04T18:13:47.285Z</time></trkpt><trkpt lat="35.0308533" lon="10.7298583"><ele>110.5</ele><time>2026-04-04T18:13:48.286Z</time></trkpt><trkpt lat="35.0305917" lon="10.7299917"><ele>108.0</ele><time>2026-04-04T18:13:49.286Z</time></trkpt><trkpt lat="35.030335" lon="10.7301233"><ele>107.5</ele><time>2026-04-04T18:13:50.284Z</time></trkpt><trkpt lat="35.0300867" lon="10.7302467"><ele>107.0</ele><time>2026-04-04T18:13:51.284Z</time></trkpt><trkpt lat="35.0298433" lon="10.7303683"><ele>107.0</ele><time>2026-04-04T18:13:52.285Z</time></trkpt><trkpt lat="35.0296017" lon="10.73049"><ele>107.0</ele><time>2026-04-04T18:13:53.284Z</time></trkpt><trkpt lat="35.0293567" lon="10.7306133"><ele>106.5</ele><time>2026-04-04T18:13:54.286Z</time></trkpt><trkpt lat="35.0291083" lon="10.7307367"><ele>106.0</ele><time>2026-04-04T18:13:55.285Z</time></trkpt><trkpt lat="35.0288567" lon="10.7308617"><ele>106.0</ele><time>2026-04-04T18:13:56.285Z</time></trkpt><trkpt lat="35.028605" lon="10.730985"><ele>106.0</ele><time>2026-04-04T18:13:57.284Z</time></trkpt><trkpt lat="35.02835" lon="10.7311067"><ele>107.0</ele><time>2026-04-04T18:13:58.284Z</time></trkpt><trkpt lat="35.0280933" lon="10.7312283"><ele>108.0</ele><time>2026-04-04T18:13:59.284Z</time></trkpt><trkpt lat="35.027835" lon="10.7313483"><ele>108.0</ele><time>2026-04-04T18:14:00.285Z</time></trkpt><trkpt lat="35.0275767" lon="10.7314717"><ele>108.0</ele><time>2026-04-04T18:14:01.285Z</time></trkpt><trkpt lat="35.0273167" lon="10.7315983"><ele>108.5</ele><time>2026-04-04T18:14:02.284Z</time></trkpt><trkpt lat="35.0270533" lon="10.7317267"><ele>109.0</ele><time>2026-04-04T18:14:03.284Z</time></trkpt><trkpt lat="35.0267933" lon="10.7318533"><ele>109.0</ele><time>2026-04-04T18:14:04.281Z</time></trkpt><trkpt lat="35.02653" lon="10.73198"><ele>109.0</ele><time>2026-04-04T18:14:05.282Z</time></trkpt><trkpt lat="35.0262633" lon="10.732105"><ele>109.0</ele><time>2026-04-04T18:14:06.283Z</time></trkpt><trkpt lat="35.025995" lon="10.7322317"><ele>109.0</ele><time>2026-04-04T18:14:07.286Z</time></trkpt><trkpt lat="35.0257267" lon="10.7323567"><ele>109.5</ele><time>2026-04-04T18:14:08.284Z</time></trkpt><trkpt lat="35.0254567" lon="10.7324867"><ele>110.0</ele><time>2026-04-04T18:14:09.282Z</time></trkpt><trkpt lat="35.0251883" lon="10.7326167"><ele>111.0</ele><time>2026-04-04T18:14:10.284Z</time></trkpt><trkpt lat="35.0249233" lon="10.732745"><ele>112.0</ele><time>2026-04-04T18:14:11.283Z</time></trkpt><trkpt lat="35.0246633" lon="10.732875"><ele>112.0</ele><time>2026-04-04T18:14:12.283Z</time></trkpt><trkpt lat="35.0244033" lon="10.733"><ele>112.0</ele><time>2026-04-04T18:14:13.284Z</time></trkpt><trkpt lat="35.0241433" lon="10.7331267"><ele>112.0</ele><time>2026-04-04T18:14:14.282Z</time></trkpt><trkpt lat="35.0238833" lon="10.7332517"><ele>112.0</ele><time>2026-04-04T18:14:15.284Z</time></trkpt><trkpt lat="35.0236233" lon="10.7333783"><ele>112.0</ele><time>2026-04-04T18:14:16.284Z</time></trkpt><trkpt lat="35.02336" lon="10.7335033"><ele>112.0</ele><time>2026-04-04T18:14:17.284Z</time></trkpt><trkpt lat="35.0230967" lon="10.7336283"><ele>113.5</ele><time>2026-04-04T18:14:18.286Z</time></trkpt><trkpt lat="35.0228333" lon="10.733755"><ele>115.0</ele><time>2026-04-04T18:14:19.285Z</time></trkpt><trkpt lat="35.0225717" lon="10.7338817"><ele>114.0</ele><time>2026-04-04T18:14:20.285Z</time></trkpt><trkpt lat="35.0223067" lon="10.7340067"><ele>113.0</ele><time>2026-04-04T18:14:21.284Z</time></trkpt><trkpt lat="35.0220417" lon="10.734135"><ele>113.0</ele><time>2026-04-04T18:14:22.285Z</time></trkpt><trkpt lat="35.0217767" lon="10.7342583"><ele>113.0</ele><time>2026-04-04T18:14:23.284Z</time></trkpt><trkpt lat="35.0215117" lon="10.7343867"><ele>114.0</ele><time>2026-04-04T18:14:24.285Z</time></trkpt><trkpt lat="35.0212483" lon="10.7345133"><ele>115.0</ele><time>2026-04-04T18:14:25.284Z</time></trkpt><trkpt lat="35.020985" lon="10.7346417"><ele>116.0</ele><time>2026-04-04T18:14:26.284Z</time></trkpt><trkpt lat="35.0207217" lon="10.73477"><ele>117.0</ele><time>2026-04-04T18:14:27.286Z</time></trkpt><trkpt lat="35.020455" lon="10.7349"><ele>117.0</ele><time>2026-04-04T18:14:28.285Z</time></trkpt><trkpt lat="35.0201867" lon="10.7350267"><ele>117.0</ele><time>2026-04-04T18:14:29.285Z</time></trkpt><trkpt lat="35.0199167" lon="10.7351567"><ele>119.5</ele><time>2026-04-04T18:14:30.282Z</time></trkpt><trkpt lat="35.0196583" lon="10.735285"><ele>122.0</ele><time>2026-04-04T18:14:31.285Z</time></trkpt><trkpt lat="35.0193967" lon="10.735415"><ele>121.5</ele><time>2026-04-04T18:14:32.285Z</time></trkpt><trkpt lat="35.019135" lon="10.7355417"><ele>121.0</ele><time>2026-04-04T18:14:33.284Z</time></trkpt><trkpt lat="35.0188717" lon="10.7356683"><ele>121.0</ele><time>2026-04-04T18:14:34.282Z</time></trkpt><trkpt lat="35.01861" lon="10.7357917"><ele>121.0</ele><time>2026-04-04T18:14:35.285Z</time></trkpt><trkpt lat="35.0183433" lon="10.7359167"><ele>120.5</ele><time>2026-04-04T18:14:36.283Z</time></trkpt><trkpt lat="35.01808" lon="10.7360417"><ele>120.0</ele><time>2026-04-04T18:14:37.283Z</time></trkpt><trkpt lat="35.0178217" lon="10.7361667"><ele>121.0</ele><time>2026-04-04T18:14:38.283Z</time></trkpt><trkpt lat="35.0175683" lon="10.73629"><ele>122.0</ele><time>2026-04-04T18:14:39.284Z</time></trkpt><trkpt lat="35.0173217" lon="10.73641"><ele>122.0</ele><time>2026-04-04T18:14:40.283Z</time></trkpt><trkpt lat="35.0170717" lon="10.7365283"><ele>122.0</ele><time>2026-04-04T18:14:41.283Z</time></trkpt><trkpt lat="35.0168183" lon="10.73665"><ele>121.5</ele><time>2026-04-04T18:14:42.283Z</time></trkpt><trkpt lat="35.01656" lon="10.736775"><ele>121.0</ele><time>2026-04-04T18:14:43.283Z</time></trkpt><trkpt lat="35.0163" lon="10.7369017"><ele>121.0</ele><time>2026-04-04T18:14:44.282Z</time></trkpt><trkpt lat="35.0160367" lon="10.7370283"><ele>121.0</ele><time>2026-04-04T18:14:45.284Z</time></trkpt><trkpt lat="35.015775" lon="10.7371533"><ele>120.5</ele><time>2026-04-04T18:14:46.285Z</time></trkpt><trkpt lat="35.0155083" lon="10.7372817"><ele>120.0</ele><time>2026-04-04T18:14:47.284Z</time></trkpt><trkpt lat="35.0152367" lon="10.7374133"><ele>121.0</ele><time>2026-04-04T18:14:48.285Z</time></trkpt><trkpt lat="35.0149617" lon="10.737545"><ele>122.0</ele><time>2026-04-04T18:14:49.286Z</time></trkpt><trkpt lat="35.0146867" lon="10.737675"><ele>121.5</ele><time>2026-04-04T18:14:50.284Z</time></trkpt><trkpt lat="35.0144117" lon="10.737805"><ele>121.0</ele><time>2026-04-04T18:14:51.285Z</time></trkpt><trkpt lat="35.0141383" lon="10.737935"><ele>121.0</ele><time>2026-04-04T18:14:52.284Z</time></trkpt><trkpt lat="35.013865" lon="10.738065"><ele>121.0</ele><time>2026-04-04T18:14:53.284Z</time></trkpt><trkpt lat="35.01359" lon="10.738195"><ele>122.5</ele><time>2026-04-04T18:14:54.285Z</time></trkpt><trkpt lat="35.01331" lon="10.738325"><ele>124.0</ele><time>2026-04-04T18:14:55.284Z</time></trkpt><trkpt lat="35.0130317" lon="10.73845"><ele>122.5</ele><time>2026-04-04T18:14:56.285Z</time></trkpt><trkpt lat="35.0127517" lon="10.7385717"><ele>121.0</ele><time>2026-04-04T18:14:57.285Z</time></trkpt><trkpt lat="35.012475" lon="10.7386883"><ele>120.5</ele><time>2026-04-04T18:14:58.285Z</time></trkpt><trkpt lat="35.0121933" lon="10.7388"><ele>120.0</ele><time>2026-04-04T18:14:59.284Z</time></trkpt><trkpt lat="35.0119133" lon="10.73891"><ele>120.0</ele><time>2026-04-04T18:15:00.286Z</time></trkpt><trkpt lat="35.0116333" lon="10.7390133"><ele>120.0</ele><time>2026-04-04T18:15:01.285Z</time></trkpt><trkpt lat="35.0113517" lon="10.7391167"><ele>120.0</ele><time>2026-04-04T18:15:02.284Z</time></trkpt><trkpt lat="35.0110683" lon="10.7392183"><ele>120.0</ele><time>2026-04-04T18:15:03.282Z</time></trkpt><trkpt lat="35.01078" lon="10.7393167"><ele>119.0</ele><time>2026-04-04T18:15:04.282Z</time></trkpt><trkpt lat="35.0104917" lon="10.7394117"><ele>118.0</ele><time>2026-04-04T18:15:05.282Z</time></trkpt><trkpt lat="35.0101983" lon="10.7395033"><ele>119.0</ele><time>2026-04-04T18:15:06.284Z</time></trkpt><trkpt lat="35.0099033" lon="10.7395933"><ele>120.0</ele><time>2026-04-04T18:15:07.282Z</time></trkpt><trkpt lat="35.0096067" lon="10.73968"><ele>120.0</ele><time>2026-04-04T18:15:08.282Z</time></trkpt><trkpt lat="35.00931" lon="10.739765"><ele>120.0</ele><time>2026-04-04T18:15:09.283Z</time></trkpt><trkpt lat="35.0090117" lon="10.7398467"><ele>119.5</ele><time>2026-04-04T18:15:10.282Z</time></trkpt><trkpt lat="35.0087133" lon="10.7399233"><ele>119.0</ele><time>2026-04-04T18:15:11.284Z</time></trkpt><trkpt lat="35.008415" lon="10.7399983"><ele>119.5</ele><time>2026-04-04T18:15:12.283Z</time></trkpt><trkpt lat="35.008115" lon="10.7400667"><ele>120.0</ele><time>2026-04-04T18:15:13.283Z</time></trkpt><trkpt lat="35.0078167" lon="10.7401317"><ele>120.0</ele><time>2026-04-04T18:15:14.281Z</time></trkpt><trkpt lat="35.0075167" lon="10.7401933"><ele>120.0</ele><time>2026-04-04T18:15:15.283Z</time></trkpt><trkpt lat="35.0072183" lon="10.7402517"><ele>118.5</ele><time>2026-04-04T18:15:16.282Z</time></trkpt><trkpt lat="35.0069217" lon="10.7403083"><ele>117.0</ele><time>2026-04-04T18:15:17.282Z</time></trkpt><trkpt lat="35.0066283" lon="10.7403567"><ele>115.0</ele><time>2026-04-04T18:15:18.283Z</time></trkpt><trkpt lat="35.0063367" lon="10.7404017"><ele>113.0</ele><time>2026-04-04T18:15:19.282Z</time></trkpt><trkpt lat="35.0060483" lon="10.7404433"><ele>111.5</ele><time>2026-04-04T18:15:20.282Z</time></trkpt><trkpt lat="35.00576" lon="10.7404817"><ele>110.0</ele><time>2026-04-04T18:15:21.282Z</time></trkpt><trkpt lat="35.0054733" lon="10.7405167"><ele>110.0</ele><time>2026-04-04T18:15:22.283Z</time></trkpt><trkpt lat="35.0051883" lon="10.7405483"><ele>110.0</ele><time>2026-04-04T18:15:23.282Z</time></trkpt><trkpt lat="35.0049017" lon="10.7405783"><ele>112.5</ele><time>2026-04-04T18:15:24.282Z</time></trkpt><trkpt lat="35.0046183" lon="10.740605"><ele>115.0</ele><time>2026-04-04T18:15:25.283Z</time></trkpt><trkpt lat="35.004335" lon="10.74063"><ele>116.0</ele><time>2026-04-04T18:15:26.281Z</time></trkpt><trkpt lat="35.00405" lon="10.7406533"><ele>117.0</ele><time>2026-04-04T18:15:27.283Z</time></trkpt><trkpt lat="35.0037633" lon="10.7406717"><ele>117.0</ele><time>2026-04-04T18:15:28.283Z</time></trkpt><trkpt lat="35.003475" lon="10.7406867"><ele>117.0</ele><time>2026-04-04T18:15:29.282Z</time></trkpt><trkpt lat="35.0031867" lon="10.7406967"><ele>116.0</ele><time>2026-04-04T18:15:30.283Z</time></trkpt><trkpt lat="35.0028967" lon="10.7407017"><ele>115.0</ele><time>2026-04-04T18:15:31.282Z</time></trkpt><trkpt lat="35.0026067" lon="10.7407067"><ele>117.5</ele><time>2026-04-04T18:15:32.284Z</time></trkpt><trkpt lat="35.0023167" lon="10.740705"><ele>120.0</ele><time>2026-04-04T18:15:33.282Z</time></trkpt><trkpt lat="35.0020283" lon="10.7407"><ele>120.0</ele><time>2026-04-04T18:15:34.284Z</time></trkpt><trkpt lat="35.0017383" lon="10.7406917"><ele>120.0</ele><time>2026-04-04T18:15:35.284Z</time></trkpt><trkpt lat="35.0014483" lon="10.740685"><ele>121.5</ele><time>2026-04-04T18:15:36.284Z</time></trkpt><trkpt lat="35.0011583" lon="10.7406767"><ele>123.0</ele><time>2026-04-04T18:15:37.283Z</time></trkpt><trkpt lat="35.0008717" lon="10.7406683"><ele>123.5</ele><time>2026-04-04T18:15:38.282Z</time></trkpt><trkpt lat="35.0005883" lon="10.74066"><ele>124.0</ele><time>2026-04-04T18:15:39.283Z</time></trkpt><trkpt lat="35.000305" lon="10.7406517"><ele>124.0</ele><time>2026-04-04T18:15:40.286Z</time></trkpt><trkpt lat="35.000025" lon="10.7406433"><ele>124.0</ele><time>2026-04-04T18:15:41.284Z</time></trkpt><trkpt lat="34.9997417" lon="10.7406367"><ele>124.0</ele><time>2026-04-04T18:15:42.286Z</time></trkpt><trkpt lat="34.9994583" lon="10.74063"><ele>124.0</ele><time>2026-04-04T18:15:43.284Z</time></trkpt><trkpt lat="34.9991717" lon="10.740625"><ele>121.5</ele><time>2026-04-04T18:15:44.284Z</time></trkpt><trkpt lat="34.9988883" lon="10.7406183"><ele>119.0</ele><time>2026-04-04T18:15:45.285Z</time></trkpt><trkpt lat="34.998605" lon="10.7406083"><ele>117.5</ele><time>2026-04-04T18:15:46.285Z</time></trkpt><trkpt lat="34.9983217" lon="10.7405967"><ele>116.0</ele><time>2026-04-04T18:15:47.286Z</time></trkpt><trkpt lat="34.9980417" lon="10.7405883"><ele>116.0</ele><time>2026-04-04T18:15:48.285Z</time></trkpt><trkpt lat="34.99776" lon="10.74058"><ele>116.0</ele><time>2026-04-04T18:15:49.284Z</time></trkpt><trkpt lat="34.99748" lon="10.7405733"><ele>113.5</ele><time>2026-04-04T18:15:50.285Z</time></trkpt><trkpt lat="34.9972" lon="10.7405667"><ele>111.0</ele><time>2026-04-04T18:15:51.286Z</time></trkpt><trkpt lat="34.9969167" lon="10.7405617"><ele>108.5</ele><time>2026-04-04T18:15:52.285Z</time></trkpt><trkpt lat="34.996635" lon="10.740555"><ele>106.0</ele><time>2026-04-04T18:15:53.285Z</time></trkpt><trkpt lat="34.9963483" lon="10.74055"><ele>106.0</ele><time>2026-04-04T18:15:54.285Z</time></trkpt><trkpt lat="34.9960583" lon="10.7405433"><ele>106.0</ele><time>2026-04-04T18:15:55.284Z</time></trkpt><trkpt lat="34.9957633" lon="10.7405317"><ele>105.5</ele><time>2026-04-04T18:15:56.285Z</time></trkpt><trkpt lat="34.99547" lon="10.7405233"><ele>105.0</ele><time>2026-04-04T18:15:57.284Z</time></trkpt><trkpt lat="34.9951717" lon="10.740515"><ele>103.0</ele><time>2026-04-04T18:15:58.284Z</time></trkpt><trkpt lat="34.9948767" lon="10.74051"><ele>101.0</ele><time>2026-04-04T18:15:59.285Z</time></trkpt><trkpt lat="34.9945817" lon="10.7405"><ele>101.0</ele><time>2026-04-04T18:16:00.285Z</time></trkpt><trkpt lat="34.9942883" lon="10.7404917"><ele>101.0</ele><time>2026-04-04T18:16:01.285Z</time></trkpt><trkpt lat="34.994" lon="10.7404833"><ele>101.5</ele><time>2026-04-04T18:16:02.285Z</time></trkpt><trkpt lat="34.9937117" lon="10.7404767"><ele>102.0</ele><time>2026-04-04T18:16:03.282Z</time></trkpt><trkpt lat="34.9934267" lon="10.7404683"><ele>102.5</ele><time>2026-04-04T18:16:04.284Z</time></trkpt><trkpt lat="34.9931433" lon="10.7404633"><ele>103.0</ele><time>2026-04-04T18:16:05.283Z</time></trkpt><trkpt lat="34.9928617" lon="10.740455"><ele>103.0</ele><time>2026-04-04T18:16:06.284Z</time></trkpt><trkpt lat="34.9925817" lon="10.740445"><ele>103.0</ele><time>2026-04-04T18:16:07.283Z</time></trkpt><trkpt lat="34.9923" lon="10.7404383"><ele>103.5</ele><time>2026-04-04T18:16:08.283Z</time></trkpt><trkpt lat="34.9920167" lon="10.7404317"><ele>104.0</ele><time>2026-04-04T18:16:09.283Z</time></trkpt><trkpt lat="34.9917317" lon="10.740425"><ele>103.5</ele><time>2026-04-04T18:16:10.285Z</time></trkpt><trkpt lat="34.9914467" lon="10.7404183"><ele>103.0</ele><time>2026-04-04T18:16:11.285Z</time></trkpt><trkpt lat="34.9911633" lon="10.74041"><ele>103.0</ele><time>2026-04-04T18:16:12.285Z</time></trkpt><trkpt lat="34.990885" lon="10.7404033"><ele>103.0</ele><time>2026-04-04T18:16:13.285Z</time></trkpt><trkpt lat="34.9906117" lon="10.740395"><ele>103.5</ele><time>2026-04-04T18:16:14.284Z</time></trkpt><trkpt lat="34.9903383" lon="10.7403867"><ele>104.0</ele><time>2026-04-04T18:16:15.286Z</time></trkpt><trkpt lat="34.990065" lon="10.74038"><ele>105.5</ele><time>2026-04-04T18:16:16.285Z</time></trkpt><trkpt lat="34.9897917" lon="10.7403717"><ele>107.0</ele><time>2026-04-04T18:16:17.285Z</time></trkpt><trkpt lat="34.9895167" lon="10.7403633"><ele>107.0</ele><time>2026-04-04T18:16:18.285Z</time></trkpt><trkpt lat="34.9892433" lon="10.7403583"><ele>107.0</ele><time>2026-04-04T18:16:19.284Z</time></trkpt><trkpt lat="34.9889717" lon="10.74035"><ele>108.5</ele><time>2026-04-04T18:16:20.284Z</time></trkpt><trkpt lat="34.9887017" lon="10.7403433"><ele>110.0</ele><time>2026-04-04T18:16:21.286Z</time></trkpt><trkpt lat="34.9884333" lon="10.7403367"><ele>111.5</ele><time>2026-04-04T18:16:22.285Z</time></trkpt><trkpt lat="34.9881633" lon="10.74033"><ele>113.0</ele><time>2026-04-04T18:16:23.285Z</time></trkpt><trkpt lat="34.987895" lon="10.740325"><ele>113.0</ele><time>2026-04-04T18:16:24.286Z</time></trkpt><trkpt lat="34.9876267" lon="10.7403167"><ele>113.0</ele><time>2026-04-04T18:16:25.285Z</time></trkpt><trkpt lat="34.9873583" lon="10.7403083"><ele>114.5</ele><time>2026-04-04T18:16:26.285Z</time></trkpt><trkpt lat="34.9870867" lon="10.7402983"><ele>116.0</ele><time>2026-04-04T18:16:27.282Z</time></trkpt><trkpt lat="34.986815" lon="10.74029"><ele>117.0</ele><time>2026-04-04T18:16:28.285Z</time></trkpt><trkpt lat="34.9865467" lon="10.74028"><ele>118.0</ele><time>2026-04-04T18:16:29.286Z</time></trkpt><trkpt lat="34.9862783" lon="10.7402733"><ele>118.0</ele><time>2026-04-04T18:16:30.286Z</time></trkpt><trkpt lat="34.9860167" lon="10.7402683"><ele>118.0</ele><time>2026-04-04T18:16:31.284Z</time></trkpt><trkpt lat="34.98576" lon="10.7402633"><ele>118.5</ele><time>2026-04-04T18:16:32.286Z</time></trkpt><trkpt lat="34.9855183" lon="10.7402567"><ele>119.0</ele><time>2026-04-04T18:16:33.284Z</time></trkpt><trkpt lat="34.98528" lon="10.7402533"><ele>119.0</ele><time>2026-04-04T18:16:34.284Z</time></trkpt><trkpt lat="34.9850467" lon="10.7402483"><ele>119.0</ele><time>2026-04-04T18:16:35.285Z</time></trkpt><trkpt lat="34.9848083" lon="10.740245"><ele>119.0</ele><time>2026-04-04T18:16:36.286Z</time></trkpt><trkpt lat="34.9845617" lon="10.74024"><ele>119.0</ele><time>2026-04-04T18:16:37.284Z</time></trkpt><trkpt lat="34.9843117" lon="10.740235"><ele>118.5</ele><time>2026-04-04T18:16:38.284Z</time></trkpt><trkpt lat="34.984055" lon="10.740225"><ele>118.0</ele><time>2026-04-04T18:16:39.284Z</time></trkpt><trkpt lat="34.9837933" lon="10.740215"><ele>117.5</ele><time>2026-04-04T18:16:40.281Z</time></trkpt><trkpt lat="34.98353" lon="10.740205"><ele>117.0</ele><time>2026-04-04T18:16:41.284Z</time></trkpt><trkpt lat="34.9832617" lon="10.7401967"><ele>117.0</ele><time>2026-04-04T18:16:42.286Z</time></trkpt><trkpt lat="34.9829917" lon="10.7401883"><ele>117.0</ele><time>2026-04-04T18:16:43.284Z</time></trkpt><trkpt lat="34.9827183" lon="10.7401817"><ele>117.5</ele><time>2026-04-04T18:16:44.284Z</time></trkpt><trkpt lat="34.9824417" lon="10.7401767"><ele>118.0</ele><time>2026-04-04T18:16:45.284Z</time></trkpt><trkpt lat="34.9821633" lon="10.740175"><ele>118.0</ele><time>2026-04-04T18:16:46.285Z</time></trkpt><trkpt lat="34.9818867" lon="10.7401717"><ele>118.0</ele><time>2026-04-04T18:16:47.284Z</time></trkpt><trkpt lat="34.98162" lon="10.74017"><ele>119.0</ele><time>2026-04-04T18:16:48.287Z</time></trkpt><trkpt lat="34.9813567" lon="10.7401683"><ele>120.0</ele><time>2026-04-04T18:16:49.284Z</time></trkpt><trkpt lat="34.9810917" lon="10.740165"><ele>120.0</ele><time>2026-04-04T18:16:50.285Z</time></trkpt><trkpt lat="34.9808217" lon="10.7401617"><ele>120.0</ele><time>2026-04-04T18:16:51.286Z</time></trkpt><trkpt lat="34.9805467" lon="10.7401583"><ele>120.0</ele><time>2026-04-04T18:16:52.286Z</time></trkpt><trkpt lat="34.9802683" lon="10.7401517"><ele>120.0</ele><time>2026-04-04T18:16:53.286Z</time></trkpt><trkpt lat="34.97999" lon="10.740145"><ele>119.5</ele><time>2026-04-04T18:16:54.286Z</time></trkpt><trkpt lat="34.9797083" lon="10.740135"><ele>119.0</ele><time>2026-04-04T18:16:55.284Z</time></trkpt><trkpt lat="34.9794217" lon="10.7401267"><ele>118.0</ele><time>2026-04-04T18:16:56.284Z</time></trkpt><trkpt lat="34.9791333" lon="10.7401183"><ele>117.0</ele><time>2026-04-04T18:16:57.285Z</time></trkpt><trkpt lat="34.978845" lon="10.7401033"><ele>117.0</ele><time>2026-04-04T18:16:58.284Z</time></trkpt><trkpt lat="34.9785517" lon="10.7400883"><ele>117.0</ele><time>2026-04-04T18:16:59.285Z</time></trkpt><trkpt lat="34.9782567" lon="10.7400733"><ele>115.0</ele><time>2026-04-04T18:17:00.286Z</time></trkpt><trkpt lat="34.97796" lon="10.7400583"><ele>113.0</ele><time>2026-04-04T18:17:01.284Z</time></trkpt><trkpt lat="34.9776617" lon="10.740045"><ele>110.0</ele><time>2026-04-04T18:17:02.285Z</time></trkpt><trkpt lat="34.9773667" lon="10.74003"><ele>107.0</ele><time>2026-04-04T18:17:03.284Z</time></trkpt><trkpt lat="34.97707" lon="10.740015"><ele>107.0</ele><time>2026-04-04T18:17:04.284Z</time></trkpt><trkpt lat="34.9767733" lon="10.7399983"><ele>107.0</ele><time>2026-04-04T18:17:05.285Z</time></trkpt><trkpt lat="34.9764783" lon="10.7399817"><ele>106.0</ele><time>2026-04-04T18:17:06.285Z</time></trkpt><trkpt lat="34.9761917" lon="10.739965"><ele>105.0</ele><time>2026-04-04T18:17:07.285Z</time></trkpt><trkpt lat="34.9759117" lon="10.73995"><ele>104.0</ele><time>2026-04-04T18:17:08.284Z</time></trkpt><trkpt lat="34.975635" lon="10.739935"><ele>103.0</ele><time>2026-04-04T18:17:09.286Z</time></trkpt><trkpt lat="34.9753567" lon="10.7399167"><ele>103.0</ele><time>2026-04-04T18:17:10.284Z</time></trkpt><trkpt lat="34.9750833" lon="10.7399033"><ele>103.0</ele><time>2026-04-04T18:17:11.284Z</time></trkpt><trkpt lat="34.97481" lon="10.7398933"><ele>101.0</ele><time>2026-04-04T18:17:12.285Z</time></trkpt><trkpt lat="34.9745417" lon="10.7398817"><ele>99.0</ele><time>2026-04-04T18:17:13.285Z</time></trkpt><trkpt lat="34.974275" lon="10.7398667"><ele>98.0</ele><time>2026-04-04T18:17:14.284Z</time></trkpt><trkpt lat="34.97401" lon="10.739855"><ele>97.0</ele><time>2026-04-04T18:17:15.285Z</time></trkpt><trkpt lat="34.9737467" lon="10.7398383"><ele>97.0</ele><time>2026-04-04T18:17:16.285Z</time></trkpt><trkpt lat="34.97348" lon="10.739825"><ele>97.0</ele><time>2026-04-04T18:17:17.285Z</time></trkpt><trkpt lat="34.9732117" lon="10.7398117"><ele>95.5</ele><time>2026-04-04T18:17:18.286Z</time></trkpt><trkpt lat="34.972945" lon="10.7398017"><ele>94.0</ele><time>2026-04-04T18:17:19.284Z</time></trkpt><trkpt lat="34.9726783" lon="10.7397917"><ele>95.0</ele><time>2026-04-04T18:17:20.285Z</time></trkpt><trkpt lat="34.972415" lon="10.73978"><ele>96.0</ele><time>2026-04-04T18:17:21.285Z</time></trkpt><trkpt lat="34.9721517" lon="10.7397683"><ele>96.0</ele><time>2026-04-04T18:17:22.284Z</time></trkpt><trkpt lat="34.97189" lon="10.739755"><ele>96.0</ele><time>2026-04-04T18:17:23.286Z</time></trkpt><trkpt lat="34.97163" lon="10.7397433"><ele>96.0</ele><time>2026-04-04T18:17:24.285Z</time></trkpt><trkpt lat="34.97137" lon="10.73973"><ele>96.0</ele><time>2026-04-04T18:17:25.282Z</time></trkpt><trkpt lat="34.97111" lon="10.7397167"><ele>96.0</ele><time>2026-04-04T18:17:26.285Z</time></trkpt><trkpt lat="34.97085" lon="10.7397017"><ele>96.0</ele><time>2026-04-04T18:17:27.284Z</time></trkpt><trkpt lat="34.9705867" lon="10.7396883"><ele>96.0</ele><time>2026-04-04T18:17:28.284Z</time></trkpt><trkpt lat="34.9703233" lon="10.739675"><ele>96.0</ele><time>2026-04-04T18:17:29.284Z</time></trkpt><trkpt lat="34.97006" lon="10.7396617"><ele>97.0</ele><time>2026-04-04T18:17:30.285Z</time></trkpt><trkpt lat="34.969795" lon="10.73965"><ele>98.0</ele><time>2026-04-04T18:17:31.284Z</time></trkpt><trkpt lat="34.9695283" lon="10.7396383"><ele>98.0</ele><time>2026-04-04T18:17:32.284Z</time></trkpt><trkpt lat="34.9692667" lon="10.7396267"><ele>98.0</ele><time>2026-04-04T18:17:33.284Z</time></trkpt><trkpt lat="34.969005" lon="10.7396167"><ele>100.0</ele><time>2026-04-04T18:17:34.285Z</time></trkpt><trkpt lat="34.9687433" lon="10.7396083"><ele>102.0</ele><time>2026-04-04T18:17:35.285Z</time></trkpt><trkpt lat="34.9684817" lon="10.7395983"><ele>102.5</ele><time>2026-04-04T18:17:36.286Z</time></trkpt><trkpt lat="34.96822" lon="10.7395867"><ele>103.0</ele><time>2026-04-04T18:17:37.284Z</time></trkpt><trkpt lat="34.9679583" lon="10.739575"><ele>103.0</ele><time>2026-04-04T18:17:38.284Z</time></trkpt><trkpt lat="34.967695" lon="10.7395617"><ele>103.0</ele><time>2026-04-04T18:17:39.285Z</time></trkpt><trkpt lat="34.9674317" lon="10.7395483"><ele>102.0</ele><time>2026-04-04T18:17:40.285Z</time></trkpt><trkpt lat="34.9671683" lon="10.739535"><ele>101.0</ele><time>2026-04-04T18:17:41.286Z</time></trkpt><trkpt lat="34.966905" lon="10.7395217"><ele>99.0</ele><time>2026-04-04T18:17:42.286Z</time></trkpt><trkpt lat="34.9666383" lon="10.7395067"><ele>97.0</ele><time>2026-04-04T18:17:43.285Z</time></trkpt><trkpt lat="34.96637" lon="10.739495"><ele>97.0</ele><time>2026-04-04T18:17:44.285Z</time></trkpt><trkpt lat="34.9661" lon="10.7394833"><ele>97.0</ele><time>2026-04-04T18:17:45.285Z</time></trkpt><trkpt lat="34.9658267" lon="10.7394717"><ele>96.0</ele><time>2026-04-04T18:17:46.285Z</time></trkpt><trkpt lat="34.9655517" lon="10.73946"><ele>95.0</ele><time>2026-04-04T18:17:47.284Z</time></trkpt><trkpt lat="34.965275" lon="10.739445"><ele>95.0</ele><time>2026-04-04T18:17:48.282Z</time></trkpt><trkpt lat="34.9649967" lon="10.7394283"><ele>95.0</ele><time>2026-04-04T18:17:49.285Z</time></trkpt><trkpt lat="34.9647183" lon="10.7394133"><ele>95.0</ele><time>2026-04-04T18:17:50.284Z</time></trkpt><trkpt lat="34.9644367" lon="10.7393983"><ele>95.0</ele><time>2026-04-04T18:17:51.284Z</time></trkpt><trkpt lat="34.9641567" lon="10.7393817"><ele>96.5</ele><time>2026-04-04T18:17:52.285Z</time></trkpt><trkpt lat="34.9638733" lon="10.73937"><ele>98.0</ele><time>2026-04-04T18:17:53.284Z</time></trkpt><trkpt lat="34.9635883" lon="10.73936"><ele>98.5</ele><time>2026-04-04T18:17:54.286Z</time></trkpt><trkpt lat="34.963305" lon="10.7393483"><ele>99.0</ele><time>2026-04-04T18:17:55.284Z</time></trkpt><trkpt lat="34.9630217" lon="10.7393367"><ele>99.0</ele><time>2026-04-04T18:17:56.284Z</time></trkpt><trkpt lat="34.9627383" lon="10.7393233"><ele>99.0</ele><time>2026-04-04T18:17:57.285Z</time></trkpt><trkpt lat="34.9624583" lon="10.73931"><ele>100.0</ele><time>2026-04-04T18:17:58.285Z</time></trkpt><trkpt lat="34.9621733" lon="10.7392933"><ele>101.0</ele><time>2026-04-04T18:17:59.284Z</time></trkpt><trkpt lat="34.9618917" lon="10.7392817"><ele>101.5</ele><time>2026-04-04T18:18:00.285Z</time></trkpt><trkpt lat="34.9616083" lon="10.7392633"><ele>102.0</ele><time>2026-04-04T18:18:01.286Z</time></trkpt><trkpt lat="34.9613267" lon="10.7392483"><ele>102.0</ele><time>2026-04-04T18:18:02.285Z</time></trkpt><trkpt lat="34.9610433" lon="10.73923"><ele>102.0</ele><time>2026-04-04T18:18:03.284Z</time></trkpt><trkpt lat="34.96076" lon="10.73921"><ele>101.5</ele><time>2026-04-04T18:18:04.284Z</time></trkpt><trkpt lat="34.9604783" lon="10.739185"><ele>101.0</ele><time>2026-04-04T18:18:05.285Z</time></trkpt><trkpt lat="34.9602" lon="10.7391533"><ele>98.5</ele><time>2026-04-04T18:18:06.285Z</time></trkpt><trkpt lat="34.9599317" lon="10.7391167"><ele>96.0</ele><time>2026-04-04T18:18:07.284Z</time></trkpt><trkpt lat="34.9596617" lon="10.739075"><ele>96.0</ele><time>2026-04-04T18:18:08.285Z</time></trkpt><trkpt lat="34.95939" lon="10.7390267"><ele>96.0</ele><time>2026-04-04T18:18:09.286Z</time></trkpt><trkpt lat="34.9591183" lon="10.738975"><ele>93.5</ele><time>2026-04-04T18:18:10.282Z</time></trkpt><trkpt lat="34.9588467" lon="10.7389183"><ele>91.0</ele><time>2026-04-04T18:18:11.283Z</time></trkpt><trkpt lat="34.958575" lon="10.7388567"><ele>90.5</ele><time>2026-04-04T18:18:12.282Z</time></trkpt><trkpt lat="34.9583017" lon="10.73879"><ele>90.0</ele><time>2026-04-04T18:18:13.283Z</time></trkpt><trkpt lat="34.9580267" lon="10.7387133"><ele>90.0</ele><time>2026-04-04T18:18:14.281Z</time></trkpt><trkpt lat="34.9577533" lon="10.7386333"><ele>90.0</ele><time>2026-04-04T18:18:15.282Z</time></trkpt><trkpt lat="34.9574783" lon="10.7385467"><ele>89.5</ele><time>2026-04-04T18:18:16.282Z</time></trkpt><trkpt lat="34.957205" lon="10.738455"><ele>89.0</ele><time>2026-04-04T18:18:17.282Z</time></trkpt><trkpt lat="34.9569317" lon="10.7383583"><ele>90.5</ele><time>2026-04-04T18:18:18.282Z</time></trkpt><trkpt lat="34.95666" lon="10.7382567"><ele>92.0</ele><time>2026-04-04T18:18:19.282Z</time></trkpt><trkpt lat="34.9563983" lon="10.7381517"><ele>92.0</ele><time>2026-04-04T18:18:20.285Z</time></trkpt><trkpt lat="34.9561433" lon="10.7380483"><ele>92.0</ele><time>2026-04-04T18:18:21.283Z</time></trkpt><trkpt lat="34.9558967" lon="10.7379433"><ele>92.5</ele><time>2026-04-04T18:18:22.285Z</time></trkpt><trkpt lat="34.9556583" lon="10.737835"><ele>93.0</ele><time>2026-04-04T18:18:23.285Z</time></trkpt><trkpt lat="34.95542" lon="10.7377267"><ele>93.0</ele><time>2026-04-04T18:18:24.286Z</time></trkpt><trkpt lat="34.9551833" lon="10.737615"><ele>93.0</ele><time>2026-04-04T18:18:25.284Z</time></trkpt><trkpt lat="34.9549417" lon="10.7375"><ele>94.0</ele><time>2026-04-04T18:18:26.284Z</time></trkpt><trkpt lat="34.9546983" lon="10.7373817"><ele>95.0</ele><time>2026-04-04T18:18:27.284Z</time></trkpt><trkpt lat="34.9544533" lon="10.73726"><ele>95.0</ele><time>2026-04-04T18:18:28.285Z</time></trkpt><trkpt lat="34.9542083" lon="10.73714"><ele>95.0</ele><time>2026-04-04T18:18:29.285Z</time></trkpt><trkpt lat="34.95396" lon="10.73702"><ele>96.5</ele><time>2026-04-04T18:18:30.285Z</time></trkpt><trkpt lat="34.9537133" lon="10.7369017"><ele>98.0</ele><time>2026-04-04T18:18:31.282Z</time></trkpt><trkpt lat="34.9534767" lon="10.73678"><ele>100.0</ele><time>2026-04-04T18:18:32.285Z</time></trkpt><trkpt lat="34.9532417" lon="10.7366617"><ele>102.0</ele><time>2026-04-04T18:18:33.284Z</time></trkpt><trkpt lat="34.9530083" lon="10.7365467"><ele>102.0</ele><time>2026-04-04T18:18:34.285Z</time></trkpt><trkpt lat="34.9527717" lon="10.736435"><ele>102.0</ele><time>2026-04-04T18:18:35.284Z</time></trkpt><trkpt lat="34.9525317" lon="10.73633"><ele>105.0</ele><time>2026-04-04T18:18:36.285Z</time></trkpt><trkpt lat="34.952285" lon="10.7362267"><ele>108.0</ele><time>2026-04-04T18:18:37.284Z</time></trkpt><trkpt lat="34.9520417" lon="10.7361267"><ele>108.0</ele><time>2026-04-04T18:18:38.285Z</time></trkpt><trkpt lat="34.951795" lon="10.73603"><ele>108.0</ele><time>2026-04-04T18:18:39.284Z</time></trkpt><trkpt lat="34.951545" lon="10.7359367"><ele>110.0</ele><time>2026-04-04T18:18:40.285Z</time></trkpt><trkpt lat="34.9512867" lon="10.735845"><ele>112.0</ele><time>2026-04-04T18:18:41.286Z</time></trkpt><trkpt lat="34.9510233" lon="10.7357583"><ele>113.0</ele><time>2026-04-04T18:18:42.286Z</time></trkpt><trkpt lat="34.9507567" lon="10.7356717"><ele>114.0</ele><time>2026-04-04T18:18:43.285Z</time></trkpt><trkpt lat="34.9504833" lon="10.7355933"><ele>114.0</ele><time>2026-04-04T18:18:44.285Z</time></trkpt><trkpt lat="34.9502083" lon="10.73552"><ele>114.0</ele><time>2026-04-04T18:18:45.285Z</time></trkpt><trkpt lat="34.9499317" lon="10.73545"><ele>113.0</ele><time>2026-04-04T18:18:46.284Z</time></trkpt><trkpt lat="34.9496533" lon="10.735385"><ele>112.0</ele><time>2026-04-04T18:18:47.284Z</time></trkpt><trkpt lat="34.9493717" lon="10.7353267"><ele>112.0</ele><time>2026-04-04T18:18:48.285Z</time></trkpt><trkpt lat="34.94909" lon="10.7352767"><ele>112.0</ele><time>2026-04-04T18:18:49.286Z</time></trkpt><trkpt lat="34.9488067" lon="10.7352333"><ele>111.5</ele><time>2026-04-04T18:18:50.285Z</time></trkpt><trkpt lat="34.9485233" lon="10.7351967"><ele>111.0</ele><time>2026-04-04T18:18:51.286Z</time></trkpt><trkpt lat="34.9482433" lon="10.7351633"><ele>111.0</ele><time>2026-04-04T18:18:52.285Z</time></trkpt><trkpt lat="34.94797" lon="10.735135"><ele>111.0</ele><time>2026-04-04T18:18:53.284Z</time></trkpt><trkpt lat="34.9477033" lon="10.7351133"><ele>110.0</ele><time>2026-04-04T18:18:54.285Z</time></trkpt><trkpt lat="34.94744" lon="10.7350983"><ele>109.0</ele><time>2026-04-04T18:18:55.285Z</time></trkpt><trkpt lat="34.9471733" lon="10.7350867"><ele>109.0</ele><time>2026-04-04T18:18:56.284Z</time></trkpt><trkpt lat="34.9469083" lon="10.73508"><ele>109.0</ele><time>2026-04-04T18:18:57.285Z</time></trkpt><trkpt lat="34.9466417" lon="10.7350833"><ele>108.5</ele><time>2026-04-04T18:18:58.283Z</time></trkpt><trkpt lat="34.9463783" lon="10.7350883"><ele>108.0</ele><time>2026-04-04T18:18:59.282Z</time></trkpt><trkpt lat="34.946115" lon="10.7350967"><ele>108.0</ele><time>2026-04-04T18:19:00.285Z</time></trkpt><trkpt lat="34.9458517" lon="10.735105"><ele>108.0</ele><time>2026-04-04T18:19:01.285Z</time></trkpt><trkpt lat="34.945585" lon="10.7351217"><ele>108.0</ele><time>2026-04-04T18:19:02.285Z</time></trkpt><trkpt lat="34.9453217" lon="10.7351417"><ele>108.0</ele><time>2026-04-04T18:19:03.285Z</time></trkpt><trkpt lat="34.9450617" lon="10.7351683"><ele>107.5</ele><time>2026-04-04T18:19:04.284Z</time></trkpt><trkpt lat="34.9448083" lon="10.7351983"><ele>107.0</ele><time>2026-04-04T18:19:05.284Z</time></trkpt><trkpt lat="34.9445533" lon="10.7352367"><ele>107.0</ele><time>2026-04-04T18:19:06.285Z</time></trkpt><trkpt lat="34.9442983" lon="10.7352783"><ele>107.0</ele><time>2026-04-04T18:19:07.286Z</time></trkpt><trkpt lat="34.944045" lon="10.735325"><ele>106.5</ele><time>2026-04-04T18:19:08.284Z</time></trkpt><trkpt lat="34.9437883" lon="10.7353783"><ele>106.0</ele><time>2026-04-04T18:19:09.284Z</time></trkpt><trkpt lat="34.9435317" lon="10.73544"><ele>105.5</ele><time>2026-04-04T18:19:10.285Z</time></trkpt><trkpt lat="34.9432783" lon="10.7355067"><ele>105.0</ele><time>2026-04-04T18:19:11.284Z</time></trkpt><trkpt lat="34.943025" lon="10.7355767"><ele>105.0</ele><time>2026-04-04T18:19:12.285Z</time></trkpt><trkpt lat="34.9427733" lon="10.7356483"><ele>105.0</ele><time>2026-04-04T18:19:13.285Z</time></trkpt><trkpt lat="34.9425217" lon="10.7357267"><ele>105.0</ele><time>2026-04-04T18:19:14.284Z</time></trkpt><trkpt lat="34.94227" lon="10.7358083"><ele>105.0</ele><time>2026-04-04T18:19:15.284Z</time></trkpt><trkpt lat="34.94202" lon="10.7358983"><ele>105.0</ele><time>2026-04-04T18:19:16.285Z</time></trkpt><trkpt lat="34.9417683" lon="10.7359883"><ele>105.0</ele><time>2026-04-04T18:19:17.285Z</time></trkpt><trkpt lat="34.9415183" lon="10.7360833"><ele>103.5</ele><time>2026-04-04T18:19:18.285Z</time></trkpt><trkpt lat="34.9412683" lon="10.73618"><ele>102.0</ele><time>2026-04-04T18:19:19.285Z</time></trkpt><trkpt lat="34.9410167" lon="10.736275"><ele>102.0</ele><time>2026-04-04T18:19:20.284Z</time></trkpt><trkpt lat="34.9407667" lon="10.73637"><ele>102.0</ele><time>2026-04-04T18:19:21.285Z</time></trkpt><trkpt lat="34.940515" lon="10.736465"><ele>102.0</ele><time>2026-04-04T18:19:22.284Z</time></trkpt><trkpt lat="34.9402667" lon="10.73656"><ele>102.0</ele><time>2026-04-04T18:19:23.285Z</time></trkpt><trkpt lat="34.9400183" lon="10.736655"><ele>102.0</ele><time>2026-04-04T18:19:24.286Z</time></trkpt><trkpt lat="34.93977" lon="10.7367483"><ele>102.0</ele><time>2026-04-04T18:19:25.287Z</time></trkpt><trkpt lat="34.93952" lon="10.7368417"><ele>101.0</ele><time>2026-04-04T18:19:26.284Z</time></trkpt><trkpt lat="34.9392717" lon="10.7369333"><ele>100.0</ele><time>2026-04-04T18:19:27.285Z</time></trkpt><trkpt lat="34.939025" lon="10.7370233"><ele>98.0</ele><time>2026-04-04T18:19:28.285Z</time></trkpt><trkpt lat="34.9387817" lon="10.7371083"><ele>96.0</ele><time>2026-04-04T18:19:29.285Z</time></trkpt><trkpt lat="34.9385383" lon="10.7371883"><ele>95.0</ele><time>2026-04-04T18:19:30.286Z</time></trkpt><trkpt lat="34.9382983" lon="10.737265"><ele>94.0</ele><time>2026-04-04T18:19:31.285Z</time></trkpt><trkpt lat="34.9380583" lon="10.73734"><ele>94.0</ele><time>2026-04-04T18:19:32.285Z</time></trkpt><trkpt lat="34.9378183" lon="10.73741"><ele>94.0</ele><time>2026-04-04T18:19:33.285Z</time></trkpt><trkpt lat="34.9375767" lon="10.7374783"><ele>95.0</ele><time>2026-04-04T18:19:34.285Z</time></trkpt><trkpt lat="34.9373317" lon="10.7375417"><ele>96.0</ele><time>2026-04-04T18:19:35.284Z</time></trkpt><trkpt lat="34.937085" lon="10.7376"><ele>96.0</ele><time>2026-04-04T18:19:36.286Z</time></trkpt><trkpt lat="34.936835" lon="10.73765"><ele>96.0</ele><time>2026-04-04T18:19:37.286Z</time></trkpt><trkpt lat="34.9365833" lon="10.7376983"><ele>95.5</ele><time>2026-04-04T18:19:38.285Z</time></trkpt><trkpt lat="34.9363283" lon="10.7377417"><ele>95.0</ele><time>2026-04-04T18:19:39.285Z</time></trkpt><trkpt lat="34.9360683" lon="10.737785"><ele>94.5</ele><time>2026-04-04T18:19:40.285Z</time></trkpt><trkpt lat="34.935805" lon="10.7378267"><ele>94.0</ele><time>2026-04-04T18:19:41.285Z</time></trkpt><trkpt lat="34.93554" lon="10.7378617"><ele>94.0</ele><time>2026-04-04T18:19:42.285Z</time></trkpt><trkpt lat="34.93528" lon="10.7378917"><ele>94.0</ele><time>2026-04-04T18:19:43.287Z</time></trkpt><trkpt lat="34.93503" lon="10.7379167"><ele>93.5</ele><time>2026-04-04T18:19:44.285Z</time></trkpt><trkpt lat="34.9347867" lon="10.7379333"><ele>93.0</ele><time>2026-04-04T18:19:45.285Z</time></trkpt><trkpt lat="34.934545" lon="10.7379433"><ele>93.0</ele><time>2026-04-04T18:19:46.284Z</time></trkpt><trkpt lat="34.9343" lon="10.7379517"><ele>93.0</ele><time>2026-04-04T18:19:47.284Z</time></trkpt><trkpt lat="34.9340533" lon="10.7379533"><ele>91.5</ele><time>2026-04-04T18:19:48.285Z</time></trkpt><trkpt lat="34.9338067" lon="10.7379517"><ele>90.0</ele><time>2026-04-04T18:19:49.284Z</time></trkpt><trkpt lat="34.9335633" lon="10.7379483"><ele>89.5</ele><time>2026-04-04T18:19:50.284Z</time></trkpt><trkpt lat="34.93332" lon="10.737945"><ele>89.0</ele><time>2026-04-04T18:19:51.284Z</time></trkpt><trkpt lat="34.9330783" lon="10.73794"><ele>89.0</ele><time>2026-04-04T18:19:52.286Z</time></trkpt><trkpt lat="34.9328333" lon="10.7379317"><ele>89.0</ele><time>2026-04-04T18:19:53.285Z</time></trkpt><trkpt lat="34.9325867" lon="10.7379233"><ele>88.5</ele><time>2026-04-04T18:19:54.286Z</time></trkpt><trkpt lat="34.9323417" lon="10.7379133"><ele>88.0</ele><time>2026-04-04T18:19:55.284Z</time></trkpt><trkpt lat="34.9320983" lon="10.7379033"><ele>88.0</ele><time>2026-04-04T18:19:56.284Z</time></trkpt><trkpt lat="34.9318567" lon="10.737895"><ele>88.0</ele><time>2026-04-04T18:19:57.285Z</time></trkpt><trkpt lat="34.9316217" lon="10.737885"><ele>89.0</ele><time>2026-04-04T18:19:58.284Z</time></trkpt><trkpt lat="34.9313883" lon="10.7378767"><ele>90.0</ele><time>2026-04-04T18:19:59.286Z</time></trkpt><trkpt lat="34.9311483" lon="10.7378667"><ele>90.0</ele><time>2026-04-04T18:20:00.285Z</time></trkpt><trkpt lat="34.930905" lon="10.7378533"><ele>90.0</ele><time>2026-04-04T18:20:01.285Z</time></trkpt><trkpt lat="34.9306617" lon="10.7378417"><ele>88.5</ele><time>2026-04-04T18:20:02.285Z</time></trkpt><trkpt lat="34.9304233" lon="10.7378283"><ele>87.0</ele><time>2026-04-04T18:20:03.282Z</time></trkpt><trkpt lat="34.9301933" lon="10.7378183"><ele>87.0</ele><time>2026-04-04T18:20:04.283Z</time></trkpt><trkpt lat="34.9299683" lon="10.73781"><ele>87.0</ele><time>2026-04-04T18:20:05.283Z</time></trkpt><trkpt lat="34.9297417" lon="10.737805"><ele>87.0</ele><time>2026-04-04T18:20:06.284Z</time></trkpt><trkpt lat="34.9295183" lon="10.737795"><ele>87.0</ele><time>2026-04-04T18:20:07.284Z</time></trkpt><trkpt lat="34.9292967" lon="10.7377833"><ele>87.0</ele><time>2026-04-04T18:20:08.283Z</time></trkpt><trkpt lat="34.9290733" lon="10.7377717"><ele>85.5</ele><time>2026-04-04T18:20:09.283Z</time></trkpt><trkpt lat="34.9288483" lon="10.7377583"><ele>84.0</ele><time>2026-04-04T18:20:10.283Z</time></trkpt><trkpt lat="34.9286183" lon="10.7377433"><ele>83.5</ele><time>2026-04-04T18:20:11.284Z</time></trkpt><trkpt lat="34.9283833" lon="10.73773"><ele>83.0</ele><time>2026-04-04T18:20:12.285Z</time></trkpt><trkpt lat="34.9281467" lon="10.7377167"><ele>83.0</ele><time>2026-04-04T18:20:13.284Z</time></trkpt><trkpt lat="34.9279033" lon="10.7377083"><ele>83.0</ele><time>2026-04-04T18:20:14.285Z</time></trkpt><trkpt lat="34.9276567" lon="10.7376983"><ele>81.0</ele><time>2026-04-04T18:20:15.285Z</time></trkpt><trkpt lat="34.927405" lon="10.73769"><ele>79.0</ele><time>2026-04-04T18:20:16.284Z</time></trkpt><trkpt lat="34.92716" lon="10.73768"><ele>79.0</ele><time>2026-04-04T18:20:17.285Z</time></trkpt><trkpt lat="34.92692" lon="10.7376717"><ele>79.0</ele><time>2026-04-04T18:20:18.285Z</time></trkpt><trkpt lat="34.9266867" lon="10.7376617"><ele>78.5</ele><time>2026-04-04T18:20:19.284Z</time></trkpt><trkpt lat="34.9264533" lon="10.7376533"><ele>78.0</ele><time>2026-04-04T18:20:20.286Z</time></trkpt><trkpt lat="34.926215" lon="10.737645"><ele>78.0</ele><time>2026-04-04T18:20:21.284Z</time></trkpt><trkpt lat="34.9259667" lon="10.737635"><ele>78.0</ele><time>2026-04-04T18:20:22.282Z</time></trkpt><trkpt lat="34.9257133" lon="10.7376217"><ele>76.5</ele><time>2026-04-04T18:20:23.285Z</time></trkpt><trkpt lat="34.9254533" lon="10.737605"><ele>75.0</ele><time>2026-04-04T18:20:24.286Z</time></trkpt><trkpt lat="34.925195" lon="10.7375917"><ele>75.5</ele><time>2026-04-04T18:20:25.284Z</time></trkpt><trkpt lat="34.9249433" lon="10.73758"><ele>76.0</ele><time>2026-04-04T18:20:26.284Z</time></trkpt><trkpt lat="34.9247017" lon="10.73757"><ele>76.0</ele><time>2026-04-04T18:20:27.284Z</time></trkpt><trkpt lat="34.924465" lon="10.7375583"><ele>76.0</ele><time>2026-04-04T18:20:28.284Z</time></trkpt><trkpt lat="34.9242283" lon="10.737545"><ele>78.0</ele><time>2026-04-04T18:20:29.285Z</time></trkpt><trkpt lat="34.9239917" lon="10.7375317"><ele>80.0</ele><time>2026-04-04T18:20:30.287Z</time></trkpt><trkpt lat="34.9237517" lon="10.7375183"><ele>80.0</ele><time>2026-04-04T18:20:31.285Z</time></trkpt><trkpt lat="34.9235117" lon="10.7375067"><ele>80.0</ele><time>2026-04-04T18:20:32.285Z</time></trkpt><trkpt lat="34.9232733" lon="10.7374933"><ele>83.0</ele><time>2026-04-04T18:20:33.282Z</time></trkpt><trkpt lat="34.92304" lon="10.7374833"><ele>86.0</ele><time>2026-04-04T18:20:34.282Z</time></trkpt><trkpt lat="34.9228183" lon="10.7374733"><ele>86.0</ele><time>2026-04-04T18:20:35.282Z</time></trkpt><trkpt lat="34.9226017" lon="10.737465"><ele>86.0</ele><time>2026-04-04T18:20:36.283Z</time></trkpt><trkpt lat="34.9223867" lon="10.737455"><ele>86.0</ele><time>2026-04-04T18:20:37.282Z</time></trkpt><trkpt lat="34.92217" lon="10.737445"><ele>85.0</ele><time>2026-04-04T18:20:38.281Z</time></trkpt><trkpt lat="34.9219517" lon="10.737435"><ele>84.0</ele><time>2026-04-04T18:20:39.282Z</time></trkpt><trkpt lat="34.92173" lon="10.7374267"><ele>83.0</ele><time>2026-04-04T18:20:40.286Z</time></trkpt><trkpt lat="34.9215067" lon="10.7374167"><ele>81.5</ele><time>2026-04-04T18:20:41.284Z</time></trkpt><trkpt lat="34.92128" lon="10.7374067"><ele>80.0</ele><time>2026-04-04T18:20:42.285Z</time></trkpt><trkpt lat="34.9210517" lon="10.7373967"><ele>82.0</ele><time>2026-04-04T18:20:43.282Z</time></trkpt><trkpt lat="34.920825" lon="10.7373867"><ele>84.0</ele><time>2026-04-04T18:20:44.283Z</time></trkpt><trkpt lat="34.9205967" lon="10.737375"><ele>84.0</ele><time>2026-04-04T18:20:45.283Z</time></trkpt><trkpt lat="34.9203667" lon="10.7373633"><ele>84.0</ele><time>2026-04-04T18:20:46.283Z</time></trkpt><trkpt lat="34.9201367" lon="10.7373517"><ele>85.5</ele><time>2026-04-04T18:20:47.285Z</time></trkpt><trkpt lat="34.9199067" lon="10.7373417"><ele>87.0</ele><time>2026-04-04T18:20:48.283Z</time></trkpt><trkpt lat="34.919675" lon="10.7373317"><ele>87.0</ele><time>2026-04-04T18:20:49.283Z</time></trkpt><trkpt lat="34.919445" lon="10.7373217"><ele>87.0</ele><time>2026-04-04T18:20:50.284Z</time></trkpt><trkpt lat="34.919215" lon="10.7373117"><ele>86.0</ele><time>2026-04-04T18:20:51.283Z</time></trkpt><trkpt lat="34.9189833" lon="10.7373017"><ele>85.0</ele><time>2026-04-04T18:20:52.284Z</time></trkpt><trkpt lat="34.9187533" lon="10.73729"><ele>85.0</ele><time>2026-04-04T18:20:53.283Z</time></trkpt><trkpt lat="34.9185233" lon="10.73728"><ele>85.0</ele><time>2026-04-04T18:20:54.286Z</time></trkpt><trkpt lat="34.9182917" lon="10.7372683"><ele>86.0</ele><time>2026-04-04T18:20:55.284Z</time></trkpt><trkpt lat="34.9180583" lon="10.7372583"><ele>87.0</ele><time>2026-04-04T18:20:56.283Z</time></trkpt><trkpt lat="34.917825" lon="10.7372483"><ele>87.0</ele><time>2026-04-04T18:20:57.285Z</time></trkpt><trkpt lat="34.9175933" lon="10.7372383"><ele>87.0</ele><time>2026-04-04T18:20:58.284Z</time></trkpt><trkpt lat="34.9173617" lon="10.737225"><ele>87.0</ele><time>2026-04-04T18:20:59.284Z</time></trkpt><trkpt lat="34.9171283" lon="10.7372133"><ele>87.0</ele><time>2026-04-04T18:21:00.284Z</time></trkpt><trkpt lat="34.9168933" lon="10.7371967"><ele>87.0</ele><time>2026-04-04T18:21:01.285Z</time></trkpt><trkpt lat="34.9166567" lon="10.7371817"><ele>87.0</ele><time>2026-04-04T18:21:02.285Z</time></trkpt><trkpt lat="34.9164183" lon="10.737165"><ele>87.0</ele><time>2026-04-04T18:21:03.282Z</time></trkpt><trkpt lat="34.9161783" lon="10.737145"><ele>87.0</ele><time>2026-04-04T18:21:04.283Z</time></trkpt><trkpt lat="34.9159383" lon="10.7371217"><ele>86.0</ele><time>2026-04-04T18:21:05.283Z</time></trkpt><trkpt lat="34.915695" lon="10.737095"><ele>85.0</ele><time>2026-04-04T18:21:06.284Z</time></trkpt><trkpt lat="34.91545" lon="10.7370617"><ele>85.0</ele><time>2026-04-04T18:21:07.282Z</time></trkpt><trkpt lat="34.9151983" lon="10.737025"><ele>85.0</ele><time>2026-04-04T18:21:08.282Z</time></trkpt><trkpt lat="34.9149367" lon="10.7369833"><ele>84.5</ele><time>2026-04-04T18:21:09.282Z</time></trkpt><trkpt lat="34.9146633" lon="10.736935"><ele>84.0</ele><time>2026-04-04T18:21:10.285Z</time></trkpt><trkpt lat="34.9143817" lon="10.73688"><ele>85.0</ele><time>2026-04-04T18:21:11.285Z</time></trkpt><trkpt lat="34.9140967" lon="10.73682"><ele>86.0</ele><time>2026-04-04T18:21:12.285Z</time></trkpt><trkpt lat="34.91381" lon="10.7367517"><ele>86.0</ele><time>2026-04-04T18:21:13.286Z</time></trkpt><trkpt lat="34.913525" lon="10.73668"><ele>86.0</ele><time>2026-04-04T18:21:14.284Z</time></trkpt><trkpt lat="34.9132467" lon="10.736605"><ele>85.5</ele><time>2026-04-04T18:21:15.285Z</time></trkpt><trkpt lat="34.9129633" lon="10.736525"><ele>85.0</ele><time>2026-04-04T18:21:16.285Z</time></trkpt><trkpt lat="34.9126733" lon="10.7364383"><ele>84.5</ele><time>2026-04-04T18:21:17.285Z</time></trkpt><trkpt lat="34.9123817" lon="10.7363467"><ele>84.0</ele><time>2026-04-04T18:21:18.285Z</time></trkpt><trkpt lat="34.9120883" lon="10.7362467"><ele>84.0</ele><time>2026-04-04T18:21:19.285Z</time></trkpt><trkpt lat="34.9117933" lon="10.73614"><ele>84.0</ele><time>2026-04-04T18:21:20.285Z</time></trkpt><trkpt lat="34.9114983" lon="10.7360317"><ele>84.0</ele><time>2026-04-04T18:21:21.286Z</time></trkpt><trkpt lat="34.9112133" lon="10.7359117"><ele>84.0</ele><time>2026-04-04T18:21:22.285Z</time></trkpt><trkpt lat="34.910935" lon="10.7357917"><ele>84.0</ele><time>2026-04-04T18:21:23.285Z</time></trkpt><trkpt lat="34.9106617" lon="10.73567"><ele>84.0</ele><time>2026-04-04T18:21:24.285Z</time></trkpt><trkpt lat="34.9103983" lon="10.7355433"><ele>84.0</ele><time>2026-04-04T18:21:25.284Z</time></trkpt><trkpt lat="34.9101417" lon="10.7354133"><ele>84.0</ele><time>2026-04-04T18:21:26.286Z</time></trkpt><trkpt lat="34.90989" lon="10.7352833"><ele>84.0</ele><time>2026-04-04T18:21:27.285Z</time></trkpt><trkpt lat="34.9096383" lon="10.7351517"><ele>84.0</ele><time>2026-04-04T18:21:28.287Z</time></trkpt><trkpt lat="34.9093933" lon="10.7350217"><ele>82.5</ele><time>2026-04-04T18:21:29.285Z</time></trkpt><trkpt lat="34.909155" lon="10.73489"><ele>81.0</ele><time>2026-04-04T18:21:30.286Z</time></trkpt><trkpt lat="34.9089183" lon="10.7347583"><ele>81.0</ele><time>2026-04-04T18:21:31.285Z</time></trkpt><trkpt lat="34.9086867" lon="10.734625"><ele>81.0</ele><time>2026-04-04T18:21:32.285Z</time></trkpt><trkpt lat="34.9084583" lon="10.73449"><ele>81.0</ele><time>2026-04-04T18:21:33.283Z</time></trkpt><trkpt lat="34.90823" lon="10.73435"><ele>81.0</ele><time>2026-04-04T18:21:34.282Z</time></trkpt><trkpt lat="34.9080017" lon="10.734205"><ele>81.0</ele><time>2026-04-04T18:21:35.283Z</time></trkpt><trkpt lat="34.907775" lon="10.7340567"><ele>81.0</ele><time>2026-04-04T18:21:36.283Z</time></trkpt><trkpt lat="34.9075483" lon="10.7339017"><ele>80.5</ele><time>2026-04-04T18:21:37.281Z</time></trkpt><trkpt lat="34.9073217" lon="10.7337433"><ele>80.0</ele><time>2026-04-04T18:21:38.282Z</time></trkpt><trkpt lat="34.907095" lon="10.73358"><ele>80.5</ele><time>2026-04-04T18:21:39.282Z</time></trkpt><trkpt lat="34.9068683" lon="10.7334167"><ele>81.0</ele><time>2026-04-04T18:21:40.285Z</time></trkpt><trkpt lat="34.9066433" lon="10.73325"><ele>81.0</ele><time>2026-04-04T18:21:41.285Z</time></trkpt><trkpt lat="34.9064217" lon="10.7330833"><ele>81.0</ele><time>2026-04-04T18:21:42.286Z</time></trkpt><trkpt lat="34.9062017" lon="10.73291"><ele>81.0</ele><time>2026-04-04T18:21:43.285Z</time></trkpt><trkpt lat="34.905985" lon="10.732735"><ele>81.0</ele><time>2026-04-04T18:21:44.284Z</time></trkpt><trkpt lat="34.9057717" lon="10.732555"><ele>80.5</ele><time>2026-04-04T18:21:45.285Z</time></trkpt><trkpt lat="34.9055567" lon="10.7323717"><ele>80.0</ele><time>2026-04-04T18:21:46.285Z</time></trkpt><trkpt lat="34.9053417" lon="10.7321833"><ele>80.0</ele><time>2026-04-04T18:21:47.285Z</time></trkpt><trkpt lat="34.9051283" lon="10.7319917"><ele>80.0</ele><time>2026-04-04T18:21:48.285Z</time></trkpt><trkpt lat="34.90492" lon="10.7317967"><ele>80.0</ele><time>2026-04-04T18:21:49.285Z</time></trkpt><trkpt lat="34.9047133" lon="10.7316"><ele>80.0</ele><time>2026-04-04T18:21:50.284Z</time></trkpt><trkpt lat="34.9045067" lon="10.7313967"><ele>80.0</ele><time>2026-04-04T18:21:51.285Z</time></trkpt><trkpt lat="34.9043017" lon="10.73119"><ele>80.0</ele><time>2026-04-04T18:21:52.286Z</time></trkpt><trkpt lat="34.9040983" lon="10.7309817"><ele>79.0</ele><time>2026-04-04T18:21:53.285Z</time></trkpt><trkpt lat="34.903895" lon="10.7307683"><ele>78.0</ele><time>2026-04-04T18:21:54.285Z</time></trkpt><trkpt lat="34.9036967" lon="10.7305533"><ele>78.0</ele><time>2026-04-04T18:21:55.286Z</time></trkpt><trkpt lat="34.903495" lon="10.7303333"><ele>78.0</ele><time>2026-04-04T18:21:56.286Z</time></trkpt><trkpt lat="34.9032983" lon="10.7301117"><ele>76.5</ele><time>2026-04-04T18:21:57.285Z</time></trkpt><trkpt lat="34.9031033" lon="10.7298867"><ele>75.0</ele><time>2026-04-04T18:21:58.285Z</time></trkpt><trkpt lat="34.9029117" lon="10.7296567"><ele>75.0</ele><time>2026-04-04T18:21:59.285Z</time></trkpt><trkpt lat="34.9027183" lon="10.729425"><ele>75.0</ele><time>2026-04-04T18:22:00.285Z</time></trkpt><trkpt lat="34.9025283" lon="10.7291883"><ele>75.0</ele><time>2026-04-04T18:22:01.284Z</time></trkpt><trkpt lat="34.90234" lon="10.7289517"><ele>75.0</ele><time>2026-04-04T18:22:02.285Z</time></trkpt><trkpt lat="34.9021567" lon="10.7287117"><ele>76.0</ele><time>2026-04-04T18:22:03.284Z</time></trkpt><trkpt lat="34.901975" lon="10.7284733"><ele>77.0</ele><time>2026-04-04T18:22:04.284Z</time></trkpt><trkpt lat="34.9017967" lon="10.7282367"><ele>77.0</ele><time>2026-04-04T18:22:05.284Z</time></trkpt><trkpt lat="34.90162" lon="10.7280017"><ele>77.0</ele><time>2026-04-04T18:22:06.285Z</time></trkpt><trkpt lat="34.9014467" lon="10.7277667"><ele>77.5</ele><time>2026-04-04T18:22:07.284Z</time></trkpt><trkpt lat="34.9012733" lon="10.7275333"><ele>78.0</ele><time>2026-04-04T18:22:08.286Z</time></trkpt><trkpt lat="34.9011" lon="10.7273"><ele>78.0</ele><time>2026-04-04T18:22:09.285Z</time></trkpt><trkpt lat="34.9009233" lon="10.7270667"><ele>78.0</ele><time>2026-04-04T18:22:10.285Z</time></trkpt><trkpt lat="34.90075" lon="10.726835"><ele>77.5</ele><time>2026-04-04T18:22:11.285Z</time></trkpt><trkpt lat="34.9005783" lon="10.7266017"><ele>77.0</ele><time>2026-04-04T18:22:12.286Z</time></trkpt><trkpt lat="34.9004067" lon="10.72637"><ele>77.0</ele><time>2026-04-04T18:22:13.286Z</time></trkpt><trkpt lat="34.9002333" lon="10.7261367"><ele>77.0</ele><time>2026-04-04T18:22:14.284Z</time></trkpt><trkpt lat="34.90006" lon="10.7259067"><ele>76.5</ele><time>2026-04-04T18:22:15.285Z</time></trkpt><trkpt lat="34.8998833" lon="10.7256767"><ele>76.0</ele><time>2026-04-04T18:22:16.285Z</time></trkpt><trkpt lat="34.8997083" lon="10.7254533"><ele>76.0</ele><time>2026-04-04T18:22:17.285Z</time></trkpt><trkpt lat="34.899535" lon="10.7252333"><ele>76.0</ele><time>2026-04-04T18:22:18.285Z</time></trkpt><trkpt lat="34.89936" lon="10.7250183"><ele>76.5</ele><time>2026-04-04T18:22:19.285Z</time></trkpt><trkpt lat="34.8991817" lon="10.7248017"><ele>77.0</ele><time>2026-04-04T18:22:20.284Z</time></trkpt><trkpt lat="34.89901" lon="10.7245983"><ele>77.0</ele><time>2026-04-04T18:22:21.285Z</time></trkpt><trkpt lat="34.89884" lon="10.7243983"><ele>77.0</ele><time>2026-04-04T18:22:22.286Z</time></trkpt><trkpt lat="34.89867" lon="10.7242033"><ele>77.0</ele><time>2026-04-04T18:22:23.282Z</time></trkpt><trkpt lat="34.8984933" lon="10.7240083"><ele>77.0</ele><time>2026-04-04T18:22:24.286Z</time></trkpt><trkpt lat="34.898325" lon="10.723815"><ele>77.0</ele><time>2026-04-04T18:22:25.284Z</time></trkpt><trkpt lat="34.8981583" lon="10.7236267"><ele>77.0</ele><time>2026-04-04T18:22:26.285Z</time></trkpt><trkpt lat="34.897995" lon="10.7234417"><ele>77.33333333333334</ele><time>2026-04-04T18:22:27.284Z</time></trkpt><trkpt lat="34.8978317" lon="10.7232617"><ele>77.66666666666667</ele><time>2026-04-04T18:22:28.285Z</time></trkpt><trkpt lat="34.8976683" lon="10.7230867"><ele>78.0</ele><time>2026-04-04T18:22:29.285Z</time></trkpt><trkpt lat="34.8975033" lon="10.7229167"><ele>77.33333333333333</ele><time>2026-04-04T18:22:30.285Z</time></trkpt><trkpt lat="34.8973467" lon="10.7227483"><ele>76.66666666666666</ele><time>2026-04-04T18:22:31.285Z</time></trkpt><trkpt lat="34.897195" lon="10.722585"><ele>76.0</ele><time>2026-04-04T18:22:32.285Z</time></trkpt><trkpt lat="34.8970517" lon="10.7224283"><ele>76.0</ele><time>2026-04-04T18:22:33.285Z</time></trkpt><trkpt lat="34.8969083" lon="10.7222767"><ele>76.0</ele><time>2026-04-04T18:22:34.286Z</time></trkpt><trkpt lat="34.89677" lon="10.7221267"><ele>76.0</ele><time>2026-04-04T18:22:35.285Z</time></trkpt><trkpt lat="34.8966333" lon="10.72198"><ele>76.0</ele><time>2026-04-04T18:22:36.285Z</time></trkpt><trkpt lat="34.8965017" lon="10.7218417"><ele>76.0</ele><time>2026-04-04T18:22:37.285Z</time></trkpt><trkpt lat="34.8963717" lon="10.7217083"><ele>76.0</ele><time>2026-04-04T18:22:38.286Z</time></trkpt><trkpt lat="34.8962383" lon="10.7215717"><ele>76.0</ele><time>2026-04-04T18:22:39.285Z</time></trkpt><trkpt lat="34.8961083" lon="10.72143"><ele>76.0</ele><time>2026-04-04T18:22:40.285Z</time></trkpt><trkpt lat="34.89598" lon="10.7212883"><ele>76.0</ele><time>2026-04-04T18:22:41.286Z</time></trkpt><trkpt lat="34.8958483" lon="10.7211467"><ele>75.33333333333333</ele><time>2026-04-04T18:22:42.286Z</time></trkpt><trkpt lat="34.89572" lon="10.7210067"><ele>74.66666666666667</ele><time>2026-04-04T18:22:43.285Z</time></trkpt><trkpt lat="34.8955933" lon="10.7208683"><ele>74.0</ele><time>2026-04-04T18:22:44.286Z</time></trkpt><trkpt lat="34.8954667" lon="10.7207317"><ele>74.0</ele><time>2026-04-04T18:22:45.285Z</time></trkpt><trkpt lat="34.895345" lon="10.720595"><ele>74.0</ele><time>2026-04-04T18:22:46.285Z</time></trkpt><trkpt lat="34.8952267" lon="10.7204633"><ele>74.0</ele><time>2026-04-04T18:22:47.285Z</time></trkpt><trkpt lat="34.8951133" lon="10.7203383"><ele>74.5</ele><time>2026-04-04T18:22:48.286Z</time></trkpt><trkpt lat="34.8950033" lon="10.7202167"><ele>75.0</ele><time>2026-04-04T18:22:49.285Z</time></trkpt><trkpt lat="34.894895" lon="10.7201"><ele>75.5</ele><time>2026-04-04T18:22:50.286Z</time></trkpt><trkpt lat="34.8947917" lon="10.719985"><ele>76.0</ele><time>2026-04-04T18:22:51.285Z</time></trkpt><trkpt lat="34.8946883" lon="10.71987"><ele>76.0</ele><time>2026-04-04T18:22:52.286Z</time></trkpt><trkpt lat="34.894585" lon="10.7197517"><ele>76.0</ele><time>2026-04-04T18:22:53.285Z</time></trkpt><trkpt lat="34.89448" lon="10.7196317"><ele>76.0</ele><time>2026-04-04T18:22:54.285Z</time></trkpt><trkpt lat="34.8943683" lon="10.71951"><ele>76.0</ele><time>2026-04-04T18:22:55.285Z</time></trkpt><trkpt lat="34.8942433" lon="10.71938"><ele>75.66666666666666</ele><time>2026-04-04T18:22:56.285Z</time></trkpt><trkpt lat="34.8941067" lon="10.7192317"><ele>75.33333333333333</ele><time>2026-04-04T18:22:57.285Z</time></trkpt><trkpt lat="34.8939583" lon="10.7190617"><ele>75.0</ele><time>2026-04-04T18:22:58.285Z</time></trkpt><trkpt lat="34.8938183" lon="10.7188833"><ele>75.0</ele><time>2026-04-04T18:22:59.285Z</time></trkpt><trkpt lat="34.8936783" lon="10.718705"><ele>75.0</ele><time>2026-04-04T18:23:00.285Z</time></trkpt><trkpt lat="34.8935417" lon="10.7185383"><ele>75.0</ele><time>2026-04-04T18:23:01.287Z</time></trkpt><trkpt lat="34.8934067" lon="10.7183767"><ele>74.33333333333333</ele><time>2026-04-04T18:23:02.285Z</time></trkpt><trkpt lat="34.8932733" lon="10.71822"><ele>73.66666666666666</ele><time>2026-04-04T18:23:03.285Z</time></trkpt><trkpt lat="34.8931467" lon="10.71807"><ele>73.0</ele><time>2026-04-04T18:23:04.286Z</time></trkpt><trkpt lat="34.8930333" lon="10.7179333"><ele>73.0</ele><time>2026-04-04T18:23:05.285Z</time></trkpt><trkpt lat="34.8929267" lon="10.7178083"><ele>73.0</ele><time>2026-04-04T18:23:06.285Z</time></trkpt><trkpt lat="34.8928333" lon="10.7176967"><ele>73.0</ele><time>2026-04-04T18:23:07.285Z</time></trkpt><trkpt lat="34.8927483" lon="10.717595"><ele>73.0</ele><time>2026-04-04T18:23:08.286Z</time></trkpt><trkpt lat="34.89267" lon="10.7175067"><ele>73.16666666666666</ele><time>2026-04-04T18:23:09.285Z</time></trkpt><trkpt lat="34.8926067" lon="10.7174317"><ele>73.33333333333333</ele><time>2026-04-04T18:23:10.285Z</time></trkpt><trkpt lat="34.8925567" lon="10.7173717"><ele>73.5</ele><time>2026-04-04T18:23:11.285Z</time></trkpt><trkpt lat="34.8924883" lon="10.7172883"><ele>73.66666666666667</ele><time>2026-04-04T18:23:13.286Z</time></trkpt><trkpt lat="34.8924217" lon="10.717225"><ele>73.83333333333334</ele><time>2026-04-04T18:23:42.286Z</time></trkpt><trkpt lat="34.8923617" lon="10.7171617"><ele>74.0</ele><time>2026-04-04T18:26:38.282Z</time></trkpt><trkpt lat="34.8923183" lon="10.7170917"><ele>73.66666666666667</ele><time>2026-04-04T18:26:40.282Z</time></trkpt><trkpt lat="34.8922433" lon="10.716995"><ele>73.33333333333334</ele><time>2026-04-04T18:26:42.282Z</time></trkpt><trkpt lat="34.89219" lon="10.7169383"><ele>73.0</ele><time>2026-04-04T18:26:43.283Z</time></trkpt><trkpt lat="34.892135" lon="10.71688"><ele>72.66666666666667</ele><time>2026-04-04T18:26:44.281Z</time></trkpt><trkpt lat="34.8920783" lon="10.7168183"><ele>72.33333333333333</ele><time>2026-04-04T18:26:45.285Z</time></trkpt><trkpt lat="34.8920167" lon="10.7167483"><ele>72.0</ele><time>2026-04-04T18:26:46.285Z</time></trkpt><trkpt lat="34.8919483" lon="10.7166717"><ele>72.0</ele><time>2026-04-04T18:26:47.284Z</time></trkpt><trkpt lat="34.8918733" lon="10.71659"><ele>72.0</ele><time>2026-04-04T18:26:48.284Z</time></trkpt><trkpt lat="34.8918" lon="10.716505"><ele>72.0</ele><time>2026-04-04T18:26:49.284Z</time></trkpt><trkpt lat="34.8917217" lon="10.716425"><ele>72.0</ele><time>2026-04-04T18:26:50.284Z</time></trkpt><trkpt lat="34.891635" lon="10.7163283"><ele>72.0</ele><time>2026-04-04T18:26:51.281Z</time></trkpt><trkpt lat="34.8915417" lon="10.7162233"><ele>72.0</ele><time>2026-04-04T18:26:52.285Z</time></trkpt><trkpt lat="34.8914433" lon="10.7161067"><ele>72.0</ele><time>2026-04-04T18:26:53.283Z</time></trkpt><trkpt lat="34.89134" lon="10.71599"><ele>72.0</ele><time>2026-04-04T18:26:54.285Z</time></trkpt><trkpt lat="34.8912333" lon="10.715865"><ele>72.0</ele><time>2026-04-04T18:26:55.284Z</time></trkpt><trkpt lat="34.89112" lon="10.7157367"><ele>72.0</ele><time>2026-04-04T18:26:56.284Z</time></trkpt><trkpt lat="34.8910017" lon="10.715605"><ele>72.0</ele><time>2026-04-04T18:26:57.284Z</time></trkpt><trkpt lat="34.8908817" lon="10.7154667"><ele>72.0</ele><time>2026-04-04T18:26:58.284Z</time></trkpt><trkpt lat="34.8907567" lon="10.7153217"><ele>71.0</ele><time>2026-04-04T18:26:59.284Z</time></trkpt><trkpt lat="34.8906317" lon="10.7151817"><ele>70.0</ele><time>2026-04-04T18:27:00.284Z</time></trkpt><trkpt lat="34.8905067" lon="10.71504"><ele>69.0</ele><time>2026-04-04T18:27:01.285Z</time></trkpt><trkpt lat="34.8903817" lon="10.7148983"><ele>69.0</ele><time>2026-04-04T18:27:02.284Z</time></trkpt><trkpt lat="34.8902533" lon="10.714755"><ele>69.0</ele><time>2026-04-04T18:27:03.281Z</time></trkpt><trkpt lat="34.8901233" lon="10.7146117"><ele>69.0</ele><time>2026-04-04T18:27:04.282Z</time></trkpt><trkpt lat="34.8899933" lon="10.7144633"><ele>69.0</ele><time>2026-04-04T18:27:05.281Z</time></trkpt><trkpt lat="34.88986" lon="10.7143117"><ele>69.0</ele><time>2026-04-04T18:27:06.282Z</time></trkpt><trkpt lat="34.889725" lon="10.714155"><ele>69.0</ele><time>2026-04-04T18:27:07.281Z</time></trkpt><trkpt lat="34.8895867" lon="10.7139933"><ele>69.0</ele><time>2026-04-04T18:27:08.281Z</time></trkpt><trkpt lat="34.8894467" lon="10.7138283"><ele>69.0</ele><time>2026-04-04T18:27:09.281Z</time></trkpt><trkpt lat="34.8893033" lon="10.71366"><ele>69.0</ele><time>2026-04-04T18:27:10.281Z</time></trkpt><trkpt lat="34.8891583" lon="10.71349"><ele>69.0</ele><time>2026-04-04T18:27:11.281Z</time></trkpt><trkpt lat="34.8890117" lon="10.7133167"><ele>69.0</ele><time>2026-04-04T18:27:12.282Z</time></trkpt><trkpt lat="34.8888617" lon="10.7131417"><ele>69.0</ele><time>2026-04-04T18:27:13.281Z</time></trkpt><trkpt lat="34.88871" lon="10.7129633"><ele>69.0</ele><time>2026-04-04T18:27:14.281Z</time></trkpt><trkpt lat="34.888555" lon="10.712785"><ele>69.0</ele><time>2026-04-04T18:27:15.284Z</time></trkpt><trkpt lat="34.8884" lon="10.7126017"><ele>69.0</ele><time>2026-04-04T18:27:16.285Z</time></trkpt><trkpt lat="34.8882467" lon="10.7124183"><ele>69.0</ele><time>2026-04-04T18:27:17.282Z</time></trkpt><trkpt lat="34.8880933" lon="10.712235"><ele>69.0</ele><time>2026-04-04T18:27:18.284Z</time></trkpt><trkpt lat="34.887945" lon="10.7120567"><ele>69.0</ele><time>2026-04-04T18:27:19.285Z</time></trkpt><trkpt lat="34.8877967" lon="10.71188"><ele>69.0</ele><time>2026-04-04T18:27:20.285Z</time></trkpt><trkpt lat="34.88765" lon="10.7117033"><ele>69.0</ele><time>2026-04-04T18:27:21.284Z</time></trkpt><trkpt lat="34.8874983" lon="10.7115233"><ele>69.0</ele><time>2026-04-04T18:27:22.284Z</time></trkpt><trkpt lat="34.8873333" lon="10.71133"><ele>69.0</ele><time>2026-04-04T18:27:23.284Z</time></trkpt><trkpt lat="34.8871617" lon="10.7111267"><ele>69.0</ele><time>2026-04-04T18:27:24.285Z</time></trkpt><trkpt lat="34.8869867" lon="10.7109217"><ele>69.0</ele><time>2026-04-04T18:27:25.284Z</time></trkpt><trkpt lat="34.886805" lon="10.7107117"><ele>69.0</ele><time>2026-04-04T18:27:26.284Z</time></trkpt><trkpt lat="34.8866217" lon="10.710495"><ele>68.5</ele><time>2026-04-04T18:27:27.285Z</time></trkpt><trkpt lat="34.886435" lon="10.710275"><ele>68.0</ele><time>2026-04-04T18:27:28.284Z</time></trkpt><trkpt lat="34.88625" lon="10.71006"><ele>67.5</ele><time>2026-04-04T18:27:29.284Z</time></trkpt><trkpt lat="34.8860683" lon="10.7098467"><ele>67.0</ele><time>2026-04-04T18:27:30.285Z</time></trkpt><trkpt lat="34.885885" lon="10.709635"><ele>68.0</ele><time>2026-04-04T18:27:31.284Z</time></trkpt><trkpt lat="34.8856983" lon="10.709425"><ele>69.0</ele><time>2026-04-04T18:27:32.284Z</time></trkpt><trkpt lat="34.88551" lon="10.70921"><ele>69.0</ele><time>2026-04-04T18:27:33.282Z</time></trkpt><trkpt lat="34.8853233" lon="10.708995"><ele>69.0</ele><time>2026-04-04T18:27:34.282Z</time></trkpt><trkpt lat="34.8851417" lon="10.7087783"><ele>68.0</ele><time>2026-04-04T18:27:35.285Z</time></trkpt><trkpt lat="34.8849667" lon="10.7085617"><ele>67.0</ele><time>2026-04-04T18:27:36.282Z</time></trkpt><trkpt lat="34.8847933" lon="10.708345"><ele>67.0</ele><time>2026-04-04T18:27:37.284Z</time></trkpt><trkpt lat="34.8846167" lon="10.7081317"><ele>67.0</ele><time>2026-04-04T18:27:38.281Z</time></trkpt><trkpt lat="34.88444" lon="10.70792"><ele>67.0</ele><time>2026-04-04T18:27:39.282Z</time></trkpt><trkpt lat="34.8842617" lon="10.7077067"><ele>67.0</ele><time>2026-04-04T18:27:40.284Z</time></trkpt><trkpt lat="34.8840833" lon="10.7074983"><ele>67.0</ele><time>2026-04-04T18:27:41.284Z</time></trkpt><trkpt lat="34.883905" lon="10.7072883"><ele>67.0</ele><time>2026-04-04T18:27:42.284Z</time></trkpt><trkpt lat="34.883725" lon="10.707075"><ele>66.0</ele><time>2026-04-04T18:27:43.284Z</time></trkpt><trkpt lat="34.8835483" lon="10.706855"><ele>65.0</ele><time>2026-04-04T18:27:44.281Z</time></trkpt><trkpt lat="34.883365" lon="10.7066383"><ele>65.0</ele><time>2026-04-04T18:27:45.283Z</time></trkpt><trkpt lat="34.8831817" lon="10.7064183"><ele>65.0</ele><time>2026-04-04T18:27:46.282Z</time></trkpt><trkpt lat="34.882995" lon="10.7062"><ele>65.0</ele><time>2026-04-04T18:27:47.283Z</time></trkpt><trkpt lat="34.8828067" lon="10.7059833"><ele>65.0</ele><time>2026-04-04T18:27:48.283Z</time></trkpt><trkpt lat="34.8826167" lon="10.7057633"><ele>63.0</ele><time>2026-04-04T18:27:49.283Z</time></trkpt><trkpt lat="34.882425" lon="10.7055433"><ele>61.0</ele><time>2026-04-04T18:27:50.282Z</time></trkpt><trkpt lat="34.8822367" lon="10.7053217"><ele>61.5</ele><time>2026-04-04T18:27:51.282Z</time></trkpt><trkpt lat="34.882045" lon="10.7050983"><ele>62.0</ele><time>2026-04-04T18:27:52.283Z</time></trkpt><trkpt lat="34.8818517" lon="10.7048717"><ele>60.5</ele><time>2026-04-04T18:27:53.283Z</time></trkpt><trkpt lat="34.8816583" lon="10.7046467"><ele>59.0</ele><time>2026-04-04T18:27:54.282Z</time></trkpt><trkpt lat="34.881465" lon="10.70442"><ele>59.0</ele><time>2026-04-04T18:27:55.283Z</time></trkpt><trkpt lat="34.8812717" lon="10.7041917"><ele>59.0</ele><time>2026-04-04T18:27:56.283Z</time></trkpt><trkpt lat="34.8810817" lon="10.7039633"><ele>58.5</ele><time>2026-04-04T18:27:57.283Z</time></trkpt><trkpt lat="34.88089" lon="10.703735"><ele>58.0</ele><time>2026-04-04T18:27:58.282Z</time></trkpt><trkpt lat="34.8806967" lon="10.7035067"><ele>58.0</ele><time>2026-04-04T18:27:59.282Z</time></trkpt><trkpt lat="34.8805" lon="10.7032767"><ele>58.0</ele><time>2026-04-04T18:28:00.282Z</time></trkpt><trkpt lat="34.8803017" lon="10.70305"><ele>58.0</ele><time>2026-04-04T18:28:01.285Z</time></trkpt><trkpt lat="34.8801033" lon="10.7028217"><ele>58.0</ele><time>2026-04-04T18:28:02.284Z</time></trkpt><trkpt lat="34.879905" lon="10.7025883"><ele>61.0</ele><time>2026-04-04T18:28:03.281Z</time></trkpt><trkpt lat="34.8797067" lon="10.7023533"><ele>64.0</ele><time>2026-04-04T18:28:04.283Z</time></trkpt><trkpt lat="34.8795067" lon="10.702115"><ele>64.0</ele><time>2026-04-04T18:28:05.281Z</time></trkpt><trkpt lat="34.879305" lon="10.701875"><ele>64.0</ele><time>2026-04-04T18:28:06.282Z</time></trkpt><trkpt lat="34.8791067" lon="10.701635"><ele>64.5</ele><time>2026-04-04T18:28:07.283Z</time></trkpt><trkpt lat="34.878905" lon="10.7013967"><ele>65.0</ele><time>2026-04-04T18:28:08.282Z</time></trkpt><trkpt lat="34.8787017" lon="10.7011567"><ele>65.0</ele><time>2026-04-04T18:28:09.281Z</time></trkpt><trkpt lat="34.8784967" lon="10.7009183"><ele>65.0</ele><time>2026-04-04T18:28:10.284Z</time></trkpt><trkpt lat="34.8782917" lon="10.7006783"><ele>65.5</ele><time>2026-04-04T18:28:11.284Z</time></trkpt><trkpt lat="34.8780867" lon="10.7004367"><ele>66.0</ele><time>2026-04-04T18:28:12.284Z</time></trkpt><trkpt lat="34.8778817" lon="10.7001933"><ele>66.0</ele><time>2026-04-04T18:28:13.284Z</time></trkpt><trkpt lat="34.877675" lon="10.6999533"><ele>66.0</ele><time>2026-04-04T18:28:14.281Z</time></trkpt><trkpt lat="34.877465" lon="10.6997083"><ele>65.5</ele><time>2026-04-04T18:28:15.281Z</time></trkpt><trkpt lat="34.8772517" lon="10.699465"><ele>65.0</ele><time>2026-04-04T18:28:16.282Z</time></trkpt><trkpt lat="34.8770333" lon="10.6992233"><ele>65.5</ele><time>2026-04-04T18:28:17.284Z</time></trkpt><trkpt lat="34.8768117" lon="10.6989833"><ele>66.0</ele><time>2026-04-04T18:28:18.282Z</time></trkpt><trkpt lat="34.8765867" lon="10.6987467"><ele>66.0</ele><time>2026-04-04T18:28:19.281Z</time></trkpt><trkpt lat="34.87636" lon="10.6985133"><ele>66.0</ele><time>2026-04-04T18:28:20.281Z</time></trkpt><trkpt lat="34.8761333" lon="10.6982767"><ele>67.5</ele><time>2026-04-04T18:28:21.281Z</time></trkpt><trkpt lat="34.8759033" lon="10.6980433"><ele>69.0</ele><time>2026-04-04T18:28:22.282Z</time></trkpt><trkpt lat="34.8756683" lon="10.69781"><ele>69.5</ele><time>2026-04-04T18:28:23.283Z</time></trkpt><trkpt lat="34.87543" lon="10.6975767"><ele>70.0</ele><time>2026-04-04T18:28:24.282Z</time></trkpt><trkpt lat="34.87519" lon="10.6973433"><ele>70.5</ele><time>2026-04-04T18:28:25.282Z</time></trkpt><trkpt lat="34.8749483" lon="10.6971117"><ele>71.0</ele><time>2026-04-04T18:28:26.281Z</time></trkpt><trkpt lat="34.8747033" lon="10.69688"><ele>71.0</ele><time>2026-04-04T18:28:27.284Z</time></trkpt><trkpt lat="34.8744567" lon="10.6966517"><ele>71.0</ele><time>2026-04-04T18:28:28.285Z</time></trkpt><trkpt lat="34.874205" lon="10.6964267"><ele>71.5</ele><time>2026-04-04T18:28:29.285Z</time></trkpt><trkpt lat="34.8739533" lon="10.696205"><ele>72.0</ele><time>2026-04-04T18:28:30.285Z</time></trkpt><trkpt lat="34.8737" lon="10.6959867"><ele>72.5</ele><time>2026-04-04T18:28:31.285Z</time></trkpt><trkpt lat="34.873445" lon="10.6957717"><ele>73.0</ele><time>2026-04-04T18:28:32.285Z</time></trkpt><trkpt lat="34.8731883" lon="10.6955567"><ele>73.0</ele><time>2026-04-04T18:28:33.285Z</time></trkpt><trkpt lat="34.87293" lon="10.6953417"><ele>73.0</ele><time>2026-04-04T18:28:34.284Z</time></trkpt><trkpt lat="34.8726683" lon="10.69513"><ele>74.0</ele><time>2026-04-04T18:28:35.284Z</time></trkpt><trkpt lat="34.8724033" lon="10.6949217"><ele>75.0</ele><time>2026-04-04T18:28:36.284Z</time></trkpt><trkpt lat="34.8721383" lon="10.6947167"><ele>75.0</ele><time>2026-04-04T18:28:37.284Z</time></trkpt><trkpt lat="34.8718717" lon="10.6945133"><ele>75.0</ele><time>2026-04-04T18:28:38.285Z</time></trkpt><trkpt lat="34.8716033" lon="10.6943133"><ele>75.0</ele><time>2026-04-04T18:28:39.284Z</time></trkpt><trkpt lat="34.8713333" lon="10.694115"><ele>75.0</ele><time>2026-04-04T18:28:40.284Z</time></trkpt><trkpt lat="34.8710617" lon="10.6939133"><ele>75.0</ele><time>2026-04-04T18:28:41.284Z</time></trkpt><trkpt lat="34.8707917" lon="10.6937117"><ele>75.0</ele><time>2026-04-04T18:28:42.285Z</time></trkpt><trkpt lat="34.8705217" lon="10.69351"><ele>75.5</ele><time>2026-04-04T18:28:43.285Z</time></trkpt><trkpt lat="34.8702517" lon="10.69331"><ele>76.0</ele><time>2026-04-04T18:28:44.281Z</time></trkpt><trkpt lat="34.8699817" lon="10.6931083"><ele>76.0</ele><time>2026-04-04T18:28:45.283Z</time></trkpt><trkpt lat="34.8697117" lon="10.692905"><ele>76.0</ele><time>2026-04-04T18:28:46.282Z</time></trkpt><trkpt lat="34.8694433" lon="10.6927"><ele>77.0</ele><time>2026-04-04T18:28:47.282Z</time></trkpt><trkpt lat="34.8691717" lon="10.69249"><ele>78.0</ele><time>2026-04-04T18:28:48.283Z</time></trkpt><trkpt lat="34.8688983" lon="10.6922833"><ele>78.0</ele><time>2026-04-04T18:28:49.282Z</time></trkpt><trkpt lat="34.868625" lon="10.6920783"><ele>78.0</ele><time>2026-04-04T18:28:50.281Z</time></trkpt><trkpt lat="34.8683533" lon="10.6918733"><ele>78.5</ele><time>2026-04-04T18:28:51.282Z</time></trkpt><trkpt lat="34.86808" lon="10.6916683"><ele>79.0</ele><time>2026-04-04T18:28:52.282Z</time></trkpt><trkpt lat="34.8678067" lon="10.6914633"><ele>79.5</ele><time>2026-04-04T18:28:53.282Z</time></trkpt><trkpt lat="34.8675333" lon="10.6912567"><ele>80.0</ele><time>2026-04-04T18:28:54.282Z</time></trkpt><trkpt lat="34.86726" lon="10.691055"><ele>80.5</ele><time>2026-04-04T18:28:55.285Z</time></trkpt><trkpt lat="34.8669833" lon="10.690855"><ele>81.0</ele><time>2026-04-04T18:28:56.284Z</time></trkpt><trkpt lat="34.86671" lon="10.69065"><ele>81.0</ele><time>2026-04-04T18:28:57.285Z</time></trkpt><trkpt lat="34.86644" lon="10.6904433"><ele>81.0</ele><time>2026-04-04T18:28:58.284Z</time></trkpt><trkpt lat="34.8661683" lon="10.6902333"><ele>81.5</ele><time>2026-04-04T18:28:59.284Z</time></trkpt><trkpt lat="34.8658967" lon="10.69003"><ele>82.0</ele><time>2026-04-04T18:29:00.285Z</time></trkpt><trkpt lat="34.865625" lon="10.6898233"><ele>82.0</ele><time>2026-04-04T18:29:01.284Z</time></trkpt><trkpt lat="34.8653517" lon="10.6896167"><ele>82.0</ele><time>2026-04-04T18:29:02.284Z</time></trkpt><trkpt lat="34.8650783" lon="10.6894117"><ele>82.5</ele><time>2026-04-04T18:29:03.285Z</time></trkpt><trkpt lat="34.864805" lon="10.689205"><ele>83.0</ele><time>2026-04-04T18:29:04.284Z</time></trkpt><trkpt lat="34.8645317" lon="10.6889967"><ele>83.5</ele><time>2026-04-04T18:29:05.284Z</time></trkpt><trkpt lat="34.86426" lon="10.68879"><ele>84.0</ele><time>2026-04-04T18:29:06.285Z</time></trkpt><trkpt lat="34.8639867" lon="10.6885833"><ele>84.5</ele><time>2026-04-04T18:29:07.285Z</time></trkpt><trkpt lat="34.8637133" lon="10.6883767"><ele>85.0</ele><time>2026-04-04T18:29:08.284Z</time></trkpt><trkpt lat="34.86344" lon="10.6881717"><ele>85.5</ele><time>2026-04-04T18:29:09.285Z</time></trkpt><trkpt lat="34.8631667" lon="10.687965"><ele>86.0</ele><time>2026-04-04T18:29:10.284Z</time></trkpt><trkpt lat="34.8628933" lon="10.6877583"><ele>86.0</ele><time>2026-04-04T18:29:11.284Z</time></trkpt><trkpt lat="34.8626183" lon="10.6875517"><ele>86.0</ele><time>2026-04-04T18:29:12.284Z</time></trkpt><trkpt lat="34.862345" lon="10.6873417"><ele>86.0</ele><time>2026-04-04T18:29:13.284Z</time></trkpt><trkpt lat="34.8620717" lon="10.6871333"><ele>86.0</ele><time>2026-04-04T18:29:14.281Z</time></trkpt><trkpt lat="34.8618017" lon="10.6869283"><ele>86.0</ele><time>2026-04-04T18:29:15.284Z</time></trkpt><trkpt lat="34.861535" lon="10.6867283"><ele>86.0</ele><time>2026-04-04T18:29:16.282Z</time></trkpt><trkpt lat="34.8612733" lon="10.68653"><ele>86.0</ele><time>2026-04-04T18:29:17.283Z</time></trkpt><trkpt lat="34.8610133" lon="10.6863383"><ele>86.0</ele><time>2026-04-04T18:29:18.283Z</time></trkpt><trkpt lat="34.860755" lon="10.686145"><ele>85.5</ele><time>2026-04-04T18:29:19.283Z</time></trkpt><trkpt lat="34.8604983" lon="10.685955"><ele>85.0</ele><time>2026-04-04T18:29:20.283Z</time></trkpt><trkpt lat="34.8602433" lon="10.6857617"><ele>85.5</ele><time>2026-04-04T18:29:21.284Z</time></trkpt><trkpt lat="34.859985" lon="10.6855717"><ele>86.0</ele><time>2026-04-04T18:29:22.284Z</time></trkpt><trkpt lat="34.859725" lon="10.6853817"><ele>86.0</ele><time>2026-04-04T18:29:23.281Z</time></trkpt><trkpt lat="34.859465" lon="10.6851917"><ele>86.0</ele><time>2026-04-04T18:29:24.283Z</time></trkpt><trkpt lat="34.8592083" lon="10.6850033"><ele>85.5</ele><time>2026-04-04T18:29:25.284Z</time></trkpt><trkpt lat="34.85895" lon="10.6848133"><ele>85.0</ele><time>2026-04-04T18:29:26.284Z</time></trkpt><trkpt lat="34.858695" lon="10.684625"><ele>85.0</ele><time>2026-04-04T18:29:27.285Z</time></trkpt><trkpt lat="34.85844" lon="10.6844367"><ele>85.0</ele><time>2026-04-04T18:29:28.284Z</time></trkpt><trkpt lat="34.858185" lon="10.6842467"><ele>85.5</ele><time>2026-04-04T18:29:29.284Z</time></trkpt><trkpt lat="34.8579317" lon="10.684055"><ele>86.0</ele><time>2026-04-04T18:29:30.285Z</time></trkpt><trkpt lat="34.85768" lon="10.6838633"><ele>85.5</ele><time>2026-04-04T18:29:31.284Z</time></trkpt><trkpt lat="34.8574283" lon="10.6836733"><ele>85.0</ele><time>2026-04-04T18:29:32.281Z</time></trkpt><trkpt lat="34.8571783" lon="10.683485"><ele>85.0</ele><time>2026-04-04T18:29:33.285Z</time></trkpt><trkpt lat="34.85693" lon="10.6832933"><ele>85.0</ele><time>2026-04-04T18:29:34.284Z</time></trkpt><trkpt lat="34.856675" lon="10.6830983"><ele>85.0</ele><time>2026-04-04T18:29:35.284Z</time></trkpt><trkpt lat="34.85642" lon="10.6829017"><ele>85.0</ele><time>2026-04-04T18:29:36.285Z</time></trkpt><trkpt lat="34.8561633" lon="10.6827033"><ele>85.5</ele><time>2026-04-04T18:29:37.284Z</time></trkpt><trkpt lat="34.8559067" lon="10.6825017"><ele>86.0</ele><time>2026-04-04T18:29:38.284Z</time></trkpt><trkpt lat="34.8556467" lon="10.6823"><ele>86.0</ele><time>2026-04-04T18:29:39.286Z</time></trkpt><trkpt lat="34.855385" lon="10.6820983"><ele>86.0</ele><time>2026-04-04T18:29:40.285Z</time></trkpt><trkpt lat="34.8551217" lon="10.6818967"><ele>86.5</ele><time>2026-04-04T18:29:41.285Z</time></trkpt><trkpt lat="34.8548517" lon="10.6816933"><ele>87.0</ele><time>2026-04-04T18:29:42.282Z</time></trkpt><trkpt lat="34.854585" lon="10.68149"><ele>87.0</ele><time>2026-04-04T18:29:43.285Z</time></trkpt><trkpt lat="34.8543133" lon="10.6812883"><ele>87.0</ele><time>2026-04-04T18:29:44.281Z</time></trkpt><trkpt lat="34.85404" lon="10.681085"><ele>86.0</ele><time>2026-04-04T18:29:45.285Z</time></trkpt><trkpt lat="34.8537667" lon="10.6808817"><ele>85.0</ele><time>2026-04-04T18:29:46.285Z</time></trkpt><trkpt lat="34.8534933" lon="10.680675"><ele>85.5</ele><time>2026-04-04T18:29:47.281Z</time></trkpt><trkpt lat="34.85322" lon="10.6804683"><ele>86.0</ele><time>2026-04-04T18:29:48.285Z</time></trkpt><trkpt lat="34.852945" lon="10.68026"><ele>86.0</ele><time>2026-04-04T18:29:49.284Z</time></trkpt><trkpt lat="34.8526717" lon="10.680055"><ele>86.0</ele><time>2026-04-04T18:29:50.284Z</time></trkpt><trkpt lat="34.8523933" lon="10.679845"><ele>85.5</ele><time>2026-04-04T18:29:51.285Z</time></trkpt><trkpt lat="34.852115" lon="10.679635"><ele>85.0</ele><time>2026-04-04T18:29:52.285Z</time></trkpt><trkpt lat="34.8518383" lon="10.6794283"><ele>84.5</ele><time>2026-04-04T18:29:53.285Z</time></trkpt><trkpt lat="34.85156" lon="10.6792167"><ele>84.0</ele><time>2026-04-04T18:29:54.285Z</time></trkpt><trkpt lat="34.8512767" lon="10.679005"><ele>84.0</ele><time>2026-04-04T18:29:55.284Z</time></trkpt><trkpt lat="34.850995" lon="10.6787933"><ele>84.0</ele><time>2026-04-04T18:29:56.284Z</time></trkpt><trkpt lat="34.85071" lon="10.67858"><ele>84.0</ele><time>2026-04-04T18:29:57.285Z</time></trkpt><trkpt lat="34.850425" lon="10.678365"><ele>84.0</ele><time>2026-04-04T18:29:58.284Z</time></trkpt><trkpt lat="34.85014" lon="10.67815"><ele>84.0</ele><time>2026-04-04T18:29:59.285Z</time></trkpt><trkpt lat="34.849855" lon="10.6779383"><ele>84.0</ele><time>2026-04-04T18:30:00.285Z</time></trkpt><trkpt lat="34.8495733" lon="10.6777267"><ele>84.5</ele><time>2026-04-04T18:30:01.284Z</time></trkpt><trkpt lat="34.84929" lon="10.677515"><ele>85.0</ele><time>2026-04-04T18:30:02.284Z</time></trkpt><trkpt lat="34.8490117" lon="10.6773067"><ele>85.0</ele><time>2026-04-04T18:30:03.284Z</time></trkpt><trkpt lat="34.8487367" lon="10.6770983"><ele>85.0</ele><time>2026-04-04T18:30:04.285Z</time></trkpt><trkpt lat="34.8484633" lon="10.6768883"><ele>84.5</ele><time>2026-04-04T18:30:05.286Z</time></trkpt><trkpt lat="34.84819" lon="10.6766733"><ele>84.0</ele><time>2026-04-04T18:30:06.285Z</time></trkpt><trkpt lat="34.8479233" lon="10.676455"><ele>84.0</ele><time>2026-04-04T18:30:07.284Z</time></trkpt><trkpt lat="34.8476617" lon="10.6762317"><ele>84.0</ele><time>2026-04-04T18:30:08.285Z</time></trkpt><trkpt lat="34.8474033" lon="10.676005"><ele>84.0</ele><time>2026-04-04T18:30:09.284Z</time></trkpt><trkpt lat="34.8471517" lon="10.675775"><ele>84.0</ele><time>2026-04-04T18:30:10.285Z</time></trkpt><trkpt lat="34.846905" lon="10.67554"><ele>83.5</ele><time>2026-04-04T18:30:11.285Z</time></trkpt><trkpt lat="34.8466633" lon="10.6752983"><ele>83.0</ele><time>2026-04-04T18:30:12.284Z</time></trkpt><trkpt lat="34.8464267" lon="10.675055"><ele>84.0</ele><time>2026-04-04T18:30:13.285Z</time></trkpt><trkpt lat="34.846195" lon="10.674805"><ele>85.0</ele><time>2026-04-04T18:30:14.285Z</time></trkpt><trkpt lat="34.8459633" lon="10.6745483"><ele>83.5</ele><time>2026-04-04T18:30:15.285Z</time></trkpt><trkpt lat="34.84574" lon="10.6742867"><ele>82.0</ele><time>2026-04-04T18:30:16.284Z</time></trkpt><trkpt lat="34.84552" lon="10.6740183"><ele>82.0</ele><time>2026-04-04T18:30:17.284Z</time></trkpt><trkpt lat="34.8453" lon="10.673745"><ele>82.0</ele><time>2026-04-04T18:30:18.285Z</time></trkpt><trkpt lat="34.8450867" lon="10.673465"><ele>83.0</ele><time>2026-04-04T18:30:19.284Z</time></trkpt><trkpt lat="34.8448717" lon="10.67318"><ele>84.0</ele><time>2026-04-04T18:30:20.284Z</time></trkpt><trkpt lat="34.8446617" lon="10.6728883"><ele>84.0</ele><time>2026-04-04T18:30:21.284Z</time></trkpt><trkpt lat="34.8444567" lon="10.6725883"><ele>84.0</ele><time>2026-04-04T18:30:22.284Z</time></trkpt><trkpt lat="34.844255" lon="10.6722767"><ele>83.5</ele><time>2026-04-04T18:30:23.285Z</time></trkpt><trkpt lat="34.844055" lon="10.67196"><ele>83.0</ele><time>2026-04-04T18:30:24.285Z</time></trkpt><trkpt lat="34.84386" lon="10.67164"><ele>82.5</ele><time>2026-04-04T18:30:25.285Z</time></trkpt><trkpt lat="34.84367" lon="10.6713133"><ele>82.0</ele><time>2026-04-04T18:30:26.284Z</time></trkpt><trkpt lat="34.8434833" lon="10.6709883"><ele>83.0</ele><time>2026-04-04T18:30:27.285Z</time></trkpt><trkpt lat="34.8432933" lon="10.6706583"><ele>84.0</ele><time>2026-04-04T18:30:28.284Z</time></trkpt><trkpt lat="34.84311" lon="10.67033"><ele>81.5</ele><time>2026-04-04T18:30:29.284Z</time></trkpt><trkpt lat="34.8429283" lon="10.6700033"><ele>79.0</ele><time>2026-04-04T18:30:30.285Z</time></trkpt><trkpt lat="34.8427433" lon="10.669675"><ele>79.5</ele><time>2026-04-04T18:30:31.284Z</time></trkpt><trkpt lat="34.8425533" lon="10.6693467"><ele>80.0</ele><time>2026-04-04T18:30:32.284Z</time></trkpt><trkpt lat="34.842365" lon="10.6690217"><ele>80.0</ele><time>2026-04-04T18:30:33.285Z</time></trkpt><trkpt lat="34.8421783" lon="10.6687017"><ele>80.0</ele><time>2026-04-04T18:30:34.284Z</time></trkpt><trkpt lat="34.8419917" lon="10.6683767"><ele>81.5</ele><time>2026-04-04T18:30:35.285Z</time></trkpt><trkpt lat="34.841805" lon="10.668055"><ele>83.0</ele><time>2026-04-04T18:30:36.285Z</time></trkpt><trkpt lat="34.841625" lon="10.6677317"><ele>83.0</ele><time>2026-04-04T18:30:37.284Z</time></trkpt><trkpt lat="34.841445" lon="10.66741"><ele>83.0</ele><time>2026-04-04T18:30:38.285Z</time></trkpt><trkpt lat="34.84126" lon="10.6670883"><ele>82.0</ele><time>2026-04-04T18:30:39.284Z</time></trkpt><trkpt lat="34.8410733" lon="10.66677"><ele>81.0</ele><time>2026-04-04T18:30:40.284Z</time></trkpt><trkpt lat="34.8408833" lon="10.6664467"><ele>80.5</ele><time>2026-04-04T18:30:41.284Z</time></trkpt><trkpt lat="34.840695" lon="10.6661233"><ele>80.0</ele><time>2026-04-04T18:30:42.285Z</time></trkpt><trkpt lat="34.840505" lon="10.6657967"><ele>79.5</ele><time>2026-04-04T18:30:43.284Z</time></trkpt><trkpt lat="34.8403167" lon="10.6654683"><ele>79.0</ele><time>2026-04-04T18:30:44.285Z</time></trkpt><trkpt lat="34.84013" lon="10.6651417"><ele>78.0</ele><time>2026-04-04T18:30:45.285Z</time></trkpt><trkpt lat="34.8399433" lon="10.6648167"><ele>77.0</ele><time>2026-04-04T18:30:46.284Z</time></trkpt><trkpt lat="34.8397583" lon="10.6644883"><ele>75.5</ele><time>2026-04-04T18:30:47.284Z</time></trkpt><trkpt lat="34.8395733" lon="10.6641617"><ele>74.0</ele><time>2026-04-04T18:30:48.285Z</time></trkpt><trkpt lat="34.8393867" lon="10.663835"><ele>73.5</ele><time>2026-04-04T18:30:49.284Z</time></trkpt><trkpt lat="34.8392033" lon="10.6635067"><ele>73.0</ele><time>2026-04-04T18:30:50.284Z</time></trkpt><trkpt lat="34.8390167" lon="10.6631767"><ele>73.0</ele><time>2026-04-04T18:30:51.284Z</time></trkpt><trkpt lat="34.8388333" lon="10.6628483"><ele>73.0</ele><time>2026-04-04T18:30:52.284Z</time></trkpt><trkpt lat="34.838645" lon="10.66252"><ele>73.0</ele><time>2026-04-04T18:30:53.285Z</time></trkpt><trkpt lat="34.8384567" lon="10.6621917"><ele>73.0</ele><time>2026-04-04T18:30:54.286Z</time></trkpt><trkpt lat="34.8382683" lon="10.6618667"><ele>74.0</ele><time>2026-04-04T18:30:55.284Z</time></trkpt><trkpt lat="34.8380783" lon="10.6615417"><ele>75.0</ele><time>2026-04-04T18:30:56.284Z</time></trkpt><trkpt lat="34.83789" lon="10.661215"><ele>75.0</ele><time>2026-04-04T18:30:57.285Z</time></trkpt><trkpt lat="34.8377033" lon="10.6608867"><ele>75.0</ele><time>2026-04-04T18:30:58.285Z</time></trkpt><trkpt lat="34.8375183" lon="10.6605583"><ele>75.0</ele><time>2026-04-04T18:30:59.286Z</time></trkpt><trkpt lat="34.83733" lon="10.6602317"><ele>75.0</ele><time>2026-04-04T18:31:00.285Z</time></trkpt><trkpt lat="34.8371433" lon="10.659905"><ele>75.0</ele><time>2026-04-04T18:31:01.285Z</time></trkpt><trkpt lat="34.8369517" lon="10.6595783"><ele>75.0</ele><time>2026-04-04T18:31:02.284Z</time></trkpt><trkpt lat="34.8367617" lon="10.6592483"><ele>73.0</ele><time>2026-04-04T18:31:03.284Z</time></trkpt><trkpt lat="34.83657" lon="10.658915"><ele>71.0</ele><time>2026-04-04T18:31:04.285Z</time></trkpt><trkpt lat="34.8363833" lon="10.6585883"><ele>71.0</ele><time>2026-04-04T18:31:05.284Z</time></trkpt><trkpt lat="34.8361967" lon="10.65826"><ele>71.0</ele><time>2026-04-04T18:31:06.285Z</time></trkpt><trkpt lat="34.83601" lon="10.6579333"><ele>69.5</ele><time>2026-04-04T18:31:07.284Z</time></trkpt><trkpt lat="34.8358217" lon="10.6576083"><ele>68.0</ele><time>2026-04-04T18:31:08.284Z</time></trkpt><trkpt lat="34.8356317" lon="10.657285"><ele>68.0</ele><time>2026-04-04T18:31:09.286Z</time></trkpt><trkpt lat="34.83544" lon="10.6569633"><ele>68.0</ele><time>2026-04-04T18:31:10.285Z</time></trkpt><trkpt lat="34.83525" lon="10.656645"><ele>68.0</ele><time>2026-04-04T18:31:11.285Z</time></trkpt><trkpt lat="34.8350517" lon="10.65633"><ele>68.0</ele><time>2026-04-04T18:31:12.285Z</time></trkpt><trkpt lat="34.8348517" lon="10.65602"><ele>68.0</ele><time>2026-04-04T18:31:13.284Z</time></trkpt><trkpt lat="34.834645" lon="10.6557117"><ele>68.0</ele><time>2026-04-04T18:31:14.285Z</time></trkpt><trkpt lat="34.834435" lon="10.6554067"><ele>65.5</ele><time>2026-04-04T18:31:15.286Z</time></trkpt><trkpt lat="34.83422" lon="10.6551017"><ele>63.0</ele><time>2026-04-04T18:31:16.285Z</time></trkpt><trkpt lat="34.8340067" lon="10.654805"><ele>63.0</ele><time>2026-04-04T18:31:17.284Z</time></trkpt><trkpt lat="34.83379" lon="10.654515"><ele>63.0</ele><time>2026-04-04T18:31:18.286Z</time></trkpt><trkpt lat="34.8335767" lon="10.65423"><ele>64.0</ele><time>2026-04-04T18:31:19.285Z</time></trkpt><trkpt lat="34.8333633" lon="10.65395"><ele>65.0</ele><time>2026-04-04T18:31:20.284Z</time></trkpt><trkpt lat="34.8331483" lon="10.6536683"><ele>65.5</ele><time>2026-04-04T18:31:21.284Z</time></trkpt><trkpt lat="34.83293" lon="10.6533883"><ele>66.0</ele><time>2026-04-04T18:31:22.284Z</time></trkpt><trkpt lat="34.8327083" lon="10.65311"><ele>66.0</ele><time>2026-04-04T18:31:23.284Z</time></trkpt><trkpt lat="34.8324883" lon="10.652835"><ele>66.0</ele><time>2026-04-04T18:31:24.285Z</time></trkpt><trkpt lat="34.8322717" lon="10.652565"><ele>66.0</ele><time>2026-04-04T18:31:25.284Z</time></trkpt><trkpt lat="34.832055" lon="10.6522933"><ele>66.0</ele><time>2026-04-04T18:31:26.284Z</time></trkpt><trkpt lat="34.8318383" lon="10.65202"><ele>65.5</ele><time>2026-04-04T18:31:27.285Z</time></trkpt><trkpt lat="34.831625" lon="10.65175"><ele>65.0</ele><time>2026-04-04T18:31:28.284Z</time></trkpt><trkpt lat="34.8314083" lon="10.651475"><ele>65.0</ele><time>2026-04-04T18:31:29.284Z</time></trkpt><trkpt lat="34.8311933" lon="10.6512"><ele>65.0</ele><time>2026-04-04T18:31:30.285Z</time></trkpt><trkpt lat="34.83098" lon="10.6509183"><ele>66.0</ele><time>2026-04-04T18:31:31.284Z</time></trkpt><trkpt lat="34.8307733" lon="10.650635"><ele>67.0</ele><time>2026-04-04T18:31:32.284Z</time></trkpt><trkpt lat="34.83057" lon="10.650345"><ele>68.0</ele><time>2026-04-04T18:31:33.285Z</time></trkpt><trkpt lat="34.830365" lon="10.65005"><ele>69.0</ele><time>2026-04-04T18:31:34.285Z</time></trkpt><trkpt lat="34.8301567" lon="10.6497517"><ele>70.5</ele><time>2026-04-04T18:31:35.284Z</time></trkpt><trkpt lat="34.829945" lon="10.649455"><ele>72.0</ele><time>2026-04-04T18:31:36.285Z</time></trkpt><trkpt lat="34.8297317" lon="10.6491567"><ele>72.0</ele><time>2026-04-04T18:31:37.284Z</time></trkpt><trkpt lat="34.82952" lon="10.648855"><ele>72.0</ele><time>2026-04-04T18:31:38.286Z</time></trkpt><trkpt lat="34.8293117" lon="10.6485567"><ele>73.5</ele><time>2026-04-04T18:31:39.285Z</time></trkpt><trkpt lat="34.8291" lon="10.6482567"><ele>75.0</ele><time>2026-04-04T18:31:40.284Z</time></trkpt><trkpt lat="34.82889" lon="10.6479533"><ele>75.0</ele><time>2026-04-04T18:31:41.286Z</time></trkpt><trkpt lat="34.8286817" lon="10.6476483"><ele>75.0</ele><time>2026-04-04T18:31:42.285Z</time></trkpt><trkpt lat="34.828475" lon="10.6473367"><ele>75.5</ele><time>2026-04-04T18:31:43.284Z</time></trkpt><trkpt lat="34.8282683" lon="10.6470217"><ele>76.0</ele><time>2026-04-04T18:31:44.285Z</time></trkpt><trkpt lat="34.8280633" lon="10.6467067"><ele>76.5</ele><time>2026-04-04T18:31:45.284Z</time></trkpt><trkpt lat="34.8278617" lon="10.6463967"><ele>77.0</ele><time>2026-04-04T18:31:46.284Z</time></trkpt><trkpt lat="34.8276617" lon="10.6460867"><ele>77.0</ele><time>2026-04-04T18:31:47.285Z</time></trkpt><trkpt lat="34.8274617" lon="10.6457783"><ele>77.0</ele><time>2026-04-04T18:31:48.285Z</time></trkpt><trkpt lat="34.827265" lon="10.6454733"><ele>78.0</ele><time>2026-04-04T18:31:49.284Z</time></trkpt><trkpt lat="34.8270633" lon="10.6451667"><ele>79.0</ele><time>2026-04-04T18:31:50.284Z</time></trkpt><trkpt lat="34.8268617" lon="10.6448567"><ele>79.0</ele><time>2026-04-04T18:31:51.284Z</time></trkpt><trkpt lat="34.8266583" lon="10.6445467"><ele>79.0</ele><time>2026-04-04T18:31:52.285Z</time></trkpt><trkpt lat="34.8264533" lon="10.6442333"><ele>79.0</ele><time>2026-04-04T18:31:53.287Z</time></trkpt><trkpt lat="34.826245" lon="10.6439167"><ele>79.0</ele><time>2026-04-04T18:31:54.285Z</time></trkpt><trkpt lat="34.8260367" lon="10.6436017"><ele>77.5</ele><time>2026-04-04T18:31:55.285Z</time></trkpt><trkpt lat="34.8258317" lon="10.6432867"><ele>76.0</ele><time>2026-04-04T18:31:56.285Z</time></trkpt><trkpt lat="34.8256267" lon="10.64297"><ele>76.5</ele><time>2026-04-04T18:31:57.284Z</time></trkpt><trkpt lat="34.825415" lon="10.6426467"><ele>77.0</ele><time>2026-04-04T18:31:58.285Z</time></trkpt><trkpt lat="34.8252017" lon="10.64232"><ele>77.0</ele><time>2026-04-04T18:31:59.285Z</time></trkpt><trkpt lat="34.8249883" lon="10.6420017"><ele>77.0</ele><time>2026-04-04T18:32:00.285Z</time></trkpt><trkpt lat="34.824775" lon="10.64168"><ele>77.5</ele><time>2026-04-04T18:32:01.286Z</time></trkpt><trkpt lat="34.824565" lon="10.6413633"><ele>78.0</ele><time>2026-04-04T18:32:02.286Z</time></trkpt><trkpt lat="34.8243583" lon="10.64105"><ele>78.5</ele><time>2026-04-04T18:32:03.282Z</time></trkpt><trkpt lat="34.8241533" lon="10.64074"><ele>79.0</ele><time>2026-04-04T18:32:04.282Z</time></trkpt><trkpt lat="34.8239517" lon="10.6404317"><ele>81.0</ele><time>2026-04-04T18:32:05.282Z</time></trkpt><trkpt lat="34.82375" lon="10.640125"><ele>83.0</ele><time>2026-04-04T18:32:06.282Z</time></trkpt><trkpt lat="34.82355" lon="10.6398183"><ele>82.0</ele><time>2026-04-04T18:32:07.282Z</time></trkpt><trkpt lat="34.8233483" lon="10.6395133"><ele>81.0</ele><time>2026-04-04T18:32:08.283Z</time></trkpt><trkpt lat="34.823145" lon="10.6392083"><ele>81.0</ele><time>2026-04-04T18:32:09.283Z</time></trkpt><trkpt lat="34.8229383" lon="10.6389067"><ele>81.0</ele><time>2026-04-04T18:32:10.282Z</time></trkpt><trkpt lat="34.82273" lon="10.6386033"><ele>80.5</ele><time>2026-04-04T18:32:11.285Z</time></trkpt><trkpt lat="34.822515" lon="10.6383017"><ele>80.0</ele><time>2026-04-04T18:32:12.285Z</time></trkpt><trkpt lat="34.8222933" lon="10.638"><ele>81.5</ele><time>2026-04-04T18:32:13.285Z</time></trkpt><trkpt lat="34.82207" lon="10.6377017"><ele>83.0</ele><time>2026-04-04T18:32:14.285Z</time></trkpt><trkpt lat="34.8218367" lon="10.637405"><ele>83.0</ele><time>2026-04-04T18:32:15.285Z</time></trkpt><trkpt lat="34.8215983" lon="10.63711"><ele>83.0</ele><time>2026-04-04T18:32:16.284Z</time></trkpt><trkpt lat="34.8213567" lon="10.636815"><ele>83.0</ele><time>2026-04-04T18:32:17.282Z</time></trkpt><trkpt lat="34.8211117" lon="10.636525"><ele>83.0</ele><time>2026-04-04T18:32:18.285Z</time></trkpt><trkpt lat="34.8208617" lon="10.63624"><ele>84.0</ele><time>2026-04-04T18:32:19.284Z</time></trkpt><trkpt lat="34.8206083" lon="10.6359583"><ele>85.0</ele><time>2026-04-04T18:32:20.286Z</time></trkpt><trkpt lat="34.8203517" lon="10.6356783"><ele>84.5</ele><time>2026-04-04T18:32:21.285Z</time></trkpt><trkpt lat="34.82009" lon="10.635405"><ele>84.0</ele><time>2026-04-04T18:32:22.284Z</time></trkpt><trkpt lat="34.8198283" lon="10.6351367"><ele>85.0</ele><time>2026-04-04T18:32:23.284Z</time></trkpt><trkpt lat="34.81957" lon="10.6348783"><ele>86.0</ele><time>2026-04-04T18:32:24.287Z</time></trkpt><trkpt lat="34.819315" lon="10.63463"><ele>86.5</ele><time>2026-04-04T18:32:25.284Z</time></trkpt><trkpt lat="34.8190583" lon="10.63439"><ele>87.0</ele><time>2026-04-04T18:32:26.285Z</time></trkpt><trkpt lat="34.8188017" lon="10.6341583"><ele>87.0</ele><time>2026-04-04T18:32:27.285Z</time></trkpt><trkpt lat="34.8185433" lon="10.63393"><ele>87.0</ele><time>2026-04-04T18:32:28.284Z</time></trkpt><trkpt lat="34.8182833" lon="10.6337033"><ele>88.5</ele><time>2026-04-04T18:32:29.283Z</time></trkpt><trkpt lat="34.81802" lon="10.63348"><ele>90.0</ele><time>2026-04-04T18:32:30.286Z</time></trkpt><trkpt lat="34.8177567" lon="10.6332583"><ele>90.0</ele><time>2026-04-04T18:32:31.284Z</time></trkpt><trkpt lat="34.81749" lon="10.6330417"><ele>90.0</ele><time>2026-04-04T18:32:32.281Z</time></trkpt><trkpt lat="34.8172217" lon="10.63283"><ele>90.0</ele><time>2026-04-04T18:32:33.282Z</time></trkpt><trkpt lat="34.8169483" lon="10.632625"><ele>90.0</ele><time>2026-04-04T18:32:34.282Z</time></trkpt><trkpt lat="34.816675" lon="10.6324233"><ele>90.0</ele><time>2026-04-04T18:32:35.282Z</time></trkpt><trkpt lat="34.8164" lon="10.632225"><ele>90.0</ele><time>2026-04-04T18:32:36.282Z</time></trkpt><trkpt lat="34.8161233" lon="10.63203"><ele>89.5</ele><time>2026-04-04T18:32:37.283Z</time></trkpt><trkpt lat="34.8158417" lon="10.6318333"><ele>89.0</ele><time>2026-04-04T18:32:38.282Z</time></trkpt><trkpt lat="34.81556" lon="10.6316367"><ele>89.0</ele><time>2026-04-04T18:32:39.282Z</time></trkpt><trkpt lat="34.815275" lon="10.6314417"><ele>89.0</ele><time>2026-04-04T18:32:40.286Z</time></trkpt><trkpt lat="34.81499" lon="10.6312417"><ele>89.5</ele><time>2026-04-04T18:32:41.285Z</time></trkpt><trkpt lat="34.814705" lon="10.631045"><ele>90.0</ele><time>2026-04-04T18:32:42.285Z</time></trkpt><trkpt lat="34.81442" lon="10.63085"><ele>89.5</ele><time>2026-04-04T18:32:43.284Z</time></trkpt><trkpt lat="34.8141367" lon="10.630655"><ele>89.0</ele><time>2026-04-04T18:32:44.285Z</time></trkpt><trkpt lat="34.8138533" lon="10.630465"><ele>90.0</ele><time>2026-04-04T18:32:45.285Z</time></trkpt><trkpt lat="34.8135717" lon="10.630275"><ele>91.0</ele><time>2026-04-04T18:32:46.284Z</time></trkpt><trkpt lat="34.81329" lon="10.630085"><ele>91.0</ele><time>2026-04-04T18:32:47.284Z</time></trkpt><trkpt lat="34.81301" lon="10.6298967"><ele>91.0</ele><time>2026-04-04T18:32:48.285Z</time></trkpt><trkpt lat="34.81273" lon="10.6297083"><ele>91.5</ele><time>2026-04-04T18:32:49.286Z</time></trkpt><trkpt lat="34.81245" lon="10.62952"><ele>92.0</ele><time>2026-04-04T18:32:50.286Z</time></trkpt><trkpt lat="34.8121733" lon="10.62933"><ele>92.5</ele><time>2026-04-04T18:32:51.286Z</time></trkpt><trkpt lat="34.811895" lon="10.6291417"><ele>93.0</ele><time>2026-04-04T18:32:52.284Z</time></trkpt><trkpt lat="34.8116167" lon="10.6289517"><ele>93.0</ele><time>2026-04-04T18:32:53.285Z</time></trkpt><trkpt lat="34.811335" lon="10.62876"><ele>93.0</ele><time>2026-04-04T18:32:54.285Z</time></trkpt><trkpt lat="34.8110533" lon="10.6285683"><ele>92.0</ele><time>2026-04-04T18:32:55.284Z</time></trkpt><trkpt lat="34.8107717" lon="10.6283783"><ele>91.0</ele><time>2026-04-04T18:32:56.285Z</time></trkpt><trkpt lat="34.81049" lon="10.6281883"><ele>91.0</ele><time>2026-04-04T18:32:57.285Z</time></trkpt><trkpt lat="34.8102083" lon="10.6279983"><ele>91.0</ele><time>2026-04-04T18:32:58.285Z</time></trkpt><trkpt lat="34.809925" lon="10.6278083"><ele>89.5</ele><time>2026-04-04T18:32:59.286Z</time></trkpt><trkpt lat="34.80964" lon="10.627615"><ele>88.0</ele><time>2026-04-04T18:33:00.285Z</time></trkpt><trkpt lat="34.8093533" lon="10.6274217"><ele>86.0</ele><time>2026-04-04T18:33:01.285Z</time></trkpt><trkpt lat="34.8090667" lon="10.6272317"><ele>84.0</ele><time>2026-04-04T18:33:02.285Z</time></trkpt><trkpt lat="34.8087833" lon="10.6270383"><ele>84.0</ele><time>2026-04-04T18:33:03.282Z</time></trkpt><trkpt lat="34.8085" lon="10.6268467"><ele>84.0</ele><time>2026-04-04T18:33:04.283Z</time></trkpt><trkpt lat="34.8082183" lon="10.6266567"><ele>83.0</ele><time>2026-04-04T18:33:05.282Z</time></trkpt><trkpt lat="34.8079383" lon="10.6264683"><ele>82.0</ele><time>2026-04-04T18:33:06.283Z</time></trkpt><trkpt lat="34.80766" lon="10.62628"><ele>81.0</ele><time>2026-04-04T18:33:07.282Z</time></trkpt><trkpt lat="34.8073833" lon="10.6260917"><ele>80.0</ele><time>2026-04-04T18:33:08.283Z</time></trkpt><trkpt lat="34.8071067" lon="10.6259033"><ele>80.0</ele><time>2026-04-04T18:33:09.284Z</time></trkpt><trkpt lat="34.8068317" lon="10.6257167"><ele>80.0</ele><time>2026-04-04T18:33:10.285Z</time></trkpt><trkpt lat="34.8065583" lon="10.625535"><ele>80.0</ele><time>2026-04-04T18:33:11.284Z</time></trkpt><trkpt lat="34.8062883" lon="10.6253583"><ele>80.0</ele><time>2026-04-04T18:33:12.285Z</time></trkpt><trkpt lat="34.80602" lon="10.6251833"><ele>80.5</ele><time>2026-04-04T18:33:13.285Z</time></trkpt><trkpt lat="34.8057517" lon="10.625005"><ele>81.0</ele><time>2026-04-04T18:33:14.284Z</time></trkpt><trkpt lat="34.805485" lon="10.6248217"><ele>81.0</ele><time>2026-04-04T18:33:15.286Z</time></trkpt><trkpt lat="34.805215" lon="10.6246433"><ele>81.0</ele><time>2026-04-04T18:33:16.286Z</time></trkpt><trkpt lat="34.8049467" lon="10.6244567"><ele>80.5</ele><time>2026-04-04T18:33:17.285Z</time></trkpt><trkpt lat="34.8046833" lon="10.624275"><ele>80.0</ele><time>2026-04-04T18:33:18.286Z</time></trkpt><trkpt lat="34.80442" lon="10.624095"><ele>79.5</ele><time>2026-04-04T18:33:19.285Z</time></trkpt><trkpt lat="34.8041583" lon="10.6239183"><ele>79.0</ele><time>2026-04-04T18:33:20.285Z</time></trkpt><trkpt lat="34.803895" lon="10.6237433"><ele>77.5</ele><time>2026-04-04T18:33:21.285Z</time></trkpt><trkpt lat="34.803635" lon="10.6235667"><ele>76.0</ele><time>2026-04-04T18:33:22.285Z</time></trkpt><trkpt lat="34.8033733" lon="10.6233883"><ele>76.0</ele><time>2026-04-04T18:33:23.287Z</time></trkpt><trkpt lat="34.8031117" lon="10.623215"><ele>76.0</ele><time>2026-04-04T18:33:24.285Z</time></trkpt><trkpt lat="34.80285" lon="10.6230383"><ele>76.0</ele><time>2026-04-04T18:33:25.285Z</time></trkpt><trkpt lat="34.8025867" lon="10.6228617"><ele>76.0</ele><time>2026-04-04T18:33:26.284Z</time></trkpt><trkpt lat="34.8023167" lon="10.6226833"><ele>76.5</ele><time>2026-04-04T18:33:27.285Z</time></trkpt><trkpt lat="34.8020467" lon="10.6225033"><ele>77.0</ele><time>2026-04-04T18:33:28.285Z</time></trkpt><trkpt lat="34.801775" lon="10.6223217"><ele>77.5</ele><time>2026-04-04T18:33:29.285Z</time></trkpt><trkpt lat="34.801505" lon="10.6221367"><ele>78.0</ele><time>2026-04-04T18:33:30.286Z</time></trkpt><trkpt lat="34.8012333" lon="10.6219533"><ele>79.5</ele><time>2026-04-04T18:33:31.286Z</time></trkpt><trkpt lat="34.8009617" lon="10.62177"><ele>81.0</ele><time>2026-04-04T18:33:32.285Z</time></trkpt><trkpt lat="34.8006917" lon="10.6215883"><ele>81.0</ele><time>2026-04-04T18:33:33.282Z</time></trkpt><trkpt lat="34.8004233" lon="10.6214067"><ele>81.0</ele><time>2026-04-04T18:33:34.282Z</time></trkpt><trkpt lat="34.8001617" lon="10.6212267"><ele>81.0</ele><time>2026-04-04T18:33:35.282Z</time></trkpt><trkpt lat="34.7999" lon="10.62105"><ele>81.0</ele><time>2026-04-04T18:33:36.283Z</time></trkpt><trkpt lat="34.79964" lon="10.6208733"><ele>81.0</ele><time>2026-04-04T18:33:37.282Z</time></trkpt><trkpt lat="34.7993783" lon="10.620695"><ele>81.0</ele><time>2026-04-04T18:33:38.282Z</time></trkpt><trkpt lat="34.79912" lon="10.62052"><ele>80.5</ele><time>2026-04-04T18:33:39.285Z</time></trkpt><trkpt lat="34.7988617" lon="10.62035"><ele>80.0</ele><time>2026-04-04T18:33:40.282Z</time></trkpt><trkpt lat="34.7986067" lon="10.6201817"><ele>81.0</ele><time>2026-04-04T18:33:41.283Z</time></trkpt><trkpt lat="34.798355" lon="10.6200117"><ele>82.0</ele><time>2026-04-04T18:33:42.285Z</time></trkpt><trkpt lat="34.7981033" lon="10.6198417"><ele>82.0</ele><time>2026-04-04T18:33:43.286Z</time></trkpt><trkpt lat="34.7978533" lon="10.6196733"><ele>82.0</ele><time>2026-04-04T18:33:44.282Z</time></trkpt><trkpt lat="34.7976067" lon="10.619505"><ele>83.0</ele><time>2026-04-04T18:33:45.286Z</time></trkpt><trkpt lat="34.7973617" lon="10.61934"><ele>84.0</ele><time>2026-04-04T18:33:46.285Z</time></trkpt><trkpt lat="34.797115" lon="10.619175"><ele>84.0</ele><time>2026-04-04T18:33:47.286Z</time></trkpt><trkpt lat="34.79687" lon="10.6190117"><ele>84.0</ele><time>2026-04-04T18:33:48.285Z</time></trkpt><trkpt lat="34.7966217" lon="10.618845"><ele>85.0</ele><time>2026-04-04T18:33:49.285Z</time></trkpt><trkpt lat="34.7963717" lon="10.6186783"><ele>86.0</ele><time>2026-04-04T18:33:50.287Z</time></trkpt><trkpt lat="34.7961267" lon="10.6185117"><ele>86.0</ele><time>2026-04-04T18:33:51.285Z</time></trkpt><trkpt lat="34.7958783" lon="10.618345"><ele>86.0</ele><time>2026-04-04T18:33:52.285Z</time></trkpt><trkpt lat="34.7956267" lon="10.618175"><ele>86.0</ele><time>2026-04-04T18:33:53.285Z</time></trkpt><trkpt lat="34.7953733" lon="10.6180083"><ele>86.0</ele><time>2026-04-04T18:33:54.283Z</time></trkpt><trkpt lat="34.7951167" lon="10.61784"><ele>87.0</ele><time>2026-04-04T18:33:55.286Z</time></trkpt><trkpt lat="34.79486" lon="10.6176767"><ele>88.0</ele><time>2026-04-04T18:33:56.286Z</time></trkpt><trkpt lat="34.7946033" lon="10.617515"><ele>88.0</ele><time>2026-04-04T18:33:57.288Z</time></trkpt><trkpt lat="34.794345" lon="10.6173583"><ele>88.0</ele><time>2026-04-04T18:33:58.286Z</time></trkpt><trkpt lat="34.7940883" lon="10.6172083"><ele>88.5</ele><time>2026-04-04T18:33:59.285Z</time></trkpt><trkpt lat="34.7938333" lon="10.61706"><ele>89.0</ele><time>2026-04-04T18:34:00.287Z</time></trkpt><trkpt lat="34.7935817" lon="10.6169217"><ele>88.5</ele><time>2026-04-04T18:34:01.286Z</time></trkpt><trkpt lat="34.79333" lon="10.6167867"><ele>88.0</ele><time>2026-04-04T18:34:02.285Z</time></trkpt><trkpt lat="34.7930817" lon="10.61665"><ele>88.0</ele><time>2026-04-04T18:34:03.287Z</time></trkpt><trkpt lat="34.7928383" lon="10.61652"><ele>88.0</ele><time>2026-04-04T18:34:04.286Z</time></trkpt><trkpt lat="34.792595" lon="10.616395"><ele>87.0</ele><time>2026-04-04T18:34:05.285Z</time></trkpt><trkpt lat="34.79235" lon="10.616275"><ele>86.0</ele><time>2026-04-04T18:34:06.284Z</time></trkpt><trkpt lat="34.792105" lon="10.616155"><ele>86.5</ele><time>2026-04-04T18:34:07.282Z</time></trkpt><trkpt lat="34.79186" lon="10.6160417"><ele>87.0</ele><time>2026-04-04T18:34:08.285Z</time></trkpt><trkpt lat="34.79161" lon="10.61593"><ele>84.5</ele><time>2026-04-04T18:34:09.283Z</time></trkpt><trkpt lat="34.7913583" lon="10.61582"><ele>82.0</ele><time>2026-04-04T18:34:10.283Z</time></trkpt><trkpt lat="34.791105" lon="10.6157083"><ele>81.0</ele><time>2026-04-04T18:34:11.287Z</time></trkpt><trkpt lat="34.7908517" lon="10.6155983"><ele>80.0</ele><time>2026-04-04T18:34:12.285Z</time></trkpt><trkpt lat="34.7905967" lon="10.61549"><ele>80.0</ele><time>2026-04-04T18:34:13.285Z</time></trkpt><trkpt lat="34.79034" lon="10.6153917"><ele>80.0</ele><time>2026-04-04T18:34:14.283Z</time></trkpt><trkpt lat="34.7900833" lon="10.6153"><ele>79.0</ele><time>2026-04-04T18:34:15.285Z</time></trkpt><trkpt lat="34.78983" lon="10.61521"><ele>78.0</ele><time>2026-04-04T18:34:16.284Z</time></trkpt><trkpt lat="34.7895783" lon="10.615125"><ele>77.5</ele><time>2026-04-04T18:34:17.284Z</time></trkpt><trkpt lat="34.7893283" lon="10.6150417"><ele>77.0</ele><time>2026-04-04T18:34:18.284Z</time></trkpt><trkpt lat="34.7890767" lon="10.6149583"><ele>77.0</ele><time>2026-04-04T18:34:19.284Z</time></trkpt><trkpt lat="34.7888233" lon="10.61488"><ele>77.0</ele><time>2026-04-04T18:34:20.283Z</time></trkpt><trkpt lat="34.78857" lon="10.6148067"><ele>76.0</ele><time>2026-04-04T18:34:21.285Z</time></trkpt><trkpt lat="34.7883117" lon="10.6147367"><ele>75.0</ele><time>2026-04-04T18:34:22.284Z</time></trkpt><trkpt lat="34.788055" lon="10.6146683"><ele>75.0</ele><time>2026-04-04T18:34:23.285Z</time></trkpt><trkpt lat="34.7877983" lon="10.6146017"><ele>75.0</ele><time>2026-04-04T18:34:24.284Z</time></trkpt><trkpt lat="34.7875417" lon="10.6145367"><ele>75.0</ele><time>2026-04-04T18:34:25.285Z</time></trkpt><trkpt lat="34.7872833" lon="10.61447"><ele>75.0</ele><time>2026-04-04T18:34:26.283Z</time></trkpt><trkpt lat="34.787025" lon="10.6144033"><ele>75.0</ele><time>2026-04-04T18:34:27.285Z</time></trkpt><trkpt lat="34.78677" lon="10.6143383"><ele>75.0</ele><time>2026-04-04T18:34:28.285Z</time></trkpt><trkpt lat="34.786515" lon="10.614275"><ele>75.0</ele><time>2026-04-04T18:34:29.285Z</time></trkpt><trkpt lat="34.7862583" lon="10.6142133"><ele>75.0</ele><time>2026-04-04T18:34:30.285Z</time></trkpt><trkpt lat="34.7860033" lon="10.61415"><ele>76.0</ele><time>2026-04-04T18:34:31.285Z</time></trkpt><trkpt lat="34.7857483" lon="10.6140883"><ele>77.0</ele><time>2026-04-04T18:34:32.285Z</time></trkpt><trkpt lat="34.7854967" lon="10.6140233"><ele>77.0</ele><time>2026-04-04T18:34:33.285Z</time></trkpt><trkpt lat="34.7852483" lon="10.61396"><ele>77.0</ele><time>2026-04-04T18:34:34.286Z</time></trkpt><trkpt lat="34.785" lon="10.6138933"><ele>78.0</ele><time>2026-04-04T18:34:35.285Z</time></trkpt><trkpt lat="34.78475" lon="10.61383"><ele>79.0</ele><time>2026-04-04T18:34:36.285Z</time></trkpt><trkpt lat="34.7845" lon="10.6137667"><ele>79.0</ele><time>2026-04-04T18:34:37.285Z</time></trkpt><trkpt lat="34.7842517" lon="10.6137017"><ele>79.0</ele><time>2026-04-04T18:34:38.286Z</time></trkpt><trkpt lat="34.7840017" lon="10.6136367"><ele>79.0</ele><time>2026-04-04T18:34:39.282Z</time></trkpt><trkpt lat="34.7837517" lon="10.6135767"><ele>79.0</ele><time>2026-04-04T18:34:40.286Z</time></trkpt><trkpt lat="34.7834983" lon="10.6135117"><ele>78.5</ele><time>2026-04-04T18:34:41.285Z</time></trkpt><trkpt lat="34.783245" lon="10.6134483"><ele>78.0</ele><time>2026-04-04T18:34:42.286Z</time></trkpt><trkpt lat="34.78299" lon="10.6133833"><ele>78.0</ele><time>2026-04-04T18:34:43.285Z</time></trkpt><trkpt lat="34.782735" lon="10.61332"><ele>78.0</ele><time>2026-04-04T18:34:44.282Z</time></trkpt><trkpt lat="34.78248" lon="10.613255"><ele>76.5</ele><time>2026-04-04T18:34:45.282Z</time></trkpt><trkpt lat="34.7822217" lon="10.6131917"><ele>75.0</ele><time>2026-04-04T18:34:46.282Z</time></trkpt><trkpt lat="34.78196" lon="10.6131283"><ele>73.5</ele><time>2026-04-04T18:34:47.283Z</time></trkpt><trkpt lat="34.7816967" lon="10.61306"><ele>72.0</ele><time>2026-04-04T18:34:48.282Z</time></trkpt><trkpt lat="34.781435" lon="10.6129883"><ele>72.0</ele><time>2026-04-04T18:34:49.285Z</time></trkpt><trkpt lat="34.7811683" lon="10.61292"><ele>72.0</ele><time>2026-04-04T18:34:50.281Z</time></trkpt><trkpt lat="34.7809017" lon="10.6128517"><ele>70.5</ele><time>2026-04-04T18:34:51.281Z</time></trkpt><trkpt lat="34.78063" lon="10.612785"><ele>69.0</ele><time>2026-04-04T18:34:52.284Z</time></trkpt><trkpt lat="34.7803567" lon="10.6127183"><ele>70.5</ele><time>2026-04-04T18:34:53.281Z</time></trkpt><trkpt lat="34.780085" lon="10.6126517"><ele>72.0</ele><time>2026-04-04T18:34:54.282Z</time></trkpt><trkpt lat="34.7798117" lon="10.6125817"><ele>72.0</ele><time>2026-04-04T18:34:55.285Z</time></trkpt><trkpt lat="34.7795383" lon="10.612515"><ele>72.0</ele><time>2026-04-04T18:34:56.284Z</time></trkpt><trkpt lat="34.7792633" lon="10.6124467"><ele>71.0</ele><time>2026-04-04T18:34:57.284Z</time></trkpt><trkpt lat="34.7789883" lon="10.6123783"><ele>70.0</ele><time>2026-04-04T18:34:58.284Z</time></trkpt><trkpt lat="34.7787133" lon="10.61231"><ele>69.5</ele><time>2026-04-04T18:34:59.284Z</time></trkpt><trkpt lat="34.778435" lon="10.6122383"><ele>69.0</ele><time>2026-04-04T18:35:00.284Z</time></trkpt><trkpt lat="34.7781633" lon="10.61217"><ele>69.0</ele><time>2026-04-04T18:35:01.284Z</time></trkpt><trkpt lat="34.777895" lon="10.6121"><ele>69.0</ele><time>2026-04-04T18:35:02.285Z</time></trkpt><trkpt lat="34.7776317" lon="10.6120283"><ele>69.0</ele><time>2026-04-04T18:35:03.284Z</time></trkpt><trkpt lat="34.7773817" lon="10.6119667"><ele>69.0</ele><time>2026-04-04T18:35:04.281Z</time></trkpt><trkpt lat="34.7771483" lon="10.6119067"><ele>69.0</ele><time>2026-04-04T18:35:05.281Z</time></trkpt><trkpt lat="34.7769267" lon="10.6118533"><ele>69.0</ele><time>2026-04-04T18:35:06.284Z</time></trkpt><trkpt lat="34.7767167" lon="10.6118017"><ele>69.0</ele><time>2026-04-04T18:35:07.281Z</time></trkpt><trkpt lat="34.77652" lon="10.6117517"><ele>69.33333333333333</ele><time>2026-04-04T18:35:08.282Z</time></trkpt><trkpt lat="34.7763333" lon="10.6117033"><ele>69.66666666666666</ele><time>2026-04-04T18:35:09.282Z</time></trkpt><trkpt lat="34.7761517" lon="10.6116533"><ele>70.0</ele><time>2026-04-04T18:35:10.285Z</time></trkpt><trkpt lat="34.7759717" lon="10.611605"><ele>70.33333333333333</ele><time>2026-04-04T18:35:11.285Z</time></trkpt><trkpt lat="34.7758017" lon="10.61156"><ele>70.66666666666667</ele><time>2026-04-04T18:35:12.284Z</time></trkpt><trkpt lat="34.7756417" lon="10.611515"><ele>71.0</ele><time>2026-04-04T18:35:13.284Z</time></trkpt><trkpt lat="34.7754883" lon="10.611475"><ele>71.0</ele><time>2026-04-04T18:35:14.281Z</time></trkpt><trkpt lat="34.7753417" lon="10.6114317"><ele>71.0</ele><time>2026-04-04T18:35:15.284Z</time></trkpt><trkpt lat="34.775205" lon="10.6113867"><ele>71.0</ele><time>2026-04-04T18:35:16.284Z</time></trkpt><trkpt lat="34.7750783" lon="10.6113367"><ele>71.0</ele><time>2026-04-04T18:35:17.282Z</time></trkpt><trkpt lat="34.7749617" lon="10.6112817"><ele>70.6</ele><time>2026-04-04T18:35:18.286Z</time></trkpt><trkpt lat="34.7748567" lon="10.6112217"><ele>70.19999999999999</ele><time>2026-04-04T18:35:19.284Z</time></trkpt><trkpt lat="34.7747617" lon="10.6111567"><ele>69.80000000000001</ele><time>2026-04-04T18:35:20.281Z</time></trkpt><trkpt lat="34.7746783" lon="10.6110817"><ele>69.4</ele><time>2026-04-04T18:35:21.285Z</time></trkpt><trkpt lat="34.7746033" lon="10.610995"><ele>69.0</ele><time>2026-04-04T18:35:22.284Z</time></trkpt><trkpt lat="34.774535" lon="10.6108967"><ele>69.0</ele><time>2026-04-04T18:35:23.285Z</time></trkpt><trkpt lat="34.7744733" lon="10.6107967"><ele>69.0</ele><time>2026-04-04T18:35:24.284Z</time></trkpt><trkpt lat="34.7744233" lon="10.6107"><ele>69.0</ele><time>2026-04-04T18:35:25.284Z</time></trkpt><trkpt lat="34.774375" lon="10.61061"><ele>69.0</ele><time>2026-04-04T18:35:26.284Z</time></trkpt><trkpt lat="34.7743267" lon="10.61052"><ele>69.0</ele><time>2026-04-04T18:35:27.284Z</time></trkpt><trkpt lat="34.7742767" lon="10.6104367"><ele>69.4</ele><time>2026-04-04T18:35:28.284Z</time></trkpt><trkpt lat="34.774225" lon="10.610365"><ele>69.80000000000001</ele><time>2026-04-04T18:35:29.284Z</time></trkpt><trkpt lat="34.774175" lon="10.6103067"><ele>70.19999999999999</ele><time>2026-04-04T18:35:30.285Z</time></trkpt><trkpt lat="34.77407" lon="10.6102483"><ele>70.6</ele><time>2026-04-04T18:35:32.284Z</time></trkpt><trkpt lat="34.7739733" lon="10.6102267"><ele>71.0</ele><time>2026-04-04T18:35:34.282Z</time></trkpt><trkpt lat="34.773885" lon="10.61022"><ele>71.16666666666667</ele><time>2026-04-04T18:35:36.283Z</time></trkpt><trkpt lat="34.773805" lon="10.610215"><ele>71.33333333333334</ele><time>2026-04-04T18:35:38.282Z</time></trkpt><trkpt lat="34.7737283" lon="10.6102067"><ele>71.5</ele><time>2026-04-04T18:35:41.285Z</time></trkpt><trkpt lat="34.7736483" lon="10.610195"><ele>71.66666666666667</ele><time>2026-04-04T18:53:12.286Z</time></trkpt><trkpt lat="34.773605" lon="10.6101133"><ele>71.83333333333333</ele><time>2026-04-04T18:53:16.285Z</time></trkpt><trkpt lat="34.7735817" lon="10.61003"><ele>72.0</ele><time>2026-04-04T18:53:20.283Z</time></trkpt><trkpt lat="34.7735367" lon="10.6099733"><ele>72.2</ele><time>2026-04-04T18:53:23.285Z</time></trkpt><trkpt lat="34.7734483" lon="10.609955"><ele>72.4</ele><time>2026-04-04T18:53:26.285Z</time></trkpt><trkpt lat="34.7733283" lon="10.6099167"><ele>72.6</ele><time>2026-04-04T18:53:28.286Z</time></trkpt><trkpt lat="34.77326" lon="10.6099"><ele>72.8</ele><time>2026-04-04T18:53:29.285Z</time></trkpt><trkpt lat="34.7731483" lon="10.6098817"><ele>73.0</ele><time>2026-04-04T18:53:31.286Z</time></trkpt><trkpt lat="34.7730633" lon="10.6098767"><ele>73.0</ele><time>2026-04-04T18:53:33.285Z</time></trkpt><trkpt lat="34.7729983" lon="10.6098817"><ele>73.0</ele><time>2026-04-04T18:53:35.285Z</time></trkpt><trkpt lat="34.772935" lon="10.609895"><ele>73.0</ele><time>2026-04-04T18:53:37.285Z</time></trkpt><trkpt lat="34.7728667" lon="10.609905"><ele>73.0</ele><time>2026-04-04T18:53:39.286Z</time></trkpt><trkpt lat="34.772795" lon="10.609905"><ele>73.0</ele><time>2026-04-04T18:53:41.286Z</time></trkpt><trkpt lat="34.7727167" lon="10.6098933"><ele>73.0</ele><time>2026-04-04T18:53:43.285Z</time></trkpt><trkpt lat="34.7726417" lon="10.6098733"><ele>73.0</ele><time>2026-04-04T18:53:45.286Z</time></trkpt><trkpt lat="34.7725783" lon="10.6098517"><ele>73.0</ele><time>2026-04-04T18:53:47.285Z</time></trkpt><trkpt lat="34.7724983" lon="10.609825"><ele>73.0</ele><time>2026-04-04T18:53:50.285Z</time></trkpt><trkpt lat="34.772405" lon="10.6098067"><ele>73.0</ele><time>2026-04-04T18:53:53.285Z</time></trkpt><trkpt lat="34.7723183" lon="10.6097917"><ele>73.0</ele><time>2026-04-04T18:53:56.285Z</time></trkpt><trkpt lat="34.77223" lon="10.60977"><ele>73.0</ele><time>2026-04-04T18:53:59.285Z</time></trkpt><trkpt lat="34.7721583" lon="10.6097667"><ele>73.0</ele><time>2026-04-04T18:54:01.287Z</time></trkpt><trkpt lat="34.7720767" lon="10.6098033"><ele>73.0</ele><time>2026-04-04T18:54:04.281Z</time></trkpt><trkpt lat="34.77203" lon="10.60986"><ele>73.0</ele><time>2026-04-04T18:54:07.283Z</time></trkpt><trkpt lat="34.7720117" lon="10.6099633"><ele>73.0</ele><time>2026-04-04T18:54:25.282Z</time></trkpt><trkpt lat="34.7720483" lon="10.6100417"><ele>73.0</ele><time>2026-04-04T18:54:27.282Z</time></trkpt><trkpt lat="34.7721167" lon="10.61012"><ele>73.0</ele><time>2026-04-04T18:54:29.282Z</time></trkpt><trkpt lat="34.7721983" lon="10.6101667"><ele>73.0</ele><time>2026-04-04T18:54:31.281Z</time></trkpt><trkpt lat="34.772265" lon="10.6101683"><ele>73.0</ele><time>2026-04-04T18:54:33.283Z</time></trkpt><trkpt lat="34.772355" lon="10.61013"><ele>73.0</ele><time>2026-04-04T18:55:48.285Z</time></trkpt><trkpt lat="34.77245" lon="10.61012"><ele>73.0</ele><time>2026-04-04T18:55:50.284Z</time></trkpt><trkpt lat="34.7725583" lon="10.6101483"><ele>73.0</ele><time>2026-04-04T18:55:52.285Z</time></trkpt><trkpt lat="34.7726617" lon="10.6101767"><ele>73.0</ele><time>2026-04-04T18:55:54.285Z</time></trkpt><trkpt lat="34.7727417" lon="10.610195"><ele>73.0</ele><time>2026-04-04T18:55:56.283Z</time></trkpt><trkpt lat="34.772815" lon="10.610225"><ele>73.0</ele><time>2026-04-04T18:55:59.284Z</time></trkpt><trkpt lat="34.772865" lon="10.6102817"><ele>73.0</ele><time>2026-04-04T18:56:02.285Z</time></trkpt><trkpt lat="34.77292" lon="10.6103217"><ele>73.0</ele><time>2026-04-04T18:56:05.283Z</time></trkpt><trkpt lat="34.772985" lon="10.61033"><ele>73.0</ele><time>2026-04-04T18:56:08.283Z</time></trkpt><trkpt lat="34.773055" lon="10.6103233"><ele>73.0</ele><time>2026-04-04T18:56:12.285Z</time></trkpt><trkpt lat="34.7730367" lon="10.6102483"><ele>73.0</ele><time>2026-04-04T18:56:16.285Z</time></trkpt><trkpt lat="34.7729467" lon="10.61027"><ele>73.0</ele><time>2026-04-04T18:56:19.282Z</time></trkpt><trkpt lat="34.7728783" lon="10.6102783"><ele>73.0</ele><time>2026-04-04T18:56:22.285Z</time></trkpt><trkpt lat="34.77297" lon="10.6102833"><ele>73.0</ele><time>2026-04-04T18:59:29.285Z</time></trkpt><trkpt lat="34.7730367" lon="10.6103117"><ele>73.0</ele><time>2026-04-04T18:59:30.282Z</time></trkpt><trkpt lat="34.7731017" lon="10.6103283"><ele>73.0</ele><time>2026-04-04T18:59:31.286Z</time></trkpt><trkpt lat="34.7731733" lon="10.6103417"><ele>73.0</ele><time>2026-04-04T18:59:32.284Z</time></trkpt><trkpt lat="34.7732483" lon="10.6103583"><ele>73.0</ele><time>2026-04-04T18:59:33.285Z</time></trkpt><trkpt lat="34.7733133" lon="10.6103733"><ele>73.0</ele><time>2026-04-04T18:59:34.284Z</time></trkpt><trkpt lat="34.7733867" lon="10.6103883"><ele>73.0</ele><time>2026-04-04T18:59:36.286Z</time></trkpt><trkpt lat="34.7733967" lon="10.61031"><ele>73.0</ele><time>2026-04-04T18:59:40.286Z</time></trkpt><trkpt lat="34.77329" lon="10.6102833"><ele>73.0</ele><time>2026-04-04T18:59:42.285Z</time></trkpt><trkpt lat="34.773205" lon="10.6102833"><ele>73.0</ele><time>2026-04-04T18:59:43.285Z</time></trkpt><trkpt lat="34.7731067" lon="10.610275"><ele>73.0</ele><time>2026-04-04T18:59:44.286Z</time></trkpt><trkpt lat="34.7730083" lon="10.61026"><ele>73.0</ele><time>2026-04-04T18:59:45.282Z</time></trkpt><trkpt lat="34.7729017" lon="10.6102417"><ele>73.0</ele><time>2026-04-04T18:59:46.284Z</time></trkpt><trkpt lat="34.7727933" lon="10.6102183"><ele>73.0</ele><time>2026-04-04T18:59:47.286Z</time></trkpt><trkpt lat="34.77269" lon="10.61019"><ele>73.0</ele><time>2026-04-04T18:59:48.285Z</time></trkpt><trkpt lat="34.7726017" lon="10.6101633"><ele>73.0</ele><time>2026-04-04T18:59:49.285Z</time></trkpt><trkpt lat="34.772525" lon="10.61014"><ele>73.0</ele><time>2026-04-04T18:59:50.282Z</time></trkpt><trkpt lat="34.7724633" lon="10.6101117"><ele>73.0</ele><time>2026-04-04T18:59:51.287Z</time></trkpt><trkpt lat="34.7723683" lon="10.6100217"><ele>73.0</ele><time>2026-04-04T18:59:53.285Z</time></trkpt><trkpt lat="34.7723283" lon="10.6099517"><ele>73.0</ele><time>2026-04-04T18:59:54.285Z</time></trkpt><trkpt lat="34.7722867" lon="10.6098783"><ele>73.0</ele><time>2026-04-04T18:59:55.282Z</time></trkpt><trkpt lat="34.7722417" lon="10.6098233"><ele>73.0</ele><time>2026-04-04T18:59:56.285Z</time></trkpt><trkpt lat="34.772145" lon="10.6097833"><ele>73.0</ele><time>2026-04-04T18:59:58.285Z</time></trkpt><trkpt lat="34.7720217" lon="10.60984"><ele>73.0</ele><time>2026-04-04T19:00:00.285Z</time></trkpt><trkpt lat="34.7719383" lon="10.6098983"><ele>73.0</ele><time>2026-04-04T19:00:01.285Z</time></trkpt><trkpt lat="34.7718167" lon="10.6099817"><ele>73.0</ele><time>2026-04-04T19:00:02.285Z</time></trkpt><trkpt lat="34.7716883" lon="10.6100767"><ele>72.75</ele><time>2026-04-04T19:00:03.286Z</time></trkpt><trkpt lat="34.77155" lon="10.61017"><ele>72.5</ele><time>2026-04-04T19:00:04.286Z</time></trkpt><trkpt lat="34.771415" lon="10.61024"><ele>72.25</ele><time>2026-04-04T19:00:05.285Z</time></trkpt><trkpt lat="34.77128" lon="10.6102817"><ele>72.0</ele><time>2026-04-04T19:00:06.285Z</time></trkpt><trkpt lat="34.7711483" lon="10.6103033"><ele>71.75</ele><time>2026-04-04T19:00:07.282Z</time></trkpt><trkpt lat="34.7710117" lon="10.6103067"><ele>71.5</ele><time>2026-04-04T19:00:08.282Z</time></trkpt><trkpt lat="34.7708667" lon="10.61029"><ele>71.25</ele><time>2026-04-04T19:00:09.283Z</time></trkpt><trkpt lat="34.7707017" lon="10.61026"><ele>71.0</ele><time>2026-04-04T19:00:10.284Z</time></trkpt><trkpt lat="34.7705267" lon="10.6102233"><ele>71.0</ele><time>2026-04-04T19:00:11.284Z</time></trkpt><trkpt lat="34.7703333" lon="10.6101817"><ele>71.0</ele><time>2026-04-04T19:00:12.284Z</time></trkpt><trkpt lat="34.7701283" lon="10.6101367"><ele>71.0</ele><time>2026-04-04T19:00:13.284Z</time></trkpt><trkpt lat="34.769915" lon="10.6100883"><ele>72.5</ele><time>2026-04-04T19:00:14.283Z</time></trkpt><trkpt lat="34.769695" lon="10.6100367"><ele>74.0</ele><time>2026-04-04T19:00:15.281Z</time></trkpt><trkpt lat="34.7694683" lon="10.609985"><ele>73.5</ele><time>2026-04-04T19:00:16.281Z</time></trkpt><trkpt lat="34.7692367" lon="10.6099283"><ele>73.0</ele><time>2026-04-04T19:00:17.281Z</time></trkpt><trkpt lat="34.769" lon="10.60987"><ele>73.0</ele><time>2026-04-04T19:00:18.281Z</time></trkpt><trkpt lat="34.7687567" lon="10.6098067"><ele>73.0</ele><time>2026-04-04T19:00:19.283Z</time></trkpt><trkpt lat="34.7685067" lon="10.609745"><ele>72.5</ele><time>2026-04-04T19:00:20.284Z</time></trkpt><trkpt lat="34.7682533" lon="10.6096833"><ele>72.0</ele><time>2026-04-04T19:00:21.285Z</time></trkpt><trkpt lat="34.767995" lon="10.609625"><ele>72.0</ele><time>2026-04-04T19:00:22.284Z</time></trkpt><trkpt lat="34.7677367" lon="10.60956"><ele>72.0</ele><time>2026-04-04T19:00:23.283Z</time></trkpt><trkpt lat="34.767475" lon="10.609495"><ele>71.0</ele><time>2026-04-04T19:00:24.284Z</time></trkpt><trkpt lat="34.767215" lon="10.6094267"><ele>70.0</ele><time>2026-04-04T19:00:25.284Z</time></trkpt><trkpt lat="34.7669633" lon="10.6093617"><ele>69.5</ele><time>2026-04-04T19:00:26.285Z</time></trkpt><trkpt lat="34.7667133" lon="10.6092983"><ele>69.0</ele><time>2026-04-04T19:00:27.285Z</time></trkpt><trkpt lat="34.76647" lon="10.6092367"><ele>69.0</ele><time>2026-04-04T19:00:28.284Z</time></trkpt><trkpt lat="34.7662283" lon="10.6091767"><ele>69.0</ele><time>2026-04-04T19:00:29.284Z</time></trkpt><trkpt lat="34.7659883" lon="10.609115"><ele>71.0</ele><time>2026-04-04T19:00:30.284Z</time></trkpt><trkpt lat="34.7657483" lon="10.6090533"><ele>73.0</ele><time>2026-04-04T19:00:31.284Z</time></trkpt><trkpt lat="34.7655067" lon="10.6089933"><ele>73.0</ele><time>2026-04-04T19:00:32.286Z</time></trkpt><trkpt lat="34.7652633" lon="10.6089317"><ele>73.0</ele><time>2026-04-04T19:00:33.284Z</time></trkpt><trkpt lat="34.7650183" lon="10.6088717"><ele>73.0</ele><time>2026-04-04T19:00:34.284Z</time></trkpt><trkpt lat="34.76477" lon="10.6088083"><ele>73.0</ele><time>2026-04-04T19:00:35.284Z</time></trkpt><trkpt lat="34.76452" lon="10.6087467"><ele>73.5</ele><time>2026-04-04T19:00:36.285Z</time></trkpt><trkpt lat="34.7642667" lon="10.6086817"><ele>74.0</ele><time>2026-04-04T19:00:37.285Z</time></trkpt><trkpt lat="34.764015" lon="10.6086183"><ele>74.5</ele><time>2026-04-04T19:00:38.286Z</time></trkpt><trkpt lat="34.7637617" lon="10.608555"><ele>75.0</ele><time>2026-04-04T19:00:39.284Z</time></trkpt><trkpt lat="34.7635067" lon="10.6084917"><ele>74.0</ele><time>2026-04-04T19:00:40.285Z</time></trkpt><trkpt lat="34.7632533" lon="10.6084267"><ele>73.0</ele><time>2026-04-04T19:00:41.281Z</time></trkpt><trkpt lat="34.7629967" lon="10.6083617"><ele>73.0</ele><time>2026-04-04T19:00:42.285Z</time></trkpt><trkpt lat="34.7627367" lon="10.6082967"><ele>73.0</ele><time>2026-04-04T19:00:43.284Z</time></trkpt><trkpt lat="34.762475" lon="10.6082367"><ele>74.0</ele><time>2026-04-04T19:00:44.281Z</time></trkpt><trkpt lat="34.762215" lon="10.6081717"><ele>75.0</ele><time>2026-04-04T19:00:45.284Z</time></trkpt><trkpt lat="34.7619533" lon="10.608105"><ele>74.5</ele><time>2026-04-04T19:00:46.284Z</time></trkpt><trkpt lat="34.7616917" lon="10.6080367"><ele>74.0</ele><time>2026-04-04T19:00:47.284Z</time></trkpt><trkpt lat="34.76143" lon="10.6079717"><ele>74.0</ele><time>2026-04-04T19:00:48.285Z</time></trkpt><trkpt lat="34.7611667" lon="10.6079067"><ele>74.0</ele><time>2026-04-04T19:00:49.285Z</time></trkpt><trkpt lat="34.7609033" lon="10.60784"><ele>74.5</ele><time>2026-04-04T19:00:50.285Z</time></trkpt><trkpt lat="34.76064" lon="10.607775"><ele>75.0</ele><time>2026-04-04T19:00:51.285Z</time></trkpt><trkpt lat="34.7603767" lon="10.60771"><ele>76.0</ele><time>2026-04-04T19:00:52.284Z</time></trkpt><trkpt lat="34.7601133" lon="10.607645"><ele>77.0</ele><time>2026-04-04T19:00:53.284Z</time></trkpt><trkpt lat="34.7598483" lon="10.60758"><ele>77.0</ele><time>2026-04-04T19:00:54.286Z</time></trkpt><trkpt lat="34.7595817" lon="10.6075167"><ele>77.0</ele><time>2026-04-04T19:00:55.284Z</time></trkpt><trkpt lat="34.759315" lon="10.6074533"><ele>78.0</ele><time>2026-04-04T19:00:56.284Z</time></trkpt><trkpt lat="34.7590467" lon="10.607385"><ele>79.0</ele><time>2026-04-04T19:00:57.282Z</time></trkpt><trkpt lat="34.7587783" lon="10.607315"><ele>78.5</ele><time>2026-04-04T19:00:58.284Z</time></trkpt><trkpt lat="34.7585083" lon="10.6072467"><ele>78.0</ele><time>2026-04-04T19:00:59.284Z</time></trkpt><trkpt lat="34.75824" lon="10.6071783"><ele>78.0</ele><time>2026-04-04T19:01:00.284Z</time></trkpt><trkpt lat="34.7579683" lon="10.6071117"><ele>78.0</ele><time>2026-04-04T19:01:01.284Z</time></trkpt><trkpt lat="34.7577" lon="10.6070417"><ele>78.0</ele><time>2026-04-04T19:01:02.284Z</time></trkpt><trkpt lat="34.7574333" lon="10.6069667"><ele>78.0</ele><time>2026-04-04T19:01:03.284Z</time></trkpt><trkpt lat="34.7571683" lon="10.606895"><ele>78.0</ele><time>2026-04-04T19:01:04.284Z</time></trkpt><trkpt lat="34.7569083" lon="10.6068183"><ele>78.0</ele><time>2026-04-04T19:01:05.282Z</time></trkpt><trkpt lat="34.7566483" lon="10.6067417"><ele>75.5</ele><time>2026-04-04T19:01:06.284Z</time></trkpt><trkpt lat="34.7563883" lon="10.6066633"><ele>73.0</ele><time>2026-04-04T19:01:07.287Z</time></trkpt><trkpt lat="34.7561317" lon="10.60658"><ele>71.0</ele><time>2026-04-04T19:01:08.285Z</time></trkpt><trkpt lat="34.7558733" lon="10.606495"><ele>69.0</ele><time>2026-04-04T19:01:09.285Z</time></trkpt><trkpt lat="34.7556183" lon="10.6064083"><ele>69.0</ele><time>2026-04-04T19:01:10.284Z</time></trkpt><trkpt lat="34.755365" lon="10.6063183"><ele>69.0</ele><time>2026-04-04T19:01:11.284Z</time></trkpt><trkpt lat="34.7551117" lon="10.60622"><ele>67.0</ele><time>2026-04-04T19:01:12.284Z</time></trkpt><trkpt lat="34.75486" lon="10.6061183"><ele>65.0</ele><time>2026-04-04T19:01:13.284Z</time></trkpt><trkpt lat="34.7546067" lon="10.606015"><ele>64.0</ele><time>2026-04-04T19:01:14.281Z</time></trkpt><trkpt lat="34.7543517" lon="10.6059083"><ele>63.0</ele><time>2026-04-04T19:01:15.285Z</time></trkpt><trkpt lat="34.7541" lon="10.6057967"><ele>63.0</ele><time>2026-04-04T19:01:16.281Z</time></trkpt><trkpt lat="34.753845" lon="10.605685"><ele>63.0</ele><time>2026-04-04T19:01:17.284Z</time></trkpt><trkpt lat="34.75359" lon="10.6055717"><ele>62.0</ele><time>2026-04-04T19:01:18.286Z</time></trkpt><trkpt lat="34.7533383" lon="10.6054533"><ele>61.0</ele><time>2026-04-04T19:01:19.286Z</time></trkpt><trkpt lat="34.7530883" lon="10.60533"><ele>60.5</ele><time>2026-04-04T19:01:20.282Z</time></trkpt><trkpt lat="34.7528367" lon="10.605205"><ele>60.0</ele><time>2026-04-04T19:01:21.285Z</time></trkpt><trkpt lat="34.7525867" lon="10.6050767"><ele>58.5</ele><time>2026-04-04T19:01:22.284Z</time></trkpt><trkpt lat="34.7523417" lon="10.604945"><ele>57.0</ele><time>2026-04-04T19:01:23.284Z</time></trkpt><trkpt lat="34.752095" lon="10.6048117"><ele>57.0</ele><time>2026-04-04T19:01:24.285Z</time></trkpt><trkpt lat="34.7518483" lon="10.604675"><ele>57.0</ele><time>2026-04-04T19:01:25.285Z</time></trkpt><trkpt lat="34.7516033" lon="10.6045333"><ele>57.0</ele><time>2026-04-04T19:01:26.285Z</time></trkpt><trkpt lat="34.7513583" lon="10.60439"><ele>57.0</ele><time>2026-04-04T19:01:27.285Z</time></trkpt><trkpt lat="34.75111" lon="10.6042467"><ele>57.0</ele><time>2026-04-04T19:01:28.284Z</time></trkpt><trkpt lat="34.750865" lon="10.604095"><ele>57.0</ele><time>2026-04-04T19:01:29.285Z</time></trkpt><trkpt lat="34.7506217" lon="10.6039383"><ele>57.0</ele><time>2026-04-04T19:01:30.285Z</time></trkpt><trkpt lat="34.7503783" lon="10.6037783"><ele>57.0</ele><time>2026-04-04T19:01:31.285Z</time></trkpt><trkpt lat="34.7501367" lon="10.6036167"><ele>55.5</ele><time>2026-04-04T19:01:32.284Z</time></trkpt><trkpt lat="34.7498967" lon="10.6034533"><ele>54.0</ele><time>2026-04-04T19:01:33.285Z</time></trkpt><trkpt lat="34.749655" lon="10.60329"><ele>54.0</ele><time>2026-04-04T19:01:34.281Z</time></trkpt><trkpt lat="34.749415" lon="10.6031233"><ele>54.0</ele><time>2026-04-04T19:01:35.283Z</time></trkpt><trkpt lat="34.7491767" lon="10.6029567"><ele>54.0</ele><time>2026-04-04T19:01:36.284Z</time></trkpt><trkpt lat="34.7489383" lon="10.6027917"><ele>54.0</ele><time>2026-04-04T19:01:37.284Z</time></trkpt><trkpt lat="34.7487" lon="10.6026267"><ele>54.5</ele><time>2026-04-04T19:01:38.284Z</time></trkpt><trkpt lat="34.7484617" lon="10.6024633"><ele>55.0</ele><time>2026-04-04T19:01:39.285Z</time></trkpt><trkpt lat="34.7482217" lon="10.6023"><ele>55.0</ele><time>2026-04-04T19:01:40.284Z</time></trkpt><trkpt lat="34.74798" lon="10.6021333"><ele>55.0</ele><time>2026-04-04T19:01:41.284Z</time></trkpt><trkpt lat="34.7477383" lon="10.6019667"><ele>54.5</ele><time>2026-04-04T19:01:42.285Z</time></trkpt><trkpt lat="34.747495" lon="10.6017983"><ele>54.0</ele><time>2026-04-04T19:01:43.284Z</time></trkpt><trkpt lat="34.74725" lon="10.60163"><ele>54.0</ele><time>2026-04-04T19:01:44.283Z</time></trkpt><trkpt lat="34.7470033" lon="10.60146"><ele>54.0</ele><time>2026-04-04T19:01:45.284Z</time></trkpt><trkpt lat="34.7467567" lon="10.60129"><ele>53.5</ele><time>2026-04-04T19:01:46.285Z</time></trkpt><trkpt lat="34.7465117" lon="10.6011183"><ele>53.0</ele><time>2026-04-04T19:01:47.285Z</time></trkpt><trkpt lat="34.746265" lon="10.6009483"><ele>53.0</ele><time>2026-04-04T19:01:48.285Z</time></trkpt><trkpt lat="34.7460183" lon="10.60078"><ele>53.0</ele><time>2026-04-04T19:01:49.286Z</time></trkpt><trkpt lat="34.7457717" lon="10.600615"><ele>53.0</ele><time>2026-04-04T19:01:50.284Z</time></trkpt><trkpt lat="34.745525" lon="10.600455"><ele>53.0</ele><time>2026-04-04T19:01:51.284Z</time></trkpt><trkpt lat="34.7452783" lon="10.600295"><ele>53.5</ele><time>2026-04-04T19:01:52.286Z</time></trkpt><trkpt lat="34.7450333" lon="10.60013"><ele>54.0</ele><time>2026-04-04T19:01:53.282Z</time></trkpt><trkpt lat="34.7447917" lon="10.5999633"><ele>54.0</ele><time>2026-04-04T19:01:54.283Z</time></trkpt><trkpt lat="34.74455" lon="10.5997967"><ele>54.0</ele><time>2026-04-04T19:01:55.283Z</time></trkpt><trkpt lat="34.7443117" lon="10.5996283"><ele>53.0</ele><time>2026-04-04T19:01:56.282Z</time></trkpt><trkpt lat="34.7440717" lon="10.5994633"><ele>52.0</ele><time>2026-04-04T19:01:57.282Z</time></trkpt><trkpt lat="34.74383" lon="10.5992967"><ele>52.0</ele><time>2026-04-04T19:01:58.285Z</time></trkpt><trkpt lat="34.74359" lon="10.59913"><ele>52.0</ele><time>2026-04-04T19:01:59.286Z</time></trkpt><trkpt lat="34.7433483" lon="10.598965"><ele>51.5</ele><time>2026-04-04T19:02:00.282Z</time></trkpt><trkpt lat="34.7431083" lon="10.5987983"><ele>51.0</ele><time>2026-04-04T19:02:01.286Z</time></trkpt><trkpt lat="34.742865" lon="10.5986317"><ele>51.5</ele><time>2026-04-04T19:02:02.285Z</time></trkpt><trkpt lat="34.7426233" lon="10.598465"><ele>52.0</ele><time>2026-04-04T19:02:03.285Z</time></trkpt><trkpt lat="34.74238" lon="10.5983017"><ele>52.0</ele><time>2026-04-04T19:02:04.282Z</time></trkpt><trkpt lat="34.7421367" lon="10.598135"><ele>52.0</ele><time>2026-04-04T19:02:05.284Z</time></trkpt><trkpt lat="34.7418967" lon="10.59797"><ele>51.0</ele><time>2026-04-04T19:02:06.284Z</time></trkpt><trkpt lat="34.741655" lon="10.597805"><ele>50.0</ele><time>2026-04-04T19:02:07.284Z</time></trkpt><trkpt lat="34.741415" lon="10.5976383"><ele>50.0</ele><time>2026-04-04T19:02:08.284Z</time></trkpt><trkpt lat="34.7411733" lon="10.5974733"><ele>50.0</ele><time>2026-04-04T19:02:09.284Z</time></trkpt><trkpt lat="34.7409317" lon="10.5973067"><ele>50.0</ele><time>2026-04-04T19:02:10.286Z</time></trkpt><trkpt lat="34.74069" lon="10.5971417"><ele>50.0</ele><time>2026-04-04T19:02:11.284Z</time></trkpt><trkpt lat="34.7404467" lon="10.596975"><ele>49.5</ele><time>2026-04-04T19:02:12.284Z</time></trkpt><trkpt lat="34.740205" lon="10.5968083"><ele>49.0</ele><time>2026-04-04T19:02:13.285Z</time></trkpt><trkpt lat="34.7399617" lon="10.59664"><ele>49.0</ele><time>2026-04-04T19:02:14.285Z</time></trkpt><trkpt lat="34.7397167" lon="10.59647"><ele>49.0</ele><time>2026-04-04T19:02:15.285Z</time></trkpt><trkpt lat="34.73947" lon="10.5963033"><ele>50.5</ele><time>2026-04-04T19:02:16.285Z</time></trkpt><trkpt lat="34.7392267" lon="10.5961333"><ele>52.0</ele><time>2026-04-04T19:02:17.282Z</time></trkpt><trkpt lat="34.7389817" lon="10.595965"><ele>52.0</ele><time>2026-04-04T19:02:18.284Z</time></trkpt><trkpt lat="34.738735" lon="10.5957933"><ele>52.0</ele><time>2026-04-04T19:02:19.284Z</time></trkpt><trkpt lat="34.73849" lon="10.5956217"><ele>52.5</ele><time>2026-04-04T19:02:20.285Z</time></trkpt><trkpt lat="34.73824" lon="10.5954517"><ele>53.0</ele><time>2026-04-04T19:02:21.284Z</time></trkpt><trkpt lat="34.7379917" lon="10.595285"><ele>52.5</ele><time>2026-04-04T19:02:22.284Z</time></trkpt><trkpt lat="34.7377433" lon="10.5951183"><ele>52.0</ele><time>2026-04-04T19:02:23.284Z</time></trkpt><trkpt lat="34.7374933" lon="10.5949567"><ele>52.0</ele><time>2026-04-04T19:02:24.284Z</time></trkpt><trkpt lat="34.7372433" lon="10.5947967"><ele>52.0</ele><time>2026-04-04T19:02:25.285Z</time></trkpt><trkpt lat="34.7369917" lon="10.59464"><ele>53.0</ele><time>2026-04-04T19:02:26.284Z</time></trkpt><trkpt lat="34.7367383" lon="10.5944883"><ele>54.0</ele><time>2026-04-04T19:02:27.284Z</time></trkpt><trkpt lat="34.7364817" lon="10.5943383"><ele>54.0</ele><time>2026-04-04T19:02:28.284Z</time></trkpt><trkpt lat="34.736225" lon="10.5941883"><ele>54.0</ele><time>2026-04-04T19:02:29.283Z</time></trkpt><trkpt lat="34.7359667" lon="10.5940433"><ele>53.0</ele><time>2026-04-04T19:02:30.284Z</time></trkpt><trkpt lat="34.7357067" lon="10.5939"><ele>52.0</ele><time>2026-04-04T19:02:31.285Z</time></trkpt><trkpt lat="34.7354467" lon="10.59376"><ele>52.0</ele><time>2026-04-04T19:02:32.286Z</time></trkpt><trkpt lat="34.735185" lon="10.5936183"><ele>52.0</ele><time>2026-04-04T19:02:33.285Z</time></trkpt><trkpt lat="34.7349233" lon="10.5934767"><ele>52.0</ele><time>2026-04-04T19:02:34.283Z</time></trkpt><trkpt lat="34.7346633" lon="10.593335"><ele>52.0</ele><time>2026-04-04T19:02:35.282Z</time></trkpt><trkpt lat="34.7344033" lon="10.593195"><ele>53.0</ele><time>2026-04-04T19:02:36.285Z</time></trkpt><trkpt lat="34.7341433" lon="10.5930533"><ele>54.0</ele><time>2026-04-04T19:02:37.283Z</time></trkpt><trkpt lat="34.733885" lon="10.5929117"><ele>53.0</ele><time>2026-04-04T19:02:38.283Z</time></trkpt><trkpt lat="34.7336267" lon="10.5927717"><ele>52.0</ele><time>2026-04-04T19:02:39.283Z</time></trkpt><trkpt lat="34.7333717" lon="10.5926333"><ele>52.0</ele><time>2026-04-04T19:02:40.284Z</time></trkpt><trkpt lat="34.7331167" lon="10.592495"><ele>52.0</ele><time>2026-04-04T19:02:41.283Z</time></trkpt><trkpt lat="34.7328617" lon="10.5923567"><ele>52.5</ele><time>2026-04-04T19:02:42.284Z</time></trkpt><trkpt lat="34.732605" lon="10.5922183"><ele>53.0</ele><time>2026-04-04T19:02:43.283Z</time></trkpt><trkpt lat="34.7323483" lon="10.5920783"><ele>53.5</ele><time>2026-04-04T19:02:44.283Z</time></trkpt><trkpt lat="34.7320933" lon="10.591935"><ele>54.0</ele><time>2026-04-04T19:02:45.282Z</time></trkpt><trkpt lat="34.7318367" lon="10.5917883"><ele>53.0</ele><time>2026-04-04T19:02:46.285Z</time></trkpt><trkpt lat="34.73158" lon="10.5916383"><ele>52.0</ele><time>2026-04-04T19:02:47.282Z</time></trkpt><trkpt lat="34.7313217" lon="10.591485"><ele>52.0</ele><time>2026-04-04T19:02:48.286Z</time></trkpt><trkpt lat="34.7310683" lon="10.59133"><ele>52.0</ele><time>2026-04-04T19:02:49.285Z</time></trkpt><trkpt lat="34.7308167" lon="10.5911733"><ele>54.0</ele><time>2026-04-04T19:02:50.286Z</time></trkpt><trkpt lat="34.7305667" lon="10.59101"><ele>56.0</ele><time>2026-04-04T19:02:51.285Z</time></trkpt><trkpt lat="34.73032" lon="10.590845"><ele>57.0</ele><time>2026-04-04T19:02:52.282Z</time></trkpt><trkpt lat="34.730075" lon="10.590675"><ele>58.0</ele><time>2026-04-04T19:02:53.282Z</time></trkpt><trkpt lat="34.729835" lon="10.5905017"><ele>59.5</ele><time>2026-04-04T19:02:54.283Z</time></trkpt><trkpt lat="34.7295933" lon="10.590325"><ele>61.0</ele><time>2026-04-04T19:02:55.282Z</time></trkpt><trkpt lat="34.7293517" lon="10.5901483"><ele>62.5</ele><time>2026-04-04T19:02:56.282Z</time></trkpt><trkpt lat="34.7291117" lon="10.5899667"><ele>64.0</ele><time>2026-04-04T19:02:57.283Z</time></trkpt><trkpt lat="34.7288733" lon="10.5897833"><ele>64.0</ele><time>2026-04-04T19:02:58.283Z</time></trkpt><trkpt lat="34.7286383" lon="10.5895967"><ele>64.0</ele><time>2026-04-04T19:02:59.282Z</time></trkpt><trkpt lat="34.7284033" lon="10.5894067"><ele>65.5</ele><time>2026-04-04T19:03:00.282Z</time></trkpt><trkpt lat="34.7281667" lon="10.5892117"><ele>67.0</ele><time>2026-04-04T19:03:01.283Z</time></trkpt><trkpt lat="34.7279333" lon="10.58901"><ele>66.5</ele><time>2026-04-04T19:03:02.285Z</time></trkpt><trkpt lat="34.727705" lon="10.5888033"><ele>66.0</ele><time>2026-04-04T19:03:03.282Z</time></trkpt><trkpt lat="34.7274767" lon="10.588595"><ele>67.0</ele><time>2026-04-04T19:03:04.283Z</time></trkpt><trkpt lat="34.7272517" lon="10.5883817"><ele>68.0</ele><time>2026-04-04T19:03:05.282Z</time></trkpt><trkpt lat="34.7270217" lon="10.5881633"><ele>69.0</ele><time>2026-04-04T19:03:06.282Z</time></trkpt><trkpt lat="34.7267933" lon="10.5879417"><ele>70.0</ele><time>2026-04-04T19:03:07.282Z</time></trkpt><trkpt lat="34.726565" lon="10.58772"><ele>70.0</ele><time>2026-04-04T19:03:08.283Z</time></trkpt><trkpt lat="34.72634" lon="10.5874983"><ele>70.0</ele><time>2026-04-04T19:03:09.282Z</time></trkpt><trkpt lat="34.7261183" lon="10.5872767"><ele>69.5</ele><time>2026-04-04T19:03:10.283Z</time></trkpt><trkpt lat="34.7258983" lon="10.5870567"><ele>69.0</ele><time>2026-04-04T19:03:11.283Z</time></trkpt><trkpt lat="34.7256817" lon="10.58684"><ele>67.5</ele><time>2026-04-04T19:03:12.284Z</time></trkpt><trkpt lat="34.7254717" lon="10.5866267"><ele>66.0</ele><time>2026-04-04T19:03:13.283Z</time></trkpt><trkpt lat="34.7252617" lon="10.5864133"><ele>66.5</ele><time>2026-04-04T19:03:14.282Z</time></trkpt><trkpt lat="34.7250583" lon="10.5862017"><ele>67.0</ele><time>2026-04-04T19:03:15.285Z</time></trkpt><trkpt lat="34.7248567" lon="10.5859933"><ele>67.0</ele><time>2026-04-04T19:03:16.284Z</time></trkpt><trkpt lat="34.7246567" lon="10.585785"><ele>67.0</ele><time>2026-04-04T19:03:17.284Z</time></trkpt><trkpt lat="34.7244583" lon="10.58558"><ele>68.0</ele><time>2026-04-04T19:03:18.286Z</time></trkpt><trkpt lat="34.7242633" lon="10.58538"><ele>69.0</ele><time>2026-04-04T19:03:19.285Z</time></trkpt><trkpt lat="34.724075" lon="10.5851883"><ele>69.5</ele><time>2026-04-04T19:03:20.281Z</time></trkpt><trkpt lat="34.7238917" lon="10.5850033"><ele>70.0</ele><time>2026-04-04T19:03:21.285Z</time></trkpt><trkpt lat="34.7237117" lon="10.5848217"><ele>71.0</ele><time>2026-04-04T19:03:22.285Z</time></trkpt><trkpt lat="34.723535" lon="10.5846417"><ele>72.0</ele><time>2026-04-04T19:03:23.282Z</time></trkpt><trkpt lat="34.72336" lon="10.5844667"><ele>72.0</ele><time>2026-04-04T19:03:24.284Z</time></trkpt><trkpt lat="34.7231883" lon="10.584295"><ele>72.0</ele><time>2026-04-04T19:03:25.282Z</time></trkpt><trkpt lat="34.7230233" lon="10.5841233"><ele>72.0</ele><time>2026-04-04T19:03:26.284Z</time></trkpt><trkpt lat="34.7228583" lon="10.583955"><ele>71.66666666666667</ele><time>2026-04-04T19:03:27.284Z</time></trkpt><trkpt lat="34.7226917" lon="10.5837883"><ele>71.33333333333334</ele><time>2026-04-04T19:03:28.284Z</time></trkpt><trkpt lat="34.7225267" lon="10.58362"><ele>71.0</ele><time>2026-04-04T19:03:29.284Z</time></trkpt><trkpt lat="34.7223583" lon="10.5834517"><ele>71.0</ele><time>2026-04-04T19:03:30.285Z</time></trkpt><trkpt lat="34.7221933" lon="10.58328"><ele>71.0</ele><time>2026-04-04T19:03:31.284Z</time></trkpt><trkpt lat="34.722025" lon="10.5831083"><ele>71.0</ele><time>2026-04-04T19:03:32.284Z</time></trkpt><trkpt lat="34.7218567" lon="10.5829383"><ele>72.33333333333334</ele><time>2026-04-04T19:03:33.282Z</time></trkpt><trkpt lat="34.72169" lon="10.5827667"><ele>73.66666666666667</ele><time>2026-04-04T19:03:34.283Z</time></trkpt><trkpt lat="34.721525" lon="10.5825933"><ele>75.0</ele><time>2026-04-04T19:03:35.283Z</time></trkpt><trkpt lat="34.72136" lon="10.5824183"><ele>75.0</ele><time>2026-04-04T19:03:36.282Z</time></trkpt><trkpt lat="34.7211933" lon="10.58224"><ele>75.0</ele><time>2026-04-04T19:03:37.282Z</time></trkpt><trkpt lat="34.7210233" lon="10.5820617"><ele>75.0</ele><time>2026-04-04T19:03:38.281Z</time></trkpt><trkpt lat="34.7208517" lon="10.581885"><ele>75.0</ele><time>2026-04-04T19:03:39.283Z</time></trkpt><trkpt lat="34.7206783" lon="10.5817067"><ele>75.0</ele><time>2026-04-04T19:03:40.286Z</time></trkpt><trkpt lat="34.7205083" lon="10.581525"><ele>75.0</ele><time>2026-04-04T19:03:41.284Z</time></trkpt><trkpt lat="34.7203383" lon="10.5813433"><ele>75.0</ele><time>2026-04-04T19:03:42.286Z</time></trkpt><trkpt lat="34.7201667" lon="10.58116"><ele>75.5</ele><time>2026-04-04T19:03:43.286Z</time></trkpt><trkpt lat="34.719995" lon="10.5809733"><ele>76.0</ele><time>2026-04-04T19:03:44.284Z</time></trkpt><trkpt lat="34.719825" lon="10.5807833"><ele>76.0</ele><time>2026-04-04T19:03:45.285Z</time></trkpt><trkpt lat="34.7196517" lon="10.5805967"><ele>76.0</ele><time>2026-04-04T19:03:46.285Z</time></trkpt><trkpt lat="34.719475" lon="10.5804067"><ele>76.0</ele><time>2026-04-04T19:03:47.285Z</time></trkpt><trkpt lat="34.7192967" lon="10.5802167"><ele>76.0</ele><time>2026-04-04T19:03:48.285Z</time></trkpt><trkpt lat="34.7191217" lon="10.5800233"><ele>76.0</ele><time>2026-04-04T19:03:49.284Z</time></trkpt><trkpt lat="34.7189467" lon="10.57983"><ele>76.0</ele><time>2026-04-04T19:03:50.284Z</time></trkpt><trkpt lat="34.7187667" lon="10.5796417"><ele>76.0</ele><time>2026-04-04T19:03:51.284Z</time></trkpt><trkpt lat="34.7185883" lon="10.5794483"><ele>76.0</ele><time>2026-04-04T19:03:52.284Z</time></trkpt><trkpt lat="34.7184117" lon="10.5792533"><ele>76.0</ele><time>2026-04-04T19:03:53.281Z</time></trkpt><trkpt lat="34.7182383" lon="10.5790583"><ele>76.0</ele><time>2026-04-04T19:03:54.284Z</time></trkpt><trkpt lat="34.7180667" lon="10.5788617"><ele>77.0</ele><time>2026-04-04T19:03:55.284Z</time></trkpt><trkpt lat="34.7178933" lon="10.5786667"><ele>78.0</ele><time>2026-04-04T19:03:56.285Z</time></trkpt><trkpt lat="34.7177217" lon="10.5784717"><ele>78.5</ele><time>2026-04-04T19:03:57.284Z</time></trkpt><trkpt lat="34.7175517" lon="10.5782817"><ele>79.0</ele><time>2026-04-04T19:03:58.284Z</time></trkpt><trkpt lat="34.7173817" lon="10.5780917"><ele>79.0</ele><time>2026-04-04T19:03:59.285Z</time></trkpt><trkpt lat="34.7172167" lon="10.5779"><ele>79.0</ele><time>2026-04-04T19:04:00.285Z</time></trkpt><trkpt lat="34.71705" lon="10.5777067"><ele>79.0</ele><time>2026-04-04T19:04:01.284Z</time></trkpt><trkpt lat="34.7168833" lon="10.5775117"><ele>79.0</ele><time>2026-04-04T19:04:02.284Z</time></trkpt><trkpt lat="34.7167133" lon="10.5773167"><ele>79.0</ele><time>2026-04-04T19:04:03.282Z</time></trkpt><trkpt lat="34.716545" lon="10.5771183"><ele>79.0</ele><time>2026-04-04T19:04:04.283Z</time></trkpt><trkpt lat="34.7163783" lon="10.5769183"><ele>79.5</ele><time>2026-04-04T19:04:05.282Z</time></trkpt><trkpt lat="34.7162083" lon="10.5767217"><ele>80.0</ele><time>2026-04-04T19:04:06.282Z</time></trkpt><trkpt lat="34.71604" lon="10.5765233"><ele>79.5</ele><time>2026-04-04T19:04:07.282Z</time></trkpt><trkpt lat="34.7158733" lon="10.576325"><ele>79.0</ele><time>2026-04-04T19:04:08.281Z</time></trkpt><trkpt lat="34.71571" lon="10.57612"><ele>79.0</ele><time>2026-04-04T19:04:09.285Z</time></trkpt><trkpt lat="34.71554" lon="10.575915"><ele>79.0</ele><time>2026-04-04T19:04:10.284Z</time></trkpt><trkpt lat="34.7153733" lon="10.5757117"><ele>79.0</ele><time>2026-04-04T19:04:11.282Z</time></trkpt><trkpt lat="34.7152083" lon="10.5755117"><ele>79.0</ele><time>2026-04-04T19:04:12.285Z</time></trkpt><trkpt lat="34.7150433" lon="10.57531"><ele>80.0</ele><time>2026-04-04T19:04:13.286Z</time></trkpt><trkpt lat="34.71488" lon="10.5751083"><ele>81.0</ele><time>2026-04-04T19:04:14.282Z</time></trkpt><trkpt lat="34.7147167" lon="10.5749033"><ele>81.0</ele><time>2026-04-04T19:04:15.284Z</time></trkpt><trkpt lat="34.71455" lon="10.5746983"><ele>81.0</ele><time>2026-04-04T19:04:16.285Z</time></trkpt><trkpt lat="34.71438" lon="10.574495"><ele>80.5</ele><time>2026-04-04T19:04:17.284Z</time></trkpt><trkpt lat="34.71421" lon="10.5742917"><ele>80.0</ele><time>2026-04-04T19:04:18.285Z</time></trkpt><trkpt lat="34.71404" lon="10.574085"><ele>80.0</ele><time>2026-04-04T19:04:19.285Z</time></trkpt><trkpt lat="34.71387" lon="10.5738767"><ele>80.0</ele><time>2026-04-04T19:04:20.284Z</time></trkpt><trkpt lat="34.7136983" lon="10.57367"><ele>80.0</ele><time>2026-04-04T19:04:21.285Z</time></trkpt><trkpt lat="34.7135283" lon="10.5734633"><ele>80.0</ele><time>2026-04-04T19:04:22.285Z</time></trkpt><trkpt lat="34.71336" lon="10.5732567"><ele>80.0</ele><time>2026-04-04T19:04:23.282Z</time></trkpt><trkpt lat="34.7131867" lon="10.5730533"><ele>80.0</ele><time>2026-04-04T19:04:24.286Z</time></trkpt><trkpt lat="34.7130167" lon="10.5728517"><ele>80.0</ele><time>2026-04-04T19:04:25.285Z</time></trkpt><trkpt lat="34.712845" lon="10.57265"><ele>80.0</ele><time>2026-04-04T19:04:26.284Z</time></trkpt><trkpt lat="34.7126717" lon="10.572445"><ele>79.5</ele><time>2026-04-04T19:04:27.282Z</time></trkpt><trkpt lat="34.7125033" lon="10.5722383"><ele>79.0</ele><time>2026-04-04T19:04:28.284Z</time></trkpt><trkpt lat="34.712335" lon="10.5720317"><ele>79.5</ele><time>2026-04-04T19:04:29.284Z</time></trkpt><trkpt lat="34.7121667" lon="10.5718267"><ele>80.0</ele><time>2026-04-04T19:04:30.285Z</time></trkpt><trkpt lat="34.7119983" lon="10.57162"><ele>80.5</ele><time>2026-04-04T19:04:31.283Z</time></trkpt><trkpt lat="34.7118283" lon="10.5714117"><ele>81.0</ele><time>2026-04-04T19:04:32.284Z</time></trkpt><trkpt lat="34.7116583" lon="10.5712033"><ele>81.5</ele><time>2026-04-04T19:04:33.284Z</time></trkpt><trkpt lat="34.7114917" lon="10.570995"><ele>82.0</ele><time>2026-04-04T19:04:34.284Z</time></trkpt><trkpt lat="34.7113217" lon="10.5707883"><ele>82.0</ele><time>2026-04-04T19:04:35.284Z</time></trkpt><trkpt lat="34.71115" lon="10.5705833"><ele>82.0</ele><time>2026-04-04T19:04:36.285Z</time></trkpt><trkpt lat="34.71098" lon="10.570375"><ele>83.0</ele><time>2026-04-04T19:04:37.284Z</time></trkpt><trkpt lat="34.71081" lon="10.57017"><ele>84.0</ele><time>2026-04-04T19:04:38.285Z</time></trkpt><trkpt lat="34.7106383" lon="10.5699633"><ele>84.0</ele><time>2026-04-04T19:04:39.287Z</time></trkpt><trkpt lat="34.710465" lon="10.5697567"><ele>84.0</ele><time>2026-04-04T19:04:40.284Z</time></trkpt><trkpt lat="34.7102933" lon="10.5695483"><ele>83.5</ele><time>2026-04-04T19:04:41.284Z</time></trkpt><trkpt lat="34.7101217" lon="10.569345"><ele>83.0</ele><time>2026-04-04T19:04:42.285Z</time></trkpt><trkpt lat="34.7099533" lon="10.5691417"><ele>83.0</ele><time>2026-04-04T19:04:43.285Z</time></trkpt><trkpt lat="34.7097867" lon="10.5689417"><ele>83.0</ele><time>2026-04-04T19:04:44.284Z</time></trkpt><trkpt lat="34.7096233" lon="10.5687417"><ele>83.33333333333334</ele><time>2026-04-04T19:04:45.285Z</time></trkpt><trkpt lat="34.709465" lon="10.5685467"><ele>83.66666666666667</ele><time>2026-04-04T19:04:46.284Z</time></trkpt><trkpt lat="34.7093067" lon="10.568355"><ele>84.0</ele><time>2026-04-04T19:04:47.285Z</time></trkpt><trkpt lat="34.7091483" lon="10.5681633"><ele>84.0</ele><time>2026-04-04T19:04:48.285Z</time></trkpt><trkpt lat="34.7089917" lon="10.56797"><ele>84.0</ele><time>2026-04-04T19:04:49.285Z</time></trkpt><trkpt lat="34.7088317" lon="10.5677783"><ele>84.0</ele><time>2026-04-04T19:04:50.285Z</time></trkpt><trkpt lat="34.7086767" lon="10.56759"><ele>84.33333333333333</ele><time>2026-04-04T19:04:51.283Z</time></trkpt><trkpt lat="34.7085267" lon="10.5674033"><ele>84.66666666666666</ele><time>2026-04-04T19:04:52.285Z</time></trkpt><trkpt lat="34.7083767" lon="10.5672183"><ele>85.0</ele><time>2026-04-04T19:04:53.286Z</time></trkpt><trkpt lat="34.7082233" lon="10.5670333"><ele>85.33333333333333</ele><time>2026-04-04T19:04:54.285Z</time></trkpt><trkpt lat="34.7080683" lon="10.566845"><ele>85.66666666666667</ele><time>2026-04-04T19:04:55.284Z</time></trkpt><trkpt lat="34.7079117" lon="10.5666567"><ele>86.0</ele><time>2026-04-04T19:04:56.284Z</time></trkpt><trkpt lat="34.7077517" lon="10.566465"><ele>86.0</ele><time>2026-04-04T19:04:57.285Z</time></trkpt><trkpt lat="34.7075967" lon="10.56627"><ele>86.0</ele><time>2026-04-04T19:04:58.281Z</time></trkpt><trkpt lat="34.7074317" lon="10.566075"><ele>86.0</ele><time>2026-04-04T19:04:59.285Z</time></trkpt><trkpt lat="34.707265" lon="10.5658817"><ele>86.0</ele><time>2026-04-04T19:05:00.285Z</time></trkpt><trkpt lat="34.7070917" lon="10.56569"><ele>86.0</ele><time>2026-04-04T19:05:01.284Z</time></trkpt><trkpt lat="34.7069167" lon="10.5654967"><ele>86.0</ele><time>2026-04-04T19:05:02.284Z</time></trkpt><trkpt lat="34.7067433" lon="10.565305"><ele>86.0</ele><time>2026-04-04T19:05:03.288Z</time></trkpt><trkpt lat="34.7065667" lon="10.565115"><ele>86.0</ele><time>2026-04-04T19:05:04.285Z</time></trkpt><trkpt lat="34.7063917" lon="10.564925"><ele>86.0</ele><time>2026-04-04T19:05:05.284Z</time></trkpt><trkpt lat="34.706215" lon="10.5647367"><ele>86.0</ele><time>2026-04-04T19:05:06.285Z</time></trkpt><trkpt lat="34.7060383" lon="10.56455"><ele>86.5</ele><time>2026-04-04T19:05:07.284Z</time></trkpt><trkpt lat="34.70586" lon="10.5643633"><ele>87.0</ele><time>2026-04-04T19:05:08.285Z</time></trkpt><trkpt lat="34.7056817" lon="10.5641767"><ele>87.0</ele><time>2026-04-04T19:05:09.286Z</time></trkpt><trkpt lat="34.7055017" lon="10.5639933"><ele>87.0</ele><time>2026-04-04T19:05:10.285Z</time></trkpt><trkpt lat="34.70532" lon="10.5638117"><ele>86.5</ele><time>2026-04-04T19:05:11.285Z</time></trkpt><trkpt lat="34.7051367" lon="10.563635"><ele>86.0</ele><time>2026-04-04T19:05:12.285Z</time></trkpt><trkpt lat="34.7049567" lon="10.5634583"><ele>86.0</ele><time>2026-04-04T19:05:13.285Z</time></trkpt><trkpt lat="34.704775" lon="10.5632833"><ele>86.0</ele><time>2026-04-04T19:05:14.283Z</time></trkpt><trkpt lat="34.7045933" lon="10.5631117"><ele>86.0</ele><time>2026-04-04T19:05:15.283Z</time></trkpt><trkpt lat="34.7044133" lon="10.5629433"><ele>86.0</ele><time>2026-04-04T19:05:16.283Z</time></trkpt><trkpt lat="34.7042317" lon="10.5627783"><ele>86.33333333333334</ele><time>2026-04-04T19:05:17.283Z</time></trkpt><trkpt lat="34.70405" lon="10.5626167"><ele>86.66666666666667</ele><time>2026-04-04T19:05:18.283Z</time></trkpt><trkpt lat="34.7038733" lon="10.5624583"><ele>87.0</ele><time>2026-04-04T19:05:19.282Z</time></trkpt><trkpt lat="34.7036967" lon="10.5623"><ele>87.0</ele><time>2026-04-04T19:05:20.282Z</time></trkpt><trkpt lat="34.7035183" lon="10.5621433"><ele>87.0</ele><time>2026-04-04T19:05:21.282Z</time></trkpt><trkpt lat="34.7033367" lon="10.5619867"><ele>87.0</ele><time>2026-04-04T19:05:22.284Z</time></trkpt><trkpt lat="34.7031533" lon="10.5618317"><ele>87.0</ele><time>2026-04-04T19:05:23.283Z</time></trkpt><trkpt lat="34.7029683" lon="10.5616783"><ele>87.0</ele><time>2026-04-04T19:05:24.282Z</time></trkpt><trkpt lat="34.7027817" lon="10.5615267"><ele>87.0</ele><time>2026-04-04T19:05:25.282Z</time></trkpt><trkpt lat="34.702595" lon="10.561375"><ele>87.5</ele><time>2026-04-04T19:05:26.282Z</time></trkpt><trkpt lat="34.702405" lon="10.561225"><ele>88.0</ele><time>2026-04-04T19:05:27.283Z</time></trkpt><trkpt lat="34.7022133" lon="10.561075"><ele>88.0</ele><time>2026-04-04T19:05:28.283Z</time></trkpt><trkpt lat="34.70202" lon="10.5609267"><ele>88.0</ele><time>2026-04-04T19:05:29.282Z</time></trkpt><trkpt lat="34.701825" lon="10.56078"><ele>86.0</ele><time>2026-04-04T19:05:30.283Z</time></trkpt><trkpt lat="34.7016283" lon="10.5606333"><ele>84.0</ele><time>2026-04-04T19:05:31.285Z</time></trkpt><trkpt lat="34.7014333" lon="10.5604867"><ele>84.5</ele><time>2026-04-04T19:05:32.286Z</time></trkpt><trkpt lat="34.7012317" lon="10.560345"><ele>85.0</ele><time>2026-04-04T19:05:33.285Z</time></trkpt><trkpt lat="34.7010317" lon="10.560205"><ele>85.0</ele><time>2026-04-04T19:05:34.286Z</time></trkpt><trkpt lat="34.7008317" lon="10.5600667"><ele>85.0</ele><time>2026-04-04T19:05:35.286Z</time></trkpt><trkpt lat="34.7006333" lon="10.5599283"><ele>85.0</ele><time>2026-04-04T19:05:36.286Z</time></trkpt><trkpt lat="34.700435" lon="10.5597883"><ele>85.0</ele><time>2026-04-04T19:05:37.283Z</time></trkpt><trkpt lat="34.700235" lon="10.55965"><ele>86.5</ele><time>2026-04-04T19:05:38.286Z</time></trkpt><trkpt lat="34.7000317" lon="10.559515"><ele>88.0</ele><time>2026-04-04T19:05:39.286Z</time></trkpt><trkpt lat="34.699825" lon="10.5593817"><ele>88.0</ele><time>2026-04-04T19:05:40.282Z</time></trkpt><trkpt lat="34.6996183" lon="10.5592483"><ele>88.0</ele><time>2026-04-04T19:05:41.284Z</time></trkpt><trkpt lat="34.69941" lon="10.559115"><ele>87.5</ele><time>2026-04-04T19:05:42.285Z</time></trkpt><trkpt lat="34.6992" lon="10.5589833"><ele>87.0</ele><time>2026-04-04T19:05:43.285Z</time></trkpt><trkpt lat="34.69899" lon="10.558855"><ele>87.0</ele><time>2026-04-04T19:05:44.285Z</time></trkpt><trkpt lat="34.69878" lon="10.55873"><ele>87.0</ele><time>2026-04-04T19:05:45.285Z</time></trkpt><trkpt lat="34.6985733" lon="10.558605"><ele>86.0</ele><time>2026-04-04T19:05:46.285Z</time></trkpt><trkpt lat="34.698365" lon="10.5584833"><ele>85.0</ele><time>2026-04-04T19:05:47.285Z</time></trkpt><trkpt lat="34.6981583" lon="10.5583667"><ele>85.0</ele><time>2026-04-04T19:05:48.283Z</time></trkpt><trkpt lat="34.6979533" lon="10.55825"><ele>85.0</ele><time>2026-04-04T19:05:49.285Z</time></trkpt><trkpt lat="34.697745" lon="10.5581383"><ele>85.0</ele><time>2026-04-04T19:05:50.285Z</time></trkpt><trkpt lat="34.6975367" lon="10.55803"><ele>85.0</ele><time>2026-04-04T19:05:51.286Z</time></trkpt><trkpt lat="34.6973267" lon="10.55792"><ele>85.0</ele><time>2026-04-04T19:05:52.283Z</time></trkpt><trkpt lat="34.6971167" lon="10.5578133"><ele>85.0</ele><time>2026-04-04T19:05:53.282Z</time></trkpt><trkpt lat="34.6969033" lon="10.5577067"><ele>85.0</ele><time>2026-04-04T19:05:54.283Z</time></trkpt><trkpt lat="34.6966917" lon="10.5575967"><ele>85.0</ele><time>2026-04-04T19:05:55.283Z</time></trkpt><trkpt lat="34.6964783" lon="10.5574883"><ele>85.0</ele><time>2026-04-04T19:05:56.283Z</time></trkpt><trkpt lat="34.696265" lon="10.55738"><ele>85.0</ele><time>2026-04-04T19:05:57.286Z</time></trkpt><trkpt lat="34.6960517" lon="10.5572733"><ele>84.5</ele><time>2026-04-04T19:05:58.286Z</time></trkpt><trkpt lat="34.6958367" lon="10.5571717"><ele>84.0</ele><time>2026-04-04T19:05:59.287Z</time></trkpt><trkpt lat="34.6956233" lon="10.5570683"><ele>83.5</ele><time>2026-04-04T19:06:00.285Z</time></trkpt><trkpt lat="34.6954067" lon="10.5569617"><ele>83.0</ele><time>2026-04-04T19:06:01.285Z</time></trkpt><trkpt lat="34.69519" lon="10.5568533"><ele>83.0</ele><time>2026-04-04T19:06:02.282Z</time></trkpt><trkpt lat="34.6949733" lon="10.5567467"><ele>83.0</ele><time>2026-04-04T19:06:03.285Z</time></trkpt><trkpt lat="34.6947583" lon="10.5566417"><ele>83.0</ele><time>2026-04-04T19:06:04.285Z</time></trkpt><trkpt lat="34.6945433" lon="10.556535"><ele>83.0</ele><time>2026-04-04T19:06:05.286Z</time></trkpt><trkpt lat="34.6943267" lon="10.55643"><ele>82.0</ele><time>2026-04-04T19:06:06.283Z</time></trkpt><trkpt lat="34.6941083" lon="10.556325"><ele>81.0</ele><time>2026-04-04T19:06:07.285Z</time></trkpt><trkpt lat="34.6938917" lon="10.55622"><ele>80.5</ele><time>2026-04-04T19:06:08.285Z</time></trkpt><trkpt lat="34.6936717" lon="10.556115"><ele>80.0</ele><time>2026-04-04T19:06:09.286Z</time></trkpt><trkpt lat="34.6934567" lon="10.5560067"><ele>77.0</ele><time>2026-04-04T19:06:10.285Z</time></trkpt><trkpt lat="34.69324" lon="10.5559"><ele>74.0</ele><time>2026-04-04T19:06:11.286Z</time></trkpt><trkpt lat="34.6930233" lon="10.555795"><ele>74.0</ele><time>2026-04-04T19:06:12.286Z</time></trkpt><trkpt lat="34.6928083" lon="10.5556867"><ele>74.0</ele><time>2026-04-04T19:06:13.285Z</time></trkpt><trkpt lat="34.69259" lon="10.55558"><ele>72.0</ele><time>2026-04-04T19:06:14.282Z</time></trkpt><trkpt lat="34.6923733" lon="10.5554717"><ele>70.0</ele><time>2026-04-04T19:06:15.282Z</time></trkpt><trkpt lat="34.692155" lon="10.5553633"><ele>70.0</ele><time>2026-04-04T19:06:16.282Z</time></trkpt><trkpt lat="34.6919333" lon="10.5552533"><ele>70.0</ele><time>2026-04-04T19:06:17.283Z</time></trkpt><trkpt lat="34.69171" lon="10.555145"><ele>69.0</ele><time>2026-04-04T19:06:18.283Z</time></trkpt><trkpt lat="34.6914867" lon="10.555035"><ele>68.0</ele><time>2026-04-04T19:06:19.283Z</time></trkpt><trkpt lat="34.69126" lon="10.5549217"><ele>67.0</ele><time>2026-04-04T19:06:20.283Z</time></trkpt><trkpt lat="34.6910317" lon="10.5548083"><ele>66.0</ele><time>2026-04-04T19:06:21.282Z</time></trkpt><trkpt lat="34.6908033" lon="10.5546917"><ele>66.0</ele><time>2026-04-04T19:06:22.283Z</time></trkpt><trkpt lat="34.6905733" lon="10.5545767"><ele>66.0</ele><time>2026-04-04T19:06:23.282Z</time></trkpt><trkpt lat="34.690345" lon="10.5544633"><ele>66.5</ele><time>2026-04-04T19:06:24.286Z</time></trkpt><trkpt lat="34.6901183" lon="10.5543517"><ele>67.0</ele><time>2026-04-04T19:06:25.283Z</time></trkpt><trkpt lat="34.68989" lon="10.5542417"><ele>67.0</ele><time>2026-04-04T19:06:26.284Z</time></trkpt><trkpt lat="34.689665" lon="10.554135"><ele>67.0</ele><time>2026-04-04T19:06:27.282Z</time></trkpt><trkpt lat="34.68944" lon="10.5540283"><ele>70.0</ele><time>2026-04-04T19:06:28.282Z</time></trkpt><trkpt lat="34.6892167" lon="10.55392"><ele>73.0</ele><time>2026-04-04T19:06:29.282Z</time></trkpt><trkpt lat="34.6889917" lon="10.55381"><ele>74.0</ele><time>2026-04-04T19:06:30.283Z</time></trkpt><trkpt lat="34.688765" lon="10.5537"><ele>75.0</ele><time>2026-04-04T19:06:31.283Z</time></trkpt><trkpt lat="34.6885417" lon="10.5535917"><ele>76.0</ele><time>2026-04-04T19:06:32.282Z</time></trkpt><trkpt lat="34.6883183" lon="10.553485"><ele>77.0</ele><time>2026-04-04T19:06:33.282Z</time></trkpt><trkpt lat="34.6880967" lon="10.5533767"><ele>77.0</ele><time>2026-04-04T19:06:34.283Z</time></trkpt><trkpt lat="34.6878767" lon="10.5532683"><ele>77.0</ele><time>2026-04-04T19:06:35.283Z</time></trkpt><trkpt lat="34.6876567" lon="10.55316"><ele>78.0</ele><time>2026-04-04T19:06:36.283Z</time></trkpt><trkpt lat="34.687435" lon="10.5530517"><ele>79.0</ele><time>2026-04-04T19:06:37.283Z</time></trkpt><trkpt lat="34.6872133" lon="10.5529417"><ele>79.5</ele><time>2026-04-04T19:06:38.283Z</time></trkpt><trkpt lat="34.6869917" lon="10.5528317"><ele>80.0</ele><time>2026-04-04T19:06:39.282Z</time></trkpt><trkpt lat="34.686765" lon="10.5527217"><ele>80.5</ele><time>2026-04-04T19:06:40.282Z</time></trkpt><trkpt lat="34.6865417" lon="10.5526133"><ele>81.0</ele><time>2026-04-04T19:06:41.282Z</time></trkpt><trkpt lat="34.6863167" lon="10.5525033"><ele>80.0</ele><time>2026-04-04T19:06:42.286Z</time></trkpt><trkpt lat="34.6860917" lon="10.55239"><ele>79.0</ele><time>2026-04-04T19:06:43.282Z</time></trkpt><trkpt lat="34.685865" lon="10.552275"><ele>79.0</ele><time>2026-04-04T19:06:44.284Z</time></trkpt><trkpt lat="34.68564" lon="10.552155"><ele>79.0</ele><time>2026-04-04T19:06:45.284Z</time></trkpt><trkpt lat="34.6854117" lon="10.5520383"><ele>78.0</ele><time>2026-04-04T19:06:46.282Z</time></trkpt><trkpt lat="34.685185" lon="10.55192"><ele>77.0</ele><time>2026-04-04T19:06:47.284Z</time></trkpt><trkpt lat="34.68496" lon="10.5517983"><ele>77.0</ele><time>2026-04-04T19:06:48.284Z</time></trkpt><trkpt lat="34.6847367" lon="10.5516783"><ele>77.0</ele><time>2026-04-04T19:06:49.281Z</time></trkpt><trkpt lat="34.684515" lon="10.5515533"><ele>77.5</ele><time>2026-04-04T19:06:50.283Z</time></trkpt><trkpt lat="34.6842917" lon="10.5514283"><ele>78.0</ele><time>2026-04-04T19:06:51.285Z</time></trkpt><trkpt lat="34.6840733" lon="10.5513033"><ele>78.0</ele><time>2026-04-04T19:06:52.285Z</time></trkpt><trkpt lat="34.6838567" lon="10.5511767"><ele>78.0</ele><time>2026-04-04T19:06:53.285Z</time></trkpt><trkpt lat="34.6836433" lon="10.5510467"><ele>78.0</ele><time>2026-04-04T19:06:54.285Z</time></trkpt><trkpt lat="34.68343" lon="10.5509117"><ele>78.0</ele><time>2026-04-04T19:06:55.283Z</time></trkpt><trkpt lat="34.6832183" lon="10.550775"><ele>78.0</ele><time>2026-04-04T19:06:56.284Z</time></trkpt><trkpt lat="34.68301" lon="10.5506367"><ele>78.0</ele><time>2026-04-04T19:06:57.281Z</time></trkpt><trkpt lat="34.6828017" lon="10.5504967"><ele>78.0</ele><time>2026-04-04T19:06:58.284Z</time></trkpt><trkpt lat="34.682595" lon="10.550355"><ele>78.0</ele><time>2026-04-04T19:06:59.284Z</time></trkpt><trkpt lat="34.68239" lon="10.55021"><ele>78.0</ele><time>2026-04-04T19:07:00.283Z</time></trkpt><trkpt lat="34.6821833" lon="10.550065"><ele>78.0</ele><time>2026-04-04T19:07:01.282Z</time></trkpt><trkpt lat="34.68198" lon="10.5499183"><ele>78.0</ele><time>2026-04-04T19:07:02.285Z</time></trkpt><trkpt lat="34.6817767" lon="10.54977"><ele>78.0</ele><time>2026-04-04T19:07:03.284Z</time></trkpt><trkpt lat="34.6815767" lon="10.54962"><ele>78.0</ele><time>2026-04-04T19:07:04.284Z</time></trkpt><trkpt lat="34.6813783" lon="10.5494667"><ele>78.0</ele><time>2026-04-04T19:07:05.282Z</time></trkpt><trkpt lat="34.6811783" lon="10.5493133"><ele>78.0</ele><time>2026-04-04T19:07:06.282Z</time></trkpt><trkpt lat="34.6809783" lon="10.5491567"><ele>78.0</ele><time>2026-04-04T19:07:07.287Z</time></trkpt><trkpt lat="34.6807783" lon="10.5489967"><ele>78.0</ele><time>2026-04-04T19:07:08.284Z</time></trkpt><trkpt lat="34.68058" lon="10.54883"><ele>78.0</ele><time>2026-04-04T19:07:09.284Z</time></trkpt><trkpt lat="34.68038" lon="10.5486617"><ele>77.0</ele><time>2026-04-04T19:07:10.284Z</time></trkpt><trkpt lat="34.6801817" lon="10.54849"><ele>76.0</ele><time>2026-04-04T19:07:11.284Z</time></trkpt><trkpt lat="34.6799817" lon="10.5483183"><ele>76.0</ele><time>2026-04-04T19:07:12.282Z</time></trkpt><trkpt lat="34.679785" lon="10.5481433"><ele>76.0</ele><time>2026-04-04T19:07:13.284Z</time></trkpt><trkpt lat="34.67959" lon="10.54797"><ele>76.0</ele><time>2026-04-04T19:07:14.284Z</time></trkpt><trkpt lat="34.6793983" lon="10.54779"><ele>76.0</ele><time>2026-04-04T19:07:15.285Z</time></trkpt><trkpt lat="34.6792117" lon="10.5476067"><ele>76.0</ele><time>2026-04-04T19:07:16.284Z</time></trkpt><trkpt lat="34.6790233" lon="10.5474233"><ele>76.0</ele><time>2026-04-04T19:07:17.284Z</time></trkpt><trkpt lat="34.6788367" lon="10.5472383"><ele>76.0</ele><time>2026-04-04T19:07:18.286Z</time></trkpt><trkpt lat="34.6786517" lon="10.5470483"><ele>76.0</ele><time>2026-04-04T19:07:19.285Z</time></trkpt><trkpt lat="34.6784683" lon="10.5468583"><ele>75.5</ele><time>2026-04-04T19:07:20.284Z</time></trkpt><trkpt lat="34.6782867" lon="10.5466633"><ele>75.0</ele><time>2026-04-04T19:07:21.285Z</time></trkpt><trkpt lat="34.6781017" lon="10.5464667"><ele>75.0</ele><time>2026-04-04T19:07:22.284Z</time></trkpt><trkpt lat="34.67792" lon="10.5462667"><ele>75.0</ele><time>2026-04-04T19:07:23.284Z</time></trkpt><trkpt lat="34.677735" lon="10.5460667"><ele>74.0</ele><time>2026-04-04T19:07:24.285Z</time></trkpt><trkpt lat="34.6775517" lon="10.5458617"><ele>73.0</ele><time>2026-04-04T19:07:25.284Z</time></trkpt><trkpt lat="34.67737" lon="10.5456567"><ele>73.0</ele><time>2026-04-04T19:07:26.284Z</time></trkpt><trkpt lat="34.67719" lon="10.5454483"><ele>73.0</ele><time>2026-04-04T19:07:27.286Z</time></trkpt><trkpt lat="34.6770083" lon="10.5452383"><ele>71.0</ele><time>2026-04-04T19:07:28.284Z</time></trkpt><trkpt lat="34.6768317" lon="10.545025"><ele>69.0</ele><time>2026-04-04T19:07:29.285Z</time></trkpt><trkpt lat="34.6766533" lon="10.5448083"><ele>69.0</ele><time>2026-04-04T19:07:30.285Z</time></trkpt><trkpt lat="34.6764783" lon="10.5445917"><ele>69.0</ele><time>2026-04-04T19:07:31.285Z</time></trkpt><trkpt lat="34.6763067" lon="10.5443733"><ele>70.5</ele><time>2026-04-04T19:07:32.284Z</time></trkpt><trkpt lat="34.67614" lon="10.5441517"><ele>72.0</ele><time>2026-04-04T19:07:33.285Z</time></trkpt><trkpt lat="34.6759683" lon="10.54393"><ele>75.0</ele><time>2026-04-04T19:07:34.284Z</time></trkpt><trkpt lat="34.6758" lon="10.5437067"><ele>78.0</ele><time>2026-04-04T19:07:35.285Z</time></trkpt><trkpt lat="34.6756317" lon="10.5434833"><ele>78.0</ele><time>2026-04-04T19:07:36.285Z</time></trkpt><trkpt lat="34.675465" lon="10.5432567"><ele>78.0</ele><time>2026-04-04T19:07:37.285Z</time></trkpt><trkpt lat="34.6753017" lon="10.543025"><ele>78.5</ele><time>2026-04-04T19:07:38.284Z</time></trkpt><trkpt lat="34.6751433" lon="10.54279"><ele>79.0</ele><time>2026-04-04T19:07:39.285Z</time></trkpt><trkpt lat="34.6749883" lon="10.542555"><ele>79.0</ele><time>2026-04-04T19:07:40.285Z</time></trkpt><trkpt lat="34.674835" lon="10.5423183"><ele>79.0</ele><time>2026-04-04T19:07:41.285Z</time></trkpt><trkpt lat="34.6746817" lon="10.5420833"><ele>79.0</ele><time>2026-04-04T19:07:42.286Z</time></trkpt><trkpt lat="34.67453" lon="10.541845"><ele>79.0</ele><time>2026-04-04T19:07:43.285Z</time></trkpt><trkpt lat="34.67438" lon="10.5416033"><ele>79.0</ele><time>2026-04-04T19:07:44.284Z</time></trkpt><trkpt lat="34.6742317" lon="10.54136"><ele>79.0</ele><time>2026-04-04T19:07:45.285Z</time></trkpt><trkpt lat="34.6740867" lon="10.5411133"><ele>79.0</ele><time>2026-04-04T19:07:46.284Z</time></trkpt><trkpt lat="34.6739417" lon="10.540865"><ele>79.0</ele><time>2026-04-04T19:07:47.285Z</time></trkpt><trkpt lat="34.6737967" lon="10.5406167"><ele>79.0</ele><time>2026-04-04T19:07:48.285Z</time></trkpt><trkpt lat="34.6736533" lon="10.54037"><ele>79.0</ele><time>2026-04-04T19:07:49.284Z</time></trkpt><trkpt lat="34.67351" lon="10.5401267"><ele>79.0</ele><time>2026-04-04T19:07:50.285Z</time></trkpt><trkpt lat="34.6733717" lon="10.5398833"><ele>79.0</ele><time>2026-04-04T19:07:51.285Z</time></trkpt><trkpt lat="34.673235" lon="10.5396433"><ele>79.5</ele><time>2026-04-04T19:07:52.284Z</time></trkpt><trkpt lat="34.6730983" lon="10.5394"><ele>80.0</ele><time>2026-04-04T19:07:53.285Z</time></trkpt><trkpt lat="34.67296" lon="10.5391567"><ele>80.0</ele><time>2026-04-04T19:07:54.285Z</time></trkpt><trkpt lat="34.67282" lon="10.53891"><ele>80.0</ele><time>2026-04-04T19:07:55.284Z</time></trkpt><trkpt lat="34.67268" lon="10.5386633"><ele>79.0</ele><time>2026-04-04T19:07:56.284Z</time></trkpt><trkpt lat="34.67254" lon="10.5384133"><ele>78.0</ele><time>2026-04-04T19:07:57.284Z</time></trkpt><trkpt lat="34.6724" lon="10.5381633"><ele>78.0</ele><time>2026-04-04T19:07:58.284Z</time></trkpt><trkpt lat="34.6722567" lon="10.5379133"><ele>78.0</ele><time>2026-04-04T19:07:59.284Z</time></trkpt><trkpt lat="34.67211" lon="10.53766"><ele>78.0</ele><time>2026-04-04T19:08:00.285Z</time></trkpt><trkpt lat="34.6719617" lon="10.537405"><ele>78.0</ele><time>2026-04-04T19:08:01.285Z</time></trkpt><trkpt lat="34.6718133" lon="10.5371483"><ele>76.5</ele><time>2026-04-04T19:08:02.284Z</time></trkpt><trkpt lat="34.67167" lon="10.536895"><ele>75.0</ele><time>2026-04-04T19:08:03.282Z</time></trkpt><trkpt lat="34.671525" lon="10.5366433"><ele>75.0</ele><time>2026-04-04T19:08:04.282Z</time></trkpt><trkpt lat="34.6713817" lon="10.5363917"><ele>75.0</ele><time>2026-04-04T19:08:05.283Z</time></trkpt><trkpt lat="34.671235" lon="10.536145"><ele>75.5</ele><time>2026-04-04T19:08:06.282Z</time></trkpt><trkpt lat="34.6710933" lon="10.5358983"><ele>76.0</ele><time>2026-04-04T19:08:07.283Z</time></trkpt><trkpt lat="34.6709533" lon="10.5356533"><ele>76.0</ele><time>2026-04-04T19:08:08.282Z</time></trkpt><trkpt lat="34.6708117" lon="10.53541"><ele>76.0</ele><time>2026-04-04T19:08:09.284Z</time></trkpt><trkpt lat="34.6706717" lon="10.5351667"><ele>77.5</ele><time>2026-04-04T19:08:10.285Z</time></trkpt><trkpt lat="34.6705367" lon="10.5349217"><ele>79.0</ele><time>2026-04-04T19:08:11.284Z</time></trkpt><trkpt lat="34.6703967" lon="10.534675"><ele>77.5</ele><time>2026-04-04T19:08:12.286Z</time></trkpt><trkpt lat="34.670255" lon="10.53443"><ele>76.0</ele><time>2026-04-04T19:08:13.286Z</time></trkpt><trkpt lat="34.6701117" lon="10.5341833"><ele>76.0</ele><time>2026-04-04T19:08:14.286Z</time></trkpt><trkpt lat="34.6699733" lon="10.5339367"><ele>76.0</ele><time>2026-04-04T19:08:15.286Z</time></trkpt><trkpt lat="34.669835" lon="10.5336867"><ele>76.5</ele><time>2026-04-04T19:08:16.285Z</time></trkpt><trkpt lat="34.669695" lon="10.53344"><ele>77.0</ele><time>2026-04-04T19:08:17.285Z</time></trkpt><trkpt lat="34.669555" lon="10.5331967"><ele>76.0</ele><time>2026-04-04T19:08:18.285Z</time></trkpt><trkpt lat="34.669415" lon="10.5329533"><ele>75.0</ele><time>2026-04-04T19:08:19.285Z</time></trkpt><trkpt lat="34.669275" lon="10.53271"><ele>75.0</ele><time>2026-04-04T19:08:20.284Z</time></trkpt><trkpt lat="34.6691367" lon="10.53247"><ele>75.0</ele><time>2026-04-04T19:08:21.285Z</time></trkpt><trkpt lat="34.6689967" lon="10.53223"><ele>74.0</ele><time>2026-04-04T19:08:22.285Z</time></trkpt><trkpt lat="34.6688583" lon="10.5319883"><ele>73.0</ele><time>2026-04-04T19:08:23.286Z</time></trkpt><trkpt lat="34.6687233" lon="10.5317467"><ele>72.5</ele><time>2026-04-04T19:08:24.286Z</time></trkpt><trkpt lat="34.6685883" lon="10.5315067"><ele>72.0</ele><time>2026-04-04T19:08:25.285Z</time></trkpt><trkpt lat="34.6684533" lon="10.531265"><ele>74.0</ele><time>2026-04-04T19:08:26.284Z</time></trkpt><trkpt lat="34.6683167" lon="10.531025"><ele>76.0</ele><time>2026-04-04T19:08:27.285Z</time></trkpt><trkpt lat="34.6681817" lon="10.5307833"><ele>76.0</ele><time>2026-04-04T19:08:28.286Z</time></trkpt><trkpt lat="34.668045" lon="10.5305383"><ele>76.0</ele><time>2026-04-04T19:08:29.284Z</time></trkpt><trkpt lat="34.6679083" lon="10.530295"><ele>79.0</ele><time>2026-04-04T19:08:30.286Z</time></trkpt><trkpt lat="34.6677667" lon="10.5300533"><ele>82.0</ele><time>2026-04-04T19:08:31.285Z</time></trkpt><trkpt lat="34.6676267" lon="10.5298133"><ele>82.0</ele><time>2026-04-04T19:08:32.286Z</time></trkpt><trkpt lat="34.667485" lon="10.5295767"><ele>82.0</ele><time>2026-04-04T19:08:33.282Z</time></trkpt><trkpt lat="34.66735" lon="10.5293383"><ele>81.5</ele><time>2026-04-04T19:08:34.285Z</time></trkpt><trkpt lat="34.6672183" lon="10.5291017"><ele>81.0</ele><time>2026-04-04T19:08:35.283Z</time></trkpt><trkpt lat="34.6670867" lon="10.5288633"><ele>82.0</ele><time>2026-04-04T19:08:36.283Z</time></trkpt><trkpt lat="34.666955" lon="10.5286233"><ele>83.0</ele><time>2026-04-04T19:08:37.282Z</time></trkpt><trkpt lat="34.6668167" lon="10.528385"><ele>83.5</ele><time>2026-04-04T19:08:38.283Z</time></trkpt><trkpt lat="34.6666767" lon="10.528145"><ele>84.0</ele><time>2026-04-04T19:08:39.282Z</time></trkpt><trkpt lat="34.66654" lon="10.5279067"><ele>85.0</ele><time>2026-04-04T19:08:40.285Z</time></trkpt><trkpt lat="34.6664033" lon="10.5276633"><ele>86.0</ele><time>2026-04-04T19:08:41.286Z</time></trkpt><trkpt lat="34.66627" lon="10.5274217"><ele>86.0</ele><time>2026-04-04T19:08:42.286Z</time></trkpt><trkpt lat="34.666135" lon="10.5271783"><ele>86.0</ele><time>2026-04-04T19:08:43.285Z</time></trkpt><trkpt lat="34.6659967" lon="10.526935"><ele>85.5</ele><time>2026-04-04T19:08:44.286Z</time></trkpt><trkpt lat="34.6658567" lon="10.5266917"><ele>85.0</ele><time>2026-04-04T19:08:45.285Z</time></trkpt><trkpt lat="34.66572" lon="10.52645"><ele>86.0</ele><time>2026-04-04T19:08:46.285Z</time></trkpt><trkpt lat="34.6655817" lon="10.5262083"><ele>87.0</ele><time>2026-04-04T19:08:47.285Z</time></trkpt><trkpt lat="34.6654433" lon="10.5259667"><ele>87.0</ele><time>2026-04-04T19:08:48.286Z</time></trkpt><trkpt lat="34.6653017" lon="10.5257267"><ele>87.0</ele><time>2026-04-04T19:08:49.285Z</time></trkpt><trkpt lat="34.66516" lon="10.5254833"><ele>87.0</ele><time>2026-04-04T19:08:50.286Z</time></trkpt><trkpt lat="34.6650217" lon="10.52524"><ele>87.0</ele><time>2026-04-04T19:08:51.285Z</time></trkpt><trkpt lat="34.66488" lon="10.5249967"><ele>87.0</ele><time>2026-04-04T19:08:52.285Z</time></trkpt><trkpt lat="34.66474" lon="10.5247533"><ele>87.0</ele><time>2026-04-04T19:08:53.285Z</time></trkpt><trkpt lat="34.664595" lon="10.5245067"><ele>87.0</ele><time>2026-04-04T19:08:54.289Z</time></trkpt><trkpt lat="34.664455" lon="10.52426"><ele>87.0</ele><time>2026-04-04T19:08:55.286Z</time></trkpt><trkpt lat="34.6643117" lon="10.5240133"><ele>87.0</ele><time>2026-04-04T19:08:56.285Z</time></trkpt><trkpt lat="34.6641717" lon="10.5237617"><ele>87.0</ele><time>2026-04-04T19:08:57.286Z</time></trkpt><trkpt lat="34.6640283" lon="10.523515"><ele>87.5</ele><time>2026-04-04T19:08:58.286Z</time></trkpt><trkpt lat="34.6638883" lon="10.5232683"><ele>88.0</ele><time>2026-04-04T19:08:59.285Z</time></trkpt><trkpt lat="34.6637533" lon="10.5230233"><ele>88.0</ele><time>2026-04-04T19:09:00.285Z</time></trkpt><trkpt lat="34.6636183" lon="10.5227767"><ele>88.0</ele><time>2026-04-04T19:09:01.286Z</time></trkpt><trkpt lat="34.66348" lon="10.5225367"><ele>88.0</ele><time>2026-04-04T19:09:02.286Z</time></trkpt><trkpt lat="34.6633433" lon="10.5222967"><ele>88.0</ele><time>2026-04-04T19:09:03.282Z</time></trkpt><trkpt lat="34.6632067" lon="10.5220567"><ele>87.5</ele><time>2026-04-04T19:09:04.284Z</time></trkpt><trkpt lat="34.6630683" lon="10.521815"><ele>87.0</ele><time>2026-04-04T19:09:05.283Z</time></trkpt><trkpt lat="34.66293" lon="10.5215717"><ele>87.0</ele><time>2026-04-04T19:09:06.284Z</time></trkpt><trkpt lat="34.6627917" lon="10.5213267"><ele>87.0</ele><time>2026-04-04T19:09:07.283Z</time></trkpt><trkpt lat="34.66265" lon="10.5210817"><ele>83.5</ele><time>2026-04-04T19:09:08.282Z</time></trkpt><trkpt lat="34.6625083" lon="10.5208367"><ele>80.0</ele><time>2026-04-04T19:09:09.283Z</time></trkpt><trkpt lat="34.6623667" lon="10.5205917"><ele>78.0</ele><time>2026-04-04T19:09:10.285Z</time></trkpt><trkpt lat="34.6622267" lon="10.5203483"><ele>76.0</ele><time>2026-04-04T19:09:11.286Z</time></trkpt><trkpt lat="34.6620833" lon="10.52011"><ele>76.0</ele><time>2026-04-04T19:09:12.285Z</time></trkpt><trkpt lat="34.66195" lon="10.51987"><ele>76.0</ele><time>2026-04-04T19:09:13.285Z</time></trkpt><trkpt lat="34.661815" lon="10.5196333"><ele>74.0</ele><time>2026-04-04T19:09:14.285Z</time></trkpt><trkpt lat="34.6616817" lon="10.519395"><ele>72.0</ele><time>2026-04-04T19:09:15.285Z</time></trkpt><trkpt lat="34.6615417" lon="10.5191567"><ele>72.0</ele><time>2026-04-04T19:09:16.285Z</time></trkpt><trkpt lat="34.6614" lon="10.5189167"><ele>72.0</ele><time>2026-04-04T19:09:17.285Z</time></trkpt><trkpt lat="34.6612567" lon="10.5186733"><ele>74.5</ele><time>2026-04-04T19:09:18.285Z</time></trkpt><trkpt lat="34.6611133" lon="10.5184317"><ele>77.0</ele><time>2026-04-04T19:09:19.285Z</time></trkpt><trkpt lat="34.6609683" lon="10.51819"><ele>77.0</ele><time>2026-04-04T19:09:20.287Z</time></trkpt><trkpt lat="34.6608267" lon="10.5179467"><ele>77.0</ele><time>2026-04-04T19:09:21.285Z</time></trkpt><trkpt lat="34.660685" lon="10.517705"><ele>78.5</ele><time>2026-04-04T19:09:22.285Z</time></trkpt><trkpt lat="34.6605433" lon="10.5174617"><ele>80.0</ele><time>2026-04-04T19:09:23.286Z</time></trkpt><trkpt lat="34.6603967" lon="10.5172183"><ele>79.5</ele><time>2026-04-04T19:09:24.285Z</time></trkpt><trkpt lat="34.6602467" lon="10.5169783"><ele>79.0</ele><time>2026-04-04T19:09:25.285Z</time></trkpt><trkpt lat="34.6600983" lon="10.5167367"><ele>79.0</ele><time>2026-04-04T19:09:26.286Z</time></trkpt><trkpt lat="34.65995" lon="10.5164933"><ele>79.0</ele><time>2026-04-04T19:09:27.285Z</time></trkpt><trkpt lat="34.6598" lon="10.5162483"><ele>79.0</ele><time>2026-04-04T19:09:28.285Z</time></trkpt><trkpt lat="34.6596467" lon="10.516005"><ele>79.0</ele><time>2026-04-04T19:09:29.285Z</time></trkpt><trkpt lat="34.659495" lon="10.5157633"><ele>79.5</ele><time>2026-04-04T19:09:30.285Z</time></trkpt><trkpt lat="34.6593417" lon="10.51552"><ele>80.0</ele><time>2026-04-04T19:09:31.285Z</time></trkpt><trkpt lat="34.6591883" lon="10.5152783"><ele>80.5</ele><time>2026-04-04T19:09:32.287Z</time></trkpt><trkpt lat="34.6590383" lon="10.5150367"><ele>81.0</ele><time>2026-04-04T19:09:33.282Z</time></trkpt><trkpt lat="34.6588833" lon="10.5147967"><ele>81.0</ele><time>2026-04-04T19:09:34.283Z</time></trkpt><trkpt lat="34.65873" lon="10.514555"><ele>81.0</ele><time>2026-04-04T19:09:35.282Z</time></trkpt><trkpt lat="34.6585783" lon="10.514315"><ele>81.0</ele><time>2026-04-04T19:09:36.283Z</time></trkpt><trkpt lat="34.6584267" lon="10.5140767"><ele>81.0</ele><time>2026-04-04T19:09:37.282Z</time></trkpt><trkpt lat="34.6582733" lon="10.5138417"><ele>81.0</ele><time>2026-04-04T19:09:38.285Z</time></trkpt><trkpt lat="34.6581183" lon="10.5136083"><ele>81.0</ele><time>2026-04-04T19:09:39.282Z</time></trkpt><trkpt lat="34.6579617" lon="10.5133783"><ele>81.0</ele><time>2026-04-04T19:09:40.285Z</time></trkpt><trkpt lat="34.657805" lon="10.5131483"><ele>81.0</ele><time>2026-04-04T19:09:41.285Z</time></trkpt><trkpt lat="34.6576467" lon="10.5129183"><ele>80.0</ele><time>2026-04-04T19:09:42.284Z</time></trkpt><trkpt lat="34.65749" lon="10.5126883"><ele>79.0</ele><time>2026-04-04T19:09:43.284Z</time></trkpt><trkpt lat="34.6573333" lon="10.5124583"><ele>79.0</ele><time>2026-04-04T19:09:44.284Z</time></trkpt><trkpt lat="34.6571783" lon="10.5122317"><ele>79.0</ele><time>2026-04-04T19:09:45.284Z</time></trkpt><trkpt lat="34.65702" lon="10.5120067"><ele>78.0</ele><time>2026-04-04T19:09:46.285Z</time></trkpt><trkpt lat="34.6568667" lon="10.51178"><ele>77.0</ele><time>2026-04-04T19:09:47.284Z</time></trkpt><trkpt lat="34.6567117" lon="10.5115533"><ele>77.0</ele><time>2026-04-04T19:09:48.284Z</time></trkpt><trkpt lat="34.6565567" lon="10.5113267"><ele>77.0</ele><time>2026-04-04T19:09:49.285Z</time></trkpt><trkpt lat="34.6564017" lon="10.5110983"><ele>76.0</ele><time>2026-04-04T19:09:50.285Z</time></trkpt><trkpt lat="34.6562483" lon="10.5108683"><ele>75.0</ele><time>2026-04-04T19:09:51.285Z</time></trkpt><trkpt lat="34.656095" lon="10.5106417"><ele>74.5</ele><time>2026-04-04T19:09:52.284Z</time></trkpt><trkpt lat="34.65594" lon="10.5104167"><ele>74.0</ele><time>2026-04-04T19:09:53.285Z</time></trkpt><trkpt lat="34.6557867" lon="10.5101933"><ele>76.0</ele><time>2026-04-04T19:09:54.285Z</time></trkpt><trkpt lat="34.655635" lon="10.50997"><ele>78.0</ele><time>2026-04-04T19:09:55.284Z</time></trkpt><trkpt lat="34.6554833" lon="10.509745"><ele>79.0</ele><time>2026-04-04T19:09:56.284Z</time></trkpt><trkpt lat="34.6553317" lon="10.5095183"><ele>80.0</ele><time>2026-04-04T19:09:57.284Z</time></trkpt><trkpt lat="34.65518" lon="10.5092933"><ele>78.0</ele><time>2026-04-04T19:09:58.285Z</time></trkpt><trkpt lat="34.655025" lon="10.509065"><ele>76.0</ele><time>2026-04-04T19:09:59.284Z</time></trkpt><trkpt lat="34.6548667" lon="10.5088383"><ele>75.0</ele><time>2026-04-04T19:10:00.284Z</time></trkpt><trkpt lat="34.65471" lon="10.5086117"><ele>74.0</ele><time>2026-04-04T19:10:01.284Z</time></trkpt><trkpt lat="34.6545533" lon="10.5083817"><ele>73.0</ele><time>2026-04-04T19:10:02.285Z</time></trkpt><trkpt lat="34.6543967" lon="10.5081517"><ele>72.0</ele><time>2026-04-04T19:10:03.284Z</time></trkpt><trkpt lat="34.6542383" lon="10.50792"><ele>71.0</ele><time>2026-04-04T19:10:04.284Z</time></trkpt><trkpt lat="34.65408" lon="10.5076867"><ele>70.0</ele><time>2026-04-04T19:10:05.284Z</time></trkpt><trkpt lat="34.6539217" lon="10.5074517"><ele>70.0</ele><time>2026-04-04T19:10:06.284Z</time></trkpt><trkpt lat="34.6537633" lon="10.5072167"><ele>70.0</ele><time>2026-04-04T19:10:07.284Z</time></trkpt><trkpt lat="34.653605" lon="10.5069817"><ele>68.5</ele><time>2026-04-04T19:10:08.284Z</time></trkpt><trkpt lat="34.653445" lon="10.5067467"><ele>67.0</ele><time>2026-04-04T19:10:09.284Z</time></trkpt><trkpt lat="34.6532817" lon="10.50651"><ele>67.0</ele><time>2026-04-04T19:10:10.284Z</time></trkpt><trkpt lat="34.6531183" lon="10.5062733"><ele>67.0</ele><time>2026-04-04T19:10:11.285Z</time></trkpt><trkpt lat="34.6529567" lon="10.5060383"><ele>67.0</ele><time>2026-04-04T19:10:12.284Z</time></trkpt><trkpt lat="34.652795" lon="10.505805"><ele>67.0</ele><time>2026-04-04T19:10:13.285Z</time></trkpt><trkpt lat="34.652635" lon="10.50557"><ele>67.5</ele><time>2026-04-04T19:10:14.285Z</time></trkpt><trkpt lat="34.6524767" lon="10.5053383"><ele>68.0</ele><time>2026-04-04T19:10:15.285Z</time></trkpt><trkpt lat="34.6523183" lon="10.50511"><ele>68.0</ele><time>2026-04-04T19:10:16.285Z</time></trkpt><trkpt lat="34.65216" lon="10.50488"><ele>68.0</ele><time>2026-04-04T19:10:17.285Z</time></trkpt><trkpt lat="34.6520033" lon="10.50465"><ele>70.0</ele><time>2026-04-04T19:10:18.285Z</time></trkpt><trkpt lat="34.65185" lon="10.5044183"><ele>72.0</ele><time>2026-04-04T19:10:19.284Z</time></trkpt><trkpt lat="34.6516983" lon="10.5041883"><ele>72.0</ele><time>2026-04-04T19:10:20.284Z</time></trkpt><trkpt lat="34.651545" lon="10.5039583"><ele>72.0</ele><time>2026-04-04T19:10:21.285Z</time></trkpt><trkpt lat="34.6513933" lon="10.5037267"><ele>71.5</ele><time>2026-04-04T19:10:22.284Z</time></trkpt><trkpt lat="34.6512367" lon="10.5034967"><ele>71.0</ele><time>2026-04-04T19:10:23.285Z</time></trkpt><trkpt lat="34.65108" lon="10.5032667"><ele>71.0</ele><time>2026-04-04T19:10:24.285Z</time></trkpt><trkpt lat="34.6509233" lon="10.5030367"><ele>71.0</ele><time>2026-04-04T19:10:25.285Z</time></trkpt><trkpt lat="34.650765" lon="10.5028083"><ele>70.5</ele><time>2026-04-04T19:10:26.284Z</time></trkpt><trkpt lat="34.650605" lon="10.50258"><ele>70.0</ele><time>2026-04-04T19:10:27.284Z</time></trkpt><trkpt lat="34.6504483" lon="10.5023567"><ele>68.0</ele><time>2026-04-04T19:10:28.284Z</time></trkpt><trkpt lat="34.6502867" lon="10.502135"><ele>66.0</ele><time>2026-04-04T19:10:29.285Z</time></trkpt><trkpt lat="34.6501267" lon="10.50191"><ele>66.0</ele><time>2026-04-04T19:10:30.285Z</time></trkpt><trkpt lat="34.6499617" lon="10.50169"><ele>66.0</ele><time>2026-04-04T19:10:31.285Z</time></trkpt><trkpt lat="34.6497967" lon="10.5014683"><ele>65.5</ele><time>2026-04-04T19:10:32.284Z</time></trkpt><trkpt lat="34.6496267" lon="10.5012467"><ele>65.0</ele><time>2026-04-04T19:10:33.284Z</time></trkpt><trkpt lat="34.6494583" lon="10.5010233"><ele>65.0</ele><time>2026-04-04T19:10:34.285Z</time></trkpt><trkpt lat="34.649285" lon="10.5008017"><ele>65.0</ele><time>2026-04-04T19:10:35.284Z</time></trkpt><trkpt lat="34.649115" lon="10.500585"><ele>65.0</ele><time>2026-04-04T19:10:36.285Z</time></trkpt><trkpt lat="34.6489433" lon="10.50037"><ele>65.0</ele><time>2026-04-04T19:10:37.285Z</time></trkpt><trkpt lat="34.6487717" lon="10.5001583"><ele>63.5</ele><time>2026-04-04T19:10:38.284Z</time></trkpt><trkpt lat="34.6485983" lon="10.4999483"><ele>62.0</ele><time>2026-04-04T19:10:39.284Z</time></trkpt><trkpt lat="34.648425" lon="10.4997417"><ele>62.0</ele><time>2026-04-04T19:10:40.285Z</time></trkpt><trkpt lat="34.6482517" lon="10.499535"><ele>62.0</ele><time>2026-04-04T19:10:41.285Z</time></trkpt><trkpt lat="34.648075" lon="10.49933"><ele>62.0</ele><time>2026-04-04T19:10:42.286Z</time></trkpt><trkpt lat="34.6478983" lon="10.4991267"><ele>62.0</ele><time>2026-04-04T19:10:43.285Z</time></trkpt><trkpt lat="34.6477217" lon="10.498925"><ele>60.0</ele><time>2026-04-04T19:10:44.284Z</time></trkpt><trkpt lat="34.6475433" lon="10.498725"><ele>58.0</ele><time>2026-04-04T19:10:45.286Z</time></trkpt><trkpt lat="34.647365" lon="10.4985283"><ele>58.0</ele><time>2026-04-04T19:10:46.285Z</time></trkpt><trkpt lat="34.647185" lon="10.49833"><ele>58.0</ele><time>2026-04-04T19:10:47.284Z</time></trkpt><trkpt lat="34.647" lon="10.4981367"><ele>58.0</ele><time>2026-04-04T19:10:48.285Z</time></trkpt><trkpt lat="34.6468167" lon="10.4979433"><ele>58.0</ele><time>2026-04-04T19:10:49.284Z</time></trkpt><trkpt lat="34.64663" lon="10.4977517"><ele>58.0</ele><time>2026-04-04T19:10:50.284Z</time></trkpt><trkpt lat="34.6464417" lon="10.4975567"><ele>58.0</ele><time>2026-04-04T19:10:51.284Z</time></trkpt><trkpt lat="34.6462517" lon="10.4973617"><ele>57.0</ele><time>2026-04-04T19:10:52.285Z</time></trkpt><trkpt lat="34.6460567" lon="10.497165"><ele>56.0</ele><time>2026-04-04T19:10:53.285Z</time></trkpt><trkpt lat="34.6458667" lon="10.4969667"><ele>56.0</ele><time>2026-04-04T19:10:54.285Z</time></trkpt><trkpt lat="34.6456817" lon="10.4967717"><ele>56.0</ele><time>2026-04-04T19:10:55.285Z</time></trkpt><trkpt lat="34.6455" lon="10.4965833"><ele>56.0</ele><time>2026-04-04T19:10:56.284Z</time></trkpt><trkpt lat="34.6453267" lon="10.4964017"><ele>56.0</ele><time>2026-04-04T19:10:57.284Z</time></trkpt><trkpt lat="34.6451517" lon="10.4962233"><ele>55.0</ele><time>2026-04-04T19:10:58.284Z</time></trkpt><trkpt lat="34.6449783" lon="10.4960433"><ele>54.0</ele><time>2026-04-04T19:10:59.284Z</time></trkpt><trkpt lat="34.6448017" lon="10.4958633"><ele>54.0</ele><time>2026-04-04T19:11:00.285Z</time></trkpt><trkpt lat="34.6446233" lon="10.4956783"><ele>54.0</ele><time>2026-04-04T19:11:01.284Z</time></trkpt><trkpt lat="34.6444417" lon="10.4954917"><ele>54.0</ele><time>2026-04-04T19:11:02.285Z</time></trkpt><trkpt lat="34.64426" lon="10.4953033"><ele>54.0</ele><time>2026-04-04T19:11:03.284Z</time></trkpt><trkpt lat="34.6440767" lon="10.4951167"><ele>54.0</ele><time>2026-04-04T19:11:04.284Z</time></trkpt><trkpt lat="34.6438933" lon="10.4949267"><ele>54.0</ele><time>2026-04-04T19:11:05.284Z</time></trkpt><trkpt lat="34.64371" lon="10.494735"><ele>53.0</ele><time>2026-04-04T19:11:06.285Z</time></trkpt><trkpt lat="34.64353" lon="10.494545"><ele>52.0</ele><time>2026-04-04T19:11:07.284Z</time></trkpt><trkpt lat="34.6433433" lon="10.494355"><ele>52.0</ele><time>2026-04-04T19:11:08.286Z</time></trkpt><trkpt lat="34.643155" lon="10.4941633"><ele>52.0</ele><time>2026-04-04T19:11:09.284Z</time></trkpt><trkpt lat="34.6429683" lon="10.4939733"><ele>52.5</ele><time>2026-04-04T19:11:10.285Z</time></trkpt><trkpt lat="34.642785" lon="10.4937833"><ele>53.0</ele><time>2026-04-04T19:11:11.284Z</time></trkpt><trkpt lat="34.6426" lon="10.4935967"><ele>55.0</ele><time>2026-04-04T19:11:12.286Z</time></trkpt><trkpt lat="34.6424167" lon="10.4934067"><ele>57.0</ele><time>2026-04-04T19:11:13.284Z</time></trkpt><trkpt lat="34.642235" lon="10.4932183"><ele>57.0</ele><time>2026-04-04T19:11:14.284Z</time></trkpt><trkpt lat="34.642055" lon="10.4930283"><ele>57.0</ele><time>2026-04-04T19:11:15.286Z</time></trkpt><trkpt lat="34.6418733" lon="10.4928417"><ele>59.5</ele><time>2026-04-04T19:11:16.285Z</time></trkpt><trkpt lat="34.6416933" lon="10.4926533"><ele>62.0</ele><time>2026-04-04T19:11:17.284Z</time></trkpt><trkpt lat="34.6415117" lon="10.4924633"><ele>62.0</ele><time>2026-04-04T19:11:18.286Z</time></trkpt><trkpt lat="34.64133" lon="10.4922717"><ele>62.0</ele><time>2026-04-04T19:11:19.285Z</time></trkpt><trkpt lat="34.6411467" lon="10.4920817"><ele>62.5</ele><time>2026-04-04T19:11:20.284Z</time></trkpt><trkpt lat="34.640965" lon="10.4918917"><ele>63.0</ele><time>2026-04-04T19:11:21.286Z</time></trkpt><trkpt lat="34.6407867" lon="10.4917017"><ele>63.0</ele><time>2026-04-04T19:11:22.286Z</time></trkpt><trkpt lat="34.6406083" lon="10.491515"><ele>63.0</ele><time>2026-04-04T19:11:23.284Z</time></trkpt><trkpt lat="34.6404267" lon="10.4913383"><ele>65.0</ele><time>2026-04-04T19:11:24.286Z</time></trkpt><trkpt lat="34.6402483" lon="10.49116"><ele>67.0</ele><time>2026-04-04T19:11:25.284Z</time></trkpt><trkpt lat="34.6400767" lon="10.4909817"><ele>67.0</ele><time>2026-04-04T19:11:26.284Z</time></trkpt><trkpt lat="34.6399067" lon="10.4908017"><ele>67.0</ele><time>2026-04-04T19:11:27.284Z</time></trkpt><trkpt lat="34.6397383" lon="10.4906217"><ele>67.0</ele><time>2026-04-04T19:11:28.284Z</time></trkpt><trkpt lat="34.639565" lon="10.490445"><ele>67.0</ele><time>2026-04-04T19:11:29.285Z</time></trkpt><trkpt lat="34.6393967" lon="10.4902683"><ele>67.0</ele><time>2026-04-04T19:11:30.285Z</time></trkpt><trkpt lat="34.6392267" lon="10.49009"><ele>68.0</ele><time>2026-04-04T19:11:31.284Z</time></trkpt><trkpt lat="34.639055" lon="10.48991"><ele>69.0</ele><time>2026-04-04T19:11:32.284Z</time></trkpt><trkpt lat="34.6388783" lon="10.4897317"><ele>69.0</ele><time>2026-04-04T19:11:33.282Z</time></trkpt><trkpt lat="34.638705" lon="10.4895533"><ele>69.0</ele><time>2026-04-04T19:11:34.282Z</time></trkpt><trkpt lat="34.63853" lon="10.4893733"><ele>69.0</ele><time>2026-04-04T19:11:35.283Z</time></trkpt><trkpt lat="34.63835" lon="10.4891917"><ele>69.0</ele><time>2026-04-04T19:11:36.282Z</time></trkpt><trkpt lat="34.6381683" lon="10.4890083"><ele>69.0</ele><time>2026-04-04T19:11:37.283Z</time></trkpt><trkpt lat="34.637985" lon="10.48882"><ele>69.0</ele><time>2026-04-04T19:11:38.282Z</time></trkpt><trkpt lat="34.6377967" lon="10.4886317"><ele>71.0</ele><time>2026-04-04T19:11:39.282Z</time></trkpt><trkpt lat="34.6376117" lon="10.488445"><ele>73.0</ele><time>2026-04-04T19:11:40.286Z</time></trkpt><trkpt lat="34.6374217" lon="10.48826"><ele>73.0</ele><time>2026-04-04T19:11:41.284Z</time></trkpt><trkpt lat="34.6372333" lon="10.4880733"><ele>73.0</ele><time>2026-04-04T19:11:42.286Z</time></trkpt><trkpt lat="34.6370417" lon="10.4878883"><ele>74.0</ele><time>2026-04-04T19:11:43.285Z</time></trkpt><trkpt lat="34.6368483" lon="10.487705"><ele>75.0</ele><time>2026-04-04T19:11:44.285Z</time></trkpt><trkpt lat="34.6366517" lon="10.4875233"><ele>75.0</ele><time>2026-04-04T19:11:45.284Z</time></trkpt><trkpt lat="34.6364533" lon="10.48734"><ele>75.0</ele><time>2026-04-04T19:11:46.286Z</time></trkpt><trkpt lat="34.6362533" lon="10.4871567"><ele>74.5</ele><time>2026-04-04T19:11:47.284Z</time></trkpt><trkpt lat="34.6360483" lon="10.486975"><ele>74.0</ele><time>2026-04-04T19:11:48.285Z</time></trkpt><trkpt lat="34.635845" lon="10.486795"><ele>74.0</ele><time>2026-04-04T19:11:49.285Z</time></trkpt><trkpt lat="34.6356333" lon="10.4866167"><ele>74.0</ele><time>2026-04-04T19:11:50.285Z</time></trkpt><trkpt lat="34.635425" lon="10.4864367"><ele>73.0</ele><time>2026-04-04T19:11:51.285Z</time></trkpt><trkpt lat="34.635215" lon="10.4862567"><ele>72.0</ele><time>2026-04-04T19:11:52.285Z</time></trkpt><trkpt lat="34.635005" lon="10.48608"><ele>72.0</ele><time>2026-04-04T19:11:53.285Z</time></trkpt><trkpt lat="34.6347917" lon="10.4859067"><ele>72.0</ele><time>2026-04-04T19:11:54.285Z</time></trkpt><trkpt lat="34.6345783" lon="10.485735"><ele>71.0</ele><time>2026-04-04T19:11:55.285Z</time></trkpt><trkpt lat="34.6343633" lon="10.4855667"><ele>70.0</ele><time>2026-04-04T19:11:56.284Z</time></trkpt><trkpt lat="34.6341467" lon="10.4854017"><ele>70.0</ele><time>2026-04-04T19:11:57.285Z</time></trkpt><trkpt lat="34.6339317" lon="10.4852383"><ele>70.0</ele><time>2026-04-04T19:11:58.285Z</time></trkpt><trkpt lat="34.6337133" lon="10.4850767"><ele>70.5</ele><time>2026-04-04T19:11:59.285Z</time></trkpt><trkpt lat="34.6334933" lon="10.4849167"><ele>71.0</ele><time>2026-04-04T19:12:00.285Z</time></trkpt><trkpt lat="34.6332767" lon="10.484755"><ele>71.0</ele><time>2026-04-04T19:12:01.286Z</time></trkpt><trkpt lat="34.6330583" lon="10.484595"><ele>71.0</ele><time>2026-04-04T19:12:02.285Z</time></trkpt><trkpt lat="34.63284" lon="10.4844333"><ele>70.5</ele><time>2026-04-04T19:12:03.285Z</time></trkpt><trkpt lat="34.6326167" lon="10.484275"><ele>70.0</ele><time>2026-04-04T19:12:04.285Z</time></trkpt><trkpt lat="34.632395" lon="10.4841183"><ele>70.0</ele><time>2026-04-04T19:12:05.286Z</time></trkpt><trkpt lat="34.6321783" lon="10.48397"><ele>70.0</ele><time>2026-04-04T19:12:06.287Z</time></trkpt><trkpt lat="34.6319667" lon="10.4838233"><ele>69.5</ele><time>2026-04-04T19:12:07.286Z</time></trkpt><trkpt lat="34.6317567" lon="10.4836783"><ele>69.0</ele><time>2026-04-04T19:12:08.285Z</time></trkpt><trkpt lat="34.6315433" lon="10.4835283"><ele>69.0</ele><time>2026-04-04T19:12:09.285Z</time></trkpt><trkpt lat="34.63133" lon="10.4833817"><ele>69.0</ele><time>2026-04-04T19:12:10.284Z</time></trkpt><trkpt lat="34.6311133" lon="10.48323"><ele>69.0</ele><time>2026-04-04T19:12:11.285Z</time></trkpt><trkpt lat="34.630895" lon="10.483075"><ele>69.0</ele><time>2026-04-04T19:12:12.285Z</time></trkpt><trkpt lat="34.6306783" lon="10.4829167"><ele>68.5</ele><time>2026-04-04T19:12:13.286Z</time></trkpt><trkpt lat="34.63046" lon="10.4827567"><ele>68.0</ele><time>2026-04-04T19:12:14.285Z</time></trkpt><trkpt lat="34.6302317" lon="10.4825983"><ele>68.0</ele><time>2026-04-04T19:12:15.286Z</time></trkpt><trkpt lat="34.6300033" lon="10.4824367"><ele>68.0</ele><time>2026-04-04T19:12:16.285Z</time></trkpt><trkpt lat="34.629775" lon="10.4822783"><ele>68.0</ele><time>2026-04-04T19:12:17.287Z</time></trkpt><trkpt lat="34.6295483" lon="10.48212"><ele>68.0</ele><time>2026-04-04T19:12:18.286Z</time></trkpt><trkpt lat="34.629325" lon="10.4819617"><ele>66.5</ele><time>2026-04-04T19:12:19.285Z</time></trkpt><trkpt lat="34.629105" lon="10.48181"><ele>65.0</ele><time>2026-04-04T19:12:20.286Z</time></trkpt><trkpt lat="34.62889" lon="10.4816583"><ele>65.0</ele><time>2026-04-04T19:12:21.285Z</time></trkpt><trkpt lat="34.628675" lon="10.4815067"><ele>65.0</ele><time>2026-04-04T19:12:22.285Z</time></trkpt><trkpt lat="34.628455" lon="10.4813517"><ele>65.0</ele><time>2026-04-04T19:12:23.287Z</time></trkpt><trkpt lat="34.6282317" lon="10.481195"><ele>65.0</ele><time>2026-04-04T19:12:24.285Z</time></trkpt><trkpt lat="34.6280117" lon="10.4810383"><ele>65.0</ele><time>2026-04-04T19:12:25.286Z</time></trkpt><trkpt lat="34.6277883" lon="10.480885"><ele>65.0</ele><time>2026-04-04T19:12:26.285Z</time></trkpt><trkpt lat="34.627565" lon="10.48073"><ele>65.0</ele><time>2026-04-04T19:12:27.286Z</time></trkpt><trkpt lat="34.627345" lon="10.480575"><ele>65.0</ele><time>2026-04-04T19:12:28.285Z</time></trkpt><trkpt lat="34.627125" lon="10.4804217"><ele>65.0</ele><time>2026-04-04T19:12:29.286Z</time></trkpt><trkpt lat="34.6269117" lon="10.4802683"><ele>65.0</ele><time>2026-04-04T19:12:30.285Z</time></trkpt><trkpt lat="34.6266983" lon="10.4801167"><ele>65.0</ele><time>2026-04-04T19:12:31.285Z</time></trkpt><trkpt lat="34.6264833" lon="10.4799667"><ele>65.0</ele><time>2026-04-04T19:12:32.286Z</time></trkpt><trkpt lat="34.62627" lon="10.4798183"><ele>65.5</ele><time>2026-04-04T19:12:33.285Z</time></trkpt><trkpt lat="34.6260567" lon="10.47967"><ele>66.0</ele><time>2026-04-04T19:12:34.285Z</time></trkpt><trkpt lat="34.6258433" lon="10.4795233"><ele>66.5</ele><time>2026-04-04T19:12:35.286Z</time></trkpt><trkpt lat="34.625625" lon="10.479375"><ele>67.0</ele><time>2026-04-04T19:12:36.285Z</time></trkpt><trkpt lat="34.6254067" lon="10.479225"><ele>66.5</ele><time>2026-04-04T19:12:37.285Z</time></trkpt><trkpt lat="34.6251867" lon="10.4790733"><ele>66.0</ele><time>2026-04-04T19:12:38.285Z</time></trkpt><trkpt lat="34.62497" lon="10.4789183"><ele>66.5</ele><time>2026-04-04T19:12:39.285Z</time></trkpt><trkpt lat="34.6247517" lon="10.4787617"><ele>67.0</ele><time>2026-04-04T19:12:40.286Z</time></trkpt><trkpt lat="34.624535" lon="10.478605"><ele>66.0</ele><time>2026-04-04T19:12:41.285Z</time></trkpt><trkpt lat="34.6243117" lon="10.47845"><ele>65.0</ele><time>2026-04-04T19:12:42.285Z</time></trkpt><trkpt lat="34.6240867" lon="10.478295"><ele>65.0</ele><time>2026-04-04T19:12:43.286Z</time></trkpt><trkpt lat="34.6238617" lon="10.4781383"><ele>65.0</ele><time>2026-04-04T19:12:44.286Z</time></trkpt><trkpt lat="34.6236383" lon="10.4779833"><ele>65.0</ele><time>2026-04-04T19:12:45.286Z</time></trkpt><trkpt lat="34.623415" lon="10.4778317"><ele>65.0</ele><time>2026-04-04T19:12:46.282Z</time></trkpt><trkpt lat="34.6231917" lon="10.47768"><ele>65.0</ele><time>2026-04-04T19:12:47.286Z</time></trkpt><trkpt lat="34.6229733" lon="10.4775233"><ele>65.0</ele><time>2026-04-04T19:12:48.286Z</time></trkpt><trkpt lat="34.622755" lon="10.47737"><ele>65.0</ele><time>2026-04-04T19:12:49.285Z</time></trkpt><trkpt lat="34.622535" lon="10.477215"><ele>65.0</ele><time>2026-04-04T19:12:50.285Z</time></trkpt><trkpt lat="34.6223183" lon="10.477055"><ele>65.0</ele><time>2026-04-04T19:12:51.285Z</time></trkpt><trkpt lat="34.6220967" lon="10.4769017"><ele>65.0</ele><time>2026-04-04T19:12:52.285Z</time></trkpt><trkpt lat="34.6218733" lon="10.4767467"><ele>64.5</ele><time>2026-04-04T19:12:53.286Z</time></trkpt><trkpt lat="34.62165" lon="10.4765883"><ele>64.0</ele><time>2026-04-04T19:12:54.285Z</time></trkpt><trkpt lat="34.6214283" lon="10.47643"><ele>64.0</ele><time>2026-04-04T19:12:55.285Z</time></trkpt><trkpt lat="34.6212033" lon="10.4762733"><ele>64.0</ele><time>2026-04-04T19:12:56.284Z</time></trkpt><trkpt lat="34.62098" lon="10.4761167"><ele>64.0</ele><time>2026-04-04T19:12:57.284Z</time></trkpt><trkpt lat="34.620755" lon="10.4759567"><ele>64.0</ele><time>2026-04-04T19:12:58.284Z</time></trkpt><trkpt lat="34.62053" lon="10.475795"><ele>62.5</ele><time>2026-04-04T19:12:59.284Z</time></trkpt><trkpt lat="34.6203" lon="10.475635"><ele>61.0</ele><time>2026-04-04T19:13:00.285Z</time></trkpt><trkpt lat="34.6200733" lon="10.475475"><ele>60.5</ele><time>2026-04-04T19:13:01.285Z</time></trkpt><trkpt lat="34.6198467" lon="10.4753167"><ele>60.0</ele><time>2026-04-04T19:13:02.285Z</time></trkpt><trkpt lat="34.6196183" lon="10.4751583"><ele>59.5</ele><time>2026-04-04T19:13:03.284Z</time></trkpt><trkpt lat="34.61939" lon="10.475"><ele>59.0</ele><time>2026-04-04T19:13:04.284Z</time></trkpt><trkpt lat="34.6191617" lon="10.47484"><ele>59.0</ele><time>2026-04-04T19:13:05.285Z</time></trkpt><trkpt lat="34.6189367" lon="10.4746817"><ele>59.0</ele><time>2026-04-04T19:13:06.284Z</time></trkpt><trkpt lat="34.61871" lon="10.4745217"><ele>60.5</ele><time>2026-04-04T19:13:07.284Z</time></trkpt><trkpt lat="34.6184817" lon="10.4743617"><ele>62.0</ele><time>2026-04-04T19:13:08.285Z</time></trkpt><trkpt lat="34.6182517" lon="10.4742033"><ele>62.0</ele><time>2026-04-04T19:13:09.284Z</time></trkpt><trkpt lat="34.6180167" lon="10.4740433"><ele>62.0</ele><time>2026-04-04T19:13:10.284Z</time></trkpt><trkpt lat="34.617785" lon="10.4738833"><ele>62.0</ele><time>2026-04-04T19:13:11.284Z</time></trkpt><trkpt lat="34.617555" lon="10.4737233"><ele>62.0</ele><time>2026-04-04T19:13:12.284Z</time></trkpt><trkpt lat="34.617325" lon="10.4735617"><ele>62.0</ele><time>2026-04-04T19:13:13.284Z</time></trkpt><trkpt lat="34.6170967" lon="10.4733983"><ele>62.0</ele><time>2026-04-04T19:13:14.284Z</time></trkpt><trkpt lat="34.6168683" lon="10.4732367"><ele>61.5</ele><time>2026-04-04T19:13:15.285Z</time></trkpt><trkpt lat="34.6166417" lon="10.4730767"><ele>61.0</ele><time>2026-04-04T19:13:16.285Z</time></trkpt><trkpt lat="34.6164117" lon="10.4729183"><ele>61.0</ele><time>2026-04-04T19:13:17.284Z</time></trkpt><trkpt lat="34.6161817" lon="10.47276"><ele>61.0</ele><time>2026-04-04T19:13:18.284Z</time></trkpt><trkpt lat="34.615955" lon="10.4726"><ele>61.0</ele><time>2026-04-04T19:13:19.284Z</time></trkpt><trkpt lat="34.6157267" lon="10.4724383"><ele>61.0</ele><time>2026-04-04T19:13:20.284Z</time></trkpt><trkpt lat="34.6155" lon="10.472275"><ele>60.5</ele><time>2026-04-04T19:13:21.285Z</time></trkpt><trkpt lat="34.615275" lon="10.4721067"><ele>60.0</ele><time>2026-04-04T19:13:22.284Z</time></trkpt><trkpt lat="34.615055" lon="10.471935"><ele>60.0</ele><time>2026-04-04T19:13:23.284Z</time></trkpt><trkpt lat="34.6148333" lon="10.47176"><ele>60.0</ele><time>2026-04-04T19:13:24.284Z</time></trkpt><trkpt lat="34.6146133" lon="10.4715833"><ele>60.0</ele><time>2026-04-04T19:13:25.284Z</time></trkpt><trkpt lat="34.6143933" lon="10.471405"><ele>60.0</ele><time>2026-04-04T19:13:26.284Z</time></trkpt><trkpt lat="34.6141767" lon="10.4712233"><ele>59.0</ele><time>2026-04-04T19:13:27.284Z</time></trkpt><trkpt lat="34.61396" lon="10.47104"><ele>58.0</ele><time>2026-04-04T19:13:28.284Z</time></trkpt><trkpt lat="34.6137433" lon="10.4708533"><ele>57.5</ele><time>2026-04-04T19:13:29.285Z</time></trkpt><trkpt lat="34.6135283" lon="10.4706617"><ele>57.0</ele><time>2026-04-04T19:13:30.284Z</time></trkpt><trkpt lat="34.6133167" lon="10.4704667"><ele>55.5</ele><time>2026-04-04T19:13:31.284Z</time></trkpt><trkpt lat="34.6131033" lon="10.4702733"><ele>54.0</ele><time>2026-04-04T19:13:32.284Z</time></trkpt><trkpt lat="34.61289" lon="10.4700783"><ele>53.5</ele><time>2026-04-04T19:13:33.284Z</time></trkpt><trkpt lat="34.6126767" lon="10.4698817"><ele>53.0</ele><time>2026-04-04T19:13:34.281Z</time></trkpt><trkpt lat="34.6124683" lon="10.46968"><ele>54.0</ele><time>2026-04-04T19:13:35.281Z</time></trkpt><trkpt lat="34.6122683" lon="10.4694783"><ele>55.0</ele><time>2026-04-04T19:13:36.283Z</time></trkpt><trkpt lat="34.612075" lon="10.4692833"><ele>55.0</ele><time>2026-04-04T19:13:37.282Z</time></trkpt><trkpt lat="34.6118817" lon="10.4690833"><ele>55.0</ele><time>2026-04-04T19:13:38.281Z</time></trkpt><trkpt lat="34.61169" lon="10.4688833"><ele>55.0</ele><time>2026-04-04T19:13:39.283Z</time></trkpt><trkpt lat="34.611495" lon="10.4686817"><ele>55.0</ele><time>2026-04-04T19:13:40.282Z</time></trkpt><trkpt lat="34.6113017" lon="10.468475"><ele>54.5</ele><time>2026-04-04T19:13:41.282Z</time></trkpt><trkpt lat="34.6111133" lon="10.4682633"><ele>54.0</ele><time>2026-04-04T19:13:42.283Z</time></trkpt><trkpt lat="34.6109267" lon="10.4680467"><ele>55.0</ele><time>2026-04-04T19:13:43.281Z</time></trkpt><trkpt lat="34.610745" lon="10.4678283"><ele>56.0</ele><time>2026-04-04T19:13:44.283Z</time></trkpt><trkpt lat="34.6105633" lon="10.4676117"><ele>56.0</ele><time>2026-04-04T19:13:45.285Z</time></trkpt><trkpt lat="34.6103783" lon="10.4673933"><ele>56.0</ele><time>2026-04-04T19:13:46.284Z</time></trkpt><trkpt lat="34.6102" lon="10.46717"><ele>57.5</ele><time>2026-04-04T19:13:47.284Z</time></trkpt><trkpt lat="34.6100217" lon="10.4669483"><ele>59.0</ele><time>2026-04-04T19:13:48.284Z</time></trkpt><trkpt lat="34.609845" lon="10.4667217"><ele>59.0</ele><time>2026-04-04T19:13:49.284Z</time></trkpt><trkpt lat="34.60967" lon="10.4664933"><ele>59.0</ele><time>2026-04-04T19:13:50.284Z</time></trkpt><trkpt lat="34.6095" lon="10.4662667"><ele>59.0</ele><time>2026-04-04T19:13:51.285Z</time></trkpt><trkpt lat="34.6093267" lon="10.46604"><ele>59.0</ele><time>2026-04-04T19:13:52.284Z</time></trkpt><trkpt lat="34.60916" lon="10.46581"><ele>59.0</ele><time>2026-04-04T19:13:53.284Z</time></trkpt><trkpt lat="34.6089967" lon="10.4655783"><ele>59.0</ele><time>2026-04-04T19:13:54.285Z</time></trkpt><trkpt lat="34.608835" lon="10.4653467"><ele>59.0</ele><time>2026-04-04T19:13:55.284Z</time></trkpt><trkpt lat="34.6086717" lon="10.4651133"><ele>59.0</ele><time>2026-04-04T19:13:56.284Z</time></trkpt><trkpt lat="34.608515" lon="10.464875"><ele>59.0</ele><time>2026-04-04T19:13:57.284Z</time></trkpt><trkpt lat="34.60836" lon="10.464635"><ele>59.0</ele><time>2026-04-04T19:13:58.284Z</time></trkpt><trkpt lat="34.608205" lon="10.464395"><ele>58.5</ele><time>2026-04-04T19:13:59.284Z</time></trkpt><trkpt lat="34.6080483" lon="10.464155"><ele>58.0</ele><time>2026-04-04T19:14:00.285Z</time></trkpt><trkpt lat="34.60789" lon="10.4639117"><ele>58.0</ele><time>2026-04-04T19:14:01.284Z</time></trkpt><trkpt lat="34.6077283" lon="10.463675"><ele>58.0</ele><time>2026-04-04T19:14:02.284Z</time></trkpt><trkpt lat="34.6075683" lon="10.4634383"><ele>58.0</ele><time>2026-04-04T19:14:03.284Z</time></trkpt><trkpt lat="34.6074083" lon="10.4632033"><ele>58.0</ele><time>2026-04-04T19:14:04.282Z</time></trkpt><trkpt lat="34.6072517" lon="10.4629667"><ele>59.0</ele><time>2026-04-04T19:14:05.282Z</time></trkpt><trkpt lat="34.6070933" lon="10.46273"><ele>60.0</ele><time>2026-04-04T19:14:06.283Z</time></trkpt><trkpt lat="34.606935" lon="10.4624933"><ele>60.0</ele><time>2026-04-04T19:14:07.283Z</time></trkpt><trkpt lat="34.6067767" lon="10.462255"><ele>60.0</ele><time>2026-04-04T19:14:08.281Z</time></trkpt><trkpt lat="34.6066217" lon="10.4620167"><ele>59.0</ele><time>2026-04-04T19:14:09.282Z</time></trkpt><trkpt lat="34.6064667" lon="10.4617783"><ele>58.0</ele><time>2026-04-04T19:14:10.282Z</time></trkpt><trkpt lat="34.6063133" lon="10.46154"><ele>58.0</ele><time>2026-04-04T19:14:11.283Z</time></trkpt><trkpt lat="34.60616" lon="10.4613033"><ele>58.0</ele><time>2026-04-04T19:14:12.282Z</time></trkpt><trkpt lat="34.606005" lon="10.4610667"><ele>58.0</ele><time>2026-04-04T19:14:13.283Z</time></trkpt><trkpt lat="34.60585" lon="10.4608367"><ele>58.0</ele><time>2026-04-04T19:14:14.281Z</time></trkpt><trkpt lat="34.6056967" lon="10.4606067"><ele>58.5</ele><time>2026-04-04T19:14:15.284Z</time></trkpt><trkpt lat="34.6055433" lon="10.4603783"><ele>59.0</ele><time>2026-04-04T19:14:16.285Z</time></trkpt><trkpt lat="34.6053917" lon="10.46015"><ele>59.5</ele><time>2026-04-04T19:14:17.284Z</time></trkpt><trkpt lat="34.60524" lon="10.45992"><ele>60.0</ele><time>2026-04-04T19:14:18.284Z</time></trkpt><trkpt lat="34.60509" lon="10.4596883"><ele>59.5</ele><time>2026-04-04T19:14:19.285Z</time></trkpt><trkpt lat="34.604935" lon="10.4594567"><ele>59.0</ele><time>2026-04-04T19:14:20.285Z</time></trkpt><trkpt lat="34.6047817" lon="10.4592233"><ele>59.0</ele><time>2026-04-04T19:14:21.284Z</time></trkpt><trkpt lat="34.6046267" lon="10.4589883"><ele>59.0</ele><time>2026-04-04T19:14:22.284Z</time></trkpt><trkpt lat="34.6044717" lon="10.4587533"><ele>57.5</ele><time>2026-04-04T19:14:23.285Z</time></trkpt><trkpt lat="34.604315" lon="10.4585167"><ele>56.0</ele><time>2026-04-04T19:14:24.285Z</time></trkpt><trkpt lat="34.6041617" lon="10.45828"><ele>56.0</ele><time>2026-04-04T19:14:25.284Z</time></trkpt><trkpt lat="34.6040067" lon="10.4580433"><ele>56.0</ele><time>2026-04-04T19:14:26.284Z</time></trkpt><trkpt lat="34.6038517" lon="10.457805"><ele>56.0</ele><time>2026-04-04T19:14:27.284Z</time></trkpt><trkpt lat="34.6036933" lon="10.4575683"><ele>56.0</ele><time>2026-04-04T19:14:28.284Z</time></trkpt><trkpt lat="34.6035367" lon="10.4573283"><ele>56.5</ele><time>2026-04-04T19:14:29.286Z</time></trkpt><trkpt lat="34.6033817" lon="10.4570883"><ele>57.0</ele><time>2026-04-04T19:14:30.285Z</time></trkpt><trkpt lat="34.6032267" lon="10.456845"><ele>57.0</ele><time>2026-04-04T19:14:31.284Z</time></trkpt><trkpt lat="34.6030683" lon="10.456605"><ele>57.0</ele><time>2026-04-04T19:14:32.285Z</time></trkpt><trkpt lat="34.6029083" lon="10.4563633"><ele>56.5</ele><time>2026-04-04T19:14:33.287Z</time></trkpt><trkpt lat="34.60275" lon="10.4561217"><ele>56.0</ele><time>2026-04-04T19:14:34.282Z</time></trkpt><trkpt lat="34.6025917" lon="10.4558817"><ele>56.0</ele><time>2026-04-04T19:14:35.283Z</time></trkpt><trkpt lat="34.6024333" lon="10.4556383"><ele>56.0</ele><time>2026-04-04T19:14:36.282Z</time></trkpt><trkpt lat="34.602275" lon="10.4553967"><ele>56.0</ele><time>2026-04-04T19:14:37.282Z</time></trkpt><trkpt lat="34.602115" lon="10.4551567"><ele>56.0</ele><time>2026-04-04T19:14:38.283Z</time></trkpt><trkpt lat="34.6019583" lon="10.4549167"><ele>55.5</ele><time>2026-04-04T19:14:39.282Z</time></trkpt><trkpt lat="34.6017983" lon="10.4546783"><ele>55.0</ele><time>2026-04-04T19:14:40.282Z</time></trkpt><trkpt lat="34.60164" lon="10.45444"><ele>55.0</ele><time>2026-04-04T19:14:41.282Z</time></trkpt><trkpt lat="34.6014833" lon="10.4542"><ele>55.0</ele><time>2026-04-04T19:14:42.283Z</time></trkpt><trkpt lat="34.601325" lon="10.45396"><ele>55.0</ele><time>2026-04-04T19:14:43.282Z</time></trkpt><trkpt lat="34.6011667" lon="10.4537167"><ele>55.0</ele><time>2026-04-04T19:14:44.282Z</time></trkpt><trkpt lat="34.6010067" lon="10.453475"><ele>54.5</ele><time>2026-04-04T19:14:45.284Z</time></trkpt><trkpt lat="34.6008467" lon="10.4532317"><ele>54.0</ele><time>2026-04-04T19:14:46.285Z</time></trkpt><trkpt lat="34.600685" lon="10.4529883"><ele>54.5</ele><time>2026-04-04T19:14:47.284Z</time></trkpt><trkpt lat="34.6005233" lon="10.4527433"><ele>55.0</ele><time>2026-04-04T19:14:48.285Z</time></trkpt><trkpt lat="34.6003633" lon="10.4524983"><ele>55.0</ele><time>2026-04-04T19:14:49.287Z</time></trkpt><trkpt lat="34.6002017" lon="10.4522567"><ele>55.0</ele><time>2026-04-04T19:14:50.284Z</time></trkpt><trkpt lat="34.60004" lon="10.4520133"><ele>55.5</ele><time>2026-04-04T19:14:51.284Z</time></trkpt><trkpt lat="34.59988" lon="10.4517717"><ele>56.0</ele><time>2026-04-04T19:14:52.286Z</time></trkpt><trkpt lat="34.5997167" lon="10.4515317"><ele>56.0</ele><time>2026-04-04T19:14:53.284Z</time></trkpt><trkpt lat="34.5995567" lon="10.45129"><ele>56.0</ele><time>2026-04-04T19:14:54.286Z</time></trkpt><trkpt lat="34.5994" lon="10.4510483"><ele>56.0</ele><time>2026-04-04T19:14:55.285Z</time></trkpt><trkpt lat="34.599245" lon="10.45081"><ele>56.0</ele><time>2026-04-04T19:14:56.286Z</time></trkpt><trkpt lat="34.5990917" lon="10.450575"><ele>55.5</ele><time>2026-04-04T19:14:57.284Z</time></trkpt><trkpt lat="34.5989417" lon="10.4503417"><ele>55.0</ele><time>2026-04-04T19:14:58.285Z</time></trkpt><trkpt lat="34.5987933" lon="10.4501083"><ele>54.5</ele><time>2026-04-04T19:14:59.285Z</time></trkpt><trkpt lat="34.5986483" lon="10.4498767"><ele>54.0</ele><time>2026-04-04T19:15:00.285Z</time></trkpt><trkpt lat="34.598505" lon="10.4496417"><ele>54.5</ele><time>2026-04-04T19:15:01.284Z</time></trkpt><trkpt lat="34.59836" lon="10.449405"><ele>55.0</ele><time>2026-04-04T19:15:02.285Z</time></trkpt><trkpt lat="34.598215" lon="10.4491633"><ele>55.0</ele><time>2026-04-04T19:15:03.282Z</time></trkpt><trkpt lat="34.5980733" lon="10.4489183"><ele>55.0</ele><time>2026-04-04T19:15:04.282Z</time></trkpt><trkpt lat="34.597935" lon="10.44867"><ele>55.0</ele><time>2026-04-04T19:15:05.283Z</time></trkpt><trkpt lat="34.5978" lon="10.44842"><ele>55.0</ele><time>2026-04-04T19:15:06.282Z</time></trkpt><trkpt lat="34.5976667" lon="10.4481683"><ele>55.0</ele><time>2026-04-04T19:15:07.283Z</time></trkpt><trkpt lat="34.5975333" lon="10.447915"><ele>55.0</ele><time>2026-04-04T19:15:08.283Z</time></trkpt><trkpt lat="34.597405" lon="10.4476633"><ele>55.0</ele><time>2026-04-04T19:15:09.282Z</time></trkpt><trkpt lat="34.5972783" lon="10.44741"><ele>55.0</ele><time>2026-04-04T19:15:10.282Z</time></trkpt><trkpt lat="34.5971533" lon="10.4471583"><ele>55.5</ele><time>2026-04-04T19:15:11.283Z</time></trkpt><trkpt lat="34.59703" lon="10.4469033"><ele>56.0</ele><time>2026-04-04T19:15:12.283Z</time></trkpt><trkpt lat="34.59691" lon="10.4466483"><ele>55.5</ele><time>2026-04-04T19:15:13.284Z</time></trkpt><trkpt lat="34.5967933" lon="10.44639"><ele>55.0</ele><time>2026-04-04T19:15:14.283Z</time></trkpt><trkpt lat="34.5966783" lon="10.4461317"><ele>55.0</ele><time>2026-04-04T19:15:15.286Z</time></trkpt><trkpt lat="34.5965617" lon="10.4458717"><ele>55.0</ele><time>2026-04-04T19:15:16.285Z</time></trkpt><trkpt lat="34.59645" lon="10.44561"><ele>54.5</ele><time>2026-04-04T19:15:17.284Z</time></trkpt><trkpt lat="34.59634" lon="10.4453467"><ele>54.0</ele><time>2026-04-04T19:15:18.285Z</time></trkpt><trkpt lat="34.59623" lon="10.44508"><ele>53.5</ele><time>2026-04-04T19:15:19.284Z</time></trkpt><trkpt lat="34.5961233" lon="10.4448133"><ele>53.0</ele><time>2026-04-04T19:15:20.286Z</time></trkpt><trkpt lat="34.5960233" lon="10.444545"><ele>53.0</ele><time>2026-04-04T19:15:21.285Z</time></trkpt><trkpt lat="34.5959217" lon="10.4442733"><ele>53.0</ele><time>2026-04-04T19:15:22.285Z</time></trkpt><trkpt lat="34.59582" lon="10.4440033"><ele>52.0</ele><time>2026-04-04T19:15:23.285Z</time></trkpt><trkpt lat="34.5957217" lon="10.4437333"><ele>51.0</ele><time>2026-04-04T19:15:24.285Z</time></trkpt><trkpt lat="34.59563" lon="10.4434633"><ele>51.0</ele><time>2026-04-04T19:15:25.286Z</time></trkpt><trkpt lat="34.59554" lon="10.4431917"><ele>51.0</ele><time>2026-04-04T19:15:26.285Z</time></trkpt><trkpt lat="34.5954517" lon="10.44292"><ele>52.0</ele><time>2026-04-04T19:15:27.284Z</time></trkpt><trkpt lat="34.595365" lon="10.442645"><ele>53.0</ele><time>2026-04-04T19:15:28.285Z</time></trkpt><trkpt lat="34.5952817" lon="10.442365"><ele>53.0</ele><time>2026-04-04T19:15:29.285Z</time></trkpt><trkpt lat="34.5951983" lon="10.4420867"><ele>53.0</ele><time>2026-04-04T19:15:30.285Z</time></trkpt><trkpt lat="34.5951167" lon="10.4418067"><ele>53.0</ele><time>2026-04-04T19:15:31.285Z</time></trkpt><trkpt lat="34.5950367" lon="10.441525"><ele>53.0</ele><time>2026-04-04T19:15:32.285Z</time></trkpt><trkpt lat="34.59496" lon="10.4412433"><ele>52.5</ele><time>2026-04-04T19:15:33.282Z</time></trkpt><trkpt lat="34.5948867" lon="10.4409633"><ele>52.0</ele><time>2026-04-04T19:15:34.282Z</time></trkpt><trkpt lat="34.5948133" lon="10.4406833"><ele>52.5</ele><time>2026-04-04T19:15:35.284Z</time></trkpt><trkpt lat="34.594745" lon="10.4404033"><ele>53.0</ele><time>2026-04-04T19:15:36.285Z</time></trkpt><trkpt lat="34.59468" lon="10.440125"><ele>53.0</ele><time>2026-04-04T19:15:37.283Z</time></trkpt><trkpt lat="34.5946183" lon="10.4398467"><ele>53.0</ele><time>2026-04-04T19:15:38.282Z</time></trkpt><trkpt lat="34.594555" lon="10.4395667"><ele>53.0</ele><time>2026-04-04T19:15:39.284Z</time></trkpt><trkpt lat="34.594495" lon="10.4392817"><ele>53.0</ele><time>2026-04-04T19:15:40.285Z</time></trkpt><trkpt lat="34.59444" lon="10.4390017"><ele>53.0</ele><time>2026-04-04T19:15:41.283Z</time></trkpt><trkpt lat="34.5943817" lon="10.4387167"><ele>53.0</ele><time>2026-04-04T19:15:42.286Z</time></trkpt><trkpt lat="34.5943317" lon="10.4384333"><ele>53.0</ele><time>2026-04-04T19:15:43.285Z</time></trkpt><trkpt lat="34.5942833" lon="10.4381467"><ele>53.0</ele><time>2026-04-04T19:15:44.285Z</time></trkpt><trkpt lat="34.5942383" lon="10.43786"><ele>53.5</ele><time>2026-04-04T19:15:45.285Z</time></trkpt><trkpt lat="34.5941933" lon="10.4375717"><ele>54.0</ele><time>2026-04-04T19:15:46.285Z</time></trkpt><trkpt lat="34.59415" lon="10.4372817"><ele>54.0</ele><time>2026-04-04T19:15:47.285Z</time></trkpt><trkpt lat="34.5941083" lon="10.436995"><ele>54.0</ele><time>2026-04-04T19:15:48.286Z</time></trkpt><trkpt lat="34.59407" lon="10.4367083"><ele>54.0</ele><time>2026-04-04T19:15:49.282Z</time></trkpt><trkpt lat="34.5940317" lon="10.43642"><ele>54.0</ele><time>2026-04-04T19:15:50.282Z</time></trkpt><trkpt lat="34.5939983" lon="10.43613"><ele>54.0</ele><time>2026-04-04T19:15:51.282Z</time></trkpt><trkpt lat="34.593965" lon="10.4358383"><ele>54.0</ele><time>2026-04-04T19:15:52.285Z</time></trkpt><trkpt lat="34.5939367" lon="10.435545"><ele>54.0</ele><time>2026-04-04T19:15:53.285Z</time></trkpt><trkpt lat="34.59391" lon="10.4352533"><ele>54.0</ele><time>2026-04-04T19:15:54.286Z</time></trkpt><trkpt lat="34.5938833" lon="10.43496"><ele>54.0</ele><time>2026-04-04T19:15:55.286Z</time></trkpt><trkpt lat="34.593855" lon="10.4346683"><ele>54.0</ele><time>2026-04-04T19:15:56.285Z</time></trkpt><trkpt lat="34.5938283" lon="10.4343767"><ele>54.0</ele><time>2026-04-04T19:15:57.286Z</time></trkpt><trkpt lat="34.5938017" lon="10.4340867"><ele>54.0</ele><time>2026-04-04T19:15:58.286Z</time></trkpt><trkpt lat="34.5937733" lon="10.4338"><ele>54.5</ele><time>2026-04-04T19:15:59.286Z</time></trkpt><trkpt lat="34.5937517" lon="10.4335167"><ele>55.0</ele><time>2026-04-04T19:16:00.286Z</time></trkpt><trkpt lat="34.5937333" lon="10.4332317"><ele>55.5</ele><time>2026-04-04T19:16:01.283Z</time></trkpt><trkpt lat="34.593715" lon="10.4329483"><ele>56.0</ele><time>2026-04-04T19:16:02.285Z</time></trkpt><trkpt lat="34.5936967" lon="10.4326633"><ele>56.0</ele><time>2026-04-04T19:16:03.283Z</time></trkpt><trkpt lat="34.5936817" lon="10.4323783"><ele>56.0</ele><time>2026-04-04T19:16:04.284Z</time></trkpt><trkpt lat="34.593665" lon="10.4320917"><ele>55.0</ele><time>2026-04-04T19:16:05.283Z</time></trkpt><trkpt lat="34.59365" lon="10.4318017"><ele>54.0</ele><time>2026-04-04T19:16:06.283Z</time></trkpt><trkpt lat="34.593635" lon="10.4315117"><ele>54.0</ele><time>2026-04-04T19:16:07.283Z</time></trkpt><trkpt lat="34.5936217" lon="10.4312217"><ele>54.0</ele><time>2026-04-04T19:16:08.282Z</time></trkpt><trkpt lat="34.5936067" lon="10.4309283"><ele>54.0</ele><time>2026-04-04T19:16:09.282Z</time></trkpt><trkpt lat="34.5935917" lon="10.430635"><ele>54.0</ele><time>2026-04-04T19:16:10.283Z</time></trkpt><trkpt lat="34.593575" lon="10.4303383"><ele>54.0</ele><time>2026-04-04T19:16:11.284Z</time></trkpt><trkpt lat="34.5935567" lon="10.43004"><ele>54.0</ele><time>2026-04-04T19:16:12.284Z</time></trkpt><trkpt lat="34.5935417" lon="10.42974"><ele>54.0</ele><time>2026-04-04T19:16:13.284Z</time></trkpt><trkpt lat="34.5935233" lon="10.42944"><ele>54.0</ele><time>2026-04-04T19:16:14.284Z</time></trkpt><trkpt lat="34.593505" lon="10.42914"><ele>54.0</ele><time>2026-04-04T19:16:15.282Z</time></trkpt><trkpt lat="34.5934867" lon="10.4288433"><ele>54.0</ele><time>2026-04-04T19:16:16.284Z</time></trkpt><trkpt lat="34.5934683" lon="10.42855"><ele>54.0</ele><time>2026-04-04T19:16:17.284Z</time></trkpt><trkpt lat="34.5934483" lon="10.4282567"><ele>54.0</ele><time>2026-04-04T19:16:18.284Z</time></trkpt><trkpt lat="34.5934233" lon="10.4279633"><ele>54.0</ele><time>2026-04-04T19:16:19.284Z</time></trkpt><trkpt lat="34.593395" lon="10.42767"><ele>54.0</ele><time>2026-04-04T19:16:20.285Z</time></trkpt><trkpt lat="34.5933617" lon="10.4273733"><ele>54.5</ele><time>2026-04-04T19:16:21.284Z</time></trkpt><trkpt lat="34.593325" lon="10.4270733"><ele>55.0</ele><time>2026-04-04T19:16:22.284Z</time></trkpt><trkpt lat="34.593285" lon="10.4267733"><ele>55.0</ele><time>2026-04-04T19:16:23.284Z</time></trkpt><trkpt lat="34.5932417" lon="10.4264733"><ele>55.0</ele><time>2026-04-04T19:16:24.284Z</time></trkpt><trkpt lat="34.5931967" lon="10.4261733"><ele>55.5</ele><time>2026-04-04T19:16:25.282Z</time></trkpt><trkpt lat="34.5931483" lon="10.4258717"><ele>56.0</ele><time>2026-04-04T19:16:26.284Z</time></trkpt><trkpt lat="34.5930967" lon="10.42557"><ele>55.0</ele><time>2026-04-04T19:16:27.284Z</time></trkpt><trkpt lat="34.5930433" lon="10.42527"><ele>54.0</ele><time>2026-04-04T19:16:28.287Z</time></trkpt><trkpt lat="34.5929867" lon="10.4249683"><ele>54.0</ele><time>2026-04-04T19:16:29.284Z</time></trkpt><trkpt lat="34.5929283" lon="10.42467"><ele>54.0</ele><time>2026-04-04T19:16:30.284Z</time></trkpt><trkpt lat="34.5928683" lon="10.4243733"><ele>54.0</ele><time>2026-04-04T19:16:31.285Z</time></trkpt><trkpt lat="34.5928067" lon="10.4240767"><ele>54.0</ele><time>2026-04-04T19:16:32.284Z</time></trkpt><trkpt lat="34.5927433" lon="10.42378"><ele>54.0</ele><time>2026-04-04T19:16:33.284Z</time></trkpt><trkpt lat="34.592675" lon="10.4234817"><ele>54.0</ele><time>2026-04-04T19:16:34.284Z</time></trkpt><trkpt lat="34.5926017" lon="10.4231817"><ele>54.0</ele><time>2026-04-04T19:16:35.284Z</time></trkpt><trkpt lat="34.592525" lon="10.4228833"><ele>54.0</ele><time>2026-04-04T19:16:36.284Z</time></trkpt><trkpt lat="34.5924467" lon="10.42259"><ele>54.0</ele><time>2026-04-04T19:16:37.284Z</time></trkpt><trkpt lat="34.5923683" lon="10.4223033"><ele>54.0</ele><time>2026-04-04T19:16:38.284Z</time></trkpt><trkpt lat="34.5922917" lon="10.4220233"><ele>54.0</ele><time>2026-04-04T19:16:39.284Z</time></trkpt><trkpt lat="34.592215" lon="10.42175"><ele>54.0</ele><time>2026-04-04T19:16:40.285Z</time></trkpt><trkpt lat="34.5921333" lon="10.42148"><ele>54.0</ele><time>2026-04-04T19:16:41.284Z</time></trkpt><trkpt lat="34.5920517" lon="10.421215"><ele>54.0</ele><time>2026-04-04T19:16:42.284Z</time></trkpt><trkpt lat="34.59197" lon="10.4209517"><ele>54.0</ele><time>2026-04-04T19:16:43.284Z</time></trkpt><trkpt lat="34.5918833" lon="10.4206883"><ele>54.0</ele><time>2026-04-04T19:16:44.284Z</time></trkpt><trkpt lat="34.5917967" lon="10.420425"><ele>54.0</ele><time>2026-04-04T19:16:45.284Z</time></trkpt><trkpt lat="34.591705" lon="10.420155"><ele>54.0</ele><time>2026-04-04T19:16:46.284Z</time></trkpt><trkpt lat="34.5916133" lon="10.4198867"><ele>54.0</ele><time>2026-04-04T19:16:47.284Z</time></trkpt><trkpt lat="34.5915183" lon="10.419615"><ele>54.0</ele><time>2026-04-04T19:16:48.284Z</time></trkpt><trkpt lat="34.59142" lon="10.4193433"><ele>54.0</ele><time>2026-04-04T19:16:49.285Z</time></trkpt><trkpt lat="34.5913167" lon="10.4190733"><ele>54.0</ele><time>2026-04-04T19:16:50.284Z</time></trkpt><trkpt lat="34.5912083" lon="10.4188033"><ele>53.5</ele><time>2026-04-04T19:16:51.285Z</time></trkpt><trkpt lat="34.5911" lon="10.4185317"><ele>53.0</ele><time>2026-04-04T19:16:52.284Z</time></trkpt><trkpt lat="34.5909883" lon="10.41826"><ele>53.0</ele><time>2026-04-04T19:16:53.284Z</time></trkpt><trkpt lat="34.5908733" lon="10.4179917"><ele>53.0</ele><time>2026-04-04T19:16:54.284Z</time></trkpt><trkpt lat="34.5907567" lon="10.4177233"><ele>53.0</ele><time>2026-04-04T19:16:55.284Z</time></trkpt><trkpt lat="34.5906317" lon="10.4174567"><ele>53.0</ele><time>2026-04-04T19:16:56.284Z</time></trkpt><trkpt lat="34.5905067" lon="10.4171917"><ele>53.0</ele><time>2026-04-04T19:16:57.284Z</time></trkpt><trkpt lat="34.5903833" lon="10.4169283"><ele>53.0</ele><time>2026-04-04T19:16:58.284Z</time></trkpt><trkpt lat="34.5902583" lon="10.416665"><ele>53.0</ele><time>2026-04-04T19:16:59.284Z</time></trkpt><trkpt lat="34.5901317" lon="10.4164033"><ele>53.0</ele><time>2026-04-04T19:17:00.285Z</time></trkpt><trkpt lat="34.59" lon="10.416145"><ele>53.0</ele><time>2026-04-04T19:17:01.285Z</time></trkpt><trkpt lat="34.5898667" lon="10.4158867"><ele>53.0</ele><time>2026-04-04T19:17:02.285Z</time></trkpt><trkpt lat="34.5897333" lon="10.41563"><ele>52.5</ele><time>2026-04-04T19:17:03.284Z</time></trkpt><trkpt lat="34.5895983" lon="10.415375"><ele>52.0</ele><time>2026-04-04T19:17:04.284Z</time></trkpt><trkpt lat="34.5894633" lon="10.4151183"><ele>52.0</ele><time>2026-04-04T19:17:05.284Z</time></trkpt><trkpt lat="34.5893283" lon="10.4148633"><ele>52.0</ele><time>2026-04-04T19:17:06.284Z</time></trkpt><trkpt lat="34.589195" lon="10.41461"><ele>52.0</ele><time>2026-04-04T19:17:07.285Z</time></trkpt><trkpt lat="34.5890567" lon="10.4143533"><ele>52.0</ele><time>2026-04-04T19:17:08.285Z</time></trkpt><trkpt lat="34.5889183" lon="10.414095"><ele>52.0</ele><time>2026-04-04T19:17:09.284Z</time></trkpt><trkpt lat="34.58878" lon="10.413835"><ele>52.0</ele><time>2026-04-04T19:17:10.284Z</time></trkpt><trkpt lat="34.5886417" lon="10.413575"><ele>53.0</ele><time>2026-04-04T19:17:11.284Z</time></trkpt><trkpt lat="34.5885033" lon="10.413315"><ele>54.0</ele><time>2026-04-04T19:17:12.285Z</time></trkpt><trkpt lat="34.5883617" lon="10.413055"><ele>54.0</ele><time>2026-04-04T19:17:13.284Z</time></trkpt><trkpt lat="34.58822" lon="10.4127933"><ele>54.0</ele><time>2026-04-04T19:17:14.284Z</time></trkpt><trkpt lat="34.5880767" lon="10.4125317"><ele>54.0</ele><time>2026-04-04T19:17:15.285Z</time></trkpt><trkpt lat="34.5879317" lon="10.412265"><ele>54.0</ele><time>2026-04-04T19:17:16.284Z</time></trkpt><trkpt lat="34.5877883" lon="10.4119983"><ele>53.0</ele><time>2026-04-04T19:17:17.284Z</time></trkpt><trkpt lat="34.5876417" lon="10.4117317"><ele>52.0</ele><time>2026-04-04T19:17:18.284Z</time></trkpt><trkpt lat="34.5874967" lon="10.411465"><ele>51.0</ele><time>2026-04-04T19:17:19.284Z</time></trkpt><trkpt lat="34.5873583" lon="10.4112"><ele>50.0</ele><time>2026-04-04T19:17:20.284Z</time></trkpt><trkpt lat="34.5872167" lon="10.4109417"><ele>50.0</ele><time>2026-04-04T19:17:21.285Z</time></trkpt><trkpt lat="34.5870767" lon="10.410685"><ele>50.0</ele><time>2026-04-04T19:17:22.284Z</time></trkpt><trkpt lat="34.5869367" lon="10.41043"><ele>50.5</ele><time>2026-04-04T19:17:23.284Z</time></trkpt><trkpt lat="34.5868017" lon="10.410175"><ele>51.0</ele><time>2026-04-04T19:17:24.284Z</time></trkpt><trkpt lat="34.5866633" lon="10.4099217"><ele>51.0</ele><time>2026-04-04T19:17:25.284Z</time></trkpt><trkpt lat="34.5865283" lon="10.4096683"><ele>51.0</ele><time>2026-04-04T19:17:26.284Z</time></trkpt><trkpt lat="34.5863933" lon="10.4094167"><ele>51.0</ele><time>2026-04-04T19:17:27.285Z</time></trkpt><trkpt lat="34.5862567" lon="10.409165"><ele>51.0</ele><time>2026-04-04T19:17:28.286Z</time></trkpt><trkpt lat="34.58612" lon="10.4089117"><ele>50.5</ele><time>2026-04-04T19:17:29.285Z</time></trkpt><trkpt lat="34.5859833" lon="10.408655"><ele>50.0</ele><time>2026-04-04T19:17:30.285Z</time></trkpt><trkpt lat="34.5858467" lon="10.4083967"><ele>50.0</ele><time>2026-04-04T19:17:31.285Z</time></trkpt><trkpt lat="34.5857067" lon="10.40814"><ele>50.0</ele><time>2026-04-04T19:17:32.284Z</time></trkpt><trkpt lat="34.5855667" lon="10.40788"><ele>49.0</ele><time>2026-04-04T19:17:33.285Z</time></trkpt><trkpt lat="34.5854267" lon="10.4076217"><ele>48.0</ele><time>2026-04-04T19:17:34.284Z</time></trkpt><trkpt lat="34.585285" lon="10.40736"><ele>48.5</ele><time>2026-04-04T19:17:35.284Z</time></trkpt><trkpt lat="34.5851417" lon="10.4070983"><ele>49.0</ele><time>2026-04-04T19:17:36.284Z</time></trkpt><trkpt lat="34.5849983" lon="10.406835"><ele>49.0</ele><time>2026-04-04T19:17:37.286Z</time></trkpt><trkpt lat="34.5848533" lon="10.4065717"><ele>49.0</ele><time>2026-04-04T19:17:38.284Z</time></trkpt><trkpt lat="34.58471" lon="10.406305"><ele>49.0</ele><time>2026-04-04T19:17:39.287Z</time></trkpt><trkpt lat="34.5845683" lon="10.4060383"><ele>49.0</ele><time>2026-04-04T19:17:40.284Z</time></trkpt><trkpt lat="34.584425" lon="10.4057683"><ele>49.0</ele><time>2026-04-04T19:17:41.284Z</time></trkpt><trkpt lat="34.5842817" lon="10.4055017"><ele>49.0</ele><time>2026-04-04T19:17:42.285Z</time></trkpt><trkpt lat="34.58414" lon="10.40524"><ele>48.5</ele><time>2026-04-04T19:17:43.284Z</time></trkpt><trkpt lat="34.5840017" lon="10.40498"><ele>48.0</ele><time>2026-04-04T19:17:44.281Z</time></trkpt><trkpt lat="34.583865" lon="10.40472"><ele>48.5</ele><time>2026-04-04T19:17:45.282Z</time></trkpt><trkpt lat="34.5837267" lon="10.40446"><ele>49.0</ele><time>2026-04-04T19:17:46.282Z</time></trkpt><trkpt lat="34.5835867" lon="10.4042"><ele>49.0</ele><time>2026-04-04T19:17:47.284Z</time></trkpt><trkpt lat="34.583445" lon="10.40394"><ele>49.0</ele><time>2026-04-04T19:17:48.282Z</time></trkpt><trkpt lat="34.5833083" lon="10.4036767"><ele>49.0</ele><time>2026-04-04T19:17:49.283Z</time></trkpt><trkpt lat="34.5831683" lon="10.4034133"><ele>49.0</ele><time>2026-04-04T19:17:50.283Z</time></trkpt><trkpt lat="34.583025" lon="10.4031517"><ele>49.5</ele><time>2026-04-04T19:17:51.283Z</time></trkpt><trkpt lat="34.5828817" lon="10.40289"><ele>50.0</ele><time>2026-04-04T19:17:52.282Z</time></trkpt><trkpt lat="34.58274" lon="10.402625"><ele>49.0</ele><time>2026-04-04T19:17:53.283Z</time></trkpt><trkpt lat="34.5825983" lon="10.4023617"><ele>48.0</ele><time>2026-04-04T19:17:54.282Z</time></trkpt><trkpt lat="34.5824583" lon="10.4021017"><ele>48.0</ele><time>2026-04-04T19:17:55.282Z</time></trkpt><trkpt lat="34.5823183" lon="10.4018417"><ele>48.0</ele><time>2026-04-04T19:17:56.283Z</time></trkpt><trkpt lat="34.5821783" lon="10.4015817"><ele>49.0</ele><time>2026-04-04T19:17:57.283Z</time></trkpt><trkpt lat="34.5820383" lon="10.40132"><ele>50.0</ele><time>2026-04-04T19:17:58.282Z</time></trkpt><trkpt lat="34.5818983" lon="10.4010567"><ele>50.0</ele><time>2026-04-04T19:17:59.283Z</time></trkpt><trkpt lat="34.5817567" lon="10.400795"><ele>50.0</ele><time>2026-04-04T19:18:00.282Z</time></trkpt><trkpt lat="34.5816133" lon="10.400535"><ele>50.0</ele><time>2026-04-04T19:18:01.285Z</time></trkpt><trkpt lat="34.5814717" lon="10.4002767"><ele>50.0</ele><time>2026-04-04T19:18:02.284Z</time></trkpt><trkpt lat="34.5813283" lon="10.4000167"><ele>50.0</ele><time>2026-04-04T19:18:03.284Z</time></trkpt><trkpt lat="34.5811867" lon="10.3997533"><ele>50.0</ele><time>2026-04-04T19:18:04.285Z</time></trkpt><trkpt lat="34.5810483" lon="10.39949"><ele>50.5</ele><time>2026-04-04T19:18:05.286Z</time></trkpt><trkpt lat="34.5809083" lon="10.3992283"><ele>51.0</ele><time>2026-04-04T19:18:06.285Z</time></trkpt><trkpt lat="34.5807733" lon="10.3989733"><ele>51.5</ele><time>2026-04-04T19:18:07.286Z</time></trkpt><trkpt lat="34.5806433" lon="10.398725"><ele>52.0</ele><time>2026-04-04T19:18:08.285Z</time></trkpt><trkpt lat="34.58051" lon="10.39848"><ele>52.0</ele><time>2026-04-04T19:18:09.286Z</time></trkpt><trkpt lat="34.580375" lon="10.3982333"><ele>52.0</ele><time>2026-04-04T19:18:10.285Z</time></trkpt><trkpt lat="34.5802367" lon="10.3979867"><ele>51.5</ele><time>2026-04-04T19:18:11.285Z</time></trkpt><trkpt lat="34.5800967" lon="10.39774"><ele>51.0</ele><time>2026-04-04T19:18:12.285Z</time></trkpt><trkpt lat="34.57996" lon="10.39749"><ele>51.0</ele><time>2026-04-04T19:18:13.286Z</time></trkpt><trkpt lat="34.5798217" lon="10.3972367"><ele>51.0</ele><time>2026-04-04T19:18:14.285Z</time></trkpt><trkpt lat="34.5796817" lon="10.39698"><ele>51.5</ele><time>2026-04-04T19:18:15.285Z</time></trkpt><trkpt lat="34.5795433" lon="10.39672"><ele>52.0</ele><time>2026-04-04T19:18:16.285Z</time></trkpt><trkpt lat="34.579405" lon="10.3964583"><ele>51.5</ele><time>2026-04-04T19:18:17.286Z</time></trkpt><trkpt lat="34.579265" lon="10.3961967"><ele>51.0</ele><time>2026-04-04T19:18:18.285Z</time></trkpt><trkpt lat="34.579125" lon="10.3959333"><ele>51.0</ele><time>2026-04-04T19:18:19.286Z</time></trkpt><trkpt lat="34.578985" lon="10.3956717"><ele>51.0</ele><time>2026-04-04T19:18:20.285Z</time></trkpt><trkpt lat="34.5788433" lon="10.3954083"><ele>51.0</ele><time>2026-04-04T19:18:21.285Z</time></trkpt><trkpt lat="34.5787" lon="10.3951467"><ele>51.0</ele><time>2026-04-04T19:18:22.286Z</time></trkpt><trkpt lat="34.57856" lon="10.3948883"><ele>52.5</ele><time>2026-04-04T19:18:23.286Z</time></trkpt><trkpt lat="34.5784167" lon="10.3946283"><ele>54.0</ele><time>2026-04-04T19:18:24.285Z</time></trkpt><trkpt lat="34.578275" lon="10.39437"><ele>54.0</ele><time>2026-04-04T19:18:25.285Z</time></trkpt><trkpt lat="34.57813" lon="10.3941133"><ele>54.0</ele><time>2026-04-04T19:18:26.285Z</time></trkpt><trkpt lat="34.5779867" lon="10.3938567"><ele>53.5</ele><time>2026-04-04T19:18:27.286Z</time></trkpt><trkpt lat="34.5778433" lon="10.3936017"><ele>53.0</ele><time>2026-04-04T19:18:28.285Z</time></trkpt><trkpt lat="34.577705" lon="10.3933467"><ele>53.0</ele><time>2026-04-04T19:18:29.285Z</time></trkpt><trkpt lat="34.5775633" lon="10.3930933"><ele>53.0</ele><time>2026-04-04T19:18:30.287Z</time></trkpt><trkpt lat="34.577425" lon="10.39284"><ele>52.0</ele><time>2026-04-04T19:18:31.285Z</time></trkpt><trkpt lat="34.577285" lon="10.39259"><ele>51.0</ele><time>2026-04-04T19:18:32.285Z</time></trkpt><trkpt lat="34.5771467" lon="10.3923367"><ele>50.5</ele><time>2026-04-04T19:18:33.285Z</time></trkpt><trkpt lat="34.5770067" lon="10.3920817"><ele>50.0</ele><time>2026-04-04T19:18:34.286Z</time></trkpt><trkpt lat="34.5768667" lon="10.3918267"><ele>50.0</ele><time>2026-04-04T19:18:35.285Z</time></trkpt><trkpt lat="34.5767283" lon="10.3915683"><ele>50.0</ele><time>2026-04-04T19:18:36.286Z</time></trkpt><trkpt lat="34.57659" lon="10.3913067"><ele>49.5</ele><time>2026-04-04T19:18:37.285Z</time></trkpt><trkpt lat="34.5764533" lon="10.391045"><ele>49.0</ele><time>2026-04-04T19:18:38.285Z</time></trkpt><trkpt lat="34.57632" lon="10.3907817"><ele>49.0</ele><time>2026-04-04T19:18:39.284Z</time></trkpt><trkpt lat="34.5761867" lon="10.3905217"><ele>49.0</ele><time>2026-04-04T19:18:40.285Z</time></trkpt><trkpt lat="34.576055" lon="10.390255"><ele>49.0</ele><time>2026-04-04T19:18:41.285Z</time></trkpt><trkpt lat="34.5759133" lon="10.3899917"><ele>49.0</ele><time>2026-04-04T19:18:42.283Z</time></trkpt><trkpt lat="34.5757733" lon="10.3897283"><ele>50.0</ele><time>2026-04-04T19:18:43.285Z</time></trkpt><trkpt lat="34.5756333" lon="10.389465"><ele>51.0</ele><time>2026-04-04T19:18:44.285Z</time></trkpt><trkpt lat="34.5754917" lon="10.3892017"><ele>51.0</ele><time>2026-04-04T19:18:45.284Z</time></trkpt><trkpt lat="34.5753467" lon="10.38894"><ele>51.0</ele><time>2026-04-04T19:18:46.285Z</time></trkpt><trkpt lat="34.5752083" lon="10.3886817"><ele>51.0</ele><time>2026-04-04T19:18:47.285Z</time></trkpt><trkpt lat="34.57507" lon="10.3884267"><ele>51.0</ele><time>2026-04-04T19:18:48.285Z</time></trkpt><trkpt lat="34.574935" lon="10.3881733"><ele>51.5</ele><time>2026-04-04T19:18:49.284Z</time></trkpt><trkpt lat="34.5748017" lon="10.3879217"><ele>52.0</ele><time>2026-04-04T19:18:50.286Z</time></trkpt><trkpt lat="34.5746667" lon="10.3876717"><ele>52.0</ele><time>2026-04-04T19:18:51.285Z</time></trkpt><trkpt lat="34.574535" lon="10.3874217"><ele>52.0</ele><time>2026-04-04T19:18:52.285Z</time></trkpt><trkpt lat="34.5744033" lon="10.3871733"><ele>51.0</ele><time>2026-04-04T19:18:53.285Z</time></trkpt><trkpt lat="34.5742683" lon="10.3869267"><ele>50.0</ele><time>2026-04-04T19:18:54.285Z</time></trkpt><trkpt lat="34.574135" lon="10.38668"><ele>50.0</ele><time>2026-04-04T19:18:55.285Z</time></trkpt><trkpt lat="34.5740017" lon="10.3864317"><ele>50.0</ele><time>2026-04-04T19:18:56.285Z</time></trkpt><trkpt lat="34.57387" lon="10.3861833"><ele>50.5</ele><time>2026-04-04T19:18:57.285Z</time></trkpt><trkpt lat="34.5737383" lon="10.3859367"><ele>51.0</ele><time>2026-04-04T19:18:58.286Z</time></trkpt><trkpt lat="34.5736083" lon="10.3856883"><ele>51.5</ele><time>2026-04-04T19:18:59.285Z</time></trkpt><trkpt lat="34.5734783" lon="10.3854433"><ele>52.0</ele><time>2026-04-04T19:19:00.286Z</time></trkpt><trkpt lat="34.5733483" lon="10.3852"><ele>52.0</ele><time>2026-04-04T19:19:01.286Z</time></trkpt><trkpt lat="34.573215" lon="10.38496"><ele>52.0</ele><time>2026-04-04T19:19:02.285Z</time></trkpt><trkpt lat="34.573085" lon="10.3847183"><ele>52.0</ele><time>2026-04-04T19:19:03.285Z</time></trkpt><trkpt lat="34.5729567" lon="10.3844783"><ele>52.0</ele><time>2026-04-04T19:19:04.285Z</time></trkpt><trkpt lat="34.572825" lon="10.384235"><ele>52.0</ele><time>2026-04-04T19:19:05.286Z</time></trkpt><trkpt lat="34.5726933" lon="10.3839883"><ele>52.0</ele><time>2026-04-04T19:19:06.285Z</time></trkpt><trkpt lat="34.57256" lon="10.38374"><ele>52.5</ele><time>2026-04-04T19:19:07.285Z</time></trkpt><trkpt lat="34.5724267" lon="10.3834917"><ele>53.0</ele><time>2026-04-04T19:19:08.285Z</time></trkpt><trkpt lat="34.5722917" lon="10.3832433"><ele>52.5</ele><time>2026-04-04T19:19:09.286Z</time></trkpt><trkpt lat="34.5721533" lon="10.382995"><ele>52.0</ele><time>2026-04-04T19:19:10.285Z</time></trkpt><trkpt lat="34.5720183" lon="10.3827467"><ele>52.0</ele><time>2026-04-04T19:19:11.285Z</time></trkpt><trkpt lat="34.5718833" lon="10.3824983"><ele>52.0</ele><time>2026-04-04T19:19:12.285Z</time></trkpt><trkpt lat="34.5717483" lon="10.3822483"><ele>51.5</ele><time>2026-04-04T19:19:13.285Z</time></trkpt><trkpt lat="34.5716167" lon="10.382"><ele>51.0</ele><time>2026-04-04T19:19:14.285Z</time></trkpt><trkpt lat="34.571485" lon="10.38175"><ele>51.0</ele><time>2026-04-04T19:19:15.285Z</time></trkpt><trkpt lat="34.5713533" lon="10.3815017"><ele>51.0</ele><time>2026-04-04T19:19:16.285Z</time></trkpt><trkpt lat="34.5712217" lon="10.3812533"><ele>52.0</ele><time>2026-04-04T19:19:17.286Z</time></trkpt><trkpt lat="34.5710883" lon="10.3810067"><ele>53.0</ele><time>2026-04-04T19:19:18.286Z</time></trkpt><trkpt lat="34.570955" lon="10.38076"><ele>52.0</ele><time>2026-04-04T19:19:19.285Z</time></trkpt><trkpt lat="34.5708217" lon="10.3805133"><ele>51.0</ele><time>2026-04-04T19:19:20.285Z</time></trkpt><trkpt lat="34.5706867" lon="10.3802633"><ele>51.0</ele><time>2026-04-04T19:19:21.286Z</time></trkpt><trkpt lat="34.5705517" lon="10.3800133"><ele>51.0</ele><time>2026-04-04T19:19:22.285Z</time></trkpt><trkpt lat="34.5704167" lon="10.37976"><ele>51.5</ele><time>2026-04-04T19:19:23.285Z</time></trkpt><trkpt lat="34.57028" lon="10.379505"><ele>52.0</ele><time>2026-04-04T19:19:24.285Z</time></trkpt><trkpt lat="34.5701417" lon="10.37925"><ele>52.0</ele><time>2026-04-04T19:19:25.284Z</time></trkpt><trkpt lat="34.57" lon="10.3789933"><ele>52.0</ele><time>2026-04-04T19:19:26.284Z</time></trkpt><trkpt lat="34.5698583" lon="10.3787367"><ele>52.0</ele><time>2026-04-04T19:19:27.284Z</time></trkpt><trkpt lat="34.5697167" lon="10.37848"><ele>52.0</ele><time>2026-04-04T19:19:28.284Z</time></trkpt><trkpt lat="34.5695767" lon="10.3782217"><ele>52.5</ele><time>2026-04-04T19:19:29.284Z</time></trkpt><trkpt lat="34.5694383" lon="10.377965"><ele>53.0</ele><time>2026-04-04T19:19:30.284Z</time></trkpt><trkpt lat="34.569305" lon="10.3777067"><ele>53.0</ele><time>2026-04-04T19:19:31.284Z</time></trkpt><trkpt lat="34.5691733" lon="10.3774517"><ele>53.0</ele><time>2026-04-04T19:19:32.284Z</time></trkpt><trkpt lat="34.5690417" lon="10.3771967"><ele>53.0</ele><time>2026-04-04T19:19:33.284Z</time></trkpt><trkpt lat="34.5689133" lon="10.37694"><ele>53.0</ele><time>2026-04-04T19:19:34.285Z</time></trkpt><trkpt lat="34.5687883" lon="10.37668"><ele>52.5</ele><time>2026-04-04T19:19:35.284Z</time></trkpt><trkpt lat="34.568665" lon="10.37642"><ele>52.0</ele><time>2026-04-04T19:19:36.284Z</time></trkpt><trkpt lat="34.5685467" lon="10.3761567"><ele>52.0</ele><time>2026-04-04T19:19:37.285Z</time></trkpt><trkpt lat="34.5684317" lon="10.3758917"><ele>52.0</ele><time>2026-04-04T19:19:38.284Z</time></trkpt><trkpt lat="34.56832" lon="10.375625"><ele>52.0</ele><time>2026-04-04T19:19:39.284Z</time></trkpt><trkpt lat="34.56821" lon="10.375355"><ele>52.0</ele><time>2026-04-04T19:19:40.284Z</time></trkpt><trkpt lat="34.5681033" lon="10.3750833"><ele>52.0</ele><time>2026-04-04T19:19:41.284Z</time></trkpt><trkpt lat="34.5680033" lon="10.374805"><ele>52.0</ele><time>2026-04-04T19:19:42.285Z</time></trkpt><trkpt lat="34.567905" lon="10.374525"><ele>52.0</ele><time>2026-04-04T19:19:43.285Z</time></trkpt><trkpt lat="34.5678083" lon="10.3742417"><ele>52.0</ele><time>2026-04-04T19:19:44.284Z</time></trkpt><trkpt lat="34.567715" lon="10.37396"><ele>51.5</ele><time>2026-04-04T19:19:45.284Z</time></trkpt><trkpt lat="34.567625" lon="10.373675"><ele>51.0</ele><time>2026-04-04T19:19:46.284Z</time></trkpt><trkpt lat="34.5675367" lon="10.3733883"><ele>51.0</ele><time>2026-04-04T19:19:47.284Z</time></trkpt><trkpt lat="34.567455" lon="10.3730967"><ele>51.0</ele><time>2026-04-04T19:19:48.283Z</time></trkpt><trkpt lat="34.5673833" lon="10.3727983"><ele>51.5</ele><time>2026-04-04T19:19:49.284Z</time></trkpt><trkpt lat="34.56731" lon="10.3724983"><ele>52.0</ele><time>2026-04-04T19:19:50.285Z</time></trkpt><trkpt lat="34.567235" lon="10.3721967"><ele>52.0</ele><time>2026-04-04T19:19:51.284Z</time></trkpt><trkpt lat="34.5671667" lon="10.371895"><ele>52.0</ele><time>2026-04-04T19:19:52.284Z</time></trkpt><trkpt lat="34.5671033" lon="10.3715933"><ele>51.5</ele><time>2026-04-04T19:19:53.284Z</time></trkpt><trkpt lat="34.5670417" lon="10.3712917"><ele>51.0</ele><time>2026-04-04T19:19:54.283Z</time></trkpt><trkpt lat="34.5669867" lon="10.37099"><ele>51.0</ele><time>2026-04-04T19:19:55.284Z</time></trkpt><trkpt lat="34.5669367" lon="10.3706867"><ele>51.0</ele><time>2026-04-04T19:19:56.281Z</time></trkpt><trkpt lat="34.56689" lon="10.3703833"><ele>52.5</ele><time>2026-04-04T19:19:57.284Z</time></trkpt><trkpt lat="34.5668483" lon="10.37008"><ele>54.0</ele><time>2026-04-04T19:19:58.282Z</time></trkpt><trkpt lat="34.5668083" lon="10.3697767"><ele>53.5</ele><time>2026-04-04T19:19:59.285Z</time></trkpt><trkpt lat="34.56677" lon="10.3694733"><ele>53.0</ele><time>2026-04-04T19:20:00.285Z</time></trkpt><trkpt lat="34.56674" lon="10.3691683"><ele>53.0</ele><time>2026-04-04T19:20:01.284Z</time></trkpt><trkpt lat="34.5667133" lon="10.3688633"><ele>53.0</ele><time>2026-04-04T19:20:02.285Z</time></trkpt><trkpt lat="34.5666867" lon="10.36856"><ele>53.5</ele><time>2026-04-04T19:20:03.281Z</time></trkpt><trkpt lat="34.56666" lon="10.368265"><ele>54.0</ele><time>2026-04-04T19:20:04.284Z</time></trkpt><trkpt lat="34.5666383" lon="10.36797"><ele>54.0</ele><time>2026-04-04T19:20:05.281Z</time></trkpt><trkpt lat="34.56662" lon="10.3676783"><ele>54.0</ele><time>2026-04-04T19:20:06.283Z</time></trkpt><trkpt lat="34.5666033" lon="10.3673867"><ele>54.5</ele><time>2026-04-04T19:20:07.282Z</time></trkpt><trkpt lat="34.5665867" lon="10.3670967"><ele>55.0</ele><time>2026-04-04T19:20:08.282Z</time></trkpt><trkpt lat="34.5665717" lon="10.3668067"><ele>55.0</ele><time>2026-04-04T19:20:09.283Z</time></trkpt><trkpt lat="34.5665567" lon="10.3665167"><ele>55.0</ele><time>2026-04-04T19:20:10.285Z</time></trkpt><trkpt lat="34.5665417" lon="10.366225"><ele>55.5</ele><time>2026-04-04T19:20:11.284Z</time></trkpt><trkpt lat="34.566525" lon="10.3659317"><ele>56.0</ele><time>2026-04-04T19:20:12.285Z</time></trkpt><trkpt lat="34.5665083" lon="10.3656367"><ele>56.5</ele><time>2026-04-04T19:20:13.285Z</time></trkpt><trkpt lat="34.5664917" lon="10.36534"><ele>57.0</ele><time>2026-04-04T19:20:14.284Z</time></trkpt><trkpt lat="34.5664767" lon="10.36504"><ele>57.0</ele><time>2026-04-04T19:20:15.285Z</time></trkpt><trkpt lat="34.5664633" lon="10.3647383"><ele>57.0</ele><time>2026-04-04T19:20:16.286Z</time></trkpt><trkpt lat="34.5664467" lon="10.3644367"><ele>56.5</ele><time>2026-04-04T19:20:17.284Z</time></trkpt><trkpt lat="34.5664317" lon="10.364135"><ele>56.0</ele><time>2026-04-04T19:20:18.284Z</time></trkpt><trkpt lat="34.5664133" lon="10.3638283"><ele>55.5</ele><time>2026-04-04T19:20:19.285Z</time></trkpt><trkpt lat="34.5663983" lon="10.3635233"><ele>55.0</ele><time>2026-04-04T19:20:20.284Z</time></trkpt><trkpt lat="34.5663833" lon="10.3632167"><ele>55.5</ele><time>2026-04-04T19:20:21.285Z</time></trkpt><trkpt lat="34.5663683" lon="10.3629083"><ele>56.0</ele><time>2026-04-04T19:20:22.284Z</time></trkpt><trkpt lat="34.5663533" lon="10.3626017"><ele>56.0</ele><time>2026-04-04T19:20:23.285Z</time></trkpt><trkpt lat="34.5663383" lon="10.3622983"><ele>56.0</ele><time>2026-04-04T19:20:24.284Z</time></trkpt><trkpt lat="34.5663233" lon="10.3619967"><ele>57.0</ele><time>2026-04-04T19:20:25.285Z</time></trkpt><trkpt lat="34.5663067" lon="10.3616967"><ele>58.0</ele><time>2026-04-04T19:20:26.284Z</time></trkpt><trkpt lat="34.5662883" lon="10.3613967"><ele>57.0</ele><time>2026-04-04T19:20:27.284Z</time></trkpt><trkpt lat="34.5662683" lon="10.361095"><ele>56.0</ele><time>2026-04-04T19:20:28.284Z</time></trkpt><trkpt lat="34.5662533" lon="10.3607967"><ele>56.0</ele><time>2026-04-04T19:20:29.285Z</time></trkpt><trkpt lat="34.5662383" lon="10.360495"><ele>56.0</ele><time>2026-04-04T19:20:30.285Z</time></trkpt><trkpt lat="34.566225" lon="10.3601933"><ele>56.0</ele><time>2026-04-04T19:20:31.282Z</time></trkpt><trkpt lat="34.5662117" lon="10.3598883"><ele>56.0</ele><time>2026-04-04T19:20:32.284Z</time></trkpt><trkpt lat="34.5661967" lon="10.35958"><ele>54.0</ele><time>2026-04-04T19:20:33.284Z</time></trkpt><trkpt lat="34.5661817" lon="10.35927"><ele>52.0</ele><time>2026-04-04T19:20:34.282Z</time></trkpt><trkpt lat="34.5661667" lon="10.3589583"><ele>53.5</ele><time>2026-04-04T19:20:35.282Z</time></trkpt><trkpt lat="34.5661483" lon="10.3586433"><ele>55.0</ele><time>2026-04-04T19:20:36.283Z</time></trkpt><trkpt lat="34.5661333" lon="10.3583317"><ele>55.5</ele><time>2026-04-04T19:20:37.282Z</time></trkpt><trkpt lat="34.5661183" lon="10.3580233"><ele>56.0</ele><time>2026-04-04T19:20:38.282Z</time></trkpt><trkpt lat="34.5661033" lon="10.3577233"><ele>56.0</ele><time>2026-04-04T19:20:39.282Z</time></trkpt><trkpt lat="34.56609" lon="10.3574283"><ele>56.0</ele><time>2026-04-04T19:20:40.282Z</time></trkpt><trkpt lat="34.5660767" lon="10.3571333"><ele>57.0</ele><time>2026-04-04T19:20:41.285Z</time></trkpt><trkpt lat="34.5660633" lon="10.3568383"><ele>58.0</ele><time>2026-04-04T19:20:42.286Z</time></trkpt><trkpt lat="34.5660483" lon="10.3565433"><ele>58.0</ele><time>2026-04-04T19:20:43.283Z</time></trkpt><trkpt lat="34.5660317" lon="10.3562467"><ele>58.0</ele><time>2026-04-04T19:20:44.285Z</time></trkpt><trkpt lat="34.566015" lon="10.35595"><ele>58.0</ele><time>2026-04-04T19:20:45.287Z</time></trkpt><trkpt lat="34.5659983" lon="10.3556517"><ele>58.0</ele><time>2026-04-04T19:20:46.285Z</time></trkpt><trkpt lat="34.5659817" lon="10.3553567"><ele>58.5</ele><time>2026-04-04T19:20:47.284Z</time></trkpt><trkpt lat="34.565965" lon="10.3550567"><ele>59.0</ele><time>2026-04-04T19:20:48.285Z</time></trkpt><trkpt lat="34.5659483" lon="10.354755"><ele>59.5</ele><time>2026-04-04T19:20:49.284Z</time></trkpt><trkpt lat="34.5659333" lon="10.35445"><ele>60.0</ele><time>2026-04-04T19:20:50.284Z</time></trkpt><trkpt lat="34.5659167" lon="10.3541483"><ele>60.0</ele><time>2026-04-04T19:20:51.285Z</time></trkpt><trkpt lat="34.5659" lon="10.3538483"><ele>60.0</ele><time>2026-04-04T19:20:52.282Z</time></trkpt><trkpt lat="34.5658833" lon="10.3535517"><ele>60.0</ele><time>2026-04-04T19:20:53.285Z</time></trkpt><trkpt lat="34.5658633" lon="10.3532583"><ele>60.0</ele><time>2026-04-04T19:20:54.285Z</time></trkpt><trkpt lat="34.5658383" lon="10.352965"><ele>59.0</ele><time>2026-04-04T19:20:55.285Z</time></trkpt><trkpt lat="34.5658117" lon="10.3526717"><ele>58.0</ele><time>2026-04-04T19:20:56.284Z</time></trkpt><trkpt lat="34.5657833" lon="10.3523767"><ele>57.5</ele><time>2026-04-04T19:20:57.285Z</time></trkpt><trkpt lat="34.56575" lon="10.35208"><ele>57.0</ele><time>2026-04-04T19:20:58.284Z</time></trkpt><trkpt lat="34.5657133" lon="10.35178"><ele>57.0</ele><time>2026-04-04T19:20:59.285Z</time></trkpt><trkpt lat="34.565675" lon="10.35148"><ele>57.0</ele><time>2026-04-04T19:21:00.285Z</time></trkpt><trkpt lat="34.5656317" lon="10.35118"><ele>57.5</ele><time>2026-04-04T19:21:01.284Z</time></trkpt><trkpt lat="34.565585" lon="10.35088"><ele>58.0</ele><time>2026-04-04T19:21:02.281Z</time></trkpt><trkpt lat="34.5655333" lon="10.35058"><ele>59.5</ele><time>2026-04-04T19:21:03.283Z</time></trkpt><trkpt lat="34.56548" lon="10.3502817"><ele>61.0</ele><time>2026-04-04T19:21:04.282Z</time></trkpt><trkpt lat="34.5654217" lon="10.349985"><ele>61.5</ele><time>2026-04-04T19:21:05.283Z</time></trkpt><trkpt lat="34.5653617" lon="10.3496933"><ele>62.0</ele><time>2026-04-04T19:21:06.284Z</time></trkpt><trkpt lat="34.5652967" lon="10.3494017"><ele>62.0</ele><time>2026-04-04T19:21:07.282Z</time></trkpt><trkpt lat="34.5652283" lon="10.3491117"><ele>62.0</ele><time>2026-04-04T19:21:08.283Z</time></trkpt><trkpt lat="34.5651533" lon="10.3488233"><ele>62.5</ele><time>2026-04-04T19:21:09.282Z</time></trkpt><trkpt lat="34.5650767" lon="10.3485383"><ele>63.0</ele><time>2026-04-04T19:21:10.283Z</time></trkpt><trkpt lat="34.5649967" lon="10.348255"><ele>63.0</ele><time>2026-04-04T19:21:11.284Z</time></trkpt><trkpt lat="34.56491" lon="10.3479733"><ele>63.0</ele><time>2026-04-04T19:21:12.284Z</time></trkpt><trkpt lat="34.56482" lon="10.3476917"><ele>63.0</ele><time>2026-04-04T19:21:13.285Z</time></trkpt><trkpt lat="34.5647283" lon="10.3474117"><ele>63.0</ele><time>2026-04-04T19:21:14.288Z</time></trkpt><trkpt lat="34.5646333" lon="10.347135"><ele>62.5</ele><time>2026-04-04T19:21:15.287Z</time></trkpt><trkpt lat="34.564535" lon="10.3468583"><ele>62.0</ele><time>2026-04-04T19:21:16.285Z</time></trkpt><trkpt lat="34.5644317" lon="10.3465817"><ele>61.5</ele><time>2026-04-04T19:21:17.285Z</time></trkpt><trkpt lat="34.564325" lon="10.3463083"><ele>61.0</ele><time>2026-04-04T19:21:18.285Z</time></trkpt><trkpt lat="34.5642183" lon="10.3460417"><ele>61.0</ele><time>2026-04-04T19:21:19.284Z</time></trkpt><trkpt lat="34.564105" lon="10.3457767"><ele>61.0</ele><time>2026-04-04T19:21:20.286Z</time></trkpt><trkpt lat="34.563985" lon="10.3455067"><ele>61.5</ele><time>2026-04-04T19:21:21.285Z</time></trkpt><trkpt lat="34.5638617" lon="10.3452333"><ele>62.0</ele><time>2026-04-04T19:21:22.285Z</time></trkpt><trkpt lat="34.563735" lon="10.34496"><ele>59.5</ele><time>2026-04-04T19:21:23.285Z</time></trkpt><trkpt lat="34.5636017" lon="10.3446867"><ele>57.0</ele><time>2026-04-04T19:21:24.285Z</time></trkpt><trkpt lat="34.563465" lon="10.344415"><ele>57.0</ele><time>2026-04-04T19:21:25.286Z</time></trkpt><trkpt lat="34.5633233" lon="10.3441483"><ele>57.0</ele><time>2026-04-04T19:21:26.285Z</time></trkpt><trkpt lat="34.5631817" lon="10.3438817"><ele>57.5</ele><time>2026-04-04T19:21:27.285Z</time></trkpt><trkpt lat="34.563035" lon="10.3436183"><ele>58.0</ele><time>2026-04-04T19:21:28.285Z</time></trkpt><trkpt lat="34.5628917" lon="10.3433617"><ele>57.0</ele><time>2026-04-04T19:21:29.286Z</time></trkpt><trkpt lat="34.56275" lon="10.3431117"><ele>56.0</ele><time>2026-04-04T19:21:30.285Z</time></trkpt><trkpt lat="34.56261" lon="10.342865"><ele>55.5</ele><time>2026-04-04T19:21:31.285Z</time></trkpt><trkpt lat="34.5624683" lon="10.3426167"><ele>55.0</ele><time>2026-04-04T19:21:32.286Z</time></trkpt><trkpt lat="34.5623283" lon="10.3423667"><ele>55.5</ele><time>2026-04-04T19:21:33.282Z</time></trkpt><trkpt lat="34.5621883" lon="10.342115"><ele>56.0</ele><time>2026-04-04T19:21:34.283Z</time></trkpt><trkpt lat="34.562045" lon="10.3418617"><ele>56.0</ele><time>2026-04-04T19:21:35.283Z</time></trkpt><trkpt lat="34.5619033" lon="10.3416083"><ele>56.0</ele><time>2026-04-04T19:21:36.283Z</time></trkpt><trkpt lat="34.56176" lon="10.3413533"><ele>56.0</ele><time>2026-04-04T19:21:37.283Z</time></trkpt><trkpt lat="34.5616133" lon="10.3410983"><ele>56.0</ele><time>2026-04-04T19:21:38.283Z</time></trkpt><trkpt lat="34.561465" lon="10.34084"><ele>56.0</ele><time>2026-04-04T19:21:39.282Z</time></trkpt><trkpt lat="34.56132" lon="10.340585"><ele>56.0</ele><time>2026-04-04T19:21:40.286Z</time></trkpt><trkpt lat="34.561175" lon="10.3403267"><ele>54.5</ele><time>2026-04-04T19:21:41.285Z</time></trkpt><trkpt lat="34.5610367" lon="10.3400717"><ele>53.0</ele><time>2026-04-04T19:21:42.285Z</time></trkpt><trkpt lat="34.5608983" lon="10.3398183"><ele>53.5</ele><time>2026-04-04T19:21:43.286Z</time></trkpt><trkpt lat="34.5607567" lon="10.3395683"><ele>54.0</ele><time>2026-04-04T19:21:44.285Z</time></trkpt><trkpt lat="34.560615" lon="10.33932"><ele>54.0</ele><time>2026-04-04T19:21:45.285Z</time></trkpt><trkpt lat="34.5604717" lon="10.3390733"><ele>54.0</ele><time>2026-04-04T19:21:46.286Z</time></trkpt><trkpt lat="34.56033" lon="10.3388217"><ele>54.0</ele><time>2026-04-04T19:21:47.285Z</time></trkpt><trkpt lat="34.5601867" lon="10.33857"><ele>54.0</ele><time>2026-04-04T19:21:48.285Z</time></trkpt><trkpt lat="34.560045" lon="10.3383183"><ele>54.0</ele><time>2026-04-04T19:21:49.285Z</time></trkpt><trkpt lat="34.5599017" lon="10.3380667"><ele>54.0</ele><time>2026-04-04T19:21:50.286Z</time></trkpt><trkpt lat="34.5597583" lon="10.3378167"><ele>53.5</ele><time>2026-04-04T19:21:51.286Z</time></trkpt><trkpt lat="34.559615" lon="10.3375667"><ele>53.0</ele><time>2026-04-04T19:21:52.286Z</time></trkpt><trkpt lat="34.559475" lon="10.337315"><ele>53.5</ele><time>2026-04-04T19:21:53.285Z</time></trkpt><trkpt lat="34.559335" lon="10.3370617"><ele>54.0</ele><time>2026-04-04T19:21:54.285Z</time></trkpt><trkpt lat="34.5591933" lon="10.3368083"><ele>54.0</ele><time>2026-04-04T19:21:55.285Z</time></trkpt><trkpt lat="34.5590483" lon="10.3365533"><ele>54.0</ele><time>2026-04-04T19:21:56.285Z</time></trkpt><trkpt lat="34.5589067" lon="10.3362983"><ele>54.0</ele><time>2026-04-04T19:21:57.285Z</time></trkpt><trkpt lat="34.5587617" lon="10.336045"><ele>54.0</ele><time>2026-04-04T19:21:58.285Z</time></trkpt><trkpt lat="34.5586183" lon="10.3357917"><ele>55.0</ele><time>2026-04-04T19:21:59.285Z</time></trkpt><trkpt lat="34.558475" lon="10.3355367"><ele>56.0</ele><time>2026-04-04T19:22:00.285Z</time></trkpt><trkpt lat="34.5583333" lon="10.3352833"><ele>56.0</ele><time>2026-04-04T19:22:01.285Z</time></trkpt><trkpt lat="34.5581883" lon="10.3350317"><ele>56.0</ele><time>2026-04-04T19:22:02.285Z</time></trkpt><trkpt lat="34.558045" lon="10.33478"><ele>56.5</ele><time>2026-04-04T19:22:03.286Z</time></trkpt><trkpt lat="34.5579017" lon="10.3345283"><ele>57.0</ele><time>2026-04-04T19:22:04.285Z</time></trkpt><trkpt lat="34.5577633" lon="10.334275"><ele>56.5</ele><time>2026-04-04T19:22:05.285Z</time></trkpt><trkpt lat="34.557625" lon="10.3340233"><ele>56.0</ele><time>2026-04-04T19:22:06.285Z</time></trkpt><trkpt lat="34.557485" lon="10.3337717"><ele>56.0</ele><time>2026-04-04T19:22:07.285Z</time></trkpt><trkpt lat="34.5573483" lon="10.3335217"><ele>56.0</ele><time>2026-04-04T19:22:08.286Z</time></trkpt><trkpt lat="34.5572083" lon="10.3332717"><ele>56.5</ele><time>2026-04-04T19:22:09.287Z</time></trkpt><trkpt lat="34.5570683" lon="10.3330217"><ele>57.0</ele><time>2026-04-04T19:22:10.285Z</time></trkpt><trkpt lat="34.5569283" lon="10.332775"><ele>56.0</ele><time>2026-04-04T19:22:11.285Z</time></trkpt><trkpt lat="34.5567883" lon="10.3325283"><ele>55.0</ele><time>2026-04-04T19:22:12.285Z</time></trkpt><trkpt lat="34.55665" lon="10.3322833"><ele>55.0</ele><time>2026-04-04T19:22:13.285Z</time></trkpt><trkpt lat="34.55651" lon="10.33204"><ele>55.0</ele><time>2026-04-04T19:22:14.286Z</time></trkpt><trkpt lat="34.5563717" lon="10.331795"><ele>55.0</ele><time>2026-04-04T19:22:15.285Z</time></trkpt><trkpt lat="34.5562333" lon="10.3315517"><ele>55.0</ele><time>2026-04-04T19:22:16.286Z</time></trkpt><trkpt lat="34.556095" lon="10.3313083"><ele>54.5</ele><time>2026-04-04T19:22:17.285Z</time></trkpt><trkpt lat="34.555955" lon="10.3310633"><ele>54.0</ele><time>2026-04-04T19:22:18.285Z</time></trkpt><trkpt lat="34.5558183" lon="10.33082"><ele>54.0</ele><time>2026-04-04T19:22:19.286Z</time></trkpt><trkpt lat="34.5556817" lon="10.3305783"><ele>54.0</ele><time>2026-04-04T19:22:20.285Z</time></trkpt><trkpt lat="34.5555433" lon="10.3303333"><ele>54.0</ele><time>2026-04-04T19:22:21.286Z</time></trkpt><trkpt lat="34.5554083" lon="10.3300883"><ele>54.0</ele><time>2026-04-04T19:22:22.285Z</time></trkpt><trkpt lat="34.55527" lon="10.329845"><ele>53.5</ele><time>2026-04-04T19:22:23.285Z</time></trkpt><trkpt lat="34.55513" lon="10.3296"><ele>53.0</ele><time>2026-04-04T19:22:24.286Z</time></trkpt><trkpt lat="34.5549917" lon="10.3293533"><ele>53.0</ele><time>2026-04-04T19:22:25.286Z</time></trkpt><trkpt lat="34.554855" lon="10.3291083"><ele>53.0</ele><time>2026-04-04T19:22:26.285Z</time></trkpt><trkpt lat="34.5547167" lon="10.32886"><ele>53.0</ele><time>2026-04-04T19:22:27.286Z</time></trkpt><trkpt lat="34.55458" lon="10.328615"><ele>53.0</ele><time>2026-04-04T19:22:28.285Z</time></trkpt><trkpt lat="34.5544433" lon="10.3283683"><ele>52.5</ele><time>2026-04-04T19:22:29.286Z</time></trkpt><trkpt lat="34.5543067" lon="10.3281233"><ele>52.0</ele><time>2026-04-04T19:22:30.285Z</time></trkpt><trkpt lat="34.5541683" lon="10.32788"><ele>52.0</ele><time>2026-04-04T19:22:31.286Z</time></trkpt><trkpt lat="34.55403" lon="10.3276367"><ele>52.0</ele><time>2026-04-04T19:22:32.285Z</time></trkpt><trkpt lat="34.5538933" lon="10.3273933"><ele>52.5</ele><time>2026-04-04T19:22:33.286Z</time></trkpt><trkpt lat="34.5537583" lon="10.3271467"><ele>53.0</ele><time>2026-04-04T19:22:34.285Z</time></trkpt><trkpt lat="34.5536217" lon="10.3269017"><ele>52.0</ele><time>2026-04-04T19:22:35.285Z</time></trkpt><trkpt lat="34.5534833" lon="10.326655"><ele>51.0</ele><time>2026-04-04T19:22:36.286Z</time></trkpt><trkpt lat="34.553345" lon="10.32641"><ele>50.5</ele><time>2026-04-04T19:22:37.285Z</time></trkpt><trkpt lat="34.553205" lon="10.3261633"><ele>50.0</ele><time>2026-04-04T19:22:38.285Z</time></trkpt><trkpt lat="34.553065" lon="10.3259167"><ele>50.0</ele><time>2026-04-04T19:22:39.285Z</time></trkpt><trkpt lat="34.552925" lon="10.3256683"><ele>50.0</ele><time>2026-04-04T19:22:40.284Z</time></trkpt><trkpt lat="34.5527817" lon="10.3254217"><ele>49.5</ele><time>2026-04-04T19:22:41.285Z</time></trkpt><trkpt lat="34.552635" lon="10.3251733"><ele>49.0</ele><time>2026-04-04T19:22:42.284Z</time></trkpt><trkpt lat="34.55249" lon="10.324925"><ele>49.0</ele><time>2026-04-04T19:22:43.284Z</time></trkpt><trkpt lat="34.5523467" lon="10.3246767"><ele>49.0</ele><time>2026-04-04T19:22:44.285Z</time></trkpt><trkpt lat="34.5522033" lon="10.3244233"><ele>49.0</ele><time>2026-04-04T19:22:45.284Z</time></trkpt><trkpt lat="34.5520617" lon="10.32417"><ele>49.0</ele><time>2026-04-04T19:22:46.284Z</time></trkpt><trkpt lat="34.5519183" lon="10.323915"><ele>49.5</ele><time>2026-04-04T19:22:47.284Z</time></trkpt><trkpt lat="34.5517767" lon="10.3236617"><ele>50.0</ele><time>2026-04-04T19:22:48.285Z</time></trkpt><trkpt lat="34.551635" lon="10.3234083"><ele>50.0</ele><time>2026-04-04T19:22:49.284Z</time></trkpt><trkpt lat="34.5514933" lon="10.323155"><ele>50.0</ele><time>2026-04-04T19:22:50.284Z</time></trkpt><trkpt lat="34.5513533" lon="10.3228983"><ele>50.0</ele><time>2026-04-04T19:22:51.284Z</time></trkpt><trkpt lat="34.5512117" lon="10.322645"><ele>50.0</ele><time>2026-04-04T19:22:52.284Z</time></trkpt><trkpt lat="34.55107" lon="10.3223933"><ele>50.5</ele><time>2026-04-04T19:22:53.284Z</time></trkpt><trkpt lat="34.5509283" lon="10.3221467"><ele>51.0</ele><time>2026-04-04T19:22:54.285Z</time></trkpt><trkpt lat="34.55079" lon="10.3218983"><ele>51.0</ele><time>2026-04-04T19:22:55.284Z</time></trkpt><trkpt lat="34.5506483" lon="10.3216517"><ele>51.0</ele><time>2026-04-04T19:22:56.284Z</time></trkpt><trkpt lat="34.55051" lon="10.3214067"><ele>51.5</ele><time>2026-04-04T19:22:57.284Z</time></trkpt><trkpt lat="34.5503733" lon="10.3211617"><ele>52.0</ele><time>2026-04-04T19:22:58.284Z</time></trkpt><trkpt lat="34.550235" lon="10.3209183"><ele>52.0</ele><time>2026-04-04T19:22:59.284Z</time></trkpt><trkpt lat="34.5500967" lon="10.3206767"><ele>52.0</ele><time>2026-04-04T19:23:00.284Z</time></trkpt><trkpt lat="34.5499583" lon="10.3204333"><ele>52.0</ele><time>2026-04-04T19:23:01.284Z</time></trkpt><trkpt lat="34.5498183" lon="10.32019"><ele>52.0</ele><time>2026-04-04T19:23:02.284Z</time></trkpt><trkpt lat="34.5496783" lon="10.3199433"><ele>51.0</ele><time>2026-04-04T19:23:03.286Z</time></trkpt><trkpt lat="34.5495333" lon="10.3196967"><ele>50.0</ele><time>2026-04-04T19:23:04.285Z</time></trkpt><trkpt lat="34.5493883" lon="10.31945"><ele>50.0</ele><time>2026-04-04T19:23:05.284Z</time></trkpt><trkpt lat="34.54924" lon="10.3191983"><ele>50.0</ele><time>2026-04-04T19:23:06.284Z</time></trkpt><trkpt lat="34.5490933" lon="10.3189467"><ele>50.0</ele><time>2026-04-04T19:23:07.285Z</time></trkpt><trkpt lat="34.548945" lon="10.3186967"><ele>50.0</ele><time>2026-04-04T19:23:08.285Z</time></trkpt><trkpt lat="34.5487983" lon="10.318445"><ele>50.0</ele><time>2026-04-04T19:23:09.285Z</time></trkpt><trkpt lat="34.5486533" lon="10.318195"><ele>50.0</ele><time>2026-04-04T19:23:10.284Z</time></trkpt><trkpt lat="34.548505" lon="10.3179433"><ele>50.0</ele><time>2026-04-04T19:23:11.285Z</time></trkpt><trkpt lat="34.5483583" lon="10.3176917"><ele>50.0</ele><time>2026-04-04T19:23:12.284Z</time></trkpt><trkpt lat="34.5482183" lon="10.317445"><ele>50.5</ele><time>2026-04-04T19:23:13.285Z</time></trkpt><trkpt lat="34.5480817" lon="10.3172083"><ele>51.0</ele><time>2026-04-04T19:23:14.284Z</time></trkpt><trkpt lat="34.5479467" lon="10.3169733"><ele>51.0</ele><time>2026-04-04T19:23:15.284Z</time></trkpt><trkpt lat="34.54781" lon="10.3167417"><ele>51.0</ele><time>2026-04-04T19:23:16.284Z</time></trkpt><trkpt lat="34.5476783" lon="10.3165117"><ele>50.5</ele><time>2026-04-04T19:23:17.285Z</time></trkpt><trkpt lat="34.54755" lon="10.3162817"><ele>50.0</ele><time>2026-04-04T19:23:18.285Z</time></trkpt><trkpt lat="34.5474267" lon="10.3160567"><ele>50.0</ele><time>2026-04-04T19:23:19.286Z</time></trkpt><trkpt lat="34.54731" lon="10.3158417"><ele>50.0</ele><time>2026-04-04T19:23:20.284Z</time></trkpt><trkpt lat="34.5472" lon="10.3156383"><ele>50.0</ele><time>2026-04-04T19:23:21.284Z</time></trkpt><trkpt lat="34.5470933" lon="10.3154467"><ele>50.333333333333336</ele><time>2026-04-04T19:23:22.284Z</time></trkpt><trkpt lat="34.54699" lon="10.315265"><ele>50.66666666666667</ele><time>2026-04-04T19:23:23.284Z</time></trkpt><trkpt lat="34.5468917" lon="10.315095"><ele>51.0</ele><time>2026-04-04T19:23:24.285Z</time></trkpt><trkpt lat="34.5467983" lon="10.3149333"><ele>51.0</ele><time>2026-04-04T19:23:25.284Z</time></trkpt><trkpt lat="34.54671" lon="10.3147767"><ele>51.0</ele><time>2026-04-04T19:23:26.284Z</time></trkpt><trkpt lat="34.5466267" lon="10.314625"><ele>51.0</ele><time>2026-04-04T19:23:27.285Z</time></trkpt><trkpt lat="34.546545" lon="10.314475"><ele>51.25</ele><time>2026-04-04T19:23:28.284Z</time></trkpt><trkpt lat="34.5464633" lon="10.31433"><ele>51.5</ele><time>2026-04-04T19:23:29.285Z</time></trkpt><trkpt lat="34.546385" lon="10.3141917"><ele>51.75</ele><time>2026-04-04T19:23:30.285Z</time></trkpt><trkpt lat="34.5463133" lon="10.314055"><ele>52.0</ele><time>2026-04-04T19:23:31.285Z</time></trkpt><trkpt lat="34.5462417" lon="10.31392"><ele>51.75</ele><time>2026-04-04T19:23:32.284Z</time></trkpt><trkpt lat="34.5461733" lon="10.3137867"><ele>51.5</ele><time>2026-04-04T19:23:33.284Z</time></trkpt><trkpt lat="34.5461067" lon="10.31366"><ele>51.25</ele><time>2026-04-04T19:23:34.282Z</time></trkpt><trkpt lat="34.5460467" lon="10.3135417"><ele>51.0</ele><time>2026-04-04T19:23:35.282Z</time></trkpt><trkpt lat="34.54599" lon="10.31343"><ele>51.0</ele><time>2026-04-04T19:23:36.283Z</time></trkpt><trkpt lat="34.545935" lon="10.313325"><ele>51.0</ele><time>2026-04-04T19:23:37.283Z</time></trkpt><trkpt lat="34.5458833" lon="10.3132217"><ele>51.0</ele><time>2026-04-04T19:23:38.282Z</time></trkpt><trkpt lat="34.5458333" lon="10.31312"><ele>51.0</ele><time>2026-04-04T19:23:39.283Z</time></trkpt><trkpt lat="34.5457883" lon="10.313025"><ele>51.0</ele><time>2026-04-04T19:23:40.286Z</time></trkpt><trkpt lat="34.5457433" lon="10.312935"><ele>51.199999999999996</ele><time>2026-04-04T19:23:41.285Z</time></trkpt><trkpt lat="34.545695" lon="10.31284"><ele>51.4</ele><time>2026-04-04T19:23:42.285Z</time></trkpt><trkpt lat="34.5456467" lon="10.3127383"><ele>51.6</ele><time>2026-04-04T19:23:43.285Z</time></trkpt><trkpt lat="34.545595" lon="10.3126317"><ele>51.8</ele><time>2026-04-04T19:23:44.284Z</time></trkpt><trkpt lat="34.5455383" lon="10.31252"><ele>52.0</ele><time>2026-04-04T19:23:45.284Z</time></trkpt><trkpt lat="34.5454783" lon="10.3124017"><ele>52.0</ele><time>2026-04-04T19:23:46.286Z</time></trkpt><trkpt lat="34.5454183" lon="10.3122767"><ele>52.0</ele><time>2026-04-04T19:23:47.284Z</time></trkpt><trkpt lat="34.5453567" lon="10.3121467"><ele>52.0</ele><time>2026-04-04T19:23:48.285Z</time></trkpt><trkpt lat="34.5452967" lon="10.3120133"><ele>52.0</ele><time>2026-04-04T19:23:49.284Z</time></trkpt><trkpt lat="34.5452333" lon="10.311875"><ele>52.0</ele><time>2026-04-04T19:23:50.285Z</time></trkpt><trkpt lat="34.54517" lon="10.3117333"><ele>52.0</ele><time>2026-04-04T19:23:51.284Z</time></trkpt><trkpt lat="34.5451017" lon="10.3115833"><ele>52.0</ele><time>2026-04-04T19:23:52.284Z</time></trkpt><trkpt lat="34.5450267" lon="10.3114233"><ele>52.0</ele><time>2026-04-04T19:23:53.284Z</time></trkpt><trkpt lat="34.5449483" lon="10.3112533"><ele>51.33333333333333</ele><time>2026-04-04T19:23:54.285Z</time></trkpt><trkpt lat="34.544865" lon="10.3110767"><ele>50.66666666666667</ele><time>2026-04-04T19:23:55.286Z</time></trkpt><trkpt lat="34.5447817" lon="10.31089"><ele>50.0</ele><time>2026-04-04T19:23:56.284Z</time></trkpt><trkpt lat="34.5446967" lon="10.310695"><ele>50.333333333333336</ele><time>2026-04-04T19:23:57.285Z</time></trkpt><trkpt lat="34.5446067" lon="10.31049"><ele>50.66666666666667</ele><time>2026-04-04T19:23:58.284Z</time></trkpt><trkpt lat="34.5445183" lon="10.3102817"><ele>51.0</ele><time>2026-04-04T19:23:59.285Z</time></trkpt><trkpt lat="34.5444333" lon="10.31008"><ele>51.0</ele><time>2026-04-04T19:24:00.286Z</time></trkpt><trkpt lat="34.5443467" lon="10.3098783"><ele>51.0</ele><time>2026-04-04T19:24:01.285Z</time></trkpt><trkpt lat="34.5442583" lon="10.3096683"><ele>51.0</ele><time>2026-04-04T19:24:02.284Z</time></trkpt><trkpt lat="34.54417" lon="10.30945"><ele>51.0</ele><time>2026-04-04T19:24:03.284Z</time></trkpt><trkpt lat="34.5440817" lon="10.309225"><ele>51.0</ele><time>2026-04-04T19:24:04.284Z</time></trkpt><trkpt lat="34.5439983" lon="10.3090033"><ele>51.0</ele><time>2026-04-04T19:24:05.283Z</time></trkpt><trkpt lat="34.5439067" lon="10.3087917"><ele>51.33333333333333</ele><time>2026-04-04T19:24:06.285Z</time></trkpt><trkpt lat="34.5438233" lon="10.308575"><ele>51.666666666666664</ele><time>2026-04-04T19:24:07.284Z</time></trkpt><trkpt lat="34.5437367" lon="10.3083567"><ele>52.0</ele><time>2026-04-04T19:24:08.284Z</time></trkpt><trkpt lat="34.54365" lon="10.308135"><ele>52.0</ele><time>2026-04-04T19:24:09.285Z</time></trkpt><trkpt lat="34.5435633" lon="10.3079117"><ele>52.0</ele><time>2026-04-04T19:24:10.284Z</time></trkpt><trkpt lat="34.5434767" lon="10.3076883"><ele>52.0</ele><time>2026-04-04T19:24:11.287Z</time></trkpt><trkpt lat="34.543385" lon="10.3074667"><ele>51.666666666666664</ele><time>2026-04-04T19:24:12.285Z</time></trkpt><trkpt lat="34.5432967" lon="10.3072417"><ele>51.33333333333333</ele><time>2026-04-04T19:24:13.284Z</time></trkpt><trkpt lat="34.543205" lon="10.3070183"><ele>51.0</ele><time>2026-04-04T19:24:14.284Z</time></trkpt><trkpt lat="34.5431117" lon="10.306795"><ele>51.0</ele><time>2026-04-04T19:24:15.285Z</time></trkpt><trkpt lat="34.5430217" lon="10.3065683"><ele>51.0</ele><time>2026-04-04T19:24:16.285Z</time></trkpt><trkpt lat="34.5429333" lon="10.3063417"><ele>51.0</ele><time>2026-04-04T19:24:17.285Z</time></trkpt><trkpt lat="34.542845" lon="10.3061167"><ele>51.33333333333333</ele><time>2026-04-04T19:24:18.285Z</time></trkpt><trkpt lat="34.5427567" lon="10.30589"><ele>51.666666666666664</ele><time>2026-04-04T19:24:19.285Z</time></trkpt><trkpt lat="34.5426733" lon="10.30566"><ele>52.0</ele><time>2026-04-04T19:24:20.285Z</time></trkpt><trkpt lat="34.5425933" lon="10.30544"><ele>52.33333333333333</ele><time>2026-04-04T19:24:21.284Z</time></trkpt><trkpt lat="34.5425117" lon="10.3052333"><ele>52.66666666666667</ele><time>2026-04-04T19:24:22.284Z</time></trkpt><trkpt lat="34.5424333" lon="10.3050383"><ele>53.0</ele><time>2026-04-04T19:24:23.283Z</time></trkpt><trkpt lat="34.5423583" lon="10.30485"><ele>53.0</ele><time>2026-04-04T19:24:24.285Z</time></trkpt><trkpt lat="34.5422833" lon="10.304665"><ele>53.0</ele><time>2026-04-04T19:24:25.284Z</time></trkpt><trkpt lat="34.542205" lon="10.3044783"><ele>53.0</ele><time>2026-04-04T19:24:26.284Z</time></trkpt><trkpt lat="34.5421283" lon="10.3042883"><ele>53.0</ele><time>2026-04-04T19:24:27.284Z</time></trkpt><trkpt lat="34.5420533" lon="10.3040967"><ele>53.0</ele><time>2026-04-04T19:24:28.286Z</time></trkpt><trkpt lat="34.5419783" lon="10.3039017"><ele>53.0</ele><time>2026-04-04T19:24:29.285Z</time></trkpt><trkpt lat="34.5419" lon="10.303705"><ele>52.333333333333336</ele><time>2026-04-04T19:24:30.286Z</time></trkpt><trkpt lat="34.54182" lon="10.3035033"><ele>51.66666666666667</ele><time>2026-04-04T19:24:31.284Z</time></trkpt><trkpt lat="34.5417383" lon="10.3032983"><ele>51.0</ele><time>2026-04-04T19:24:32.285Z</time></trkpt><trkpt lat="34.541655" lon="10.3030917"><ele>51.33333333333333</ele><time>2026-04-04T19:24:33.285Z</time></trkpt><trkpt lat="34.5415717" lon="10.3028833"><ele>51.666666666666664</ele><time>2026-04-04T19:24:34.284Z</time></trkpt><trkpt lat="34.5414867" lon="10.3026717"><ele>52.0</ele><time>2026-04-04T19:24:35.286Z</time></trkpt><trkpt lat="34.5414017" lon="10.3024583"><ele>52.0</ele><time>2026-04-04T19:24:36.285Z</time></trkpt><trkpt lat="34.5413167" lon="10.302245"><ele>52.0</ele><time>2026-04-04T19:24:37.285Z</time></trkpt><trkpt lat="34.5412283" lon="10.30203"><ele>52.0</ele><time>2026-04-04T19:24:38.285Z</time></trkpt><trkpt lat="34.5411417" lon="10.3018167"><ele>51.666666666666664</ele><time>2026-04-04T19:24:39.285Z</time></trkpt><trkpt lat="34.541055" lon="10.3016033"><ele>51.33333333333333</ele><time>2026-04-04T19:24:40.284Z</time></trkpt><trkpt lat="34.54097" lon="10.30139"><ele>51.0</ele><time>2026-04-04T19:24:41.285Z</time></trkpt><trkpt lat="34.5408867" lon="10.30118"><ele>51.0</ele><time>2026-04-04T19:24:42.286Z</time></trkpt><trkpt lat="34.5408017" lon="10.3009717"><ele>51.0</ele><time>2026-04-04T19:24:43.285Z</time></trkpt><trkpt lat="34.5407167" lon="10.300765"><ele>51.0</ele><time>2026-04-04T19:24:44.284Z</time></trkpt><trkpt lat="34.5406317" lon="10.3005567"><ele>51.0</ele><time>2026-04-04T19:24:45.284Z</time></trkpt><trkpt lat="34.540545" lon="10.300345"><ele>51.0</ele><time>2026-04-04T19:24:46.285Z</time></trkpt><trkpt lat="34.54046" lon="10.3001283"><ele>51.0</ele><time>2026-04-04T19:24:47.286Z</time></trkpt><trkpt lat="34.5403733" lon="10.29991"><ele>51.0</ele><time>2026-04-04T19:24:48.285Z</time></trkpt><trkpt lat="34.5402867" lon="10.2996917"><ele>51.0</ele><time>2026-04-04T19:24:49.285Z</time></trkpt><trkpt lat="34.5401967" lon="10.2994717"><ele>51.0</ele><time>2026-04-04T19:24:50.286Z</time></trkpt><trkpt lat="34.5401083" lon="10.29925"><ele>51.0</ele><time>2026-04-04T19:24:51.285Z</time></trkpt><trkpt lat="34.54002" lon="10.2990283"><ele>51.0</ele><time>2026-04-04T19:24:52.285Z</time></trkpt><trkpt lat="34.53993" lon="10.2988033"><ele>51.0</ele><time>2026-04-04T19:24:53.285Z</time></trkpt><trkpt lat="34.5398417" lon="10.2985767"><ele>51.33333333333333</ele><time>2026-04-04T19:24:54.286Z</time></trkpt><trkpt lat="34.5397483" lon="10.2983483"><ele>51.666666666666664</ele><time>2026-04-04T19:24:55.286Z</time></trkpt><trkpt lat="34.5396583" lon="10.2981167"><ele>52.0</ele><time>2026-04-04T19:24:56.284Z</time></trkpt><trkpt lat="34.5395667" lon="10.2978833"><ele>52.0</ele><time>2026-04-04T19:24:57.284Z</time></trkpt><trkpt lat="34.5394733" lon="10.2976467"><ele>52.0</ele><time>2026-04-04T19:24:58.284Z</time></trkpt><trkpt lat="34.5393783" lon="10.2974067"><ele>52.0</ele><time>2026-04-04T19:24:59.284Z</time></trkpt><trkpt lat="34.53928" lon="10.297165"><ele>52.0</ele><time>2026-04-04T19:25:00.285Z</time></trkpt><trkpt lat="34.53918" lon="10.29692"><ele>52.0</ele><time>2026-04-04T19:25:01.285Z</time></trkpt><trkpt lat="34.5390783" lon="10.2966717"><ele>52.0</ele><time>2026-04-04T19:25:02.285Z</time></trkpt><trkpt lat="34.5389783" lon="10.2964217"><ele>52.0</ele><time>2026-04-04T19:25:03.286Z</time></trkpt><trkpt lat="34.5388783" lon="10.2961683"><ele>52.0</ele><time>2026-04-04T19:25:04.285Z</time></trkpt><trkpt lat="34.5387783" lon="10.2959183"><ele>52.0</ele><time>2026-04-04T19:25:05.285Z</time></trkpt><trkpt lat="34.5386767" lon="10.2956717"><ele>52.0</ele><time>2026-04-04T19:25:06.286Z</time></trkpt><trkpt lat="34.5385783" lon="10.29543"><ele>52.0</ele><time>2026-04-04T19:25:07.286Z</time></trkpt><trkpt lat="34.5384817" lon="10.2951917"><ele>52.0</ele><time>2026-04-04T19:25:08.285Z</time></trkpt><trkpt lat="34.5383867" lon="10.2949533"><ele>52.33333333333333</ele><time>2026-04-04T19:25:09.285Z</time></trkpt><trkpt lat="34.5382917" lon="10.2947167"><ele>52.66666666666667</ele><time>2026-04-04T19:25:10.285Z</time></trkpt><trkpt lat="34.5381967" lon="10.29448"><ele>53.0</ele><time>2026-04-04T19:25:11.286Z</time></trkpt><trkpt lat="34.5381017" lon="10.2942467"><ele>53.0</ele><time>2026-04-04T19:25:12.286Z</time></trkpt><trkpt lat="34.5380083" lon="10.2940167"><ele>53.0</ele><time>2026-04-04T19:25:13.285Z</time></trkpt><trkpt lat="34.5379167" lon="10.2937867"><ele>53.0</ele><time>2026-04-04T19:25:14.286Z</time></trkpt><trkpt lat="34.5378233" lon="10.293555"><ele>53.0</ele><time>2026-04-04T19:25:15.285Z</time></trkpt><trkpt lat="34.5377283" lon="10.29332"><ele>53.0</ele><time>2026-04-04T19:25:16.286Z</time></trkpt><trkpt lat="34.5376333" lon="10.29308"><ele>53.0</ele><time>2026-04-04T19:25:17.286Z</time></trkpt><trkpt lat="34.5375383" lon="10.2928383"><ele>53.333333333333336</ele><time>2026-04-04T19:25:18.285Z</time></trkpt><trkpt lat="34.5374417" lon="10.2925967"><ele>53.66666666666667</ele><time>2026-04-04T19:25:19.285Z</time></trkpt><trkpt lat="34.5373433" lon="10.292355"><ele>54.0</ele><time>2026-04-04T19:25:20.283Z</time></trkpt><trkpt lat="34.537245" lon="10.2921133"><ele>53.66666666666667</ele><time>2026-04-04T19:25:21.282Z</time></trkpt><trkpt lat="34.5371467" lon="10.2918717"><ele>53.333333333333336</ele><time>2026-04-04T19:25:22.282Z</time></trkpt><trkpt lat="34.5370467" lon="10.29163"><ele>53.0</ele><time>2026-04-04T19:25:23.286Z</time></trkpt><trkpt lat="34.5369467" lon="10.29139"><ele>52.66666666666667</ele><time>2026-04-04T19:25:24.286Z</time></trkpt><trkpt lat="34.5368483" lon="10.29115"><ele>52.33333333333333</ele><time>2026-04-04T19:25:25.282Z</time></trkpt><trkpt lat="34.5367517" lon="10.29091"><ele>52.0</ele><time>2026-04-04T19:25:26.286Z</time></trkpt><trkpt lat="34.5366533" lon="10.2906717"><ele>52.666666666666664</ele><time>2026-04-04T19:25:27.284Z</time></trkpt><trkpt lat="34.5365567" lon="10.2904317"><ele>53.33333333333333</ele><time>2026-04-04T19:25:28.283Z</time></trkpt><trkpt lat="34.53646" lon="10.290195"><ele>54.0</ele><time>2026-04-04T19:25:29.286Z</time></trkpt><trkpt lat="34.53637" lon="10.2899683"><ele>54.0</ele><time>2026-04-04T19:25:30.284Z</time></trkpt><trkpt lat="34.5362817" lon="10.28975"><ele>54.0</ele><time>2026-04-04T19:25:31.286Z</time></trkpt><trkpt lat="34.5361967" lon="10.289535"><ele>54.0</ele><time>2026-04-04T19:25:32.282Z</time></trkpt><trkpt lat="34.5361083" lon="10.28932"><ele>53.66666666666667</ele><time>2026-04-04T19:25:33.285Z</time></trkpt><trkpt lat="34.5360167" lon="10.289105"><ele>53.333333333333336</ele><time>2026-04-04T19:25:34.283Z</time></trkpt><trkpt lat="34.535925" lon="10.2888883"><ele>53.0</ele><time>2026-04-04T19:25:35.285Z</time></trkpt><trkpt lat="34.5358317" lon="10.2886717"><ele>53.0</ele><time>2026-04-04T19:25:36.285Z</time></trkpt><trkpt lat="34.5357383" lon="10.2884517"><ele>53.0</ele><time>2026-04-04T19:25:37.284Z</time></trkpt><trkpt lat="34.53565" lon="10.2882333"><ele>53.0</ele><time>2026-04-04T19:25:38.285Z</time></trkpt><trkpt lat="34.535565" lon="10.2880267"><ele>52.66666666666667</ele><time>2026-04-04T19:25:39.285Z</time></trkpt><trkpt lat="34.5354833" lon="10.2878283"><ele>52.33333333333333</ele><time>2026-04-04T19:25:40.285Z</time></trkpt><trkpt lat="34.5354033" lon="10.2876367"><ele>52.0</ele><time>2026-04-04T19:25:41.285Z</time></trkpt><trkpt lat="34.535325" lon="10.2874517"><ele>52.0</ele><time>2026-04-04T19:25:42.283Z</time></trkpt><trkpt lat="34.5352483" lon="10.2872733"><ele>52.0</ele><time>2026-04-04T19:25:43.285Z</time></trkpt><trkpt lat="34.5351733" lon="10.287095"><ele>52.0</ele><time>2026-04-04T19:25:44.284Z</time></trkpt><trkpt lat="34.5351017" lon="10.2869167"><ele>52.0</ele><time>2026-04-04T19:25:45.285Z</time></trkpt><trkpt lat="34.53503" lon="10.2867383"><ele>52.0</ele><time>2026-04-04T19:25:46.286Z</time></trkpt><trkpt lat="34.5349567" lon="10.28656"><ele>52.0</ele><time>2026-04-04T19:25:47.283Z</time></trkpt><trkpt lat="34.5348867" lon="10.2863767"><ele>51.666666666666664</ele><time>2026-04-04T19:25:48.286Z</time></trkpt><trkpt lat="34.5348133" lon="10.2861867"><ele>51.33333333333333</ele><time>2026-04-04T19:25:49.285Z</time></trkpt><trkpt lat="34.53474" lon="10.28598"><ele>51.0</ele><time>2026-04-04T19:25:50.285Z</time></trkpt><trkpt lat="34.5346633" lon="10.2857617"><ele>51.0</ele><time>2026-04-04T19:25:51.285Z</time></trkpt><trkpt lat="34.53458" lon="10.2855367"><ele>51.0</ele><time>2026-04-04T19:25:52.284Z</time></trkpt><trkpt lat="34.5344917" lon="10.2853067"><ele>51.0</ele><time>2026-04-04T19:25:53.282Z</time></trkpt><trkpt lat="34.5344017" lon="10.28507"><ele>50.66666666666667</ele><time>2026-04-04T19:25:54.282Z</time></trkpt><trkpt lat="34.5343067" lon="10.2848267"><ele>50.333333333333336</ele><time>2026-04-04T19:25:55.283Z</time></trkpt><trkpt lat="34.5342133" lon="10.284585"><ele>50.0</ele><time>2026-04-04T19:25:56.284Z</time></trkpt><trkpt lat="34.5341233" lon="10.2843467"><ele>50.0</ele><time>2026-04-04T19:25:57.282Z</time></trkpt><trkpt lat="34.5340333" lon="10.2841083"><ele>50.0</ele><time>2026-04-04T19:25:58.282Z</time></trkpt><trkpt lat="34.5339467" lon="10.28387"><ele>50.0</ele><time>2026-04-04T19:25:59.284Z</time></trkpt><trkpt lat="34.53386" lon="10.2836333"><ele>50.0</ele><time>2026-04-04T19:26:00.285Z</time></trkpt><trkpt lat="34.533775" lon="10.2833983"><ele>50.0</ele><time>2026-04-04T19:26:01.284Z</time></trkpt><trkpt lat="34.5336917" lon="10.2831633"><ele>50.0</ele><time>2026-04-04T19:26:02.285Z</time></trkpt><trkpt lat="34.53361" lon="10.28293"><ele>50.0</ele><time>2026-04-04T19:26:03.285Z</time></trkpt><trkpt lat="34.5335267" lon="10.2826967"><ele>50.0</ele><time>2026-04-04T19:26:04.281Z</time></trkpt><trkpt lat="34.5334467" lon="10.28246"><ele>50.0</ele><time>2026-04-04T19:26:05.283Z</time></trkpt><trkpt lat="34.5333667" lon="10.2822217"><ele>51.0</ele><time>2026-04-04T19:26:06.282Z</time></trkpt><trkpt lat="34.5332867" lon="10.2819867"><ele>52.0</ele><time>2026-04-04T19:26:07.283Z</time></trkpt><trkpt lat="34.5332083" lon="10.28175"><ele>53.0</ele><time>2026-04-04T19:26:08.282Z</time></trkpt><trkpt lat="34.5331317" lon="10.281515"><ele>52.66666666666667</ele><time>2026-04-04T19:26:09.282Z</time></trkpt><trkpt lat="34.533055" lon="10.28128"><ele>52.33333333333333</ele><time>2026-04-04T19:26:10.282Z</time></trkpt><trkpt lat="34.53298" lon="10.2810467"><ele>52.0</ele><time>2026-04-04T19:26:11.284Z</time></trkpt><trkpt lat="34.532905" lon="10.280815"><ele>53.33333333333333</ele><time>2026-04-04T19:26:12.282Z</time></trkpt><trkpt lat="34.5328333" lon="10.2805833"><ele>54.66666666666667</ele><time>2026-04-04T19:26:13.283Z</time></trkpt><trkpt lat="34.53276" lon="10.2803517"><ele>56.0</ele><time>2026-04-04T19:26:14.281Z</time></trkpt><trkpt lat="34.53269" lon="10.2801167"><ele>56.0</ele><time>2026-04-04T19:26:15.282Z</time></trkpt><trkpt lat="34.5326183" lon="10.27988"><ele>56.0</ele><time>2026-04-04T19:26:16.282Z</time></trkpt><trkpt lat="34.532545" lon="10.279645"><ele>56.0</ele><time>2026-04-04T19:26:17.282Z</time></trkpt><trkpt lat="34.5324733" lon="10.2794083"><ele>56.333333333333336</ele><time>2026-04-04T19:26:18.286Z</time></trkpt><trkpt lat="34.5324" lon="10.279175"><ele>56.66666666666667</ele><time>2026-04-04T19:26:19.283Z</time></trkpt><trkpt lat="34.5323267" lon="10.2789433"><ele>57.0</ele><time>2026-04-04T19:26:20.282Z</time></trkpt><trkpt lat="34.532255" lon="10.27871"><ele>57.0</ele><time>2026-04-04T19:26:21.283Z</time></trkpt><trkpt lat="34.5321833" lon="10.278475"><ele>57.0</ele><time>2026-04-04T19:26:22.285Z</time></trkpt><trkpt lat="34.53211" lon="10.2782383"><ele>57.0</ele><time>2026-04-04T19:26:23.282Z</time></trkpt><trkpt lat="34.5320367" lon="10.2779967"><ele>57.0</ele><time>2026-04-04T19:26:24.282Z</time></trkpt><trkpt lat="34.5319633" lon="10.2777533"><ele>57.0</ele><time>2026-04-04T19:26:25.282Z</time></trkpt><trkpt lat="34.5318883" lon="10.2775083"><ele>57.0</ele><time>2026-04-04T19:26:26.286Z</time></trkpt><trkpt lat="34.5318117" lon="10.2772617"><ele>56.66666666666667</ele><time>2026-04-04T19:26:27.284Z</time></trkpt><trkpt lat="34.5317333" lon="10.2770117"><ele>56.333333333333336</ele><time>2026-04-04T19:26:28.283Z</time></trkpt><trkpt lat="34.5316583" lon="10.276765"><ele>56.0</ele><time>2026-04-04T19:26:29.284Z</time></trkpt><trkpt lat="34.5315817" lon="10.2765133"><ele>56.66666666666667</ele><time>2026-04-04T19:26:30.285Z</time></trkpt><trkpt lat="34.5315033" lon="10.2762633"><ele>57.33333333333333</ele><time>2026-04-04T19:26:31.285Z</time></trkpt><trkpt lat="34.531425" lon="10.27601"><ele>58.0</ele><time>2026-04-04T19:26:32.286Z</time></trkpt><trkpt lat="34.5313467" lon="10.2757567"><ele>58.0</ele><time>2026-04-04T19:26:33.284Z</time></trkpt><trkpt lat="34.5312683" lon="10.275505"><ele>58.0</ele><time>2026-04-04T19:26:34.281Z</time></trkpt><trkpt lat="34.5311917" lon="10.2752533"><ele>58.0</ele><time>2026-04-04T19:26:35.283Z</time></trkpt><trkpt lat="34.5311167" lon="10.275005"><ele>58.0</ele><time>2026-04-04T19:26:36.284Z</time></trkpt><trkpt lat="34.53104" lon="10.2747567"><ele>58.0</ele><time>2026-04-04T19:26:37.285Z</time></trkpt><trkpt lat="34.5309633" lon="10.2745067"><ele>58.0</ele><time>2026-04-04T19:26:38.283Z</time></trkpt><trkpt lat="34.5308867" lon="10.2742567"><ele>58.0</ele><time>2026-04-04T19:26:39.283Z</time></trkpt><trkpt lat="34.53081" lon="10.2740067"><ele>58.0</ele><time>2026-04-04T19:26:40.283Z</time></trkpt><trkpt lat="34.530735" lon="10.2737567"><ele>58.0</ele><time>2026-04-04T19:26:41.284Z</time></trkpt><trkpt lat="34.5306617" lon="10.2735117"><ele>57.33333333333333</ele><time>2026-04-04T19:26:42.284Z</time></trkpt><trkpt lat="34.5305883" lon="10.273265"><ele>56.66666666666667</ele><time>2026-04-04T19:26:43.284Z</time></trkpt><trkpt lat="34.5305133" lon="10.27302"><ele>56.0</ele><time>2026-04-04T19:26:44.283Z</time></trkpt><trkpt lat="34.5304383" lon="10.272775"><ele>55.66666666666667</ele><time>2026-04-04T19:26:45.285Z</time></trkpt><trkpt lat="34.5303583" lon="10.2725317"><ele>55.33333333333333</ele><time>2026-04-04T19:26:46.284Z</time></trkpt><trkpt lat="34.5302833" lon="10.2722883"><ele>55.0</ele><time>2026-04-04T19:26:47.285Z</time></trkpt><trkpt lat="34.5302083" lon="10.2720433"><ele>55.0</ele><time>2026-04-04T19:26:48.282Z</time></trkpt><trkpt lat="34.5301317" lon="10.2717983"><ele>55.0</ele><time>2026-04-04T19:26:49.286Z</time></trkpt><trkpt lat="34.5300567" lon="10.27155"><ele>55.0</ele><time>2026-04-04T19:26:50.284Z</time></trkpt><trkpt lat="34.5299817" lon="10.2713017"><ele>55.666666666666664</ele><time>2026-04-04T19:26:51.285Z</time></trkpt><trkpt lat="34.5299067" lon="10.2710533"><ele>56.33333333333333</ele><time>2026-04-04T19:26:52.285Z</time></trkpt><trkpt lat="34.5298333" lon="10.270805"><ele>57.0</ele><time>2026-04-04T19:26:53.285Z</time></trkpt><trkpt lat="34.5297567" lon="10.2705583"><ele>57.0</ele><time>2026-04-04T19:26:54.285Z</time></trkpt><trkpt lat="34.52968" lon="10.2703117"><ele>57.0</ele><time>2026-04-04T19:26:55.285Z</time></trkpt><trkpt lat="34.529605" lon="10.270065"><ele>57.0</ele><time>2026-04-04T19:26:56.286Z</time></trkpt><trkpt lat="34.52953" lon="10.2698233"><ele>56.66666666666667</ele><time>2026-04-04T19:26:57.284Z</time></trkpt><trkpt lat="34.529455" lon="10.2695817"><ele>56.333333333333336</ele><time>2026-04-04T19:26:58.281Z</time></trkpt><trkpt lat="34.52938" lon="10.2693467"><ele>56.0</ele><time>2026-04-04T19:26:59.283Z</time></trkpt><trkpt lat="34.5293067" lon="10.26912"><ele>56.0</ele><time>2026-04-04T19:27:00.286Z</time></trkpt><trkpt lat="34.5292367" lon="10.2688967"><ele>56.0</ele><time>2026-04-04T19:27:01.284Z</time></trkpt><trkpt lat="34.5291667" lon="10.2686767"><ele>56.0</ele><time>2026-04-04T19:27:02.285Z</time></trkpt><trkpt lat="34.5290967" lon="10.2684567"><ele>56.0</ele><time>2026-04-04T19:27:03.283Z</time></trkpt><trkpt lat="34.5290283" lon="10.2682317"><ele>56.0</ele><time>2026-04-04T19:27:04.283Z</time></trkpt><trkpt lat="34.5289617" lon="10.268005"><ele>56.0</ele><time>2026-04-04T19:27:05.285Z</time></trkpt><trkpt lat="34.5288917" lon="10.2677767"><ele>56.0</ele><time>2026-04-04T19:27:06.284Z</time></trkpt><trkpt lat="34.52882" lon="10.267545"><ele>56.0</ele><time>2026-04-04T19:27:07.285Z</time></trkpt><trkpt lat="34.5287483" lon="10.2673133"><ele>56.0</ele><time>2026-04-04T19:27:08.284Z</time></trkpt><trkpt lat="34.5286767" lon="10.26708"><ele>56.0</ele><time>2026-04-04T19:27:09.284Z</time></trkpt><trkpt lat="34.5286067" lon="10.2668467"><ele>56.0</ele><time>2026-04-04T19:27:10.283Z</time></trkpt><trkpt lat="34.5285367" lon="10.2666133"><ele>56.0</ele><time>2026-04-04T19:27:11.285Z</time></trkpt><trkpt lat="34.5284667" lon="10.2663817"><ele>56.0</ele><time>2026-04-04T19:27:12.283Z</time></trkpt><trkpt lat="34.528395" lon="10.2661483"><ele>56.0</ele><time>2026-04-04T19:27:13.283Z</time></trkpt><trkpt lat="34.5283233" lon="10.265915"><ele>56.0</ele><time>2026-04-04T19:27:14.284Z</time></trkpt><trkpt lat="34.5282533" lon="10.2656817"><ele>55.333333333333336</ele><time>2026-04-04T19:27:15.286Z</time></trkpt><trkpt lat="34.5281833" lon="10.2654433"><ele>54.66666666666667</ele><time>2026-04-04T19:27:16.284Z</time></trkpt><trkpt lat="34.5281133" lon="10.2652083"><ele>54.0</ele><time>2026-04-04T19:27:17.285Z</time></trkpt><trkpt lat="34.5280383" lon="10.2649733"><ele>54.0</ele><time>2026-04-04T19:27:18.282Z</time></trkpt><trkpt lat="34.5279633" lon="10.2647367"><ele>54.0</ele><time>2026-04-04T19:27:19.285Z</time></trkpt><trkpt lat="34.52789" lon="10.2644983"><ele>54.0</ele><time>2026-04-04T19:27:20.286Z</time></trkpt><trkpt lat="34.5278167" lon="10.2642567"><ele>54.0</ele><time>2026-04-04T19:27:21.282Z</time></trkpt><trkpt lat="34.52774" lon="10.2640167"><ele>54.0</ele><time>2026-04-04T19:27:22.285Z</time></trkpt><trkpt lat="34.5276667" lon="10.2637817"><ele>54.0</ele><time>2026-04-04T19:27:23.285Z</time></trkpt><trkpt lat="34.5275967" lon="10.2635567"><ele>54.0</ele><time>2026-04-04T19:27:24.285Z</time></trkpt><trkpt lat="34.5275267" lon="10.2633333"><ele>54.0</ele><time>2026-04-04T19:27:25.286Z</time></trkpt><trkpt lat="34.5274567" lon="10.2631083"><ele>54.0</ele><time>2026-04-04T19:27:26.285Z</time></trkpt><trkpt lat="34.5273867" lon="10.2628817"><ele>54.0</ele><time>2026-04-04T19:27:27.286Z</time></trkpt><trkpt lat="34.52732" lon="10.2626517"><ele>54.0</ele><time>2026-04-04T19:27:28.285Z</time></trkpt><trkpt lat="34.52725" lon="10.2624233"><ele>54.0</ele><time>2026-04-04T19:27:29.285Z</time></trkpt><trkpt lat="34.5271783" lon="10.262195"><ele>54.0</ele><time>2026-04-04T19:27:30.285Z</time></trkpt><trkpt lat="34.5271083" lon="10.2619617"><ele>54.0</ele><time>2026-04-04T19:27:31.286Z</time></trkpt><trkpt lat="34.5270383" lon="10.2617283"><ele>54.0</ele><time>2026-04-04T19:27:32.286Z</time></trkpt><trkpt lat="34.5269683" lon="10.2614933"><ele>53.66666666666667</ele><time>2026-04-04T19:27:33.284Z</time></trkpt><trkpt lat="34.5268983" lon="10.2612567"><ele>53.333333333333336</ele><time>2026-04-04T19:27:34.283Z</time></trkpt><trkpt lat="34.5268233" lon="10.26102"><ele>53.0</ele><time>2026-04-04T19:27:35.282Z</time></trkpt><trkpt lat="34.5267467" lon="10.2607833"><ele>53.66666666666667</ele><time>2026-04-04T19:27:36.282Z</time></trkpt><trkpt lat="34.5266733" lon="10.260545"><ele>54.33333333333333</ele><time>2026-04-04T19:27:37.283Z</time></trkpt><trkpt lat="34.5266017" lon="10.2603083"><ele>55.0</ele><time>2026-04-04T19:27:38.284Z</time></trkpt><trkpt lat="34.5265283" lon="10.2600733"><ele>55.0</ele><time>2026-04-04T19:27:39.283Z</time></trkpt><trkpt lat="34.526455" lon="10.25984"><ele>55.0</ele><time>2026-04-04T19:27:40.285Z</time></trkpt><trkpt lat="34.5263817" lon="10.2596067"><ele>55.0</ele><time>2026-04-04T19:27:41.285Z</time></trkpt><trkpt lat="34.5263067" lon="10.2593717"><ele>55.0</ele><time>2026-04-04T19:27:42.285Z</time></trkpt><trkpt lat="34.5262317" lon="10.25914"><ele>55.0</ele><time>2026-04-04T19:27:43.285Z</time></trkpt><trkpt lat="34.52616" lon="10.2589083"><ele>55.0</ele><time>2026-04-04T19:27:44.285Z</time></trkpt><trkpt lat="34.52609" lon="10.2586783"><ele>54.666666666666664</ele><time>2026-04-04T19:27:45.285Z</time></trkpt><trkpt lat="34.52602" lon="10.258455"><ele>54.33333333333333</ele><time>2026-04-04T19:27:46.285Z</time></trkpt><trkpt lat="34.5259533" lon="10.25824"><ele>54.0</ele><time>2026-04-04T19:27:47.285Z</time></trkpt><trkpt lat="34.525885" lon="10.258025"><ele>53.66666666666667</ele><time>2026-04-04T19:27:48.285Z</time></trkpt><trkpt lat="34.52582" lon="10.25781"><ele>53.333333333333336</ele><time>2026-04-04T19:27:49.285Z</time></trkpt><trkpt lat="34.525755" lon="10.2575967"><ele>53.0</ele><time>2026-04-04T19:27:50.285Z</time></trkpt><trkpt lat="34.5256883" lon="10.2573817"><ele>53.0</ele><time>2026-04-04T19:27:51.286Z</time></trkpt><trkpt lat="34.5256217" lon="10.2571667"><ele>53.0</ele><time>2026-04-04T19:27:52.285Z</time></trkpt><trkpt lat="34.5255533" lon="10.256955"><ele>53.0</ele><time>2026-04-04T19:27:53.285Z</time></trkpt><trkpt lat="34.5254867" lon="10.2567367"><ele>53.0</ele><time>2026-04-04T19:27:54.287Z</time></trkpt><trkpt lat="34.52542" lon="10.2565183"><ele>53.0</ele><time>2026-04-04T19:27:55.285Z</time></trkpt><trkpt lat="34.5253483" lon="10.2562967"><ele>53.0</ele><time>2026-04-04T19:27:56.285Z</time></trkpt><trkpt lat="34.52528" lon="10.2560733"><ele>53.0</ele><time>2026-04-04T19:27:57.286Z</time></trkpt><trkpt lat="34.5252117" lon="10.25585"><ele>53.0</ele><time>2026-04-04T19:27:58.287Z</time></trkpt><trkpt lat="34.5251433" lon="10.2556267"><ele>53.0</ele><time>2026-04-04T19:27:59.287Z</time></trkpt><trkpt lat="34.5250733" lon="10.2554033"><ele>53.0</ele><time>2026-04-04T19:28:00.285Z</time></trkpt><trkpt lat="34.525005" lon="10.2551783"><ele>53.0</ele><time>2026-04-04T19:28:01.285Z</time></trkpt><trkpt lat="34.524935" lon="10.25495"><ele>53.0</ele><time>2026-04-04T19:28:02.286Z</time></trkpt><trkpt lat="34.5248667" lon="10.2547233"><ele>53.0</ele><time>2026-04-04T19:28:03.282Z</time></trkpt><trkpt lat="34.5247967" lon="10.254495"><ele>53.0</ele><time>2026-04-04T19:28:04.283Z</time></trkpt><trkpt lat="34.5247267" lon="10.25427"><ele>53.0</ele><time>2026-04-04T19:28:05.283Z</time></trkpt><trkpt lat="34.5246567" lon="10.2540433"><ele>53.0</ele><time>2026-04-04T19:28:06.283Z</time></trkpt><trkpt lat="34.5245867" lon="10.253815"><ele>53.0</ele><time>2026-04-04T19:28:07.282Z</time></trkpt><trkpt lat="34.524515" lon="10.2535917"><ele>53.0</ele><time>2026-04-04T19:28:08.283Z</time></trkpt><trkpt lat="34.5244467" lon="10.253365"><ele>52.66666666666667</ele><time>2026-04-04T19:28:09.283Z</time></trkpt><trkpt lat="34.5243767" lon="10.25314"><ele>52.33333333333333</ele><time>2026-04-04T19:28:10.285Z</time></trkpt><trkpt lat="34.52431" lon="10.2529183"><ele>52.0</ele><time>2026-04-04T19:28:11.285Z</time></trkpt><trkpt lat="34.52424" lon="10.252695"><ele>52.0</ele><time>2026-04-04T19:28:12.287Z</time></trkpt><trkpt lat="34.5241717" lon="10.2524733"><ele>52.0</ele><time>2026-04-04T19:28:13.286Z</time></trkpt><trkpt lat="34.5241033" lon="10.2522517"><ele>52.0</ele><time>2026-04-04T19:28:14.282Z</time></trkpt><trkpt lat="34.524035" lon="10.25203"><ele>52.0</ele><time>2026-04-04T19:28:15.283Z</time></trkpt><trkpt lat="34.5239633" lon="10.25181"><ele>52.0</ele><time>2026-04-04T19:28:16.282Z</time></trkpt><trkpt lat="34.52389" lon="10.2515883"><ele>52.0</ele><time>2026-04-04T19:28:17.284Z</time></trkpt><trkpt lat="34.5238167" lon="10.2513683"><ele>52.0</ele><time>2026-04-04T19:28:18.283Z</time></trkpt><trkpt lat="34.523745" lon="10.2511483"><ele>52.0</ele><time>2026-04-04T19:28:19.284Z</time></trkpt><trkpt lat="34.523675" lon="10.2509283"><ele>52.0</ele><time>2026-04-04T19:28:20.283Z</time></trkpt><trkpt lat="34.523605" lon="10.2507067"><ele>52.0</ele><time>2026-04-04T19:28:21.283Z</time></trkpt><trkpt lat="34.5235383" lon="10.250485"><ele>52.0</ele><time>2026-04-04T19:28:22.283Z</time></trkpt><trkpt lat="34.52347" lon="10.2502633"><ele>52.0</ele><time>2026-04-04T19:28:23.283Z</time></trkpt><trkpt lat="34.5234" lon="10.25004"><ele>52.0</ele><time>2026-04-04T19:28:24.285Z</time></trkpt><trkpt lat="34.52333" lon="10.2498183"><ele>52.0</ele><time>2026-04-04T19:28:25.283Z</time></trkpt><trkpt lat="34.5232617" lon="10.2495983"><ele>52.0</ele><time>2026-04-04T19:28:26.282Z</time></trkpt><trkpt lat="34.523195" lon="10.2493767"><ele>51.666666666666664</ele><time>2026-04-04T19:28:27.285Z</time></trkpt><trkpt lat="34.5231283" lon="10.2491583"><ele>51.33333333333333</ele><time>2026-04-04T19:28:28.285Z</time></trkpt><trkpt lat="34.5230617" lon="10.2489383"><ele>51.0</ele><time>2026-04-04T19:28:29.285Z</time></trkpt><trkpt lat="34.522995" lon="10.2487167"><ele>51.0</ele><time>2026-04-04T19:28:30.285Z</time></trkpt><trkpt lat="34.5229267" lon="10.2484917"><ele>51.0</ele><time>2026-04-04T19:28:31.285Z</time></trkpt><trkpt lat="34.5228567" lon="10.248265"><ele>51.0</ele><time>2026-04-04T19:28:32.285Z</time></trkpt><trkpt lat="34.522785" lon="10.2480333"><ele>51.0</ele><time>2026-04-04T19:28:33.285Z</time></trkpt><trkpt lat="34.5227133" lon="10.2478"><ele>51.0</ele><time>2026-04-04T19:28:34.286Z</time></trkpt><trkpt lat="34.52264" lon="10.2475633"><ele>51.0</ele><time>2026-04-04T19:28:35.286Z</time></trkpt><trkpt lat="34.5225667" lon="10.2473233"><ele>51.0</ele><time>2026-04-04T19:28:36.287Z</time></trkpt><trkpt lat="34.52249" lon="10.2470833"><ele>51.0</ele><time>2026-04-04T19:28:37.285Z</time></trkpt><trkpt lat="34.522415" lon="10.2468433"><ele>51.0</ele><time>2026-04-04T19:28:38.286Z</time></trkpt><trkpt lat="34.5223417" lon="10.2466033"><ele>51.66666666666667</ele><time>2026-04-04T19:28:39.285Z</time></trkpt><trkpt lat="34.5222667" lon="10.2463683"><ele>52.333333333333336</ele><time>2026-04-04T19:28:40.285Z</time></trkpt><trkpt lat="34.522195" lon="10.24614"><ele>53.0</ele><time>2026-04-04T19:28:41.285Z</time></trkpt><trkpt lat="34.5221267" lon="10.2459183"><ele>52.66666666666667</ele><time>2026-04-04T19:28:42.286Z</time></trkpt><trkpt lat="34.5220567" lon="10.2457"><ele>52.33333333333333</ele><time>2026-04-04T19:28:43.285Z</time></trkpt><trkpt lat="34.52199" lon="10.2454783"><ele>52.0</ele><time>2026-04-04T19:28:44.282Z</time></trkpt><trkpt lat="34.5219217" lon="10.245255"><ele>52.0</ele><time>2026-04-04T19:28:45.283Z</time></trkpt><trkpt lat="34.5218567" lon="10.2450283"><ele>52.0</ele><time>2026-04-04T19:28:46.284Z</time></trkpt><trkpt lat="34.5217933" lon="10.2447983"><ele>52.0</ele><time>2026-04-04T19:28:47.284Z</time></trkpt><trkpt lat="34.52173" lon="10.2445683"><ele>52.33333333333333</ele><time>2026-04-04T19:28:48.283Z</time></trkpt><trkpt lat="34.5216633" lon="10.2443383"><ele>52.66666666666667</ele><time>2026-04-04T19:28:49.283Z</time></trkpt><trkpt lat="34.521595" lon="10.2441083"><ele>53.0</ele><time>2026-04-04T19:28:50.283Z</time></trkpt><trkpt lat="34.5215267" lon="10.2438733"><ele>52.333333333333336</ele><time>2026-04-04T19:28:51.283Z</time></trkpt><trkpt lat="34.521455" lon="10.24364"><ele>51.66666666666667</ele><time>2026-04-04T19:28:52.283Z</time></trkpt><trkpt lat="34.5213817" lon="10.2434033"><ele>51.0</ele><time>2026-04-04T19:28:53.283Z</time></trkpt><trkpt lat="34.5213083" lon="10.2431683"><ele>51.33333333333333</ele><time>2026-04-04T19:28:54.283Z</time></trkpt><trkpt lat="34.521235" lon="10.2429317"><ele>51.666666666666664</ele><time>2026-04-04T19:28:55.286Z</time></trkpt><trkpt lat="34.5211617" lon="10.242695"><ele>52.0</ele><time>2026-04-04T19:28:56.282Z</time></trkpt><trkpt lat="34.52109" lon="10.2424567"><ele>51.666666666666664</ele><time>2026-04-04T19:28:57.285Z</time></trkpt><trkpt lat="34.52102" lon="10.2422183"><ele>51.33333333333333</ele><time>2026-04-04T19:28:58.287Z</time></trkpt><trkpt lat="34.5209467" lon="10.2419783"><ele>51.0</ele><time>2026-04-04T19:28:59.285Z</time></trkpt><trkpt lat="34.5208733" lon="10.2417383"><ele>51.0</ele><time>2026-04-04T19:29:00.285Z</time></trkpt><trkpt lat="34.5208017" lon="10.2415033"><ele>51.0</ele><time>2026-04-04T19:29:01.286Z</time></trkpt><trkpt lat="34.52073" lon="10.2412683"><ele>51.0</ele><time>2026-04-04T19:29:02.286Z</time></trkpt><trkpt lat="34.5206583" lon="10.2410367"><ele>51.0</ele><time>2026-04-04T19:29:03.285Z</time></trkpt><trkpt lat="34.5205833" lon="10.2408033"><ele>51.0</ele><time>2026-04-04T19:29:04.284Z</time></trkpt><trkpt lat="34.52051" lon="10.24057"><ele>51.0</ele><time>2026-04-04T19:29:05.284Z</time></trkpt><trkpt lat="34.5204367" lon="10.240335"><ele>51.0</ele><time>2026-04-04T19:29:06.284Z</time></trkpt><trkpt lat="34.5203633" lon="10.2401"><ele>51.0</ele><time>2026-04-04T19:29:07.286Z</time></trkpt><trkpt lat="34.52029" lon="10.2398633"><ele>51.0</ele><time>2026-04-04T19:29:08.284Z</time></trkpt><trkpt lat="34.5202183" lon="10.239625"><ele>51.33333333333333</ele><time>2026-04-04T19:29:09.284Z</time></trkpt><trkpt lat="34.520145" lon="10.2393867"><ele>51.666666666666664</ele><time>2026-04-04T19:29:10.286Z</time></trkpt><trkpt lat="34.5200733" lon="10.2391467"><ele>52.0</ele><time>2026-04-04T19:29:11.285Z</time></trkpt><trkpt lat="34.5200017" lon="10.2389067"><ele>52.0</ele><time>2026-04-04T19:29:12.284Z</time></trkpt><trkpt lat="34.519935" lon="10.2386667"><ele>52.0</ele><time>2026-04-04T19:29:13.285Z</time></trkpt><trkpt lat="34.5198717" lon="10.238425"><ele>52.0</ele><time>2026-04-04T19:29:14.281Z</time></trkpt><trkpt lat="34.51981" lon="10.2381833"><ele>51.33333333333333</ele><time>2026-04-04T19:29:15.285Z</time></trkpt><trkpt lat="34.5197467" lon="10.23794"><ele>50.66666666666667</ele><time>2026-04-04T19:29:16.282Z</time></trkpt><trkpt lat="34.519685" lon="10.2376967"><ele>50.0</ele><time>2026-04-04T19:29:17.281Z</time></trkpt><trkpt lat="34.5196233" lon="10.2374533"><ele>50.66666666666667</ele><time>2026-04-04T19:29:18.282Z</time></trkpt><trkpt lat="34.5195633" lon="10.2372083"><ele>51.33333333333333</ele><time>2026-04-04T19:29:19.284Z</time></trkpt><trkpt lat="34.519505" lon="10.2369617"><ele>52.0</ele><time>2026-04-04T19:29:20.285Z</time></trkpt><trkpt lat="34.519445" lon="10.236715"><ele>52.0</ele><time>2026-04-04T19:29:21.285Z</time></trkpt><trkpt lat="34.5193883" lon="10.2364667"><ele>52.0</ele><time>2026-04-04T19:29:22.284Z</time></trkpt><trkpt lat="34.5193333" lon="10.2362183"><ele>52.0</ele><time>2026-04-04T19:29:23.284Z</time></trkpt><trkpt lat="34.5192817" lon="10.2359683"><ele>52.0</ele><time>2026-04-04T19:29:24.285Z</time></trkpt><trkpt lat="34.5192267" lon="10.23572"><ele>52.0</ele><time>2026-04-04T19:29:25.284Z</time></trkpt><trkpt lat="34.519175" lon="10.2354717"><ele>52.0</ele><time>2026-04-04T19:29:26.285Z</time></trkpt><trkpt lat="34.5191233" lon="10.235225"><ele>51.666666666666664</ele><time>2026-04-04T19:29:27.285Z</time></trkpt><trkpt lat="34.519075" lon="10.2349783"><ele>51.33333333333333</ele><time>2026-04-04T19:29:28.285Z</time></trkpt><trkpt lat="34.5190283" lon="10.23473"><ele>51.0</ele><time>2026-04-04T19:29:29.284Z</time></trkpt><trkpt lat="34.518985" lon="10.2344817"><ele>51.0</ele><time>2026-04-04T19:29:30.284Z</time></trkpt><trkpt lat="34.51894" lon="10.2342317"><ele>51.0</ele><time>2026-04-04T19:29:31.284Z</time></trkpt><trkpt lat="34.5188967" lon="10.23398"><ele>51.0</ele><time>2026-04-04T19:29:32.285Z</time></trkpt><trkpt lat="34.5188567" lon="10.23373"><ele>50.66666666666667</ele><time>2026-04-04T19:29:33.286Z</time></trkpt><trkpt lat="34.5188167" lon="10.233475"><ele>50.333333333333336</ele><time>2026-04-04T19:29:34.284Z</time></trkpt><trkpt lat="34.5187783" lon="10.2332217"><ele>50.0</ele><time>2026-04-04T19:29:35.284Z</time></trkpt><trkpt lat="34.5187417" lon="10.2329667"><ele>50.333333333333336</ele><time>2026-04-04T19:29:36.284Z</time></trkpt><trkpt lat="34.5187067" lon="10.23271"><ele>50.66666666666667</ele><time>2026-04-04T19:29:37.285Z</time></trkpt><trkpt lat="34.51867" lon="10.232455"><ele>51.0</ele><time>2026-04-04T19:29:38.284Z</time></trkpt><trkpt lat="34.518635" lon="10.2321983"><ele>51.33333333333333</ele><time>2026-04-04T19:29:39.284Z</time></trkpt><trkpt lat="34.518605" lon="10.2319483"><ele>51.666666666666664</ele><time>2026-04-04T19:29:40.284Z</time></trkpt><trkpt lat="34.5185817" lon="10.2317033"><ele>52.0</ele><time>2026-04-04T19:29:41.284Z</time></trkpt><trkpt lat="34.5185583" lon="10.2314617"><ele>52.0</ele><time>2026-04-04T19:29:42.286Z</time></trkpt><trkpt lat="34.518535" lon="10.231215"><ele>52.0</ele><time>2026-04-04T19:29:43.285Z</time></trkpt><trkpt lat="34.51851" lon="10.2309683"><ele>52.0</ele><time>2026-04-04T19:29:44.281Z</time></trkpt><trkpt lat="34.5184867" lon="10.2307183"><ele>51.666666666666664</ele><time>2026-04-04T19:29:45.282Z</time></trkpt><trkpt lat="34.518465" lon="10.2304667"><ele>51.33333333333333</ele><time>2026-04-04T19:29:46.283Z</time></trkpt><trkpt lat="34.518445" lon="10.2302133"><ele>51.0</ele><time>2026-04-04T19:29:47.285Z</time></trkpt><trkpt lat="34.518425" lon="10.22996"><ele>51.0</ele><time>2026-04-04T19:29:48.284Z</time></trkpt><trkpt lat="34.5184067" lon="10.2297067"><ele>51.0</ele><time>2026-04-04T19:29:49.286Z</time></trkpt><trkpt lat="34.51839" lon="10.2294533"><ele>51.0</ele><time>2026-04-04T19:29:50.283Z</time></trkpt><trkpt lat="34.5183717" lon="10.2292017"><ele>51.66666666666667</ele><time>2026-04-04T19:29:51.284Z</time></trkpt><trkpt lat="34.5183567" lon="10.2289483"><ele>52.333333333333336</ele><time>2026-04-04T19:29:52.284Z</time></trkpt><trkpt lat="34.5183433" lon="10.2286983"><ele>53.0</ele><time>2026-04-04T19:29:53.284Z</time></trkpt><trkpt lat="34.5183317" lon="10.2284467"><ele>53.0</ele><time>2026-04-04T19:29:54.285Z</time></trkpt><trkpt lat="34.51832" lon="10.2281983"><ele>53.0</ele><time>2026-04-04T19:29:55.284Z</time></trkpt><trkpt lat="34.5183117" lon="10.2279483"><ele>53.0</ele><time>2026-04-04T19:29:56.283Z</time></trkpt><trkpt lat="34.5183033" lon="10.2276983"><ele>53.0</ele><time>2026-04-04T19:29:57.285Z</time></trkpt><trkpt lat="34.5182917" lon="10.2274483"><ele>53.0</ele><time>2026-04-04T19:29:58.285Z</time></trkpt><trkpt lat="34.51828" lon="10.2271983"><ele>53.0</ele><time>2026-04-04T19:29:59.284Z</time></trkpt><trkpt lat="34.51827" lon="10.2269483"><ele>52.66666666666667</ele><time>2026-04-04T19:30:00.285Z</time></trkpt><trkpt lat="34.51826" lon="10.2266967"><ele>52.33333333333333</ele><time>2026-04-04T19:30:01.285Z</time></trkpt><trkpt lat="34.5182467" lon="10.2264433"><ele>52.0</ele><time>2026-04-04T19:30:02.283Z</time></trkpt><trkpt lat="34.5182333" lon="10.2261883"><ele>52.0</ele><time>2026-04-04T19:30:03.284Z</time></trkpt><trkpt lat="34.5182217" lon="10.225935"><ele>52.0</ele><time>2026-04-04T19:30:04.284Z</time></trkpt><trkpt lat="34.5182133" lon="10.225685"><ele>52.0</ele><time>2026-04-04T19:30:05.284Z</time></trkpt><trkpt lat="34.518205" lon="10.2254417"><ele>52.0</ele><time>2026-04-04T19:30:06.287Z</time></trkpt><trkpt lat="34.5181967" lon="10.2252033"><ele>52.0</ele><time>2026-04-04T19:30:07.284Z</time></trkpt><trkpt lat="34.51819" lon="10.22497"><ele>52.0</ele><time>2026-04-04T19:30:08.283Z</time></trkpt><trkpt lat="34.51818" lon="10.2247383"><ele>51.666666666666664</ele><time>2026-04-04T19:30:09.284Z</time></trkpt><trkpt lat="34.51817" lon="10.22451"><ele>51.33333333333333</ele><time>2026-04-04T19:30:10.285Z</time></trkpt><trkpt lat="34.51816" lon="10.2242833"><ele>51.0</ele><time>2026-04-04T19:30:11.285Z</time></trkpt><trkpt lat="34.5181517" lon="10.2240583"><ele>51.33333333333333</ele><time>2026-04-04T19:30:12.284Z</time></trkpt><trkpt lat="34.5181417" lon="10.223835"><ele>51.666666666666664</ele><time>2026-04-04T19:30:13.284Z</time></trkpt><trkpt lat="34.518135" lon="10.2236133"><ele>52.0</ele><time>2026-04-04T19:30:14.284Z</time></trkpt><trkpt lat="34.518125" lon="10.2233917"><ele>52.0</ele><time>2026-04-04T19:30:15.284Z</time></trkpt><trkpt lat="34.518115" lon="10.22317"><ele>52.0</ele><time>2026-04-04T19:30:16.284Z</time></trkpt><trkpt lat="34.518105" lon="10.2229467"><ele>52.0</ele><time>2026-04-04T19:30:17.284Z</time></trkpt><trkpt lat="34.518095" lon="10.22272"><ele>52.33333333333333</ele><time>2026-04-04T19:30:18.284Z</time></trkpt><trkpt lat="34.518085" lon="10.2224883"><ele>52.66666666666667</ele><time>2026-04-04T19:30:19.284Z</time></trkpt><trkpt lat="34.518075" lon="10.2222517"><ele>53.0</ele><time>2026-04-04T19:30:20.283Z</time></trkpt><trkpt lat="34.518065" lon="10.22201"><ele>53.0</ele><time>2026-04-04T19:30:21.284Z</time></trkpt><trkpt lat="34.518055" lon="10.221765"><ele>53.0</ele><time>2026-04-04T19:30:22.285Z</time></trkpt><trkpt lat="34.518045" lon="10.2215183"><ele>53.0</ele><time>2026-04-04T19:30:23.284Z</time></trkpt><trkpt lat="34.5180367" lon="10.22127"><ele>53.0</ele><time>2026-04-04T19:30:24.285Z</time></trkpt><trkpt lat="34.518025" lon="10.2210183"><ele>53.0</ele><time>2026-04-04T19:30:25.285Z</time></trkpt><trkpt lat="34.518015" lon="10.2207667"><ele>53.0</ele><time>2026-04-04T19:30:26.285Z</time></trkpt><trkpt lat="34.518005" lon="10.2205133"><ele>53.0</ele><time>2026-04-04T19:30:27.283Z</time></trkpt><trkpt lat="34.517995" lon="10.2202583"><ele>53.0</ele><time>2026-04-04T19:30:28.285Z</time></trkpt><trkpt lat="34.517985" lon="10.2200033"><ele>53.0</ele><time>2026-04-04T19:30:29.284Z</time></trkpt><trkpt lat="34.5179767" lon="10.2197483"><ele>53.333333333333336</ele><time>2026-04-04T19:30:30.284Z</time></trkpt><trkpt lat="34.5179667" lon="10.219495"><ele>53.66666666666667</ele><time>2026-04-04T19:30:31.286Z</time></trkpt><trkpt lat="34.517955" lon="10.2192433"><ele>54.0</ele><time>2026-04-04T19:30:32.285Z</time></trkpt><trkpt lat="34.5179433" lon="10.2189967"><ele>53.33333333333333</ele><time>2026-04-04T19:30:33.285Z</time></trkpt><trkpt lat="34.51793" lon="10.2187483"><ele>52.666666666666664</ele><time>2026-04-04T19:30:34.285Z</time></trkpt><trkpt lat="34.5179217" lon="10.2185033"><ele>52.0</ele><time>2026-04-04T19:30:35.286Z</time></trkpt><trkpt lat="34.5179117" lon="10.21826"><ele>51.0</ele><time>2026-04-04T19:30:36.285Z</time></trkpt><trkpt lat="34.5179017" lon="10.2180167"><ele>50.0</ele><time>2026-04-04T19:30:37.282Z</time></trkpt><trkpt lat="34.5178917" lon="10.217775"><ele>49.0</ele><time>2026-04-04T19:30:38.285Z</time></trkpt><trkpt lat="34.5178833" lon="10.217535"><ele>48.666666666666664</ele><time>2026-04-04T19:30:39.283Z</time></trkpt><trkpt lat="34.5178783" lon="10.2172933"><ele>48.33333333333333</ele><time>2026-04-04T19:30:40.283Z</time></trkpt><trkpt lat="34.5178683" lon="10.2170517"><ele>48.0</ele><time>2026-04-04T19:30:41.285Z</time></trkpt><trkpt lat="34.51786" lon="10.21681"><ele>48.0</ele><time>2026-04-04T19:30:42.285Z</time></trkpt><trkpt lat="34.5178483" lon="10.2165667"><ele>48.0</ele><time>2026-04-04T19:30:43.285Z</time></trkpt><trkpt lat="34.5178383" lon="10.2163217"><ele>48.0</ele><time>2026-04-04T19:30:44.286Z</time></trkpt><trkpt lat="34.5178267" lon="10.2160767"><ele>48.0</ele><time>2026-04-04T19:30:45.285Z</time></trkpt><trkpt lat="34.517815" lon="10.2158283"><ele>48.0</ele><time>2026-04-04T19:30:46.285Z</time></trkpt><trkpt lat="34.5178067" lon="10.2155783"><ele>48.0</ele><time>2026-04-04T19:30:47.287Z</time></trkpt><trkpt lat="34.517795" lon="10.2153283"><ele>47.666666666666664</ele><time>2026-04-04T19:30:48.285Z</time></trkpt><trkpt lat="34.5177833" lon="10.21508"><ele>47.33333333333333</ele><time>2026-04-04T19:30:49.286Z</time></trkpt><trkpt lat="34.5177717" lon="10.2148317"><ele>47.0</ele><time>2026-04-04T19:30:50.285Z</time></trkpt><trkpt lat="34.51776" lon="10.214585"><ele>47.0</ele><time>2026-04-04T19:30:51.286Z</time></trkpt><trkpt lat="34.51775" lon="10.2143383"><ele>47.0</ele><time>2026-04-04T19:30:52.285Z</time></trkpt><trkpt lat="34.51774" lon="10.214095"><ele>47.0</ele><time>2026-04-04T19:30:53.283Z</time></trkpt><trkpt lat="34.5177317" lon="10.2138483"><ele>47.666666666666664</ele><time>2026-04-04T19:30:54.285Z</time></trkpt><trkpt lat="34.517725" lon="10.2135933"><ele>48.33333333333333</ele><time>2026-04-04T19:30:55.286Z</time></trkpt><trkpt lat="34.517715" lon="10.21334"><ele>49.0</ele><time>2026-04-04T19:30:56.286Z</time></trkpt><trkpt lat="34.5177083" lon="10.2130867"><ele>49.666666666666664</ele><time>2026-04-04T19:30:57.285Z</time></trkpt><trkpt lat="34.5176967" lon="10.2128333"><ele>50.33333333333333</ele><time>2026-04-04T19:30:58.285Z</time></trkpt><trkpt lat="34.5176917" lon="10.2125883"><ele>51.0</ele><time>2026-04-04T19:30:59.287Z</time></trkpt><trkpt lat="34.517685" lon="10.2123483"><ele>51.0</ele><time>2026-04-04T19:31:00.285Z</time></trkpt><trkpt lat="34.5176767" lon="10.2121217"><ele>51.0</ele><time>2026-04-04T19:31:01.285Z</time></trkpt><trkpt lat="34.517665" lon="10.211905"><ele>51.0</ele><time>2026-04-04T19:31:02.286Z</time></trkpt><trkpt lat="34.517655" lon="10.2116867"><ele>51.0</ele><time>2026-04-04T19:31:03.285Z</time></trkpt><trkpt lat="34.5176483" lon="10.2114683"><ele>51.0</ele><time>2026-04-04T19:31:04.285Z</time></trkpt><trkpt lat="34.5176383" lon="10.21125"><ele>51.0</ele><time>2026-04-04T19:31:05.286Z</time></trkpt><trkpt lat="34.51763" lon="10.21103"><ele>51.0</ele><time>2026-04-04T19:31:06.285Z</time></trkpt><trkpt lat="34.5176217" lon="10.21081"><ele>51.0</ele><time>2026-04-04T19:31:07.285Z</time></trkpt><trkpt lat="34.5176133" lon="10.21059"><ele>51.0</ele><time>2026-04-04T19:31:08.285Z</time></trkpt><trkpt lat="34.5176033" lon="10.2103667"><ele>51.66666666666667</ele><time>2026-04-04T19:31:09.285Z</time></trkpt><trkpt lat="34.5175917" lon="10.2101467"><ele>52.333333333333336</ele><time>2026-04-04T19:31:10.285Z</time></trkpt><trkpt lat="34.5175817" lon="10.209925"><ele>53.0</ele><time>2026-04-04T19:31:11.285Z</time></trkpt><trkpt lat="34.51757" lon="10.2097033"><ele>53.66666666666667</ele><time>2026-04-04T19:31:12.285Z</time></trkpt><trkpt lat="34.51756" lon="10.2094833"><ele>54.33333333333333</ele><time>2026-04-04T19:31:13.285Z</time></trkpt><trkpt lat="34.51755" lon="10.2092617"><ele>55.0</ele><time>2026-04-04T19:31:14.286Z</time></trkpt><trkpt lat="34.51754" lon="10.2090383"><ele>55.0</ele><time>2026-04-04T19:31:15.285Z</time></trkpt><trkpt lat="34.5175317" lon="10.2088117"><ele>55.0</ele><time>2026-04-04T19:31:16.285Z</time></trkpt><trkpt lat="34.5175233" lon="10.20858"><ele>55.0</ele><time>2026-04-04T19:31:17.285Z</time></trkpt><trkpt lat="34.5175133" lon="10.2083483"><ele>55.33333333333333</ele><time>2026-04-04T19:31:18.287Z</time></trkpt><trkpt lat="34.5175033" lon="10.2081117"><ele>55.66666666666667</ele><time>2026-04-04T19:31:19.285Z</time></trkpt><trkpt lat="34.5174933" lon="10.2078767"><ele>56.0</ele><time>2026-04-04T19:31:20.286Z</time></trkpt><trkpt lat="34.5174817" lon="10.2076433"><ele>56.0</ele><time>2026-04-04T19:31:21.285Z</time></trkpt><trkpt lat="34.5174717" lon="10.2074083"><ele>56.0</ele><time>2026-04-04T19:31:22.286Z</time></trkpt><trkpt lat="34.5174667" lon="10.2071717"><ele>56.0</ele><time>2026-04-04T19:31:23.285Z</time></trkpt><trkpt lat="34.5174567" lon="10.2069333"><ele>55.333333333333336</ele><time>2026-04-04T19:31:24.286Z</time></trkpt><trkpt lat="34.517445" lon="10.2066917"><ele>54.66666666666667</ele><time>2026-04-04T19:31:25.286Z</time></trkpt><trkpt lat="34.5174333" lon="10.206445"><ele>54.0</ele><time>2026-04-04T19:31:26.285Z</time></trkpt><trkpt lat="34.5174267" lon="10.206195"><ele>54.0</ele><time>2026-04-04T19:31:27.285Z</time></trkpt><trkpt lat="34.51742" lon="10.2059433"><ele>54.0</ele><time>2026-04-04T19:31:28.286Z</time></trkpt><trkpt lat="34.5174133" lon="10.2056833"><ele>54.0</ele><time>2026-04-04T19:31:29.286Z</time></trkpt><trkpt lat="34.517405" lon="10.2054233"><ele>54.33333333333333</ele><time>2026-04-04T19:31:30.285Z</time></trkpt><trkpt lat="34.5173917" lon="10.20516"><ele>54.666666666666664</ele><time>2026-04-04T19:31:31.285Z</time></trkpt><trkpt lat="34.5173783" lon="10.204895"><ele>55.0</ele><time>2026-04-04T19:31:32.286Z</time></trkpt><trkpt lat="34.5173633" lon="10.2046283"><ele>55.33333333333333</ele><time>2026-04-04T19:31:33.286Z</time></trkpt><trkpt lat="34.51735" lon="10.2043583"><ele>55.66666666666667</ele><time>2026-04-04T19:31:34.286Z</time></trkpt><trkpt lat="34.5173367" lon="10.2040883"><ele>56.0</ele><time>2026-04-04T19:31:35.285Z</time></trkpt><trkpt lat="34.5173267" lon="10.2038167"><ele>56.0</ele><time>2026-04-04T19:31:36.285Z</time></trkpt><trkpt lat="34.51732" lon="10.2035467"><ele>56.0</ele><time>2026-04-04T19:31:37.285Z</time></trkpt><trkpt lat="34.5173083" lon="10.2032783"><ele>56.0</ele><time>2026-04-04T19:31:38.286Z</time></trkpt><trkpt lat="34.5172967" lon="10.2030083"><ele>56.0</ele><time>2026-04-04T19:31:39.285Z</time></trkpt><trkpt lat="34.517285" lon="10.2027383"><ele>56.0</ele><time>2026-04-04T19:31:40.285Z</time></trkpt><trkpt lat="34.5172767" lon="10.2024717"><ele>56.0</ele><time>2026-04-04T19:31:41.285Z</time></trkpt><trkpt lat="34.5172667" lon="10.2022033"><ele>56.0</ele><time>2026-04-04T19:31:42.286Z</time></trkpt><trkpt lat="34.5172583" lon="10.2019333"><ele>56.0</ele><time>2026-04-04T19:31:43.286Z</time></trkpt><trkpt lat="34.5172467" lon="10.2016633"><ele>56.0</ele><time>2026-04-04T19:31:44.292Z</time></trkpt><trkpt lat="34.517235" lon="10.2013917"><ele>56.0</ele><time>2026-04-04T19:31:45.285Z</time></trkpt><trkpt lat="34.5172217" lon="10.2011167"><ele>56.0</ele><time>2026-04-04T19:31:46.288Z</time></trkpt><trkpt lat="34.51721" lon="10.2008417"><ele>56.5</ele><time>2026-04-04T19:31:47.288Z</time></trkpt><trkpt lat="34.5172" lon="10.2005633"><ele>57.0</ele><time>2026-04-04T19:31:48.286Z</time></trkpt><trkpt lat="34.5171917" lon="10.2002883"><ele>57.0</ele><time>2026-04-04T19:31:49.285Z</time></trkpt><trkpt lat="34.51718" lon="10.2000117"><ele>57.0</ele><time>2026-04-04T19:31:50.286Z</time></trkpt><trkpt lat="34.51717" lon="10.199735"><ele>57.5</ele><time>2026-04-04T19:31:51.286Z</time></trkpt><trkpt lat="34.5171583" lon="10.1994617"><ele>58.0</ele><time>2026-04-04T19:31:52.285Z</time></trkpt><trkpt lat="34.517145" lon="10.19919"><ele>57.666666666666664</ele><time>2026-04-04T19:31:53.285Z</time></trkpt><trkpt lat="34.5171267" lon="10.19892"><ele>57.33333333333333</ele><time>2026-04-04T19:31:54.285Z</time></trkpt><trkpt lat="34.51711" lon="10.19865"><ele>57.0</ele><time>2026-04-04T19:31:55.286Z</time></trkpt><trkpt lat="34.5170967" lon="10.19838"><ele>56.66666666666667</ele><time>2026-04-04T19:31:56.286Z</time></trkpt><trkpt lat="34.517085" lon="10.19811"><ele>56.333333333333336</ele><time>2026-04-04T19:31:57.286Z</time></trkpt><trkpt lat="34.5170767" lon="10.1978383"><ele>56.0</ele><time>2026-04-04T19:31:58.285Z</time></trkpt><trkpt lat="34.5170667" lon="10.1975683"><ele>55.333333333333336</ele><time>2026-04-04T19:31:59.285Z</time></trkpt><trkpt lat="34.517055" lon="10.1972983"><ele>54.66666666666667</ele><time>2026-04-04T19:32:00.285Z</time></trkpt><trkpt lat="34.5170433" lon="10.1970283"><ele>54.0</ele><time>2026-04-04T19:32:01.286Z</time></trkpt><trkpt lat="34.5170317" lon="10.19676"><ele>53.66666666666667</ele><time>2026-04-04T19:32:02.285Z</time></trkpt><trkpt lat="34.5170217" lon="10.1964917"><ele>53.333333333333336</ele><time>2026-04-04T19:32:03.283Z</time></trkpt><trkpt lat="34.5170117" lon="10.1962233"><ele>53.0</ele><time>2026-04-04T19:32:04.283Z</time></trkpt><trkpt lat="34.5169983" lon="10.1959533"><ele>53.0</ele><time>2026-04-04T19:32:05.283Z</time></trkpt><trkpt lat="34.516985" lon="10.195685"><ele>53.0</ele><time>2026-04-04T19:32:06.284Z</time></trkpt><trkpt lat="34.5169733" lon="10.1954183"><ele>53.0</ele><time>2026-04-04T19:32:07.284Z</time></trkpt><trkpt lat="34.5169617" lon="10.1951517"><ele>53.333333333333336</ele><time>2026-04-04T19:32:08.282Z</time></trkpt><trkpt lat="34.5169517" lon="10.1948833"><ele>53.66666666666667</ele><time>2026-04-04T19:32:09.283Z</time></trkpt><trkpt lat="34.5169417" lon="10.1946133"><ele>54.0</ele><time>2026-04-04T19:32:10.287Z</time></trkpt><trkpt lat="34.51693" lon="10.1943417"><ele>53.66666666666667</ele><time>2026-04-04T19:32:11.285Z</time></trkpt><trkpt lat="34.5169183" lon="10.1940683"><ele>53.333333333333336</ele><time>2026-04-04T19:32:12.286Z</time></trkpt><trkpt lat="34.51691" lon="10.1938"><ele>53.0</ele><time>2026-04-04T19:32:13.287Z</time></trkpt><trkpt lat="34.5168983" lon="10.1935367"><ele>53.0</ele><time>2026-04-04T19:32:14.286Z</time></trkpt><trkpt lat="34.5168867" lon="10.1932767"><ele>53.0</ele><time>2026-04-04T19:32:15.284Z</time></trkpt><trkpt lat="34.516875" lon="10.1930167"><ele>53.0</ele><time>2026-04-04T19:32:16.284Z</time></trkpt><trkpt lat="34.516865" lon="10.1927583"><ele>52.66666666666667</ele><time>2026-04-04T19:32:17.286Z</time></trkpt><trkpt lat="34.5168533" lon="10.1924983"><ele>52.33333333333333</ele><time>2026-04-04T19:32:18.284Z</time></trkpt><trkpt lat="34.5168417" lon="10.1922383"><ele>52.0</ele><time>2026-04-04T19:32:19.284Z</time></trkpt><trkpt lat="34.51683" lon="10.1919733"><ele>52.0</ele><time>2026-04-04T19:32:20.284Z</time></trkpt><trkpt lat="34.5168183" lon="10.191705"><ele>52.0</ele><time>2026-04-04T19:32:21.284Z</time></trkpt><trkpt lat="34.5168067" lon="10.191435"><ele>52.0</ele><time>2026-04-04T19:32:22.284Z</time></trkpt><trkpt lat="34.5167967" lon="10.1911617"><ele>51.0</ele><time>2026-04-04T19:32:23.285Z</time></trkpt><trkpt lat="34.5167867" lon="10.19089"><ele>50.0</ele><time>2026-04-04T19:32:24.284Z</time></trkpt><trkpt lat="34.516775" lon="10.1906167"><ele>49.0</ele><time>2026-04-04T19:32:25.285Z</time></trkpt><trkpt lat="34.5167667" lon="10.190345"><ele>48.0</ele><time>2026-04-04T19:32:26.284Z</time></trkpt><trkpt lat="34.5167583" lon="10.1900717"><ele>47.0</ele><time>2026-04-04T19:32:27.285Z</time></trkpt><trkpt lat="34.5167483" lon="10.1898"><ele>46.5</ele><time>2026-04-04T19:32:28.285Z</time></trkpt><trkpt lat="34.5167367" lon="10.189525"><ele>46.0</ele><time>2026-04-04T19:32:29.284Z</time></trkpt><trkpt lat="34.5167267" lon="10.1892533"><ele>45.66666666666667</ele><time>2026-04-04T19:32:30.285Z</time></trkpt><trkpt lat="34.5167133" lon="10.18898"><ele>45.333333333333336</ele><time>2026-04-04T19:32:31.285Z</time></trkpt><trkpt lat="34.5167" lon="10.18871"><ele>45.0</ele><time>2026-04-04T19:32:32.284Z</time></trkpt><trkpt lat="34.516685" lon="10.1884467"><ele>45.0</ele><time>2026-04-04T19:32:33.282Z</time></trkpt><trkpt lat="34.5166667" lon="10.18819"><ele>45.0</ele><time>2026-04-04T19:32:34.283Z</time></trkpt><trkpt lat="34.5166433" lon="10.1879333"><ele>45.0</ele><time>2026-04-04T19:32:35.283Z</time></trkpt><trkpt lat="34.51662" lon="10.1876767"><ele>44.333333333333336</ele><time>2026-04-04T19:32:36.282Z</time></trkpt><trkpt lat="34.516595" lon="10.18742"><ele>43.66666666666667</ele><time>2026-04-04T19:32:37.282Z</time></trkpt><trkpt lat="34.5165667" lon="10.18716"><ele>43.0</ele><time>2026-04-04T19:32:38.282Z</time></trkpt><trkpt lat="34.5165383" lon="10.1869017"><ele>43.0</ele><time>2026-04-04T19:32:39.283Z</time></trkpt><trkpt lat="34.5165067" lon="10.186645"><ele>43.0</ele><time>2026-04-04T19:32:40.284Z</time></trkpt><trkpt lat="34.516475" lon="10.1863867"><ele>43.0</ele><time>2026-04-04T19:32:41.285Z</time></trkpt><trkpt lat="34.51644" lon="10.186125"><ele>43.333333333333336</ele><time>2026-04-04T19:32:42.285Z</time></trkpt><trkpt lat="34.51641" lon="10.1858617"><ele>43.666666666666664</ele><time>2026-04-04T19:32:43.284Z</time></trkpt><trkpt lat="34.5163767" lon="10.1855967"><ele>44.0</ele><time>2026-04-04T19:32:44.284Z</time></trkpt><trkpt lat="34.516345" lon="10.1853317"><ele>44.0</ele><time>2026-04-04T19:32:45.285Z</time></trkpt><trkpt lat="34.5163117" lon="10.1850633"><ele>44.0</ele><time>2026-04-04T19:32:46.286Z</time></trkpt><trkpt lat="34.5162783" lon="10.1847983"><ele>44.0</ele><time>2026-04-04T19:32:47.284Z</time></trkpt><trkpt lat="34.5162433" lon="10.1845333"><ele>43.666666666666664</ele><time>2026-04-04T19:32:48.285Z</time></trkpt><trkpt lat="34.5162117" lon="10.1842683"><ele>43.333333333333336</ele><time>2026-04-04T19:32:49.285Z</time></trkpt><trkpt lat="34.5161783" lon="10.1840067"><ele>43.0</ele><time>2026-04-04T19:32:50.285Z</time></trkpt><trkpt lat="34.51615" lon="10.183745"><ele>43.0</ele><time>2026-04-04T19:32:51.284Z</time></trkpt><trkpt lat="34.5161183" lon="10.183485"><ele>43.0</ele><time>2026-04-04T19:32:52.285Z</time></trkpt><trkpt lat="34.5160883" lon="10.1832267"><ele>43.0</ele><time>2026-04-04T19:32:53.285Z</time></trkpt><trkpt lat="34.5160583" lon="10.1829683"><ele>43.66666666666667</ele><time>2026-04-04T19:32:54.285Z</time></trkpt><trkpt lat="34.5160267" lon="10.1827117"><ele>44.333333333333336</ele><time>2026-04-04T19:32:55.284Z</time></trkpt><trkpt lat="34.5159933" lon="10.182455"><ele>45.0</ele><time>2026-04-04T19:32:56.285Z</time></trkpt><trkpt lat="34.5159617" lon="10.182195"><ele>45.0</ele><time>2026-04-04T19:32:57.285Z</time></trkpt><trkpt lat="34.51593" lon="10.18194"><ele>45.0</ele><time>2026-04-04T19:32:58.284Z</time></trkpt><trkpt lat="34.5158983" lon="10.18168"><ele>45.0</ele><time>2026-04-04T19:32:59.286Z</time></trkpt><trkpt lat="34.5158667" lon="10.18142"><ele>45.333333333333336</ele><time>2026-04-04T19:33:00.285Z</time></trkpt><trkpt lat="34.5158317" lon="10.1811583"><ele>45.66666666666667</ele><time>2026-04-04T19:33:01.286Z</time></trkpt><trkpt lat="34.5157967" lon="10.180895"><ele>46.0</ele><time>2026-04-04T19:33:02.285Z</time></trkpt><trkpt lat="34.5157617" lon="10.1806317"><ele>47.333333333333336</ele><time>2026-04-04T19:33:03.281Z</time></trkpt><trkpt lat="34.5157283" lon="10.1803683"><ele>48.66666666666667</ele><time>2026-04-04T19:33:04.282Z</time></trkpt><trkpt lat="34.5156933" lon="10.180105"><ele>50.0</ele><time>2026-04-04T19:33:05.283Z</time></trkpt><trkpt lat="34.51566" lon="10.179845"><ele>52.0</ele><time>2026-04-04T19:33:06.283Z</time></trkpt><trkpt lat="34.5156283" lon="10.179595"><ele>54.0</ele><time>2026-04-04T19:33:07.283Z</time></trkpt><trkpt lat="34.5155983" lon="10.17935"><ele>56.0</ele><time>2026-04-04T19:33:08.283Z</time></trkpt><trkpt lat="34.5155683" lon="10.179105"><ele>57.0</ele><time>2026-04-04T19:33:09.282Z</time></trkpt><trkpt lat="34.5155383" lon="10.178855"><ele>58.0</ele><time>2026-04-04T19:33:10.286Z</time></trkpt><trkpt lat="34.51551" lon="10.1786017"><ele>59.0</ele><time>2026-04-04T19:33:11.285Z</time></trkpt><trkpt lat="34.51548" lon="10.1783467"><ele>59.0</ele><time>2026-04-04T19:33:12.285Z</time></trkpt><trkpt lat="34.51545" lon="10.1780933"><ele>59.0</ele><time>2026-04-04T19:33:13.284Z</time></trkpt><trkpt lat="34.51542" lon="10.1778417"><ele>59.0</ele><time>2026-04-04T19:33:14.285Z</time></trkpt><trkpt lat="34.5153933" lon="10.1775883"><ele>58.0</ele><time>2026-04-04T19:33:15.285Z</time></trkpt><trkpt lat="34.5153617" lon="10.1773333"><ele>57.0</ele><time>2026-04-04T19:33:16.285Z</time></trkpt><trkpt lat="34.5153317" lon="10.1770867"><ele>56.0</ele><time>2026-04-04T19:33:17.285Z</time></trkpt><trkpt lat="34.5153017" lon="10.17685"><ele>56.0</ele><time>2026-04-04T19:33:18.286Z</time></trkpt><trkpt lat="34.5152733" lon="10.1766217"><ele>56.0</ele><time>2026-04-04T19:33:19.285Z</time></trkpt><trkpt lat="34.5152417" lon="10.176395"><ele>56.0</ele><time>2026-04-04T19:33:20.284Z</time></trkpt><trkpt lat="34.515215" lon="10.17617"><ele>55.333333333333336</ele><time>2026-04-04T19:33:21.286Z</time></trkpt><trkpt lat="34.5151883" lon="10.175945"><ele>54.66666666666667</ele><time>2026-04-04T19:33:22.284Z</time></trkpt><trkpt lat="34.5151633" lon="10.1757233"><ele>54.0</ele><time>2026-04-04T19:33:23.285Z</time></trkpt><trkpt lat="34.515135" lon="10.1755"><ele>54.0</ele><time>2026-04-04T19:33:24.286Z</time></trkpt><trkpt lat="34.51511" lon="10.1752733"><ele>54.0</ele><time>2026-04-04T19:33:25.285Z</time></trkpt><trkpt lat="34.5150833" lon="10.175045"><ele>54.0</ele><time>2026-04-04T19:33:26.285Z</time></trkpt><trkpt lat="34.5150567" lon="10.17481"><ele>54.33333333333333</ele><time>2026-04-04T19:33:27.284Z</time></trkpt><trkpt lat="34.5150317" lon="10.174575"><ele>54.666666666666664</ele><time>2026-04-04T19:33:28.285Z</time></trkpt><trkpt lat="34.5150033" lon="10.17434"><ele>55.0</ele><time>2026-04-04T19:33:29.285Z</time></trkpt><trkpt lat="34.5149733" lon="10.1741017"><ele>55.666666666666664</ele><time>2026-04-04T19:33:30.285Z</time></trkpt><trkpt lat="34.5149417" lon="10.1738617"><ele>56.33333333333333</ele><time>2026-04-04T19:33:31.285Z</time></trkpt><trkpt lat="34.51491" lon="10.17362"><ele>57.0</ele><time>2026-04-04T19:33:32.285Z</time></trkpt><trkpt lat="34.5148767" lon="10.173375"><ele>58.0</ele><time>2026-04-04T19:33:33.283Z</time></trkpt><trkpt lat="34.5148433" lon="10.1731283"><ele>59.0</ele><time>2026-04-04T19:33:34.282Z</time></trkpt><trkpt lat="34.51481" lon="10.1728833"><ele>60.0</ele><time>2026-04-04T19:33:35.282Z</time></trkpt><trkpt lat="34.51478" lon="10.1726367"><ele>60.0</ele><time>2026-04-04T19:33:36.283Z</time></trkpt><trkpt lat="34.5147517" lon="10.17239"><ele>60.0</ele><time>2026-04-04T19:33:37.283Z</time></trkpt><trkpt lat="34.514725" lon="10.1721417"><ele>60.0</ele><time>2026-04-04T19:33:38.282Z</time></trkpt><trkpt lat="34.5146983" lon="10.1718917"><ele>61.0</ele><time>2026-04-04T19:33:39.283Z</time></trkpt><trkpt lat="34.514675" lon="10.1716417"><ele>62.0</ele><time>2026-04-04T19:33:40.286Z</time></trkpt><trkpt lat="34.5146567" lon="10.17139"><ele>63.0</ele><time>2026-04-04T19:33:41.285Z</time></trkpt><trkpt lat="34.5146367" lon="10.1711367"><ele>62.66666666666667</ele><time>2026-04-04T19:33:42.285Z</time></trkpt><trkpt lat="34.51462" lon="10.1708833"><ele>62.333333333333336</ele><time>2026-04-04T19:33:43.284Z</time></trkpt><trkpt lat="34.5146083" lon="10.1706317"><ele>62.0</ele><time>2026-04-04T19:33:44.286Z</time></trkpt><trkpt lat="34.5145983" lon="10.17038"><ele>62.0</ele><time>2026-04-04T19:33:45.285Z</time></trkpt><trkpt lat="34.5145883" lon="10.1701267"><ele>62.0</ele><time>2026-04-04T19:33:46.285Z</time></trkpt><trkpt lat="34.514585" lon="10.16987"><ele>62.0</ele><time>2026-04-04T19:33:47.282Z</time></trkpt><trkpt lat="34.51458" lon="10.1696083"><ele>61.66666666666667</ele><time>2026-04-04T19:33:48.285Z</time></trkpt><trkpt lat="34.5145817" lon="10.1693417"><ele>61.33333333333333</ele><time>2026-04-04T19:33:49.289Z</time></trkpt><trkpt lat="34.5145833" lon="10.1690733"><ele>61.0</ele><time>2026-04-04T19:33:50.284Z</time></trkpt><trkpt lat="34.51459" lon="10.168805"><ele>60.666666666666664</ele><time>2026-04-04T19:33:51.286Z</time></trkpt><trkpt lat="34.5146017" lon="10.1685367"><ele>60.33333333333333</ele><time>2026-04-04T19:33:52.285Z</time></trkpt><trkpt lat="34.5146133" lon="10.168265"><ele>60.0</ele><time>2026-04-04T19:33:53.286Z</time></trkpt><trkpt lat="34.5146317" lon="10.1679933"><ele>59.5</ele><time>2026-04-04T19:33:54.286Z</time></trkpt><trkpt lat="34.5146483" lon="10.1677183"><ele>59.0</ele><time>2026-04-04T19:33:55.285Z</time></trkpt><trkpt lat="34.51467" lon="10.1674433"><ele>58.5</ele><time>2026-04-04T19:33:56.285Z</time></trkpt><trkpt lat="34.51469" lon="10.1671683"><ele>58.0</ele><time>2026-04-04T19:33:57.286Z</time></trkpt><trkpt lat="34.5147133" lon="10.166895"><ele>58.0</ele><time>2026-04-04T19:33:58.285Z</time></trkpt><trkpt lat="34.5147433" lon="10.166625"><ele>58.0</ele><time>2026-04-04T19:33:59.285Z</time></trkpt><trkpt lat="34.5147767" lon="10.1663633"><ele>58.0</ele><time>2026-04-04T19:34:00.286Z</time></trkpt><trkpt lat="34.5148133" lon="10.16611"><ele>57.666666666666664</ele><time>2026-04-04T19:34:01.286Z</time></trkpt><trkpt lat="34.5148483" lon="10.16586"><ele>57.33333333333333</ele><time>2026-04-04T19:34:02.285Z</time></trkpt><trkpt lat="34.514885" lon="10.16561"><ele>57.0</ele><time>2026-04-04T19:34:03.285Z</time></trkpt><trkpt lat="34.514925" lon="10.1653567"><ele>57.0</ele><time>2026-04-04T19:34:04.286Z</time></trkpt><trkpt lat="34.51497" lon="10.1651017"><ele>57.0</ele><time>2026-04-04T19:34:05.286Z</time></trkpt><trkpt lat="34.5150117" lon="10.1648467"><ele>57.0</ele><time>2026-04-04T19:34:06.286Z</time></trkpt><trkpt lat="34.51506" lon="10.1645917"><ele>56.66666666666667</ele><time>2026-04-04T19:34:07.285Z</time></trkpt><trkpt lat="34.51511" lon="10.1643383"><ele>56.333333333333336</ele><time>2026-04-04T19:34:08.285Z</time></trkpt><trkpt lat="34.5151617" lon="10.164085"><ele>56.0</ele><time>2026-04-04T19:34:09.286Z</time></trkpt><trkpt lat="34.51522" lon="10.1638383"><ele>55.333333333333336</ele><time>2026-04-04T19:34:10.286Z</time></trkpt><trkpt lat="34.5152783" lon="10.1635983"><ele>54.66666666666667</ele><time>2026-04-04T19:34:11.285Z</time></trkpt><trkpt lat="34.5153333" lon="10.1633667"><ele>54.0</ele><time>2026-04-04T19:34:12.286Z</time></trkpt><trkpt lat="34.5153933" lon="10.1631367"><ele>54.33333333333333</ele><time>2026-04-04T19:34:13.285Z</time></trkpt><trkpt lat="34.515455" lon="10.1629067"><ele>54.666666666666664</ele><time>2026-04-04T19:34:14.285Z</time></trkpt><trkpt lat="34.5155167" lon="10.1626783"><ele>55.0</ele><time>2026-04-04T19:34:15.285Z</time></trkpt><trkpt lat="34.5155783" lon="10.1624483"><ele>54.666666666666664</ele><time>2026-04-04T19:34:16.282Z</time></trkpt><trkpt lat="34.5156467" lon="10.1622183"><ele>54.33333333333333</ele><time>2026-04-04T19:34:17.283Z</time></trkpt><trkpt lat="34.515715" lon="10.1619867"><ele>54.0</ele><time>2026-04-04T19:34:18.286Z</time></trkpt><trkpt lat="34.5157867" lon="10.1617533"><ele>53.0</ele><time>2026-04-04T19:34:19.286Z</time></trkpt><trkpt lat="34.5158567" lon="10.1615283"><ele>52.0</ele><time>2026-04-04T19:34:20.285Z</time></trkpt><trkpt lat="34.5159283" lon="10.161315"><ele>51.0</ele><time>2026-04-04T19:34:21.285Z</time></trkpt><trkpt lat="34.5159967" lon="10.1611083"><ele>51.0</ele><time>2026-04-04T19:34:22.286Z</time></trkpt><trkpt lat="34.5160683" lon="10.160905"><ele>51.0</ele><time>2026-04-04T19:34:23.285Z</time></trkpt><trkpt lat="34.5161433" lon="10.1606983"><ele>51.0</ele><time>2026-04-04T19:34:24.285Z</time></trkpt><trkpt lat="34.5162183" lon="10.1604917"><ele>51.0</ele><time>2026-04-04T19:34:25.285Z</time></trkpt><trkpt lat="34.516295" lon="10.160285"><ele>51.0</ele><time>2026-04-04T19:34:26.283Z</time></trkpt><trkpt lat="34.5163717" lon="10.160075"><ele>51.0</ele><time>2026-04-04T19:34:27.286Z</time></trkpt><trkpt lat="34.5164467" lon="10.15986"><ele>51.0</ele><time>2026-04-04T19:34:28.286Z</time></trkpt><trkpt lat="34.5165233" lon="10.159645"><ele>51.0</ele><time>2026-04-04T19:34:29.286Z</time></trkpt><trkpt lat="34.5166" lon="10.1594283"><ele>51.0</ele><time>2026-04-04T19:34:30.285Z</time></trkpt><trkpt lat="34.516675" lon="10.15921"><ele>50.66666666666667</ele><time>2026-04-04T19:34:31.285Z</time></trkpt><trkpt lat="34.5167533" lon="10.1589917"><ele>50.333333333333336</ele><time>2026-04-04T19:34:32.282Z</time></trkpt><trkpt lat="34.5168317" lon="10.1587733"><ele>50.0</ele><time>2026-04-04T19:34:33.286Z</time></trkpt><trkpt lat="34.5169117" lon="10.15855"><ele>50.0</ele><time>2026-04-04T19:34:34.285Z</time></trkpt><trkpt lat="34.51699" lon="10.1583217"><ele>50.0</ele><time>2026-04-04T19:34:35.287Z</time></trkpt><trkpt lat="34.51707" lon="10.1580917"><ele>50.0</ele><time>2026-04-04T19:34:36.285Z</time></trkpt><trkpt lat="34.5171533" lon="10.1578583"><ele>49.66666666666667</ele><time>2026-04-04T19:34:37.285Z</time></trkpt><trkpt lat="34.517235" lon="10.15762"><ele>49.33333333333333</ele><time>2026-04-04T19:34:38.285Z</time></trkpt><trkpt lat="34.5173183" lon="10.1573817"><ele>49.0</ele><time>2026-04-04T19:34:39.286Z</time></trkpt><trkpt lat="34.5174067" lon="10.15714"><ele>48.33333333333333</ele><time>2026-04-04T19:34:40.285Z</time></trkpt><trkpt lat="34.5174933" lon="10.1569"><ele>47.666666666666664</ele><time>2026-04-04T19:34:41.285Z</time></trkpt><trkpt lat="34.5175783" lon="10.1566583"><ele>47.0</ele><time>2026-04-04T19:34:42.285Z</time></trkpt><trkpt lat="34.5176617" lon="10.1564167"><ele>46.666666666666664</ele><time>2026-04-04T19:34:43.285Z</time></trkpt><trkpt lat="34.5177483" lon="10.1561767"><ele>46.333333333333336</ele><time>2026-04-04T19:34:44.285Z</time></trkpt><trkpt lat="34.5178317" lon="10.155945"><ele>46.0</ele><time>2026-04-04T19:34:45.286Z</time></trkpt><trkpt lat="34.5179133" lon="10.1557183"><ele>45.66666666666667</ele><time>2026-04-04T19:34:46.285Z</time></trkpt><trkpt lat="34.5179933" lon="10.15549"><ele>45.333333333333336</ele><time>2026-04-04T19:34:47.286Z</time></trkpt><trkpt lat="34.518075" lon="10.1552633"><ele>45.0</ele><time>2026-04-04T19:34:48.287Z</time></trkpt><trkpt lat="34.5181517" lon="10.155035"><ele>45.0</ele><time>2026-04-04T19:34:49.285Z</time></trkpt><trkpt lat="34.5182283" lon="10.1548067"><ele>45.0</ele><time>2026-04-04T19:34:50.286Z</time></trkpt><trkpt lat="34.5183117" lon="10.15458"><ele>45.0</ele><time>2026-04-04T19:34:51.286Z</time></trkpt><trkpt lat="34.5183917" lon="10.1543533"><ele>45.0</ele><time>2026-04-04T19:34:52.285Z</time></trkpt><trkpt lat="34.5184733" lon="10.1541267"><ele>45.0</ele><time>2026-04-04T19:34:53.287Z</time></trkpt><trkpt lat="34.5185517" lon="10.1539"><ele>45.0</ele><time>2026-04-04T19:34:54.285Z</time></trkpt><trkpt lat="34.5186317" lon="10.153675"><ele>45.0</ele><time>2026-04-04T19:34:55.285Z</time></trkpt><trkpt lat="34.51871" lon="10.15345"><ele>45.0</ele><time>2026-04-04T19:34:56.285Z</time></trkpt><trkpt lat="34.518785" lon="10.1532267"><ele>45.0</ele><time>2026-04-04T19:34:57.282Z</time></trkpt><trkpt lat="34.5188633" lon="10.1530033"><ele>44.0</ele><time>2026-04-04T19:34:58.286Z</time></trkpt><trkpt lat="34.5189483" lon="10.1527767"><ele>43.0</ele><time>2026-04-04T19:34:59.286Z</time></trkpt><trkpt lat="34.5190317" lon="10.1525517"><ele>42.0</ele><time>2026-04-04T19:35:00.286Z</time></trkpt><trkpt lat="34.5191183" lon="10.1523233"><ele>42.0</ele><time>2026-04-04T19:35:01.285Z</time></trkpt><trkpt lat="34.5192033" lon="10.1520933"><ele>42.0</ele><time>2026-04-04T19:35:02.286Z</time></trkpt><trkpt lat="34.5192883" lon="10.1518583"><ele>42.0</ele><time>2026-04-04T19:35:03.285Z</time></trkpt><trkpt lat="34.5193733" lon="10.15162"><ele>42.0</ele><time>2026-04-04T19:35:04.287Z</time></trkpt><trkpt lat="34.5194617" lon="10.15138"><ele>42.0</ele><time>2026-04-04T19:35:05.283Z</time></trkpt><trkpt lat="34.5195467" lon="10.15114"><ele>42.0</ele><time>2026-04-04T19:35:06.285Z</time></trkpt><trkpt lat="34.5196317" lon="10.1508983"><ele>41.666666666666664</ele><time>2026-04-04T19:35:07.283Z</time></trkpt><trkpt lat="34.519715" lon="10.15066"><ele>41.33333333333333</ele><time>2026-04-04T19:35:08.286Z</time></trkpt><trkpt lat="34.5197983" lon="10.1504267"><ele>41.0</ele><time>2026-04-04T19:35:09.286Z</time></trkpt><trkpt lat="34.5198833" lon="10.150195"><ele>41.0</ele><time>2026-04-04T19:35:10.285Z</time></trkpt><trkpt lat="34.5199717" lon="10.1499683"><ele>41.0</ele><time>2026-04-04T19:35:11.285Z</time></trkpt><trkpt lat="34.5200567" lon="10.1497367"><ele>41.0</ele><time>2026-04-04T19:35:12.285Z</time></trkpt><trkpt lat="34.5201417" lon="10.149505"><ele>41.0</ele><time>2026-04-04T19:35:13.285Z</time></trkpt><trkpt lat="34.520225" lon="10.14927"><ele>41.0</ele><time>2026-04-04T19:35:14.286Z</time></trkpt><trkpt lat="34.5203067" lon="10.1490317"><ele>41.0</ele><time>2026-04-04T19:35:15.285Z</time></trkpt><trkpt lat="34.5203883" lon="10.1487933"><ele>40.666666666666664</ele><time>2026-04-04T19:35:16.285Z</time></trkpt><trkpt lat="34.520465" lon="10.14856"><ele>40.333333333333336</ele><time>2026-04-04T19:35:17.286Z</time></trkpt><trkpt lat="34.520545" lon="10.14833"><ele>40.0</ele><time>2026-04-04T19:35:18.285Z</time></trkpt><trkpt lat="34.5206283" lon="10.1481017"><ele>40.0</ele><time>2026-04-04T19:35:19.285Z</time></trkpt><trkpt lat="34.5207117" lon="10.1478733"><ele>40.0</ele><time>2026-04-04T19:35:20.286Z</time></trkpt><trkpt lat="34.5207933" lon="10.1476417"><ele>40.0</ele><time>2026-04-04T19:35:21.285Z</time></trkpt><trkpt lat="34.5208767" lon="10.1474117"><ele>39.66666666666667</ele><time>2026-04-04T19:35:22.285Z</time></trkpt><trkpt lat="34.5209617" lon="10.1471817"><ele>39.333333333333336</ele><time>2026-04-04T19:35:23.285Z</time></trkpt><trkpt lat="34.5210433" lon="10.1469517"><ele>39.0</ele><time>2026-04-04T19:35:24.285Z</time></trkpt><trkpt lat="34.5211233" lon="10.1467183"><ele>39.333333333333336</ele><time>2026-04-04T19:35:25.285Z</time></trkpt><trkpt lat="34.5212033" lon="10.14649"><ele>39.66666666666667</ele><time>2026-04-04T19:35:26.284Z</time></trkpt><trkpt lat="34.5212867" lon="10.1462567"><ele>40.0</ele><time>2026-04-04T19:35:27.284Z</time></trkpt><trkpt lat="34.52137" lon="10.1460217"><ele>40.333333333333336</ele><time>2026-04-04T19:35:28.284Z</time></trkpt><trkpt lat="34.5214567" lon="10.1457867"><ele>40.666666666666664</ele><time>2026-04-04T19:35:29.285Z</time></trkpt><trkpt lat="34.5215383" lon="10.1455517"><ele>41.0</ele><time>2026-04-04T19:35:30.285Z</time></trkpt><trkpt lat="34.5216217" lon="10.14532"><ele>41.0</ele><time>2026-04-04T19:35:31.285Z</time></trkpt><trkpt lat="34.521705" lon="10.1450883"><ele>41.0</ele><time>2026-04-04T19:35:32.284Z</time></trkpt><trkpt lat="34.5217883" lon="10.1448567"><ele>41.0</ele><time>2026-04-04T19:35:33.282Z</time></trkpt><trkpt lat="34.52187" lon="10.1446233"><ele>41.666666666666664</ele><time>2026-04-04T19:35:34.282Z</time></trkpt><trkpt lat="34.521955" lon="10.1443917"><ele>42.333333333333336</ele><time>2026-04-04T19:35:35.285Z</time></trkpt><trkpt lat="34.52204" lon="10.1441617"><ele>43.0</ele><time>2026-04-04T19:35:36.283Z</time></trkpt><trkpt lat="34.52212" lon="10.1439317"><ele>43.0</ele><time>2026-04-04T19:35:37.283Z</time></trkpt><trkpt lat="34.5222017" lon="10.1437017"><ele>43.0</ele><time>2026-04-04T19:35:38.282Z</time></trkpt><trkpt lat="34.5222833" lon="10.1434733"><ele>43.0</ele><time>2026-04-04T19:35:39.283Z</time></trkpt><trkpt lat="34.522365" lon="10.143245"><ele>43.0</ele><time>2026-04-04T19:35:40.284Z</time></trkpt><trkpt lat="34.5224467" lon="10.1430183"><ele>43.0</ele><time>2026-04-04T19:35:41.286Z</time></trkpt><trkpt lat="34.5225283" lon="10.1427917"><ele>43.0</ele><time>2026-04-04T19:35:42.284Z</time></trkpt><trkpt lat="34.52261" lon="10.142565"><ele>43.333333333333336</ele><time>2026-04-04T19:35:43.285Z</time></trkpt><trkpt lat="34.5226883" lon="10.142335"><ele>43.666666666666664</ele><time>2026-04-04T19:35:44.285Z</time></trkpt><trkpt lat="34.5227683" lon="10.142105"><ele>44.0</ele><time>2026-04-04T19:35:45.284Z</time></trkpt><trkpt lat="34.5228517" lon="10.1418717"><ele>44.0</ele><time>2026-04-04T19:35:46.281Z</time></trkpt><trkpt lat="34.5229317" lon="10.1416367"><ele>44.0</ele><time>2026-04-04T19:35:47.285Z</time></trkpt><trkpt lat="34.523015" lon="10.1414017"><ele>44.0</ele><time>2026-04-04T19:35:48.285Z</time></trkpt><trkpt lat="34.5230967" lon="10.1411683"><ele>44.0</ele><time>2026-04-04T19:35:49.291Z</time></trkpt><trkpt lat="34.52318" lon="10.140935"><ele>44.0</ele><time>2026-04-04T19:35:50.285Z</time></trkpt><trkpt lat="34.5232633" lon="10.1407"><ele>44.0</ele><time>2026-04-04T19:35:51.282Z</time></trkpt><trkpt lat="34.52335" lon="10.1404683"><ele>44.0</ele><time>2026-04-04T19:35:52.284Z</time></trkpt><trkpt lat="34.5234333" lon="10.140235"><ele>44.0</ele><time>2026-04-04T19:35:53.286Z</time></trkpt><trkpt lat="34.5235183" lon="10.1399983"><ele>44.0</ele><time>2026-04-04T19:35:54.285Z</time></trkpt><trkpt lat="34.5236033" lon="10.1397633"><ele>44.0</ele><time>2026-04-04T19:35:55.284Z</time></trkpt><trkpt lat="34.5236817" lon="10.1395267"><ele>44.0</ele><time>2026-04-04T19:35:56.285Z</time></trkpt><trkpt lat="34.5237667" lon="10.1392917"><ele>44.0</ele><time>2026-04-04T19:35:57.285Z</time></trkpt><trkpt lat="34.52385" lon="10.1390567"><ele>44.0</ele><time>2026-04-04T19:35:58.285Z</time></trkpt><trkpt lat="34.5239317" lon="10.1388217"><ele>44.0</ele><time>2026-04-04T19:35:59.284Z</time></trkpt><trkpt lat="34.5240133" lon="10.138585"><ele>44.0</ele><time>2026-04-04T19:36:00.284Z</time></trkpt><trkpt lat="34.524095" lon="10.1383467"><ele>44.33333333333333</ele><time>2026-04-04T19:36:01.284Z</time></trkpt><trkpt lat="34.5241783" lon="10.13811"><ele>44.666666666666664</ele><time>2026-04-04T19:36:02.284Z</time></trkpt><trkpt lat="34.5242633" lon="10.1378717"><ele>45.0</ele><time>2026-04-04T19:36:03.284Z</time></trkpt><trkpt lat="34.5243467" lon="10.1376333"><ele>45.0</ele><time>2026-04-04T19:36:04.284Z</time></trkpt><trkpt lat="34.5244317" lon="10.137395"><ele>45.0</ele><time>2026-04-04T19:36:05.285Z</time></trkpt><trkpt lat="34.5245183" lon="10.1371583"><ele>45.0</ele><time>2026-04-04T19:36:06.284Z</time></trkpt><trkpt lat="34.524605" lon="10.1369217"><ele>44.666666666666664</ele><time>2026-04-04T19:36:07.285Z</time></trkpt><trkpt lat="34.52469" lon="10.1366833"><ele>44.33333333333333</ele><time>2026-04-04T19:36:08.285Z</time></trkpt><trkpt lat="34.5247733" lon="10.1364467"><ele>44.0</ele><time>2026-04-04T19:36:09.285Z</time></trkpt><trkpt lat="34.5248567" lon="10.1362133"><ele>44.666666666666664</ele><time>2026-04-04T19:36:10.284Z</time></trkpt><trkpt lat="34.52494" lon="10.1359783"><ele>45.333333333333336</ele><time>2026-04-04T19:36:11.285Z</time></trkpt><trkpt lat="34.5250267" lon="10.135745"><ele>46.0</ele><time>2026-04-04T19:36:12.286Z</time></trkpt><trkpt lat="34.52511" lon="10.1355117"><ele>46.0</ele><time>2026-04-04T19:36:13.285Z</time></trkpt><trkpt lat="34.5251967" lon="10.1352783"><ele>46.0</ele><time>2026-04-04T19:36:14.284Z</time></trkpt><trkpt lat="34.5252817" lon="10.135045"><ele>46.0</ele><time>2026-04-04T19:36:15.285Z</time></trkpt><trkpt lat="34.525365" lon="10.1348117"><ele>45.333333333333336</ele><time>2026-04-04T19:36:16.285Z</time></trkpt><trkpt lat="34.5254467" lon="10.1345783"><ele>44.666666666666664</ele><time>2026-04-04T19:36:17.285Z</time></trkpt><trkpt lat="34.52553" lon="10.134345"><ele>44.0</ele><time>2026-04-04T19:36:18.285Z</time></trkpt><trkpt lat="34.52561" lon="10.13411"><ele>44.666666666666664</ele><time>2026-04-04T19:36:19.284Z</time></trkpt><trkpt lat="34.52569" lon="10.133875"><ele>45.333333333333336</ele><time>2026-04-04T19:36:20.285Z</time></trkpt><trkpt lat="34.5257667" lon="10.1336383"><ele>46.0</ele><time>2026-04-04T19:36:21.284Z</time></trkpt><trkpt lat="34.52584" lon="10.1333983"><ele>46.333333333333336</ele><time>2026-04-04T19:36:22.286Z</time></trkpt><trkpt lat="34.52591" lon="10.1331567"><ele>46.666666666666664</ele><time>2026-04-04T19:36:23.284Z</time></trkpt><trkpt lat="34.5259817" lon="10.1329133"><ele>47.0</ele><time>2026-04-04T19:36:24.286Z</time></trkpt><trkpt lat="34.52605" lon="10.13267"><ele>47.0</ele><time>2026-04-04T19:36:25.284Z</time></trkpt><trkpt lat="34.5261133" lon="10.132425"><ele>47.0</ele><time>2026-04-04T19:36:26.284Z</time></trkpt><trkpt lat="34.526175" lon="10.13218"><ele>47.0</ele><time>2026-04-04T19:36:27.285Z</time></trkpt><trkpt lat="34.526235" lon="10.1319333"><ele>46.666666666666664</ele><time>2026-04-04T19:36:28.284Z</time></trkpt><trkpt lat="34.526295" lon="10.1316833"><ele>46.333333333333336</ele><time>2026-04-04T19:36:29.286Z</time></trkpt><trkpt lat="34.5263483" lon="10.13143"><ele>46.0</ele><time>2026-04-04T19:36:30.286Z</time></trkpt><trkpt lat="34.5264067" lon="10.131175"><ele>46.333333333333336</ele><time>2026-04-04T19:36:31.285Z</time></trkpt><trkpt lat="34.52646" lon="10.130915"><ele>46.666666666666664</ele><time>2026-04-04T19:36:32.281Z</time></trkpt><trkpt lat="34.5265167" lon="10.130655"><ele>47.0</ele><time>2026-04-04T19:36:33.282Z</time></trkpt><trkpt lat="34.5265683" lon="10.1304033"><ele>47.0</ele><time>2026-04-04T19:36:34.285Z</time></trkpt><trkpt lat="34.5266183" lon="10.1301567"><ele>47.0</ele><time>2026-04-04T19:36:35.285Z</time></trkpt><trkpt lat="34.52667" lon="10.12991"><ele>47.0</ele><time>2026-04-04T19:36:36.285Z</time></trkpt><trkpt lat="34.5267233" lon="10.1296617"><ele>46.666666666666664</ele><time>2026-04-04T19:36:37.281Z</time></trkpt><trkpt lat="34.5267733" lon="10.129415"><ele>46.333333333333336</ele><time>2026-04-04T19:36:38.285Z</time></trkpt><trkpt lat="34.5268233" lon="10.1291717"><ele>46.0</ele><time>2026-04-04T19:36:39.285Z</time></trkpt><trkpt lat="34.5268733" lon="10.12893"><ele>46.0</ele><time>2026-04-04T19:36:40.285Z</time></trkpt><trkpt lat="34.526925" lon="10.1286883"><ele>46.0</ele><time>2026-04-04T19:36:41.285Z</time></trkpt><trkpt lat="34.5269767" lon="10.1284467"><ele>46.0</ele><time>2026-04-04T19:36:42.283Z</time></trkpt><trkpt lat="34.5270267" lon="10.1282033"><ele>46.66666666666667</ele><time>2026-04-04T19:36:43.282Z</time></trkpt><trkpt lat="34.5270783" lon="10.12796"><ele>47.333333333333336</ele><time>2026-04-04T19:36:44.285Z</time></trkpt><trkpt lat="34.5271283" lon="10.1277183"><ele>48.0</ele><time>2026-04-04T19:36:45.283Z</time></trkpt><trkpt lat="34.5271817" lon="10.1274767"><ele>47.666666666666664</ele><time>2026-04-04T19:36:46.282Z</time></trkpt><trkpt lat="34.5272333" lon="10.127235"><ele>47.33333333333333</ele><time>2026-04-04T19:36:47.283Z</time></trkpt><trkpt lat="34.5272883" lon="10.1269933"><ele>47.0</ele><time>2026-04-04T19:36:48.286Z</time></trkpt><trkpt lat="34.5273433" lon="10.1267483"><ele>47.0</ele><time>2026-04-04T19:36:49.285Z</time></trkpt><trkpt lat="34.527395" lon="10.1265"><ele>47.0</ele><time>2026-04-04T19:36:50.285Z</time></trkpt><trkpt lat="34.527445" lon="10.12625"><ele>47.0</ele><time>2026-04-04T19:36:51.285Z</time></trkpt><trkpt lat="34.5274967" lon="10.1260017"><ele>47.0</ele><time>2026-04-04T19:36:52.285Z</time></trkpt><trkpt lat="34.52755" lon="10.1257517"><ele>47.0</ele><time>2026-04-04T19:36:53.285Z</time></trkpt><trkpt lat="34.5276033" lon="10.1254983"><ele>47.0</ele><time>2026-04-04T19:36:54.285Z</time></trkpt><trkpt lat="34.5276533" lon="10.1252433"><ele>47.0</ele><time>2026-04-04T19:36:55.285Z</time></trkpt><trkpt lat="34.527705" lon="10.1249917"><ele>47.0</ele><time>2026-04-04T19:36:56.285Z</time></trkpt><trkpt lat="34.5277567" lon="10.1247383"><ele>47.0</ele><time>2026-04-04T19:36:57.285Z</time></trkpt><trkpt lat="34.5278033" lon="10.1244933"><ele>47.0</ele><time>2026-04-04T19:36:58.285Z</time></trkpt><trkpt lat="34.5278467" lon="10.124255"><ele>47.0</ele><time>2026-04-04T19:36:59.286Z</time></trkpt><trkpt lat="34.52789" lon="10.12402"><ele>47.0</ele><time>2026-04-04T19:37:00.285Z</time></trkpt><trkpt lat="34.5279333" lon="10.1237833"><ele>47.0</ele><time>2026-04-04T19:37:01.284Z</time></trkpt><trkpt lat="34.5279767" lon="10.123545"><ele>47.0</ele><time>2026-04-04T19:37:02.285Z</time></trkpt><trkpt lat="34.5280217" lon="10.1233017"><ele>47.0</ele><time>2026-04-04T19:37:03.285Z</time></trkpt><trkpt lat="34.5280683" lon="10.1230567"><ele>47.0</ele><time>2026-04-04T19:37:04.286Z</time></trkpt><trkpt lat="34.5281167" lon="10.1228083"><ele>47.0</ele><time>2026-04-04T19:37:05.285Z</time></trkpt><trkpt lat="34.5281633" lon="10.12256"><ele>47.0</ele><time>2026-04-04T19:37:06.285Z</time></trkpt><trkpt lat="34.52821" lon="10.12231"><ele>47.0</ele><time>2026-04-04T19:37:07.286Z</time></trkpt><trkpt lat="34.528255" lon="10.12206"><ele>47.0</ele><time>2026-04-04T19:37:08.285Z</time></trkpt><trkpt lat="34.5282967" lon="10.121805"><ele>47.0</ele><time>2026-04-04T19:37:09.285Z</time></trkpt><trkpt lat="34.5283367" lon="10.12155"><ele>47.0</ele><time>2026-04-04T19:37:10.285Z</time></trkpt><trkpt lat="34.52838" lon="10.1212917"><ele>47.0</ele><time>2026-04-04T19:37:11.285Z</time></trkpt><trkpt lat="34.5284217" lon="10.12103"><ele>47.0</ele><time>2026-04-04T19:37:12.286Z</time></trkpt><trkpt lat="34.5284583" lon="10.12077"><ele>47.0</ele><time>2026-04-04T19:37:13.286Z</time></trkpt><trkpt lat="34.528495" lon="10.1205133"><ele>47.0</ele><time>2026-04-04T19:37:14.285Z</time></trkpt><trkpt lat="34.5285367" lon="10.1202567"><ele>47.0</ele><time>2026-04-04T19:37:15.287Z</time></trkpt><trkpt lat="34.528575" lon="10.1199983"><ele>46.666666666666664</ele><time>2026-04-04T19:37:16.285Z</time></trkpt><trkpt lat="34.5286117" lon="10.1197417"><ele>46.333333333333336</ele><time>2026-04-04T19:37:17.285Z</time></trkpt><trkpt lat="34.5286483" lon="10.119485"><ele>46.0</ele><time>2026-04-04T19:37:18.285Z</time></trkpt><trkpt lat="34.528685" lon="10.1192283"><ele>46.0</ele><time>2026-04-04T19:37:19.285Z</time></trkpt><trkpt lat="34.5287217" lon="10.1189717"><ele>46.0</ele><time>2026-04-04T19:37:20.285Z</time></trkpt><trkpt lat="34.5287567" lon="10.1187133"><ele>46.0</ele><time>2026-04-04T19:37:21.285Z</time></trkpt><trkpt lat="34.52879" lon="10.1184567"><ele>45.333333333333336</ele><time>2026-04-04T19:37:22.285Z</time></trkpt><trkpt lat="34.5288267" lon="10.1182"><ele>44.666666666666664</ele><time>2026-04-04T19:37:23.285Z</time></trkpt><trkpt lat="34.5288633" lon="10.1179433"><ele>44.0</ele><time>2026-04-04T19:37:24.286Z</time></trkpt><trkpt lat="34.5289" lon="10.1176867"><ele>44.0</ele><time>2026-04-04T19:37:25.285Z</time></trkpt><trkpt lat="34.5289333" lon="10.11743"><ele>44.0</ele><time>2026-04-04T19:37:26.285Z</time></trkpt><trkpt lat="34.5289667" lon="10.1171733"><ele>44.0</ele><time>2026-04-04T19:37:27.285Z</time></trkpt><trkpt lat="34.529" lon="10.11692"><ele>43.666666666666664</ele><time>2026-04-04T19:37:28.285Z</time></trkpt><trkpt lat="34.529035" lon="10.1166667"><ele>43.333333333333336</ele><time>2026-04-04T19:37:29.285Z</time></trkpt><trkpt lat="34.52907" lon="10.116415"><ele>43.0</ele><time>2026-04-04T19:37:30.286Z</time></trkpt><trkpt lat="34.5291083" lon="10.116165"><ele>43.0</ele><time>2026-04-04T19:37:31.286Z</time></trkpt><trkpt lat="34.5291433" lon="10.1159167"><ele>43.0</ele><time>2026-04-04T19:37:32.285Z</time></trkpt><trkpt lat="34.5291783" lon="10.1156683"><ele>43.0</ele><time>2026-04-04T19:37:33.286Z</time></trkpt><trkpt lat="34.529215" lon="10.1154217"><ele>43.0</ele><time>2026-04-04T19:37:34.282Z</time></trkpt><trkpt lat="34.5292517" lon="10.1151733"><ele>43.0</ele><time>2026-04-04T19:37:35.283Z</time></trkpt><trkpt lat="34.5292883" lon="10.114925"><ele>43.0</ele><time>2026-04-04T19:37:36.283Z</time></trkpt><trkpt lat="34.5293217" lon="10.114675"><ele>43.0</ele><time>2026-04-04T19:37:37.285Z</time></trkpt><trkpt lat="34.5293533" lon="10.114425"><ele>43.0</ele><time>2026-04-04T19:37:38.283Z</time></trkpt><trkpt lat="34.52939" lon="10.1141767"><ele>43.0</ele><time>2026-04-04T19:37:39.283Z</time></trkpt><trkpt lat="34.529425" lon="10.1139267"><ele>43.0</ele><time>2026-04-04T19:37:40.285Z</time></trkpt><trkpt lat="34.52946" lon="10.1136783"><ele>43.0</ele><time>2026-04-04T19:37:41.283Z</time></trkpt><trkpt lat="34.5294933" lon="10.1134283"><ele>43.0</ele><time>2026-04-04T19:37:42.284Z</time></trkpt><trkpt lat="34.5295283" lon="10.1131767"><ele>43.66666666666667</ele><time>2026-04-04T19:37:43.283Z</time></trkpt><trkpt lat="34.5295633" lon="10.1129233"><ele>44.333333333333336</ele><time>2026-04-04T19:37:44.282Z</time></trkpt><trkpt lat="34.5296" lon="10.1126683"><ele>45.0</ele><time>2026-04-04T19:37:45.285Z</time></trkpt><trkpt lat="34.529635" lon="10.1124117"><ele>44.666666666666664</ele><time>2026-04-04T19:37:46.285Z</time></trkpt><trkpt lat="34.52967" lon="10.1121533"><ele>44.33333333333333</ele><time>2026-04-04T19:37:47.286Z</time></trkpt><trkpt lat="34.5297067" lon="10.11189"><ele>44.0</ele><time>2026-04-04T19:37:48.286Z</time></trkpt><trkpt lat="34.5297433" lon="10.1116283"><ele>44.0</ele><time>2026-04-04T19:37:49.286Z</time></trkpt><trkpt lat="34.5297817" lon="10.1113667"><ele>44.0</ele><time>2026-04-04T19:37:50.286Z</time></trkpt><trkpt lat="34.52982" lon="10.1111083"><ele>44.0</ele><time>2026-04-04T19:37:51.285Z</time></trkpt><trkpt lat="34.529855" lon="10.1108567"><ele>43.666666666666664</ele><time>2026-04-04T19:37:52.286Z</time></trkpt><trkpt lat="34.5298883" lon="10.11061"><ele>43.333333333333336</ele><time>2026-04-04T19:37:53.285Z</time></trkpt><trkpt lat="34.5299233" lon="10.110365"><ele>43.0</ele><time>2026-04-04T19:37:54.285Z</time></trkpt><trkpt lat="34.5299583" lon="10.1101267"><ele>43.0</ele><time>2026-04-04T19:37:55.285Z</time></trkpt><trkpt lat="34.5299917" lon="10.1098933"><ele>43.0</ele><time>2026-04-04T19:37:56.282Z</time></trkpt><trkpt lat="34.530025" lon="10.1096567"><ele>43.0</ele><time>2026-04-04T19:37:57.283Z</time></trkpt><trkpt lat="34.5300583" lon="10.10942"><ele>43.0</ele><time>2026-04-04T19:37:58.285Z</time></trkpt><trkpt lat="34.5300933" lon="10.1091817"><ele>43.0</ele><time>2026-04-04T19:37:59.286Z</time></trkpt><trkpt lat="34.5301283" lon="10.1089433"><ele>43.0</ele><time>2026-04-04T19:38:00.285Z</time></trkpt><trkpt lat="34.53016" lon="10.1087033"><ele>43.333333333333336</ele><time>2026-04-04T19:38:01.282Z</time></trkpt><trkpt lat="34.5301917" lon="10.1084633"><ele>43.666666666666664</ele><time>2026-04-04T19:38:02.285Z</time></trkpt><trkpt lat="34.5302233" lon="10.10822"><ele>44.0</ele><time>2026-04-04T19:38:03.285Z</time></trkpt><trkpt lat="34.5302567" lon="10.1079783"><ele>44.0</ele><time>2026-04-04T19:38:04.282Z</time></trkpt><trkpt lat="34.53029" lon="10.107735"><ele>44.0</ele><time>2026-04-04T19:38:05.284Z</time></trkpt><trkpt lat="34.530325" lon="10.10749"><ele>44.0</ele><time>2026-04-04T19:38:06.284Z</time></trkpt><trkpt lat="34.5303583" lon="10.1072433"><ele>44.0</ele><time>2026-04-04T19:38:07.284Z</time></trkpt><trkpt lat="34.53039" lon="10.106995"><ele>44.0</ele><time>2026-04-04T19:38:08.284Z</time></trkpt><trkpt lat="34.5304217" lon="10.1067483"><ele>44.0</ele><time>2026-04-04T19:38:09.286Z</time></trkpt><trkpt lat="34.5304567" lon="10.1065"><ele>44.666666666666664</ele><time>2026-04-04T19:38:10.284Z</time></trkpt><trkpt lat="34.5304917" lon="10.10625"><ele>45.333333333333336</ele><time>2026-04-04T19:38:11.284Z</time></trkpt><trkpt lat="34.530525" lon="10.1059983"><ele>46.0</ele><time>2026-04-04T19:38:12.285Z</time></trkpt><trkpt lat="34.53056" lon="10.1057467"><ele>46.0</ele><time>2026-04-04T19:38:13.283Z</time></trkpt><trkpt lat="34.5305917" lon="10.105495"><ele>46.0</ele><time>2026-04-04T19:38:14.285Z</time></trkpt><trkpt lat="34.5306233" lon="10.1052433"><ele>46.0</ele><time>2026-04-04T19:38:15.286Z</time></trkpt><trkpt lat="34.5306567" lon="10.1049917"><ele>46.66666666666667</ele><time>2026-04-04T19:38:16.285Z</time></trkpt><trkpt lat="34.5306917" lon="10.1047433"><ele>47.333333333333336</ele><time>2026-04-04T19:38:17.286Z</time></trkpt><trkpt lat="34.530725" lon="10.1044917"><ele>48.0</ele><time>2026-04-04T19:38:18.286Z</time></trkpt><trkpt lat="34.5307567" lon="10.1042383"><ele>47.333333333333336</ele><time>2026-04-04T19:38:19.286Z</time></trkpt><trkpt lat="34.53079" lon="10.1039867"><ele>46.66666666666667</ele><time>2026-04-04T19:38:20.285Z</time></trkpt><trkpt lat="34.530825" lon="10.1037367"><ele>46.0</ele><time>2026-04-04T19:38:21.286Z</time></trkpt><trkpt lat="34.5308583" lon="10.1034833"><ele>46.66666666666667</ele><time>2026-04-04T19:38:22.285Z</time></trkpt><trkpt lat="34.5308917" lon="10.1032283"><ele>47.333333333333336</ele><time>2026-04-04T19:38:23.286Z</time></trkpt><trkpt lat="34.530925" lon="10.1029733"><ele>48.0</ele><time>2026-04-04T19:38:24.286Z</time></trkpt><trkpt lat="34.5309633" lon="10.10272"><ele>48.0</ele><time>2026-04-04T19:38:25.285Z</time></trkpt><trkpt lat="34.5310033" lon="10.102465"><ele>48.0</ele><time>2026-04-04T19:38:26.285Z</time></trkpt><trkpt lat="34.53104" lon="10.1022133"><ele>48.0</ele><time>2026-04-04T19:38:27.283Z</time></trkpt><trkpt lat="34.5310783" lon="10.1019617"><ele>47.666666666666664</ele><time>2026-04-04T19:38:28.286Z</time></trkpt><trkpt lat="34.53111" lon="10.10171"><ele>47.33333333333333</ele><time>2026-04-04T19:38:29.286Z</time></trkpt><trkpt lat="34.5311417" lon="10.10146"><ele>47.0</ele><time>2026-04-04T19:38:30.286Z</time></trkpt><trkpt lat="34.5311717" lon="10.1012117"><ele>47.33333333333333</ele><time>2026-04-04T19:38:31.282Z</time></trkpt><trkpt lat="34.5312" lon="10.1009633"><ele>47.666666666666664</ele><time>2026-04-04T19:38:32.286Z</time></trkpt><trkpt lat="34.531225" lon="10.100715"><ele>48.0</ele><time>2026-04-04T19:38:33.285Z</time></trkpt><trkpt lat="34.5312483" lon="10.1004667"><ele>48.0</ele><time>2026-04-04T19:38:34.281Z</time></trkpt><trkpt lat="34.5312683" lon="10.1002183"><ele>48.0</ele><time>2026-04-04T19:38:35.283Z</time></trkpt><trkpt lat="34.53129" lon="10.0999683"><ele>48.0</ele><time>2026-04-04T19:38:36.281Z</time></trkpt><trkpt lat="34.5313083" lon="10.0997167"><ele>48.33333333333333</ele><time>2026-04-04T19:38:37.281Z</time></trkpt><trkpt lat="34.5313233" lon="10.099465"><ele>48.666666666666664</ele><time>2026-04-04T19:38:38.282Z</time></trkpt><trkpt lat="34.5313333" lon="10.0992133"><ele>49.0</ele><time>2026-04-04T19:38:39.282Z</time></trkpt><trkpt lat="34.5313433" lon="10.0989583"><ele>49.0</ele><time>2026-04-04T19:38:40.281Z</time></trkpt><trkpt lat="34.5313517" lon="10.0987067"><ele>49.0</ele><time>2026-04-04T19:38:41.282Z</time></trkpt><trkpt lat="34.5313583" lon="10.0984533"><ele>49.0</ele><time>2026-04-04T19:38:42.282Z</time></trkpt><trkpt lat="34.53136" lon="10.0982017"><ele>49.33333333333333</ele><time>2026-04-04T19:38:43.281Z</time></trkpt><trkpt lat="34.53136" lon="10.0979483"><ele>49.66666666666667</ele><time>2026-04-04T19:38:44.281Z</time></trkpt><trkpt lat="34.531355" lon="10.0976967"><ele>50.0</ele><time>2026-04-04T19:38:45.285Z</time></trkpt><trkpt lat="34.5313483" lon="10.0974417"><ele>50.333333333333336</ele><time>2026-04-04T19:38:46.284Z</time></trkpt><trkpt lat="34.53134" lon="10.09719"><ele>50.66666666666667</ele><time>2026-04-04T19:38:47.284Z</time></trkpt><trkpt lat="34.53133" lon="10.0969367"><ele>51.0</ele><time>2026-04-04T19:38:48.285Z</time></trkpt><trkpt lat="34.5313183" lon="10.0966817"><ele>51.0</ele><time>2026-04-04T19:38:49.284Z</time></trkpt><trkpt lat="34.5313033" lon="10.0964267"><ele>51.0</ele><time>2026-04-04T19:38:50.285Z</time></trkpt><trkpt lat="34.5312867" lon="10.0961717"><ele>51.0</ele><time>2026-04-04T19:38:51.284Z</time></trkpt><trkpt lat="34.5312633" lon="10.0959167"><ele>50.66666666666667</ele><time>2026-04-04T19:38:52.285Z</time></trkpt><trkpt lat="34.53124" lon="10.0956617"><ele>50.333333333333336</ele><time>2026-04-04T19:38:53.285Z</time></trkpt><trkpt lat="34.5312117" lon="10.0954067"><ele>50.0</ele><time>2026-04-04T19:38:54.286Z</time></trkpt><trkpt lat="34.5311833" lon="10.09515"><ele>50.0</ele><time>2026-04-04T19:38:55.285Z</time></trkpt><trkpt lat="34.531155" lon="10.0948967"><ele>50.0</ele><time>2026-04-04T19:38:56.285Z</time></trkpt><trkpt lat="34.531125" lon="10.094645"><ele>50.0</ele><time>2026-04-04T19:38:57.284Z</time></trkpt><trkpt lat="34.53109" lon="10.094395"><ele>50.0</ele><time>2026-04-04T19:38:58.285Z</time></trkpt><trkpt lat="34.5310533" lon="10.0941483"><ele>50.0</ele><time>2026-04-04T19:38:59.284Z</time></trkpt><trkpt lat="34.531015" lon="10.0939033"><ele>50.0</ele><time>2026-04-04T19:39:00.285Z</time></trkpt><trkpt lat="34.5309733" lon="10.0936583"><ele>50.333333333333336</ele><time>2026-04-04T19:39:01.286Z</time></trkpt><trkpt lat="34.5309283" lon="10.0934133"><ele>50.66666666666667</ele><time>2026-04-04T19:39:02.286Z</time></trkpt><trkpt lat="34.53088" lon="10.0931667"><ele>51.0</ele><time>2026-04-04T19:39:03.282Z</time></trkpt><trkpt lat="34.5308283" lon="10.0929217"><ele>51.66666666666667</ele><time>2026-04-04T19:39:04.282Z</time></trkpt><trkpt lat="34.530775" lon="10.0926767"><ele>52.333333333333336</ele><time>2026-04-04T19:39:05.282Z</time></trkpt><trkpt lat="34.5307183" lon="10.0924333"><ele>53.0</ele><time>2026-04-04T19:39:06.282Z</time></trkpt><trkpt lat="34.5306567" lon="10.0921917"><ele>53.66666666666667</ele><time>2026-04-04T19:39:07.282Z</time></trkpt><trkpt lat="34.5305933" lon="10.09195"><ele>54.33333333333333</ele><time>2026-04-04T19:39:08.281Z</time></trkpt><trkpt lat="34.5305317" lon="10.0917067"><ele>55.0</ele><time>2026-04-04T19:39:09.283Z</time></trkpt><trkpt lat="34.5304667" lon="10.091465"><ele>55.33333333333333</ele><time>2026-04-04T19:39:10.282Z</time></trkpt><trkpt lat="34.5303983" lon="10.0912233"><ele>55.66666666666667</ele><time>2026-04-04T19:39:11.282Z</time></trkpt><trkpt lat="34.5303283" lon="10.090985"><ele>56.0</ele><time>2026-04-04T19:39:12.282Z</time></trkpt><trkpt lat="34.530255" lon="10.0907483"><ele>57.0</ele><time>2026-04-04T19:39:13.282Z</time></trkpt><trkpt lat="34.5301783" lon="10.0905117"><ele>58.0</ele><time>2026-04-04T19:39:14.282Z</time></trkpt><trkpt lat="34.5301" lon="10.090275"><ele>59.0</ele><time>2026-04-04T19:39:15.286Z</time></trkpt><trkpt lat="34.5300183" lon="10.0900367"><ele>59.66666666666667</ele><time>2026-04-04T19:39:16.285Z</time></trkpt><trkpt lat="34.5299333" lon="10.0898"><ele>60.33333333333333</ele><time>2026-04-04T19:39:17.286Z</time></trkpt><trkpt lat="34.529845" lon="10.089565"><ele>61.0</ele><time>2026-04-04T19:39:18.285Z</time></trkpt><trkpt lat="34.529755" lon="10.089335"><ele>61.0</ele><time>2026-04-04T19:39:19.285Z</time></trkpt><trkpt lat="34.5296667" lon="10.089105"><ele>61.0</ele><time>2026-04-04T19:39:20.284Z</time></trkpt><trkpt lat="34.5295767" lon="10.0888783"><ele>61.0</ele><time>2026-04-04T19:39:21.284Z</time></trkpt><trkpt lat="34.5294833" lon="10.0886517"><ele>60.666666666666664</ele><time>2026-04-04T19:39:22.281Z</time></trkpt><trkpt lat="34.5293883" lon="10.0884267"><ele>60.33333333333333</ele><time>2026-04-04T19:39:23.285Z</time></trkpt><trkpt lat="34.52929" lon="10.0882033"><ele>60.0</ele><time>2026-04-04T19:39:24.285Z</time></trkpt><trkpt lat="34.52919" lon="10.0879833"><ele>60.66666666666667</ele><time>2026-04-04T19:39:25.286Z</time></trkpt><trkpt lat="34.52909" lon="10.087765"><ele>61.333333333333336</ele><time>2026-04-04T19:39:26.284Z</time></trkpt><trkpt lat="34.5289883" lon="10.0875483"><ele>62.0</ele><time>2026-04-04T19:39:27.284Z</time></trkpt><trkpt lat="34.5288833" lon="10.087335"><ele>62.0</ele><time>2026-04-04T19:39:28.286Z</time></trkpt><trkpt lat="34.5287767" lon="10.087125"><ele>62.0</ele><time>2026-04-04T19:39:29.283Z</time></trkpt><trkpt lat="34.5286667" lon="10.0869167"><ele>62.0</ele><time>2026-04-04T19:39:30.285Z</time></trkpt><trkpt lat="34.5285583" lon="10.0867083"><ele>62.0</ele><time>2026-04-04T19:39:31.286Z</time></trkpt><trkpt lat="34.5284467" lon="10.0865017"><ele>62.0</ele><time>2026-04-04T19:39:32.285Z</time></trkpt><trkpt lat="34.5283317" lon="10.0862967"><ele>62.0</ele><time>2026-04-04T19:39:33.282Z</time></trkpt><trkpt lat="34.5282133" lon="10.0860883"><ele>62.0</ele><time>2026-04-04T19:39:34.282Z</time></trkpt><trkpt lat="34.5280933" lon="10.08588"><ele>62.0</ele><time>2026-04-04T19:39:35.282Z</time></trkpt><trkpt lat="34.5279717" lon="10.0856717"><ele>62.0</ele><time>2026-04-04T19:39:36.283Z</time></trkpt><trkpt lat="34.5278433" lon="10.0854667"><ele>62.333333333333336</ele><time>2026-04-04T19:39:37.283Z</time></trkpt><trkpt lat="34.5277117" lon="10.0852667"><ele>62.66666666666667</ele><time>2026-04-04T19:39:38.281Z</time></trkpt><trkpt lat="34.5275817" lon="10.0850683"><ele>63.0</ele><time>2026-04-04T19:39:39.283Z</time></trkpt><trkpt lat="34.52745" lon="10.0848733"><ele>63.0</ele><time>2026-04-04T19:39:40.284Z</time></trkpt><trkpt lat="34.5273167" lon="10.0846817"><ele>63.0</ele><time>2026-04-04T19:39:41.286Z</time></trkpt><trkpt lat="34.5271817" lon="10.0844917"><ele>63.0</ele><time>2026-04-04T19:39:42.286Z</time></trkpt><trkpt lat="34.527045" lon="10.084305"><ele>62.33333333333333</ele><time>2026-04-04T19:39:43.285Z</time></trkpt><trkpt lat="34.5269067" lon="10.08412"><ele>61.666666666666664</ele><time>2026-04-04T19:39:44.285Z</time></trkpt><trkpt lat="34.5267683" lon="10.0839367"><ele>61.0</ele><time>2026-04-04T19:39:45.284Z</time></trkpt><trkpt lat="34.5266267" lon="10.083755"><ele>61.0</ele><time>2026-04-04T19:39:46.284Z</time></trkpt><trkpt lat="34.5264833" lon="10.0835733"><ele>61.0</ele><time>2026-04-04T19:39:47.287Z</time></trkpt><trkpt lat="34.5263383" lon="10.0833967"><ele>61.0</ele><time>2026-04-04T19:39:48.285Z</time></trkpt><trkpt lat="34.52619" lon="10.08322"><ele>60.666666666666664</ele><time>2026-04-04T19:39:49.285Z</time></trkpt><trkpt lat="34.5260383" lon="10.0830483"><ele>60.33333333333333</ele><time>2026-04-04T19:39:50.286Z</time></trkpt><trkpt lat="34.5258867" lon="10.0828767"><ele>60.0</ele><time>2026-04-04T19:39:51.283Z</time></trkpt><trkpt lat="34.5257317" lon="10.082705"><ele>60.0</ele><time>2026-04-04T19:39:52.283Z</time></trkpt><trkpt lat="34.5255767" lon="10.0825367"><ele>60.0</ele><time>2026-04-04T19:39:53.286Z</time></trkpt><trkpt lat="34.5254167" lon="10.0823667"><ele>60.0</ele><time>2026-04-04T19:39:54.285Z</time></trkpt><trkpt lat="34.5252583" lon="10.0821967"><ele>59.0</ele><time>2026-04-04T19:39:55.282Z</time></trkpt><trkpt lat="34.5251" lon="10.0820317"><ele>58.0</ele><time>2026-04-04T19:39:56.281Z</time></trkpt><trkpt lat="34.5249383" lon="10.0818683"><ele>57.0</ele><time>2026-04-04T19:39:57.285Z</time></trkpt><trkpt lat="34.5247717" lon="10.0817083"><ele>56.66666666666667</ele><time>2026-04-04T19:39:58.286Z</time></trkpt><trkpt lat="34.5246" lon="10.0815517"><ele>56.333333333333336</ele><time>2026-04-04T19:39:59.285Z</time></trkpt><trkpt lat="34.5244317" lon="10.0813967"><ele>56.0</ele><time>2026-04-04T19:40:00.286Z</time></trkpt><trkpt lat="34.5242617" lon="10.0812433"><ele>55.333333333333336</ele><time>2026-04-04T19:40:01.286Z</time></trkpt><trkpt lat="34.5240867" lon="10.0810933"><ele>54.66666666666667</ele><time>2026-04-04T19:40:02.285Z</time></trkpt><trkpt lat="34.52391" lon="10.0809483"><ele>54.0</ele><time>2026-04-04T19:40:03.282Z</time></trkpt><trkpt lat="34.5237317" lon="10.0808067"><ele>54.0</ele><time>2026-04-04T19:40:04.283Z</time></trkpt><trkpt lat="34.523555" lon="10.0806683"><ele>54.0</ele><time>2026-04-04T19:40:05.283Z</time></trkpt><trkpt lat="34.5233817" lon="10.08053"><ele>54.0</ele><time>2026-04-04T19:40:06.282Z</time></trkpt><trkpt lat="34.5232067" lon="10.0803967"><ele>54.0</ele><time>2026-04-04T19:40:07.283Z</time></trkpt><trkpt lat="34.5230283" lon="10.08027"><ele>54.0</ele><time>2026-04-04T19:40:08.282Z</time></trkpt><trkpt lat="34.5228483" lon="10.080145"><ele>54.0</ele><time>2026-04-04T19:40:09.283Z</time></trkpt><trkpt lat="34.52267" lon="10.0800217"><ele>53.0</ele><time>2026-04-04T19:40:10.286Z</time></trkpt><trkpt lat="34.5224933" lon="10.0798983"><ele>52.0</ele><time>2026-04-04T19:40:11.285Z</time></trkpt><trkpt lat="34.522315" lon="10.0797783"><ele>51.0</ele><time>2026-04-04T19:40:12.287Z</time></trkpt><trkpt lat="34.522135" lon="10.0796617"><ele>51.0</ele><time>2026-04-04T19:40:13.285Z</time></trkpt><trkpt lat="34.5219517" lon="10.0795483"><ele>51.0</ele><time>2026-04-04T19:40:14.283Z</time></trkpt><trkpt lat="34.52177" lon="10.0794367"><ele>51.0</ele><time>2026-04-04T19:40:15.284Z</time></trkpt><trkpt lat="34.5215867" lon="10.079325"><ele>51.0</ele><time>2026-04-04T19:40:16.283Z</time></trkpt><trkpt lat="34.5214017" lon="10.0792183"><ele>51.0</ele><time>2026-04-04T19:40:17.282Z</time></trkpt><trkpt lat="34.5212133" lon="10.0791167"><ele>51.0</ele><time>2026-04-04T19:40:18.283Z</time></trkpt><trkpt lat="34.5210233" lon="10.0790167"><ele>50.66666666666667</ele><time>2026-04-04T19:40:19.282Z</time></trkpt><trkpt lat="34.5208317" lon="10.0789167"><ele>50.333333333333336</ele><time>2026-04-04T19:40:20.284Z</time></trkpt><trkpt lat="34.52064" lon="10.0788233"><ele>50.0</ele><time>2026-04-04T19:40:21.283Z</time></trkpt><trkpt lat="34.5204433" lon="10.07873"><ele>48.66666666666667</ele><time>2026-04-04T19:40:22.283Z</time></trkpt><trkpt lat="34.5202467" lon="10.0786383"><ele>47.333333333333336</ele><time>2026-04-04T19:40:23.283Z</time></trkpt><trkpt lat="34.5200483" lon="10.0785483"><ele>46.0</ele><time>2026-04-04T19:40:24.284Z</time></trkpt><trkpt lat="34.5198483" lon="10.07846"><ele>46.0</ele><time>2026-04-04T19:40:25.282Z</time></trkpt><trkpt lat="34.5196467" lon="10.0783783"><ele>46.0</ele><time>2026-04-04T19:40:26.284Z</time></trkpt><trkpt lat="34.5194433" lon="10.0782967"><ele>46.0</ele><time>2026-04-04T19:40:27.285Z</time></trkpt><trkpt lat="34.51924" lon="10.0782183"><ele>44.333333333333336</ele><time>2026-04-04T19:40:28.286Z</time></trkpt><trkpt lat="34.519035" lon="10.0781417"><ele>42.666666666666664</ele><time>2026-04-04T19:40:29.285Z</time></trkpt><trkpt lat="34.51883" lon="10.07807"><ele>41.0</ele><time>2026-04-04T19:40:30.285Z</time></trkpt><trkpt lat="34.5186233" lon="10.0780017"><ele>40.666666666666664</ele><time>2026-04-04T19:40:31.288Z</time></trkpt><trkpt lat="34.518415" lon="10.0779383"><ele>40.333333333333336</ele><time>2026-04-04T19:40:32.285Z</time></trkpt><trkpt lat="34.518205" lon="10.0778767"><ele>40.0</ele><time>2026-04-04T19:40:33.286Z</time></trkpt><trkpt lat="34.517995" lon="10.0778183"><ele>40.66666666666667</ele><time>2026-04-04T19:40:34.285Z</time></trkpt><trkpt lat="34.5177883" lon="10.077765"><ele>41.333333333333336</ele><time>2026-04-04T19:40:35.285Z</time></trkpt><trkpt lat="34.517585" lon="10.0777117"><ele>42.0</ele><time>2026-04-04T19:40:36.285Z</time></trkpt><trkpt lat="34.517385" lon="10.07766"><ele>42.0</ele><time>2026-04-04T19:40:37.285Z</time></trkpt><trkpt lat="34.5171867" lon="10.0776117"><ele>42.0</ele><time>2026-04-04T19:40:38.285Z</time></trkpt><trkpt lat="34.5169883" lon="10.07757"><ele>42.0</ele><time>2026-04-04T19:40:39.285Z</time></trkpt><trkpt lat="34.5167883" lon="10.07753"><ele>43.666666666666664</ele><time>2026-04-04T19:40:40.285Z</time></trkpt><trkpt lat="34.5165883" lon="10.0774917"><ele>45.33333333333333</ele><time>2026-04-04T19:40:41.285Z</time></trkpt><trkpt lat="34.51639" lon="10.0774517"><ele>47.0</ele><time>2026-04-04T19:40:42.286Z</time></trkpt><trkpt lat="34.5161867" lon="10.077415"><ele>47.666666666666664</ele><time>2026-04-04T19:40:43.285Z</time></trkpt><trkpt lat="34.5159817" lon="10.077385"><ele>48.33333333333333</ele><time>2026-04-04T19:40:44.283Z</time></trkpt><trkpt lat="34.5157767" lon="10.0773533"><ele>49.0</ele><time>2026-04-04T19:40:45.282Z</time></trkpt><trkpt lat="34.5155717" lon="10.0773183"><ele>49.666666666666664</ele><time>2026-04-04T19:40:46.283Z</time></trkpt><trkpt lat="34.515365" lon="10.0772833"><ele>50.33333333333333</ele><time>2026-04-04T19:40:47.284Z</time></trkpt><trkpt lat="34.5151583" lon="10.0772517"><ele>51.0</ele><time>2026-04-04T19:40:48.282Z</time></trkpt><trkpt lat="34.51495" lon="10.0772217"><ele>51.0</ele><time>2026-04-04T19:40:49.283Z</time></trkpt><trkpt lat="34.5147433" lon="10.0771917"><ele>51.0</ele><time>2026-04-04T19:40:50.283Z</time></trkpt><trkpt lat="34.5145367" lon="10.0771617"><ele>51.0</ele><time>2026-04-04T19:40:51.284Z</time></trkpt><trkpt lat="34.51433" lon="10.07713"><ele>51.33333333333333</ele><time>2026-04-04T19:40:52.283Z</time></trkpt><trkpt lat="34.5141217" lon="10.0771"><ele>51.666666666666664</ele><time>2026-04-04T19:40:53.282Z</time></trkpt><trkpt lat="34.5139133" lon="10.07707"><ele>52.0</ele><time>2026-04-04T19:40:54.284Z</time></trkpt><trkpt lat="34.5137067" lon="10.07704"><ele>53.0</ele><time>2026-04-04T19:40:55.283Z</time></trkpt><trkpt lat="34.5135" lon="10.07701"><ele>54.0</ele><time>2026-04-04T19:40:56.282Z</time></trkpt><trkpt lat="34.5132967" lon="10.0769783"><ele>55.0</ele><time>2026-04-04T19:40:57.285Z</time></trkpt><trkpt lat="34.5130917" lon="10.07695"><ele>55.33333333333333</ele><time>2026-04-04T19:40:58.286Z</time></trkpt><trkpt lat="34.5128883" lon="10.0769217"><ele>55.66666666666667</ele><time>2026-04-04T19:40:59.286Z</time></trkpt><trkpt lat="34.512685" lon="10.0768917"><ele>56.0</ele><time>2026-04-04T19:41:00.285Z</time></trkpt><trkpt lat="34.5124817" lon="10.0768633"><ele>56.0</ele><time>2026-04-04T19:41:01.286Z</time></trkpt><trkpt lat="34.5122783" lon="10.076835"><ele>56.0</ele><time>2026-04-04T19:41:02.285Z</time></trkpt><trkpt lat="34.5120733" lon="10.076805"><ele>56.0</ele><time>2026-04-04T19:41:03.286Z</time></trkpt><trkpt lat="34.511865" lon="10.076775"><ele>56.66666666666667</ele><time>2026-04-04T19:41:04.285Z</time></trkpt><trkpt lat="34.51165" lon="10.0767433"><ele>57.33333333333333</ele><time>2026-04-04T19:41:05.286Z</time></trkpt><trkpt lat="34.5114333" lon="10.0767083"><ele>58.0</ele><time>2026-04-04T19:41:06.285Z</time></trkpt><trkpt lat="34.5112167" lon="10.0766767"><ele>58.0</ele><time>2026-04-04T19:41:07.285Z</time></trkpt><trkpt lat="34.5109983" lon="10.0766467"><ele>58.0</ele><time>2026-04-04T19:41:08.285Z</time></trkpt><trkpt lat="34.5107817" lon="10.0766167"><ele>58.0</ele><time>2026-04-04T19:41:09.285Z</time></trkpt><trkpt lat="34.5105633" lon="10.0765833"><ele>58.0</ele><time>2026-04-04T19:41:10.285Z</time></trkpt><trkpt lat="34.5103483" lon="10.0765467"><ele>58.0</ele><time>2026-04-04T19:41:11.285Z</time></trkpt><trkpt lat="34.510135" lon="10.0765133"><ele>58.0</ele><time>2026-04-04T19:41:12.285Z</time></trkpt><trkpt lat="34.509925" lon="10.0764833"><ele>58.0</ele><time>2026-04-04T19:41:13.285Z</time></trkpt><trkpt lat="34.5097233" lon="10.0764533"><ele>58.0</ele><time>2026-04-04T19:41:14.284Z</time></trkpt><trkpt lat="34.50953" lon="10.076425"><ele>58.0</ele><time>2026-04-04T19:41:15.283Z</time></trkpt><trkpt lat="34.5093367" lon="10.0764"><ele>58.33333333333333</ele><time>2026-04-04T19:41:16.283Z</time></trkpt><trkpt lat="34.5091433" lon="10.076375"><ele>58.66666666666667</ele><time>2026-04-04T19:41:17.283Z</time></trkpt><trkpt lat="34.5089517" lon="10.076345"><ele>59.0</ele><time>2026-04-04T19:41:18.283Z</time></trkpt><trkpt lat="34.50876" lon="10.0763117"><ele>59.333333333333336</ele><time>2026-04-04T19:41:19.284Z</time></trkpt><trkpt lat="34.508565" lon="10.07628"><ele>59.66666666666667</ele><time>2026-04-04T19:41:20.283Z</time></trkpt><trkpt lat="34.50837" lon="10.0762517"><ele>60.0</ele><time>2026-04-04T19:41:21.284Z</time></trkpt><trkpt lat="34.5081733" lon="10.0762233"><ele>60.0</ele><time>2026-04-04T19:41:22.284Z</time></trkpt><trkpt lat="34.5079783" lon="10.076195"><ele>60.0</ele><time>2026-04-04T19:41:23.285Z</time></trkpt><trkpt lat="34.5077817" lon="10.0761667"><ele>60.0</ele><time>2026-04-04T19:41:24.286Z</time></trkpt><trkpt lat="34.507585" lon="10.0761383"><ele>61.66666666666667</ele><time>2026-04-04T19:41:25.286Z</time></trkpt><trkpt lat="34.50739" lon="10.07611"><ele>63.333333333333336</ele><time>2026-04-04T19:41:26.285Z</time></trkpt><trkpt lat="34.5071933" lon="10.07608"><ele>65.0</ele><time>2026-04-04T19:41:27.285Z</time></trkpt><trkpt lat="34.5069967" lon="10.07605"><ele>65.33333333333334</ele><time>2026-04-04T19:41:28.286Z</time></trkpt><trkpt lat="34.5068" lon="10.07602"><ele>65.66666666666667</ele><time>2026-04-04T19:41:29.288Z</time></trkpt><trkpt lat="34.5066" lon="10.0759883"><ele>66.0</ele><time>2026-04-04T19:41:30.286Z</time></trkpt><trkpt lat="34.5063967" lon="10.0759583"><ele>66.33333333333333</ele><time>2026-04-04T19:41:31.286Z</time></trkpt><trkpt lat="34.506195" lon="10.0759317"><ele>66.66666666666666</ele><time>2026-04-04T19:41:32.285Z</time></trkpt><trkpt lat="34.505995" lon="10.075905"><ele>67.0</ele><time>2026-04-04T19:41:33.285Z</time></trkpt><trkpt lat="34.5057917" lon="10.0758767"><ele>67.0</ele><time>2026-04-04T19:41:34.286Z</time></trkpt><trkpt lat="34.50559" lon="10.0758467"><ele>67.0</ele><time>2026-04-04T19:41:35.285Z</time></trkpt><trkpt lat="34.5053867" lon="10.0758167"><ele>67.0</ele><time>2026-04-04T19:41:36.286Z</time></trkpt><trkpt lat="34.5051817" lon="10.0757817"><ele>68.0</ele><time>2026-04-04T19:41:37.285Z</time></trkpt><trkpt lat="34.5049783" lon="10.07575"><ele>69.0</ele><time>2026-04-04T19:41:38.285Z</time></trkpt><trkpt lat="34.5047717" lon="10.0757183"><ele>70.0</ele><time>2026-04-04T19:41:39.285Z</time></trkpt><trkpt lat="34.5045667" lon="10.0756883"><ele>70.33333333333333</ele><time>2026-04-04T19:41:40.286Z</time></trkpt><trkpt lat="34.50436" lon="10.0756583"><ele>70.66666666666667</ele><time>2026-04-04T19:41:41.287Z</time></trkpt><trkpt lat="34.5041483" lon="10.0756233"><ele>71.0</ele><time>2026-04-04T19:41:42.285Z</time></trkpt><trkpt lat="34.503935" lon="10.0755917"><ele>71.33333333333334</ele><time>2026-04-04T19:41:43.284Z</time></trkpt><trkpt lat="34.5037233" lon="10.07556"><ele>71.66666666666667</ele><time>2026-04-04T19:41:44.284Z</time></trkpt><trkpt lat="34.5035083" lon="10.0755267"><ele>72.0</ele><time>2026-04-04T19:41:45.286Z</time></trkpt><trkpt lat="34.503295" lon="10.0754983"><ele>72.0</ele><time>2026-04-04T19:41:46.284Z</time></trkpt><trkpt lat="34.5030833" lon="10.0754633"><ele>72.0</ele><time>2026-04-04T19:41:47.284Z</time></trkpt><trkpt lat="34.5028717" lon="10.0754317"><ele>72.0</ele><time>2026-04-04T19:41:48.286Z</time></trkpt><trkpt lat="34.5026583" lon="10.0754"><ele>73.0</ele><time>2026-04-04T19:41:49.285Z</time></trkpt><trkpt lat="34.5024433" lon="10.07537"><ele>74.0</ele><time>2026-04-04T19:41:50.284Z</time></trkpt><trkpt lat="34.50223" lon="10.0753383"><ele>75.0</ele><time>2026-04-04T19:41:51.284Z</time></trkpt><trkpt lat="34.5020167" lon="10.0753067"><ele>75.33333333333333</ele><time>2026-04-04T19:41:52.284Z</time></trkpt><trkpt lat="34.5018" lon="10.0752733"><ele>75.66666666666666</ele><time>2026-04-04T19:41:53.284Z</time></trkpt><trkpt lat="34.5015867" lon="10.0752433"><ele>76.0</ele><time>2026-04-04T19:41:54.284Z</time></trkpt><trkpt lat="34.5013733" lon="10.07521"><ele>76.66666666666666</ele><time>2026-04-04T19:41:55.284Z</time></trkpt><trkpt lat="34.50116" lon="10.07518"><ele>77.33333333333333</ele><time>2026-04-04T19:41:56.285Z</time></trkpt><trkpt lat="34.500945" lon="10.0751467"><ele>78.0</ele><time>2026-04-04T19:41:57.285Z</time></trkpt><trkpt lat="34.50073" lon="10.0751167"><ele>78.0</ele><time>2026-04-04T19:41:58.284Z</time></trkpt><trkpt lat="34.5005133" lon="10.0750867"><ele>78.0</ele><time>2026-04-04T19:41:59.284Z</time></trkpt><trkpt lat="34.5002967" lon="10.0750583"><ele>78.0</ele><time>2026-04-04T19:42:00.285Z</time></trkpt><trkpt lat="34.50008" lon="10.0750283"><ele>78.33333333333333</ele><time>2026-04-04T19:42:01.285Z</time></trkpt><trkpt lat="34.4998633" lon="10.0749983"><ele>78.66666666666666</ele><time>2026-04-04T19:42:02.285Z</time></trkpt><trkpt lat="34.4996483" lon="10.07497"><ele>79.0</ele><time>2026-04-04T19:42:03.284Z</time></trkpt><trkpt lat="34.4994333" lon="10.07494"><ele>79.0</ele><time>2026-04-04T19:42:04.285Z</time></trkpt><trkpt lat="34.4992233" lon="10.07491"><ele>79.0</ele><time>2026-04-04T19:42:05.284Z</time></trkpt><trkpt lat="34.4990133" lon="10.0748783"><ele>79.0</ele><time>2026-04-04T19:42:06.284Z</time></trkpt><trkpt lat="34.498805" lon="10.074845"><ele>78.66666666666666</ele><time>2026-04-04T19:42:07.286Z</time></trkpt><trkpt lat="34.498595" lon="10.0748133"><ele>78.33333333333333</ele><time>2026-04-04T19:42:08.284Z</time></trkpt><trkpt lat="34.4983817" lon="10.0747817"><ele>78.0</ele><time>2026-04-04T19:42:09.286Z</time></trkpt><trkpt lat="34.4981683" lon="10.0747483"><ele>78.0</ele><time>2026-04-04T19:42:10.285Z</time></trkpt><trkpt lat="34.4979533" lon="10.0747117"><ele>78.0</ele><time>2026-04-04T19:42:11.284Z</time></trkpt><trkpt lat="34.497735" lon="10.07468"><ele>78.0</ele><time>2026-04-04T19:42:12.285Z</time></trkpt><trkpt lat="34.4975133" lon="10.0746467"><ele>78.33333333333333</ele><time>2026-04-04T19:42:13.285Z</time></trkpt><trkpt lat="34.4972917" lon="10.0746133"><ele>78.66666666666666</ele><time>2026-04-04T19:42:14.285Z</time></trkpt><trkpt lat="34.4970683" lon="10.0745817"><ele>79.0</ele><time>2026-04-04T19:42:15.284Z</time></trkpt><trkpt lat="34.4968433" lon="10.07455"><ele>79.0</ele><time>2026-04-04T19:42:16.286Z</time></trkpt><trkpt lat="34.4966217" lon="10.07452"><ele>79.0</ele><time>2026-04-04T19:42:17.284Z</time></trkpt><trkpt lat="34.4963983" lon="10.07449"><ele>79.0</ele><time>2026-04-04T19:42:18.285Z</time></trkpt><trkpt lat="34.4961783" lon="10.0744567"><ele>78.66666666666666</ele><time>2026-04-04T19:42:19.285Z</time></trkpt><trkpt lat="34.4959583" lon="10.0744233"><ele>78.33333333333333</ele><time>2026-04-04T19:42:20.284Z</time></trkpt><trkpt lat="34.4957417" lon="10.07439"><ele>78.0</ele><time>2026-04-04T19:42:21.284Z</time></trkpt><trkpt lat="34.495525" lon="10.07436"><ele>78.33333333333333</ele><time>2026-04-04T19:42:22.284Z</time></trkpt><trkpt lat="34.4953117" lon="10.0743283"><ele>78.66666666666666</ele><time>2026-04-04T19:42:23.285Z</time></trkpt><trkpt lat="34.4950967" lon="10.0742967"><ele>79.0</ele><time>2026-04-04T19:42:24.285Z</time></trkpt><trkpt lat="34.49488" lon="10.074265"><ele>79.0</ele><time>2026-04-04T19:42:25.284Z</time></trkpt><trkpt lat="34.4946567" lon="10.0742333"><ele>79.0</ele><time>2026-04-04T19:42:26.285Z</time></trkpt><trkpt lat="34.4944333" lon="10.0742"><ele>77.5</ele><time>2026-04-04T19:42:27.285Z</time></trkpt><trkpt lat="34.4942083" lon="10.0741683"><ele>76.0</ele><time>2026-04-04T19:42:28.285Z</time></trkpt><trkpt lat="34.4939833" lon="10.0741333"><ele>76.66666666666666</ele><time>2026-04-04T19:42:29.286Z</time></trkpt><trkpt lat="34.4937667" lon="10.0741033"><ele>77.33333333333333</ele><time>2026-04-04T19:42:30.285Z</time></trkpt><trkpt lat="34.4935567" lon="10.0740717"><ele>78.0</ele><time>2026-04-04T19:42:31.285Z</time></trkpt><trkpt lat="34.4933483" lon="10.0740417"><ele>78.0</ele><time>2026-04-04T19:42:32.284Z</time></trkpt><trkpt lat="34.4931383" lon="10.0740133"><ele>78.0</ele><time>2026-04-04T19:42:33.285Z</time></trkpt><trkpt lat="34.4929283" lon="10.0739833"><ele>78.0</ele><time>2026-04-04T19:42:34.286Z</time></trkpt><trkpt lat="34.4927167" lon="10.0739533"><ele>77.33333333333333</ele><time>2026-04-04T19:42:35.285Z</time></trkpt><trkpt lat="34.4925067" lon="10.073925"><ele>76.66666666666666</ele><time>2026-04-04T19:42:36.285Z</time></trkpt><trkpt lat="34.492295" lon="10.073895"><ele>76.0</ele><time>2026-04-04T19:42:37.286Z</time></trkpt><trkpt lat="34.4920817" lon="10.07386"><ele>75.0</ele><time>2026-04-04T19:42:38.285Z</time></trkpt><trkpt lat="34.49187" lon="10.0738283"><ele>74.0</ele><time>2026-04-04T19:42:39.285Z</time></trkpt><trkpt lat="34.4916567" lon="10.0737967"><ele>73.0</ele><time>2026-04-04T19:42:40.285Z</time></trkpt><trkpt lat="34.4914417" lon="10.0737683"><ele>72.0</ele><time>2026-04-04T19:42:41.285Z</time></trkpt><trkpt lat="34.4912267" lon="10.0737367"><ele>71.0</ele><time>2026-04-04T19:42:42.286Z</time></trkpt><trkpt lat="34.4910133" lon="10.0737017"><ele>70.0</ele><time>2026-04-04T19:42:43.285Z</time></trkpt><trkpt lat="34.490805" lon="10.0736717"><ele>70.0</ele><time>2026-04-04T19:42:44.282Z</time></trkpt><trkpt lat="34.49061" lon="10.0736417"><ele>70.0</ele><time>2026-04-04T19:42:45.282Z</time></trkpt><trkpt lat="34.4904217" lon="10.0736117"><ele>70.0</ele><time>2026-04-04T19:42:46.282Z</time></trkpt><trkpt lat="34.49024" lon="10.073585"><ele>69.33333333333333</ele><time>2026-04-04T19:42:47.282Z</time></trkpt><trkpt lat="34.4900633" lon="10.0735583"><ele>68.66666666666667</ele><time>2026-04-04T19:42:48.282Z</time></trkpt><trkpt lat="34.4898883" lon="10.0735317"><ele>68.0</ele><time>2026-04-04T19:42:49.282Z</time></trkpt><trkpt lat="34.489715" lon="10.0735067"><ele>67.66666666666667</ele><time>2026-04-04T19:42:50.282Z</time></trkpt><trkpt lat="34.4895433" lon="10.0734783"><ele>67.33333333333333</ele><time>2026-04-04T19:42:51.282Z</time></trkpt><trkpt lat="34.4893783" lon="10.073455"><ele>67.0</ele><time>2026-04-04T19:42:52.283Z</time></trkpt><trkpt lat="34.4892117" lon="10.0734317"><ele>67.0</ele><time>2026-04-04T19:42:53.282Z</time></trkpt><trkpt lat="34.4890433" lon="10.0734067"><ele>67.0</ele><time>2026-04-04T19:42:54.283Z</time></trkpt><trkpt lat="34.4888717" lon="10.0733817"><ele>67.0</ele><time>2026-04-04T19:42:55.284Z</time></trkpt><trkpt lat="34.4886983" lon="10.0733567"><ele>66.33333333333333</ele><time>2026-04-04T19:42:56.283Z</time></trkpt><trkpt lat="34.488525" lon="10.0733333"><ele>65.66666666666667</ele><time>2026-04-04T19:42:57.282Z</time></trkpt><trkpt lat="34.48835" lon="10.0733083"><ele>65.0</ele><time>2026-04-04T19:42:58.284Z</time></trkpt><trkpt lat="34.48817" lon="10.073285"><ele>64.66666666666667</ele><time>2026-04-04T19:42:59.283Z</time></trkpt><trkpt lat="34.4879917" lon="10.073255"><ele>64.33333333333333</ele><time>2026-04-04T19:43:00.283Z</time></trkpt><trkpt lat="34.4878133" lon="10.0732283"><ele>64.0</ele><time>2026-04-04T19:43:01.285Z</time></trkpt><trkpt lat="34.4876317" lon="10.073205"><ele>62.33333333333333</ele><time>2026-04-04T19:43:02.285Z</time></trkpt><trkpt lat="34.48745" lon="10.0731783"><ele>60.66666666666667</ele><time>2026-04-04T19:43:03.285Z</time></trkpt><trkpt lat="34.4872683" lon="10.0731517"><ele>59.0</ele><time>2026-04-04T19:43:04.285Z</time></trkpt><trkpt lat="34.4870783" lon="10.0731217"><ele>58.66666666666667</ele><time>2026-04-04T19:43:05.286Z</time></trkpt><trkpt lat="34.486885" lon="10.0730933"><ele>58.33333333333333</ele><time>2026-04-04T19:43:06.286Z</time></trkpt><trkpt lat="34.486685" lon="10.07306"><ele>58.0</ele><time>2026-04-04T19:43:07.285Z</time></trkpt><trkpt lat="34.486485" lon="10.0730283"><ele>58.0</ele><time>2026-04-04T19:43:08.285Z</time></trkpt><trkpt lat="34.4862833" lon="10.073"><ele>58.0</ele><time>2026-04-04T19:43:09.285Z</time></trkpt><trkpt lat="34.486085" lon="10.07297"><ele>58.0</ele><time>2026-04-04T19:43:10.282Z</time></trkpt><trkpt lat="34.4858817" lon="10.07294"><ele>58.0</ele><time>2026-04-04T19:43:11.282Z</time></trkpt><trkpt lat="34.485675" lon="10.0729067"><ele>58.0</ele><time>2026-04-04T19:43:12.285Z</time></trkpt><trkpt lat="34.4854617" lon="10.0728767"><ele>58.0</ele><time>2026-04-04T19:43:13.286Z</time></trkpt><trkpt lat="34.4852367" lon="10.0728467"><ele>57.5</ele><time>2026-04-04T19:43:14.281Z</time></trkpt><trkpt lat="34.4850067" lon="10.0728183"><ele>57.0</ele><time>2026-04-04T19:43:15.286Z</time></trkpt><trkpt lat="34.4847783" lon="10.0727917"><ele>58.5</ele><time>2026-04-04T19:43:16.285Z</time></trkpt><trkpt lat="34.4845517" lon="10.0727633"><ele>60.0</ele><time>2026-04-04T19:43:17.287Z</time></trkpt><trkpt lat="34.4843267" lon="10.0727333"><ele>60.0</ele><time>2026-04-04T19:43:18.282Z</time></trkpt><trkpt lat="34.4840967" lon="10.0727033"><ele>60.0</ele><time>2026-04-04T19:43:19.286Z</time></trkpt><trkpt lat="34.483865" lon="10.07267"><ele>62.0</ele><time>2026-04-04T19:43:20.286Z</time></trkpt><trkpt lat="34.4836283" lon="10.072635"><ele>64.0</ele><time>2026-04-04T19:43:21.285Z</time></trkpt><trkpt lat="34.4833917" lon="10.0725967"><ele>64.0</ele><time>2026-04-04T19:43:22.285Z</time></trkpt><trkpt lat="34.4831567" lon="10.0725583"><ele>64.0</ele><time>2026-04-04T19:43:23.288Z</time></trkpt><trkpt lat="34.4829217" lon="10.0725217"><ele>63.0</ele><time>2026-04-04T19:43:24.285Z</time></trkpt><trkpt lat="34.4826867" lon="10.0724883"><ele>62.0</ele><time>2026-04-04T19:43:25.285Z</time></trkpt><trkpt lat="34.4824517" lon="10.0724583"><ele>63.0</ele><time>2026-04-04T19:43:26.285Z</time></trkpt><trkpt lat="34.4822167" lon="10.0724267"><ele>64.0</ele><time>2026-04-04T19:43:27.285Z</time></trkpt><trkpt lat="34.4819767" lon="10.0723933"><ele>64.0</ele><time>2026-04-04T19:43:28.285Z</time></trkpt><trkpt lat="34.481735" lon="10.0723567"><ele>64.0</ele><time>2026-04-04T19:43:29.285Z</time></trkpt><trkpt lat="34.4814883" lon="10.072325"><ele>62.0</ele><time>2026-04-04T19:43:30.286Z</time></trkpt><trkpt lat="34.4812417" lon="10.0722933"><ele>60.0</ele><time>2026-04-04T19:43:31.285Z</time></trkpt><trkpt lat="34.4809883" lon="10.07226"><ele>60.0</ele><time>2026-04-04T19:43:32.285Z</time></trkpt><trkpt lat="34.4807283" lon="10.0722233"><ele>60.0</ele><time>2026-04-04T19:43:33.286Z</time></trkpt><trkpt lat="34.4804683" lon="10.0721867"><ele>58.0</ele><time>2026-04-04T19:43:34.285Z</time></trkpt><trkpt lat="34.480205" lon="10.072145"><ele>56.0</ele><time>2026-04-04T19:43:35.282Z</time></trkpt><trkpt lat="34.4799433" lon="10.0721067"><ele>56.0</ele><time>2026-04-04T19:43:36.286Z</time></trkpt><trkpt lat="34.4796867" lon="10.0720717"><ele>56.0</ele><time>2026-04-04T19:43:37.285Z</time></trkpt><trkpt lat="34.4794317" lon="10.072035"><ele>55.5</ele><time>2026-04-04T19:43:38.286Z</time></trkpt><trkpt lat="34.4791817" lon="10.0719983"><ele>55.0</ele><time>2026-04-04T19:43:39.285Z</time></trkpt><trkpt lat="34.4789333" lon="10.07196"><ele>55.0</ele><time>2026-04-04T19:43:40.285Z</time></trkpt><trkpt lat="34.478685" lon="10.0719217"><ele>55.0</ele><time>2026-04-04T19:43:41.286Z</time></trkpt><trkpt lat="34.47844" lon="10.0718833"><ele>55.0</ele><time>2026-04-04T19:43:42.285Z</time></trkpt><trkpt lat="34.478195" lon="10.0718467"><ele>55.0</ele><time>2026-04-04T19:43:43.285Z</time></trkpt><trkpt lat="34.4779517" lon="10.0718083"><ele>54.0</ele><time>2026-04-04T19:43:44.285Z</time></trkpt><trkpt lat="34.47771" lon="10.07177"><ele>53.0</ele><time>2026-04-04T19:43:45.286Z</time></trkpt><trkpt lat="34.4774667" lon="10.071735"><ele>53.0</ele><time>2026-04-04T19:43:46.286Z</time></trkpt><trkpt lat="34.47722" lon="10.0717"><ele>53.0</ele><time>2026-04-04T19:43:47.286Z</time></trkpt><trkpt lat="34.4769717" lon="10.0716633"><ele>52.5</ele><time>2026-04-04T19:43:48.285Z</time></trkpt><trkpt lat="34.476715" lon="10.0716267"><ele>52.0</ele><time>2026-04-04T19:43:49.285Z</time></trkpt><trkpt lat="34.4764483" lon="10.07159"><ele>53.0</ele><time>2026-04-04T19:43:50.285Z</time></trkpt><trkpt lat="34.476175" lon="10.0715533"><ele>54.0</ele><time>2026-04-04T19:43:51.286Z</time></trkpt><trkpt lat="34.4759" lon="10.0715133"><ele>54.0</ele><time>2026-04-04T19:43:52.285Z</time></trkpt><trkpt lat="34.475625" lon="10.0714717"><ele>54.0</ele><time>2026-04-04T19:43:53.286Z</time></trkpt><trkpt lat="34.475355" lon="10.0714317"><ele>52.5</ele><time>2026-04-04T19:43:54.286Z</time></trkpt><trkpt lat="34.475085" lon="10.071395"><ele>51.0</ele><time>2026-04-04T19:43:55.285Z</time></trkpt><trkpt lat="34.4748167" lon="10.0713583"><ele>51.0</ele><time>2026-04-04T19:43:56.285Z</time></trkpt><trkpt lat="34.47455" lon="10.0713233"><ele>51.0</ele><time>2026-04-04T19:43:57.285Z</time></trkpt><trkpt lat="34.4742917" lon="10.0712833"><ele>51.0</ele><time>2026-04-04T19:43:58.285Z</time></trkpt><trkpt lat="34.4740383" lon="10.071245"><ele>51.0</ele><time>2026-04-04T19:43:59.285Z</time></trkpt><trkpt lat="34.4737817" lon="10.0712067"><ele>50.0</ele><time>2026-04-04T19:44:00.288Z</time></trkpt><trkpt lat="34.473525" lon="10.0711683"><ele>49.0</ele><time>2026-04-04T19:44:01.286Z</time></trkpt><trkpt lat="34.4732683" lon="10.07113"><ele>49.0</ele><time>2026-04-04T19:44:02.286Z</time></trkpt><trkpt lat="34.4730117" lon="10.07109"><ele>49.0</ele><time>2026-04-04T19:44:03.282Z</time></trkpt><trkpt lat="34.472755" lon="10.0710517"><ele>48.5</ele><time>2026-04-04T19:44:04.282Z</time></trkpt><trkpt lat="34.4724967" lon="10.0710117"><ele>48.0</ele><time>2026-04-04T19:44:05.282Z</time></trkpt><trkpt lat="34.4722417" lon="10.070975"><ele>47.5</ele><time>2026-04-04T19:44:06.282Z</time></trkpt><trkpt lat="34.4719833" lon="10.07094"><ele>47.0</ele><time>2026-04-04T19:44:07.283Z</time></trkpt><trkpt lat="34.471725" lon="10.0709033"><ele>47.0</ele><time>2026-04-04T19:44:08.282Z</time></trkpt><trkpt lat="34.4714633" lon="10.0708633"><ele>47.0</ele><time>2026-04-04T19:44:09.282Z</time></trkpt><trkpt lat="34.4711983" lon="10.0708217"><ele>46.5</ele><time>2026-04-04T19:44:10.285Z</time></trkpt><trkpt lat="34.4709283" lon="10.0707783"><ele>46.0</ele><time>2026-04-04T19:44:11.285Z</time></trkpt><trkpt lat="34.4706583" lon="10.070735"><ele>46.5</ele><time>2026-04-04T19:44:12.286Z</time></trkpt><trkpt lat="34.470385" lon="10.070695"><ele>47.0</ele><time>2026-04-04T19:44:13.285Z</time></trkpt><trkpt lat="34.4701117" lon="10.0706567"><ele>47.0</ele><time>2026-04-04T19:44:14.285Z</time></trkpt><trkpt lat="34.4698367" lon="10.070615"><ele>47.0</ele><time>2026-04-04T19:44:15.282Z</time></trkpt><trkpt lat="34.4695617" lon="10.070575"><ele>46.5</ele><time>2026-04-04T19:44:16.286Z</time></trkpt><trkpt lat="34.469285" lon="10.0705333"><ele>46.0</ele><time>2026-04-04T19:44:17.282Z</time></trkpt><trkpt lat="34.46901" lon="10.0704933"><ele>45.5</ele><time>2026-04-04T19:44:18.286Z</time></trkpt><trkpt lat="34.4687333" lon="10.0704533"><ele>45.0</ele><time>2026-04-04T19:44:19.282Z</time></trkpt><trkpt lat="34.468455" lon="10.0704117"><ele>45.0</ele><time>2026-04-04T19:44:20.285Z</time></trkpt><trkpt lat="34.4681783" lon="10.07037"><ele>45.0</ele><time>2026-04-04T19:44:21.282Z</time></trkpt><trkpt lat="34.4679" lon="10.0703283"><ele>45.0</ele><time>2026-04-04T19:44:22.286Z</time></trkpt><trkpt lat="34.467625" lon="10.070285"><ele>45.0</ele><time>2026-04-04T19:44:23.285Z</time></trkpt><trkpt lat="34.4673483" lon="10.0702433"><ele>44.0</ele><time>2026-04-04T19:44:24.286Z</time></trkpt><trkpt lat="34.4670717" lon="10.070205"><ele>43.0</ele><time>2026-04-04T19:44:25.286Z</time></trkpt><trkpt lat="34.466795" lon="10.070165"><ele>43.0</ele><time>2026-04-04T19:44:26.285Z</time></trkpt><trkpt lat="34.4665167" lon="10.070125"><ele>43.0</ele><time>2026-04-04T19:44:27.286Z</time></trkpt><trkpt lat="34.4662383" lon="10.0700833"><ele>42.5</ele><time>2026-04-04T19:44:28.285Z</time></trkpt><trkpt lat="34.46596" lon="10.0700417"><ele>42.0</ele><time>2026-04-04T19:44:29.285Z</time></trkpt><trkpt lat="34.4656817" lon="10.07"><ele>41.0</ele><time>2026-04-04T19:44:30.285Z</time></trkpt><trkpt lat="34.4654033" lon="10.0699583"><ele>40.0</ele><time>2026-04-04T19:44:31.286Z</time></trkpt><trkpt lat="34.4651233" lon="10.069915"><ele>40.5</ele><time>2026-04-04T19:44:32.286Z</time></trkpt><trkpt lat="34.464845" lon="10.0698733"><ele>41.0</ele><time>2026-04-04T19:44:33.283Z</time></trkpt><trkpt lat="34.464565" lon="10.0698317"><ele>41.0</ele><time>2026-04-04T19:44:34.283Z</time></trkpt><trkpt lat="34.4642833" lon="10.06979"><ele>41.0</ele><time>2026-04-04T19:44:35.284Z</time></trkpt><trkpt lat="34.4640017" lon="10.0697483"><ele>41.0</ele><time>2026-04-04T19:44:36.282Z</time></trkpt><trkpt lat="34.4637217" lon="10.0697067"><ele>41.0</ele><time>2026-04-04T19:44:37.283Z</time></trkpt><trkpt lat="34.4634417" lon="10.069665"><ele>41.0</ele><time>2026-04-04T19:44:38.282Z</time></trkpt><trkpt lat="34.463165" lon="10.0696233"><ele>41.0</ele><time>2026-04-04T19:44:39.282Z</time></trkpt><trkpt lat="34.4628867" lon="10.0695833"><ele>41.0</ele><time>2026-04-04T19:44:40.285Z</time></trkpt><trkpt lat="34.4626083" lon="10.0695433"><ele>41.0</ele><time>2026-04-04T19:44:41.286Z</time></trkpt><trkpt lat="34.4623333" lon="10.0695033"><ele>42.0</ele><time>2026-04-04T19:44:42.282Z</time></trkpt><trkpt lat="34.4620533" lon="10.0694617"><ele>43.0</ele><time>2026-04-04T19:44:43.285Z</time></trkpt><trkpt lat="34.461775" lon="10.06942"><ele>43.0</ele><time>2026-04-04T19:44:44.283Z</time></trkpt><trkpt lat="34.4614967" lon="10.0693767"><ele>43.0</ele><time>2026-04-04T19:44:45.283Z</time></trkpt><trkpt lat="34.46122" lon="10.0693317"><ele>41.5</ele><time>2026-04-04T19:44:46.284Z</time></trkpt><trkpt lat="34.46094" lon="10.0692867"><ele>40.0</ele><time>2026-04-04T19:44:47.285Z</time></trkpt><trkpt lat="34.4606583" lon="10.06924"><ele>38.5</ele><time>2026-04-04T19:44:48.285Z</time></trkpt><trkpt lat="34.4603767" lon="10.0691967"><ele>37.0</ele><time>2026-04-04T19:44:49.282Z</time></trkpt><trkpt lat="34.4600967" lon="10.0691517"><ele>37.5</ele><time>2026-04-04T19:44:50.285Z</time></trkpt><trkpt lat="34.459815" lon="10.0691083"><ele>38.0</ele><time>2026-04-04T19:44:51.285Z</time></trkpt><trkpt lat="34.4595367" lon="10.0690633"><ele>38.5</ele><time>2026-04-04T19:44:52.282Z</time></trkpt><trkpt lat="34.4592617" lon="10.0690167"><ele>39.0</ele><time>2026-04-04T19:44:53.284Z</time></trkpt><trkpt lat="34.4589867" lon="10.0689717"><ele>37.5</ele><time>2026-04-04T19:44:54.284Z</time></trkpt><trkpt lat="34.4587167" lon="10.068925"><ele>36.0</ele><time>2026-04-04T19:44:55.285Z</time></trkpt><trkpt lat="34.458445" lon="10.0688733"><ele>36.0</ele><time>2026-04-04T19:44:56.284Z</time></trkpt><trkpt lat="34.4581683" lon="10.0688217"><ele>36.0</ele><time>2026-04-04T19:44:57.284Z</time></trkpt><trkpt lat="34.457895" lon="10.0687733"><ele>35.5</ele><time>2026-04-04T19:44:58.285Z</time></trkpt><trkpt lat="34.4576217" lon="10.0687183"><ele>35.0</ele><time>2026-04-04T19:44:59.284Z</time></trkpt><trkpt lat="34.45735" lon="10.06866"><ele>36.0</ele><time>2026-04-04T19:45:00.282Z</time></trkpt><trkpt lat="34.4570783" lon="10.0686017"><ele>37.0</ele><time>2026-04-04T19:45:01.285Z</time></trkpt><trkpt lat="34.4568083" lon="10.06854"><ele>37.0</ele><time>2026-04-04T19:45:02.285Z</time></trkpt><trkpt lat="34.4565417" lon="10.0684767"><ele>37.0</ele><time>2026-04-04T19:45:03.282Z</time></trkpt><trkpt lat="34.4562733" lon="10.0684133"><ele>36.0</ele><time>2026-04-04T19:45:04.282Z</time></trkpt><trkpt lat="34.4560067" lon="10.0683467"><ele>35.0</ele><time>2026-04-04T19:45:05.283Z</time></trkpt><trkpt lat="34.45574" lon="10.0682783"><ele>35.0</ele><time>2026-04-04T19:45:06.283Z</time></trkpt><trkpt lat="34.455475" lon="10.0682083"><ele>35.0</ele><time>2026-04-04T19:45:07.282Z</time></trkpt><trkpt lat="34.45521" lon="10.0681367"><ele>35.0</ele><time>2026-04-04T19:45:08.282Z</time></trkpt><trkpt lat="34.4549467" lon="10.0680617"><ele>35.0</ele><time>2026-04-04T19:45:09.284Z</time></trkpt><trkpt lat="34.4546833" lon="10.067985"><ele>35.0</ele><time>2026-04-04T19:45:10.285Z</time></trkpt><trkpt lat="34.45442" lon="10.067905"><ele>35.0</ele><time>2026-04-04T19:45:11.285Z</time></trkpt><trkpt lat="34.45416" lon="10.067825"><ele>35.0</ele><time>2026-04-04T19:45:12.285Z</time></trkpt><trkpt lat="34.4539017" lon="10.0677417"><ele>35.0</ele><time>2026-04-04T19:45:13.283Z</time></trkpt><trkpt lat="34.4536383" lon="10.0676617"><ele>34.5</ele><time>2026-04-04T19:45:14.285Z</time></trkpt><trkpt lat="34.4533733" lon="10.0675733"><ele>34.0</ele><time>2026-04-04T19:45:15.286Z</time></trkpt><trkpt lat="34.4531083" lon="10.0674917"><ele>34.0</ele><time>2026-04-04T19:45:16.285Z</time></trkpt><trkpt lat="34.45284" lon="10.0674067"><ele>34.0</ele><time>2026-04-04T19:45:17.284Z</time></trkpt><trkpt lat="34.45257" lon="10.0673217"><ele>34.0</ele><time>2026-04-04T19:45:18.282Z</time></trkpt><trkpt lat="34.4523017" lon="10.0672333"><ele>34.0</ele><time>2026-04-04T19:45:19.285Z</time></trkpt><trkpt lat="34.4520333" lon="10.067145"><ele>34.5</ele><time>2026-04-04T19:45:20.284Z</time></trkpt><trkpt lat="34.4517617" lon="10.0670567"><ele>35.0</ele><time>2026-04-04T19:45:21.282Z</time></trkpt><trkpt lat="34.4514917" lon="10.0669667"><ele>35.0</ele><time>2026-04-04T19:45:22.285Z</time></trkpt><trkpt lat="34.45122" lon="10.06688"><ele>35.0</ele><time>2026-04-04T19:45:23.284Z</time></trkpt><trkpt lat="34.45095" lon="10.0667933"><ele>35.0</ele><time>2026-04-04T19:45:24.283Z</time></trkpt><trkpt lat="34.4506817" lon="10.066705"><ele>35.0</ele><time>2026-04-04T19:45:25.286Z</time></trkpt><trkpt lat="34.4504067" lon="10.0666167"><ele>34.0</ele><time>2026-04-04T19:45:26.284Z</time></trkpt><trkpt lat="34.4501167" lon="10.0665233"><ele>33.0</ele><time>2026-04-04T19:45:27.284Z</time></trkpt><trkpt lat="34.449815" lon="10.0664283"><ele>34.0</ele><time>2026-04-04T19:45:28.281Z</time></trkpt><trkpt lat="34.449505" lon="10.06633"><ele>35.0</ele><time>2026-04-04T19:45:29.285Z</time></trkpt><trkpt lat="34.4491867" lon="10.066225"><ele>35.0</ele><time>2026-04-04T19:45:30.285Z</time></trkpt><trkpt lat="34.448865" lon="10.0661133"><ele>35.0</ele><time>2026-04-04T19:45:31.284Z</time></trkpt><trkpt lat="34.4485367" lon="10.0659983"><ele>34.0</ele><time>2026-04-04T19:45:32.284Z</time></trkpt><trkpt lat="34.44821" lon="10.0658867"><ele>33.0</ele><time>2026-04-04T19:45:33.285Z</time></trkpt><trkpt lat="34.4478783" lon="10.0657783"><ele>33.0</ele><time>2026-04-04T19:45:34.282Z</time></trkpt><trkpt lat="34.4475517" lon="10.06567"><ele>33.0</ele><time>2026-04-04T19:45:35.283Z</time></trkpt><trkpt lat="34.4472283" lon="10.0655633"><ele>33.5</ele><time>2026-04-04T19:45:36.282Z</time></trkpt><trkpt lat="34.4469067" lon="10.0654567"><ele>34.0</ele><time>2026-04-04T19:45:37.283Z</time></trkpt><trkpt lat="34.4465833" lon="10.06535"><ele>34.0</ele><time>2026-04-04T19:45:38.281Z</time></trkpt><trkpt lat="34.44626" lon="10.0652433"><ele>34.0</ele><time>2026-04-04T19:45:39.282Z</time></trkpt><trkpt lat="34.445935" lon="10.0651367"><ele>34.0</ele><time>2026-04-04T19:45:40.284Z</time></trkpt><trkpt lat="34.44561" lon="10.06503"><ele>34.0</ele><time>2026-04-04T19:45:41.286Z</time></trkpt><trkpt lat="34.4452867" lon="10.0649233"><ele>34.0</ele><time>2026-04-04T19:45:42.286Z</time></trkpt><trkpt lat="34.4449683" lon="10.0648167"><ele>34.0</ele><time>2026-04-04T19:45:43.283Z</time></trkpt><trkpt lat="34.4446517" lon="10.06471"><ele>34.0</ele><time>2026-04-04T19:45:44.286Z</time></trkpt><trkpt lat="34.4443367" lon="10.064605"><ele>34.0</ele><time>2026-04-04T19:45:45.285Z</time></trkpt><trkpt lat="34.444025" lon="10.0645017"><ele>33.5</ele><time>2026-04-04T19:45:46.283Z</time></trkpt><trkpt lat="34.4437117" lon="10.0644"><ele>33.0</ele><time>2026-04-04T19:45:47.286Z</time></trkpt><trkpt lat="34.4434017" lon="10.0643017"><ele>33.0</ele><time>2026-04-04T19:45:48.282Z</time></trkpt><trkpt lat="34.4431" lon="10.0642"><ele>33.0</ele><time>2026-04-04T19:45:49.283Z</time></trkpt><trkpt lat="34.4428033" lon="10.064105"><ele>33.5</ele><time>2026-04-04T19:45:50.282Z</time></trkpt><trkpt lat="34.4425083" lon="10.06401"><ele>34.0</ele><time>2026-04-04T19:45:51.283Z</time></trkpt><trkpt lat="34.44221" lon="10.0639167"><ele>34.0</ele><time>2026-04-04T19:45:52.285Z</time></trkpt><trkpt lat="34.441905" lon="10.0638217"><ele>34.0</ele><time>2026-04-04T19:45:53.283Z</time></trkpt><trkpt lat="34.4415967" lon="10.0637317"><ele>34.0</ele><time>2026-04-04T19:45:54.285Z</time></trkpt><trkpt lat="34.4412883" lon="10.0636383"><ele>34.0</ele><time>2026-04-04T19:45:55.286Z</time></trkpt><trkpt lat="34.44098" lon="10.0635517"><ele>34.0</ele><time>2026-04-04T19:45:56.285Z</time></trkpt><trkpt lat="34.4406683" lon="10.0634683"><ele>34.0</ele><time>2026-04-04T19:45:57.286Z</time></trkpt><trkpt lat="34.440355" lon="10.0633883"><ele>34.0</ele><time>2026-04-04T19:45:58.286Z</time></trkpt><trkpt lat="34.4400417" lon="10.0633133"><ele>34.0</ele><time>2026-04-04T19:45:59.285Z</time></trkpt><trkpt lat="34.4397267" lon="10.0632417"><ele>34.5</ele><time>2026-04-04T19:46:00.285Z</time></trkpt><trkpt lat="34.439415" lon="10.06317"><ele>35.0</ele><time>2026-04-04T19:46:01.285Z</time></trkpt><trkpt lat="34.4391033" lon="10.0631033"><ele>34.5</ele><time>2026-04-04T19:46:02.286Z</time></trkpt><trkpt lat="34.4387983" lon="10.0630383"><ele>34.0</ele><time>2026-04-04T19:46:03.286Z</time></trkpt><trkpt lat="34.4384983" lon="10.0629783"><ele>34.0</ele><time>2026-04-04T19:46:04.285Z</time></trkpt><trkpt lat="34.4381983" lon="10.0629217"><ele>34.0</ele><time>2026-04-04T19:46:05.286Z</time></trkpt><trkpt lat="34.4378967" lon="10.0628683"><ele>34.0</ele><time>2026-04-04T19:46:06.286Z</time></trkpt><trkpt lat="34.4375933" lon="10.06282"><ele>34.0</ele><time>2026-04-04T19:46:07.285Z</time></trkpt><trkpt lat="34.43729" lon="10.0627717"><ele>34.0</ele><time>2026-04-04T19:46:08.285Z</time></trkpt><trkpt lat="34.4369817" lon="10.0627267"><ele>34.0</ele><time>2026-04-04T19:46:09.284Z</time></trkpt><trkpt lat="34.43667" lon="10.062685"><ele>34.0</ele><time>2026-04-04T19:46:10.285Z</time></trkpt><trkpt lat="34.4363517" lon="10.062645"><ele>34.0</ele><time>2026-04-04T19:46:11.285Z</time></trkpt><trkpt lat="34.43603" lon="10.0626083"><ele>34.5</ele><time>2026-04-04T19:46:12.286Z</time></trkpt><trkpt lat="34.435705" lon="10.0625767"><ele>35.0</ele><time>2026-04-04T19:46:13.286Z</time></trkpt><trkpt lat="34.43538" lon="10.0625467"><ele>35.0</ele><time>2026-04-04T19:46:14.285Z</time></trkpt><trkpt lat="34.4350517" lon="10.062515"><ele>35.0</ele><time>2026-04-04T19:46:15.285Z</time></trkpt><trkpt lat="34.43472" lon="10.0624867"><ele>34.5</ele><time>2026-04-04T19:46:16.285Z</time></trkpt><trkpt lat="34.4343967" lon="10.0624633"><ele>34.0</ele><time>2026-04-04T19:46:17.286Z</time></trkpt><trkpt lat="34.4340883" lon="10.0624467"><ele>35.0</ele><time>2026-04-04T19:46:18.286Z</time></trkpt><trkpt lat="34.433785" lon="10.062435"><ele>36.0</ele><time>2026-04-04T19:46:19.286Z</time></trkpt><trkpt lat="34.4334817" lon="10.0624283"><ele>36.0</ele><time>2026-04-04T19:46:20.285Z</time></trkpt><trkpt lat="34.433175" lon="10.0624217"><ele>36.0</ele><time>2026-04-04T19:46:21.285Z</time></trkpt><trkpt lat="34.43287" lon="10.0624183"><ele>37.0</ele><time>2026-04-04T19:46:22.285Z</time></trkpt><trkpt lat="34.4325617" lon="10.0624167"><ele>38.0</ele><time>2026-04-04T19:46:23.284Z</time></trkpt><trkpt lat="34.4322517" lon="10.062415"><ele>38.5</ele><time>2026-04-04T19:46:24.285Z</time></trkpt><trkpt lat="34.4319383" lon="10.0624183"><ele>39.0</ele><time>2026-04-04T19:46:25.285Z</time></trkpt><trkpt lat="34.4316233" lon="10.0624267"><ele>37.5</ele><time>2026-04-04T19:46:26.285Z</time></trkpt><trkpt lat="34.431305" lon="10.062435"><ele>36.0</ele><time>2026-04-04T19:46:27.284Z</time></trkpt><trkpt lat="34.4309833" lon="10.0624433"><ele>36.0</ele><time>2026-04-04T19:46:28.285Z</time></trkpt><trkpt lat="34.43066" lon="10.0624583"><ele>36.0</ele><time>2026-04-04T19:46:29.286Z</time></trkpt><trkpt lat="34.4303333" lon="10.0624767"><ele>37.5</ele><time>2026-04-04T19:46:30.282Z</time></trkpt><trkpt lat="34.430005" lon="10.0624983"><ele>39.0</ele><time>2026-04-04T19:46:31.285Z</time></trkpt><trkpt lat="34.4296733" lon="10.0625217"><ele>38.5</ele><time>2026-04-04T19:46:32.285Z</time></trkpt><trkpt lat="34.42934" lon="10.062545"><ele>38.0</ele><time>2026-04-04T19:46:33.286Z</time></trkpt><trkpt lat="34.4290033" lon="10.06257"><ele>38.0</ele><time>2026-04-04T19:46:34.285Z</time></trkpt><trkpt lat="34.4286667" lon="10.0625983"><ele>38.0</ele><time>2026-04-04T19:46:35.283Z</time></trkpt><trkpt lat="34.4283333" lon="10.062625"><ele>38.0</ele><time>2026-04-04T19:46:36.282Z</time></trkpt><trkpt lat="34.4280017" lon="10.06265"><ele>38.0</ele><time>2026-04-04T19:46:37.283Z</time></trkpt><trkpt lat="34.427675" lon="10.0626733"><ele>37.5</ele><time>2026-04-04T19:46:38.285Z</time></trkpt><trkpt lat="34.4273467" lon="10.0626967"><ele>37.0</ele><time>2026-04-04T19:46:39.282Z</time></trkpt><trkpt lat="34.4270167" lon="10.0627183"><ele>37.0</ele><time>2026-04-04T19:46:40.285Z</time></trkpt><trkpt lat="34.4266817" lon="10.0627417"><ele>37.0</ele><time>2026-04-04T19:46:41.285Z</time></trkpt><trkpt lat="34.426345" lon="10.0627667"><ele>38.5</ele><time>2026-04-04T19:46:42.285Z</time></trkpt><trkpt lat="34.4260067" lon="10.0627917"><ele>40.0</ele><time>2026-04-04T19:46:43.282Z</time></trkpt><trkpt lat="34.4256717" lon="10.0628183"><ele>39.5</ele><time>2026-04-04T19:46:44.281Z</time></trkpt><trkpt lat="34.4253383" lon="10.06284"><ele>39.0</ele><time>2026-04-04T19:46:45.282Z</time></trkpt><trkpt lat="34.425005" lon="10.0628617"><ele>39.0</ele><time>2026-04-04T19:46:46.285Z</time></trkpt><trkpt lat="34.4246717" lon="10.0628817"><ele>39.0</ele><time>2026-04-04T19:46:47.286Z</time></trkpt><trkpt lat="34.4243383" lon="10.0628983"><ele>40.0</ele><time>2026-04-04T19:46:48.285Z</time></trkpt><trkpt lat="34.4240067" lon="10.0629167"><ele>41.0</ele><time>2026-04-04T19:46:49.285Z</time></trkpt><trkpt lat="34.4236783" lon="10.0629367"><ele>41.5</ele><time>2026-04-04T19:46:50.285Z</time></trkpt><trkpt lat="34.4233567" lon="10.06296"><ele>42.0</ele><time>2026-04-04T19:46:51.285Z</time></trkpt><trkpt lat="34.4230383" lon="10.062985"><ele>42.0</ele><time>2026-04-04T19:46:52.285Z</time></trkpt><trkpt lat="34.422725" lon="10.0630033"><ele>42.0</ele><time>2026-04-04T19:46:53.285Z</time></trkpt><trkpt lat="34.4224133" lon="10.063025"><ele>41.5</ele><time>2026-04-04T19:46:54.286Z</time></trkpt><trkpt lat="34.4221" lon="10.063045"><ele>41.0</ele><time>2026-04-04T19:46:55.286Z</time></trkpt><trkpt lat="34.4217917" lon="10.063065"><ele>41.0</ele><time>2026-04-04T19:46:56.285Z</time></trkpt><trkpt lat="34.421495" lon="10.0630833"><ele>41.0</ele><time>2026-04-04T19:46:57.286Z</time></trkpt><trkpt lat="34.42121" lon="10.0631017"><ele>41.5</ele><time>2026-04-04T19:46:58.283Z</time></trkpt><trkpt lat="34.4209267" lon="10.0631167"><ele>42.0</ele><time>2026-04-04T19:46:59.282Z</time></trkpt><trkpt lat="34.4206467" lon="10.0631333"><ele>42.5</ele><time>2026-04-04T19:47:00.283Z</time></trkpt><trkpt lat="34.420365" lon="10.0631533"><ele>43.0</ele><time>2026-04-04T19:47:01.283Z</time></trkpt><trkpt lat="34.420075" lon="10.0631733"><ele>43.0</ele><time>2026-04-04T19:47:02.284Z</time></trkpt><trkpt lat="34.4197783" lon="10.0631933"><ele>43.0</ele><time>2026-04-04T19:47:03.283Z</time></trkpt><trkpt lat="34.4194833" lon="10.0632133"><ele>42.5</ele><time>2026-04-04T19:47:04.283Z</time></trkpt><trkpt lat="34.4191917" lon="10.063235"><ele>42.0</ele><time>2026-04-04T19:47:05.286Z</time></trkpt><trkpt lat="34.4189033" lon="10.063255"><ele>42.0</ele><time>2026-04-04T19:47:06.285Z</time></trkpt><trkpt lat="34.4186167" lon="10.0632733"><ele>42.0</ele><time>2026-04-04T19:47:07.285Z</time></trkpt><trkpt lat="34.4183317" lon="10.06329"><ele>42.0</ele><time>2026-04-04T19:47:08.282Z</time></trkpt><trkpt lat="34.418045" lon="10.063305"><ele>42.0</ele><time>2026-04-04T19:47:09.285Z</time></trkpt><trkpt lat="34.4177567" lon="10.06332"><ele>42.5</ele><time>2026-04-04T19:47:10.285Z</time></trkpt><trkpt lat="34.4174633" lon="10.0633367"><ele>43.0</ele><time>2026-04-04T19:47:11.286Z</time></trkpt><trkpt lat="34.4171667" lon="10.0633567"><ele>43.5</ele><time>2026-04-04T19:47:12.283Z</time></trkpt><trkpt lat="34.4168667" lon="10.0633733"><ele>44.0</ele><time>2026-04-04T19:47:13.285Z</time></trkpt><trkpt lat="34.4165667" lon="10.06339"><ele>44.0</ele><time>2026-04-04T19:47:14.286Z</time></trkpt><trkpt lat="34.4162667" lon="10.063405"><ele>44.0</ele><time>2026-04-04T19:47:15.285Z</time></trkpt><trkpt lat="34.4159667" lon="10.0634217"><ele>44.0</ele><time>2026-04-04T19:47:16.285Z</time></trkpt><trkpt lat="34.4156667" lon="10.06344"><ele>44.0</ele><time>2026-04-04T19:47:17.286Z</time></trkpt><trkpt lat="34.415365" lon="10.0634583"><ele>44.0</ele><time>2026-04-04T19:47:18.285Z</time></trkpt><trkpt lat="34.4150617" lon="10.0634783"><ele>44.0</ele><time>2026-04-04T19:47:19.286Z</time></trkpt><trkpt lat="34.4147567" lon="10.0635"><ele>44.0</ele><time>2026-04-04T19:47:20.286Z</time></trkpt><trkpt lat="34.4144483" lon="10.0635217"><ele>44.0</ele><time>2026-04-04T19:47:21.286Z</time></trkpt><trkpt lat="34.4141383" lon="10.0635433"><ele>44.0</ele><time>2026-04-04T19:47:22.286Z</time></trkpt><trkpt lat="34.4138283" lon="10.0635617"><ele>44.0</ele><time>2026-04-04T19:47:23.286Z</time></trkpt><trkpt lat="34.413515" lon="10.0635817"><ele>44.0</ele><time>2026-04-04T19:47:24.287Z</time></trkpt><trkpt lat="34.4132" lon="10.0636017"><ele>44.0</ele><time>2026-04-04T19:47:25.285Z</time></trkpt><trkpt lat="34.4128833" lon="10.06362"><ele>43.5</ele><time>2026-04-04T19:47:26.285Z</time></trkpt><trkpt lat="34.412565" lon="10.06364"><ele>43.0</ele><time>2026-04-04T19:47:27.286Z</time></trkpt><trkpt lat="34.4122433" lon="10.06366"><ele>43.5</ele><time>2026-04-04T19:47:28.285Z</time></trkpt><trkpt lat="34.4119183" lon="10.0636833"><ele>44.0</ele><time>2026-04-04T19:47:29.285Z</time></trkpt><trkpt lat="34.4115933" lon="10.06371"><ele>45.0</ele><time>2026-04-04T19:47:30.283Z</time></trkpt><trkpt lat="34.411265" lon="10.0637317"><ele>46.0</ele><time>2026-04-04T19:47:31.286Z</time></trkpt><trkpt lat="34.410935" lon="10.0637517"><ele>46.0</ele><time>2026-04-04T19:47:32.285Z</time></trkpt><trkpt lat="34.4106067" lon="10.0637717"><ele>46.0</ele><time>2026-04-04T19:47:33.282Z</time></trkpt><trkpt lat="34.4102783" lon="10.0637933"><ele>46.0</ele><time>2026-04-04T19:47:34.283Z</time></trkpt><trkpt lat="34.4099533" lon="10.0638133"><ele>46.0</ele><time>2026-04-04T19:47:35.283Z</time></trkpt><trkpt lat="34.4096317" lon="10.063835"><ele>46.0</ele><time>2026-04-04T19:47:36.283Z</time></trkpt><trkpt lat="34.4093133" lon="10.063855"><ele>46.0</ele><time>2026-04-04T19:47:37.282Z</time></trkpt><trkpt lat="34.4089967" lon="10.063875"><ele>45.5</ele><time>2026-04-04T19:47:38.282Z</time></trkpt><trkpt lat="34.4086867" lon="10.063895"><ele>45.0</ele><time>2026-04-04T19:47:39.282Z</time></trkpt><trkpt lat="34.408385" lon="10.063915"><ele>45.0</ele><time>2026-04-04T19:47:40.284Z</time></trkpt><trkpt lat="34.408085" lon="10.063935"><ele>45.0</ele><time>2026-04-04T19:47:41.286Z</time></trkpt><trkpt lat="34.4077817" lon="10.063955"><ele>44.5</ele><time>2026-04-04T19:47:42.285Z</time></trkpt><trkpt lat="34.4074767" lon="10.0639717"><ele>44.0</ele><time>2026-04-04T19:47:43.285Z</time></trkpt><trkpt lat="34.40717" lon="10.06399"><ele>45.0</ele><time>2026-04-04T19:47:44.285Z</time></trkpt><trkpt lat="34.406865" lon="10.0640083"><ele>46.0</ele><time>2026-04-04T19:47:45.286Z</time></trkpt><trkpt lat="34.4065667" lon="10.0640283"><ele>46.0</ele><time>2026-04-04T19:47:46.285Z</time></trkpt><trkpt lat="34.4062817" lon="10.0640483"><ele>46.0</ele><time>2026-04-04T19:47:47.286Z</time></trkpt><trkpt lat="34.406015" lon="10.0640667"><ele>46.0</ele><time>2026-04-04T19:47:48.286Z</time></trkpt><trkpt lat="34.405765" lon="10.0640783"><ele>46.0</ele><time>2026-04-04T19:47:49.286Z</time></trkpt><trkpt lat="34.40553" lon="10.0640883"><ele>46.0</ele><time>2026-04-04T19:47:50.285Z</time></trkpt><trkpt lat="34.4053083" lon="10.0640917"><ele>46.0</ele><time>2026-04-04T19:47:51.285Z</time></trkpt><trkpt lat="34.405095" lon="10.0640917"><ele>46.0</ele><time>2026-04-04T19:47:52.285Z</time></trkpt><trkpt lat="34.4048883" lon="10.0640883"><ele>46.0</ele><time>2026-04-04T19:47:53.285Z</time></trkpt><trkpt lat="34.40468" lon="10.06408"><ele>46.0</ele><time>2026-04-04T19:47:54.285Z</time></trkpt><trkpt lat="34.4044767" lon="10.06407"><ele>46.0</ele><time>2026-04-04T19:47:55.285Z</time></trkpt><trkpt lat="34.404275" lon="10.0640583"><ele>46.66666666666667</ele><time>2026-04-04T19:47:56.285Z</time></trkpt><trkpt lat="34.4040733" lon="10.0640433"><ele>47.333333333333336</ele><time>2026-04-04T19:47:57.285Z</time></trkpt><trkpt lat="34.4038717" lon="10.0640283"><ele>48.0</ele><time>2026-04-04T19:47:58.285Z</time></trkpt><trkpt lat="34.4036733" lon="10.0640117"><ele>48.0</ele><time>2026-04-04T19:47:59.285Z</time></trkpt><trkpt lat="34.4034783" lon="10.06399"><ele>48.0</ele><time>2026-04-04T19:48:00.283Z</time></trkpt><trkpt lat="34.403285" lon="10.063965"><ele>48.0</ele><time>2026-04-04T19:48:01.285Z</time></trkpt><trkpt lat="34.4030917" lon="10.063935"><ele>48.0</ele><time>2026-04-04T19:48:02.284Z</time></trkpt><trkpt lat="34.4028967" lon="10.063905"><ele>48.0</ele><time>2026-04-04T19:48:03.284Z</time></trkpt><trkpt lat="34.4027017" lon="10.0638717"><ele>48.0</ele><time>2026-04-04T19:48:04.284Z</time></trkpt><trkpt lat="34.4025083" lon="10.0638367"><ele>48.0</ele><time>2026-04-04T19:48:05.285Z</time></trkpt><trkpt lat="34.4023133" lon="10.0637967"><ele>48.0</ele><time>2026-04-04T19:48:06.284Z</time></trkpt><trkpt lat="34.40212" lon="10.0637533"><ele>48.0</ele><time>2026-04-04T19:48:07.285Z</time></trkpt><trkpt lat="34.40193" lon="10.06371"><ele>48.0</ele><time>2026-04-04T19:48:08.284Z</time></trkpt><trkpt lat="34.4017483" lon="10.0636617"><ele>48.0</ele><time>2026-04-04T19:48:09.284Z</time></trkpt><trkpt lat="34.4015733" lon="10.063615"><ele>48.0</ele><time>2026-04-04T19:48:10.285Z</time></trkpt><trkpt lat="34.401395" lon="10.0635667"><ele>48.66666666666667</ele><time>2026-04-04T19:48:11.285Z</time></trkpt><trkpt lat="34.40121" lon="10.0635133"><ele>49.333333333333336</ele><time>2026-04-04T19:48:12.284Z</time></trkpt><trkpt lat="34.4010217" lon="10.063455"><ele>50.0</ele><time>2026-04-04T19:48:13.284Z</time></trkpt><trkpt lat="34.40083" lon="10.0633933"><ele>50.0</ele><time>2026-04-04T19:48:14.284Z</time></trkpt><trkpt lat="34.4006383" lon="10.06333"><ele>50.0</ele><time>2026-04-04T19:48:15.284Z</time></trkpt><trkpt lat="34.4004467" lon="10.063265"><ele>50.0</ele><time>2026-04-04T19:48:16.282Z</time></trkpt><trkpt lat="34.4002433" lon="10.0631967"><ele>51.0</ele><time>2026-04-04T19:48:17.284Z</time></trkpt><trkpt lat="34.4000283" lon="10.0631167"><ele>52.0</ele><time>2026-04-04T19:48:18.285Z</time></trkpt><trkpt lat="34.3998" lon="10.06303"><ele>52.5</ele><time>2026-04-04T19:48:19.284Z</time></trkpt><trkpt lat="34.3995583" lon="10.06293"><ele>53.0</ele><time>2026-04-04T19:48:20.284Z</time></trkpt><trkpt lat="34.399305" lon="10.062815"><ele>53.0</ele><time>2026-04-04T19:48:21.285Z</time></trkpt><trkpt lat="34.3990467" lon="10.062695"><ele>53.0</ele><time>2026-04-04T19:48:22.285Z</time></trkpt><trkpt lat="34.3987867" lon="10.0625683"><ele>54.0</ele><time>2026-04-04T19:48:23.281Z</time></trkpt><trkpt lat="34.398525" lon="10.0624333"><ele>55.0</ele><time>2026-04-04T19:48:24.285Z</time></trkpt><trkpt lat="34.3982667" lon="10.062285"><ele>55.0</ele><time>2026-04-04T19:48:25.284Z</time></trkpt><trkpt lat="34.398005" lon="10.06213"><ele>55.0</ele><time>2026-04-04T19:48:26.284Z</time></trkpt><trkpt lat="34.3977417" lon="10.0619717"><ele>55.5</ele><time>2026-04-04T19:48:27.284Z</time></trkpt><trkpt lat="34.39748" lon="10.0618033"><ele>56.0</ele><time>2026-04-04T19:48:28.284Z</time></trkpt><trkpt lat="34.3972217" lon="10.0616333"><ele>56.0</ele><time>2026-04-04T19:48:29.284Z</time></trkpt><trkpt lat="34.3969667" lon="10.06146"><ele>56.0</ele><time>2026-04-04T19:48:30.285Z</time></trkpt><trkpt lat="34.3967133" lon="10.0612817"><ele>56.0</ele><time>2026-04-04T19:48:31.285Z</time></trkpt><trkpt lat="34.3964667" lon="10.0610983"><ele>56.0</ele><time>2026-04-04T19:48:32.285Z</time></trkpt><trkpt lat="34.396225" lon="10.0609117"><ele>56.5</ele><time>2026-04-04T19:48:33.285Z</time></trkpt><trkpt lat="34.3959833" lon="10.0607233"><ele>57.0</ele><time>2026-04-04T19:48:34.284Z</time></trkpt><trkpt lat="34.395745" lon="10.0605267"><ele>57.0</ele><time>2026-04-04T19:48:35.284Z</time></trkpt><trkpt lat="34.39551" lon="10.0603233"><ele>57.0</ele><time>2026-04-04T19:48:36.284Z</time></trkpt><trkpt lat="34.39528" lon="10.0601133"><ele>57.0</ele><time>2026-04-04T19:48:37.284Z</time></trkpt><trkpt lat="34.3950533" lon="10.0599"><ele>57.0</ele><time>2026-04-04T19:48:38.284Z</time></trkpt><trkpt lat="34.39483" lon="10.0596817"><ele>56.5</ele><time>2026-04-04T19:48:39.285Z</time></trkpt><trkpt lat="34.39461" lon="10.0594583"><ele>56.0</ele><time>2026-04-04T19:48:40.284Z</time></trkpt><trkpt lat="34.3943917" lon="10.0592267"><ele>56.5</ele><time>2026-04-04T19:48:41.284Z</time></trkpt><trkpt lat="34.3941683" lon="10.058985"><ele>57.0</ele><time>2026-04-04T19:48:42.284Z</time></trkpt><trkpt lat="34.3939433" lon="10.0587383"><ele>57.5</ele><time>2026-04-04T19:48:43.285Z</time></trkpt><trkpt lat="34.3937267" lon="10.0584833"><ele>58.0</ele><time>2026-04-04T19:48:44.284Z</time></trkpt><trkpt lat="34.393515" lon="10.0582267"><ele>58.0</ele><time>2026-04-04T19:48:45.285Z</time></trkpt><trkpt lat="34.3933083" lon="10.057965"><ele>58.0</ele><time>2026-04-04T19:48:46.285Z</time></trkpt><trkpt lat="34.3931067" lon="10.057705"><ele>58.0</ele><time>2026-04-04T19:48:47.285Z</time></trkpt><trkpt lat="34.3929083" lon="10.057445"><ele>58.0</ele><time>2026-04-04T19:48:48.284Z</time></trkpt><trkpt lat="34.3927183" lon="10.05718"><ele>58.0</ele><time>2026-04-04T19:48:49.285Z</time></trkpt><trkpt lat="34.3925333" lon="10.0569117"><ele>58.0</ele><time>2026-04-04T19:48:50.285Z</time></trkpt><trkpt lat="34.39235" lon="10.056635"><ele>58.5</ele><time>2026-04-04T19:48:51.285Z</time></trkpt><trkpt lat="34.39217" lon="10.056355"><ele>59.0</ele><time>2026-04-04T19:48:52.286Z</time></trkpt><trkpt lat="34.391995" lon="10.05607"><ele>58.0</ele><time>2026-04-04T19:48:53.284Z</time></trkpt><trkpt lat="34.391825" lon="10.0557867"><ele>57.0</ele><time>2026-04-04T19:48:54.284Z</time></trkpt><trkpt lat="34.391665" lon="10.0555"><ele>57.0</ele><time>2026-04-04T19:48:55.284Z</time></trkpt><trkpt lat="34.3915067" lon="10.0552133"><ele>57.0</ele><time>2026-04-04T19:48:56.285Z</time></trkpt><trkpt lat="34.3913567" lon="10.0549283"><ele>58.0</ele><time>2026-04-04T19:48:57.282Z</time></trkpt><trkpt lat="34.3912133" lon="10.054645"><ele>59.0</ele><time>2026-04-04T19:48:58.284Z</time></trkpt><trkpt lat="34.3910767" lon="10.0543583"><ele>59.0</ele><time>2026-04-04T19:48:59.285Z</time></trkpt><trkpt lat="34.3909433" lon="10.0540717"><ele>59.0</ele><time>2026-04-04T19:49:00.284Z</time></trkpt><trkpt lat="34.3908083" lon="10.053785"><ele>59.0</ele><time>2026-04-04T19:49:01.285Z</time></trkpt><trkpt lat="34.3906733" lon="10.0534967"><ele>59.0</ele><time>2026-04-04T19:49:02.281Z</time></trkpt><trkpt lat="34.390545" lon="10.0532017"><ele>60.0</ele><time>2026-04-04T19:49:03.283Z</time></trkpt><trkpt lat="34.390415" lon="10.0529017"><ele>61.0</ele><time>2026-04-04T19:49:04.284Z</time></trkpt><trkpt lat="34.3902833" lon="10.052595"><ele>60.0</ele><time>2026-04-04T19:49:05.284Z</time></trkpt><trkpt lat="34.3901483" lon="10.0522833"><ele>59.0</ele><time>2026-04-04T19:49:06.282Z</time></trkpt><trkpt lat="34.390015" lon="10.05197"><ele>59.0</ele><time>2026-04-04T19:49:07.285Z</time></trkpt><trkpt lat="34.3898767" lon="10.0516517"><ele>59.0</ele><time>2026-04-04T19:49:08.285Z</time></trkpt><trkpt lat="34.389735" lon="10.0513333"><ele>60.0</ele><time>2026-04-04T19:49:09.285Z</time></trkpt><trkpt lat="34.3895917" lon="10.0510167"><ele>61.0</ele><time>2026-04-04T19:49:10.281Z</time></trkpt><trkpt lat="34.3894433" lon="10.0507017"><ele>61.0</ele><time>2026-04-04T19:49:11.287Z</time></trkpt><trkpt lat="34.38929" lon="10.0503933"><ele>61.0</ele><time>2026-04-04T19:49:12.282Z</time></trkpt><trkpt lat="34.3891333" lon="10.0500867"><ele>60.5</ele><time>2026-04-04T19:49:13.282Z</time></trkpt><trkpt lat="34.3889717" lon="10.049785"><ele>60.0</ele><time>2026-04-04T19:49:14.286Z</time></trkpt><trkpt lat="34.38881" lon="10.0494867"><ele>59.5</ele><time>2026-04-04T19:49:15.283Z</time></trkpt><trkpt lat="34.3886417" lon="10.0491967"><ele>59.0</ele><time>2026-04-04T19:49:16.286Z</time></trkpt><trkpt lat="34.38847" lon="10.04891"><ele>59.0</ele><time>2026-04-04T19:49:17.281Z</time></trkpt><trkpt lat="34.3882983" lon="10.048625"><ele>59.0</ele><time>2026-04-04T19:49:18.285Z</time></trkpt><trkpt lat="34.3881217" lon="10.0483433"><ele>59.5</ele><time>2026-04-04T19:49:19.284Z</time></trkpt><trkpt lat="34.38794" lon="10.0480683"><ele>60.0</ele><time>2026-04-04T19:49:20.286Z</time></trkpt><trkpt lat="34.3877533" lon="10.0478"><ele>60.0</ele><time>2026-04-04T19:49:21.285Z</time></trkpt><trkpt lat="34.3875633" lon="10.0475383"><ele>60.0</ele><time>2026-04-04T19:49:22.285Z</time></trkpt><trkpt lat="34.38737" lon="10.047285"><ele>59.5</ele><time>2026-04-04T19:49:23.284Z</time></trkpt><trkpt lat="34.387175" lon="10.0470367"><ele>59.0</ele><time>2026-04-04T19:49:24.285Z</time></trkpt><trkpt lat="34.3869783" lon="10.0467917"><ele>59.5</ele><time>2026-04-04T19:49:25.285Z</time></trkpt><trkpt lat="34.3867783" lon="10.04655"><ele>60.0</ele><time>2026-04-04T19:49:26.285Z</time></trkpt><trkpt lat="34.3865767" lon="10.0463083"><ele>60.0</ele><time>2026-04-04T19:49:27.285Z</time></trkpt><trkpt lat="34.38637" lon="10.0460717"><ele>60.0</ele><time>2026-04-04T19:49:28.284Z</time></trkpt><trkpt lat="34.3861633" lon="10.0458417"><ele>59.0</ele><time>2026-04-04T19:49:29.282Z</time></trkpt><trkpt lat="34.3859533" lon="10.0456167"><ele>58.0</ele><time>2026-04-04T19:49:30.286Z</time></trkpt><trkpt lat="34.3857383" lon="10.0454"><ele>58.0</ele><time>2026-04-04T19:49:31.285Z</time></trkpt><trkpt lat="34.3855233" lon="10.0451867"><ele>58.0</ele><time>2026-04-04T19:49:32.285Z</time></trkpt><trkpt lat="34.3853067" lon="10.04498"><ele>59.5</ele><time>2026-04-04T19:49:33.284Z</time></trkpt><trkpt lat="34.385085" lon="10.04478"><ele>61.0</ele><time>2026-04-04T19:49:34.282Z</time></trkpt><trkpt lat="34.3848633" lon="10.044585"><ele>60.5</ele><time>2026-04-04T19:49:35.282Z</time></trkpt><trkpt lat="34.38464" lon="10.0443917"><ele>60.0</ele><time>2026-04-04T19:49:36.282Z</time></trkpt><trkpt lat="34.3844167" lon="10.0442"><ele>60.0</ele><time>2026-04-04T19:49:37.282Z</time></trkpt><trkpt lat="34.38419" lon="10.04401"><ele>60.0</ele><time>2026-04-04T19:49:38.282Z</time></trkpt><trkpt lat="34.38396" lon="10.043815"><ele>60.0</ele><time>2026-04-04T19:49:39.284Z</time></trkpt><trkpt lat="34.383725" lon="10.0436167"><ele>60.0</ele><time>2026-04-04T19:49:40.283Z</time></trkpt><trkpt lat="34.383485" lon="10.0434167"><ele>59.5</ele><time>2026-04-04T19:49:41.283Z</time></trkpt><trkpt lat="34.3832433" lon="10.0432183"><ele>59.0</ele><time>2026-04-04T19:49:42.282Z</time></trkpt><trkpt lat="34.383005" lon="10.04302"><ele>59.0</ele><time>2026-04-04T19:49:43.282Z</time></trkpt><trkpt lat="34.3827683" lon="10.0428217"><ele>59.0</ele><time>2026-04-04T19:49:44.283Z</time></trkpt><trkpt lat="34.3825333" lon="10.0426233"><ele>59.0</ele><time>2026-04-04T19:49:45.285Z</time></trkpt><trkpt lat="34.3823" lon="10.0424267"><ele>59.0</ele><time>2026-04-04T19:49:46.286Z</time></trkpt><trkpt lat="34.382065" lon="10.0422283"><ele>59.0</ele><time>2026-04-04T19:49:47.287Z</time></trkpt><trkpt lat="34.3818283" lon="10.04203"><ele>59.0</ele><time>2026-04-04T19:49:48.285Z</time></trkpt><trkpt lat="34.38159" lon="10.0418317"><ele>59.0</ele><time>2026-04-04T19:49:49.286Z</time></trkpt><trkpt lat="34.381355" lon="10.0416317"><ele>59.0</ele><time>2026-04-04T19:49:50.286Z</time></trkpt><trkpt lat="34.3811133" lon="10.0414317"><ele>59.0</ele><time>2026-04-04T19:49:51.285Z</time></trkpt><trkpt lat="34.3808733" lon="10.0412267"><ele>59.0</ele><time>2026-04-04T19:49:52.285Z</time></trkpt><trkpt lat="34.3806283" lon="10.04102"><ele>59.0</ele><time>2026-04-04T19:49:53.284Z</time></trkpt><trkpt lat="34.380385" lon="10.040815"><ele>59.0</ele><time>2026-04-04T19:49:54.283Z</time></trkpt><trkpt lat="34.3801383" lon="10.0406083"><ele>59.0</ele><time>2026-04-04T19:49:55.285Z</time></trkpt><trkpt lat="34.37989" lon="10.0404"><ele>59.0</ele><time>2026-04-04T19:49:56.285Z</time></trkpt><trkpt lat="34.3796417" lon="10.04019"><ele>59.0</ele><time>2026-04-04T19:49:57.285Z</time></trkpt><trkpt lat="34.37939" lon="10.03998"><ele>59.0</ele><time>2026-04-04T19:49:58.285Z</time></trkpt><trkpt lat="34.3791383" lon="10.0397683"><ele>59.5</ele><time>2026-04-04T19:49:59.286Z</time></trkpt><trkpt lat="34.378885" lon="10.03956"><ele>60.0</ele><time>2026-04-04T19:50:00.286Z</time></trkpt><trkpt lat="34.3786317" lon="10.03935"><ele>60.0</ele><time>2026-04-04T19:50:01.285Z</time></trkpt><trkpt lat="34.37838" lon="10.03914"><ele>60.0</ele><time>2026-04-04T19:50:02.285Z</time></trkpt><trkpt lat="34.3781267" lon="10.0389317"><ele>61.0</ele><time>2026-04-04T19:50:03.286Z</time></trkpt><trkpt lat="34.377875" lon="10.038725"><ele>62.0</ele><time>2026-04-04T19:50:04.283Z</time></trkpt><trkpt lat="34.3776267" lon="10.0385183"><ele>62.0</ele><time>2026-04-04T19:50:05.282Z</time></trkpt><trkpt lat="34.37738" lon="10.0383133"><ele>62.0</ele><time>2026-04-04T19:50:06.283Z</time></trkpt><trkpt lat="34.3771367" lon="10.0381083"><ele>61.0</ele><time>2026-04-04T19:50:07.283Z</time></trkpt><trkpt lat="34.376895" lon="10.037905"><ele>60.0</ele><time>2026-04-04T19:50:08.282Z</time></trkpt><trkpt lat="34.3766583" lon="10.0377067"><ele>60.0</ele><time>2026-04-04T19:50:09.283Z</time></trkpt><trkpt lat="34.376425" lon="10.0375117"><ele>60.0</ele><time>2026-04-04T19:50:10.282Z</time></trkpt><trkpt lat="34.3761917" lon="10.0373133"><ele>60.0</ele><time>2026-04-04T19:50:11.282Z</time></trkpt><trkpt lat="34.3759533" lon="10.0371117"><ele>60.0</ele><time>2026-04-04T19:50:12.282Z</time></trkpt><trkpt lat="34.3757067" lon="10.036905"><ele>60.0</ele><time>2026-04-04T19:50:13.283Z</time></trkpt><trkpt lat="34.37546" lon="10.0367"><ele>60.0</ele><time>2026-04-04T19:50:14.282Z</time></trkpt><trkpt lat="34.37521" lon="10.0364917"><ele>60.0</ele><time>2026-04-04T19:50:15.285Z</time></trkpt><trkpt lat="34.3749633" lon="10.036285"><ele>60.0</ele><time>2026-04-04T19:50:16.286Z</time></trkpt><trkpt lat="34.374715" lon="10.03608"><ele>60.0</ele><time>2026-04-04T19:50:17.286Z</time></trkpt><trkpt lat="34.3744617" lon="10.0358783"><ele>60.0</ele><time>2026-04-04T19:50:18.286Z</time></trkpt><trkpt lat="34.37421" lon="10.035675"><ele>60.0</ele><time>2026-04-04T19:50:19.285Z</time></trkpt><trkpt lat="34.3739567" lon="10.0354733"><ele>60.0</ele><time>2026-04-04T19:50:20.286Z</time></trkpt><trkpt lat="34.3737017" lon="10.03527"><ele>60.0</ele><time>2026-04-04T19:50:21.285Z</time></trkpt><trkpt lat="34.37345" lon="10.0350667"><ele>60.0</ele><time>2026-04-04T19:50:22.286Z</time></trkpt><trkpt lat="34.373195" lon="10.0348617"><ele>60.5</ele><time>2026-04-04T19:50:23.285Z</time></trkpt><trkpt lat="34.37294" lon="10.0346583"><ele>61.0</ele><time>2026-04-04T19:50:24.285Z</time></trkpt><trkpt lat="34.372685" lon="10.034455"><ele>61.0</ele><time>2026-04-04T19:50:25.285Z</time></trkpt><trkpt lat="34.3724267" lon="10.0342533"><ele>61.0</ele><time>2026-04-04T19:50:26.285Z</time></trkpt><trkpt lat="34.3721667" lon="10.0340517"><ele>61.5</ele><time>2026-04-04T19:50:27.285Z</time></trkpt><trkpt lat="34.3719067" lon="10.0338517"><ele>62.0</ele><time>2026-04-04T19:50:28.285Z</time></trkpt><trkpt lat="34.3716483" lon="10.0336483"><ele>62.0</ele><time>2026-04-04T19:50:29.285Z</time></trkpt><trkpt lat="34.3713883" lon="10.0334467"><ele>62.0</ele><time>2026-04-04T19:50:30.285Z</time></trkpt><trkpt lat="34.3711267" lon="10.0332483"><ele>60.5</ele><time>2026-04-04T19:50:31.282Z</time></trkpt><trkpt lat="34.3708667" lon="10.03305"><ele>59.0</ele><time>2026-04-04T19:50:32.286Z</time></trkpt><trkpt lat="34.3706083" lon="10.032855"><ele>59.0</ele><time>2026-04-04T19:50:33.285Z</time></trkpt><trkpt lat="34.37035" lon="10.0326567"><ele>59.0</ele><time>2026-04-04T19:50:34.283Z</time></trkpt><trkpt lat="34.370095" lon="10.03246"><ele>59.0</ele><time>2026-04-04T19:50:35.283Z</time></trkpt><trkpt lat="34.3698433" lon="10.032265"><ele>59.0</ele><time>2026-04-04T19:50:36.283Z</time></trkpt><trkpt lat="34.3695917" lon="10.0320717"><ele>59.5</ele><time>2026-04-04T19:50:37.282Z</time></trkpt><trkpt lat="34.369345" lon="10.0318767"><ele>60.0</ele><time>2026-04-04T19:50:38.283Z</time></trkpt><trkpt lat="34.3690967" lon="10.031685"><ele>59.0</ele><time>2026-04-04T19:50:39.283Z</time></trkpt><trkpt lat="34.3688467" lon="10.031495"><ele>58.0</ele><time>2026-04-04T19:50:40.283Z</time></trkpt><trkpt lat="34.3685967" lon="10.0313017"><ele>58.0</ele><time>2026-04-04T19:50:41.283Z</time></trkpt><trkpt lat="34.368345" lon="10.0311083"><ele>58.0</ele><time>2026-04-04T19:50:42.284Z</time></trkpt><trkpt lat="34.36809" lon="10.0309133"><ele>58.0</ele><time>2026-04-04T19:50:43.284Z</time></trkpt><trkpt lat="34.3678333" lon="10.0307183"><ele>58.0</ele><time>2026-04-04T19:50:44.283Z</time></trkpt><trkpt lat="34.3675783" lon="10.0305233"><ele>58.0</ele><time>2026-04-04T19:50:45.283Z</time></trkpt><trkpt lat="34.3673267" lon="10.03033"><ele>58.0</ele><time>2026-04-04T19:50:46.284Z</time></trkpt><trkpt lat="34.3670767" lon="10.030135"><ele>57.0</ele><time>2026-04-04T19:50:47.283Z</time></trkpt><trkpt lat="34.36683" lon="10.0299433"><ele>56.0</ele><time>2026-04-04T19:50:48.284Z</time></trkpt><trkpt lat="34.366585" lon="10.0297533"><ele>56.0</ele><time>2026-04-04T19:50:49.283Z</time></trkpt><trkpt lat="34.3663383" lon="10.0295633"><ele>56.0</ele><time>2026-04-04T19:50:50.285Z</time></trkpt><trkpt lat="34.3660933" lon="10.0293717"><ele>56.0</ele><time>2026-04-04T19:50:51.283Z</time></trkpt><trkpt lat="34.3658467" lon="10.0291833"><ele>56.0</ele><time>2026-04-04T19:50:52.286Z</time></trkpt><trkpt lat="34.3655983" lon="10.0289933"><ele>56.5</ele><time>2026-04-04T19:50:53.285Z</time></trkpt><trkpt lat="34.36535" lon="10.0288017"><ele>57.0</ele><time>2026-04-04T19:50:54.285Z</time></trkpt><trkpt lat="34.3651017" lon="10.02861"><ele>57.0</ele><time>2026-04-04T19:50:55.286Z</time></trkpt><trkpt lat="34.36485" lon="10.0284183"><ele>57.0</ele><time>2026-04-04T19:50:56.285Z</time></trkpt><trkpt lat="34.3645983" lon="10.0282267"><ele>56.5</ele><time>2026-04-04T19:50:57.286Z</time></trkpt><trkpt lat="34.364345" lon="10.0280367"><ele>56.0</ele><time>2026-04-04T19:50:58.285Z</time></trkpt><trkpt lat="34.3640917" lon="10.0278467"><ele>56.0</ele><time>2026-04-04T19:50:59.286Z</time></trkpt><trkpt lat="34.3638367" lon="10.0276567"><ele>56.0</ele><time>2026-04-04T19:51:00.285Z</time></trkpt><trkpt lat="34.3635833" lon="10.0274617"><ele>56.0</ele><time>2026-04-04T19:51:01.284Z</time></trkpt><trkpt lat="34.3633283" lon="10.0272667"><ele>56.0</ele><time>2026-04-04T19:51:02.284Z</time></trkpt><trkpt lat="34.3630717" lon="10.0270717"><ele>57.5</ele><time>2026-04-04T19:51:03.283Z</time></trkpt><trkpt lat="34.3628167" lon="10.0268767"><ele>59.0</ele><time>2026-04-04T19:51:04.282Z</time></trkpt><trkpt lat="34.3625617" lon="10.0266817"><ele>59.0</ele><time>2026-04-04T19:51:05.282Z</time></trkpt><trkpt lat="34.3623083" lon="10.0264883"><ele>59.0</ele><time>2026-04-04T19:51:06.282Z</time></trkpt><trkpt lat="34.3620567" lon="10.0262967"><ele>59.0</ele><time>2026-04-04T19:51:07.283Z</time></trkpt><trkpt lat="34.3618083" lon="10.026105"><ele>59.0</ele><time>2026-04-04T19:51:08.281Z</time></trkpt><trkpt lat="34.3615567" lon="10.0259133"><ele>58.0</ele><time>2026-04-04T19:51:09.282Z</time></trkpt><trkpt lat="34.36131" lon="10.0257233"><ele>57.0</ele><time>2026-04-04T19:51:10.282Z</time></trkpt><trkpt lat="34.361065" lon="10.0255333"><ele>57.0</ele><time>2026-04-04T19:51:11.282Z</time></trkpt><trkpt lat="34.3608183" lon="10.0253467"><ele>57.0</ele><time>2026-04-04T19:51:12.283Z</time></trkpt><trkpt lat="34.3605717" lon="10.0251583"><ele>55.5</ele><time>2026-04-04T19:51:13.282Z</time></trkpt><trkpt lat="34.3603217" lon="10.0249683"><ele>54.0</ele><time>2026-04-04T19:51:14.282Z</time></trkpt><trkpt lat="34.3600733" lon="10.0247767"><ele>54.0</ele><time>2026-04-04T19:51:15.285Z</time></trkpt><trkpt lat="34.359825" lon="10.024585"><ele>54.0</ele><time>2026-04-04T19:51:16.282Z</time></trkpt><trkpt lat="34.359575" lon="10.0243933"><ele>54.0</ele><time>2026-04-04T19:51:17.285Z</time></trkpt><trkpt lat="34.3593267" lon="10.0242033"><ele>54.0</ele><time>2026-04-04T19:51:18.282Z</time></trkpt><trkpt lat="34.35908" lon="10.0240117"><ele>53.0</ele><time>2026-04-04T19:51:19.284Z</time></trkpt><trkpt lat="34.3588333" lon="10.02382"><ele>52.0</ele><time>2026-04-04T19:51:20.284Z</time></trkpt><trkpt lat="34.35859" lon="10.023625"><ele>52.0</ele><time>2026-04-04T19:51:21.284Z</time></trkpt><trkpt lat="34.3583417" lon="10.0234333"><ele>52.0</ele><time>2026-04-04T19:51:22.284Z</time></trkpt><trkpt lat="34.3580917" lon="10.02324"><ele>52.5</ele><time>2026-04-04T19:51:23.285Z</time></trkpt><trkpt lat="34.35784" lon="10.0230467"><ele>53.0</ele><time>2026-04-04T19:51:24.285Z</time></trkpt><trkpt lat="34.357585" lon="10.0228533"><ele>53.0</ele><time>2026-04-04T19:51:25.284Z</time></trkpt><trkpt lat="34.3573317" lon="10.02266"><ele>53.0</ele><time>2026-04-04T19:51:26.284Z</time></trkpt><trkpt lat="34.3570767" lon="10.0224667"><ele>53.5</ele><time>2026-04-04T19:51:27.285Z</time></trkpt><trkpt lat="34.3568233" lon="10.022275"><ele>54.0</ele><time>2026-04-04T19:51:28.285Z</time></trkpt><trkpt lat="34.3565733" lon="10.0220817"><ele>53.5</ele><time>2026-04-04T19:51:29.282Z</time></trkpt><trkpt lat="34.3563233" lon="10.02189"><ele>53.0</ele><time>2026-04-04T19:51:30.283Z</time></trkpt><trkpt lat="34.3560717" lon="10.0216983"><ele>53.0</ele><time>2026-04-04T19:51:31.282Z</time></trkpt><trkpt lat="34.3558217" lon="10.0215067"><ele>53.0</ele><time>2026-04-04T19:51:32.282Z</time></trkpt><trkpt lat="34.35557" lon="10.0213133"><ele>52.0</ele><time>2026-04-04T19:51:33.282Z</time></trkpt><trkpt lat="34.35532" lon="10.0211183"><ele>51.0</ele><time>2026-04-04T19:51:34.284Z</time></trkpt><trkpt lat="34.355065" lon="10.0209217"><ele>51.5</ele><time>2026-04-04T19:51:35.283Z</time></trkpt><trkpt lat="34.3548067" lon="10.0207267"><ele>52.0</ele><time>2026-04-04T19:51:36.283Z</time></trkpt><trkpt lat="34.3545483" lon="10.0205283"><ele>52.0</ele><time>2026-04-04T19:51:37.283Z</time></trkpt><trkpt lat="34.3542867" lon="10.0203317"><ele>52.0</ele><time>2026-04-04T19:51:38.282Z</time></trkpt><trkpt lat="34.3540283" lon="10.0201333"><ele>52.0</ele><time>2026-04-04T19:51:39.282Z</time></trkpt><trkpt lat="34.3537717" lon="10.0199333"><ele>52.0</ele><time>2026-04-04T19:51:40.285Z</time></trkpt><trkpt lat="34.3535133" lon="10.019735"><ele>52.0</ele><time>2026-04-04T19:51:41.285Z</time></trkpt><trkpt lat="34.3532533" lon="10.01954"><ele>52.0</ele><time>2026-04-04T19:51:42.285Z</time></trkpt><trkpt lat="34.3529933" lon="10.0193467"><ele>51.5</ele><time>2026-04-04T19:51:43.284Z</time></trkpt><trkpt lat="34.3527383" lon="10.01915"><ele>51.0</ele><time>2026-04-04T19:51:44.286Z</time></trkpt><trkpt lat="34.3524867" lon="10.01896"><ele>51.0</ele><time>2026-04-04T19:51:45.284Z</time></trkpt><trkpt lat="34.35224" lon="10.0187717"><ele>51.0</ele><time>2026-04-04T19:51:46.286Z</time></trkpt><trkpt lat="34.3519967" lon="10.0185817"><ele>51.0</ele><time>2026-04-04T19:51:47.285Z</time></trkpt><trkpt lat="34.3517483" lon="10.0183917"><ele>51.0</ele><time>2026-04-04T19:51:48.284Z</time></trkpt><trkpt lat="34.3514967" lon="10.0181967"><ele>50.5</ele><time>2026-04-04T19:51:49.285Z</time></trkpt><trkpt lat="34.3512433" lon="10.0180033"><ele>50.0</ele><time>2026-04-04T19:51:50.283Z</time></trkpt><trkpt lat="34.3509917" lon="10.01781"><ele>50.0</ele><time>2026-04-04T19:51:51.284Z</time></trkpt><trkpt lat="34.3507367" lon="10.017615"><ele>50.0</ele><time>2026-04-04T19:51:52.282Z</time></trkpt><trkpt lat="34.3504817" lon="10.01742"><ele>49.0</ele><time>2026-04-04T19:51:53.282Z</time></trkpt><trkpt lat="34.350225" lon="10.017225"><ele>48.0</ele><time>2026-04-04T19:51:54.284Z</time></trkpt><trkpt lat="34.3499733" lon="10.017025"><ele>48.0</ele><time>2026-04-04T19:51:55.284Z</time></trkpt><trkpt lat="34.34972" lon="10.01683"><ele>48.0</ele><time>2026-04-04T19:51:56.285Z</time></trkpt><trkpt lat="34.3494667" lon="10.0166333"><ele>48.5</ele><time>2026-04-04T19:51:57.285Z</time></trkpt><trkpt lat="34.3492117" lon="10.0164383"><ele>49.0</ele><time>2026-04-04T19:51:58.285Z</time></trkpt><trkpt lat="34.34896" lon="10.0162433"><ele>49.0</ele><time>2026-04-04T19:51:59.286Z</time></trkpt><trkpt lat="34.3487083" lon="10.0160517"><ele>49.0</ele><time>2026-04-04T19:52:00.282Z</time></trkpt><trkpt lat="34.348455" lon="10.0158583"><ele>49.0</ele><time>2026-04-04T19:52:01.285Z</time></trkpt><trkpt lat="34.3482033" lon="10.015665"><ele>49.0</ele><time>2026-04-04T19:52:02.285Z</time></trkpt><trkpt lat="34.34795" lon="10.01547"><ele>49.0</ele><time>2026-04-04T19:52:03.282Z</time></trkpt><trkpt lat="34.3476967" lon="10.015275"><ele>49.0</ele><time>2026-04-04T19:52:04.282Z</time></trkpt><trkpt lat="34.3474433" lon="10.0150817"><ele>49.0</ele><time>2026-04-04T19:52:05.283Z</time></trkpt><trkpt lat="34.3471867" lon="10.01489"><ele>49.0</ele><time>2026-04-04T19:52:06.282Z</time></trkpt><trkpt lat="34.3469317" lon="10.0146983"><ele>49.0</ele><time>2026-04-04T19:52:07.282Z</time></trkpt><trkpt lat="34.3466783" lon="10.0145067"><ele>49.0</ele><time>2026-04-04T19:52:08.281Z</time></trkpt><trkpt lat="34.346425" lon="10.0143117"><ele>49.0</ele><time>2026-04-04T19:52:09.283Z</time></trkpt><trkpt lat="34.3461717" lon="10.0141183"><ele>49.0</ele><time>2026-04-04T19:52:10.285Z</time></trkpt><trkpt lat="34.3459167" lon="10.0139217"><ele>49.0</ele><time>2026-04-04T19:52:11.285Z</time></trkpt><trkpt lat="34.3456633" lon="10.013725"><ele>49.0</ele><time>2026-04-04T19:52:12.286Z</time></trkpt><trkpt lat="34.3454083" lon="10.01353"><ele>49.0</ele><time>2026-04-04T19:52:13.282Z</time></trkpt><trkpt lat="34.3451583" lon="10.01334"><ele>49.0</ele><time>2026-04-04T19:52:14.281Z</time></trkpt><trkpt lat="34.3449083" lon="10.01315"><ele>48.5</ele><time>2026-04-04T19:52:15.284Z</time></trkpt><trkpt lat="34.34466" lon="10.0129617"><ele>48.0</ele><time>2026-04-04T19:52:16.285Z</time></trkpt><trkpt lat="34.344415" lon="10.0127717"><ele>48.0</ele><time>2026-04-04T19:52:17.285Z</time></trkpt><trkpt lat="34.3441667" lon="10.0125817"><ele>48.0</ele><time>2026-04-04T19:52:18.285Z</time></trkpt><trkpt lat="34.3439183" lon="10.01239"><ele>48.0</ele><time>2026-04-04T19:52:19.283Z</time></trkpt><trkpt lat="34.3436667" lon="10.012205"><ele>48.0</ele><time>2026-04-04T19:52:20.283Z</time></trkpt><trkpt lat="34.343415" lon="10.01202"><ele>48.0</ele><time>2026-04-04T19:52:21.286Z</time></trkpt><trkpt lat="34.3431617" lon="10.0118383"><ele>48.0</ele><time>2026-04-04T19:52:22.285Z</time></trkpt><trkpt lat="34.3429117" lon="10.0116567"><ele>48.5</ele><time>2026-04-04T19:52:23.285Z</time></trkpt><trkpt lat="34.3426617" lon="10.0114783"><ele>49.0</ele><time>2026-04-04T19:52:24.283Z</time></trkpt><trkpt lat="34.3424083" lon="10.0113017"><ele>49.0</ele><time>2026-04-04T19:52:25.286Z</time></trkpt><trkpt lat="34.3421567" lon="10.01113"><ele>49.0</ele><time>2026-04-04T19:52:26.285Z</time></trkpt><trkpt lat="34.3419033" lon="10.0109583"><ele>48.5</ele><time>2026-04-04T19:52:27.286Z</time></trkpt><trkpt lat="34.3416483" lon="10.01079"><ele>48.0</ele><time>2026-04-04T19:52:28.282Z</time></trkpt><trkpt lat="34.341395" lon="10.0106233"><ele>49.5</ele><time>2026-04-04T19:52:29.288Z</time></trkpt><trkpt lat="34.3411433" lon="10.0104583"><ele>51.0</ele><time>2026-04-04T19:52:30.285Z</time></trkpt><trkpt lat="34.3408933" lon="10.0102933"><ele>51.0</ele><time>2026-04-04T19:52:31.285Z</time></trkpt><trkpt lat="34.3406417" lon="10.010135"><ele>51.0</ele><time>2026-04-04T19:52:32.285Z</time></trkpt><trkpt lat="34.34039" lon="10.0099783"><ele>50.0</ele><time>2026-04-04T19:52:33.285Z</time></trkpt><trkpt lat="34.3401383" lon="10.0098267"><ele>49.0</ele><time>2026-04-04T19:52:34.285Z</time></trkpt><trkpt lat="34.33989" lon="10.009675"><ele>49.0</ele><time>2026-04-04T19:52:35.285Z</time></trkpt><trkpt lat="34.33964" lon="10.009525"><ele>49.0</ele><time>2026-04-04T19:52:36.286Z</time></trkpt><trkpt lat="34.3393917" lon="10.0093767"><ele>49.0</ele><time>2026-04-04T19:52:37.285Z</time></trkpt><trkpt lat="34.339145" lon="10.0092333"><ele>49.0</ele><time>2026-04-04T19:52:38.285Z</time></trkpt><trkpt lat="34.3389" lon="10.0090917"><ele>50.0</ele><time>2026-04-04T19:52:39.285Z</time></trkpt><trkpt lat="34.3386533" lon="10.0089533"><ele>51.0</ele><time>2026-04-04T19:52:40.281Z</time></trkpt><trkpt lat="34.3384083" lon="10.0088183"><ele>51.0</ele><time>2026-04-04T19:52:41.285Z</time></trkpt><trkpt lat="34.338165" lon="10.0086867"><ele>51.0</ele><time>2026-04-04T19:52:42.285Z</time></trkpt><trkpt lat="34.33792" lon="10.00855"><ele>51.0</ele><time>2026-04-04T19:52:43.286Z</time></trkpt><trkpt lat="34.3376717" lon="10.008415"><ele>51.0</ele><time>2026-04-04T19:52:44.286Z</time></trkpt><trkpt lat="34.3374183" lon="10.0082833"><ele>51.0</ele><time>2026-04-04T19:52:45.282Z</time></trkpt><trkpt lat="34.33717" lon="10.0081567"><ele>51.0</ele><time>2026-04-04T19:52:46.285Z</time></trkpt><trkpt lat="34.3369217" lon="10.0080367"><ele>51.0</ele><time>2026-04-04T19:52:47.285Z</time></trkpt><trkpt lat="34.33667" lon="10.0079167"><ele>51.0</ele><time>2026-04-04T19:52:48.285Z</time></trkpt><trkpt lat="34.3364133" lon="10.0077967"><ele>51.0</ele><time>2026-04-04T19:52:49.285Z</time></trkpt><trkpt lat="34.336155" lon="10.0076767"><ele>51.0</ele><time>2026-04-04T19:52:50.286Z</time></trkpt><trkpt lat="34.335895" lon="10.007555"><ele>50.0</ele><time>2026-04-04T19:52:51.283Z</time></trkpt><trkpt lat="34.335635" lon="10.0074333"><ele>49.0</ele><time>2026-04-04T19:52:52.282Z</time></trkpt><trkpt lat="34.3353717" lon="10.0073133"><ele>48.5</ele><time>2026-04-04T19:52:53.283Z</time></trkpt><trkpt lat="34.33511" lon="10.0071933"><ele>48.0</ele><time>2026-04-04T19:52:54.285Z</time></trkpt><trkpt lat="34.334845" lon="10.0070767"><ele>47.0</ele><time>2026-04-04T19:52:55.283Z</time></trkpt><trkpt lat="34.33458" lon="10.00696"><ele>46.0</ele><time>2026-04-04T19:52:56.282Z</time></trkpt><trkpt lat="34.3343133" lon="10.0068467"><ele>46.0</ele><time>2026-04-04T19:52:57.283Z</time></trkpt><trkpt lat="34.3340467" lon="10.0067367"><ele>46.0</ele><time>2026-04-04T19:52:58.285Z</time></trkpt><trkpt lat="34.3337783" lon="10.0066283"><ele>47.0</ele><time>2026-04-04T19:52:59.285Z</time></trkpt><trkpt lat="34.33351" lon="10.0065217"><ele>48.0</ele><time>2026-04-04T19:53:00.285Z</time></trkpt><trkpt lat="34.33324" lon="10.0064167"><ele>48.5</ele><time>2026-04-04T19:53:01.285Z</time></trkpt><trkpt lat="34.3329683" lon="10.0063167"><ele>49.0</ele><time>2026-04-04T19:53:02.285Z</time></trkpt><trkpt lat="34.332695" lon="10.0062167"><ele>49.0</ele><time>2026-04-04T19:53:03.286Z</time></trkpt><trkpt lat="34.3324167" lon="10.0061183"><ele>49.0</ele><time>2026-04-04T19:53:04.285Z</time></trkpt><trkpt lat="34.3321367" lon="10.006025"><ele>47.5</ele><time>2026-04-04T19:53:05.286Z</time></trkpt><trkpt lat="34.3318533" lon="10.0059317"><ele>46.0</ele><time>2026-04-04T19:53:06.286Z</time></trkpt><trkpt lat="34.3315683" lon="10.0058367"><ele>47.0</ele><time>2026-04-04T19:53:07.284Z</time></trkpt><trkpt lat="34.33128" lon="10.0057433"><ele>48.0</ele><time>2026-04-04T19:53:08.286Z</time></trkpt><trkpt lat="34.3309883" lon="10.0056533"><ele>48.0</ele><time>2026-04-04T19:53:09.285Z</time></trkpt><trkpt lat="34.3306983" lon="10.0055633"><ele>48.0</ele><time>2026-04-04T19:53:10.285Z</time></trkpt><trkpt lat="34.3304083" lon="10.0054767"><ele>48.0</ele><time>2026-04-04T19:53:11.285Z</time></trkpt><trkpt lat="34.33012" lon="10.00539"><ele>48.0</ele><time>2026-04-04T19:53:12.286Z</time></trkpt><trkpt lat="34.329835" lon="10.00531"><ele>48.0</ele><time>2026-04-04T19:53:13.285Z</time></trkpt><trkpt lat="34.329555" lon="10.0052333"><ele>48.0</ele><time>2026-04-04T19:53:14.285Z</time></trkpt><trkpt lat="34.3292733" lon="10.0051583"><ele>48.0</ele><time>2026-04-04T19:53:15.285Z</time></trkpt><trkpt lat="34.3289933" lon="10.0050867"><ele>48.0</ele><time>2026-04-04T19:53:16.285Z</time></trkpt><trkpt lat="34.3287133" lon="10.0050133"><ele>47.0</ele><time>2026-04-04T19:53:17.285Z</time></trkpt><trkpt lat="34.3284333" lon="10.0049367"><ele>46.0</ele><time>2026-04-04T19:53:18.285Z</time></trkpt><trkpt lat="34.3281567" lon="10.0048667"><ele>46.5</ele><time>2026-04-04T19:53:19.285Z</time></trkpt><trkpt lat="34.3278767" lon="10.0048017"><ele>47.0</ele><time>2026-04-04T19:53:20.286Z</time></trkpt><trkpt lat="34.327595" lon="10.0047317"><ele>47.0</ele><time>2026-04-04T19:53:21.286Z</time></trkpt><trkpt lat="34.3273083" lon="10.004665"><ele>47.0</ele><time>2026-04-04T19:53:22.283Z</time></trkpt><trkpt lat="34.32702" lon="10.004605"><ele>47.0</ele><time>2026-04-04T19:53:23.285Z</time></trkpt><trkpt lat="34.3267283" lon="10.0045467"><ele>47.0</ele><time>2026-04-04T19:53:24.286Z</time></trkpt><trkpt lat="34.3264317" lon="10.0044917"><ele>47.5</ele><time>2026-04-04T19:53:25.282Z</time></trkpt><trkpt lat="34.3261383" lon="10.00444"><ele>48.0</ele><time>2026-04-04T19:53:26.285Z</time></trkpt><trkpt lat="34.3258483" lon="10.00439"><ele>47.5</ele><time>2026-04-04T19:53:27.285Z</time></trkpt><trkpt lat="34.3255567" lon="10.004345"><ele>47.0</ele><time>2026-04-04T19:53:28.286Z</time></trkpt><trkpt lat="34.3252633" lon="10.0043"><ele>47.0</ele><time>2026-04-04T19:53:29.285Z</time></trkpt><trkpt lat="34.32497" lon="10.0042567"><ele>47.0</ele><time>2026-04-04T19:53:30.285Z</time></trkpt><trkpt lat="34.3246783" lon="10.0042183"><ele>47.5</ele><time>2026-04-04T19:53:31.283Z</time></trkpt><trkpt lat="34.3243867" lon="10.0041783"><ele>48.0</ele><time>2026-04-04T19:53:32.285Z</time></trkpt><trkpt lat="34.3240917" lon="10.0041383"><ele>48.0</ele><time>2026-04-04T19:53:33.285Z</time></trkpt><trkpt lat="34.3237983" lon="10.0040983"><ele>48.0</ele><time>2026-04-04T19:53:34.286Z</time></trkpt><trkpt lat="34.3235033" lon="10.0040567"><ele>48.0</ele><time>2026-04-04T19:53:35.285Z</time></trkpt><trkpt lat="34.32321" lon="10.004015"><ele>48.0</ele><time>2026-04-04T19:53:36.285Z</time></trkpt><trkpt lat="34.3229133" lon="10.00397"><ele>48.0</ele><time>2026-04-04T19:53:37.285Z</time></trkpt><trkpt lat="34.3226183" lon="10.0039267"><ele>48.0</ele><time>2026-04-04T19:53:38.285Z</time></trkpt><trkpt lat="34.3223233" lon="10.003885"><ele>48.5</ele><time>2026-04-04T19:53:39.285Z</time></trkpt><trkpt lat="34.3220267" lon="10.0038433"><ele>49.0</ele><time>2026-04-04T19:53:40.285Z</time></trkpt><trkpt lat="34.3217283" lon="10.0038017"><ele>49.0</ele><time>2026-04-04T19:53:41.284Z</time></trkpt><trkpt lat="34.3214267" lon="10.00376"><ele>49.0</ele><time>2026-04-04T19:53:42.285Z</time></trkpt><trkpt lat="34.3211233" lon="10.0037167"><ele>48.5</ele><time>2026-04-04T19:53:43.285Z</time></trkpt><trkpt lat="34.32082" lon="10.0036733"><ele>48.0</ele><time>2026-04-04T19:53:44.286Z</time></trkpt><trkpt lat="34.3205183" lon="10.00363"><ele>47.5</ele><time>2026-04-04T19:53:45.285Z</time></trkpt><trkpt lat="34.3202133" lon="10.0035867"><ele>47.0</ele><time>2026-04-04T19:53:46.285Z</time></trkpt><trkpt lat="34.31991" lon="10.0035417"><ele>47.0</ele><time>2026-04-04T19:53:47.286Z</time></trkpt><trkpt lat="34.319605" lon="10.0034967"><ele>47.0</ele><time>2026-04-04T19:53:48.285Z</time></trkpt><trkpt lat="34.3192983" lon="10.0034517"><ele>47.0</ele><time>2026-04-04T19:53:49.286Z</time></trkpt><trkpt lat="34.3189917" lon="10.00341"><ele>47.0</ele><time>2026-04-04T19:53:50.285Z</time></trkpt><trkpt lat="34.3186867" lon="10.0033683"><ele>47.0</ele><time>2026-04-04T19:53:51.286Z</time></trkpt><trkpt lat="34.3183783" lon="10.0033283"><ele>47.0</ele><time>2026-04-04T19:53:52.286Z</time></trkpt><trkpt lat="34.3180683" lon="10.0032867"><ele>47.0</ele><time>2026-04-04T19:53:53.286Z</time></trkpt><trkpt lat="34.3177583" lon="10.003245"><ele>47.0</ele><time>2026-04-04T19:53:54.286Z</time></trkpt><trkpt lat="34.31745" lon="10.0032017"><ele>47.0</ele><time>2026-04-04T19:53:55.286Z</time></trkpt><trkpt lat="34.31714" lon="10.0031567"><ele>47.0</ele><time>2026-04-04T19:53:56.285Z</time></trkpt><trkpt lat="34.31683" lon="10.0031133"><ele>47.0</ele><time>2026-04-04T19:53:57.286Z</time></trkpt><trkpt lat="34.31652" lon="10.0030683"><ele>47.0</ele><time>2026-04-04T19:53:58.285Z</time></trkpt><trkpt lat="34.3162167" lon="10.003025"><ele>46.5</ele><time>2026-04-04T19:53:59.285Z</time></trkpt><trkpt lat="34.3159233" lon="10.002985"><ele>46.0</ele><time>2026-04-04T19:54:00.285Z</time></trkpt><trkpt lat="34.31563" lon="10.0029433"><ele>45.5</ele><time>2026-04-04T19:54:01.285Z</time></trkpt><trkpt lat="34.315335" lon="10.0029017"><ele>45.0</ele><time>2026-04-04T19:54:02.282Z</time></trkpt><trkpt lat="34.315035" lon="10.00286"><ele>45.0</ele><time>2026-04-04T19:54:03.285Z</time></trkpt><trkpt lat="34.3147317" lon="10.0028167"><ele>45.0</ele><time>2026-04-04T19:54:04.286Z</time></trkpt><trkpt lat="34.314425" lon="10.0027733"><ele>45.0</ele><time>2026-04-04T19:54:05.282Z</time></trkpt><trkpt lat="34.3141183" lon="10.0027317"><ele>45.0</ele><time>2026-04-04T19:54:06.282Z</time></trkpt><trkpt lat="34.3138083" lon="10.002685"><ele>44.5</ele><time>2026-04-04T19:54:07.287Z</time></trkpt><trkpt lat="34.313495" lon="10.0026383"><ele>44.0</ele><time>2026-04-04T19:54:08.284Z</time></trkpt><trkpt lat="34.3131767" lon="10.0025933"><ele>44.0</ele><time>2026-04-04T19:54:09.285Z</time></trkpt><trkpt lat="34.3128567" lon="10.0025467"><ele>44.0</ele><time>2026-04-04T19:54:10.281Z</time></trkpt><trkpt lat="34.312535" lon="10.0025"><ele>44.0</ele><time>2026-04-04T19:54:11.284Z</time></trkpt><trkpt lat="34.3122117" lon="10.002455"><ele>44.0</ele><time>2026-04-04T19:54:12.285Z</time></trkpt><trkpt lat="34.3118867" lon="10.0024117"><ele>44.0</ele><time>2026-04-04T19:54:13.284Z</time></trkpt><trkpt lat="34.3115667" lon="10.0023683"><ele>44.0</ele><time>2026-04-04T19:54:14.284Z</time></trkpt><trkpt lat="34.3112433" lon="10.002325"><ele>43.5</ele><time>2026-04-04T19:54:15.284Z</time></trkpt><trkpt lat="34.3109233" lon="10.00228"><ele>43.0</ele><time>2026-04-04T19:54:16.283Z</time></trkpt><trkpt lat="34.3106033" lon="10.0022383"><ele>42.0</ele><time>2026-04-04T19:54:17.285Z</time></trkpt><trkpt lat="34.3102867" lon="10.002195"><ele>41.0</ele><time>2026-04-04T19:54:18.282Z</time></trkpt><trkpt lat="34.309975" lon="10.00215"><ele>41.0</ele><time>2026-04-04T19:54:19.285Z</time></trkpt><trkpt lat="34.3096667" lon="10.002105"><ele>41.0</ele><time>2026-04-04T19:54:20.281Z</time></trkpt><trkpt lat="34.3093683" lon="10.00206"><ele>41.0</ele><time>2026-04-04T19:54:21.284Z</time></trkpt><trkpt lat="34.3090783" lon="10.0020183"><ele>41.0</ele><time>2026-04-04T19:54:22.282Z</time></trkpt><trkpt lat="34.3087867" lon="10.0019767"><ele>41.5</ele><time>2026-04-04T19:54:23.283Z</time></trkpt><trkpt lat="34.30849" lon="10.0019367"><ele>42.0</ele><time>2026-04-04T19:54:24.282Z</time></trkpt><trkpt lat="34.30819" lon="10.00189"><ele>42.0</ele><time>2026-04-04T19:54:25.286Z</time></trkpt><trkpt lat="34.30789" lon="10.001845"><ele>42.0</ele><time>2026-04-04T19:54:26.284Z</time></trkpt><trkpt lat="34.307585" lon="10.0018017"><ele>42.0</ele><time>2026-04-04T19:54:27.284Z</time></trkpt><trkpt lat="34.30728" lon="10.00176"><ele>42.0</ele><time>2026-04-04T19:54:28.284Z</time></trkpt><trkpt lat="34.306975" lon="10.0017183"><ele>41.0</ele><time>2026-04-04T19:54:29.284Z</time></trkpt><trkpt lat="34.3066667" lon="10.001675"><ele>40.0</ele><time>2026-04-04T19:54:30.285Z</time></trkpt><trkpt lat="34.306355" lon="10.0016317"><ele>39.5</ele><time>2026-04-04T19:54:31.285Z</time></trkpt><trkpt lat="34.3060417" lon="10.0015867"><ele>39.0</ele><time>2026-04-04T19:54:32.284Z</time></trkpt><trkpt lat="34.3057283" lon="10.0015417"><ele>39.5</ele><time>2026-04-04T19:54:33.284Z</time></trkpt><trkpt lat="34.3054233" lon="10.0014983"><ele>40.0</ele><time>2026-04-04T19:54:34.281Z</time></trkpt><trkpt lat="34.3051183" lon="10.0014517"><ele>40.0</ele><time>2026-04-04T19:54:35.285Z</time></trkpt><trkpt lat="34.3048167" lon="10.0014033"><ele>40.0</ele><time>2026-04-04T19:54:36.285Z</time></trkpt><trkpt lat="34.3045117" lon="10.0013583"><ele>39.5</ele><time>2026-04-04T19:54:37.286Z</time></trkpt><trkpt lat="34.3042083" lon="10.001315"><ele>39.0</ele><time>2026-04-04T19:54:38.285Z</time></trkpt><trkpt lat="34.3039033" lon="10.001275"><ele>39.0</ele><time>2026-04-04T19:54:39.284Z</time></trkpt><trkpt lat="34.3035983" lon="10.001235"><ele>39.0</ele><time>2026-04-04T19:54:40.284Z</time></trkpt><trkpt lat="34.3032917" lon="10.001195"><ele>39.0</ele><time>2026-04-04T19:54:41.286Z</time></trkpt><trkpt lat="34.3029833" lon="10.0011533"><ele>39.0</ele><time>2026-04-04T19:54:42.285Z</time></trkpt><trkpt lat="34.3026733" lon="10.00111"><ele>39.0</ele><time>2026-04-04T19:54:43.284Z</time></trkpt><trkpt lat="34.302365" lon="10.0010667"><ele>39.0</ele><time>2026-04-04T19:54:44.285Z</time></trkpt><trkpt lat="34.3020567" lon="10.0010233"><ele>38.5</ele><time>2026-04-04T19:54:45.285Z</time></trkpt><trkpt lat="34.30175" lon="10.0009817"><ele>38.0</ele><time>2026-04-04T19:54:46.282Z</time></trkpt><trkpt lat="34.301445" lon="10.0009367"><ele>38.0</ele><time>2026-04-04T19:54:47.283Z</time></trkpt><trkpt lat="34.30114" lon="10.0008917"><ele>38.0</ele><time>2026-04-04T19:54:48.285Z</time></trkpt><trkpt lat="34.3008317" lon="10.0008483"><ele>38.5</ele><time>2026-04-04T19:54:49.286Z</time></trkpt><trkpt lat="34.3005217" lon="10.0008067"><ele>39.0</ele><time>2026-04-04T19:54:50.284Z</time></trkpt><trkpt lat="34.3002117" lon="10.000765"><ele>39.0</ele><time>2026-04-04T19:54:51.284Z</time></trkpt><trkpt lat="34.2999033" lon="10.00072"><ele>39.0</ele><time>2026-04-04T19:54:52.284Z</time></trkpt><trkpt lat="34.299595" lon="10.0006767"><ele>38.5</ele><time>2026-04-04T19:54:53.284Z</time></trkpt><trkpt lat="34.2992883" lon="10.0006317"><ele>38.0</ele><time>2026-04-04T19:54:54.286Z</time></trkpt><trkpt lat="34.2989817" lon="10.0005883"><ele>38.0</ele><time>2026-04-04T19:54:55.284Z</time></trkpt><trkpt lat="34.2986767" lon="10.0005467"><ele>38.0</ele><time>2026-04-04T19:54:56.285Z</time></trkpt><trkpt lat="34.2983733" lon="10.0005033"><ele>38.0</ele><time>2026-04-04T19:54:57.282Z</time></trkpt><trkpt lat="34.2980717" lon="10.0004617"><ele>38.0</ele><time>2026-04-04T19:54:58.284Z</time></trkpt><trkpt lat="34.2977683" lon="10.0004167"><ele>38.0</ele><time>2026-04-04T19:54:59.286Z</time></trkpt><trkpt lat="34.2974667" lon="10.0003717"><ele>38.0</ele><time>2026-04-04T19:55:00.285Z</time></trkpt><trkpt lat="34.297165" lon="10.0003283"><ele>37.5</ele><time>2026-04-04T19:55:01.285Z</time></trkpt><trkpt lat="34.2968633" lon="10.0002883"><ele>37.0</ele><time>2026-04-04T19:55:02.285Z</time></trkpt><trkpt lat="34.29656" lon="10.0002467"><ele>36.5</ele><time>2026-04-04T19:55:03.282Z</time></trkpt><trkpt lat="34.2962583" lon="10.0002033"><ele>36.0</ele><time>2026-04-04T19:55:04.284Z</time></trkpt><trkpt lat="34.2959583" lon="10.0001583"><ele>36.0</ele><time>2026-04-04T19:55:05.285Z</time></trkpt><trkpt lat="34.2956583" lon="10.0001133"><ele>36.0</ele><time>2026-04-04T19:55:06.285Z</time></trkpt><trkpt lat="34.2953583" lon="10.0000683"><ele>36.0</ele><time>2026-04-04T19:55:07.285Z</time></trkpt><trkpt lat="34.29506" lon="10.0000267"><ele>36.0</ele><time>2026-04-04T19:55:08.285Z</time></trkpt><trkpt lat="34.2947633" lon="9.9999867"><ele>36.0</ele><time>2026-04-04T19:55:09.282Z</time></trkpt><trkpt lat="34.29446" lon="9.99994"><ele>36.0</ele><time>2026-04-04T19:55:10.284Z</time></trkpt><trkpt lat="34.294155" lon="9.999895"><ele>35.0</ele><time>2026-04-04T19:55:11.286Z</time></trkpt><trkpt lat="34.2938533" lon="9.9998533"><ele>34.0</ele><time>2026-04-04T19:55:12.285Z</time></trkpt><trkpt lat="34.2935533" lon="9.9998117"><ele>34.0</ele><time>2026-04-04T19:55:13.286Z</time></trkpt><trkpt lat="34.293255" lon="9.9997733"><ele>34.0</ele><time>2026-04-04T19:55:14.281Z</time></trkpt><trkpt lat="34.2929567" lon="9.9997317"><ele>33.5</ele><time>2026-04-04T19:55:15.283Z</time></trkpt><trkpt lat="34.292655" lon="9.99969"><ele>33.0</ele><time>2026-04-04T19:55:16.282Z</time></trkpt><trkpt lat="34.2923517" lon="9.999645"><ele>33.0</ele><time>2026-04-04T19:55:17.282Z</time></trkpt><trkpt lat="34.292045" lon="9.9996"><ele>33.0</ele><time>2026-04-04T19:55:18.284Z</time></trkpt><trkpt lat="34.2917367" lon="9.9995517"><ele>32.5</ele><time>2026-04-04T19:55:19.283Z</time></trkpt><trkpt lat="34.2914233" lon="9.9994967"><ele>32.0</ele><time>2026-04-04T19:55:20.281Z</time></trkpt><trkpt lat="34.2911083" lon="9.9994333"><ele>32.0</ele><time>2026-04-04T19:55:21.285Z</time></trkpt><trkpt lat="34.2907933" lon="9.999365"><ele>32.0</ele><time>2026-04-04T19:55:22.282Z</time></trkpt><trkpt lat="34.2904817" lon="9.9992933"><ele>32.0</ele><time>2026-04-04T19:55:23.282Z</time></trkpt><trkpt lat="34.29017" lon="9.9992183"><ele>32.0</ele><time>2026-04-04T19:55:24.283Z</time></trkpt><trkpt lat="34.2898583" lon="9.9991383"><ele>31.5</ele><time>2026-04-04T19:55:25.282Z</time></trkpt><trkpt lat="34.289545" lon="9.9990533"><ele>31.0</ele><time>2026-04-04T19:55:26.283Z</time></trkpt><trkpt lat="34.2892283" lon="9.9989617"><ele>30.5</ele><time>2026-04-04T19:55:27.282Z</time></trkpt><trkpt lat="34.2889133" lon="9.9988667"><ele>30.0</ele><time>2026-04-04T19:55:28.283Z</time></trkpt><trkpt lat="34.2885967" lon="9.998765"><ele>30.0</ele><time>2026-04-04T19:55:29.283Z</time></trkpt><trkpt lat="34.2882817" lon="9.99866"><ele>30.0</ele><time>2026-04-04T19:55:30.282Z</time></trkpt><trkpt lat="34.2879717" lon="9.998555"><ele>29.0</ele><time>2026-04-04T19:55:31.285Z</time></trkpt><trkpt lat="34.287665" lon="9.99845"><ele>28.0</ele><time>2026-04-04T19:55:32.286Z</time></trkpt><trkpt lat="34.2873667" lon="9.9983417"><ele>28.5</ele><time>2026-04-04T19:55:33.286Z</time></trkpt><trkpt lat="34.2870717" lon="9.99823"><ele>29.0</ele><time>2026-04-04T19:55:34.286Z</time></trkpt><trkpt lat="34.28678" lon="9.998115"><ele>29.0</ele><time>2026-04-04T19:55:35.286Z</time></trkpt><trkpt lat="34.2864867" lon="9.9979933"><ele>29.0</ele><time>2026-04-04T19:55:36.285Z</time></trkpt><trkpt lat="34.2861917" lon="9.9978683"><ele>28.0</ele><time>2026-04-04T19:55:37.285Z</time></trkpt><trkpt lat="34.285895" lon="9.9977367"><ele>27.0</ele><time>2026-04-04T19:55:38.281Z</time></trkpt><trkpt lat="34.2856033" lon="9.9976017"><ele>27.0</ele><time>2026-04-04T19:55:39.285Z</time></trkpt><trkpt lat="34.2853133" lon="9.9974717"><ele>27.0</ele><time>2026-04-04T19:55:40.285Z</time></trkpt><trkpt lat="34.2850233" lon="9.9973417"><ele>26.5</ele><time>2026-04-04T19:55:41.286Z</time></trkpt><trkpt lat="34.2847317" lon="9.997215"><ele>26.0</ele><time>2026-04-04T19:55:42.286Z</time></trkpt><trkpt lat="34.2844383" lon="9.9970867"><ele>26.0</ele><time>2026-04-04T19:55:43.285Z</time></trkpt><trkpt lat="34.284145" lon="9.9969617"><ele>26.0</ele><time>2026-04-04T19:55:44.285Z</time></trkpt><trkpt lat="34.283855" lon="9.9968333"><ele>26.0</ele><time>2026-04-04T19:55:45.285Z</time></trkpt><trkpt lat="34.2835683" lon="9.9967067"><ele>26.0</ele><time>2026-04-04T19:55:46.286Z</time></trkpt><trkpt lat="34.2832833" lon="9.99658"><ele>25.5</ele><time>2026-04-04T19:55:47.286Z</time></trkpt><trkpt lat="34.283" lon="9.996455"><ele>25.0</ele><time>2026-04-04T19:55:48.285Z</time></trkpt><trkpt lat="34.2827217" lon="9.9963333"><ele>25.0</ele><time>2026-04-04T19:55:49.285Z</time></trkpt><trkpt lat="34.282445" lon="9.9962083"><ele>25.0</ele><time>2026-04-04T19:55:50.285Z</time></trkpt><trkpt lat="34.2821683" lon="9.9960883"><ele>24.5</ele><time>2026-04-04T19:55:51.285Z</time></trkpt><trkpt lat="34.2818917" lon="9.9959683"><ele>24.0</ele><time>2026-04-04T19:55:52.285Z</time></trkpt><trkpt lat="34.2816183" lon="9.9958483"><ele>24.5</ele><time>2026-04-04T19:55:53.286Z</time></trkpt><trkpt lat="34.2813417" lon="9.995725"><ele>25.0</ele><time>2026-04-04T19:55:54.282Z</time></trkpt><trkpt lat="34.281065" lon="9.995605"><ele>25.0</ele><time>2026-04-04T19:55:55.285Z</time></trkpt><trkpt lat="34.2807883" lon="9.9954867"><ele>25.0</ele><time>2026-04-04T19:55:56.285Z</time></trkpt><trkpt lat="34.280515" lon="9.99536"><ele>24.5</ele><time>2026-04-04T19:55:57.286Z</time></trkpt><trkpt lat="34.28024" lon="9.9952417"><ele>24.0</ele><time>2026-04-04T19:55:58.286Z</time></trkpt><trkpt lat="34.279965" lon="9.9951217"><ele>24.5</ele><time>2026-04-04T19:55:59.285Z</time></trkpt><trkpt lat="34.2796967" lon="9.9950033"><ele>25.0</ele><time>2026-04-04T19:56:00.287Z</time></trkpt><trkpt lat="34.2794333" lon="9.99489"><ele>25.0</ele><time>2026-04-04T19:56:01.285Z</time></trkpt><trkpt lat="34.2791717" lon="9.9947767"><ele>25.0</ele><time>2026-04-04T19:56:02.285Z</time></trkpt><trkpt lat="34.2789067" lon="9.994665"><ele>24.5</ele><time>2026-04-04T19:56:03.283Z</time></trkpt><trkpt lat="34.2786383" lon="9.9945517"><ele>24.0</ele><time>2026-04-04T19:56:04.282Z</time></trkpt><trkpt lat="34.27837" lon="9.994435"><ele>24.0</ele><time>2026-04-04T19:56:05.282Z</time></trkpt><trkpt lat="34.2781033" lon="9.9943183"><ele>24.0</ele><time>2026-04-04T19:56:06.282Z</time></trkpt><trkpt lat="34.277835" lon="9.9942017"><ele>24.0</ele><time>2026-04-04T19:56:07.284Z</time></trkpt><trkpt lat="34.2775667" lon="9.9940833"><ele>24.0</ele><time>2026-04-04T19:56:08.283Z</time></trkpt><trkpt lat="34.277295" lon="9.9939633"><ele>24.0</ele><time>2026-04-04T19:56:09.282Z</time></trkpt><trkpt lat="34.2770183" lon="9.993845"><ele>24.0</ele><time>2026-04-04T19:56:10.286Z</time></trkpt><trkpt lat="34.2767383" lon="9.9937233"><ele>24.0</ele><time>2026-04-04T19:56:11.285Z</time></trkpt><trkpt lat="34.2764567" lon="9.9936017"><ele>24.0</ele><time>2026-04-04T19:56:12.286Z</time></trkpt><trkpt lat="34.276175" lon="9.99348"><ele>23.5</ele><time>2026-04-04T19:56:13.286Z</time></trkpt><trkpt lat="34.275895" lon="9.9933617"><ele>23.0</ele><time>2026-04-04T19:56:14.286Z</time></trkpt><trkpt lat="34.27562" lon="9.99324"><ele>23.0</ele><time>2026-04-04T19:56:15.285Z</time></trkpt><trkpt lat="34.275345" lon="9.9931183"><ele>23.0</ele><time>2026-04-04T19:56:16.285Z</time></trkpt><trkpt lat="34.275075" lon="9.9930017"><ele>23.0</ele><time>2026-04-04T19:56:17.285Z</time></trkpt><trkpt lat="34.27481" lon="9.9928867"><ele>23.0</ele><time>2026-04-04T19:56:18.286Z</time></trkpt><trkpt lat="34.2745483" lon="9.9927717"><ele>21.5</ele><time>2026-04-04T19:56:19.285Z</time></trkpt><trkpt lat="34.2742867" lon="9.992655"><ele>20.0</ele><time>2026-04-04T19:56:20.285Z</time></trkpt><trkpt lat="34.2740183" lon="9.9925383"><ele>20.0</ele><time>2026-04-04T19:56:21.285Z</time></trkpt><trkpt lat="34.2737483" lon="9.9924233"><ele>20.0</ele><time>2026-04-04T19:56:22.286Z</time></trkpt><trkpt lat="34.273475" lon="9.992305"><ele>20.0</ele><time>2026-04-04T19:56:23.285Z</time></trkpt><trkpt lat="34.2731983" lon="9.99219"><ele>20.0</ele><time>2026-04-04T19:56:24.285Z</time></trkpt><trkpt lat="34.2729233" lon="9.9920767"><ele>20.0</ele><time>2026-04-04T19:56:25.282Z</time></trkpt><trkpt lat="34.2726567" lon="9.9919617"><ele>20.0</ele><time>2026-04-04T19:56:26.283Z</time></trkpt><trkpt lat="34.2723883" lon="9.9918483"><ele>20.0</ele><time>2026-04-04T19:56:27.285Z</time></trkpt><trkpt lat="34.2721167" lon="9.9917333"><ele>20.0</ele><time>2026-04-04T19:56:28.285Z</time></trkpt><trkpt lat="34.2718433" lon="9.9916167"><ele>20.5</ele><time>2026-04-04T19:56:29.286Z</time></trkpt><trkpt lat="34.2715617" lon="9.9914967"><ele>21.0</ele><time>2026-04-04T19:56:30.285Z</time></trkpt><trkpt lat="34.27128" lon="9.991375"><ele>21.0</ele><time>2026-04-04T19:56:31.287Z</time></trkpt><trkpt lat="34.2710017" lon="9.9912533"><ele>21.0</ele><time>2026-04-04T19:56:32.285Z</time></trkpt><trkpt lat="34.2707283" lon="9.9911317"><ele>21.0</ele><time>2026-04-04T19:56:33.284Z</time></trkpt><trkpt lat="34.2704583" lon="9.9910117"><ele>21.0</ele><time>2026-04-04T19:56:34.283Z</time></trkpt><trkpt lat="34.2701933" lon="9.9908933"><ele>21.5</ele><time>2026-04-04T19:56:35.283Z</time></trkpt><trkpt lat="34.2699283" lon="9.990775"><ele>22.0</ele><time>2026-04-04T19:56:36.284Z</time></trkpt><trkpt lat="34.269665" lon="9.9906567"><ele>22.0</ele><time>2026-04-04T19:56:37.284Z</time></trkpt><trkpt lat="34.2693983" lon="9.99054"><ele>22.0</ele><time>2026-04-04T19:56:38.282Z</time></trkpt><trkpt lat="34.2691283" lon="9.990425"><ele>21.5</ele><time>2026-04-04T19:56:39.283Z</time></trkpt><trkpt lat="34.2688567" lon="9.9903067"><ele>21.0</ele><time>2026-04-04T19:56:40.287Z</time></trkpt><trkpt lat="34.2685817" lon="9.99019"><ele>21.0</ele><time>2026-04-04T19:56:41.283Z</time></trkpt><trkpt lat="34.2683067" lon="9.9900733"><ele>21.0</ele><time>2026-04-04T19:56:42.282Z</time></trkpt><trkpt lat="34.2680317" lon="9.9899533"><ele>21.0</ele><time>2026-04-04T19:56:43.286Z</time></trkpt><trkpt lat="34.267755" lon="9.98983"><ele>21.0</ele><time>2026-04-04T19:56:44.285Z</time></trkpt><trkpt lat="34.2674783" lon="9.9897033"><ele>21.5</ele><time>2026-04-04T19:56:45.285Z</time></trkpt><trkpt lat="34.2672033" lon="9.9895733"><ele>22.0</ele><time>2026-04-04T19:56:46.286Z</time></trkpt><trkpt lat="34.2669283" lon="9.9894467"><ele>22.0</ele><time>2026-04-04T19:56:47.283Z</time></trkpt><trkpt lat="34.26665" lon="9.989325"><ele>22.0</ele><time>2026-04-04T19:56:48.285Z</time></trkpt><trkpt lat="34.26637" lon="9.9892067"><ele>23.0</ele><time>2026-04-04T19:56:49.286Z</time></trkpt><trkpt lat="34.2660883" lon="9.989085"><ele>24.0</ele><time>2026-04-04T19:56:50.282Z</time></trkpt><trkpt lat="34.265805" lon="9.9889667"><ele>23.5</ele><time>2026-04-04T19:56:51.285Z</time></trkpt><trkpt lat="34.2655183" lon="9.98885"><ele>23.0</ele><time>2026-04-04T19:56:52.283Z</time></trkpt><trkpt lat="34.2652317" lon="9.988735"><ele>23.0</ele><time>2026-04-04T19:56:53.285Z</time></trkpt><trkpt lat="34.264945" lon="9.9886267"><ele>23.0</ele><time>2026-04-04T19:56:54.286Z</time></trkpt><trkpt lat="34.2646567" lon="9.98852"><ele>22.5</ele><time>2026-04-04T19:56:55.285Z</time></trkpt><trkpt lat="34.2643683" lon="9.9884167"><ele>22.0</ele><time>2026-04-04T19:56:56.285Z</time></trkpt><trkpt lat="34.2640783" lon="9.988315"><ele>22.0</ele><time>2026-04-04T19:56:57.285Z</time></trkpt><trkpt lat="34.2637883" lon="9.9882167"><ele>22.0</ele><time>2026-04-04T19:56:58.285Z</time></trkpt><trkpt lat="34.263495" lon="9.9881217"><ele>22.0</ele><time>2026-04-04T19:56:59.283Z</time></trkpt><trkpt lat="34.2632033" lon="9.9880317"><ele>22.0</ele><time>2026-04-04T19:57:00.286Z</time></trkpt><trkpt lat="34.2629133" lon="9.9879433"><ele>21.5</ele><time>2026-04-04T19:57:01.288Z</time></trkpt><trkpt lat="34.26262" lon="9.98786"><ele>21.0</ele><time>2026-04-04T19:57:02.286Z</time></trkpt><trkpt lat="34.2623267" lon="9.9877783"><ele>21.0</ele><time>2026-04-04T19:57:03.282Z</time></trkpt><trkpt lat="34.2620317" lon="9.987705"><ele>21.0</ele><time>2026-04-04T19:57:04.283Z</time></trkpt><trkpt lat="34.2617333" lon="9.9876317"><ele>21.0</ele><time>2026-04-04T19:57:05.283Z</time></trkpt><trkpt lat="34.2614333" lon="9.9875633"><ele>21.0</ele><time>2026-04-04T19:57:06.283Z</time></trkpt><trkpt lat="34.2611317" lon="9.9874967"><ele>21.0</ele><time>2026-04-04T19:57:07.284Z</time></trkpt><trkpt lat="34.2608317" lon="9.9874333"><ele>21.0</ele><time>2026-04-04T19:57:08.282Z</time></trkpt><trkpt lat="34.26053" lon="9.9873733"><ele>21.0</ele><time>2026-04-04T19:57:09.283Z</time></trkpt><trkpt lat="34.260235" lon="9.9873133"><ele>21.0</ele><time>2026-04-04T19:57:10.284Z</time></trkpt><trkpt lat="34.2599383" lon="9.9872583"><ele>20.5</ele><time>2026-04-04T19:57:11.282Z</time></trkpt><trkpt lat="34.2596433" lon="9.987205"><ele>20.0</ele><time>2026-04-04T19:57:12.285Z</time></trkpt><trkpt lat="34.25935" lon="9.9871517"><ele>20.0</ele><time>2026-04-04T19:57:13.281Z</time></trkpt><trkpt lat="34.2590533" lon="9.9870983"><ele>20.0</ele><time>2026-04-04T19:57:14.285Z</time></trkpt><trkpt lat="34.2587533" lon="9.9870467"><ele>19.0</ele><time>2026-04-04T19:57:15.284Z</time></trkpt><trkpt lat="34.2584567" lon="9.9869933"><ele>18.0</ele><time>2026-04-04T19:57:16.284Z</time></trkpt><trkpt lat="34.2581683" lon="9.9869383"><ele>18.5</ele><time>2026-04-04T19:57:17.285Z</time></trkpt><trkpt lat="34.2578833" lon="9.9868833"><ele>19.0</ele><time>2026-04-04T19:57:18.284Z</time></trkpt><trkpt lat="34.2575967" lon="9.986825"><ele>19.0</ele><time>2026-04-04T19:57:19.285Z</time></trkpt><trkpt lat="34.2573083" lon="9.9867717"><ele>19.0</ele><time>2026-04-04T19:57:20.284Z</time></trkpt><trkpt lat="34.2570183" lon="9.9867183"><ele>19.5</ele><time>2026-04-04T19:57:21.285Z</time></trkpt><trkpt lat="34.2567283" lon="9.9866633"><ele>20.0</ele><time>2026-04-04T19:57:22.284Z</time></trkpt><trkpt lat="34.25644" lon="9.9866083"><ele>20.0</ele><time>2026-04-04T19:57:23.284Z</time></trkpt><trkpt lat="34.2561517" lon="9.9865517"><ele>20.0</ele><time>2026-04-04T19:57:24.286Z</time></trkpt><trkpt lat="34.255865" lon="9.9864967"><ele>20.0</ele><time>2026-04-04T19:57:25.284Z</time></trkpt><trkpt lat="34.2555767" lon="9.98644"><ele>20.0</ele><time>2026-04-04T19:57:26.284Z</time></trkpt><trkpt lat="34.2552867" lon="9.9863867"><ele>20.0</ele><time>2026-04-04T19:57:27.284Z</time></trkpt><trkpt lat="34.2549967" lon="9.9863367"><ele>20.0</ele><time>2026-04-04T19:57:28.284Z</time></trkpt><trkpt lat="34.2547083" lon="9.9862867"><ele>20.5</ele><time>2026-04-04T19:57:29.286Z</time></trkpt><trkpt lat="34.254425" lon="9.9862367"><ele>21.0</ele><time>2026-04-04T19:57:30.287Z</time></trkpt><trkpt lat="34.254145" lon="9.9861867"><ele>21.5</ele><time>2026-04-04T19:57:31.284Z</time></trkpt><trkpt lat="34.2538667" lon="9.9861383"><ele>22.0</ele><time>2026-04-04T19:57:32.286Z</time></trkpt><trkpt lat="34.2535867" lon="9.9860883"><ele>22.0</ele><time>2026-04-04T19:57:33.281Z</time></trkpt><trkpt lat="34.2533033" lon="9.98604"><ele>22.0</ele><time>2026-04-04T19:57:34.281Z</time></trkpt><trkpt lat="34.25302" lon="9.9859933"><ele>22.0</ele><time>2026-04-04T19:57:35.283Z</time></trkpt><trkpt lat="34.2527367" lon="9.9859467"><ele>22.0</ele><time>2026-04-04T19:57:36.281Z</time></trkpt><trkpt lat="34.2524483" lon="9.9858967"><ele>22.0</ele><time>2026-04-04T19:57:37.284Z</time></trkpt><trkpt lat="34.2521583" lon="9.9858467"><ele>22.0</ele><time>2026-04-04T19:57:38.281Z</time></trkpt><trkpt lat="34.2518667" lon="9.985795"><ele>22.5</ele><time>2026-04-04T19:57:39.282Z</time></trkpt><trkpt lat="34.251575" lon="9.9857417"><ele>23.0</ele><time>2026-04-04T19:57:40.286Z</time></trkpt><trkpt lat="34.2512783" lon="9.9856883"><ele>23.5</ele><time>2026-04-04T19:57:41.284Z</time></trkpt><trkpt lat="34.2509817" lon="9.985635"><ele>24.0</ele><time>2026-04-04T19:57:42.285Z</time></trkpt><trkpt lat="34.2506817" lon="9.98558"><ele>24.5</ele><time>2026-04-04T19:57:43.284Z</time></trkpt><trkpt lat="34.2503817" lon="9.9855283"><ele>25.0</ele><time>2026-04-04T19:57:44.284Z</time></trkpt><trkpt lat="34.2500817" lon="9.9854733"><ele>26.5</ele><time>2026-04-04T19:57:45.286Z</time></trkpt><trkpt lat="34.2497817" lon="9.9854183"><ele>28.0</ele><time>2026-04-04T19:57:46.285Z</time></trkpt><trkpt lat="34.2494783" lon="9.9853617"><ele>28.0</ele><time>2026-04-04T19:57:47.285Z</time></trkpt><trkpt lat="34.24917" lon="9.9853033"><ele>28.0</ele><time>2026-04-04T19:57:48.285Z</time></trkpt><trkpt lat="34.2488617" lon="9.9852417"><ele>30.0</ele><time>2026-04-04T19:57:49.286Z</time></trkpt><trkpt lat="34.2485567" lon="9.9851817"><ele>32.0</ele><time>2026-04-04T19:57:50.284Z</time></trkpt><trkpt lat="34.2482533" lon="9.9851233"><ele>32.0</ele><time>2026-04-04T19:57:51.286Z</time></trkpt><trkpt lat="34.2479517" lon="9.9850633"><ele>32.0</ele><time>2026-04-04T19:57:52.285Z</time></trkpt><trkpt lat="34.2476517" lon="9.9850033"><ele>32.0</ele><time>2026-04-04T19:57:53.285Z</time></trkpt><trkpt lat="34.2473517" lon="9.9849417"><ele>32.0</ele><time>2026-04-04T19:57:54.286Z</time></trkpt><trkpt lat="34.24705" lon="9.9848883"><ele>32.5</ele><time>2026-04-04T19:57:55.285Z</time></trkpt><trkpt lat="34.2467467" lon="9.98484"><ele>33.0</ele><time>2026-04-04T19:57:56.285Z</time></trkpt><trkpt lat="34.2464383" lon="9.984785"><ele>33.5</ele><time>2026-04-04T19:57:57.285Z</time></trkpt><trkpt lat="34.2461283" lon="9.98473"><ele>34.0</ele><time>2026-04-04T19:57:58.284Z</time></trkpt><trkpt lat="34.2458167" lon="9.9846717"><ele>34.0</ele><time>2026-04-04T19:57:59.285Z</time></trkpt><trkpt lat="34.2455067" lon="9.9846167"><ele>34.0</ele><time>2026-04-04T19:58:00.285Z</time></trkpt><trkpt lat="34.2452017" lon="9.9845617"><ele>34.0</ele><time>2026-04-04T19:58:01.285Z</time></trkpt><trkpt lat="34.2448983" lon="9.98451"><ele>34.0</ele><time>2026-04-04T19:58:02.284Z</time></trkpt><trkpt lat="34.2445967" lon="9.984455"><ele>33.5</ele><time>2026-04-04T19:58:03.285Z</time></trkpt><trkpt lat="34.2442967" lon="9.9844"><ele>33.0</ele><time>2026-04-04T19:58:04.286Z</time></trkpt><trkpt lat="34.243995" lon="9.9843433"><ele>33.5</ele><time>2026-04-04T19:58:05.283Z</time></trkpt><trkpt lat="34.2436933" lon="9.9842867"><ele>34.0</ele><time>2026-04-04T19:58:06.282Z</time></trkpt><trkpt lat="34.243395" lon="9.9842317"><ele>33.5</ele><time>2026-04-04T19:58:07.285Z</time></trkpt><trkpt lat="34.2431" lon="9.9841767"><ele>33.0</ele><time>2026-04-04T19:58:08.285Z</time></trkpt><trkpt lat="34.242805" lon="9.98412"><ele>33.0</ele><time>2026-04-04T19:58:09.286Z</time></trkpt><trkpt lat="34.24251" lon="9.984065"><ele>33.0</ele><time>2026-04-04T19:58:10.285Z</time></trkpt><trkpt lat="34.2422117" lon="9.9840083"><ele>32.5</ele><time>2026-04-04T19:58:11.282Z</time></trkpt><trkpt lat="34.2419133" lon="9.9839533"><ele>32.0</ele><time>2026-04-04T19:58:12.285Z</time></trkpt><trkpt lat="34.2416133" lon="9.9838967"><ele>31.0</ele><time>2026-04-04T19:58:13.283Z</time></trkpt><trkpt lat="34.241315" lon="9.98384"><ele>30.0</ele><time>2026-04-04T19:58:14.282Z</time></trkpt><trkpt lat="34.2410183" lon="9.983785"><ele>30.0</ele><time>2026-04-04T19:58:15.282Z</time></trkpt><trkpt lat="34.2407217" lon="9.9837317"><ele>30.0</ele><time>2026-04-04T19:58:16.284Z</time></trkpt><trkpt lat="34.2404217" lon="9.98368"><ele>27.0</ele><time>2026-04-04T19:58:17.282Z</time></trkpt><trkpt lat="34.24012" lon="9.98363"><ele>24.0</ele><time>2026-04-04T19:58:18.283Z</time></trkpt><trkpt lat="34.239815" lon="9.98358"><ele>22.5</ele><time>2026-04-04T19:58:19.282Z</time></trkpt><trkpt lat="34.23951" lon="9.983535"><ele>21.0</ele><time>2026-04-04T19:58:20.283Z</time></trkpt><trkpt lat="34.239205" lon="9.9834933"><ele>21.0</ele><time>2026-04-04T19:58:21.282Z</time></trkpt><trkpt lat="34.2389" lon="9.9834533"><ele>21.0</ele><time>2026-04-04T19:58:22.282Z</time></trkpt><trkpt lat="34.2385967" lon="9.983415"><ele>21.0</ele><time>2026-04-04T19:58:23.282Z</time></trkpt><trkpt lat="34.2382933" lon="9.9833817"><ele>21.0</ele><time>2026-04-04T19:58:24.282Z</time></trkpt><trkpt lat="34.23799" lon="9.98335"><ele>22.5</ele><time>2026-04-04T19:58:25.282Z</time></trkpt><trkpt lat="34.237685" lon="9.98332"><ele>24.0</ele><time>2026-04-04T19:58:26.283Z</time></trkpt><trkpt lat="34.2373783" lon="9.9832933"><ele>24.0</ele><time>2026-04-04T19:58:27.283Z</time></trkpt><trkpt lat="34.237075" lon="9.98327"><ele>24.0</ele><time>2026-04-04T19:58:28.285Z</time></trkpt><trkpt lat="34.2367683" lon="9.9832517"><ele>24.0</ele><time>2026-04-04T19:58:29.286Z</time></trkpt><trkpt lat="34.23646" lon="9.983235"><ele>24.0</ele><time>2026-04-04T19:58:30.286Z</time></trkpt><trkpt lat="34.2361533" lon="9.9832183"><ele>24.0</ele><time>2026-04-04T19:58:31.286Z</time></trkpt><trkpt lat="34.235845" lon="9.9832033"><ele>24.0</ele><time>2026-04-04T19:58:32.285Z</time></trkpt><trkpt lat="34.2355383" lon="9.9831883"><ele>24.5</ele><time>2026-04-04T19:58:33.285Z</time></trkpt><trkpt lat="34.2352317" lon="9.9831767"><ele>25.0</ele><time>2026-04-04T19:58:34.284Z</time></trkpt><trkpt lat="34.2349233" lon="9.9831617"><ele>24.0</ele><time>2026-04-04T19:58:35.285Z</time></trkpt><trkpt lat="34.23461" lon="9.98315"><ele>23.0</ele><time>2026-04-04T19:58:36.285Z</time></trkpt><trkpt lat="34.2342933" lon="9.983135"><ele>23.0</ele><time>2026-04-04T19:58:37.282Z</time></trkpt><trkpt lat="34.2339683" lon="9.9831217"><ele>23.0</ele><time>2026-04-04T19:58:38.286Z</time></trkpt><trkpt lat="34.2336367" lon="9.9831083"><ele>23.0</ele><time>2026-04-04T19:58:39.285Z</time></trkpt><trkpt lat="34.2332967" lon="9.9830933"><ele>23.0</ele><time>2026-04-04T19:58:40.281Z</time></trkpt><trkpt lat="34.2329483" lon="9.983075"><ele>23.5</ele><time>2026-04-04T19:58:41.285Z</time></trkpt><trkpt lat="34.2325983" lon="9.9830567"><ele>24.0</ele><time>2026-04-04T19:58:42.285Z</time></trkpt><trkpt lat="34.2322517" lon="9.9830383"><ele>25.0</ele><time>2026-04-04T19:58:43.284Z</time></trkpt><trkpt lat="34.2319083" lon="9.9830183"><ele>26.0</ele><time>2026-04-04T19:58:44.282Z</time></trkpt><trkpt lat="34.2315733" lon="9.9829983"><ele>24.5</ele><time>2026-04-04T19:58:45.282Z</time></trkpt><trkpt lat="34.2312433" lon="9.98298"><ele>23.0</ele><time>2026-04-04T19:58:46.282Z</time></trkpt><trkpt lat="34.2309167" lon="9.9829633"><ele>23.5</ele><time>2026-04-04T19:58:47.283Z</time></trkpt><trkpt lat="34.2305967" lon="9.98295"><ele>24.0</ele><time>2026-04-04T19:58:48.282Z</time></trkpt><trkpt lat="34.2302817" lon="9.982935"><ele>24.0</ele><time>2026-04-04T19:58:49.282Z</time></trkpt><trkpt lat="34.2299683" lon="9.9829217"><ele>24.0</ele><time>2026-04-04T19:58:50.282Z</time></trkpt><trkpt lat="34.2296567" lon="9.9829067"><ele>24.5</ele><time>2026-04-04T19:58:51.282Z</time></trkpt><trkpt lat="34.2293467" lon="9.9828933"><ele>25.0</ele><time>2026-04-04T19:58:52.282Z</time></trkpt><trkpt lat="34.2290383" lon="9.982885"><ele>25.0</ele><time>2026-04-04T19:58:53.282Z</time></trkpt><trkpt lat="34.2287283" lon="9.9828767"><ele>25.0</ele><time>2026-04-04T19:58:54.283Z</time></trkpt><trkpt lat="34.228415" lon="9.982865"><ele>23.5</ele><time>2026-04-04T19:58:55.282Z</time></trkpt><trkpt lat="34.228105" lon="9.9828517"><ele>22.0</ele><time>2026-04-04T19:58:56.282Z</time></trkpt><trkpt lat="34.2277917" lon="9.9828383"><ele>22.0</ele><time>2026-04-04T19:58:57.283Z</time></trkpt><trkpt lat="34.2274767" lon="9.9828267"><ele>22.0</ele><time>2026-04-04T19:58:58.285Z</time></trkpt><trkpt lat="34.22716" lon="9.9828117"><ele>22.0</ele><time>2026-04-04T19:58:59.286Z</time></trkpt><trkpt lat="34.22684" lon="9.9828"><ele>22.0</ele><time>2026-04-04T19:59:00.286Z</time></trkpt><trkpt lat="34.2265183" lon="9.982785"><ele>22.0</ele><time>2026-04-04T19:59:01.285Z</time></trkpt><trkpt lat="34.2261967" lon="9.9827683"><ele>22.0</ele><time>2026-04-04T19:59:02.281Z</time></trkpt><trkpt lat="34.2258767" lon="9.98275"><ele>22.0</ele><time>2026-04-04T19:59:03.282Z</time></trkpt><trkpt lat="34.225555" lon="9.98273"><ele>22.0</ele><time>2026-04-04T19:59:04.285Z</time></trkpt><trkpt lat="34.2252317" lon="9.9827067"><ele>22.0</ele><time>2026-04-04T19:59:05.284Z</time></trkpt><trkpt lat="34.224905" lon="9.982685"><ele>22.0</ele><time>2026-04-04T19:59:06.285Z</time></trkpt><trkpt lat="34.2245767" lon="9.9826583"><ele>24.0</ele><time>2026-04-04T19:59:07.285Z</time></trkpt><trkpt lat="34.22425" lon="9.982635"><ele>26.0</ele><time>2026-04-04T19:59:08.285Z</time></trkpt><trkpt lat="34.2239233" lon="9.9826083"><ele>26.0</ele><time>2026-04-04T19:59:09.285Z</time></trkpt><trkpt lat="34.2236017" lon="9.9825817"><ele>26.0</ele><time>2026-04-04T19:59:10.285Z</time></trkpt><trkpt lat="34.2232783" lon="9.982555"><ele>25.5</ele><time>2026-04-04T19:59:11.285Z</time></trkpt><trkpt lat="34.2229517" lon="9.9825267"><ele>25.0</ele><time>2026-04-04T19:59:12.286Z</time></trkpt><trkpt lat="34.222625" lon="9.9824933"><ele>25.0</ele><time>2026-04-04T19:59:13.285Z</time></trkpt><trkpt lat="34.2222983" lon="9.9824583"><ele>25.0</ele><time>2026-04-04T19:59:14.282Z</time></trkpt><trkpt lat="34.2219733" lon="9.982425"><ele>25.0</ele><time>2026-04-04T19:59:15.283Z</time></trkpt><trkpt lat="34.2216467" lon="9.9823917"><ele>25.0</ele><time>2026-04-04T19:59:16.285Z</time></trkpt><trkpt lat="34.2213233" lon="9.9823567"><ele>26.0</ele><time>2026-04-04T19:59:17.285Z</time></trkpt><trkpt lat="34.2210017" lon="9.9823217"><ele>27.0</ele><time>2026-04-04T19:59:18.285Z</time></trkpt><trkpt lat="34.22068" lon="9.982285"><ele>27.0</ele><time>2026-04-04T19:59:19.285Z</time></trkpt><trkpt lat="34.22036" lon="9.9822467"><ele>27.0</ele><time>2026-04-04T19:59:20.285Z</time></trkpt><trkpt lat="34.2200383" lon="9.982205"><ele>27.0</ele><time>2026-04-04T19:59:21.285Z</time></trkpt><trkpt lat="34.219715" lon="9.9821633"><ele>27.0</ele><time>2026-04-04T19:59:22.286Z</time></trkpt><trkpt lat="34.2193883" lon="9.9821183"><ele>27.0</ele><time>2026-04-04T19:59:23.283Z</time></trkpt><trkpt lat="34.21906" lon="9.982075"><ele>27.0</ele><time>2026-04-04T19:59:24.282Z</time></trkpt><trkpt lat="34.21873" lon="9.9820267"><ele>27.0</ele><time>2026-04-04T19:59:25.282Z</time></trkpt><trkpt lat="34.2183983" lon="9.9819767"><ele>27.0</ele><time>2026-04-04T19:59:26.282Z</time></trkpt><trkpt lat="34.2180667" lon="9.9819267"><ele>27.0</ele><time>2026-04-04T19:59:27.285Z</time></trkpt><trkpt lat="34.2177333" lon="9.9818733"><ele>27.0</ele><time>2026-04-04T19:59:28.285Z</time></trkpt><trkpt lat="34.2173967" lon="9.9818217"><ele>26.0</ele><time>2026-04-04T19:59:29.282Z</time></trkpt><trkpt lat="34.21706" lon="9.981765"><ele>25.0</ele><time>2026-04-04T19:59:30.285Z</time></trkpt><trkpt lat="34.2167217" lon="9.9817117"><ele>26.5</ele><time>2026-04-04T19:59:31.285Z</time></trkpt><trkpt lat="34.2163833" lon="9.98166"><ele>28.0</ele><time>2026-04-04T19:59:32.285Z</time></trkpt><trkpt lat="34.2160467" lon="9.9816133"><ele>28.0</ele><time>2026-04-04T19:59:33.282Z</time></trkpt><trkpt lat="34.2157083" lon="9.981565"><ele>28.0</ele><time>2026-04-04T19:59:34.283Z</time></trkpt><trkpt lat="34.2153683" lon="9.981515"><ele>27.0</ele><time>2026-04-04T19:59:35.282Z</time></trkpt><trkpt lat="34.21503" lon="9.9814633"><ele>26.0</ele><time>2026-04-04T19:59:36.283Z</time></trkpt><trkpt lat="34.2146967" lon="9.9814067"><ele>26.0</ele><time>2026-04-04T19:59:37.283Z</time></trkpt><trkpt lat="34.2143717" lon="9.98135"><ele>26.0</ele><time>2026-04-04T19:59:38.282Z</time></trkpt><trkpt lat="34.2140533" lon="9.9812933"><ele>26.0</ele><time>2026-04-04T19:59:39.283Z</time></trkpt><trkpt lat="34.2137417" lon="9.9812433"><ele>26.0</ele><time>2026-04-04T19:59:40.286Z</time></trkpt><trkpt lat="34.2134333" lon="9.9811967"><ele>25.5</ele><time>2026-04-04T19:59:41.284Z</time></trkpt><trkpt lat="34.21313" lon="9.98115"><ele>25.0</ele><time>2026-04-04T19:59:42.284Z</time></trkpt><trkpt lat="34.2128283" lon="9.981105"><ele>25.0</ele><time>2026-04-04T19:59:43.285Z</time></trkpt><trkpt lat="34.2125283" lon="9.9810683"><ele>25.0</ele><time>2026-04-04T19:59:44.285Z</time></trkpt><trkpt lat="34.2122267" lon="9.9810183"><ele>25.0</ele><time>2026-04-04T19:59:45.286Z</time></trkpt><trkpt lat="34.2119217" lon="9.980965"><ele>25.0</ele><time>2026-04-04T19:59:46.283Z</time></trkpt><trkpt lat="34.211615" lon="9.980915"><ele>25.0</ele><time>2026-04-04T19:59:47.287Z</time></trkpt><trkpt lat="34.2113067" lon="9.9808667"><ele>25.0</ele><time>2026-04-04T19:59:48.286Z</time></trkpt><trkpt lat="34.2109967" lon="9.980815"><ele>25.0</ele><time>2026-04-04T19:59:49.285Z</time></trkpt><trkpt lat="34.210685" lon="9.9807733"><ele>25.0</ele><time>2026-04-04T19:59:50.285Z</time></trkpt><trkpt lat="34.2103733" lon="9.980725"><ele>25.0</ele><time>2026-04-04T19:59:51.285Z</time></trkpt><trkpt lat="34.21006" lon="9.98068"><ele>25.0</ele><time>2026-04-04T19:59:52.285Z</time></trkpt><trkpt lat="34.209745" lon="9.980635"><ele>25.0</ele><time>2026-04-04T19:59:53.285Z</time></trkpt><trkpt lat="34.2094317" lon="9.9805933"><ele>25.0</ele><time>2026-04-04T19:59:54.285Z</time></trkpt><trkpt lat="34.2091183" lon="9.9805483"><ele>25.0</ele><time>2026-04-04T19:59:55.285Z</time></trkpt><trkpt lat="34.208805" lon="9.9805033"><ele>25.0</ele><time>2026-04-04T19:59:56.282Z</time></trkpt><trkpt lat="34.20849" lon="9.9804583"><ele>25.0</ele><time>2026-04-04T19:59:57.284Z</time></trkpt><trkpt lat="34.208175" lon="9.9804117"><ele>25.0</ele><time>2026-04-04T19:59:58.284Z</time></trkpt><trkpt lat="34.2078583" lon="9.9803583"><ele>24.0</ele><time>2026-04-04T19:59:59.286Z</time></trkpt><trkpt lat="34.2075383" lon="9.9803067"><ele>23.0</ele><time>2026-04-04T20:00:00.283Z</time></trkpt><trkpt lat="34.2072167" lon="9.9802567"><ele>23.0</ele><time>2026-04-04T20:00:01.283Z</time></trkpt><trkpt lat="34.20689" lon="9.9802083"><ele>23.0</ele><time>2026-04-04T20:00:02.285Z</time></trkpt><trkpt lat="34.2065667" lon="9.9801633"><ele>23.0</ele><time>2026-04-04T20:00:03.283Z</time></trkpt><trkpt lat="34.2062533" lon="9.98012"><ele>23.0</ele><time>2026-04-04T20:00:04.284Z</time></trkpt><trkpt lat="34.205955" lon="9.98008"><ele>23.0</ele><time>2026-04-04T20:00:05.284Z</time></trkpt><trkpt lat="34.2056633" lon="9.9800417"><ele>23.0</ele><time>2026-04-04T20:00:06.284Z</time></trkpt><trkpt lat="34.2053733" lon="9.9800033"><ele>23.0</ele><time>2026-04-04T20:00:07.283Z</time></trkpt><trkpt lat="34.2050817" lon="9.9799617"><ele>23.0</ele><time>2026-04-04T20:00:08.284Z</time></trkpt><trkpt lat="34.2047867" lon="9.979915"><ele>23.0</ele><time>2026-04-04T20:00:09.286Z</time></trkpt><trkpt lat="34.20449" lon="9.9798683"><ele>23.0</ele><time>2026-04-04T20:00:10.285Z</time></trkpt><trkpt lat="34.2041917" lon="9.979825"><ele>23.5</ele><time>2026-04-04T20:00:11.285Z</time></trkpt><trkpt lat="34.2038967" lon="9.97978"><ele>24.0</ele><time>2026-04-04T20:00:12.283Z</time></trkpt><trkpt lat="34.2036" lon="9.9797333"><ele>24.0</ele><time>2026-04-04T20:00:13.283Z</time></trkpt><trkpt lat="34.203305" lon="9.9796867"><ele>24.0</ele><time>2026-04-04T20:00:14.281Z</time></trkpt><trkpt lat="34.20301" lon="9.9796383"><ele>25.0</ele><time>2026-04-04T20:00:15.285Z</time></trkpt><trkpt lat="34.2027167" lon="9.9795967"><ele>26.0</ele><time>2026-04-04T20:00:16.285Z</time></trkpt><trkpt lat="34.2024233" lon="9.97955"><ele>25.5</ele><time>2026-04-04T20:00:17.284Z</time></trkpt><trkpt lat="34.2021283" lon="9.979505"><ele>25.0</ele><time>2026-04-04T20:00:18.285Z</time></trkpt><trkpt lat="34.2018333" lon="9.97946"><ele>25.0</ele><time>2026-04-04T20:00:19.285Z</time></trkpt><trkpt lat="34.2015383" lon="9.9794167"><ele>25.0</ele><time>2026-04-04T20:00:20.285Z</time></trkpt><trkpt lat="34.2012417" lon="9.9793717"><ele>25.5</ele><time>2026-04-04T20:00:21.284Z</time></trkpt><trkpt lat="34.200945" lon="9.979325"><ele>26.0</ele><time>2026-04-04T20:00:22.284Z</time></trkpt><trkpt lat="34.2006467" lon="9.97928"><ele>26.0</ele><time>2026-04-04T20:00:23.287Z</time></trkpt><trkpt lat="34.2003467" lon="9.97923"><ele>26.0</ele><time>2026-04-04T20:00:24.284Z</time></trkpt><trkpt lat="34.2000433" lon="9.9791783"><ele>26.5</ele><time>2026-04-04T20:00:25.284Z</time></trkpt><trkpt lat="34.1997383" lon="9.979125"><ele>27.0</ele><time>2026-04-04T20:00:26.284Z</time></trkpt><trkpt lat="34.1994317" lon="9.9790717"><ele>27.0</ele><time>2026-04-04T20:00:27.284Z</time></trkpt><trkpt lat="34.1991217" lon="9.9790217"><ele>27.0</ele><time>2026-04-04T20:00:28.284Z</time></trkpt><trkpt lat="34.1988117" lon="9.97897"><ele>27.0</ele><time>2026-04-04T20:00:29.283Z</time></trkpt><trkpt lat="34.19851" lon="9.9789167"><ele>27.0</ele><time>2026-04-04T20:00:30.283Z</time></trkpt><trkpt lat="34.198215" lon="9.978865"><ele>27.5</ele><time>2026-04-04T20:00:31.282Z</time></trkpt><trkpt lat="34.1979183" lon="9.9788117"><ele>28.0</ele><time>2026-04-04T20:00:32.284Z</time></trkpt><trkpt lat="34.197615" lon="9.9787583"><ele>26.0</ele><time>2026-04-04T20:00:33.284Z</time></trkpt><trkpt lat="34.1973067" lon="9.9787017"><ele>24.0</ele><time>2026-04-04T20:00:34.285Z</time></trkpt><trkpt lat="34.1969933" lon="9.9786433"><ele>24.0</ele><time>2026-04-04T20:00:35.284Z</time></trkpt><trkpt lat="34.1966783" lon="9.978585"><ele>24.0</ele><time>2026-04-04T20:00:36.284Z</time></trkpt><trkpt lat="34.1963617" lon="9.9785283"><ele>22.5</ele><time>2026-04-04T20:00:37.283Z</time></trkpt><trkpt lat="34.196045" lon="9.9784683"><ele>21.0</ele><time>2026-04-04T20:00:38.285Z</time></trkpt><trkpt lat="34.19573" lon="9.97841"><ele>20.5</ele><time>2026-04-04T20:00:39.284Z</time></trkpt><trkpt lat="34.1954133" lon="9.97835"><ele>20.0</ele><time>2026-04-04T20:00:40.284Z</time></trkpt><trkpt lat="34.195095" lon="9.9782883"><ele>18.5</ele><time>2026-04-04T20:00:41.284Z</time></trkpt><trkpt lat="34.1947783" lon="9.9782233"><ele>17.0</ele><time>2026-04-04T20:00:42.285Z</time></trkpt><trkpt lat="34.194465" lon="9.9781517"><ele>17.0</ele><time>2026-04-04T20:00:43.284Z</time></trkpt><trkpt lat="34.1941517" lon="9.978075"><ele>17.0</ele><time>2026-04-04T20:00:44.284Z</time></trkpt><trkpt lat="34.19384" lon="9.9779933"><ele>15.5</ele><time>2026-04-04T20:00:45.284Z</time></trkpt><trkpt lat="34.1935267" lon="9.97791"><ele>14.0</ele><time>2026-04-04T20:00:46.284Z</time></trkpt><trkpt lat="34.1932117" lon="9.9778217"><ele>14.0</ele><time>2026-04-04T20:00:47.284Z</time></trkpt><trkpt lat="34.1928933" lon="9.97773"><ele>14.0</ele><time>2026-04-04T20:00:48.284Z</time></trkpt><trkpt lat="34.1925733" lon="9.9776333"><ele>13.0</ele><time>2026-04-04T20:00:49.285Z</time></trkpt><trkpt lat="34.1922533" lon="9.9775333"><ele>12.0</ele><time>2026-04-04T20:00:50.284Z</time></trkpt><trkpt lat="34.1919333" lon="9.9774317"><ele>12.0</ele><time>2026-04-04T20:00:51.284Z</time></trkpt><trkpt lat="34.19161" lon="9.9773333"><ele>12.0</ele><time>2026-04-04T20:00:52.284Z</time></trkpt><trkpt lat="34.1912867" lon="9.977235"><ele>11.5</ele><time>2026-04-04T20:00:53.284Z</time></trkpt><trkpt lat="34.1909617" lon="9.9771367"><ele>11.0</ele><time>2026-04-04T20:00:54.285Z</time></trkpt><trkpt lat="34.1906333" lon="9.9770417"><ele>11.0</ele><time>2026-04-04T20:00:55.284Z</time></trkpt><trkpt lat="34.1903033" lon="9.97695"><ele>11.0</ele><time>2026-04-04T20:00:56.282Z</time></trkpt><trkpt lat="34.1899717" lon="9.9768583"><ele>11.0</ele><time>2026-04-04T20:00:57.284Z</time></trkpt><trkpt lat="34.1896383" lon="9.9767733"><ele>11.0</ele><time>2026-04-04T20:00:58.284Z</time></trkpt><trkpt lat="34.1893017" lon="9.9767"><ele>10.5</ele><time>2026-04-04T20:00:59.284Z</time></trkpt><trkpt lat="34.1889633" lon="9.97663"><ele>10.0</ele><time>2026-04-04T20:01:00.285Z</time></trkpt><trkpt lat="34.1886233" lon="9.9765667"><ele>10.0</ele><time>2026-04-04T20:01:01.284Z</time></trkpt><trkpt lat="34.188285" lon="9.9765133"><ele>10.0</ele><time>2026-04-04T20:01:02.285Z</time></trkpt><trkpt lat="34.18795" lon="9.9764667"><ele>10.0</ele><time>2026-04-04T20:01:03.283Z</time></trkpt><trkpt lat="34.1876283" lon="9.97643"><ele>10.0</ele><time>2026-04-04T20:01:04.283Z</time></trkpt><trkpt lat="34.18732" lon="9.9764017"><ele>10.0</ele><time>2026-04-04T20:01:05.286Z</time></trkpt><trkpt lat="34.1870233" lon="9.9763817"><ele>10.0</ele><time>2026-04-04T20:01:06.284Z</time></trkpt><trkpt lat="34.1867333" lon="9.9763667"><ele>10.5</ele><time>2026-04-04T20:01:07.284Z</time></trkpt><trkpt lat="34.1864433" lon="9.976355"><ele>11.0</ele><time>2026-04-04T20:01:08.284Z</time></trkpt><trkpt lat="34.1861517" lon="9.976345"><ele>11.0</ele><time>2026-04-04T20:01:09.284Z</time></trkpt><trkpt lat="34.1858617" lon="9.9763367"><ele>11.0</ele><time>2026-04-04T20:01:10.281Z</time></trkpt><trkpt lat="34.1855667" lon="9.9763283"><ele>11.5</ele><time>2026-04-04T20:01:11.285Z</time></trkpt><trkpt lat="34.1852717" lon="9.976315"><ele>12.0</ele><time>2026-04-04T20:01:12.285Z</time></trkpt><trkpt lat="34.1849733" lon="9.9762967"><ele>13.0</ele><time>2026-04-04T20:01:13.282Z</time></trkpt><trkpt lat="34.1846717" lon="9.9762717"><ele>14.0</ele><time>2026-04-04T20:01:14.282Z</time></trkpt><trkpt lat="34.1843683" lon="9.9762417"><ele>14.0</ele><time>2026-04-04T20:01:15.283Z</time></trkpt><trkpt lat="34.184065" lon="9.9762083"><ele>14.0</ele><time>2026-04-04T20:01:16.284Z</time></trkpt><trkpt lat="34.18376" lon="9.9761733"><ele>14.5</ele><time>2026-04-04T20:01:17.283Z</time></trkpt><trkpt lat="34.1834533" lon="9.976135"><ele>15.0</ele><time>2026-04-04T20:01:18.283Z</time></trkpt><trkpt lat="34.1831483" lon="9.9760867"><ele>16.0</ele><time>2026-04-04T20:01:19.282Z</time></trkpt><trkpt lat="34.182845" lon="9.9760417"><ele>17.0</ele><time>2026-04-04T20:01:20.283Z</time></trkpt><trkpt lat="34.1825433" lon="9.9759833"><ele>17.5</ele><time>2026-04-04T20:01:21.282Z</time></trkpt><trkpt lat="34.182245" lon="9.97593"><ele>18.0</ele><time>2026-04-04T20:01:22.285Z</time></trkpt><trkpt lat="34.1819467" lon="9.9758717"><ele>19.0</ele><time>2026-04-04T20:01:23.285Z</time></trkpt><trkpt lat="34.1816483" lon="9.9758167"><ele>20.0</ele><time>2026-04-04T20:01:24.287Z</time></trkpt><trkpt lat="34.1813467" lon="9.9757567"><ele>21.0</ele><time>2026-04-04T20:01:25.286Z</time></trkpt><trkpt lat="34.1810417" lon="9.9756967"><ele>22.0</ele><time>2026-04-04T20:01:26.285Z</time></trkpt><trkpt lat="34.180735" lon="9.9756367"><ele>23.0</ele><time>2026-04-04T20:01:27.285Z</time></trkpt><trkpt lat="34.1804283" lon="9.9755817"><ele>24.0</ele><time>2026-04-04T20:01:28.285Z</time></trkpt><trkpt lat="34.180125" lon="9.9755233"><ele>24.5</ele><time>2026-04-04T20:01:29.282Z</time></trkpt><trkpt lat="34.1798217" lon="9.9754667"><ele>25.0</ele><time>2026-04-04T20:01:30.285Z</time></trkpt><trkpt lat="34.1795183" lon="9.9754083"><ele>25.0</ele><time>2026-04-04T20:01:31.285Z</time></trkpt><trkpt lat="34.179215" lon="9.9753533"><ele>25.0</ele><time>2026-04-04T20:01:32.285Z</time></trkpt><trkpt lat="34.17891" lon="9.9753"><ele>25.0</ele><time>2026-04-04T20:01:33.286Z</time></trkpt><trkpt lat="34.178605" lon="9.975245"><ele>25.0</ele><time>2026-04-04T20:01:34.281Z</time></trkpt><trkpt lat="34.1782983" lon="9.97519"><ele>25.5</ele><time>2026-04-04T20:01:35.282Z</time></trkpt><trkpt lat="34.1779933" lon="9.9751333"><ele>26.0</ele><time>2026-04-04T20:01:36.282Z</time></trkpt><trkpt lat="34.1776883" lon="9.9750783"><ele>26.0</ele><time>2026-04-04T20:01:37.282Z</time></trkpt><trkpt lat="34.177385" lon="9.9750217"><ele>26.0</ele><time>2026-04-04T20:01:38.282Z</time></trkpt><trkpt lat="34.17708" lon="9.974965"><ele>26.0</ele><time>2026-04-04T20:01:39.282Z</time></trkpt><trkpt lat="34.1767783" lon="9.97491"><ele>26.0</ele><time>2026-04-04T20:01:40.282Z</time></trkpt><trkpt lat="34.1764767" lon="9.974855"><ele>26.0</ele><time>2026-04-04T20:01:41.282Z</time></trkpt><trkpt lat="34.1761767" lon="9.974805"><ele>26.0</ele><time>2026-04-04T20:01:42.283Z</time></trkpt><trkpt lat="34.1758767" lon="9.9747517"><ele>26.5</ele><time>2026-04-04T20:01:43.282Z</time></trkpt><trkpt lat="34.175575" lon="9.9746983"><ele>27.0</ele><time>2026-04-04T20:01:44.282Z</time></trkpt><trkpt lat="34.17527" lon="9.9746433"><ele>27.0</ele><time>2026-04-04T20:01:45.285Z</time></trkpt><trkpt lat="34.174965" lon="9.974585"><ele>27.0</ele><time>2026-04-04T20:01:46.285Z</time></trkpt><trkpt lat="34.174655" lon="9.9745267"><ele>28.5</ele><time>2026-04-04T20:01:47.285Z</time></trkpt><trkpt lat="34.1743467" lon="9.9744683"><ele>30.0</ele><time>2026-04-04T20:01:48.285Z</time></trkpt><trkpt lat="34.174035" lon="9.97441"><ele>29.5</ele><time>2026-04-04T20:01:49.285Z</time></trkpt><trkpt lat="34.17372" lon="9.97435"><ele>29.0</ele><time>2026-04-04T20:01:50.285Z</time></trkpt><trkpt lat="34.1734067" lon="9.9742933"><ele>29.0</ele><time>2026-04-04T20:01:51.285Z</time></trkpt><trkpt lat="34.17309" lon="9.9742383"><ele>29.0</ele><time>2026-04-04T20:01:52.285Z</time></trkpt><trkpt lat="34.1727733" lon="9.9741817"><ele>29.0</ele><time>2026-04-04T20:01:53.285Z</time></trkpt><trkpt lat="34.17246" lon="9.974125"><ele>29.0</ele><time>2026-04-04T20:01:54.285Z</time></trkpt><trkpt lat="34.1721533" lon="9.9740667"><ele>29.0</ele><time>2026-04-04T20:01:55.285Z</time></trkpt><trkpt lat="34.17185" lon="9.9740117"><ele>29.0</ele><time>2026-04-04T20:01:56.282Z</time></trkpt><trkpt lat="34.1715517" lon="9.973955"><ele>29.5</ele><time>2026-04-04T20:01:57.286Z</time></trkpt><trkpt lat="34.171255" lon="9.9739"><ele>30.0</ele><time>2026-04-04T20:01:58.285Z</time></trkpt><trkpt lat="34.1709583" lon="9.9738417"><ele>30.0</ele><time>2026-04-04T20:01:59.285Z</time></trkpt><trkpt lat="34.1706617" lon="9.973785"><ele>30.0</ele><time>2026-04-04T20:02:00.285Z</time></trkpt><trkpt lat="34.1703667" lon="9.9737283"><ele>30.0</ele><time>2026-04-04T20:02:01.285Z</time></trkpt><trkpt lat="34.1700717" lon="9.97367"><ele>30.0</ele><time>2026-04-04T20:02:02.286Z</time></trkpt><trkpt lat="34.1697767" lon="9.9736167"><ele>31.5</ele><time>2026-04-04T20:02:03.285Z</time></trkpt><trkpt lat="34.1694833" lon="9.9735633"><ele>33.0</ele><time>2026-04-04T20:02:04.282Z</time></trkpt><trkpt lat="34.1691867" lon="9.9735117"><ele>34.0</ele><time>2026-04-04T20:02:05.285Z</time></trkpt><trkpt lat="34.1688917" lon="9.973455"><ele>35.0</ele><time>2026-04-04T20:02:06.282Z</time></trkpt><trkpt lat="34.168595" lon="9.9733983"><ele>35.0</ele><time>2026-04-04T20:02:07.283Z</time></trkpt><trkpt lat="34.1682983" lon="9.9733417"><ele>35.0</ele><time>2026-04-04T20:02:08.283Z</time></trkpt><trkpt lat="34.168" lon="9.9732867"><ele>35.0</ele><time>2026-04-04T20:02:09.283Z</time></trkpt><trkpt lat="34.1677017" lon="9.9732333"><ele>35.0</ele><time>2026-04-04T20:02:10.283Z</time></trkpt><trkpt lat="34.1674033" lon="9.9731817"><ele>36.0</ele><time>2026-04-04T20:02:11.283Z</time></trkpt><trkpt lat="34.167105" lon="9.9731283"><ele>37.0</ele><time>2026-04-04T20:02:12.282Z</time></trkpt><trkpt lat="34.1668067" lon="9.9730767"><ele>37.5</ele><time>2026-04-04T20:02:13.283Z</time></trkpt><trkpt lat="34.16651" lon="9.9730217"><ele>38.0</ele><time>2026-04-04T20:02:14.283Z</time></trkpt><trkpt lat="34.166215" lon="9.9729633"><ele>38.0</ele><time>2026-04-04T20:02:15.285Z</time></trkpt><trkpt lat="34.1659217" lon="9.9729083"><ele>38.0</ele><time>2026-04-04T20:02:16.285Z</time></trkpt><trkpt lat="34.16563" lon="9.9728517"><ele>37.5</ele><time>2026-04-04T20:02:17.285Z</time></trkpt><trkpt lat="34.1653417" lon="9.9727933"><ele>37.0</ele><time>2026-04-04T20:02:18.286Z</time></trkpt><trkpt lat="34.1650517" lon="9.972735"><ele>37.5</ele><time>2026-04-04T20:02:19.286Z</time></trkpt><trkpt lat="34.16476" lon="9.97267"><ele>38.0</ele><time>2026-04-04T20:02:20.286Z</time></trkpt><trkpt lat="34.1644683" lon="9.972605"><ele>38.0</ele><time>2026-04-04T20:02:21.285Z</time></trkpt><trkpt lat="34.164175" lon="9.9725417"><ele>38.0</ele><time>2026-04-04T20:02:22.286Z</time></trkpt><trkpt lat="34.16388" lon="9.9724783"><ele>39.5</ele><time>2026-04-04T20:02:23.285Z</time></trkpt><trkpt lat="34.163585" lon="9.97241"><ele>41.0</ele><time>2026-04-04T20:02:24.286Z</time></trkpt><trkpt lat="34.16329" lon="9.9723417"><ele>42.0</ele><time>2026-04-04T20:02:25.286Z</time></trkpt><trkpt lat="34.1629933" lon="9.9722717"><ele>43.0</ele><time>2026-04-04T20:02:26.282Z</time></trkpt><trkpt lat="34.1626983" lon="9.9722"><ele>43.0</ele><time>2026-04-04T20:02:27.285Z</time></trkpt><trkpt lat="34.1624033" lon="9.9721317"><ele>43.0</ele><time>2026-04-04T20:02:28.286Z</time></trkpt><trkpt lat="34.1621083" lon="9.97206"><ele>45.0</ele><time>2026-04-04T20:02:29.282Z</time></trkpt><trkpt lat="34.1618133" lon="9.9719883"><ele>47.0</ele><time>2026-04-04T20:02:30.285Z</time></trkpt><trkpt lat="34.1615217" lon="9.97192"><ele>47.5</ele><time>2026-04-04T20:02:31.286Z</time></trkpt><trkpt lat="34.1612283" lon="9.97185"><ele>48.0</ele><time>2026-04-04T20:02:32.285Z</time></trkpt><trkpt lat="34.160935" lon="9.9717833"><ele>47.5</ele><time>2026-04-04T20:02:33.285Z</time></trkpt><trkpt lat="34.16064" lon="9.971715"><ele>47.0</ele><time>2026-04-04T20:02:34.282Z</time></trkpt><trkpt lat="34.16035" lon="9.971645"><ele>47.5</ele><time>2026-04-04T20:02:35.283Z</time></trkpt><trkpt lat="34.1600583" lon="9.9715717"><ele>48.0</ele><time>2026-04-04T20:02:36.283Z</time></trkpt><trkpt lat="34.159765" lon="9.9714967"><ele>48.0</ele><time>2026-04-04T20:02:37.283Z</time></trkpt><trkpt lat="34.159475" lon="9.9714217"><ele>48.0</ele><time>2026-04-04T20:02:38.282Z</time></trkpt><trkpt lat="34.1591833" lon="9.971345"><ele>48.5</ele><time>2026-04-04T20:02:39.282Z</time></trkpt><trkpt lat="34.15889" lon="9.97127"><ele>49.0</ele><time>2026-04-04T20:02:40.282Z</time></trkpt><trkpt lat="34.1585983" lon="9.97119"><ele>49.0</ele><time>2026-04-04T20:02:41.282Z</time></trkpt><trkpt lat="34.1583083" lon="9.971105"><ele>49.0</ele><time>2026-04-04T20:02:42.284Z</time></trkpt><trkpt lat="34.15802" lon="9.9710167"><ele>50.0</ele><time>2026-04-04T20:02:43.283Z</time></trkpt><trkpt lat="34.15773" lon="9.9709267"><ele>51.0</ele><time>2026-04-04T20:02:44.283Z</time></trkpt><trkpt lat="34.1574383" lon="9.97083"><ele>53.0</ele><time>2026-04-04T20:02:45.286Z</time></trkpt><trkpt lat="34.1571433" lon="9.97073"><ele>55.0</ele><time>2026-04-04T20:02:46.285Z</time></trkpt><trkpt lat="34.15685" lon="9.970625"><ele>55.0</ele><time>2026-04-04T20:02:47.285Z</time></trkpt><trkpt lat="34.1565567" lon="9.9705133"><ele>55.0</ele><time>2026-04-04T20:02:48.285Z</time></trkpt><trkpt lat="34.156265" lon="9.9703983"><ele>52.0</ele><time>2026-04-04T20:02:49.285Z</time></trkpt><trkpt lat="34.1559717" lon="9.9702767"><ele>49.0</ele><time>2026-04-04T20:02:50.285Z</time></trkpt><trkpt lat="34.15568" lon="9.97015"><ele>49.5</ele><time>2026-04-04T20:02:51.285Z</time></trkpt><trkpt lat="34.1553933" lon="9.9700233"><ele>50.0</ele><time>2026-04-04T20:02:52.282Z</time></trkpt><trkpt lat="34.155105" lon="9.9698917"><ele>49.5</ele><time>2026-04-04T20:02:53.285Z</time></trkpt><trkpt lat="34.1548167" lon="9.9697583"><ele>49.0</ele><time>2026-04-04T20:02:54.283Z</time></trkpt><trkpt lat="34.1545283" lon="9.96962"><ele>49.0</ele><time>2026-04-04T20:02:55.283Z</time></trkpt><trkpt lat="34.1542383" lon="9.9694767"><ele>49.0</ele><time>2026-04-04T20:02:56.282Z</time></trkpt><trkpt lat="34.15395" lon="9.9693267"><ele>51.0</ele><time>2026-04-04T20:02:57.287Z</time></trkpt><trkpt lat="34.1536617" lon="9.9691783"><ele>53.0</ele><time>2026-04-04T20:02:58.286Z</time></trkpt><trkpt lat="34.1533767" lon="9.969025"><ele>52.5</ele><time>2026-04-04T20:02:59.285Z</time></trkpt><trkpt lat="34.1530917" lon="9.9688717"><ele>52.0</ele><time>2026-04-04T20:03:00.283Z</time></trkpt><trkpt lat="34.1528067" lon="9.9687183"><ele>52.0</ele><time>2026-04-04T20:03:01.285Z</time></trkpt><trkpt lat="34.15252" lon="9.9685667"><ele>52.0</ele><time>2026-04-04T20:03:02.285Z</time></trkpt><trkpt lat="34.1522317" lon="9.9684117"><ele>52.0</ele><time>2026-04-04T20:03:03.282Z</time></trkpt><trkpt lat="34.15194" lon="9.9682567"><ele>52.0</ele><time>2026-04-04T20:03:04.284Z</time></trkpt><trkpt lat="34.1516433" lon="9.9681033"><ele>51.0</ele><time>2026-04-04T20:03:05.283Z</time></trkpt><trkpt lat="34.1513483" lon="9.9679533"><ele>50.0</ele><time>2026-04-04T20:03:06.283Z</time></trkpt><trkpt lat="34.1510483" lon="9.9678067"><ele>50.0</ele><time>2026-04-04T20:03:07.284Z</time></trkpt><trkpt lat="34.1507433" lon="9.9676683"><ele>50.0</ele><time>2026-04-04T20:03:08.282Z</time></trkpt><trkpt lat="34.1504367" lon="9.9675333"><ele>50.0</ele><time>2026-04-04T20:03:09.283Z</time></trkpt><trkpt lat="34.1501317" lon="9.9674017"><ele>50.0</ele><time>2026-04-04T20:03:10.282Z</time></trkpt><trkpt lat="34.1498283" lon="9.9672733"><ele>48.5</ele><time>2026-04-04T20:03:11.283Z</time></trkpt><trkpt lat="34.149525" lon="9.9671467"><ele>47.0</ele><time>2026-04-04T20:03:12.283Z</time></trkpt><trkpt lat="34.1492217" lon="9.967025"><ele>46.0</ele><time>2026-04-04T20:03:13.284Z</time></trkpt><trkpt lat="34.1489217" lon="9.9669017"><ele>45.0</ele><time>2026-04-04T20:03:14.282Z</time></trkpt><trkpt lat="34.1486233" lon="9.9667767"><ele>45.5</ele><time>2026-04-04T20:03:15.283Z</time></trkpt><trkpt lat="34.1483267" lon="9.96665"><ele>46.0</ele><time>2026-04-04T20:03:16.281Z</time></trkpt><trkpt lat="34.14803" lon="9.9665183"><ele>46.5</ele><time>2026-04-04T20:03:17.284Z</time></trkpt><trkpt lat="34.1477383" lon="9.96638"><ele>47.0</ele><time>2026-04-04T20:03:18.284Z</time></trkpt><trkpt lat="34.147445" lon="9.966235"><ele>46.5</ele><time>2026-04-04T20:03:19.284Z</time></trkpt><trkpt lat="34.147155" lon="9.9660867"><ele>46.0</ele><time>2026-04-04T20:03:20.281Z</time></trkpt><trkpt lat="34.146865" lon="9.9659367"><ele>46.0</ele><time>2026-04-04T20:03:21.281Z</time></trkpt><trkpt lat="34.146575" lon="9.9657833"><ele>46.0</ele><time>2026-04-04T20:03:22.282Z</time></trkpt><trkpt lat="34.146285" lon="9.9656267"><ele>46.0</ele><time>2026-04-04T20:03:23.282Z</time></trkpt><trkpt lat="34.1459983" lon="9.9654633"><ele>46.0</ele><time>2026-04-04T20:03:24.281Z</time></trkpt><trkpt lat="34.14571" lon="9.9652983"><ele>45.5</ele><time>2026-04-04T20:03:25.284Z</time></trkpt><trkpt lat="34.1454233" lon="9.9651283"><ele>45.0</ele><time>2026-04-04T20:03:26.284Z</time></trkpt><trkpt lat="34.1451367" lon="9.96496"><ele>43.5</ele><time>2026-04-04T20:03:27.284Z</time></trkpt><trkpt lat="34.1448517" lon="9.9647883"><ele>42.0</ele><time>2026-04-04T20:03:28.284Z</time></trkpt><trkpt lat="34.1445633" lon="9.9646133"><ele>42.0</ele><time>2026-04-04T20:03:29.284Z</time></trkpt><trkpt lat="34.144275" lon="9.9644383"><ele>42.0</ele><time>2026-04-04T20:03:30.284Z</time></trkpt><trkpt lat="34.1439867" lon="9.9642633"><ele>42.0</ele><time>2026-04-04T20:03:31.285Z</time></trkpt><trkpt lat="34.143695" lon="9.96409"><ele>42.0</ele><time>2026-04-04T20:03:32.282Z</time></trkpt><trkpt lat="34.1434017" lon="9.963915"><ele>41.5</ele><time>2026-04-04T20:03:33.282Z</time></trkpt><trkpt lat="34.1431083" lon="9.96374"><ele>41.0</ele><time>2026-04-04T20:03:34.282Z</time></trkpt><trkpt lat="34.1428167" lon="9.9635667"><ele>41.0</ele><time>2026-04-04T20:03:35.283Z</time></trkpt><trkpt lat="34.1425233" lon="9.9633967"><ele>41.0</ele><time>2026-04-04T20:03:36.283Z</time></trkpt><trkpt lat="34.1422283" lon="9.9632233"><ele>41.0</ele><time>2026-04-04T20:03:37.283Z</time></trkpt><trkpt lat="34.141935" lon="9.96305"><ele>41.0</ele><time>2026-04-04T20:03:38.281Z</time></trkpt><trkpt lat="34.1416433" lon="9.962875"><ele>40.5</ele><time>2026-04-04T20:03:39.282Z</time></trkpt><trkpt lat="34.14135" lon="9.9627017"><ele>40.0</ele><time>2026-04-04T20:03:40.285Z</time></trkpt><trkpt lat="34.1410583" lon="9.962525"><ele>40.0</ele><time>2026-04-04T20:03:41.284Z</time></trkpt><trkpt lat="34.1407667" lon="9.9623533"><ele>40.0</ele><time>2026-04-04T20:03:42.282Z</time></trkpt><trkpt lat="34.14048" lon="9.9621817"><ele>40.0</ele><time>2026-04-04T20:03:43.285Z</time></trkpt><trkpt lat="34.1401917" lon="9.9620083"><ele>40.0</ele><time>2026-04-04T20:03:44.282Z</time></trkpt><trkpt lat="34.1399033" lon="9.961835"><ele>40.5</ele><time>2026-04-04T20:03:45.283Z</time></trkpt><trkpt lat="34.139615" lon="9.9616633"><ele>41.0</ele><time>2026-04-04T20:03:46.282Z</time></trkpt><trkpt lat="34.1393267" lon="9.9614883"><ele>40.0</ele><time>2026-04-04T20:03:47.285Z</time></trkpt><trkpt lat="34.13904" lon="9.9613133"><ele>39.0</ele><time>2026-04-04T20:03:48.287Z</time></trkpt><trkpt lat="34.1387533" lon="9.9611333"><ele>39.0</ele><time>2026-04-04T20:03:49.284Z</time></trkpt><trkpt lat="34.1384667" lon="9.9609483"><ele>39.0</ele><time>2026-04-04T20:03:50.282Z</time></trkpt><trkpt lat="34.1381833" lon="9.9607567"><ele>39.5</ele><time>2026-04-04T20:03:51.283Z</time></trkpt><trkpt lat="34.1379033" lon="9.960565"><ele>40.0</ele><time>2026-04-04T20:03:52.283Z</time></trkpt><trkpt lat="34.1376233" lon="9.96037"><ele>40.0</ele><time>2026-04-04T20:03:53.282Z</time></trkpt><trkpt lat="34.1373467" lon="9.960175"><ele>40.0</ele><time>2026-04-04T20:03:54.283Z</time></trkpt><trkpt lat="34.1370717" lon="9.9599833"><ele>40.0</ele><time>2026-04-04T20:03:55.282Z</time></trkpt><trkpt lat="34.1367983" lon="9.9597933"><ele>40.0</ele><time>2026-04-04T20:03:56.285Z</time></trkpt><trkpt lat="34.136525" lon="9.9596083"><ele>39.5</ele><time>2026-04-04T20:03:57.282Z</time></trkpt><trkpt lat="34.13626" lon="9.959425"><ele>39.0</ele><time>2026-04-04T20:03:58.286Z</time></trkpt><trkpt lat="34.1359967" lon="9.9592433"><ele>39.0</ele><time>2026-04-04T20:03:59.282Z</time></trkpt><trkpt lat="34.135735" lon="9.9590633"><ele>39.0</ele><time>2026-04-04T20:04:00.283Z</time></trkpt><trkpt lat="34.13547" lon="9.9588833"><ele>39.0</ele><time>2026-04-04T20:04:01.282Z</time></trkpt><trkpt lat="34.1352083" lon="9.9587033"><ele>39.0</ele><time>2026-04-04T20:04:02.281Z</time></trkpt><trkpt lat="34.1349417" lon="9.9585267"><ele>39.0</ele><time>2026-04-04T20:04:03.283Z</time></trkpt><trkpt lat="34.134675" lon="9.958355"><ele>39.0</ele><time>2026-04-04T20:04:04.283Z</time></trkpt><trkpt lat="34.1344033" lon="9.958185"><ele>39.0</ele><time>2026-04-04T20:04:05.283Z</time></trkpt><trkpt lat="34.13413" lon="9.95802"><ele>39.0</ele><time>2026-04-04T20:04:06.283Z</time></trkpt><trkpt lat="34.1338567" lon="9.95786"><ele>40.5</ele><time>2026-04-04T20:04:07.282Z</time></trkpt><trkpt lat="34.1335833" lon="9.9577033"><ele>42.0</ele><time>2026-04-04T20:04:08.282Z</time></trkpt><trkpt lat="34.133315" lon="9.9575483"><ele>42.0</ele><time>2026-04-04T20:04:09.282Z</time></trkpt><trkpt lat="34.133045" lon="9.9574017"><ele>42.0</ele><time>2026-04-04T20:04:10.285Z</time></trkpt><trkpt lat="34.13277" lon="9.9572583"><ele>42.0</ele><time>2026-04-04T20:04:11.282Z</time></trkpt><trkpt lat="34.132495" lon="9.9571233"><ele>42.0</ele><time>2026-04-04T20:04:12.282Z</time></trkpt><trkpt lat="34.1322183" lon="9.95699"><ele>42.0</ele><time>2026-04-04T20:04:13.282Z</time></trkpt><trkpt lat="34.1319433" lon="9.956855"><ele>42.0</ele><time>2026-04-04T20:04:14.285Z</time></trkpt><trkpt lat="34.1316717" lon="9.95672"><ele>42.0</ele><time>2026-04-04T20:04:15.283Z</time></trkpt><trkpt lat="34.1313983" lon="9.9565833"><ele>42.0</ele><time>2026-04-04T20:04:16.282Z</time></trkpt><trkpt lat="34.1311283" lon="9.9564467"><ele>42.0</ele><time>2026-04-04T20:04:17.286Z</time></trkpt><trkpt lat="34.130855" lon="9.95631"><ele>42.0</ele><time>2026-04-04T20:04:18.286Z</time></trkpt><trkpt lat="34.13058" lon="9.95617"><ele>41.5</ele><time>2026-04-04T20:04:19.285Z</time></trkpt><trkpt lat="34.130305" lon="9.95603"><ele>41.0</ele><time>2026-04-04T20:04:20.285Z</time></trkpt><trkpt lat="34.1300317" lon="9.9558883"><ele>40.5</ele><time>2026-04-04T20:04:21.285Z</time></trkpt><trkpt lat="34.1297567" lon="9.9557483"><ele>40.0</ele><time>2026-04-04T20:04:22.285Z</time></trkpt><trkpt lat="34.129485" lon="9.9556033"><ele>40.0</ele><time>2026-04-04T20:04:23.285Z</time></trkpt><trkpt lat="34.129215" lon="9.9554533"><ele>40.0</ele><time>2026-04-04T20:04:24.285Z</time></trkpt><trkpt lat="34.1289467" lon="9.9553"><ele>39.0</ele><time>2026-04-04T20:04:25.285Z</time></trkpt><trkpt lat="34.1286783" lon="9.9551433"><ele>38.0</ele><time>2026-04-04T20:04:26.283Z</time></trkpt><trkpt lat="34.1284117" lon="9.95498"><ele>38.0</ele><time>2026-04-04T20:04:27.285Z</time></trkpt><trkpt lat="34.1281433" lon="9.9548167"><ele>38.0</ele><time>2026-04-04T20:04:28.281Z</time></trkpt><trkpt lat="34.1278733" lon="9.9546533"><ele>38.0</ele><time>2026-04-04T20:04:29.285Z</time></trkpt><trkpt lat="34.1276017" lon="9.95449"><ele>38.0</ele><time>2026-04-04T20:04:30.285Z</time></trkpt><trkpt lat="34.1273233" lon="9.9543233"><ele>38.0</ele><time>2026-04-04T20:04:31.285Z</time></trkpt><trkpt lat="34.1270433" lon="9.9541567"><ele>38.0</ele><time>2026-04-04T20:04:32.285Z</time></trkpt><trkpt lat="34.1267617" lon="9.9539917"><ele>38.0</ele><time>2026-04-04T20:04:33.284Z</time></trkpt><trkpt lat="34.1264767" lon="9.953825"><ele>38.0</ele><time>2026-04-04T20:04:34.285Z</time></trkpt><trkpt lat="34.12619" lon="9.9536583"><ele>38.0</ele><time>2026-04-04T20:04:35.286Z</time></trkpt><trkpt lat="34.1259033" lon="9.9534867"><ele>38.0</ele><time>2026-04-04T20:04:36.285Z</time></trkpt><trkpt lat="34.125615" lon="9.9533133"><ele>38.5</ele><time>2026-04-04T20:04:37.283Z</time></trkpt><trkpt lat="34.1253267" lon="9.9531417"><ele>39.0</ele><time>2026-04-04T20:04:38.286Z</time></trkpt><trkpt lat="34.1250367" lon="9.95297"><ele>38.0</ele><time>2026-04-04T20:04:39.282Z</time></trkpt><trkpt lat="34.1247433" lon="9.9527983"><ele>37.0</ele><time>2026-04-04T20:04:40.285Z</time></trkpt><trkpt lat="34.1244517" lon="9.952625"><ele>37.5</ele><time>2026-04-04T20:04:41.285Z</time></trkpt><trkpt lat="34.1241617" lon="9.9524517"><ele>38.0</ele><time>2026-04-04T20:04:42.286Z</time></trkpt><trkpt lat="34.1238717" lon="9.95228"><ele>38.0</ele><time>2026-04-04T20:04:43.285Z</time></trkpt><trkpt lat="34.1235833" lon="9.9521083"><ele>38.0</ele><time>2026-04-04T20:04:44.283Z</time></trkpt><trkpt lat="34.123295" lon="9.951935"><ele>38.0</ele><time>2026-04-04T20:04:45.285Z</time></trkpt><trkpt lat="34.1230033" lon="9.9517617"><ele>38.0</ele><time>2026-04-04T20:04:46.286Z</time></trkpt><trkpt lat="34.1227117" lon="9.9515867"><ele>38.0</ele><time>2026-04-04T20:04:47.285Z</time></trkpt><trkpt lat="34.1224183" lon="9.9514133"><ele>38.0</ele><time>2026-04-04T20:04:48.286Z</time></trkpt><trkpt lat="34.122125" lon="9.9512367"><ele>38.0</ele><time>2026-04-04T20:04:49.285Z</time></trkpt><trkpt lat="34.12183" lon="9.9510633"><ele>38.0</ele><time>2026-04-04T20:04:50.285Z</time></trkpt><trkpt lat="34.1215333" lon="9.9508867"><ele>37.5</ele><time>2026-04-04T20:04:51.285Z</time></trkpt><trkpt lat="34.1212383" lon="9.9507083"><ele>37.0</ele><time>2026-04-04T20:04:52.282Z</time></trkpt><trkpt lat="34.120945" lon="9.9505317"><ele>37.0</ele><time>2026-04-04T20:04:53.283Z</time></trkpt><trkpt lat="34.1206483" lon="9.9503533"><ele>37.0</ele><time>2026-04-04T20:04:54.285Z</time></trkpt><trkpt lat="34.1203533" lon="9.9501783"><ele>37.0</ele><time>2026-04-04T20:04:55.285Z</time></trkpt><trkpt lat="34.1200583" lon="9.95"><ele>37.0</ele><time>2026-04-04T20:04:56.286Z</time></trkpt><trkpt lat="34.1197633" lon="9.94982"><ele>37.0</ele><time>2026-04-04T20:04:57.286Z</time></trkpt><trkpt lat="34.11947" lon="9.9496433"><ele>37.0</ele><time>2026-04-04T20:04:58.285Z</time></trkpt><trkpt lat="34.119175" lon="9.949465"><ele>37.0</ele><time>2026-04-04T20:04:59.285Z</time></trkpt><trkpt lat="34.1188817" lon="9.94929"><ele>37.0</ele><time>2026-04-04T20:05:00.282Z</time></trkpt><trkpt lat="34.11859" lon="9.9491183"><ele>37.0</ele><time>2026-04-04T20:05:01.283Z</time></trkpt><trkpt lat="34.1183033" lon="9.94895"><ele>37.0</ele><time>2026-04-04T20:05:02.282Z</time></trkpt><trkpt lat="34.1180217" lon="9.948785"><ele>36.0</ele><time>2026-04-04T20:05:03.286Z</time></trkpt><trkpt lat="34.1177417" lon="9.9486217"><ele>35.0</ele><time>2026-04-04T20:05:04.285Z</time></trkpt><trkpt lat="34.1174617" lon="9.948455"><ele>35.0</ele><time>2026-04-04T20:05:05.286Z</time></trkpt><trkpt lat="34.1171817" lon="9.9482867"><ele>35.0</ele><time>2026-04-04T20:05:06.285Z</time></trkpt><trkpt lat="34.1168967" lon="9.94812"><ele>35.0</ele><time>2026-04-04T20:05:07.286Z</time></trkpt><trkpt lat="34.1166117" lon="9.9479483"><ele>35.0</ele><time>2026-04-04T20:05:08.285Z</time></trkpt><trkpt lat="34.1163233" lon="9.9477733"><ele>34.5</ele><time>2026-04-04T20:05:09.285Z</time></trkpt><trkpt lat="34.1160333" lon="9.9476"><ele>34.0</ele><time>2026-04-04T20:05:10.286Z</time></trkpt><trkpt lat="34.1157433" lon="9.9474267"><ele>34.5</ele><time>2026-04-04T20:05:11.286Z</time></trkpt><trkpt lat="34.115455" lon="9.9472533"><ele>35.0</ele><time>2026-04-04T20:05:12.285Z</time></trkpt><trkpt lat="34.1151667" lon="9.9470817"><ele>34.0</ele><time>2026-04-04T20:05:13.285Z</time></trkpt><trkpt lat="34.11488" lon="9.9469117"><ele>33.0</ele><time>2026-04-04T20:05:14.285Z</time></trkpt><trkpt lat="34.1145933" lon="9.94674"><ele>33.0</ele><time>2026-04-04T20:05:15.284Z</time></trkpt><trkpt lat="34.1143083" lon="9.94657"><ele>33.0</ele><time>2026-04-04T20:05:16.283Z</time></trkpt><trkpt lat="34.1140217" lon="9.9464"><ele>32.0</ele><time>2026-04-04T20:05:17.285Z</time></trkpt><trkpt lat="34.113735" lon="9.9462267"><ele>31.0</ele><time>2026-04-04T20:05:18.285Z</time></trkpt><trkpt lat="34.1134433" lon="9.9460533"><ele>31.0</ele><time>2026-04-04T20:05:19.285Z</time></trkpt><trkpt lat="34.1131517" lon="9.9458817"><ele>31.0</ele><time>2026-04-04T20:05:20.285Z</time></trkpt><trkpt lat="34.1128583" lon="9.9457083"><ele>31.0</ele><time>2026-04-04T20:05:21.285Z</time></trkpt><trkpt lat="34.1125667" lon="9.945535"><ele>31.0</ele><time>2026-04-04T20:05:22.285Z</time></trkpt><trkpt lat="34.1122717" lon="9.9453617"><ele>31.0</ele><time>2026-04-04T20:05:23.285Z</time></trkpt><trkpt lat="34.1119783" lon="9.9451867"><ele>31.0</ele><time>2026-04-04T20:05:24.285Z</time></trkpt><trkpt lat="34.1116833" lon="9.94501"><ele>31.0</ele><time>2026-04-04T20:05:25.282Z</time></trkpt><trkpt lat="34.1113883" lon="9.9448367"><ele>31.0</ele><time>2026-04-04T20:05:26.285Z</time></trkpt><trkpt lat="34.1110933" lon="9.9446617"><ele>31.0</ele><time>2026-04-04T20:05:27.282Z</time></trkpt><trkpt lat="34.1108" lon="9.944485"><ele>31.0</ele><time>2026-04-04T20:05:28.285Z</time></trkpt><trkpt lat="34.1105083" lon="9.9443133"><ele>32.0</ele><time>2026-04-04T20:05:29.285Z</time></trkpt><trkpt lat="34.1102167" lon="9.9441467"><ele>33.0</ele><time>2026-04-04T20:05:30.282Z</time></trkpt><trkpt lat="34.1099217" lon="9.943985"><ele>32.5</ele><time>2026-04-04T20:05:31.283Z</time></trkpt><trkpt lat="34.1096233" lon="9.9438283"><ele>32.0</ele><time>2026-04-04T20:05:32.283Z</time></trkpt><trkpt lat="34.1093233" lon="9.943675"><ele>32.0</ele><time>2026-04-04T20:05:33.285Z</time></trkpt><trkpt lat="34.10902" lon="9.9435267"><ele>32.0</ele><time>2026-04-04T20:05:34.285Z</time></trkpt><trkpt lat="34.1087133" lon="9.94338"><ele>32.0</ele><time>2026-04-04T20:05:35.285Z</time></trkpt><trkpt lat="34.1084067" lon="9.94324"><ele>32.0</ele><time>2026-04-04T20:05:36.286Z</time></trkpt><trkpt lat="34.1081033" lon="9.9431033"><ele>32.0</ele><time>2026-04-04T20:05:37.285Z</time></trkpt><trkpt lat="34.1078017" lon="9.9429733"><ele>32.0</ele><time>2026-04-04T20:05:38.285Z</time></trkpt><trkpt lat="34.1074967" lon="9.94285"><ele>32.0</ele><time>2026-04-04T20:05:39.283Z</time></trkpt><trkpt lat="34.1071933" lon="9.9427333"><ele>32.0</ele><time>2026-04-04T20:05:40.285Z</time></trkpt><trkpt lat="34.10689" lon="9.9426233"><ele>31.5</ele><time>2026-04-04T20:05:41.286Z</time></trkpt><trkpt lat="34.1065867" lon="9.9425167"><ele>31.0</ele><time>2026-04-04T20:05:42.285Z</time></trkpt><trkpt lat="34.106285" lon="9.942415"><ele>31.0</ele><time>2026-04-04T20:05:43.285Z</time></trkpt><trkpt lat="34.1059817" lon="9.9423167"><ele>31.0</ele><time>2026-04-04T20:05:44.282Z</time></trkpt><trkpt lat="34.105675" lon="9.94222"><ele>31.0</ele><time>2026-04-04T20:05:45.282Z</time></trkpt><trkpt lat="34.1053633" lon="9.9421283"><ele>31.0</ele><time>2026-04-04T20:05:46.284Z</time></trkpt><trkpt lat="34.1050483" lon="9.94204"><ele>31.5</ele><time>2026-04-04T20:05:47.283Z</time></trkpt><trkpt lat="34.1047317" lon="9.9419583"><ele>32.0</ele><time>2026-04-04T20:05:48.285Z</time></trkpt><trkpt lat="34.104415" lon="9.9418767"><ele>32.0</ele><time>2026-04-04T20:05:49.285Z</time></trkpt><trkpt lat="34.1040967" lon="9.9418033"><ele>32.0</ele><time>2026-04-04T20:05:50.286Z</time></trkpt><trkpt lat="34.1037817" lon="9.9417333"><ele>32.0</ele><time>2026-04-04T20:05:51.285Z</time></trkpt><trkpt lat="34.10347" lon="9.94167"><ele>32.0</ele><time>2026-04-04T20:05:52.285Z</time></trkpt><trkpt lat="34.1031567" lon="9.941615"><ele>32.5</ele><time>2026-04-04T20:05:53.285Z</time></trkpt><trkpt lat="34.1028433" lon="9.941565"><ele>33.0</ele><time>2026-04-04T20:05:54.285Z</time></trkpt><trkpt lat="34.1025267" lon="9.941515"><ele>33.5</ele><time>2026-04-04T20:05:55.285Z</time></trkpt><trkpt lat="34.1022083" lon="9.9414717"><ele>34.0</ele><time>2026-04-04T20:05:56.285Z</time></trkpt><trkpt lat="34.1018867" lon="9.9414317"><ele>33.0</ele><time>2026-04-04T20:05:57.285Z</time></trkpt><trkpt lat="34.1015617" lon="9.941395"><ele>32.0</ele><time>2026-04-04T20:05:58.285Z</time></trkpt><trkpt lat="34.1012367" lon="9.9413617"><ele>32.0</ele><time>2026-04-04T20:05:59.285Z</time></trkpt><trkpt lat="34.1009083" lon="9.9413333"><ele>32.0</ele><time>2026-04-04T20:06:00.285Z</time></trkpt><trkpt lat="34.10058" lon="9.9413083"><ele>32.0</ele><time>2026-04-04T20:06:01.283Z</time></trkpt><trkpt lat="34.1002517" lon="9.9412867"><ele>32.0</ele><time>2026-04-04T20:06:02.285Z</time></trkpt><trkpt lat="34.0999233" lon="9.9412617"><ele>32.5</ele><time>2026-04-04T20:06:03.285Z</time></trkpt><trkpt lat="34.0995933" lon="9.9412367"><ele>33.0</ele><time>2026-04-04T20:06:04.285Z</time></trkpt><trkpt lat="34.0992633" lon="9.9412133"><ele>33.0</ele><time>2026-04-04T20:06:05.286Z</time></trkpt><trkpt lat="34.0989317" lon="9.941195"><ele>33.0</ele><time>2026-04-04T20:06:06.285Z</time></trkpt><trkpt lat="34.0986017" lon="9.9411717"><ele>33.0</ele><time>2026-04-04T20:06:07.285Z</time></trkpt><trkpt lat="34.0982717" lon="9.9411517"><ele>33.0</ele><time>2026-04-04T20:06:08.285Z</time></trkpt><trkpt lat="34.0979383" lon="9.9411267"><ele>33.0</ele><time>2026-04-04T20:06:09.285Z</time></trkpt><trkpt lat="34.097605" lon="9.9411"><ele>33.0</ele><time>2026-04-04T20:06:10.285Z</time></trkpt><trkpt lat="34.09727" lon="9.9410717"><ele>33.5</ele><time>2026-04-04T20:06:11.285Z</time></trkpt><trkpt lat="34.0969367" lon="9.9410433"><ele>34.0</ele><time>2026-04-04T20:06:12.285Z</time></trkpt><trkpt lat="34.0966" lon="9.9410183"><ele>33.0</ele><time>2026-04-04T20:06:13.285Z</time></trkpt><trkpt lat="34.09627" lon="9.940995"><ele>32.0</ele><time>2026-04-04T20:06:14.285Z</time></trkpt><trkpt lat="34.095955" lon="9.9409683"><ele>33.0</ele><time>2026-04-04T20:06:15.285Z</time></trkpt><trkpt lat="34.0956567" lon="9.9409433"><ele>34.0</ele><time>2026-04-04T20:06:16.285Z</time></trkpt><trkpt lat="34.0953683" lon="9.94092"><ele>34.0</ele><time>2026-04-04T20:06:17.284Z</time></trkpt><trkpt lat="34.09508" lon="9.9409"><ele>34.0</ele><time>2026-04-04T20:06:18.284Z</time></trkpt><trkpt lat="34.094795" lon="9.9408767"><ele>34.5</ele><time>2026-04-04T20:06:19.284Z</time></trkpt><trkpt lat="34.0945083" lon="9.9408567"><ele>35.0</ele><time>2026-04-04T20:06:20.285Z</time></trkpt><trkpt lat="34.094215" lon="9.9408333"><ele>35.5</ele><time>2026-04-04T20:06:21.284Z</time></trkpt><trkpt lat="34.0939167" lon="9.94081"><ele>36.0</ele><time>2026-04-04T20:06:22.284Z</time></trkpt><trkpt lat="34.093615" lon="9.940785"><ele>36.0</ele><time>2026-04-04T20:06:23.284Z</time></trkpt><trkpt lat="34.0933117" lon="9.9407617"><ele>36.0</ele><time>2026-04-04T20:06:24.284Z</time></trkpt><trkpt lat="34.093005" lon="9.9407383"><ele>36.0</ele><time>2026-04-04T20:06:25.284Z</time></trkpt><trkpt lat="34.0926983" lon="9.9407133"><ele>36.0</ele><time>2026-04-04T20:06:26.284Z</time></trkpt><trkpt lat="34.0923917" lon="9.9406883"><ele>36.0</ele><time>2026-04-04T20:06:27.284Z</time></trkpt><trkpt lat="34.092085" lon="9.940665"><ele>36.0</ele><time>2026-04-04T20:06:28.284Z</time></trkpt><trkpt lat="34.09178" lon="9.9406433"><ele>36.5</ele><time>2026-04-04T20:06:29.284Z</time></trkpt><trkpt lat="34.0914783" lon="9.9406233"><ele>37.0</ele><time>2026-04-04T20:06:30.284Z</time></trkpt><trkpt lat="34.0911783" lon="9.9406067"><ele>37.0</ele><time>2026-04-04T20:06:31.281Z</time></trkpt><trkpt lat="34.09088" lon="9.94059"><ele>37.0</ele><time>2026-04-04T20:06:32.284Z</time></trkpt><trkpt lat="34.0905833" lon="9.9405667"><ele>38.5</ele><time>2026-04-04T20:06:33.284Z</time></trkpt><trkpt lat="34.0902867" lon="9.9405467"><ele>40.0</ele><time>2026-04-04T20:06:34.285Z</time></trkpt><trkpt lat="34.0899867" lon="9.9405233"><ele>39.0</ele><time>2026-04-04T20:06:35.281Z</time></trkpt><trkpt lat="34.0896833" lon="9.940505"><ele>38.0</ele><time>2026-04-04T20:06:36.284Z</time></trkpt><trkpt lat="34.0893817" lon="9.9404833"><ele>37.0</ele><time>2026-04-04T20:06:37.282Z</time></trkpt><trkpt lat="34.0890817" lon="9.9404633"><ele>36.0</ele><time>2026-04-04T20:06:38.285Z</time></trkpt><trkpt lat="34.08878" lon="9.9404433"><ele>36.0</ele><time>2026-04-04T20:06:39.282Z</time></trkpt><trkpt lat="34.08848" lon="9.9404217"><ele>36.0</ele><time>2026-04-04T20:06:40.284Z</time></trkpt><trkpt lat="34.0881817" lon="9.940395"><ele>38.5</ele><time>2026-04-04T20:06:41.284Z</time></trkpt><trkpt lat="34.0878833" lon="9.9403717"><ele>41.0</ele><time>2026-04-04T20:06:42.284Z</time></trkpt><trkpt lat="34.0875817" lon="9.9403467"><ele>41.0</ele><time>2026-04-04T20:06:43.285Z</time></trkpt><trkpt lat="34.0872817" lon="9.9403233"><ele>41.0</ele><time>2026-04-04T20:06:44.285Z</time></trkpt><trkpt lat="34.0869833" lon="9.9402917"><ele>41.0</ele><time>2026-04-04T20:06:45.284Z</time></trkpt><trkpt lat="34.0866833" lon="9.94026"><ele>41.0</ele><time>2026-04-04T20:06:46.284Z</time></trkpt><trkpt lat="34.086385" lon="9.9402267"><ele>41.5</ele><time>2026-04-04T20:06:47.284Z</time></trkpt><trkpt lat="34.086085" lon="9.9401967"><ele>42.0</ele><time>2026-04-04T20:06:48.284Z</time></trkpt><trkpt lat="34.085785" lon="9.9401683"><ele>42.0</ele><time>2026-04-04T20:06:49.284Z</time></trkpt><trkpt lat="34.0854867" lon="9.9401483"><ele>42.0</ele><time>2026-04-04T20:06:50.285Z</time></trkpt><trkpt lat="34.0851883" lon="9.940125"><ele>42.0</ele><time>2026-04-04T20:06:51.284Z</time></trkpt><trkpt lat="34.0848867" lon="9.9401"><ele>42.0</ele><time>2026-04-04T20:06:52.284Z</time></trkpt><trkpt lat="34.0845817" lon="9.9400767"><ele>42.0</ele><time>2026-04-04T20:06:53.285Z</time></trkpt><trkpt lat="34.0842733" lon="9.9400517"><ele>42.0</ele><time>2026-04-04T20:06:54.285Z</time></trkpt><trkpt lat="34.0839633" lon="9.9400283"><ele>42.0</ele><time>2026-04-04T20:06:55.284Z</time></trkpt><trkpt lat="34.0836517" lon="9.9400067"><ele>42.0</ele><time>2026-04-04T20:06:56.284Z</time></trkpt><trkpt lat="34.0833417" lon="9.9399833"><ele>43.0</ele><time>2026-04-04T20:06:57.284Z</time></trkpt><trkpt lat="34.0830317" lon="9.9399617"><ele>44.0</ele><time>2026-04-04T20:06:58.284Z</time></trkpt><trkpt lat="34.0827217" lon="9.9399383"><ele>45.0</ele><time>2026-04-04T20:06:59.285Z</time></trkpt><trkpt lat="34.0824117" lon="9.9399117"><ele>46.0</ele><time>2026-04-04T20:07:00.285Z</time></trkpt><trkpt lat="34.0821017" lon="9.9398833"><ele>46.0</ele><time>2026-04-04T20:07:01.285Z</time></trkpt><trkpt lat="34.0817917" lon="9.9398533"><ele>46.0</ele><time>2026-04-04T20:07:02.284Z</time></trkpt><trkpt lat="34.0814817" lon="9.9398167"><ele>45.0</ele><time>2026-04-04T20:07:03.284Z</time></trkpt><trkpt lat="34.0811733" lon="9.9397767"><ele>44.0</ele><time>2026-04-04T20:07:04.284Z</time></trkpt><trkpt lat="34.080865" lon="9.93973"><ele>45.0</ele><time>2026-04-04T20:07:05.284Z</time></trkpt><trkpt lat="34.0805583" lon="9.9396817"><ele>46.0</ele><time>2026-04-04T20:07:06.284Z</time></trkpt><trkpt lat="34.0802533" lon="9.9396267"><ele>46.0</ele><time>2026-04-04T20:07:07.284Z</time></trkpt><trkpt lat="34.07995" lon="9.9395683"><ele>46.0</ele><time>2026-04-04T20:07:08.285Z</time></trkpt><trkpt lat="34.07965" lon="9.9395083"><ele>45.5</ele><time>2026-04-04T20:07:09.285Z</time></trkpt><trkpt lat="34.0793517" lon="9.9394433"><ele>45.0</ele><time>2026-04-04T20:07:10.284Z</time></trkpt><trkpt lat="34.0790583" lon="9.9393733"><ele>43.5</ele><time>2026-04-04T20:07:11.285Z</time></trkpt><trkpt lat="34.0787683" lon="9.9393"><ele>42.0</ele><time>2026-04-04T20:07:12.284Z</time></trkpt><trkpt lat="34.0784817" lon="9.93922"><ele>42.0</ele><time>2026-04-04T20:07:13.285Z</time></trkpt><trkpt lat="34.0781967" lon="9.9391383"><ele>42.0</ele><time>2026-04-04T20:07:14.284Z</time></trkpt><trkpt lat="34.07791" lon="9.939055"><ele>42.0</ele><time>2026-04-04T20:07:15.285Z</time></trkpt><trkpt lat="34.07762" lon="9.9389683"><ele>42.0</ele><time>2026-04-04T20:07:16.284Z</time></trkpt><trkpt lat="34.0773283" lon="9.9388733"><ele>42.0</ele><time>2026-04-04T20:07:17.285Z</time></trkpt><trkpt lat="34.0770367" lon="9.9387767"><ele>42.0</ele><time>2026-04-04T20:07:18.284Z</time></trkpt><trkpt lat="34.076745" lon="9.9386683"><ele>42.5</ele><time>2026-04-04T20:07:19.285Z</time></trkpt><trkpt lat="34.0764567" lon="9.9385533"><ele>43.0</ele><time>2026-04-04T20:07:20.284Z</time></trkpt><trkpt lat="34.0761667" lon="9.9384283"><ele>43.0</ele><time>2026-04-04T20:07:21.285Z</time></trkpt><trkpt lat="34.075875" lon="9.93831"><ele>43.0</ele><time>2026-04-04T20:07:22.284Z</time></trkpt><trkpt lat="34.07558" lon="9.9381917"><ele>42.0</ele><time>2026-04-04T20:07:23.284Z</time></trkpt><trkpt lat="34.0752883" lon="9.9380717"><ele>41.0</ele><time>2026-04-04T20:07:24.285Z</time></trkpt><trkpt lat="34.0749933" lon="9.9379517"><ele>41.0</ele><time>2026-04-04T20:07:25.284Z</time></trkpt><trkpt lat="34.0746983" lon="9.9378317"><ele>41.0</ele><time>2026-04-04T20:07:26.281Z</time></trkpt><trkpt lat="34.0744033" lon="9.9377117"><ele>41.0</ele><time>2026-04-04T20:07:27.284Z</time></trkpt><trkpt lat="34.0741067" lon="9.9375917"><ele>41.0</ele><time>2026-04-04T20:07:28.284Z</time></trkpt><trkpt lat="34.0738117" lon="9.93747"><ele>41.0</ele><time>2026-04-04T20:07:29.283Z</time></trkpt><trkpt lat="34.073515" lon="9.9373517"><ele>41.0</ele><time>2026-04-04T20:07:30.285Z</time></trkpt><trkpt lat="34.0732183" lon="9.9372333"><ele>41.0</ele><time>2026-04-04T20:07:31.282Z</time></trkpt><trkpt lat="34.0729217" lon="9.9371133"><ele>41.0</ele><time>2026-04-04T20:07:32.284Z</time></trkpt><trkpt lat="34.0726233" lon="9.9369917"><ele>42.0</ele><time>2026-04-04T20:07:33.284Z</time></trkpt><trkpt lat="34.0723267" lon="9.9368733"><ele>43.0</ele><time>2026-04-04T20:07:34.284Z</time></trkpt><trkpt lat="34.0720283" lon="9.936755"><ele>43.5</ele><time>2026-04-04T20:07:35.284Z</time></trkpt><trkpt lat="34.07173" lon="9.9366383"><ele>44.0</ele><time>2026-04-04T20:07:36.284Z</time></trkpt><trkpt lat="34.0714333" lon="9.9365183"><ele>44.0</ele><time>2026-04-04T20:07:37.284Z</time></trkpt><trkpt lat="34.071135" lon="9.9363967"><ele>44.0</ele><time>2026-04-04T20:07:38.284Z</time></trkpt><trkpt lat="34.0708367" lon="9.9362783"><ele>45.5</ele><time>2026-04-04T20:07:39.284Z</time></trkpt><trkpt lat="34.0705367" lon="9.9361583"><ele>47.0</ele><time>2026-04-04T20:07:40.282Z</time></trkpt><trkpt lat="34.070235" lon="9.936035"><ele>46.0</ele><time>2026-04-04T20:07:41.285Z</time></trkpt><trkpt lat="34.0699333" lon="9.9359117"><ele>45.0</ele><time>2026-04-04T20:07:42.283Z</time></trkpt><trkpt lat="34.0696333" lon="9.9357883"><ele>45.0</ele><time>2026-04-04T20:07:43.284Z</time></trkpt><trkpt lat="34.0693333" lon="9.9356667"><ele>45.0</ele><time>2026-04-04T20:07:44.281Z</time></trkpt><trkpt lat="34.0690367" lon="9.9355467"><ele>44.0</ele><time>2026-04-04T20:07:45.282Z</time></trkpt><trkpt lat="34.06874" lon="9.93543"><ele>43.0</ele><time>2026-04-04T20:07:46.282Z</time></trkpt><trkpt lat="34.068445" lon="9.9353117"><ele>43.5</ele><time>2026-04-04T20:07:47.282Z</time></trkpt><trkpt lat="34.0681467" lon="9.935195"><ele>44.0</ele><time>2026-04-04T20:07:48.283Z</time></trkpt><trkpt lat="34.0678483" lon="9.935075"><ele>44.0</ele><time>2026-04-04T20:07:49.282Z</time></trkpt><trkpt lat="34.067555" lon="9.9349567"><ele>44.0</ele><time>2026-04-04T20:07:50.283Z</time></trkpt><trkpt lat="34.06726" lon="9.93484"><ele>44.5</ele><time>2026-04-04T20:07:51.283Z</time></trkpt><trkpt lat="34.0669667" lon="9.9347217"><ele>45.0</ele><time>2026-04-04T20:07:52.282Z</time></trkpt><trkpt lat="34.0666717" lon="9.9346017"><ele>44.0</ele><time>2026-04-04T20:07:53.283Z</time></trkpt><trkpt lat="34.0663767" lon="9.93448"><ele>43.0</ele><time>2026-04-04T20:07:54.283Z</time></trkpt><trkpt lat="34.06608" lon="9.9343583"><ele>43.0</ele><time>2026-04-04T20:07:55.283Z</time></trkpt><trkpt lat="34.0657833" lon="9.9342383"><ele>43.0</ele><time>2026-04-04T20:07:56.282Z</time></trkpt><trkpt lat="34.0654867" lon="9.9341167"><ele>44.0</ele><time>2026-04-04T20:07:57.284Z</time></trkpt><trkpt lat="34.06519" lon="9.9339967"><ele>45.0</ele><time>2026-04-04T20:07:58.282Z</time></trkpt><trkpt lat="34.0648883" lon="9.9338767"><ele>45.0</ele><time>2026-04-04T20:07:59.282Z</time></trkpt><trkpt lat="34.0645883" lon="9.9337567"><ele>45.0</ele><time>2026-04-04T20:08:00.283Z</time></trkpt><trkpt lat="34.0642867" lon="9.933635"><ele>45.0</ele><time>2026-04-04T20:08:01.285Z</time></trkpt><trkpt lat="34.063985" lon="9.933515"><ele>45.0</ele><time>2026-04-04T20:08:02.282Z</time></trkpt><trkpt lat="34.0636833" lon="9.93339"><ele>45.5</ele><time>2026-04-04T20:08:03.282Z</time></trkpt><trkpt lat="34.0633783" lon="9.9332667"><ele>46.0</ele><time>2026-04-04T20:08:04.282Z</time></trkpt><trkpt lat="34.0630733" lon="9.9331417"><ele>46.5</ele><time>2026-04-04T20:08:05.282Z</time></trkpt><trkpt lat="34.0627667" lon="9.93302"><ele>47.0</ele><time>2026-04-04T20:08:06.282Z</time></trkpt><trkpt lat="34.06246" lon="9.932895"><ele>47.0</ele><time>2026-04-04T20:08:07.282Z</time></trkpt><trkpt lat="34.062155" lon="9.9327733"><ele>47.0</ele><time>2026-04-04T20:08:08.282Z</time></trkpt><trkpt lat="34.06185" lon="9.93265"><ele>47.0</ele><time>2026-04-04T20:08:09.283Z</time></trkpt><trkpt lat="34.0615467" lon="9.9325283"><ele>47.0</ele><time>2026-04-04T20:08:10.283Z</time></trkpt><trkpt lat="34.061245" lon="9.9324067"><ele>47.0</ele><time>2026-04-04T20:08:11.282Z</time></trkpt><trkpt lat="34.060945" lon="9.932285"><ele>47.0</ele><time>2026-04-04T20:08:12.283Z</time></trkpt><trkpt lat="34.0606467" lon="9.9321617"><ele>47.0</ele><time>2026-04-04T20:08:13.282Z</time></trkpt><trkpt lat="34.060345" lon="9.9320417"><ele>47.0</ele><time>2026-04-04T20:08:14.283Z</time></trkpt><trkpt lat="34.0600433" lon="9.9319183"><ele>47.5</ele><time>2026-04-04T20:08:15.282Z</time></trkpt><trkpt lat="34.0597433" lon="9.9317967"><ele>48.0</ele><time>2026-04-04T20:08:16.283Z</time></trkpt><trkpt lat="34.0594433" lon="9.9316767"><ele>48.0</ele><time>2026-04-04T20:08:17.283Z</time></trkpt><trkpt lat="34.05914" lon="9.9315567"><ele>48.0</ele><time>2026-04-04T20:08:18.286Z</time></trkpt><trkpt lat="34.05884" lon="9.9314317"><ele>48.0</ele><time>2026-04-04T20:08:19.282Z</time></trkpt><trkpt lat="34.0585383" lon="9.931305"><ele>48.0</ele><time>2026-04-04T20:08:20.283Z</time></trkpt><trkpt lat="34.0582383" lon="9.93118"><ele>48.5</ele><time>2026-04-04T20:08:21.285Z</time></trkpt><trkpt lat="34.0579483" lon="9.93106"><ele>49.0</ele><time>2026-04-04T20:08:22.284Z</time></trkpt><trkpt lat="34.057665" lon="9.9309433"><ele>49.0</ele><time>2026-04-04T20:08:23.285Z</time></trkpt><trkpt lat="34.05739" lon="9.930835"><ele>49.0</ele><time>2026-04-04T20:08:24.285Z</time></trkpt><trkpt lat="34.0571183" lon="9.9307233"><ele>49.0</ele><time>2026-04-04T20:08:25.284Z</time></trkpt><trkpt lat="34.0568417" lon="9.9306167"><ele>49.0</ele><time>2026-04-04T20:08:26.284Z</time></trkpt><trkpt lat="34.056565" lon="9.9305083"><ele>49.5</ele><time>2026-04-04T20:08:27.286Z</time></trkpt><trkpt lat="34.0562917" lon="9.9303983"><ele>50.0</ele><time>2026-04-04T20:08:28.282Z</time></trkpt><trkpt lat="34.0560167" lon="9.93029"><ele>51.5</ele><time>2026-04-04T20:08:29.284Z</time></trkpt><trkpt lat="34.055745" lon="9.9301783"><ele>53.0</ele><time>2026-04-04T20:08:30.283Z</time></trkpt><trkpt lat="34.055475" lon="9.93007"><ele>53.0</ele><time>2026-04-04T20:08:31.285Z</time></trkpt><trkpt lat="34.0552067" lon="9.92996"><ele>53.0</ele><time>2026-04-04T20:08:32.283Z</time></trkpt><trkpt lat="34.05494" lon="9.9298483"><ele>52.5</ele><time>2026-04-04T20:08:33.282Z</time></trkpt><trkpt lat="34.054675" lon="9.92974"><ele>52.0</ele><time>2026-04-04T20:08:34.282Z</time></trkpt><trkpt lat="34.0544117" lon="9.9296317"><ele>52.0</ele><time>2026-04-04T20:08:35.283Z</time></trkpt><trkpt lat="34.05415" lon="9.9295267"><ele>52.0</ele><time>2026-04-04T20:08:36.283Z</time></trkpt><trkpt lat="34.0538933" lon="9.9294217"><ele>52.0</ele><time>2026-04-04T20:08:37.284Z</time></trkpt><trkpt lat="34.0536383" lon="9.9293167"><ele>52.0</ele><time>2026-04-04T20:08:38.282Z</time></trkpt><trkpt lat="34.0533817" lon="9.9292133"><ele>52.5</ele><time>2026-04-04T20:08:39.284Z</time></trkpt><trkpt lat="34.053125" lon="9.9291133"><ele>53.0</ele><time>2026-04-04T20:08:40.283Z</time></trkpt><trkpt lat="34.0528667" lon="9.9290117"><ele>53.0</ele><time>2026-04-04T20:08:41.285Z</time></trkpt><trkpt lat="34.052605" lon="9.9289067"><ele>53.0</ele><time>2026-04-04T20:08:42.284Z</time></trkpt><trkpt lat="34.05234" lon="9.9288"><ele>54.0</ele><time>2026-04-04T20:08:43.283Z</time></trkpt><trkpt lat="34.052075" lon="9.928695"><ele>55.0</ele><time>2026-04-04T20:08:44.286Z</time></trkpt><trkpt lat="34.0518067" lon="9.9285883"><ele>55.0</ele><time>2026-04-04T20:08:45.283Z</time></trkpt><trkpt lat="34.0515333" lon="9.9284817"><ele>55.0</ele><time>2026-04-04T20:08:46.286Z</time></trkpt><trkpt lat="34.0512583" lon="9.92837"><ele>55.0</ele><time>2026-04-04T20:08:47.285Z</time></trkpt><trkpt lat="34.0509817" lon="9.9282617"><ele>55.0</ele><time>2026-04-04T20:08:48.285Z</time></trkpt><trkpt lat="34.0507067" lon="9.92815"><ele>54.0</ele><time>2026-04-04T20:08:49.283Z</time></trkpt><trkpt lat="34.050435" lon="9.928045"><ele>53.0</ele><time>2026-04-04T20:08:50.285Z</time></trkpt><trkpt lat="34.050165" lon="9.9279383"><ele>56.5</ele><time>2026-04-04T20:08:51.285Z</time></trkpt><trkpt lat="34.049895" lon="9.9278367"><ele>60.0</ele><time>2026-04-04T20:08:52.286Z</time></trkpt><trkpt lat="34.0496283" lon="9.9277333"><ele>60.0</ele><time>2026-04-04T20:08:53.287Z</time></trkpt><trkpt lat="34.0493633" lon="9.9276333"><ele>60.0</ele><time>2026-04-04T20:08:54.285Z</time></trkpt><trkpt lat="34.0491033" lon="9.9275333"><ele>59.0</ele><time>2026-04-04T20:08:55.286Z</time></trkpt><trkpt lat="34.0488483" lon="9.9274317"><ele>58.0</ele><time>2026-04-04T20:08:56.285Z</time></trkpt><trkpt lat="34.048595" lon="9.92733"><ele>58.0</ele><time>2026-04-04T20:08:57.286Z</time></trkpt><trkpt lat="34.0483433" lon="9.92722"><ele>58.0</ele><time>2026-04-04T20:08:58.286Z</time></trkpt><trkpt lat="34.0480867" lon="9.9271133"><ele>58.5</ele><time>2026-04-04T20:08:59.285Z</time></trkpt><trkpt lat="34.0478267" lon="9.9270067"><ele>59.0</ele><time>2026-04-04T20:09:00.286Z</time></trkpt><trkpt lat="34.0475617" lon="9.9269033"><ele>58.5</ele><time>2026-04-04T20:09:01.285Z</time></trkpt><trkpt lat="34.0472917" lon="9.9268017"><ele>58.0</ele><time>2026-04-04T20:09:02.285Z</time></trkpt><trkpt lat="34.0470133" lon="9.9266983"><ele>58.0</ele><time>2026-04-04T20:09:03.282Z</time></trkpt><trkpt lat="34.046725" lon="9.926595"><ele>58.0</ele><time>2026-04-04T20:09:04.284Z</time></trkpt><trkpt lat="34.0464317" lon="9.92649"><ele>59.0</ele><time>2026-04-04T20:09:05.283Z</time></trkpt><trkpt lat="34.0461367" lon="9.926385"><ele>60.0</ele><time>2026-04-04T20:09:06.283Z</time></trkpt><trkpt lat="34.0458433" lon="9.9262817"><ele>60.0</ele><time>2026-04-04T20:09:07.282Z</time></trkpt><trkpt lat="34.0455517" lon="9.9261783"><ele>60.0</ele><time>2026-04-04T20:09:08.285Z</time></trkpt><trkpt lat="34.0452583" lon="9.9260733"><ele>60.0</ele><time>2026-04-04T20:09:09.282Z</time></trkpt><trkpt lat="34.0449683" lon="9.9259667"><ele>60.0</ele><time>2026-04-04T20:09:10.286Z</time></trkpt><trkpt lat="34.044685" lon="9.9258517"><ele>62.0</ele><time>2026-04-04T20:09:11.285Z</time></trkpt><trkpt lat="34.0444033" lon="9.925735"><ele>64.0</ele><time>2026-04-04T20:09:12.285Z</time></trkpt><trkpt lat="34.0441267" lon="9.9256167"><ele>64.0</ele><time>2026-04-04T20:09:13.285Z</time></trkpt><trkpt lat="34.0438533" lon="9.925505"><ele>64.0</ele><time>2026-04-04T20:09:14.285Z</time></trkpt><trkpt lat="34.04359" lon="9.9254017"><ele>64.0</ele><time>2026-04-04T20:09:15.285Z</time></trkpt><trkpt lat="34.0433333" lon="9.9253067"><ele>64.0</ele><time>2026-04-04T20:09:16.286Z</time></trkpt><trkpt lat="34.0430733" lon="9.9252133"><ele>64.5</ele><time>2026-04-04T20:09:17.283Z</time></trkpt><trkpt lat="34.0428083" lon="9.9251167"><ele>65.0</ele><time>2026-04-04T20:09:18.284Z</time></trkpt><trkpt lat="34.0425383" lon="9.9250183"><ele>66.5</ele><time>2026-04-04T20:09:19.285Z</time></trkpt><trkpt lat="34.0422617" lon="9.9249217"><ele>68.0</ele><time>2026-04-04T20:09:20.284Z</time></trkpt><trkpt lat="34.04198" lon="9.9248217"><ele>68.0</ele><time>2026-04-04T20:09:21.284Z</time></trkpt><trkpt lat="34.041695" lon="9.9247233"><ele>68.0</ele><time>2026-04-04T20:09:22.284Z</time></trkpt><trkpt lat="34.04141" lon="9.9246217"><ele>68.0</ele><time>2026-04-04T20:09:23.285Z</time></trkpt><trkpt lat="34.0411233" lon="9.9245167"><ele>68.0</ele><time>2026-04-04T20:09:24.284Z</time></trkpt><trkpt lat="34.0408333" lon="9.92441"><ele>68.0</ele><time>2026-04-04T20:09:25.284Z</time></trkpt><trkpt lat="34.0405367" lon="9.9243033"><ele>68.0</ele><time>2026-04-04T20:09:26.284Z</time></trkpt><trkpt lat="34.0402367" lon="9.9241933"><ele>70.0</ele><time>2026-04-04T20:09:27.285Z</time></trkpt><trkpt lat="34.039935" lon="9.924085"><ele>72.0</ele><time>2026-04-04T20:09:28.281Z</time></trkpt><trkpt lat="34.03963" lon="9.923975"><ele>72.0</ele><time>2026-04-04T20:09:29.286Z</time></trkpt><trkpt lat="34.0393217" lon="9.923865"><ele>72.0</ele><time>2026-04-04T20:09:30.284Z</time></trkpt><trkpt lat="34.0390133" lon="9.923755"><ele>73.0</ele><time>2026-04-04T20:09:31.284Z</time></trkpt><trkpt lat="34.038705" lon="9.923645"><ele>74.0</ele><time>2026-04-04T20:09:32.284Z</time></trkpt><trkpt lat="34.0383967" lon="9.9235367"><ele>74.0</ele><time>2026-04-04T20:09:33.282Z</time></trkpt><trkpt lat="34.0380967" lon="9.92343"><ele>74.0</ele><time>2026-04-04T20:09:34.282Z</time></trkpt><trkpt lat="34.037805" lon="9.9233267"><ele>74.0</ele><time>2026-04-04T20:09:35.283Z</time></trkpt><trkpt lat="34.03752" lon="9.9232267"><ele>74.0</ele><time>2026-04-04T20:09:36.282Z</time></trkpt><trkpt lat="34.0372417" lon="9.92313"><ele>74.0</ele><time>2026-04-04T20:09:37.282Z</time></trkpt><trkpt lat="34.0369683" lon="9.9230333"><ele>74.0</ele><time>2026-04-04T20:09:38.281Z</time></trkpt><trkpt lat="34.0366917" lon="9.9229367"><ele>74.0</ele><time>2026-04-04T20:09:39.282Z</time></trkpt><trkpt lat="34.03642" lon="9.9228367"><ele>74.0</ele><time>2026-04-04T20:09:40.284Z</time></trkpt><trkpt lat="34.0361483" lon="9.9227367"><ele>74.0</ele><time>2026-04-04T20:09:41.284Z</time></trkpt><trkpt lat="34.0358817" lon="9.9226367"><ele>74.0</ele><time>2026-04-04T20:09:42.284Z</time></trkpt><trkpt lat="34.035615" lon="9.92254"><ele>72.5</ele><time>2026-04-04T20:09:43.284Z</time></trkpt><trkpt lat="34.0353533" lon="9.9224467"><ele>71.0</ele><time>2026-04-04T20:09:44.284Z</time></trkpt><trkpt lat="34.035095" lon="9.92236"><ele>71.0</ele><time>2026-04-04T20:09:45.284Z</time></trkpt><trkpt lat="34.0348433" lon="9.9222717"><ele>71.0</ele><time>2026-04-04T20:09:46.285Z</time></trkpt><trkpt lat="34.034585" lon="9.9221817"><ele>71.0</ele><time>2026-04-04T20:09:47.285Z</time></trkpt><trkpt lat="34.0343183" lon="9.9220883"><ele>71.0</ele><time>2026-04-04T20:09:48.282Z</time></trkpt><trkpt lat="34.0340467" lon="9.92199"><ele>71.5</ele><time>2026-04-04T20:09:49.282Z</time></trkpt><trkpt lat="34.03377" lon="9.9218933"><ele>72.0</ele><time>2026-04-04T20:09:50.284Z</time></trkpt><trkpt lat="34.0334933" lon="9.9217933"><ele>72.0</ele><time>2026-04-04T20:09:51.284Z</time></trkpt><trkpt lat="34.0332183" lon="9.9216967"><ele>72.0</ele><time>2026-04-04T20:09:52.284Z</time></trkpt><trkpt lat="34.0329417" lon="9.9216"><ele>72.0</ele><time>2026-04-04T20:09:53.284Z</time></trkpt><trkpt lat="34.0326667" lon="9.9215"><ele>72.0</ele><time>2026-04-04T20:09:54.285Z</time></trkpt><trkpt lat="34.0323917" lon="9.9214017"><ele>72.5</ele><time>2026-04-04T20:09:55.285Z</time></trkpt><trkpt lat="34.0321217" lon="9.9213067"><ele>73.0</ele><time>2026-04-04T20:09:56.284Z</time></trkpt><trkpt lat="34.031855" lon="9.9212133"><ele>73.5</ele><time>2026-04-04T20:09:57.284Z</time></trkpt><trkpt lat="34.0315867" lon="9.92112"><ele>74.0</ele><time>2026-04-04T20:09:58.284Z</time></trkpt><trkpt lat="34.0313217" lon="9.921025"><ele>74.0</ele><time>2026-04-04T20:09:59.284Z</time></trkpt><trkpt lat="34.0310567" lon="9.92093"><ele>74.0</ele><time>2026-04-04T20:10:00.284Z</time></trkpt><trkpt lat="34.0307917" lon="9.9208367"><ele>75.0</ele><time>2026-04-04T20:10:01.285Z</time></trkpt><trkpt lat="34.030535" lon="9.920745"><ele>76.0</ele><time>2026-04-04T20:10:02.284Z</time></trkpt><trkpt lat="34.0302933" lon="9.9206583"><ele>76.0</ele><time>2026-04-04T20:10:03.284Z</time></trkpt><trkpt lat="34.0300567" lon="9.9205733"><ele>76.0</ele><time>2026-04-04T20:10:04.284Z</time></trkpt><trkpt lat="34.0298217" lon="9.92049"><ele>76.5</ele><time>2026-04-04T20:10:05.285Z</time></trkpt><trkpt lat="34.029585" lon="9.9204033"><ele>77.0</ele><time>2026-04-04T20:10:06.284Z</time></trkpt><trkpt lat="34.0293417" lon="9.9203167"><ele>76.5</ele><time>2026-04-04T20:10:07.284Z</time></trkpt><trkpt lat="34.0290967" lon="9.9202283"><ele>76.0</ele><time>2026-04-04T20:10:08.286Z</time></trkpt><trkpt lat="34.0288483" lon="9.9201383"><ele>76.0</ele><time>2026-04-04T20:10:09.284Z</time></trkpt><trkpt lat="34.0285933" lon="9.9200533"><ele>76.0</ele><time>2026-04-04T20:10:10.285Z</time></trkpt><trkpt lat="34.0283367" lon="9.919965"><ele>76.0</ele><time>2026-04-04T20:10:11.284Z</time></trkpt><trkpt lat="34.0280767" lon="9.91988"><ele>76.0</ele><time>2026-04-04T20:10:12.284Z</time></trkpt><trkpt lat="34.027815" lon="9.9197983"><ele>76.0</ele><time>2026-04-04T20:10:13.284Z</time></trkpt><trkpt lat="34.02755" lon="9.919715"><ele>76.0</ele><time>2026-04-04T20:10:14.285Z</time></trkpt><trkpt lat="34.0272817" lon="9.9196383"><ele>76.0</ele><time>2026-04-04T20:10:15.286Z</time></trkpt><trkpt lat="34.0270117" lon="9.9195667"><ele>76.0</ele><time>2026-04-04T20:10:16.284Z</time></trkpt><trkpt lat="34.0267367" lon="9.9195017"><ele>76.5</ele><time>2026-04-04T20:10:17.284Z</time></trkpt><trkpt lat="34.02646" lon="9.9194417"><ele>77.0</ele><time>2026-04-04T20:10:18.284Z</time></trkpt><trkpt lat="34.02618" lon="9.919385"><ele>77.0</ele><time>2026-04-04T20:10:19.284Z</time></trkpt><trkpt lat="34.0258967" lon="9.9193317"><ele>77.0</ele><time>2026-04-04T20:10:20.284Z</time></trkpt><trkpt lat="34.02561" lon="9.919285"><ele>76.5</ele><time>2026-04-04T20:10:21.285Z</time></trkpt><trkpt lat="34.0253233" lon="9.9192483"><ele>76.0</ele><time>2026-04-04T20:10:22.284Z</time></trkpt><trkpt lat="34.025035" lon="9.9192133"><ele>74.5</ele><time>2026-04-04T20:10:23.284Z</time></trkpt><trkpt lat="34.024745" lon="9.9191867"><ele>73.0</ele><time>2026-04-04T20:10:24.285Z</time></trkpt><trkpt lat="34.024455" lon="9.91917"><ele>73.0</ele><time>2026-04-04T20:10:25.284Z</time></trkpt><trkpt lat="34.024165" lon="9.9191617"><ele>73.0</ele><time>2026-04-04T20:10:26.281Z</time></trkpt><trkpt lat="34.0238767" lon="9.919155"><ele>73.0</ele><time>2026-04-04T20:10:27.284Z</time></trkpt><trkpt lat="34.0235883" lon="9.9191533"><ele>73.0</ele><time>2026-04-04T20:10:28.285Z</time></trkpt><trkpt lat="34.0232983" lon="9.9191567"><ele>73.0</ele><time>2026-04-04T20:10:29.284Z</time></trkpt><trkpt lat="34.023005" lon="9.919165"><ele>73.0</ele><time>2026-04-04T20:10:30.282Z</time></trkpt><trkpt lat="34.0227067" lon="9.91918"><ele>71.5</ele><time>2026-04-04T20:10:31.283Z</time></trkpt><trkpt lat="34.022405" lon="9.9192033"><ele>70.0</ele><time>2026-04-04T20:10:32.285Z</time></trkpt><trkpt lat="34.0221" lon="9.9192333"><ele>70.5</ele><time>2026-04-04T20:10:33.285Z</time></trkpt><trkpt lat="34.0217917" lon="9.9192717"><ele>71.0</ele><time>2026-04-04T20:10:34.284Z</time></trkpt><trkpt lat="34.0214833" lon="9.919315"><ele>72.0</ele><time>2026-04-04T20:10:35.284Z</time></trkpt><trkpt lat="34.0211733" lon="9.9193683"><ele>73.0</ele><time>2026-04-04T20:10:36.282Z</time></trkpt><trkpt lat="34.0208617" lon="9.9194283"><ele>72.5</ele><time>2026-04-04T20:10:37.286Z</time></trkpt><trkpt lat="34.02055" lon="9.9194967"><ele>72.0</ele><time>2026-04-04T20:10:38.281Z</time></trkpt><trkpt lat="34.0202367" lon="9.9195733"><ele>69.5</ele><time>2026-04-04T20:10:39.284Z</time></trkpt><trkpt lat="34.019925" lon="9.9196567"><ele>67.0</ele><time>2026-04-04T20:10:40.285Z</time></trkpt><trkpt lat="34.0196117" lon="9.91975"><ele>67.0</ele><time>2026-04-04T20:10:41.283Z</time></trkpt><trkpt lat="34.0193" lon="9.9198483"><ele>67.0</ele><time>2026-04-04T20:10:42.282Z</time></trkpt><trkpt lat="34.01899" lon="9.919955"><ele>66.0</ele><time>2026-04-04T20:10:43.283Z</time></trkpt><trkpt lat="34.0186817" lon="9.9200667"><ele>65.0</ele><time>2026-04-04T20:10:44.282Z</time></trkpt><trkpt lat="34.0183783" lon="9.920185"><ele>64.5</ele><time>2026-04-04T20:10:45.282Z</time></trkpt><trkpt lat="34.01808" lon="9.9203117"><ele>64.0</ele><time>2026-04-04T20:10:46.282Z</time></trkpt><trkpt lat="34.0177833" lon="9.920445"><ele>64.0</ele><time>2026-04-04T20:10:47.287Z</time></trkpt><trkpt lat="34.0174917" lon="9.9205833"><ele>64.0</ele><time>2026-04-04T20:10:48.285Z</time></trkpt><trkpt lat="34.017205" lon="9.9207283"><ele>63.5</ele><time>2026-04-04T20:10:49.286Z</time></trkpt><trkpt lat="34.0169233" lon="9.9208817"><ele>63.0</ele><time>2026-04-04T20:10:50.285Z</time></trkpt><trkpt lat="34.0166417" lon="9.92104"><ele>62.0</ele><time>2026-04-04T20:10:51.285Z</time></trkpt><trkpt lat="34.0163617" lon="9.9212033"><ele>61.0</ele><time>2026-04-04T20:10:52.285Z</time></trkpt><trkpt lat="34.0160833" lon="9.92137"><ele>60.5</ele><time>2026-04-04T20:10:53.284Z</time></trkpt><trkpt lat="34.01581" lon="9.921535"><ele>60.0</ele><time>2026-04-04T20:10:54.285Z</time></trkpt><trkpt lat="34.0155417" lon="9.9217"><ele>59.5</ele><time>2026-04-04T20:10:55.286Z</time></trkpt><trkpt lat="34.0152767" lon="9.9218633"><ele>59.0</ele><time>2026-04-04T20:10:56.282Z</time></trkpt><trkpt lat="34.0150117" lon="9.9220233"><ele>59.5</ele><time>2026-04-04T20:10:57.282Z</time></trkpt><trkpt lat="34.014745" lon="9.9221867"><ele>60.0</ele><time>2026-04-04T20:10:58.282Z</time></trkpt><trkpt lat="34.014475" lon="9.9223483"><ele>60.0</ele><time>2026-04-04T20:10:59.283Z</time></trkpt><trkpt lat="34.0142" lon="9.9225117"><ele>60.0</ele><time>2026-04-04T20:11:00.282Z</time></trkpt><trkpt lat="34.01392" lon="9.92268"><ele>58.0</ele><time>2026-04-04T20:11:01.286Z</time></trkpt><trkpt lat="34.0136367" lon="9.9228483"><ele>56.0</ele><time>2026-04-04T20:11:02.282Z</time></trkpt><trkpt lat="34.0133567" lon="9.9230167"><ele>56.5</ele><time>2026-04-04T20:11:03.282Z</time></trkpt><trkpt lat="34.0130767" lon="9.9231883"><ele>57.0</ele><time>2026-04-04T20:11:04.283Z</time></trkpt><trkpt lat="34.012795" lon="9.92336"><ele>57.0</ele><time>2026-04-04T20:11:05.282Z</time></trkpt><trkpt lat="34.0125117" lon="9.923535"><ele>57.0</ele><time>2026-04-04T20:11:06.282Z</time></trkpt><trkpt lat="34.0122283" lon="9.9237083"><ele>57.0</ele><time>2026-04-04T20:11:07.282Z</time></trkpt><trkpt lat="34.0119433" lon="9.9238833"><ele>57.0</ele><time>2026-04-04T20:11:08.282Z</time></trkpt><trkpt lat="34.0116567" lon="9.9240567"><ele>55.0</ele><time>2026-04-04T20:11:09.285Z</time></trkpt><trkpt lat="34.01137" lon="9.92423"><ele>53.0</ele><time>2026-04-04T20:11:10.282Z</time></trkpt><trkpt lat="34.0110833" lon="9.924405"><ele>51.5</ele><time>2026-04-04T20:11:11.282Z</time></trkpt><trkpt lat="34.010795" lon="9.9245783"><ele>50.0</ele><time>2026-04-04T20:11:12.283Z</time></trkpt><trkpt lat="34.0105067" lon="9.9247517"><ele>50.0</ele><time>2026-04-04T20:11:13.283Z</time></trkpt><trkpt lat="34.0102183" lon="9.9249267"><ele>50.0</ele><time>2026-04-04T20:11:14.282Z</time></trkpt><trkpt lat="34.0099267" lon="9.9251033"><ele>49.5</ele><time>2026-04-04T20:11:15.284Z</time></trkpt><trkpt lat="34.0096333" lon="9.9252817"><ele>49.0</ele><time>2026-04-04T20:11:16.282Z</time></trkpt><trkpt lat="34.0093383" lon="9.9254617"><ele>49.5</ele><time>2026-04-04T20:11:17.285Z</time></trkpt><trkpt lat="34.0090417" lon="9.9256417"><ele>50.0</ele><time>2026-04-04T20:11:18.285Z</time></trkpt><trkpt lat="34.008745" lon="9.9258217"><ele>50.5</ele><time>2026-04-04T20:11:19.286Z</time></trkpt><trkpt lat="34.008445" lon="9.9260017"><ele>51.0</ele><time>2026-04-04T20:11:20.285Z</time></trkpt><trkpt lat="34.0081483" lon="9.926185"><ele>52.0</ele><time>2026-04-04T20:11:21.285Z</time></trkpt><trkpt lat="34.0078517" lon="9.9263683"><ele>53.0</ele><time>2026-04-04T20:11:22.285Z</time></trkpt><trkpt lat="34.0075533" lon="9.9265517"><ele>54.0</ele><time>2026-04-04T20:11:23.285Z</time></trkpt><trkpt lat="34.0072533" lon="9.9267317"><ele>55.0</ele><time>2026-04-04T20:11:24.286Z</time></trkpt><trkpt lat="34.006955" lon="9.9269083"><ele>53.0</ele><time>2026-04-04T20:11:25.285Z</time></trkpt><trkpt lat="34.00666" lon="9.9270883"><ele>51.0</ele><time>2026-04-04T20:11:26.285Z</time></trkpt><trkpt lat="34.00637" lon="9.9272683"><ele>51.0</ele><time>2026-04-04T20:11:27.282Z</time></trkpt><trkpt lat="34.0060817" lon="9.92745"><ele>51.0</ele><time>2026-04-04T20:11:28.283Z</time></trkpt><trkpt lat="34.005795" lon="9.9276267"><ele>49.5</ele><time>2026-04-04T20:11:29.282Z</time></trkpt><trkpt lat="34.0055033" lon="9.9278017"><ele>48.0</ele><time>2026-04-04T20:11:30.283Z</time></trkpt><trkpt lat="34.0052083" lon="9.9279783"><ele>46.0</ele><time>2026-04-04T20:11:31.284Z</time></trkpt><trkpt lat="34.0049117" lon="9.9281583"><ele>44.0</ele><time>2026-04-04T20:11:32.282Z</time></trkpt><trkpt lat="34.0046083" lon="9.9283417"><ele>44.5</ele><time>2026-04-04T20:11:33.283Z</time></trkpt><trkpt lat="34.0043017" lon="9.9285283"><ele>45.0</ele><time>2026-04-04T20:11:34.283Z</time></trkpt><trkpt lat="34.003995" lon="9.928715"><ele>44.0</ele><time>2026-04-04T20:11:35.283Z</time></trkpt><trkpt lat="34.0036917" lon="9.9289"><ele>43.0</ele><time>2026-04-04T20:11:36.284Z</time></trkpt><trkpt lat="34.0033933" lon="9.9290817"><ele>43.5</ele><time>2026-04-04T20:11:37.283Z</time></trkpt><trkpt lat="34.0031033" lon="9.9292583"><ele>44.0</ele><time>2026-04-04T20:11:38.282Z</time></trkpt><trkpt lat="34.002815" lon="9.9294333"><ele>44.0</ele><time>2026-04-04T20:11:39.283Z</time></trkpt><trkpt lat="34.0025317" lon="9.92961"><ele>44.0</ele><time>2026-04-04T20:11:40.283Z</time></trkpt><trkpt lat="34.00225" lon="9.92978"><ele>42.0</ele><time>2026-04-04T20:11:41.283Z</time></trkpt><trkpt lat="34.0019717" lon="9.92995"><ele>40.0</ele><time>2026-04-04T20:11:42.283Z</time></trkpt><trkpt lat="34.001695" lon="9.9301167"><ele>40.5</ele><time>2026-04-04T20:11:43.283Z</time></trkpt><trkpt lat="34.0014183" lon="9.9302867"><ele>41.0</ele><time>2026-04-04T20:11:44.282Z</time></trkpt><trkpt lat="34.0011417" lon="9.9304533"><ele>41.0</ele><time>2026-04-04T20:11:45.283Z</time></trkpt><trkpt lat="34.000865" lon="9.9306183"><ele>41.0</ele><time>2026-04-04T20:11:46.284Z</time></trkpt><trkpt lat="34.00059" lon="9.9307817"><ele>40.5</ele><time>2026-04-04T20:11:47.286Z</time></trkpt><trkpt lat="34.0003133" lon="9.9309517"><ele>40.0</ele><time>2026-04-04T20:11:48.286Z</time></trkpt><trkpt lat="34.0000367" lon="9.9311167"><ele>40.0</ele><time>2026-04-04T20:11:49.285Z</time></trkpt><trkpt lat="33.99976" lon="9.931285"><ele>40.0</ele><time>2026-04-04T20:11:50.285Z</time></trkpt><trkpt lat="33.9994833" lon="9.9314567"><ele>40.0</ele><time>2026-04-04T20:11:51.286Z</time></trkpt><trkpt lat="33.999205" lon="9.93163"><ele>40.0</ele><time>2026-04-04T20:11:52.285Z</time></trkpt><trkpt lat="33.998925" lon="9.9318"><ele>39.5</ele><time>2026-04-04T20:11:53.285Z</time></trkpt><trkpt lat="33.9986433" lon="9.9319717"><ele>39.0</ele><time>2026-04-04T20:11:54.285Z</time></trkpt><trkpt lat="33.9983583" lon="9.9321417"><ele>39.0</ele><time>2026-04-04T20:11:55.285Z</time></trkpt><trkpt lat="33.9980733" lon="9.9323133"><ele>39.0</ele><time>2026-04-04T20:11:56.284Z</time></trkpt><trkpt lat="33.9977867" lon="9.932485"><ele>38.0</ele><time>2026-04-04T20:11:57.282Z</time></trkpt><trkpt lat="33.9975017" lon="9.9326583"><ele>37.0</ele><time>2026-04-04T20:11:58.283Z</time></trkpt><trkpt lat="33.997215" lon="9.9328333"><ele>37.0</ele><time>2026-04-04T20:11:59.283Z</time></trkpt><trkpt lat="33.9969283" lon="9.9330067"><ele>37.0</ele><time>2026-04-04T20:12:00.283Z</time></trkpt><trkpt lat="33.99664" lon="9.9331817"><ele>38.0</ele><time>2026-04-04T20:12:01.282Z</time></trkpt><trkpt lat="33.9963533" lon="9.9333583"><ele>39.0</ele><time>2026-04-04T20:12:02.282Z</time></trkpt><trkpt lat="33.9960683" lon="9.9335317"><ele>39.5</ele><time>2026-04-04T20:12:03.282Z</time></trkpt><trkpt lat="33.995785" lon="9.9337017"><ele>40.0</ele><time>2026-04-04T20:12:04.283Z</time></trkpt><trkpt lat="33.9955033" lon="9.933875"><ele>40.0</ele><time>2026-04-04T20:12:05.285Z</time></trkpt><trkpt lat="33.995225" lon="9.9340467"><ele>40.0</ele><time>2026-04-04T20:12:06.283Z</time></trkpt><trkpt lat="33.9949467" lon="9.9342183"><ele>41.0</ele><time>2026-04-04T20:12:07.282Z</time></trkpt><trkpt lat="33.994665" lon="9.9343867"><ele>42.0</ele><time>2026-04-04T20:12:08.283Z</time></trkpt><trkpt lat="33.994385" lon="9.9345567"><ele>41.0</ele><time>2026-04-04T20:12:09.284Z</time></trkpt><trkpt lat="33.9941017" lon="9.9347233"><ele>40.0</ele><time>2026-04-04T20:12:10.284Z</time></trkpt><trkpt lat="33.99382" lon="9.9348917"><ele>39.0</ele><time>2026-04-04T20:12:11.283Z</time></trkpt><trkpt lat="33.9935383" lon="9.9350633"><ele>38.0</ele><time>2026-04-04T20:12:12.283Z</time></trkpt><trkpt lat="33.9932567" lon="9.935235"><ele>36.5</ele><time>2026-04-04T20:12:13.282Z</time></trkpt><trkpt lat="33.99298" lon="9.9354033"><ele>35.0</ele><time>2026-04-04T20:12:14.285Z</time></trkpt><trkpt lat="33.9927017" lon="9.93557"><ele>35.5</ele><time>2026-04-04T20:12:15.282Z</time></trkpt><trkpt lat="33.992425" lon="9.9357433"><ele>36.0</ele><time>2026-04-04T20:12:16.283Z</time></trkpt><trkpt lat="33.9921467" lon="9.9359133"><ele>35.5</ele><time>2026-04-04T20:12:17.286Z</time></trkpt><trkpt lat="33.991865" lon="9.936085"><ele>35.0</ele><time>2026-04-04T20:12:18.285Z</time></trkpt><trkpt lat="33.991585" lon="9.936255"><ele>35.0</ele><time>2026-04-04T20:12:19.285Z</time></trkpt><trkpt lat="33.9913" lon="9.93643"><ele>35.0</ele><time>2026-04-04T20:12:20.284Z</time></trkpt><trkpt lat="33.9910167" lon="9.9366"><ele>34.0</ele><time>2026-04-04T20:12:21.281Z</time></trkpt><trkpt lat="33.990735" lon="9.9367717"><ele>33.0</ele><time>2026-04-04T20:12:22.284Z</time></trkpt><trkpt lat="33.9904517" lon="9.9369433"><ele>33.0</ele><time>2026-04-04T20:12:23.285Z</time></trkpt><trkpt lat="33.99018" lon="9.9371117"><ele>33.0</ele><time>2026-04-04T20:12:24.285Z</time></trkpt><trkpt lat="33.989915" lon="9.9372717"><ele>33.5</ele><time>2026-04-04T20:12:25.284Z</time></trkpt><trkpt lat="33.9896467" lon="9.9374317"><ele>34.0</ele><time>2026-04-04T20:12:26.282Z</time></trkpt><trkpt lat="33.9893783" lon="9.9375967"><ele>35.0</ele><time>2026-04-04T20:12:27.282Z</time></trkpt><trkpt lat="33.9891117" lon="9.9377633"><ele>36.0</ele><time>2026-04-04T20:12:28.282Z</time></trkpt><trkpt lat="33.988845" lon="9.9379283"><ele>36.0</ele><time>2026-04-04T20:12:29.281Z</time></trkpt><trkpt lat="33.9885783" lon="9.9380933"><ele>36.0</ele><time>2026-04-04T20:12:30.282Z</time></trkpt><trkpt lat="33.98831" lon="9.9382533"><ele>34.5</ele><time>2026-04-04T20:12:31.281Z</time></trkpt><trkpt lat="33.9880417" lon="9.9384117"><ele>33.0</ele><time>2026-04-04T20:12:32.285Z</time></trkpt><trkpt lat="33.9877717" lon="9.93857"><ele>32.5</ele><time>2026-04-04T20:12:33.281Z</time></trkpt><trkpt lat="33.9875017" lon="9.9387267"><ele>32.0</ele><time>2026-04-04T20:12:34.283Z</time></trkpt><trkpt lat="33.9872333" lon="9.938885"><ele>32.0</ele><time>2026-04-04T20:12:35.282Z</time></trkpt><trkpt lat="33.986965" lon="9.939045"><ele>32.0</ele><time>2026-04-04T20:12:36.282Z</time></trkpt><trkpt lat="33.9866983" lon="9.9392083"><ele>32.0</ele><time>2026-04-04T20:12:37.282Z</time></trkpt><trkpt lat="33.9864333" lon="9.93937"><ele>32.0</ele><time>2026-04-04T20:12:38.281Z</time></trkpt><trkpt lat="33.98617" lon="9.9395317"><ele>32.0</ele><time>2026-04-04T20:12:39.282Z</time></trkpt><trkpt lat="33.9859083" lon="9.9396933"><ele>32.0</ele><time>2026-04-04T20:12:40.281Z</time></trkpt><trkpt lat="33.985645" lon="9.9398517"><ele>32.0</ele><time>2026-04-04T20:12:41.283Z</time></trkpt><trkpt lat="33.9853817" lon="9.9400133"><ele>32.0</ele><time>2026-04-04T20:12:42.282Z</time></trkpt><trkpt lat="33.985115" lon="9.940175"><ele>32.5</ele><time>2026-04-04T20:12:43.282Z</time></trkpt><trkpt lat="33.9848467" lon="9.9403383"><ele>33.0</ele><time>2026-04-04T20:12:44.281Z</time></trkpt><trkpt lat="33.9845783" lon="9.9405017"><ele>33.0</ele><time>2026-04-04T20:12:45.282Z</time></trkpt><trkpt lat="33.9843117" lon="9.9406633"><ele>33.0</ele><time>2026-04-04T20:12:46.283Z</time></trkpt><trkpt lat="33.9840467" lon="9.940825"><ele>34.0</ele><time>2026-04-04T20:12:47.285Z</time></trkpt><trkpt lat="33.98378" lon="9.9409883"><ele>35.0</ele><time>2026-04-04T20:12:48.285Z</time></trkpt><trkpt lat="33.9835133" lon="9.9411467"><ele>34.0</ele><time>2026-04-04T20:12:49.285Z</time></trkpt><trkpt lat="33.983245" lon="9.9413083"><ele>33.0</ele><time>2026-04-04T20:12:50.284Z</time></trkpt><trkpt lat="33.9829783" lon="9.9414717"><ele>33.0</ele><time>2026-04-04T20:12:51.284Z</time></trkpt><trkpt lat="33.9827117" lon="9.941635"><ele>33.0</ele><time>2026-04-04T20:12:52.281Z</time></trkpt><trkpt lat="33.982445" lon="9.9417967"><ele>33.5</ele><time>2026-04-04T20:12:53.284Z</time></trkpt><trkpt lat="33.9821767" lon="9.9419583"><ele>34.0</ele><time>2026-04-04T20:12:54.284Z</time></trkpt><trkpt lat="33.9819067" lon="9.94212"><ele>31.5</ele><time>2026-04-04T20:12:55.284Z</time></trkpt><trkpt lat="33.9816367" lon="9.9422817"><ele>29.0</ele><time>2026-04-04T20:12:56.281Z</time></trkpt><trkpt lat="33.9813683" lon="9.942445"><ele>29.0</ele><time>2026-04-04T20:12:57.283Z</time></trkpt><trkpt lat="33.9810983" lon="9.9426083"><ele>29.0</ele><time>2026-04-04T20:12:58.282Z</time></trkpt><trkpt lat="33.9808317" lon="9.9427717"><ele>28.0</ele><time>2026-04-04T20:12:59.283Z</time></trkpt><trkpt lat="33.9805633" lon="9.942935"><ele>27.0</ele><time>2026-04-04T20:13:00.282Z</time></trkpt><trkpt lat="33.980295" lon="9.9430967"><ele>27.0</ele><time>2026-04-04T20:13:01.283Z</time></trkpt><trkpt lat="33.9800267" lon="9.94326"><ele>27.0</ele><time>2026-04-04T20:13:02.283Z</time></trkpt><trkpt lat="33.9797567" lon="9.943425"><ele>26.5</ele><time>2026-04-04T20:13:03.284Z</time></trkpt><trkpt lat="33.9794833" lon="9.9435933"><ele>26.0</ele><time>2026-04-04T20:13:04.282Z</time></trkpt><trkpt lat="33.979205" lon="9.9437617"><ele>27.0</ele><time>2026-04-04T20:13:05.282Z</time></trkpt><trkpt lat="33.9789233" lon="9.9439317"><ele>28.0</ele><time>2026-04-04T20:13:06.283Z</time></trkpt><trkpt lat="33.9786417" lon="9.9441017"><ele>28.5</ele><time>2026-04-04T20:13:07.282Z</time></trkpt><trkpt lat="33.97836" lon="9.9442717"><ele>29.0</ele><time>2026-04-04T20:13:08.284Z</time></trkpt><trkpt lat="33.9780783" lon="9.9444417"><ele>29.5</ele><time>2026-04-04T20:13:09.283Z</time></trkpt><trkpt lat="33.977795" lon="9.9446133"><ele>30.0</ele><time>2026-04-04T20:13:10.283Z</time></trkpt><trkpt lat="33.97751" lon="9.944785"><ele>30.0</ele><time>2026-04-04T20:13:11.282Z</time></trkpt><trkpt lat="33.9772267" lon="9.9449583"><ele>30.0</ele><time>2026-04-04T20:13:12.282Z</time></trkpt><trkpt lat="33.9769433" lon="9.94513"><ele>31.0</ele><time>2026-04-04T20:13:13.283Z</time></trkpt><trkpt lat="33.9766617" lon="9.9453017"><ele>32.0</ele><time>2026-04-04T20:13:14.282Z</time></trkpt><trkpt lat="33.9763783" lon="9.9454717"><ele>32.0</ele><time>2026-04-04T20:13:15.285Z</time></trkpt><trkpt lat="33.9760983" lon="9.9456417"><ele>32.0</ele><time>2026-04-04T20:13:16.282Z</time></trkpt><trkpt lat="33.9758167" lon="9.9458133"><ele>32.0</ele><time>2026-04-04T20:13:17.285Z</time></trkpt><trkpt lat="33.975535" lon="9.9459833"><ele>32.0</ele><time>2026-04-04T20:13:18.285Z</time></trkpt><trkpt lat="33.9752533" lon="9.9461533"><ele>32.0</ele><time>2026-04-04T20:13:19.284Z</time></trkpt><trkpt lat="33.974975" lon="9.9463267"><ele>32.0</ele><time>2026-04-04T20:13:20.285Z</time></trkpt><trkpt lat="33.974695" lon="9.9464983"><ele>32.0</ele><time>2026-04-04T20:13:21.284Z</time></trkpt><trkpt lat="33.974415" lon="9.9466717"><ele>32.0</ele><time>2026-04-04T20:13:22.284Z</time></trkpt><trkpt lat="33.97414" lon="9.9468383"><ele>31.5</ele><time>2026-04-04T20:13:23.285Z</time></trkpt><trkpt lat="33.9738683" lon="9.9470033"><ele>31.0</ele><time>2026-04-04T20:13:24.286Z</time></trkpt><trkpt lat="33.9736" lon="9.9471667"><ele>32.5</ele><time>2026-04-04T20:13:25.284Z</time></trkpt><trkpt lat="33.97333" lon="9.94733"><ele>34.0</ele><time>2026-04-04T20:13:26.282Z</time></trkpt><trkpt lat="33.97306" lon="9.947495"><ele>33.5</ele><time>2026-04-04T20:13:27.282Z</time></trkpt><trkpt lat="33.9727867" lon="9.9476617"><ele>33.0</ele><time>2026-04-04T20:13:28.283Z</time></trkpt><trkpt lat="33.97251" lon="9.94783"><ele>32.5</ele><time>2026-04-04T20:13:29.283Z</time></trkpt><trkpt lat="33.97223" lon="9.9479967"><ele>32.0</ele><time>2026-04-04T20:13:30.283Z</time></trkpt><trkpt lat="33.9719517" lon="9.94816"><ele>32.0</ele><time>2026-04-04T20:13:31.282Z</time></trkpt><trkpt lat="33.9716733" lon="9.9483267"><ele>32.0</ele><time>2026-04-04T20:13:32.282Z</time></trkpt><trkpt lat="33.9713967" lon="9.948495"><ele>32.0</ele><time>2026-04-04T20:13:33.282Z</time></trkpt><trkpt lat="33.97112" lon="9.9486633"><ele>32.0</ele><time>2026-04-04T20:13:34.282Z</time></trkpt><trkpt lat="33.970845" lon="9.9488333"><ele>33.0</ele><time>2026-04-04T20:13:35.283Z</time></trkpt><trkpt lat="33.97057" lon="9.9490017"><ele>34.0</ele><time>2026-04-04T20:13:36.282Z</time></trkpt><trkpt lat="33.9702933" lon="9.94917"><ele>33.5</ele><time>2026-04-04T20:13:37.282Z</time></trkpt><trkpt lat="33.9700167" lon="9.9493367"><ele>33.0</ele><time>2026-04-04T20:13:38.281Z</time></trkpt><trkpt lat="33.9697417" lon="9.9495033"><ele>33.0</ele><time>2026-04-04T20:13:39.282Z</time></trkpt><trkpt lat="33.9694683" lon="9.9496683"><ele>33.0</ele><time>2026-04-04T20:13:40.282Z</time></trkpt><trkpt lat="33.9691983" lon="9.9498333"><ele>33.0</ele><time>2026-04-04T20:13:41.282Z</time></trkpt><trkpt lat="33.9689283" lon="9.9499983"><ele>33.0</ele><time>2026-04-04T20:13:42.282Z</time></trkpt><trkpt lat="33.9686567" lon="9.9501633"><ele>33.0</ele><time>2026-04-04T20:13:43.283Z</time></trkpt><trkpt lat="33.9683867" lon="9.95033"><ele>33.0</ele><time>2026-04-04T20:13:44.281Z</time></trkpt><trkpt lat="33.9681183" lon="9.950495"><ele>33.5</ele><time>2026-04-04T20:13:45.283Z</time></trkpt><trkpt lat="33.9678483" lon="9.9506617"><ele>34.0</ele><time>2026-04-04T20:13:46.282Z</time></trkpt><trkpt lat="33.967575" lon="9.9508283"><ele>33.0</ele><time>2026-04-04T20:13:47.283Z</time></trkpt><trkpt lat="33.9673" lon="9.9509933"><ele>32.0</ele><time>2026-04-04T20:13:48.283Z</time></trkpt><trkpt lat="33.9670283" lon="9.9511567"><ele>32.0</ele><time>2026-04-04T20:13:49.285Z</time></trkpt><trkpt lat="33.9667583" lon="9.9513183"><ele>32.0</ele><time>2026-04-04T20:13:50.286Z</time></trkpt><trkpt lat="33.9664883" lon="9.9514817"><ele>33.0</ele><time>2026-04-04T20:13:51.286Z</time></trkpt><trkpt lat="33.9662167" lon="9.951645"><ele>34.0</ele><time>2026-04-04T20:13:52.285Z</time></trkpt><trkpt lat="33.9659417" lon="9.9518083"><ele>35.0</ele><time>2026-04-04T20:13:53.285Z</time></trkpt><trkpt lat="33.9656683" lon="9.951975"><ele>36.0</ele><time>2026-04-04T20:13:54.285Z</time></trkpt><trkpt lat="33.9653933" lon="9.95214"><ele>36.0</ele><time>2026-04-04T20:13:55.284Z</time></trkpt><trkpt lat="33.96512" lon="9.952305"><ele>36.0</ele><time>2026-04-04T20:13:56.281Z</time></trkpt><trkpt lat="33.964845" lon="9.95247"><ele>36.0</ele><time>2026-04-04T20:13:57.283Z</time></trkpt><trkpt lat="33.9645683" lon="9.9526383"><ele>36.0</ele><time>2026-04-04T20:13:58.285Z</time></trkpt><trkpt lat="33.9642933" lon="9.9528067"><ele>37.0</ele><time>2026-04-04T20:13:59.283Z</time></trkpt><trkpt lat="33.9640167" lon="9.9529783"><ele>38.0</ele><time>2026-04-04T20:14:00.283Z</time></trkpt><trkpt lat="33.96374" lon="9.9531467"><ele>38.0</ele><time>2026-04-04T20:14:01.284Z</time></trkpt><trkpt lat="33.96346" lon="9.9533183"><ele>38.0</ele><time>2026-04-04T20:14:02.283Z</time></trkpt><trkpt lat="33.9631817" lon="9.9534883"><ele>39.5</ele><time>2026-04-04T20:14:03.283Z</time></trkpt><trkpt lat="33.9629033" lon="9.9536567"><ele>41.0</ele><time>2026-04-04T20:14:04.282Z</time></trkpt><trkpt lat="33.962625" lon="9.9538233"><ele>43.0</ele><time>2026-04-04T20:14:05.283Z</time></trkpt><trkpt lat="33.9623467" lon="9.9539883"><ele>45.0</ele><time>2026-04-04T20:14:06.282Z</time></trkpt><trkpt lat="33.9620667" lon="9.9541517"><ele>44.0</ele><time>2026-04-04T20:14:07.283Z</time></trkpt><trkpt lat="33.961785" lon="9.95431"><ele>43.0</ele><time>2026-04-04T20:14:08.282Z</time></trkpt><trkpt lat="33.9615033" lon="9.9544667"><ele>43.0</ele><time>2026-04-04T20:14:09.283Z</time></trkpt><trkpt lat="33.9612233" lon="9.95462"><ele>43.0</ele><time>2026-04-04T20:14:10.283Z</time></trkpt><trkpt lat="33.9609417" lon="9.9547717"><ele>45.0</ele><time>2026-04-04T20:14:11.282Z</time></trkpt><trkpt lat="33.9606583" lon="9.9549217"><ele>47.0</ele><time>2026-04-04T20:14:12.282Z</time></trkpt><trkpt lat="33.9603733" lon="9.9550683"><ele>47.0</ele><time>2026-04-04T20:14:13.282Z</time></trkpt><trkpt lat="33.9600883" lon="9.9552117"><ele>47.0</ele><time>2026-04-04T20:14:14.281Z</time></trkpt><trkpt lat="33.9598" lon="9.9553517"><ele>49.0</ele><time>2026-04-04T20:14:15.282Z</time></trkpt><trkpt lat="33.9595117" lon="9.9554917"><ele>51.0</ele><time>2026-04-04T20:14:16.283Z</time></trkpt><trkpt lat="33.9592233" lon="9.95563"><ele>49.5</ele><time>2026-04-04T20:14:17.285Z</time></trkpt><trkpt lat="33.958935" lon="9.9557633"><ele>48.0</ele><time>2026-04-04T20:14:18.285Z</time></trkpt><trkpt lat="33.9586467" lon="9.9558917"><ele>47.0</ele><time>2026-04-04T20:14:19.285Z</time></trkpt><trkpt lat="33.9583567" lon="9.95602"><ele>46.0</ele><time>2026-04-04T20:14:20.285Z</time></trkpt><trkpt lat="33.958065" lon="9.9561467"><ele>46.0</ele><time>2026-04-04T20:14:21.285Z</time></trkpt><trkpt lat="33.9577717" lon="9.956275"><ele>46.0</ele><time>2026-04-04T20:14:22.286Z</time></trkpt><trkpt lat="33.9574783" lon="9.9564033"><ele>47.0</ele><time>2026-04-04T20:14:23.285Z</time></trkpt><trkpt lat="33.9571817" lon="9.9565283"><ele>48.0</ele><time>2026-04-04T20:14:24.287Z</time></trkpt><trkpt lat="33.9568883" lon="9.95665"><ele>47.0</ele><time>2026-04-04T20:14:25.282Z</time></trkpt><trkpt lat="33.9565983" lon="9.956765"><ele>46.0</ele><time>2026-04-04T20:14:26.282Z</time></trkpt><trkpt lat="33.95631" lon="9.956875"><ele>46.0</ele><time>2026-04-04T20:14:27.282Z</time></trkpt><trkpt lat="33.95602" lon="9.9569833"><ele>46.0</ele><time>2026-04-04T20:14:28.283Z</time></trkpt><trkpt lat="33.9557317" lon="9.95709"><ele>46.5</ele><time>2026-04-04T20:14:29.282Z</time></trkpt><trkpt lat="33.95544" lon="9.957195"><ele>47.0</ele><time>2026-04-04T20:14:30.282Z</time></trkpt><trkpt lat="33.95515" lon="9.9572967"><ele>48.0</ele><time>2026-04-04T20:14:31.282Z</time></trkpt><trkpt lat="33.9548567" lon="9.957395"><ele>49.0</ele><time>2026-04-04T20:14:32.285Z</time></trkpt><trkpt lat="33.954565" lon="9.9574917"><ele>49.0</ele><time>2026-04-04T20:14:33.282Z</time></trkpt><trkpt lat="33.9542717" lon="9.9575867"><ele>49.0</ele><time>2026-04-04T20:14:34.283Z</time></trkpt><trkpt lat="33.9539767" lon="9.9576767"><ele>49.0</ele><time>2026-04-04T20:14:35.282Z</time></trkpt><trkpt lat="33.9536817" lon="9.9577667"><ele>49.0</ele><time>2026-04-04T20:14:36.283Z</time></trkpt><trkpt lat="33.953385" lon="9.9578533"><ele>49.5</ele><time>2026-04-04T20:14:37.283Z</time></trkpt><trkpt lat="33.9530867" lon="9.9579367"><ele>50.0</ele><time>2026-04-04T20:14:38.283Z</time></trkpt><trkpt lat="33.9527867" lon="9.95802"><ele>49.5</ele><time>2026-04-04T20:14:39.283Z</time></trkpt><trkpt lat="33.952485" lon="9.9581033"><ele>49.0</ele><time>2026-04-04T20:14:40.282Z</time></trkpt><trkpt lat="33.95218" lon="9.958185"><ele>49.0</ele><time>2026-04-04T20:14:41.282Z</time></trkpt><trkpt lat="33.9518733" lon="9.958265"><ele>49.0</ele><time>2026-04-04T20:14:42.282Z</time></trkpt><trkpt lat="33.9515667" lon="9.958345"><ele>49.0</ele><time>2026-04-04T20:14:43.283Z</time></trkpt><trkpt lat="33.95126" lon="9.958425"><ele>49.0</ele><time>2026-04-04T20:14:44.282Z</time></trkpt><trkpt lat="33.9509533" lon="9.9585017"><ele>49.5</ele><time>2026-04-04T20:14:45.283Z</time></trkpt><trkpt lat="33.95065" lon="9.958575"><ele>50.0</ele><time>2026-04-04T20:14:46.287Z</time></trkpt><trkpt lat="33.9503433" lon="9.95865"><ele>50.0</ele><time>2026-04-04T20:14:47.286Z</time></trkpt><trkpt lat="33.95004" lon="9.9587283"><ele>50.0</ele><time>2026-04-04T20:14:48.285Z</time></trkpt><trkpt lat="33.949735" lon="9.958805"><ele>50.0</ele><time>2026-04-04T20:14:49.283Z</time></trkpt><trkpt lat="33.94943" lon="9.958885"><ele>50.0</ele><time>2026-04-04T20:14:50.282Z</time></trkpt><trkpt lat="33.949125" lon="9.9589633"><ele>50.0</ele><time>2026-04-04T20:14:51.282Z</time></trkpt><trkpt lat="33.9488217" lon="9.95904"><ele>50.0</ele><time>2026-04-04T20:14:52.285Z</time></trkpt><trkpt lat="33.9485217" lon="9.9591167"><ele>50.0</ele><time>2026-04-04T20:14:53.286Z</time></trkpt><trkpt lat="33.9482233" lon="9.9591933"><ele>50.0</ele><time>2026-04-04T20:14:54.286Z</time></trkpt><trkpt lat="33.9479283" lon="9.95927"><ele>50.0</ele><time>2026-04-04T20:14:55.285Z</time></trkpt><trkpt lat="33.9476333" lon="9.9593467"><ele>50.0</ele><time>2026-04-04T20:14:56.283Z</time></trkpt><trkpt lat="33.9473367" lon="9.959425"><ele>50.0</ele><time>2026-04-04T20:14:57.284Z</time></trkpt><trkpt lat="33.94704" lon="9.9595033"><ele>50.0</ele><time>2026-04-04T20:14:58.283Z</time></trkpt><trkpt lat="33.9467417" lon="9.9595833"><ele>50.0</ele><time>2026-04-04T20:14:59.286Z</time></trkpt><trkpt lat="33.9464417" lon="9.9596633"><ele>50.0</ele><time>2026-04-04T20:15:00.283Z</time></trkpt><trkpt lat="33.94614" lon="9.9597417"><ele>50.5</ele><time>2026-04-04T20:15:01.283Z</time></trkpt><trkpt lat="33.9458383" lon="9.95982"><ele>51.0</ele><time>2026-04-04T20:15:02.283Z</time></trkpt><trkpt lat="33.945535" lon="9.9598967"><ele>51.0</ele><time>2026-04-04T20:15:03.283Z</time></trkpt><trkpt lat="33.9452317" lon="9.959975"><ele>51.0</ele><time>2026-04-04T20:15:04.283Z</time></trkpt><trkpt lat="33.9449317" lon="9.9600517"><ele>51.5</ele><time>2026-04-04T20:15:05.283Z</time></trkpt><trkpt lat="33.9446317" lon="9.96013"><ele>52.0</ele><time>2026-04-04T20:15:06.283Z</time></trkpt><trkpt lat="33.9443317" lon="9.960205"><ele>51.0</ele><time>2026-04-04T20:15:07.283Z</time></trkpt><trkpt lat="33.9440333" lon="9.9602817"><ele>50.0</ele><time>2026-04-04T20:15:08.282Z</time></trkpt><trkpt lat="33.9437317" lon="9.9603567"><ele>50.0</ele><time>2026-04-04T20:15:09.284Z</time></trkpt><trkpt lat="33.9434317" lon="9.9604333"><ele>50.0</ele><time>2026-04-04T20:15:10.282Z</time></trkpt><trkpt lat="33.9431317" lon="9.9605117"><ele>50.0</ele><time>2026-04-04T20:15:11.283Z</time></trkpt><trkpt lat="33.94283" lon="9.9605883"><ele>50.0</ele><time>2026-04-04T20:15:12.282Z</time></trkpt><trkpt lat="33.9425267" lon="9.960665"><ele>50.0</ele><time>2026-04-04T20:15:13.283Z</time></trkpt><trkpt lat="33.9422233" lon="9.960745"><ele>50.0</ele><time>2026-04-04T20:15:14.284Z</time></trkpt><trkpt lat="33.94192" lon="9.960825"><ele>50.5</ele><time>2026-04-04T20:15:15.283Z</time></trkpt><trkpt lat="33.941615" lon="9.960905"><ele>51.0</ele><time>2026-04-04T20:15:16.282Z</time></trkpt><trkpt lat="33.9413083" lon="9.9609833"><ele>51.0</ele><time>2026-04-04T20:15:17.286Z</time></trkpt><trkpt lat="33.9410017" lon="9.961065"><ele>51.0</ele><time>2026-04-04T20:15:18.285Z</time></trkpt><trkpt lat="33.9406967" lon="9.9611467"><ele>50.5</ele><time>2026-04-04T20:15:19.283Z</time></trkpt><trkpt lat="33.940395" lon="9.9612317"><ele>50.0</ele><time>2026-04-04T20:15:20.282Z</time></trkpt><trkpt lat="33.9400967" lon="9.9613133"><ele>51.0</ele><time>2026-04-04T20:15:21.282Z</time></trkpt><trkpt lat="33.9398017" lon="9.961395"><ele>52.0</ele><time>2026-04-04T20:15:22.283Z</time></trkpt><trkpt lat="33.9395083" lon="9.9614733"><ele>51.0</ele><time>2026-04-04T20:15:23.285Z</time></trkpt><trkpt lat="33.9392167" lon="9.96155"><ele>50.0</ele><time>2026-04-04T20:15:24.285Z</time></trkpt><trkpt lat="33.938925" lon="9.961625"><ele>49.5</ele><time>2026-04-04T20:15:25.284Z</time></trkpt><trkpt lat="33.93863" lon="9.9617017"><ele>49.0</ele><time>2026-04-04T20:15:26.281Z</time></trkpt><trkpt lat="33.9383317" lon="9.9617783"><ele>49.0</ele><time>2026-04-04T20:15:27.282Z</time></trkpt><trkpt lat="33.9380283" lon="9.961855"><ele>49.0</ele><time>2026-04-04T20:15:28.282Z</time></trkpt><trkpt lat="33.93772" lon="9.9619333"><ele>49.5</ele><time>2026-04-04T20:15:29.284Z</time></trkpt><trkpt lat="33.9374117" lon="9.962015"><ele>50.0</ele><time>2026-04-04T20:15:30.284Z</time></trkpt><trkpt lat="33.9371017" lon="9.9620967"><ele>50.0</ele><time>2026-04-04T20:15:31.284Z</time></trkpt><trkpt lat="33.9367917" lon="9.9621767"><ele>50.0</ele><time>2026-04-04T20:15:32.284Z</time></trkpt><trkpt lat="33.9364833" lon="9.9622517"><ele>49.5</ele><time>2026-04-04T20:15:33.281Z</time></trkpt><trkpt lat="33.93618" lon="9.96233"><ele>49.0</ele><time>2026-04-04T20:15:34.282Z</time></trkpt><trkpt lat="33.93588" lon="9.962405"><ele>49.0</ele><time>2026-04-04T20:15:35.282Z</time></trkpt><trkpt lat="33.935585" lon="9.9624817"><ele>49.0</ele><time>2026-04-04T20:15:36.283Z</time></trkpt><trkpt lat="33.935295" lon="9.9625567"><ele>50.0</ele><time>2026-04-04T20:15:37.283Z</time></trkpt><trkpt lat="33.9350083" lon="9.96263"><ele>51.0</ele><time>2026-04-04T20:15:38.281Z</time></trkpt><trkpt lat="33.934725" lon="9.9627033"><ele>51.0</ele><time>2026-04-04T20:15:39.282Z</time></trkpt><trkpt lat="33.934445" lon="9.9627767"><ele>51.0</ele><time>2026-04-04T20:15:40.282Z</time></trkpt><trkpt lat="33.9341667" lon="9.9628483"><ele>50.5</ele><time>2026-04-04T20:15:41.282Z</time></trkpt><trkpt lat="33.93389" lon="9.9629217"><ele>50.0</ele><time>2026-04-04T20:15:42.282Z</time></trkpt><trkpt lat="33.93361" lon="9.9629933"><ele>51.0</ele><time>2026-04-04T20:15:43.282Z</time></trkpt><trkpt lat="33.9333267" lon="9.963065"><ele>52.0</ele><time>2026-04-04T20:15:44.281Z</time></trkpt><trkpt lat="33.9330383" lon="9.9631333"><ele>52.0</ele><time>2026-04-04T20:15:45.282Z</time></trkpt><trkpt lat="33.9327467" lon="9.9632033"><ele>52.0</ele><time>2026-04-04T20:15:46.284Z</time></trkpt><trkpt lat="33.9324517" lon="9.963275"><ele>51.5</ele><time>2026-04-04T20:15:47.284Z</time></trkpt><trkpt lat="33.9321533" lon="9.9633517"><ele>51.0</ele><time>2026-04-04T20:15:48.284Z</time></trkpt><trkpt lat="33.9318533" lon="9.9634283"><ele>51.0</ele><time>2026-04-04T20:15:49.284Z</time></trkpt><trkpt lat="33.931555" lon="9.9635033"><ele>51.0</ele><time>2026-04-04T20:15:50.284Z</time></trkpt><trkpt lat="33.9312583" lon="9.963575"><ele>51.0</ele><time>2026-04-04T20:15:51.284Z</time></trkpt><trkpt lat="33.930965" lon="9.9636483"><ele>51.0</ele><time>2026-04-04T20:15:52.284Z</time></trkpt><trkpt lat="33.9306717" lon="9.9637233"><ele>51.5</ele><time>2026-04-04T20:15:53.284Z</time></trkpt><trkpt lat="33.9303867" lon="9.9637983"><ele>52.0</ele><time>2026-04-04T20:15:54.285Z</time></trkpt><trkpt lat="33.9301033" lon="9.963875"><ele>52.5</ele><time>2026-04-04T20:15:55.284Z</time></trkpt><trkpt lat="33.9298233" lon="9.9639467"><ele>53.0</ele><time>2026-04-04T20:15:56.285Z</time></trkpt><trkpt lat="33.9295467" lon="9.96402"><ele>53.0</ele><time>2026-04-04T20:15:57.284Z</time></trkpt><trkpt lat="33.92927" lon="9.9640917"><ele>53.0</ele><time>2026-04-04T20:15:58.284Z</time></trkpt><trkpt lat="33.9289967" lon="9.9641617"><ele>52.5</ele><time>2026-04-04T20:15:59.281Z</time></trkpt><trkpt lat="33.9287233" lon="9.9642333"><ele>52.0</ele><time>2026-04-04T20:16:00.283Z</time></trkpt><trkpt lat="33.9284483" lon="9.9643033"><ele>52.5</ele><time>2026-04-04T20:16:01.283Z</time></trkpt><trkpt lat="33.92817" lon="9.9643767"><ele>53.0</ele><time>2026-04-04T20:16:02.284Z</time></trkpt><trkpt lat="33.9278933" lon="9.96445"><ele>53.0</ele><time>2026-04-04T20:16:03.281Z</time></trkpt><trkpt lat="33.92762" lon="9.9645217"><ele>53.0</ele><time>2026-04-04T20:16:04.282Z</time></trkpt><trkpt lat="33.9273467" lon="9.9645933"><ele>51.5</ele><time>2026-04-04T20:16:05.283Z</time></trkpt><trkpt lat="33.927075" lon="9.9646683"><ele>50.0</ele><time>2026-04-04T20:16:06.282Z</time></trkpt><trkpt lat="33.9268017" lon="9.9647417"><ele>50.5</ele><time>2026-04-04T20:16:07.282Z</time></trkpt><trkpt lat="33.9265233" lon="9.9648133"><ele>51.0</ele><time>2026-04-04T20:16:08.281Z</time></trkpt><trkpt lat="33.92624" lon="9.9648833"><ele>51.0</ele><time>2026-04-04T20:16:09.282Z</time></trkpt><trkpt lat="33.9259567" lon="9.964955"><ele>51.0</ele><time>2026-04-04T20:16:10.282Z</time></trkpt><trkpt lat="33.92567" lon="9.965025"><ele>52.0</ele><time>2026-04-04T20:16:11.282Z</time></trkpt><trkpt lat="33.9253833" lon="9.9650967"><ele>53.0</ele><time>2026-04-04T20:16:12.287Z</time></trkpt><trkpt lat="33.9250983" lon="9.965165"><ele>53.0</ele><time>2026-04-04T20:16:13.281Z</time></trkpt><trkpt lat="33.9248133" lon="9.9652333"><ele>53.0</ele><time>2026-04-04T20:16:14.284Z</time></trkpt><trkpt lat="33.92453" lon="9.965305"><ele>53.0</ele><time>2026-04-04T20:16:15.282Z</time></trkpt><trkpt lat="33.9242517" lon="9.9653783"><ele>53.0</ele><time>2026-04-04T20:16:16.282Z</time></trkpt><trkpt lat="33.9239733" lon="9.9654533"><ele>53.5</ele><time>2026-04-04T20:16:17.284Z</time></trkpt><trkpt lat="33.9237" lon="9.9655283"><ele>54.0</ele><time>2026-04-04T20:16:18.282Z</time></trkpt><trkpt lat="33.923425" lon="9.9656033"><ele>53.5</ele><time>2026-04-04T20:16:19.285Z</time></trkpt><trkpt lat="33.92315" lon="9.9656767"><ele>53.0</ele><time>2026-04-04T20:16:20.284Z</time></trkpt><trkpt lat="33.922875" lon="9.9657533"><ele>53.0</ele><time>2026-04-04T20:16:21.285Z</time></trkpt><trkpt lat="33.9225967" lon="9.9658233"><ele>53.0</ele><time>2026-04-04T20:16:22.284Z</time></trkpt><trkpt lat="33.92232" lon="9.96589"><ele>53.5</ele><time>2026-04-04T20:16:23.284Z</time></trkpt><trkpt lat="33.9220383" lon="9.9659583"><ele>54.0</ele><time>2026-04-04T20:16:24.285Z</time></trkpt><trkpt lat="33.9217567" lon="9.9660283"><ele>54.0</ele><time>2026-04-04T20:16:25.285Z</time></trkpt><trkpt lat="33.9214733" lon="9.966105"><ele>54.0</ele><time>2026-04-04T20:16:26.284Z</time></trkpt><trkpt lat="33.92119" lon="9.9661833"><ele>54.0</ele><time>2026-04-04T20:16:27.285Z</time></trkpt><trkpt lat="33.9209067" lon="9.96627"><ele>54.0</ele><time>2026-04-04T20:16:28.285Z</time></trkpt><trkpt lat="33.9206217" lon="9.96636"><ele>54.0</ele><time>2026-04-04T20:16:29.283Z</time></trkpt><trkpt lat="33.920335" lon="9.96645"><ele>54.0</ele><time>2026-04-04T20:16:30.282Z</time></trkpt><trkpt lat="33.920045" lon="9.966545"><ele>53.5</ele><time>2026-04-04T20:16:31.283Z</time></trkpt><trkpt lat="33.919755" lon="9.9666467"><ele>53.0</ele><time>2026-04-04T20:16:32.282Z</time></trkpt><trkpt lat="33.9194617" lon="9.96675"><ele>53.5</ele><time>2026-04-04T20:16:33.284Z</time></trkpt><trkpt lat="33.9191633" lon="9.96686"><ele>54.0</ele><time>2026-04-04T20:16:34.283Z</time></trkpt><trkpt lat="33.9188633" lon="9.9669733"><ele>54.0</ele><time>2026-04-04T20:16:35.284Z</time></trkpt><trkpt lat="33.9185633" lon="9.9670933"><ele>54.0</ele><time>2026-04-04T20:16:36.282Z</time></trkpt><trkpt lat="33.9182617" lon="9.9672183"><ele>53.5</ele><time>2026-04-04T20:16:37.283Z</time></trkpt><trkpt lat="33.9179583" lon="9.9673417"><ele>53.0</ele><time>2026-04-04T20:16:38.281Z</time></trkpt><trkpt lat="33.917655" lon="9.9674667"><ele>54.0</ele><time>2026-04-04T20:16:39.283Z</time></trkpt><trkpt lat="33.9173533" lon="9.967595"><ele>55.0</ele><time>2026-04-04T20:16:40.282Z</time></trkpt><trkpt lat="33.9170533" lon="9.9677317"><ele>55.0</ele><time>2026-04-04T20:16:41.282Z</time></trkpt><trkpt lat="33.916755" lon="9.9678717"><ele>55.0</ele><time>2026-04-04T20:16:42.282Z</time></trkpt><trkpt lat="33.9164583" lon="9.9680117"><ele>55.5</ele><time>2026-04-04T20:16:43.285Z</time></trkpt><trkpt lat="33.9161667" lon="9.968155"><ele>56.0</ele><time>2026-04-04T20:16:44.283Z</time></trkpt><trkpt lat="33.9158783" lon="9.9683033"><ele>55.5</ele><time>2026-04-04T20:16:45.284Z</time></trkpt><trkpt lat="33.915595" lon="9.9684583"><ele>55.0</ele><time>2026-04-04T20:16:46.283Z</time></trkpt><trkpt lat="33.915315" lon="9.9686167"><ele>54.5</ele><time>2026-04-04T20:16:47.285Z</time></trkpt><trkpt lat="33.9150383" lon="9.9687767"><ele>54.0</ele><time>2026-04-04T20:16:48.285Z</time></trkpt><trkpt lat="33.9147633" lon="9.9689367"><ele>54.0</ele><time>2026-04-04T20:16:49.285Z</time></trkpt><trkpt lat="33.9144917" lon="9.9690983"><ele>54.0</ele><time>2026-04-04T20:16:50.284Z</time></trkpt><trkpt lat="33.9142233" lon="9.9692617"><ele>54.5</ele><time>2026-04-04T20:16:51.285Z</time></trkpt><trkpt lat="33.9139583" lon="9.969425"><ele>55.0</ele><time>2026-04-04T20:16:52.285Z</time></trkpt><trkpt lat="33.9136933" lon="9.9695933"><ele>55.0</ele><time>2026-04-04T20:16:53.285Z</time></trkpt><trkpt lat="33.9134267" lon="9.9697633"><ele>55.0</ele><time>2026-04-04T20:16:54.285Z</time></trkpt><trkpt lat="33.9131617" lon="9.9699367"><ele>55.5</ele><time>2026-04-04T20:16:55.284Z</time></trkpt><trkpt lat="33.9128983" lon="9.9701133"><ele>56.0</ele><time>2026-04-04T20:16:56.284Z</time></trkpt><trkpt lat="33.9126367" lon="9.970295"><ele>55.0</ele><time>2026-04-04T20:16:57.285Z</time></trkpt><trkpt lat="33.9123767" lon="9.9704783"><ele>54.0</ele><time>2026-04-04T20:16:58.284Z</time></trkpt><trkpt lat="33.912125" lon="9.970665"><ele>54.0</ele><time>2026-04-04T20:16:59.284Z</time></trkpt><trkpt lat="33.9118717" lon="9.9708533"><ele>54.0</ele><time>2026-04-04T20:17:00.285Z</time></trkpt><trkpt lat="33.91162" lon="9.9710417"><ele>54.5</ele><time>2026-04-04T20:17:01.284Z</time></trkpt><trkpt lat="33.91137" lon="9.971235"><ele>55.0</ele><time>2026-04-04T20:17:02.284Z</time></trkpt><trkpt lat="33.9111217" lon="9.97143"><ele>54.5</ele><time>2026-04-04T20:17:03.284Z</time></trkpt><trkpt lat="33.9108717" lon="9.9716283"><ele>54.0</ele><time>2026-04-04T20:17:04.284Z</time></trkpt><trkpt lat="33.91062" lon="9.97183"><ele>54.0</ele><time>2026-04-04T20:17:05.284Z</time></trkpt><trkpt lat="33.9103683" lon="9.972035"><ele>54.0</ele><time>2026-04-04T20:17:06.285Z</time></trkpt><trkpt lat="33.9101133" lon="9.97224"><ele>55.0</ele><time>2026-04-04T20:17:07.284Z</time></trkpt><trkpt lat="33.9098583" lon="9.9724433"><ele>56.0</ele><time>2026-04-04T20:17:08.284Z</time></trkpt><trkpt lat="33.9096017" lon="9.9726417"><ele>56.0</ele><time>2026-04-04T20:17:09.284Z</time></trkpt><trkpt lat="33.9093483" lon="9.97284"><ele>56.0</ele><time>2026-04-04T20:17:10.284Z</time></trkpt><trkpt lat="33.909095" lon="9.9730417"><ele>55.5</ele><time>2026-04-04T20:17:11.284Z</time></trkpt><trkpt lat="33.9088433" lon="9.9732433"><ele>55.0</ele><time>2026-04-04T20:17:12.285Z</time></trkpt><trkpt lat="33.9085917" lon="9.9734417"><ele>55.5</ele><time>2026-04-04T20:17:13.286Z</time></trkpt><trkpt lat="33.90834" lon="9.9736417"><ele>56.0</ele><time>2026-04-04T20:17:14.284Z</time></trkpt><trkpt lat="33.90809" lon="9.9738383"><ele>56.0</ele><time>2026-04-04T20:17:15.284Z</time></trkpt><trkpt lat="33.90784" lon="9.9740367"><ele>56.0</ele><time>2026-04-04T20:17:16.285Z</time></trkpt><trkpt lat="33.90759" lon="9.9742333"><ele>57.0</ele><time>2026-04-04T20:17:17.284Z</time></trkpt><trkpt lat="33.9073417" lon="9.9744333"><ele>58.0</ele><time>2026-04-04T20:17:18.286Z</time></trkpt><trkpt lat="33.90709" lon="9.9746333"><ele>58.0</ele><time>2026-04-04T20:17:19.285Z</time></trkpt><trkpt lat="33.90684" lon="9.9748317"><ele>58.0</ele><time>2026-04-04T20:17:20.285Z</time></trkpt><trkpt lat="33.90659" lon="9.9750283"><ele>57.5</ele><time>2026-04-04T20:17:21.286Z</time></trkpt><trkpt lat="33.90634" lon="9.9752267"><ele>57.0</ele><time>2026-04-04T20:17:22.285Z</time></trkpt><trkpt lat="33.9060883" lon="9.975425"><ele>57.5</ele><time>2026-04-04T20:17:23.285Z</time></trkpt><trkpt lat="33.9058383" lon="9.9756217"><ele>58.0</ele><time>2026-04-04T20:17:24.285Z</time></trkpt><trkpt lat="33.90559" lon="9.9758217"><ele>59.5</ele><time>2026-04-04T20:17:25.286Z</time></trkpt><trkpt lat="33.9053417" lon="9.9760217"><ele>61.0</ele><time>2026-04-04T20:17:26.286Z</time></trkpt><trkpt lat="33.9050933" lon="9.97622"><ele>60.0</ele><time>2026-04-04T20:17:27.286Z</time></trkpt><trkpt lat="33.9048467" lon="9.9764133"><ele>59.0</ele><time>2026-04-04T20:17:28.286Z</time></trkpt><trkpt lat="33.9046017" lon="9.976605"><ele>59.0</ele><time>2026-04-04T20:17:29.285Z</time></trkpt><trkpt lat="33.9043567" lon="9.9768"><ele>59.0</ele><time>2026-04-04T20:17:30.286Z</time></trkpt><trkpt lat="33.9041117" lon="9.9769933"><ele>59.0</ele><time>2026-04-04T20:17:31.285Z</time></trkpt><trkpt lat="33.9038667" lon="9.977185"><ele>59.0</ele><time>2026-04-04T20:17:32.285Z</time></trkpt><trkpt lat="33.9036183" lon="9.9773783"><ele>61.0</ele><time>2026-04-04T20:17:33.286Z</time></trkpt><trkpt lat="33.90337" lon="9.9775767"><ele>63.0</ele><time>2026-04-04T20:17:34.286Z</time></trkpt><trkpt lat="33.9031217" lon="9.9777767"><ele>63.0</ele><time>2026-04-04T20:17:35.285Z</time></trkpt><trkpt lat="33.90287" lon="9.97798"><ele>63.0</ele><time>2026-04-04T20:17:36.285Z</time></trkpt><trkpt lat="33.9026167" lon="9.9781817"><ele>64.0</ele><time>2026-04-04T20:17:37.287Z</time></trkpt><trkpt lat="33.90236" lon="9.9783833"><ele>65.0</ele><time>2026-04-04T20:17:38.285Z</time></trkpt><trkpt lat="33.9021017" lon="9.9785867"><ele>65.0</ele><time>2026-04-04T20:17:39.285Z</time></trkpt><trkpt lat="33.9018417" lon="9.9787933"><ele>65.0</ele><time>2026-04-04T20:17:40.285Z</time></trkpt><trkpt lat="33.9015783" lon="9.9789983"><ele>65.0</ele><time>2026-04-04T20:17:41.285Z</time></trkpt><trkpt lat="33.901315" lon="9.9792067"><ele>65.0</ele><time>2026-04-04T20:17:42.286Z</time></trkpt><trkpt lat="33.9010483" lon="9.9794167"><ele>66.0</ele><time>2026-04-04T20:17:43.285Z</time></trkpt><trkpt lat="33.9007817" lon="9.9796283"><ele>67.0</ele><time>2026-04-04T20:17:44.284Z</time></trkpt><trkpt lat="33.9005133" lon="9.97984"><ele>67.0</ele><time>2026-04-04T20:17:45.286Z</time></trkpt><trkpt lat="33.9002433" lon="9.9800533"><ele>67.0</ele><time>2026-04-04T20:17:46.285Z</time></trkpt><trkpt lat="33.8999733" lon="9.9802667"><ele>67.0</ele><time>2026-04-04T20:17:47.285Z</time></trkpt><trkpt lat="33.8997017" lon="9.98048"><ele>67.0</ele><time>2026-04-04T20:17:48.285Z</time></trkpt><trkpt lat="33.8994317" lon="9.980695"><ele>68.5</ele><time>2026-04-04T20:17:49.286Z</time></trkpt><trkpt lat="33.899165" lon="9.9809067"><ele>70.0</ele><time>2026-04-04T20:17:50.286Z</time></trkpt><trkpt lat="33.8989" lon="9.9811167"><ele>70.0</ele><time>2026-04-04T20:17:51.285Z</time></trkpt><trkpt lat="33.8986383" lon="9.981325"><ele>70.0</ele><time>2026-04-04T20:17:52.285Z</time></trkpt><trkpt lat="33.8983767" lon="9.981535"><ele>70.0</ele><time>2026-04-04T20:17:53.286Z</time></trkpt><trkpt lat="33.8981183" lon="9.9817417"><ele>70.0</ele><time>2026-04-04T20:17:54.285Z</time></trkpt><trkpt lat="33.8978617" lon="9.981945"><ele>70.0</ele><time>2026-04-04T20:17:55.285Z</time></trkpt><trkpt lat="33.8976083" lon="9.9821467"><ele>70.0</ele><time>2026-04-04T20:17:56.285Z</time></trkpt><trkpt lat="33.897355" lon="9.9823483"><ele>72.5</ele><time>2026-04-04T20:17:57.285Z</time></trkpt><trkpt lat="33.897105" lon="9.9825483"><ele>75.0</ele><time>2026-04-04T20:17:58.285Z</time></trkpt><trkpt lat="33.89686" lon="9.9827433"><ele>73.5</ele><time>2026-04-04T20:17:59.286Z</time></trkpt><trkpt lat="33.89662" lon="9.982935"><ele>72.0</ele><time>2026-04-04T20:18:00.285Z</time></trkpt><trkpt lat="33.8963817" lon="9.9831233"><ele>72.0</ele><time>2026-04-04T20:18:01.285Z</time></trkpt><trkpt lat="33.8961433" lon="9.983315"><ele>72.0</ele><time>2026-04-04T20:18:02.285Z</time></trkpt><trkpt lat="33.8959" lon="9.9835067"><ele>72.5</ele><time>2026-04-04T20:18:03.285Z</time></trkpt><trkpt lat="33.8956533" lon="9.9837017"><ele>73.0</ele><time>2026-04-04T20:18:04.285Z</time></trkpt><trkpt lat="33.895405" lon="9.9838983"><ele>73.0</ele><time>2026-04-04T20:18:05.287Z</time></trkpt><trkpt lat="33.8951583" lon="9.9841"><ele>73.0</ele><time>2026-04-04T20:18:06.287Z</time></trkpt><trkpt lat="33.8949083" lon="9.9843067"><ele>72.0</ele><time>2026-04-04T20:18:07.285Z</time></trkpt><trkpt lat="33.8946583" lon="9.98451"><ele>71.0</ele><time>2026-04-04T20:18:08.285Z</time></trkpt><trkpt lat="33.8944083" lon="9.984715"><ele>71.0</ele><time>2026-04-04T20:18:09.285Z</time></trkpt><trkpt lat="33.8941583" lon="9.9849217"><ele>71.0</ele><time>2026-04-04T20:18:10.285Z</time></trkpt><trkpt lat="33.89391" lon="9.98513"><ele>71.5</ele><time>2026-04-04T20:18:11.285Z</time></trkpt><trkpt lat="33.8936617" lon="9.9853433"><ele>72.0</ele><time>2026-04-04T20:18:12.285Z</time></trkpt><trkpt lat="33.8934133" lon="9.985555"><ele>72.0</ele><time>2026-04-04T20:18:13.285Z</time></trkpt><trkpt lat="33.8931667" lon="9.98577"><ele>72.0</ele><time>2026-04-04T20:18:14.285Z</time></trkpt><trkpt lat="33.8929183" lon="9.9859817"><ele>72.5</ele><time>2026-04-04T20:18:15.285Z</time></trkpt><trkpt lat="33.89267" lon="9.9861917"><ele>73.0</ele><time>2026-04-04T20:18:16.285Z</time></trkpt><trkpt lat="33.892425" lon="9.9864017"><ele>73.0</ele><time>2026-04-04T20:18:17.285Z</time></trkpt><trkpt lat="33.89218" lon="9.9866167"><ele>73.0</ele><time>2026-04-04T20:18:18.283Z</time></trkpt><trkpt lat="33.891935" lon="9.9868333"><ele>72.5</ele><time>2026-04-04T20:18:19.282Z</time></trkpt><trkpt lat="33.8916917" lon="9.9870467"><ele>72.0</ele><time>2026-04-04T20:18:20.282Z</time></trkpt><trkpt lat="33.891445" lon="9.98726"><ele>72.0</ele><time>2026-04-04T20:18:21.282Z</time></trkpt><trkpt lat="33.8911983" lon="9.9874767"><ele>72.0</ele><time>2026-04-04T20:18:22.283Z</time></trkpt><trkpt lat="33.89095" lon="9.9876967"><ele>70.5</ele><time>2026-04-04T20:18:23.282Z</time></trkpt><trkpt lat="33.8907" lon="9.9879183"><ele>69.0</ele><time>2026-04-04T20:18:24.282Z</time></trkpt><trkpt lat="33.8904483" lon="9.98814"><ele>68.5</ele><time>2026-04-04T20:18:25.282Z</time></trkpt><trkpt lat="33.890195" lon="9.98837"><ele>68.0</ele><time>2026-04-04T20:18:26.282Z</time></trkpt><trkpt lat="33.8899383" lon="9.9886017"><ele>68.0</ele><time>2026-04-04T20:18:27.281Z</time></trkpt><trkpt lat="33.889675" lon="9.98884"><ele>68.0</ele><time>2026-04-04T20:18:28.282Z</time></trkpt><trkpt lat="33.8894067" lon="9.989085"><ele>67.5</ele><time>2026-04-04T20:18:29.281Z</time></trkpt><trkpt lat="33.8891333" lon="9.98933"><ele>67.0</ele><time>2026-04-04T20:18:30.281Z</time></trkpt><trkpt lat="33.88886" lon="9.989575"><ele>67.0</ele><time>2026-04-04T20:18:31.284Z</time></trkpt><trkpt lat="33.888585" lon="9.9898217"><ele>67.0</ele><time>2026-04-04T20:18:32.284Z</time></trkpt><trkpt lat="33.88831" lon="9.990065"><ele>66.0</ele><time>2026-04-04T20:18:33.284Z</time></trkpt><trkpt lat="33.8880383" lon="9.990305"><ele>65.0</ele><time>2026-04-04T20:18:34.285Z</time></trkpt><trkpt lat="33.8877733" lon="9.990535"><ele>63.5</ele><time>2026-04-04T20:18:35.284Z</time></trkpt><trkpt lat="33.8875183" lon="9.990745"><ele>62.0</ele><time>2026-04-04T20:18:36.287Z</time></trkpt><trkpt lat="33.8872717" lon="9.9909483"><ele>62.0</ele><time>2026-04-04T20:18:37.284Z</time></trkpt><trkpt lat="33.88703" lon="9.9911517"><ele>62.0</ele><time>2026-04-04T20:18:38.284Z</time></trkpt><trkpt lat="33.8867867" lon="9.9913583"><ele>61.5</ele><time>2026-04-04T20:18:39.284Z</time></trkpt><trkpt lat="33.8865467" lon="9.9915667"><ele>61.0</ele><time>2026-04-04T20:18:40.281Z</time></trkpt><trkpt lat="33.8863117" lon="9.9917733"><ele>60.5</ele><time>2026-04-04T20:18:41.282Z</time></trkpt><trkpt lat="33.88608" lon="9.991975"><ele>60.0</ele><time>2026-04-04T20:18:42.282Z</time></trkpt><trkpt lat="33.88585" lon="9.9921767"><ele>60.0</ele><time>2026-04-04T20:18:43.282Z</time></trkpt><trkpt lat="33.8856217" lon="9.9923767"><ele>60.0</ele><time>2026-04-04T20:18:44.281Z</time></trkpt><trkpt lat="33.8853933" lon="9.9925783"><ele>60.0</ele><time>2026-04-04T20:18:45.282Z</time></trkpt><trkpt lat="33.8851633" lon="9.9927817"><ele>60.0</ele><time>2026-04-04T20:18:46.281Z</time></trkpt><trkpt lat="33.8849333" lon="9.9929833"><ele>60.0</ele><time>2026-04-04T20:18:47.281Z</time></trkpt><trkpt lat="33.8847083" lon="9.9931833"><ele>60.0</ele><time>2026-04-04T20:18:48.282Z</time></trkpt><trkpt lat="33.88449" lon="9.9933767"><ele>59.0</ele><time>2026-04-04T20:18:49.283Z</time></trkpt><trkpt lat="33.8842783" lon="9.9935667"><ele>58.0</ele><time>2026-04-04T20:18:50.282Z</time></trkpt><trkpt lat="33.8840683" lon="9.993755"><ele>58.0</ele><time>2026-04-04T20:18:51.282Z</time></trkpt><trkpt lat="33.8838583" lon="9.9939383"><ele>58.0</ele><time>2026-04-04T20:18:52.282Z</time></trkpt><trkpt lat="33.8836517" lon="9.9941167"><ele>58.0</ele><time>2026-04-04T20:18:53.282Z</time></trkpt><trkpt lat="33.883445" lon="9.9942933"><ele>58.0</ele><time>2026-04-04T20:18:54.283Z</time></trkpt><trkpt lat="33.883245" lon="9.9944633"><ele>57.666666666666664</ele><time>2026-04-04T20:18:55.282Z</time></trkpt><trkpt lat="33.88306" lon="9.99462"><ele>57.33333333333333</ele><time>2026-04-04T20:18:56.281Z</time></trkpt><trkpt lat="33.88289" lon="9.9947683"><ele>57.0</ele><time>2026-04-04T20:18:57.286Z</time></trkpt><trkpt lat="33.8827333" lon="9.9949083"><ele>57.0</ele><time>2026-04-04T20:18:58.282Z</time></trkpt><trkpt lat="33.8825867" lon="9.9950367"><ele>57.0</ele><time>2026-04-04T20:18:59.282Z</time></trkpt><trkpt lat="33.8824467" lon="9.99516"><ele>57.0</ele><time>2026-04-04T20:19:00.282Z</time></trkpt><trkpt lat="33.8823067" lon="9.9952867"><ele>57.0</ele><time>2026-04-04T20:19:01.284Z</time></trkpt><trkpt lat="33.8821633" lon="9.9954133"><ele>57.0</ele><time>2026-04-04T20:19:02.284Z</time></trkpt><trkpt lat="33.8820183" lon="9.99554"><ele>57.0</ele><time>2026-04-04T20:19:03.284Z</time></trkpt><trkpt lat="33.8818717" lon="9.995665"><ele>57.33333333333333</ele><time>2026-04-04T20:19:04.284Z</time></trkpt><trkpt lat="33.8817267" lon="9.9957917"><ele>57.666666666666664</ele><time>2026-04-04T20:19:05.284Z</time></trkpt><trkpt lat="33.881585" lon="9.995915"><ele>58.0</ele><time>2026-04-04T20:19:06.286Z</time></trkpt><trkpt lat="33.8814467" lon="9.9960317"><ele>58.33333333333333</ele><time>2026-04-04T20:19:07.284Z</time></trkpt><trkpt lat="33.8813183" lon="9.9961417"><ele>58.66666666666667</ele><time>2026-04-04T20:19:08.289Z</time></trkpt><trkpt lat="33.881195" lon="9.9962467"><ele>59.0</ele><time>2026-04-04T20:19:09.285Z</time></trkpt><trkpt lat="33.88107" lon="9.99635"><ele>59.0</ele><time>2026-04-04T20:19:10.284Z</time></trkpt><trkpt lat="33.8809467" lon="9.9964567"><ele>59.0</ele><time>2026-04-04T20:19:11.284Z</time></trkpt><trkpt lat="33.8808283" lon="9.9965583"><ele>59.0</ele><time>2026-04-04T20:19:12.285Z</time></trkpt><trkpt lat="33.880715" lon="9.9966533"><ele>59.0</ele><time>2026-04-04T20:19:13.284Z</time></trkpt><trkpt lat="33.8806067" lon="9.9967417"><ele>58.75</ele><time>2026-04-04T20:19:14.284Z</time></trkpt><trkpt lat="33.8805" lon="9.9968083"><ele>58.5</ele><time>2026-04-04T20:19:15.285Z</time></trkpt><trkpt lat="33.8803867" lon="9.9968617"><ele>58.25</ele><time>2026-04-04T20:19:16.284Z</time></trkpt><trkpt lat="33.8802683" lon="9.9968933"><ele>58.0</ele><time>2026-04-04T20:19:17.284Z</time></trkpt><trkpt lat="33.880155" lon="9.9968967"><ele>58.2</ele><time>2026-04-04T20:19:18.284Z</time></trkpt><trkpt lat="33.8800483" lon="9.9968633"><ele>58.4</ele><time>2026-04-04T20:19:19.284Z</time></trkpt><trkpt lat="33.8799517" lon="9.9968067"><ele>58.60000000000001</ele><time>2026-04-04T20:19:20.285Z</time></trkpt><trkpt lat="33.87987" lon="9.9967333"><ele>58.800000000000004</ele><time>2026-04-04T20:19:21.284Z</time></trkpt><trkpt lat="33.8798067" lon="9.99664"><ele>59.0</ele><time>2026-04-04T20:19:22.283Z</time></trkpt><trkpt lat="33.8797667" lon="9.9965283"><ele>58.6</ele><time>2026-04-04T20:19:23.283Z</time></trkpt><trkpt lat="33.879745" lon="9.9964033"><ele>58.2</ele><time>2026-04-04T20:19:24.286Z</time></trkpt><trkpt lat="33.8797467" lon="9.99627"><ele>57.800000000000004</ele><time>2026-04-04T20:19:25.284Z</time></trkpt><trkpt lat="33.87977" lon="9.9961367"><ele>57.400000000000006</ele><time>2026-04-04T20:19:26.284Z</time></trkpt><trkpt lat="33.8798133" lon="9.9960117"><ele>57.0</ele><time>2026-04-04T20:19:27.286Z</time></trkpt><trkpt lat="33.879875" lon="9.9959"><ele>57.0</ele><time>2026-04-04T20:19:28.281Z</time></trkpt><trkpt lat="33.8799483" lon="9.9958017"><ele>57.0</ele><time>2026-04-04T20:19:29.282Z</time></trkpt><trkpt lat="33.880035" lon="9.995725"><ele>57.0</ele><time>2026-04-04T20:19:30.282Z</time></trkpt><trkpt lat="33.8801283" lon="9.9956633"><ele>57.0</ele><time>2026-04-04T20:19:31.282Z</time></trkpt><trkpt lat="33.8802333" lon="9.9956167"><ele>57.0</ele><time>2026-04-04T20:19:32.284Z</time></trkpt><trkpt lat="33.880355" lon="9.99559"><ele>56.75</ele><time>2026-04-04T20:19:33.284Z</time></trkpt><trkpt lat="33.8804833" lon="9.99559"><ele>56.5</ele><time>2026-04-04T20:19:34.284Z</time></trkpt><trkpt lat="33.880615" lon="9.9956217"><ele>56.25</ele><time>2026-04-04T20:19:35.285Z</time></trkpt><trkpt lat="33.8807467" lon="9.9956767"><ele>56.0</ele><time>2026-04-04T20:19:36.284Z</time></trkpt><trkpt lat="33.8808733" lon="9.995755"><ele>57.0</ele><time>2026-04-04T20:19:37.283Z</time></trkpt><trkpt lat="33.8809967" lon="9.9958533"><ele>58.0</ele><time>2026-04-04T20:19:38.282Z</time></trkpt><trkpt lat="33.8811267" lon="9.9959667"><ele>59.0</ele><time>2026-04-04T20:19:39.283Z</time></trkpt><trkpt lat="33.8812633" lon="9.9960833"><ele>59.0</ele><time>2026-04-04T20:19:40.283Z</time></trkpt><trkpt lat="33.8813983" lon="9.9961983"><ele>59.0</ele><time>2026-04-04T20:19:41.281Z</time></trkpt><trkpt lat="33.8815267" lon="9.9963083"><ele>59.0</ele><time>2026-04-04T20:19:42.282Z</time></trkpt><trkpt lat="33.8816483" lon="9.9964167"><ele>58.66666666666667</ele><time>2026-04-04T20:19:43.283Z</time></trkpt><trkpt lat="33.8817717" lon="9.9965267"><ele>58.33333333333333</ele><time>2026-04-04T20:19:44.282Z</time></trkpt><trkpt lat="33.8818983" lon="9.9966383"><ele>58.0</ele><time>2026-04-04T20:19:45.283Z</time></trkpt><trkpt lat="33.8820283" lon="9.996755"><ele>57.33333333333333</ele><time>2026-04-04T20:19:46.282Z</time></trkpt><trkpt lat="33.8821633" lon="9.9968733"><ele>56.66666666666667</ele><time>2026-04-04T20:19:47.285Z</time></trkpt><trkpt lat="33.8823017" lon="9.996995"><ele>56.0</ele><time>2026-04-04T20:19:48.285Z</time></trkpt><trkpt lat="33.88244" lon="9.9971167"><ele>56.0</ele><time>2026-04-04T20:19:49.284Z</time></trkpt><trkpt lat="33.882575" lon="9.99723"><ele>56.0</ele><time>2026-04-04T20:19:50.285Z</time></trkpt><trkpt lat="33.8827117" lon="9.997345"><ele>56.0</ele><time>2026-04-04T20:19:51.284Z</time></trkpt><trkpt lat="33.88285" lon="9.9974617"><ele>56.0</ele><time>2026-04-04T20:19:52.284Z</time></trkpt><trkpt lat="33.8829867" lon="9.9975817"><ele>56.0</ele><time>2026-04-04T20:19:53.285Z</time></trkpt><trkpt lat="33.8831183" lon="9.9977117"><ele>56.0</ele><time>2026-04-04T20:19:54.285Z</time></trkpt><trkpt lat="33.8832417" lon="9.9978483"><ele>56.0</ele><time>2026-04-04T20:19:55.285Z</time></trkpt><trkpt lat="33.8833517" lon="9.9979917"><ele>56.0</ele><time>2026-04-04T20:19:56.281Z</time></trkpt><trkpt lat="33.8834467" lon="9.998135"><ele>56.0</ele><time>2026-04-04T20:19:57.283Z</time></trkpt><trkpt lat="33.8835217" lon="9.9982783"><ele>56.75</ele><time>2026-04-04T20:19:58.285Z</time></trkpt><trkpt lat="33.8835783" lon="9.99842"><ele>57.5</ele><time>2026-04-04T20:19:59.285Z</time></trkpt><trkpt lat="33.8836233" lon="9.99856"><ele>58.25</ele><time>2026-04-04T20:20:00.285Z</time></trkpt><trkpt lat="33.88366" lon="9.9986917"><ele>59.0</ele><time>2026-04-04T20:20:01.285Z</time></trkpt><trkpt lat="33.88369" lon="9.9988167"><ele>59.0</ele><time>2026-04-04T20:20:02.286Z</time></trkpt><trkpt lat="33.8837167" lon="9.9989267"><ele>59.00000000000001</ele><time>2026-04-04T20:20:03.283Z</time></trkpt><trkpt lat="33.88374" lon="9.99903"><ele>59.00000000000001</ele><time>2026-04-04T20:20:04.282Z</time></trkpt><trkpt lat="33.8837583" lon="9.9991267"><ele>59.0</ele><time>2026-04-04T20:20:05.283Z</time></trkpt><trkpt lat="33.8837733" lon="9.9992133"><ele>59.0</ele><time>2026-04-04T20:20:06.284Z</time></trkpt><trkpt lat="33.8837967" lon="9.9993433"><ele>58.66666666666667</ele><time>2026-04-04T20:20:08.282Z</time></trkpt><trkpt lat="33.8838183" lon="9.999435"><ele>58.333333333333336</ele><time>2026-04-04T20:20:10.286Z</time></trkpt><trkpt lat="33.88384" lon="9.9995067"><ele>58.0</ele><time>2026-04-04T20:20:12.285Z</time></trkpt><trkpt lat="33.88387" lon="9.9995917"><ele>57.66666666666667</ele><time>2026-04-04T20:20:15.283Z</time></trkpt><trkpt lat="33.8838917" lon="9.9996767"><ele>57.333333333333336</ele><time>2026-04-04T20:20:19.284Z</time></trkpt><trkpt lat="33.8839233" lon="9.9997467"><ele>57.0</ele><time>2026-04-04T20:20:40.282Z</time></trkpt><trkpt lat="33.8839683" lon="9.9998767"><ele>57.0</ele><time>2026-04-04T20:20:42.282Z</time></trkpt><trkpt lat="33.8839983" lon="9.9999617"><ele>57.0</ele><time>2026-04-04T20:20:44.283Z</time></trkpt><trkpt lat="33.884015" lon="10.0000367"><ele>57.0</ele><time>2026-04-04T20:23:11.284Z</time></trkpt><trkpt lat="33.8840433" lon="10.0001683"><ele>57.0</ele><time>2026-04-04T20:23:18.282Z</time></trkpt><trkpt lat="33.88407" lon="10.00026"><ele>57.0</ele><time>2026-04-04T20:23:19.287Z</time></trkpt><trkpt lat="33.8841033" lon="10.0003617"><ele>57.0</ele><time>2026-04-04T20:23:20.286Z</time></trkpt><trkpt lat="33.8841433" lon="10.0004683"><ele>57.0</ele><time>2026-04-04T20:23:21.285Z</time></trkpt><trkpt lat="33.8841833" lon="10.0005833"><ele>57.0</ele><time>2026-04-04T20:23:22.285Z</time></trkpt><trkpt lat="33.884225" lon="10.0007167"><ele>57.0</ele><time>2026-04-04T20:23:23.285Z</time></trkpt><trkpt lat="33.8842633" lon="10.0008317"><ele>57.0</ele><time>2026-04-04T20:23:24.285Z</time></trkpt><trkpt lat="33.8843" lon="10.0009367"><ele>57.0</ele><time>2026-04-04T20:23:25.286Z</time></trkpt><trkpt lat="33.8843367" lon="10.0010367"><ele>57.333333333333336</ele><time>2026-04-04T20:23:26.285Z</time></trkpt><trkpt lat="33.8843633" lon="10.00112"><ele>57.66666666666667</ele><time>2026-04-04T20:23:27.288Z</time></trkpt><trkpt lat="33.8843883" lon="10.0011983"><ele>58.0</ele><time>2026-04-04T20:23:28.286Z</time></trkpt><trkpt lat="33.8844117" lon="10.0012783"><ele>58.333333333333336</ele><time>2026-04-04T20:23:29.285Z</time></trkpt><trkpt lat="33.8844383" lon="10.0013717"><ele>58.66666666666667</ele><time>2026-04-04T20:23:30.285Z</time></trkpt><trkpt lat="33.8844667" lon="10.0014767"><ele>59.0</ele><time>2026-04-04T20:23:31.286Z</time></trkpt><trkpt lat="33.8844967" lon="10.0015983"><ele>58.5</ele><time>2026-04-04T20:23:32.285Z</time></trkpt><trkpt lat="33.8845283" lon="10.00173"><ele>58.0</ele><time>2026-04-04T20:23:33.282Z</time></trkpt><trkpt lat="33.8845617" lon="10.0018717"><ele>57.5</ele><time>2026-04-04T20:23:34.282Z</time></trkpt><trkpt lat="33.88459" lon="10.0020233"><ele>57.0</ele><time>2026-04-04T20:23:35.285Z</time></trkpt><trkpt lat="33.88461" lon="10.0021867"><ele>57.0</ele><time>2026-04-04T20:23:36.283Z</time></trkpt><trkpt lat="33.8846267" lon="10.0023667"><ele>57.0</ele><time>2026-04-04T20:23:37.282Z</time></trkpt><trkpt lat="33.8846333" lon="10.00256"><ele>57.0</ele><time>2026-04-04T20:23:38.283Z</time></trkpt><trkpt lat="33.88463" lon="10.00276"><ele>57.0</ele><time>2026-04-04T20:23:39.284Z</time></trkpt><trkpt lat="33.8846117" lon="10.002965"><ele>57.0</ele><time>2026-04-04T20:23:40.286Z</time></trkpt><trkpt lat="33.8845817" lon="10.0031767"><ele>57.0</ele><time>2026-04-04T20:23:41.286Z</time></trkpt><trkpt lat="33.88454" lon="10.0033883"><ele>57.0</ele><time>2026-04-04T20:23:42.285Z</time></trkpt><trkpt lat="33.88448" lon="10.0035967"><ele>57.0</ele><time>2026-04-04T20:23:43.285Z</time></trkpt><trkpt lat="33.884405" lon="10.0038033"><ele>57.0</ele><time>2026-04-04T20:23:44.285Z</time></trkpt><trkpt lat="33.8843117" lon="10.0040017"><ele>57.33333333333333</ele><time>2026-04-04T20:23:45.285Z</time></trkpt><trkpt lat="33.8842017" lon="10.0041967"><ele>57.666666666666664</ele><time>2026-04-04T20:23:46.286Z</time></trkpt><trkpt lat="33.8840817" lon="10.00438"><ele>58.0</ele><time>2026-04-04T20:23:47.285Z</time></trkpt><trkpt lat="33.8839583" lon="10.00454"><ele>58.0</ele><time>2026-04-04T20:23:48.286Z</time></trkpt><trkpt lat="33.883835" lon="10.004675"><ele>58.0</ele><time>2026-04-04T20:23:49.285Z</time></trkpt><trkpt lat="33.88372" lon="10.0047833"><ele>58.0</ele><time>2026-04-04T20:23:50.285Z</time></trkpt><trkpt lat="33.8836183" lon="10.0048683"><ele>58.0</ele><time>2026-04-04T20:23:51.285Z</time></trkpt><trkpt lat="33.88353" lon="10.0049317"><ele>57.99999999999999</ele><time>2026-04-04T20:23:52.286Z</time></trkpt><trkpt lat="33.8834467" lon="10.0049883"><ele>58.0</ele><time>2026-04-04T20:23:53.285Z</time></trkpt><trkpt lat="33.8833667" lon="10.0050417"><ele>58.0</ele><time>2026-04-04T20:23:54.285Z</time></trkpt><trkpt lat="33.88329" lon="10.00509"><ele>58.0</ele><time>2026-04-04T20:23:55.287Z</time></trkpt><trkpt lat="33.8832167" lon="10.0051317"><ele>57.99999999999999</ele><time>2026-04-04T20:23:56.283Z</time></trkpt><trkpt lat="33.8831517" lon="10.0051633"><ele>58.0</ele><time>2026-04-04T20:23:57.282Z</time></trkpt><trkpt lat="33.8830867" lon="10.0051917"><ele>57.666666666666664</ele><time>2026-04-04T20:23:58.282Z</time></trkpt><trkpt lat="33.88302" lon="10.0052217"><ele>57.33333333333333</ele><time>2026-04-04T20:23:59.282Z</time></trkpt><trkpt lat="33.882945" lon="10.00526"><ele>57.0</ele><time>2026-04-04T20:24:00.282Z</time></trkpt><trkpt lat="33.8828667" lon="10.0053033"><ele>56.66666666666667</ele><time>2026-04-04T20:24:01.283Z</time></trkpt><trkpt lat="33.8827833" lon="10.00535"><ele>56.333333333333336</ele><time>2026-04-04T20:24:02.282Z</time></trkpt><trkpt lat="33.8826967" lon="10.0053983"><ele>56.0</ele><time>2026-04-04T20:24:03.282Z</time></trkpt><trkpt lat="33.8826133" lon="10.0054467"><ele>56.333333333333336</ele><time>2026-04-04T20:24:04.283Z</time></trkpt><trkpt lat="33.882535" lon="10.0054917"><ele>56.66666666666667</ele><time>2026-04-04T20:24:05.284Z</time></trkpt><trkpt lat="33.8824633" lon="10.00553"><ele>57.0</ele><time>2026-04-04T20:24:06.284Z</time></trkpt><trkpt lat="33.8823983" lon="10.0055633"><ele>57.33333333333333</ele><time>2026-04-04T20:24:07.282Z</time></trkpt><trkpt lat="33.88234" lon="10.0055933"><ele>57.666666666666664</ele><time>2026-04-04T20:24:08.282Z</time></trkpt><trkpt lat="33.8822333" lon="10.0056467"><ele>58.0</ele><time>2026-04-04T20:24:10.282Z</time></trkpt><trkpt lat="33.8821433" lon="10.0057033"><ele>58.0</ele><time>2026-04-04T20:24:12.285Z</time></trkpt><trkpt lat="33.8820267" lon="10.0057483"><ele>58.0</ele><time>2026-04-04T20:24:14.282Z</time></trkpt><trkpt lat="33.8819633" lon="10.00576"><ele>58.0</ele><time>2026-04-04T20:24:15.281Z</time></trkpt><trkpt lat="33.881875" lon="10.00576"><ele>58.0</ele><time>2026-04-04T20:24:17.285Z</time></trkpt><trkpt lat="33.881755" lon="10.0057717"><ele>58.0</ele><time>2026-04-04T20:24:39.286Z</time></trkpt><trkpt lat="33.881695" lon="10.0058017"><ele>57.8</ele><time>2026-04-04T20:24:40.285Z</time></trkpt><trkpt lat="33.8816433" lon="10.005845"><ele>57.599999999999994</ele><time>2026-04-04T20:24:41.284Z</time></trkpt><trkpt lat="33.8815817" lon="10.0059633"><ele>57.400000000000006</ele><time>2026-04-04T20:24:43.284Z</time></trkpt><trkpt lat="33.88158" lon="10.006105"><ele>57.2</ele><time>2026-04-04T20:24:45.284Z</time></trkpt><trkpt lat="33.8816517" lon="10.0062017"><ele>57.0</ele><time>2026-04-04T20:24:47.285Z</time></trkpt><trkpt lat="33.881785" lon="10.006205"><ele>57.0</ele><time>2026-04-04T20:24:49.284Z</time></trkpt><trkpt lat="33.8818517" lon="10.0061633"><ele>57.0</ele><time>2026-04-04T20:24:50.284Z</time></trkpt><trkpt lat="33.88191" lon="10.0061"><ele>57.0</ele><time>2026-04-04T20:24:51.285Z</time></trkpt><trkpt lat="33.881955" lon="10.0060367"><ele>57.0</ele><time>2026-04-04T20:24:52.285Z</time></trkpt><trkpt lat="33.8820217" lon="10.0059367"><ele>57.0</ele><time>2026-04-04T20:24:54.285Z</time></trkpt><trkpt lat="33.88209" lon="10.0058733"><ele>57.0</ele><time>2026-04-04T20:25:11.284Z</time></trkpt><trkpt lat="33.8822033" lon="10.0058133"><ele>57.14285714285714</ele><time>2026-04-04T20:25:13.284Z</time></trkpt><trkpt lat="33.882275" lon="10.0057833"><ele>57.28571428571428</ele><time>2026-04-04T20:25:14.284Z</time></trkpt><trkpt lat="33.882345" lon="10.005755"><ele>57.42857142857143</ele><time>2026-04-04T20:25:15.284Z</time></trkpt><trkpt lat="33.88241" lon="10.0057283"><ele>57.57142857142857</ele><time>2026-04-04T20:25:16.284Z</time></trkpt><trkpt lat="33.882475" lon="10.005695"><ele>57.714285714285715</ele><time>2026-04-04T20:25:17.284Z</time></trkpt><trkpt lat="33.88254" lon="10.0056583"><ele>57.85714285714286</ele><time>2026-04-04T20:25:18.284Z</time></trkpt><trkpt lat="33.8826083" lon="10.00562"><ele>58.00000000000001</ele><time>2026-04-04T20:25:19.285Z</time></trkpt><trkpt lat="33.8826783" lon="10.0055817"><ele>57.666666666666664</ele><time>2026-04-04T20:25:20.284Z</time></trkpt><trkpt lat="33.882745" lon="10.0055467"><ele>57.33333333333333</ele><time>2026-04-04T20:25:21.285Z</time></trkpt><trkpt lat="33.8828033" lon="10.0055167"><ele>57.0</ele><time>2026-04-04T20:25:22.284Z</time></trkpt><trkpt lat="33.88289" lon="10.005475"><ele>56.66666666666667</ele><time>2026-04-04T20:25:24.284Z</time></trkpt><trkpt lat="33.8829517" lon="10.0054567"><ele>56.333333333333336</ele><time>2026-04-04T20:25:37.284Z</time></trkpt><trkpt lat="33.8830333" lon="10.0054233"><ele>56.0</ele><time>2026-04-04T20:25:40.283Z</time></trkpt><trkpt lat="33.8831017" lon="10.0053833"><ele>56.00000000000001</ele><time>2026-04-04T20:25:43.283Z</time></trkpt><trkpt lat="33.883175" lon="10.0053433"><ele>56.0</ele><time>2026-04-04T20:25:46.285Z</time></trkpt><trkpt lat="33.88324" lon="10.0053"><ele>56.0</ele><time>2026-04-04T20:25:48.285Z</time></trkpt><trkpt lat="33.8833133" lon="10.0052567"><ele>56.0</ele><time>2026-04-04T20:25:51.285Z</time></trkpt><trkpt lat="33.8833733" lon="10.0052267"><ele>56.00000000000001</ele><time>2026-04-04T20:25:54.285Z</time></trkpt><trkpt lat="33.88345" lon="10.00518"><ele>56.0</ele><time>2026-04-04T20:25:57.285Z</time></trkpt><trkpt lat="33.8835533" lon="10.0051117"><ele>56.14285714285714</ele><time>2026-04-04T20:26:06.284Z</time></trkpt><trkpt lat="33.8836117" lon="10.00507"><ele>56.285714285714285</ele><time>2026-04-04T20:26:10.283Z</time></trkpt><trkpt lat="33.8836717" lon="10.00503"><ele>56.42857142857143</ele><time>2026-04-04T20:26:13.282Z</time></trkpt><trkpt lat="33.8837333" lon="10.0049683"><ele>56.57142857142857</ele><time>2026-04-04T20:26:17.285Z</time></trkpt><trkpt lat="33.8837933" lon="10.0049283"><ele>56.71428571428571</ele><time>2026-04-04T20:26:20.285Z</time></trkpt><trkpt lat="33.8838617" lon="10.00487"><ele>56.857142857142854</ele><time>2026-04-04T20:26:23.285Z</time></trkpt><trkpt lat="33.88391" lon="10.00482"><ele>57.0</ele><time>2026-04-04T20:26:25.286Z</time></trkpt><trkpt lat="33.88398" lon="10.0047433"><ele>57.2</ele><time>2026-04-04T20:26:28.285Z</time></trkpt><trkpt lat="33.8840333" lon="10.00469"><ele>57.400000000000006</ele><time>2026-04-04T20:26:30.285Z</time></trkpt><trkpt lat="33.884095" lon="10.0046217"><ele>57.599999999999994</ele><time>2026-04-04T20:26:32.285Z</time></trkpt><trkpt lat="33.8841583" lon="10.0045367"><ele>57.8</ele><time>2026-04-04T20:26:34.282Z</time></trkpt><trkpt lat="33.8842267" lon="10.0044383"><ele>58.0</ele><time>2026-04-04T20:26:36.284Z</time></trkpt><trkpt lat="33.8843067" lon="10.0043133"><ele>57.8</ele><time>2026-04-04T20:26:38.282Z</time></trkpt><trkpt lat="33.8843467" lon="10.00424"><ele>57.599999999999994</ele><time>2026-04-04T20:26:39.282Z</time></trkpt><trkpt lat="33.88439" lon="10.0041617"><ele>57.400000000000006</ele><time>2026-04-04T20:26:40.283Z</time></trkpt><trkpt lat="33.88444" lon="10.0040717"><ele>57.2</ele><time>2026-04-04T20:26:41.283Z</time></trkpt><trkpt lat="33.8844917" lon="10.0039633"><ele>57.0</ele><time>2026-04-04T20:26:42.284Z</time></trkpt><trkpt lat="33.8845433" lon="10.00384"><ele>57.0</ele><time>2026-04-04T20:26:43.282Z</time></trkpt><trkpt lat="33.8845933" lon="10.0037017"><ele>57.0</ele><time>2026-04-04T20:26:44.284Z</time></trkpt><trkpt lat="33.8846417" lon="10.0035483"><ele>57.0</ele><time>2026-04-04T20:26:45.285Z</time></trkpt><trkpt lat="33.884685" lon="10.0033867"><ele>57.0</ele><time>2026-04-04T20:26:46.286Z</time></trkpt><trkpt lat="33.8847167" lon="10.0032167"><ele>56.75</ele><time>2026-04-04T20:26:47.283Z</time></trkpt><trkpt lat="33.8847367" lon="10.00305"><ele>56.5</ele><time>2026-04-04T20:26:48.286Z</time></trkpt><trkpt lat="33.8847483" lon="10.00289"><ele>56.25</ele><time>2026-04-04T20:26:49.286Z</time></trkpt><trkpt lat="33.8847517" lon="10.0027417"><ele>56.0</ele><time>2026-04-04T20:26:50.285Z</time></trkpt><trkpt lat="33.8847517" lon="10.0026083"><ele>56.16666666666667</ele><time>2026-04-04T20:26:51.285Z</time></trkpt><trkpt lat="33.884745" lon="10.0024867"><ele>56.333333333333336</ele><time>2026-04-04T20:26:52.285Z</time></trkpt><trkpt lat="33.8847383" lon="10.0023733"><ele>56.5</ele><time>2026-04-04T20:26:53.285Z</time></trkpt><trkpt lat="33.884725" lon="10.00227"><ele>56.66666666666667</ele><time>2026-04-04T20:26:54.286Z</time></trkpt><trkpt lat="33.8847083" lon="10.002175"><ele>56.833333333333336</ele><time>2026-04-04T20:26:55.285Z</time></trkpt><trkpt lat="33.88469" lon="10.0020817"><ele>57.0</ele><time>2026-04-04T20:26:56.285Z</time></trkpt><trkpt lat="33.8846667" lon="10.0019933"><ele>57.0</ele><time>2026-04-04T20:26:57.285Z</time></trkpt><trkpt lat="33.8846483" lon="10.0019183"><ele>57.0</ele><time>2026-04-04T20:26:58.285Z</time></trkpt><trkpt lat="33.884625" lon="10.0018217"><ele>57.0</ele><time>2026-04-04T20:27:00.283Z</time></trkpt><trkpt lat="33.884595" lon="10.0017433"><ele>57.0</ele><time>2026-04-04T20:27:03.283Z</time></trkpt><trkpt lat="33.8845667" lon="10.0016317"><ele>57.0</ele><time>2026-04-04T20:27:07.284Z</time></trkpt><trkpt lat="33.8845483" lon="10.0015367"><ele>57.0</ele><time>2026-04-04T20:27:09.282Z</time></trkpt><trkpt lat="33.8845267" lon="10.0014517"><ele>57.333333333333336</ele><time>2026-04-04T20:27:11.286Z</time></trkpt><trkpt lat="33.8844983" lon="10.00134"><ele>57.66666666666667</ele><time>2026-04-04T20:27:14.285Z</time></trkpt><trkpt lat="33.8844633" lon="10.0012133"><ele>58.0</ele><time>2026-04-04T20:27:16.285Z</time></trkpt><trkpt lat="33.8844433" lon="10.0011283"><ele>58.333333333333336</ele><time>2026-04-04T20:27:18.285Z</time></trkpt><trkpt lat="33.8844183" lon="10.0010383"><ele>58.66666666666667</ele><time>2026-04-04T20:27:39.286Z</time></trkpt><trkpt lat="33.88441" lon="10.0009333"><ele>59.0</ele><time>2026-04-04T20:27:42.284Z</time></trkpt><trkpt lat="33.884385" lon="10.00085"><ele>58.833333333333336</ele><time>2026-04-04T20:27:57.287Z</time></trkpt><trkpt lat="33.8843583" lon="10.0007483"><ele>58.66666666666667</ele><time>2026-04-04T20:28:00.285Z</time></trkpt><trkpt lat="33.8843367" lon="10.0006667"><ele>58.5</ele><time>2026-04-04T20:28:03.281Z</time></trkpt><trkpt lat="33.884305" lon="10.0005783"><ele>58.33333333333333</ele><time>2026-04-04T20:28:06.282Z</time></trkpt><trkpt lat="33.8842767" lon="10.000475"><ele>58.166666666666664</ele><time>2026-04-04T20:28:09.282Z</time></trkpt><trkpt lat="33.8842533" lon="10.00039"><ele>58.0</ele><time>2026-04-04T20:28:11.283Z</time></trkpt><trkpt lat="33.8842167" lon="10.0002983"><ele>57.83333333333333</ele><time>2026-04-04T20:28:14.281Z</time></trkpt><trkpt lat="33.8842167" lon="10.000205"><ele>57.666666666666664</ele><time>2026-04-04T20:29:10.284Z</time></trkpt><trkpt lat="33.88419" lon="10.0001133"><ele>57.5</ele><time>2026-04-04T20:29:13.285Z</time></trkpt><trkpt lat="33.8841883" lon="10.0000367"><ele>57.33333333333333</ele><time>2026-04-04T20:30:12.285Z</time></trkpt><trkpt lat="33.8841767" lon="9.9999117"><ele>57.166666666666664</ele><time>2026-04-04T20:30:14.285Z</time></trkpt><trkpt lat="33.8841483" lon="9.9998367"><ele>57.0</ele><time>2026-04-04T20:30:15.285Z</time></trkpt><trkpt lat="33.8841217" lon="9.9997567"><ele>57.0</ele><time>2026-04-04T20:30:16.284Z</time></trkpt><trkpt lat="33.8840883" lon="9.9996733"><ele>57.0</ele><time>2026-04-04T20:30:17.281Z</time></trkpt><trkpt lat="33.8840567" lon="9.9995883"><ele>57.0</ele><time>2026-04-04T20:30:18.283Z</time></trkpt><trkpt lat="33.8840233" lon="9.9995"><ele>57.0</ele><time>2026-04-04T20:30:19.282Z</time></trkpt><trkpt lat="33.88399" lon="9.9994117"><ele>57.0</ele><time>2026-04-04T20:30:20.281Z</time></trkpt><trkpt lat="33.88396" lon="9.9993233"><ele>57.0</ele><time>2026-04-04T20:30:21.283Z</time></trkpt><trkpt lat="33.8839333" lon="9.999235"><ele>57.333333333333336</ele><time>2026-04-04T20:30:22.283Z</time></trkpt><trkpt lat="33.8839067" lon="9.9991517"><ele>57.66666666666667</ele><time>2026-04-04T20:30:23.281Z</time></trkpt><trkpt lat="33.883885" lon="9.9990733"><ele>58.0</ele><time>2026-04-04T20:30:24.285Z</time></trkpt><trkpt lat="33.8838483" lon="9.9989467"><ele>58.333333333333336</ele><time>2026-04-04T20:30:26.286Z</time></trkpt><trkpt lat="33.8838167" lon="9.9988517"><ele>58.66666666666667</ele><time>2026-04-04T20:30:28.285Z</time></trkpt><trkpt lat="33.88379" lon="9.998775"><ele>59.0</ele><time>2026-04-04T20:30:30.287Z</time></trkpt><trkpt lat="33.883755" lon="9.9986783"><ele>59.0</ele><time>2026-04-04T20:30:32.285Z</time></trkpt><trkpt lat="33.88371" lon="9.9985733"><ele>59.00000000000001</ele><time>2026-04-04T20:30:34.286Z</time></trkpt><trkpt lat="33.883665" lon="9.9984567"><ele>59.00000000000001</ele><time>2026-04-04T20:30:36.282Z</time></trkpt><trkpt lat="33.883615" lon="9.998335"><ele>59.0</ele><time>2026-04-04T20:30:38.281Z</time></trkpt><trkpt lat="33.8835667" lon="9.998225"><ele>59.0</ele><time>2026-04-04T20:30:40.285Z</time></trkpt><trkpt lat="33.88351" lon="9.998135"><ele>58.66666666666667</ele><time>2026-04-04T20:30:42.285Z</time></trkpt><trkpt lat="33.8834567" lon="9.9980467"><ele>58.333333333333336</ele><time>2026-04-04T20:30:44.286Z</time></trkpt><trkpt lat="33.883415" lon="9.9979667"><ele>58.0</ele><time>2026-04-04T20:30:46.282Z</time></trkpt><trkpt lat="33.8833517" lon="9.99788"><ele>57.66666666666667</ele><time>2026-04-04T20:30:48.285Z</time></trkpt><trkpt lat="33.8833067" lon="9.997825"><ele>57.333333333333336</ele><time>2026-04-04T20:30:49.284Z</time></trkpt><trkpt lat="33.8832517" lon="9.9977617"><ele>57.0</ele><time>2026-04-04T20:30:50.285Z</time></trkpt><trkpt lat="33.88319" lon="9.99769"><ele>56.8</ele><time>2026-04-04T20:30:51.286Z</time></trkpt><trkpt lat="33.8831167" lon="9.99762"><ele>56.6</ele><time>2026-04-04T20:30:52.286Z</time></trkpt><trkpt lat="33.883035" lon="9.997545"><ele>56.39999999999999</ele><time>2026-04-04T20:30:53.286Z</time></trkpt><trkpt lat="33.88295" lon="9.99747"><ele>56.199999999999996</ele><time>2026-04-04T20:30:54.285Z</time></trkpt><trkpt lat="33.8828667" lon="9.9973933"><ele>56.0</ele><time>2026-04-04T20:30:55.285Z</time></trkpt><trkpt lat="33.8827767" lon="9.997315"><ele>56.0</ele><time>2026-04-04T20:30:56.286Z</time></trkpt><trkpt lat="33.8826833" lon="9.997235"><ele>56.0</ele><time>2026-04-04T20:30:57.285Z</time></trkpt><trkpt lat="33.8825817" lon="9.99715"><ele>56.0</ele><time>2026-04-04T20:30:58.286Z</time></trkpt><trkpt lat="33.882475" lon="9.997055"><ele>56.0</ele><time>2026-04-04T20:30:59.285Z</time></trkpt><trkpt lat="33.8823667" lon="9.99696"><ele>56.0</ele><time>2026-04-04T20:31:00.286Z</time></trkpt><trkpt lat="33.88225" lon="9.9968617"><ele>56.0</ele><time>2026-04-04T20:31:01.285Z</time></trkpt><trkpt lat="33.8821183" lon="9.9967517"><ele>56.0</ele><time>2026-04-04T20:31:02.285Z</time></trkpt><trkpt lat="33.8819883" lon="9.99664"><ele>56.5</ele><time>2026-04-04T20:31:03.285Z</time></trkpt><trkpt lat="33.88186" lon="9.9965283"><ele>57.0</ele><time>2026-04-04T20:31:04.285Z</time></trkpt><trkpt lat="33.881745" lon="9.9964283"><ele>57.5</ele><time>2026-04-04T20:31:05.285Z</time></trkpt><trkpt lat="33.8816367" lon="9.9963383"><ele>58.0</ele><time>2026-04-04T20:31:06.285Z</time></trkpt><trkpt lat="33.8815417" lon="9.996255"><ele>58.25</ele><time>2026-04-04T20:31:07.286Z</time></trkpt><trkpt lat="33.8814483" lon="9.9961767"><ele>58.5</ele><time>2026-04-04T20:31:08.286Z</time></trkpt><trkpt lat="33.8813533" lon="9.9960983"><ele>58.75</ele><time>2026-04-04T20:31:09.285Z</time></trkpt><trkpt lat="33.881255" lon="9.996015"><ele>59.0</ele><time>2026-04-04T20:31:10.286Z</time></trkpt><trkpt lat="33.88116" lon="9.99593"><ele>59.0</ele><time>2026-04-04T20:31:11.285Z</time></trkpt><trkpt lat="33.88107" lon="9.99585"><ele>59.00000000000001</ele><time>2026-04-04T20:31:12.286Z</time></trkpt><trkpt lat="33.880985" lon="9.995775"><ele>59.00000000000001</ele><time>2026-04-04T20:31:13.285Z</time></trkpt><trkpt lat="33.8808983" lon="9.995705"><ele>59.0</ele><time>2026-04-04T20:31:14.285Z</time></trkpt><trkpt lat="33.8808083" lon="9.9956417"><ele>59.0</ele><time>2026-04-04T20:31:15.282Z</time></trkpt><trkpt lat="33.88071" lon="9.9955883"><ele>58.400000000000006</ele><time>2026-04-04T20:31:16.284Z</time></trkpt><trkpt lat="33.880605" lon="9.9955517"><ele>57.800000000000004</ele><time>2026-04-04T20:31:17.285Z</time></trkpt><trkpt lat="33.880495" lon="9.99553"><ele>57.199999999999996</ele><time>2026-04-04T20:31:18.285Z</time></trkpt><trkpt lat="33.880385" lon="9.9955283"><ele>56.599999999999994</ele><time>2026-04-04T20:31:19.285Z</time></trkpt><trkpt lat="33.8802767" lon="9.9955483"><ele>56.0</ele><time>2026-04-04T20:31:20.286Z</time></trkpt><trkpt lat="33.8801733" lon="9.9955867"><ele>56.25</ele><time>2026-04-04T20:31:21.285Z</time></trkpt><trkpt lat="33.8800683" lon="9.9956433"><ele>56.5</ele><time>2026-04-04T20:31:22.285Z</time></trkpt><trkpt lat="33.87997" lon="9.9957217"><ele>56.75</ele><time>2026-04-04T20:31:23.285Z</time></trkpt><trkpt lat="33.87988" lon="9.9958183"><ele>57.0</ele><time>2026-04-04T20:31:24.285Z</time></trkpt><trkpt lat="33.879805" lon="9.9959367"><ele>57.0</ele><time>2026-04-04T20:31:25.288Z</time></trkpt><trkpt lat="33.87975" lon="9.9960717"><ele>57.0</ele><time>2026-04-04T20:31:26.285Z</time></trkpt><trkpt lat="33.8797133" lon="9.996215"><ele>57.0</ele><time>2026-04-04T20:31:27.285Z</time></trkpt><trkpt lat="33.8796967" lon="9.996375"><ele>57.0</ele><time>2026-04-04T20:31:28.285Z</time></trkpt><trkpt lat="33.8796933" lon="9.996555"><ele>57.5</ele><time>2026-04-04T20:31:29.285Z</time></trkpt><trkpt lat="33.8796933" lon="9.99674"><ele>58.0</ele><time>2026-04-04T20:31:30.285Z</time></trkpt><trkpt lat="33.8796833" lon="9.9969133"><ele>58.5</ele><time>2026-04-04T20:31:31.285Z</time></trkpt><trkpt lat="33.8796617" lon="9.9970817"><ele>59.0</ele><time>2026-04-04T20:31:32.285Z</time></trkpt><trkpt lat="33.8796267" lon="9.99724"><ele>59.0</ele><time>2026-04-04T20:31:33.285Z</time></trkpt><trkpt lat="33.8795783" lon="9.997385"><ele>59.0</ele><time>2026-04-04T20:31:34.285Z</time></trkpt><trkpt lat="33.8795117" lon="9.9975233"><ele>59.0</ele><time>2026-04-04T20:31:35.285Z</time></trkpt><trkpt lat="33.87943" lon="9.9976583"><ele>59.0</ele><time>2026-04-04T20:31:36.286Z</time></trkpt><trkpt lat="33.8793383" lon="9.9977817"><ele>59.0</ele><time>2026-04-04T20:31:37.285Z</time></trkpt><trkpt lat="33.879235" lon="9.9978983"><ele>59.0</ele><time>2026-04-04T20:31:38.285Z</time></trkpt><trkpt lat="33.8791267" lon="9.9980117"><ele>59.0</ele><time>2026-04-04T20:31:39.285Z</time></trkpt><trkpt lat="33.8790117" lon="9.99812"><ele>59.0</ele><time>2026-04-04T20:31:40.285Z</time></trkpt><trkpt lat="33.8788917" lon="9.9982267"><ele>59.333333333333336</ele><time>2026-04-04T20:31:41.285Z</time></trkpt><trkpt lat="33.87877" lon="9.9983383"><ele>59.66666666666667</ele><time>2026-04-04T20:31:42.285Z</time></trkpt><trkpt lat="33.8786467" lon="9.9984517"><ele>60.0</ele><time>2026-04-04T20:31:43.286Z</time></trkpt><trkpt lat="33.878515" lon="9.9985633"><ele>59.33333333333333</ele><time>2026-04-04T20:31:44.285Z</time></trkpt><trkpt lat="33.87838" lon="9.99867"><ele>58.666666666666664</ele><time>2026-04-04T20:31:45.285Z</time></trkpt><trkpt lat="33.87824" lon="9.99878"><ele>58.0</ele><time>2026-04-04T20:31:46.285Z</time></trkpt><trkpt lat="33.8781" lon="9.99889"><ele>58.0</ele><time>2026-04-04T20:31:47.285Z</time></trkpt><trkpt lat="33.87796" lon="9.9990017"><ele>58.0</ele><time>2026-04-04T20:31:48.286Z</time></trkpt><trkpt lat="33.8778233" lon="9.999105"><ele>58.0</ele><time>2026-04-04T20:31:49.285Z</time></trkpt><trkpt lat="33.8776867" lon="9.9992083"><ele>57.666666666666664</ele><time>2026-04-04T20:31:50.285Z</time></trkpt><trkpt lat="33.8775433" lon="9.999315"><ele>57.33333333333333</ele><time>2026-04-04T20:31:51.286Z</time></trkpt><trkpt lat="33.8773967" lon="9.99943"><ele>57.0</ele><time>2026-04-04T20:31:52.286Z</time></trkpt><trkpt lat="33.877245" lon="9.9995417"><ele>57.0</ele><time>2026-04-04T20:31:53.285Z</time></trkpt><trkpt lat="33.877095" lon="9.9996533"><ele>57.0</ele><time>2026-04-04T20:31:54.286Z</time></trkpt><trkpt lat="33.8769483" lon="9.9997633"><ele>57.0</ele><time>2026-04-04T20:31:55.285Z</time></trkpt><trkpt lat="33.8768" lon="9.9998767"><ele>56.66666666666667</ele><time>2026-04-04T20:31:56.285Z</time></trkpt><trkpt lat="33.8766383" lon="10.0000033"><ele>56.333333333333336</ele><time>2026-04-04T20:31:57.286Z</time></trkpt><trkpt lat="33.8764617" lon="10.0001417"><ele>56.0</ele><time>2026-04-04T20:31:58.285Z</time></trkpt><trkpt lat="33.876275" lon="10.0002817"><ele>56.0</ele><time>2026-04-04T20:31:59.285Z</time></trkpt><trkpt lat="33.8760817" lon="10.0004217"><ele>56.0</ele><time>2026-04-04T20:32:00.285Z</time></trkpt><trkpt lat="33.8758833" lon="10.0005583"><ele>56.0</ele><time>2026-04-04T20:32:01.286Z</time></trkpt><trkpt lat="33.875685" lon="10.0007"><ele>56.0</ele><time>2026-04-04T20:32:02.285Z</time></trkpt><trkpt lat="33.8754867" lon="10.0008433"><ele>56.0</ele><time>2026-04-04T20:32:03.284Z</time></trkpt><trkpt lat="33.87529" lon="10.000985"><ele>56.0</ele><time>2026-04-04T20:32:04.284Z</time></trkpt><trkpt lat="33.8750967" lon="10.0011267"><ele>56.0</ele><time>2026-04-04T20:32:05.285Z</time></trkpt><trkpt lat="33.8749033" lon="10.00127"><ele>56.0</ele><time>2026-04-04T20:32:06.285Z</time></trkpt><trkpt lat="33.874715" lon="10.0014133"><ele>56.0</ele><time>2026-04-04T20:32:07.286Z</time></trkpt><trkpt lat="33.87453" lon="10.0015567"><ele>56.0</ele><time>2026-04-04T20:32:08.284Z</time></trkpt><trkpt lat="33.8743433" lon="10.0016967"><ele>56.0</ele><time>2026-04-04T20:32:09.284Z</time></trkpt><trkpt lat="33.87416" lon="10.0018383"><ele>56.66666666666667</ele><time>2026-04-04T20:32:10.285Z</time></trkpt><trkpt lat="33.8739733" lon="10.00198"><ele>57.33333333333333</ele><time>2026-04-04T20:32:11.285Z</time></trkpt><trkpt lat="33.87378" lon="10.0021267"><ele>58.0</ele><time>2026-04-04T20:32:12.285Z</time></trkpt><trkpt lat="33.8735783" lon="10.0022817"><ele>56.5</ele><time>2026-04-04T20:32:13.285Z</time></trkpt><trkpt lat="33.8733683" lon="10.0024433"><ele>55.0</ele><time>2026-04-04T20:32:14.287Z</time></trkpt><trkpt lat="33.8731533" lon="10.00261"><ele>55.0</ele><time>2026-04-04T20:32:15.285Z</time></trkpt><trkpt lat="33.8729367" lon="10.002775"><ele>55.0</ele><time>2026-04-04T20:32:16.285Z</time></trkpt><trkpt lat="33.872715" lon="10.0029367"><ele>57.5</ele><time>2026-04-04T20:32:17.285Z</time></trkpt><trkpt lat="33.8724933" lon="10.0031"><ele>60.0</ele><time>2026-04-04T20:32:18.285Z</time></trkpt><trkpt lat="33.8722717" lon="10.0032633"><ele>57.5</ele><time>2026-04-04T20:32:19.285Z</time></trkpt><trkpt lat="33.8720467" lon="10.0034283"><ele>55.0</ele><time>2026-04-04T20:32:20.285Z</time></trkpt><trkpt lat="33.8718217" lon="10.003595"><ele>55.5</ele><time>2026-04-04T20:32:21.285Z</time></trkpt><trkpt lat="33.8715983" lon="10.0037617"><ele>56.0</ele><time>2026-04-04T20:32:22.285Z</time></trkpt><trkpt lat="33.8713733" lon="10.0039317"><ele>56.0</ele><time>2026-04-04T20:32:23.285Z</time></trkpt><trkpt lat="33.8711483" lon="10.0041017"><ele>56.0</ele><time>2026-04-04T20:32:24.286Z</time></trkpt><trkpt lat="33.87092" lon="10.0042767"><ele>56.0</ele><time>2026-04-04T20:32:25.282Z</time></trkpt><trkpt lat="33.87069" lon="10.0044517"><ele>56.0</ele><time>2026-04-04T20:32:26.283Z</time></trkpt><trkpt lat="33.8704567" lon="10.0046267"><ele>56.0</ele><time>2026-04-04T20:32:27.285Z</time></trkpt><trkpt lat="33.8702217" lon="10.0048017"><ele>56.0</ele><time>2026-04-04T20:32:28.285Z</time></trkpt><trkpt lat="33.8699867" lon="10.0049767"><ele>55.5</ele><time>2026-04-04T20:32:29.285Z</time></trkpt><trkpt lat="33.8697483" lon="10.0051517"><ele>55.0</ele><time>2026-04-04T20:32:30.285Z</time></trkpt><trkpt lat="33.86951" lon="10.00533"><ele>56.5</ele><time>2026-04-04T20:32:31.285Z</time></trkpt><trkpt lat="33.8692717" lon="10.0055083"><ele>58.0</ele><time>2026-04-04T20:32:32.282Z</time></trkpt><trkpt lat="33.8690317" lon="10.00569"><ele>56.5</ele><time>2026-04-04T20:32:33.283Z</time></trkpt><trkpt lat="33.86879" lon="10.0058717"><ele>55.0</ele><time>2026-04-04T20:32:34.283Z</time></trkpt><trkpt lat="33.8685483" lon="10.006055"><ele>55.5</ele><time>2026-04-04T20:32:35.283Z</time></trkpt><trkpt lat="33.8683067" lon="10.0062383"><ele>56.0</ele><time>2026-04-04T20:32:36.284Z</time></trkpt><trkpt lat="33.868065" lon="10.0064217"><ele>56.0</ele><time>2026-04-04T20:32:37.282Z</time></trkpt><trkpt lat="33.8678217" lon="10.0066067"><ele>56.0</ele><time>2026-04-04T20:32:38.282Z</time></trkpt><trkpt lat="33.867575" lon="10.00679"><ele>55.5</ele><time>2026-04-04T20:32:39.283Z</time></trkpt><trkpt lat="33.8673283" lon="10.006975"><ele>55.0</ele><time>2026-04-04T20:32:40.286Z</time></trkpt><trkpt lat="33.8670783" lon="10.00716"><ele>55.0</ele><time>2026-04-04T20:32:41.285Z</time></trkpt><trkpt lat="33.8668317" lon="10.007345"><ele>55.0</ele><time>2026-04-04T20:32:42.285Z</time></trkpt><trkpt lat="33.8665833" lon="10.0075317"><ele>55.5</ele><time>2026-04-04T20:32:43.286Z</time></trkpt><trkpt lat="33.866335" lon="10.00772"><ele>56.0</ele><time>2026-04-04T20:32:44.282Z</time></trkpt><trkpt lat="33.866085" lon="10.0079083"><ele>55.5</ele><time>2026-04-04T20:32:45.285Z</time></trkpt><trkpt lat="33.8658333" lon="10.0080983"><ele>55.0</ele><time>2026-04-04T20:32:46.286Z</time></trkpt><trkpt lat="33.86558" lon="10.0082883"><ele>55.0</ele><time>2026-04-04T20:32:47.285Z</time></trkpt><trkpt lat="33.8653267" lon="10.0084767"><ele>55.0</ele><time>2026-04-04T20:32:48.284Z</time></trkpt><trkpt lat="33.8650733" lon="10.0086667"><ele>55.5</ele><time>2026-04-04T20:32:49.285Z</time></trkpt><trkpt lat="33.86482" lon="10.0088567"><ele>56.0</ele><time>2026-04-04T20:32:50.285Z</time></trkpt><trkpt lat="33.8645683" lon="10.00905"><ele>56.5</ele><time>2026-04-04T20:32:51.287Z</time></trkpt><trkpt lat="33.864315" lon="10.009245"><ele>57.0</ele><time>2026-04-04T20:32:52.285Z</time></trkpt><trkpt lat="33.86406" lon="10.0094367"><ele>57.0</ele><time>2026-04-04T20:32:53.289Z</time></trkpt><trkpt lat="33.8638033" lon="10.00963"><ele>57.0</ele><time>2026-04-04T20:32:54.285Z</time></trkpt><trkpt lat="33.8635483" lon="10.0098233"><ele>57.0</ele><time>2026-04-04T20:32:55.285Z</time></trkpt><trkpt lat="33.8632917" lon="10.010015"><ele>57.0</ele><time>2026-04-04T20:32:56.285Z</time></trkpt><trkpt lat="33.8630333" lon="10.0102033"><ele>57.0</ele><time>2026-04-04T20:32:57.285Z</time></trkpt><trkpt lat="33.8627767" lon="10.0103917"><ele>57.0</ele><time>2026-04-04T20:32:58.286Z</time></trkpt><trkpt lat="33.8625183" lon="10.01058"><ele>57.5</ele><time>2026-04-04T20:32:59.285Z</time></trkpt><trkpt lat="33.86226" lon="10.0107717"><ele>58.0</ele><time>2026-04-04T20:33:00.285Z</time></trkpt><trkpt lat="33.862" lon="10.0109633"><ele>58.5</ele><time>2026-04-04T20:33:01.285Z</time></trkpt><trkpt lat="33.86174" lon="10.0111567"><ele>59.0</ele><time>2026-04-04T20:33:02.286Z</time></trkpt><trkpt lat="33.8614783" lon="10.01135"><ele>59.0</ele><time>2026-04-04T20:33:03.284Z</time></trkpt><trkpt lat="33.861215" lon="10.0115433"><ele>59.0</ele><time>2026-04-04T20:33:04.282Z</time></trkpt><trkpt lat="33.8609517" lon="10.0117317"><ele>57.5</ele><time>2026-04-04T20:33:05.283Z</time></trkpt><trkpt lat="33.86069" lon="10.011925"><ele>56.0</ele><time>2026-04-04T20:33:06.282Z</time></trkpt><trkpt lat="33.8604317" lon="10.0121167"><ele>56.0</ele><time>2026-04-04T20:33:07.281Z</time></trkpt><trkpt lat="33.860175" lon="10.0123067"><ele>56.0</ele><time>2026-04-04T20:33:08.281Z</time></trkpt><trkpt lat="33.8599217" lon="10.0124983"><ele>56.5</ele><time>2026-04-04T20:33:09.282Z</time></trkpt><trkpt lat="33.85967" lon="10.0126883"><ele>57.0</ele><time>2026-04-04T20:33:10.282Z</time></trkpt><trkpt lat="33.8594167" lon="10.0128783"><ele>58.0</ele><time>2026-04-04T20:33:11.282Z</time></trkpt><trkpt lat="33.8591617" lon="10.0130717"><ele>59.0</ele><time>2026-04-04T20:33:12.283Z</time></trkpt><trkpt lat="33.8589067" lon="10.0132633"><ele>57.5</ele><time>2026-04-04T20:33:13.283Z</time></trkpt><trkpt lat="33.85865" lon="10.0134567"><ele>56.0</ele><time>2026-04-04T20:33:14.282Z</time></trkpt><trkpt lat="33.8583917" lon="10.0136517"><ele>55.5</ele><time>2026-04-04T20:33:15.284Z</time></trkpt><trkpt lat="33.8581333" lon="10.0138467"><ele>55.0</ele><time>2026-04-04T20:33:16.284Z</time></trkpt><trkpt lat="33.857875" lon="10.0140433"><ele>54.5</ele><time>2026-04-04T20:33:17.282Z</time></trkpt><trkpt lat="33.8576133" lon="10.0142383"><ele>54.0</ele><time>2026-04-04T20:33:18.282Z</time></trkpt><trkpt lat="33.8573533" lon="10.0144317"><ele>54.0</ele><time>2026-04-04T20:33:19.283Z</time></trkpt><trkpt lat="33.857095" lon="10.0146267"><ele>54.0</ele><time>2026-04-04T20:33:20.281Z</time></trkpt><trkpt lat="33.8568367" lon="10.0148183"><ele>54.5</ele><time>2026-04-04T20:33:21.281Z</time></trkpt><trkpt lat="33.8565783" lon="10.0150117"><ele>55.0</ele><time>2026-04-04T20:33:22.282Z</time></trkpt><trkpt lat="33.85632" lon="10.015205"><ele>55.0</ele><time>2026-04-04T20:33:23.282Z</time></trkpt><trkpt lat="33.85606" lon="10.0154017"><ele>55.0</ele><time>2026-04-04T20:33:24.282Z</time></trkpt><trkpt lat="33.8558" lon="10.0155967"><ele>55.5</ele><time>2026-04-04T20:33:25.285Z</time></trkpt><trkpt lat="33.8555417" lon="10.0157933"><ele>56.0</ele><time>2026-04-04T20:33:26.281Z</time></trkpt><trkpt lat="33.855285" lon="10.0159883"><ele>56.0</ele><time>2026-04-04T20:33:27.282Z</time></trkpt><trkpt lat="33.8550267" lon="10.0161833"><ele>56.0</ele><time>2026-04-04T20:33:28.282Z</time></trkpt><trkpt lat="33.8547683" lon="10.0163783"><ele>56.0</ele><time>2026-04-04T20:33:29.282Z</time></trkpt><trkpt lat="33.8545083" lon="10.016575"><ele>56.0</ele><time>2026-04-04T20:33:30.282Z</time></trkpt><trkpt lat="33.8542467" lon="10.0167733"><ele>55.5</ele><time>2026-04-04T20:33:31.285Z</time></trkpt><trkpt lat="33.8539833" lon="10.0169733"><ele>55.0</ele><time>2026-04-04T20:33:32.285Z</time></trkpt><trkpt lat="33.8537183" lon="10.017175"><ele>55.5</ele><time>2026-04-04T20:33:33.282Z</time></trkpt><trkpt lat="33.8534533" lon="10.0173767"><ele>56.0</ele><time>2026-04-04T20:33:34.282Z</time></trkpt><trkpt lat="33.8531883" lon="10.0175783"><ele>56.5</ele><time>2026-04-04T20:33:35.284Z</time></trkpt><trkpt lat="33.8529233" lon="10.0177783"><ele>57.0</ele><time>2026-04-04T20:33:36.284Z</time></trkpt><trkpt lat="33.8526583" lon="10.017975"><ele>57.5</ele><time>2026-04-04T20:33:37.283Z</time></trkpt><trkpt lat="33.8523933" lon="10.0181733"><ele>58.0</ele><time>2026-04-04T20:33:38.281Z</time></trkpt><trkpt lat="33.85213" lon="10.018375"><ele>57.5</ele><time>2026-04-04T20:33:39.284Z</time></trkpt><trkpt lat="33.8518667" lon="10.018575"><ele>57.0</ele><time>2026-04-04T20:33:40.283Z</time></trkpt><trkpt lat="33.8516017" lon="10.0187733"><ele>57.0</ele><time>2026-04-04T20:33:41.282Z</time></trkpt><trkpt lat="33.8513417" lon="10.01897"><ele>57.0</ele><time>2026-04-04T20:33:42.282Z</time></trkpt><trkpt lat="33.8510783" lon="10.0191633"><ele>56.0</ele><time>2026-04-04T20:33:43.285Z</time></trkpt><trkpt lat="33.8508133" lon="10.01936"><ele>55.0</ele><time>2026-04-04T20:33:44.285Z</time></trkpt><trkpt lat="33.8505483" lon="10.0195567"><ele>55.0</ele><time>2026-04-04T20:33:45.283Z</time></trkpt><trkpt lat="33.8502833" lon="10.0197533"><ele>55.0</ele><time>2026-04-04T20:33:46.283Z</time></trkpt><trkpt lat="33.8500183" lon="10.0199483"><ele>56.0</ele><time>2026-04-04T20:33:47.286Z</time></trkpt><trkpt lat="33.8497533" lon="10.0201467"><ele>57.0</ele><time>2026-04-04T20:33:48.284Z</time></trkpt><trkpt lat="33.8494917" lon="10.0203433"><ele>57.0</ele><time>2026-04-04T20:33:49.283Z</time></trkpt><trkpt lat="33.84923" lon="10.0205383"><ele>57.0</ele><time>2026-04-04T20:33:50.283Z</time></trkpt><trkpt lat="33.8489717" lon="10.0207317"><ele>55.5</ele><time>2026-04-04T20:33:51.284Z</time></trkpt><trkpt lat="33.8487133" lon="10.0209283"><ele>54.0</ele><time>2026-04-04T20:33:52.284Z</time></trkpt><trkpt lat="33.8484533" lon="10.0211233"><ele>54.0</ele><time>2026-04-04T20:33:53.283Z</time></trkpt><trkpt lat="33.8481933" lon="10.02132"><ele>54.0</ele><time>2026-04-04T20:33:54.283Z</time></trkpt><trkpt lat="33.84793" lon="10.021515"><ele>52.0</ele><time>2026-04-04T20:33:55.284Z</time></trkpt><trkpt lat="33.847665" lon="10.021715"><ele>50.0</ele><time>2026-04-04T20:33:56.283Z</time></trkpt><trkpt lat="33.847395" lon="10.0219167"><ele>49.0</ele><time>2026-04-04T20:33:57.284Z</time></trkpt><trkpt lat="33.84712" lon="10.02212"><ele>48.0</ele><time>2026-04-04T20:33:58.285Z</time></trkpt><trkpt lat="33.8468417" lon="10.022325"><ele>49.5</ele><time>2026-04-04T20:33:59.284Z</time></trkpt><trkpt lat="33.846565" lon="10.0225333"><ele>51.0</ele><time>2026-04-04T20:34:00.283Z</time></trkpt><trkpt lat="33.84629" lon="10.0227367"><ele>51.0</ele><time>2026-04-04T20:34:01.285Z</time></trkpt><trkpt lat="33.8460183" lon="10.0229383"><ele>51.0</ele><time>2026-04-04T20:34:02.285Z</time></trkpt><trkpt lat="33.8457533" lon="10.023135"><ele>54.0</ele><time>2026-04-04T20:34:03.285Z</time></trkpt><trkpt lat="33.84549" lon="10.02333"><ele>57.0</ele><time>2026-04-04T20:34:04.285Z</time></trkpt><trkpt lat="33.84523" lon="10.0235183"><ele>56.5</ele><time>2026-04-04T20:34:05.285Z</time></trkpt><trkpt lat="33.8449733" lon="10.0237133"><ele>56.0</ele><time>2026-04-04T20:34:06.285Z</time></trkpt><trkpt lat="33.8447167" lon="10.023905"><ele>56.0</ele><time>2026-04-04T20:34:07.285Z</time></trkpt><trkpt lat="33.8444583" lon="10.0240983"><ele>56.0</ele><time>2026-04-04T20:34:08.285Z</time></trkpt><trkpt lat="33.8442" lon="10.024295"><ele>55.5</ele><time>2026-04-04T20:34:09.285Z</time></trkpt><trkpt lat="33.84394" lon="10.0244917"><ele>55.0</ele><time>2026-04-04T20:34:10.286Z</time></trkpt><trkpt lat="33.8436817" lon="10.02469"><ele>56.0</ele><time>2026-04-04T20:34:11.285Z</time></trkpt><trkpt lat="33.84342" lon="10.0248883"><ele>57.0</ele><time>2026-04-04T20:34:12.285Z</time></trkpt><trkpt lat="33.84316" lon="10.025085"><ele>57.5</ele><time>2026-04-04T20:34:13.286Z</time></trkpt><trkpt lat="33.8428983" lon="10.0252817"><ele>58.0</ele><time>2026-04-04T20:34:14.285Z</time></trkpt><trkpt lat="33.8426333" lon="10.0254817"><ele>58.5</ele><time>2026-04-04T20:34:15.285Z</time></trkpt><trkpt lat="33.8423667" lon="10.0256817"><ele>59.0</ele><time>2026-04-04T20:34:16.285Z</time></trkpt><trkpt lat="33.8420967" lon="10.0258783"><ele>58.0</ele><time>2026-04-04T20:34:17.285Z</time></trkpt><trkpt lat="33.8418267" lon="10.0260767"><ele>57.0</ele><time>2026-04-04T20:34:18.285Z</time></trkpt><trkpt lat="33.84156" lon="10.026275"><ele>56.5</ele><time>2026-04-04T20:34:19.285Z</time></trkpt><trkpt lat="33.841295" lon="10.0264783"><ele>56.0</ele><time>2026-04-04T20:34:20.285Z</time></trkpt><trkpt lat="33.84103" lon="10.026685"><ele>57.0</ele><time>2026-04-04T20:34:21.285Z</time></trkpt><trkpt lat="33.8407667" lon="10.02689"><ele>58.0</ele><time>2026-04-04T20:34:22.286Z</time></trkpt><trkpt lat="33.8405017" lon="10.0270917"><ele>58.0</ele><time>2026-04-04T20:34:23.285Z</time></trkpt><trkpt lat="33.84024" lon="10.0272917"><ele>58.0</ele><time>2026-04-04T20:34:24.286Z</time></trkpt><trkpt lat="33.8399817" lon="10.0274867"><ele>56.5</ele><time>2026-04-04T20:34:25.285Z</time></trkpt><trkpt lat="33.83972" lon="10.027685"><ele>55.0</ele><time>2026-04-04T20:34:26.286Z</time></trkpt><trkpt lat="33.83946" lon="10.027885"><ele>55.0</ele><time>2026-04-04T20:34:27.285Z</time></trkpt><trkpt lat="33.8391933" lon="10.0280883"><ele>55.0</ele><time>2026-04-04T20:34:28.283Z</time></trkpt><trkpt lat="33.8389333" lon="10.0282883"><ele>55.0</ele><time>2026-04-04T20:34:29.285Z</time></trkpt><trkpt lat="33.8386717" lon="10.0284883"><ele>55.0</ele><time>2026-04-04T20:34:30.285Z</time></trkpt><trkpt lat="33.8384133" lon="10.0286883"><ele>55.0</ele><time>2026-04-04T20:34:31.286Z</time></trkpt><trkpt lat="33.8381583" lon="10.02889"><ele>55.0</ele><time>2026-04-04T20:34:32.285Z</time></trkpt><trkpt lat="33.8379067" lon="10.02909"><ele>54.5</ele><time>2026-04-04T20:34:33.285Z</time></trkpt><trkpt lat="33.837655" lon="10.0292917"><ele>54.0</ele><time>2026-04-04T20:34:34.286Z</time></trkpt><trkpt lat="33.837405" lon="10.0294933"><ele>54.0</ele><time>2026-04-04T20:34:35.285Z</time></trkpt><trkpt lat="33.8371533" lon="10.02969"><ele>54.0</ele><time>2026-04-04T20:34:36.285Z</time></trkpt><trkpt lat="33.8369017" lon="10.0298883"><ele>52.5</ele><time>2026-04-04T20:34:37.286Z</time></trkpt><trkpt lat="33.83665" lon="10.030085"><ele>51.0</ele><time>2026-04-04T20:34:38.285Z</time></trkpt><trkpt lat="33.8363933" lon="10.0302817"><ele>51.0</ele><time>2026-04-04T20:34:39.285Z</time></trkpt><trkpt lat="33.836135" lon="10.0304783"><ele>51.0</ele><time>2026-04-04T20:34:40.285Z</time></trkpt><trkpt lat="33.8358783" lon="10.0306817"><ele>51.0</ele><time>2026-04-04T20:34:41.285Z</time></trkpt><trkpt lat="33.835625" lon="10.0308867"><ele>51.0</ele><time>2026-04-04T20:34:42.285Z</time></trkpt><trkpt lat="33.8353683" lon="10.03109"><ele>49.5</ele><time>2026-04-04T20:34:43.285Z</time></trkpt><trkpt lat="33.8351133" lon="10.0312967"><ele>48.0</ele><time>2026-04-04T20:34:44.285Z</time></trkpt><trkpt lat="33.8348583" lon="10.0315033"><ele>50.0</ele><time>2026-04-04T20:34:45.285Z</time></trkpt><trkpt lat="33.8346017" lon="10.03171"><ele>52.0</ele><time>2026-04-04T20:34:46.285Z</time></trkpt><trkpt lat="33.8343433" lon="10.03192"><ele>53.0</ele><time>2026-04-04T20:34:47.285Z</time></trkpt><trkpt lat="33.8340817" lon="10.03213"><ele>54.0</ele><time>2026-04-04T20:34:48.285Z</time></trkpt><trkpt lat="33.833815" lon="10.03234"><ele>54.5</ele><time>2026-04-04T20:34:49.285Z</time></trkpt><trkpt lat="33.833545" lon="10.0325533"><ele>55.0</ele><time>2026-04-04T20:34:50.285Z</time></trkpt><trkpt lat="33.8332767" lon="10.0327683"><ele>55.0</ele><time>2026-04-04T20:34:51.286Z</time></trkpt><trkpt lat="33.8330083" lon="10.03298"><ele>55.0</ele><time>2026-04-04T20:34:52.285Z</time></trkpt><trkpt lat="33.832745" lon="10.03319"><ele>55.5</ele><time>2026-04-04T20:34:53.286Z</time></trkpt><trkpt lat="33.8324867" lon="10.0334"><ele>56.0</ele><time>2026-04-04T20:34:54.286Z</time></trkpt><trkpt lat="33.8322317" lon="10.0336083"><ele>56.0</ele><time>2026-04-04T20:34:55.286Z</time></trkpt><trkpt lat="33.83198" lon="10.0338167"><ele>56.0</ele><time>2026-04-04T20:34:56.285Z</time></trkpt><trkpt lat="33.8317283" lon="10.0340133"><ele>59.0</ele><time>2026-04-04T20:34:57.286Z</time></trkpt><trkpt lat="33.8314783" lon="10.0342117"><ele>62.0</ele><time>2026-04-04T20:34:58.286Z</time></trkpt><trkpt lat="33.8312267" lon="10.03441"><ele>62.0</ele><time>2026-04-04T20:34:59.285Z</time></trkpt><trkpt lat="33.8309767" lon="10.0346067"><ele>62.0</ele><time>2026-04-04T20:35:00.286Z</time></trkpt><trkpt lat="33.83073" lon="10.034805"><ele>62.0</ele><time>2026-04-04T20:35:01.285Z</time></trkpt><trkpt lat="33.8304833" lon="10.035005"><ele>62.0</ele><time>2026-04-04T20:35:02.285Z</time></trkpt><trkpt lat="33.8302333" lon="10.0352067"><ele>62.0</ele><time>2026-04-04T20:35:03.286Z</time></trkpt><trkpt lat="33.82998" lon="10.0354133"><ele>62.0</ele><time>2026-04-04T20:35:04.285Z</time></trkpt><trkpt lat="33.8297267" lon="10.03562"><ele>62.0</ele><time>2026-04-04T20:35:05.286Z</time></trkpt><trkpt lat="33.8294683" lon="10.03583"><ele>62.0</ele><time>2026-04-04T20:35:06.285Z</time></trkpt><trkpt lat="33.8292083" lon="10.0360383"><ele>62.0</ele><time>2026-04-04T20:35:07.285Z</time></trkpt><trkpt lat="33.828945" lon="10.0362483"><ele>62.0</ele><time>2026-04-04T20:35:08.286Z</time></trkpt><trkpt lat="33.8286817" lon="10.0364567"><ele>64.0</ele><time>2026-04-04T20:35:09.285Z</time></trkpt><trkpt lat="33.828415" lon="10.0366667"><ele>66.0</ele><time>2026-04-04T20:35:10.285Z</time></trkpt><trkpt lat="33.8281483" lon="10.0368817"><ele>66.0</ele><time>2026-04-04T20:35:11.285Z</time></trkpt><trkpt lat="33.8278783" lon="10.0370983"><ele>66.0</ele><time>2026-04-04T20:35:12.286Z</time></trkpt><trkpt lat="33.8276083" lon="10.0373183"><ele>67.5</ele><time>2026-04-04T20:35:13.287Z</time></trkpt><trkpt lat="33.8273367" lon="10.0375367"><ele>69.0</ele><time>2026-04-04T20:35:14.286Z</time></trkpt><trkpt lat="33.827065" lon="10.037755"><ele>69.0</ele><time>2026-04-04T20:35:15.285Z</time></trkpt><trkpt lat="33.8267933" lon="10.03797"><ele>69.0</ele><time>2026-04-04T20:35:16.285Z</time></trkpt><trkpt lat="33.8265283" lon="10.03818"><ele>69.0</ele><time>2026-04-04T20:35:17.285Z</time></trkpt><trkpt lat="33.8262717" lon="10.0383867"><ele>69.0</ele><time>2026-04-04T20:35:18.286Z</time></trkpt><trkpt lat="33.82602" lon="10.0385917"><ele>69.0</ele><time>2026-04-04T20:35:19.285Z</time></trkpt><trkpt lat="33.8257667" lon="10.0387983"><ele>69.0</ele><time>2026-04-04T20:35:20.286Z</time></trkpt><trkpt lat="33.8255117" lon="10.0390083"><ele>68.5</ele><time>2026-04-04T20:35:21.286Z</time></trkpt><trkpt lat="33.825255" lon="10.0392183"><ele>68.0</ele><time>2026-04-04T20:35:22.286Z</time></trkpt><trkpt lat="33.8250017" lon="10.039425"><ele>68.0</ele><time>2026-04-04T20:35:23.285Z</time></trkpt><trkpt lat="33.82475" lon="10.0396317"><ele>68.0</ele><time>2026-04-04T20:35:24.285Z</time></trkpt><trkpt lat="33.8244983" lon="10.0398317"><ele>70.0</ele><time>2026-04-04T20:35:25.285Z</time></trkpt><trkpt lat="33.8242533" lon="10.0400283"><ele>72.0</ele><time>2026-04-04T20:35:26.285Z</time></trkpt><trkpt lat="33.8240167" lon="10.0402167"><ele>72.0</ele><time>2026-04-04T20:35:27.285Z</time></trkpt><trkpt lat="33.82379" lon="10.0403933"><ele>72.0</ele><time>2026-04-04T20:35:28.285Z</time></trkpt><trkpt lat="33.8235733" lon="10.0405617"><ele>71.5</ele><time>2026-04-04T20:35:29.287Z</time></trkpt><trkpt lat="33.82337" lon="10.04072"><ele>71.0</ele><time>2026-04-04T20:35:30.286Z</time></trkpt><trkpt lat="33.8231767" lon="10.0408767"><ele>70.66666666666667</ele><time>2026-04-04T20:35:31.285Z</time></trkpt><trkpt lat="33.8229917" lon="10.04103"><ele>70.33333333333333</ele><time>2026-04-04T20:35:32.285Z</time></trkpt><trkpt lat="33.8228133" lon="10.041175"><ele>70.0</ele><time>2026-04-04T20:35:33.283Z</time></trkpt><trkpt lat="33.8226433" lon="10.04131"><ele>70.33333333333333</ele><time>2026-04-04T20:35:34.282Z</time></trkpt><trkpt lat="33.8224767" lon="10.0414367"><ele>70.66666666666667</ele><time>2026-04-04T20:35:35.283Z</time></trkpt><trkpt lat="33.822315" lon="10.0415683"><ele>71.0</ele><time>2026-04-04T20:35:36.282Z</time></trkpt><trkpt lat="33.82215" lon="10.0417067"><ele>71.0</ele><time>2026-04-04T20:35:37.283Z</time></trkpt><trkpt lat="33.8219783" lon="10.0418567"><ele>71.0</ele><time>2026-04-04T20:35:38.282Z</time></trkpt><trkpt lat="33.821795" lon="10.0420117"><ele>71.0</ele><time>2026-04-04T20:35:39.283Z</time></trkpt><trkpt lat="33.821605" lon="10.04217"><ele>72.0</ele><time>2026-04-04T20:35:40.285Z</time></trkpt><trkpt lat="33.8214067" lon="10.04233"><ele>73.0</ele><time>2026-04-04T20:35:41.285Z</time></trkpt><trkpt lat="33.821205" lon="10.04249"><ele>73.0</ele><time>2026-04-04T20:35:42.285Z</time></trkpt><trkpt lat="33.820995" lon="10.0426517"><ele>73.0</ele><time>2026-04-04T20:35:43.285Z</time></trkpt><trkpt lat="33.8207833" lon="10.0428217"><ele>76.0</ele><time>2026-04-04T20:35:44.282Z</time></trkpt><trkpt lat="33.8205683" lon="10.0429967"><ele>79.0</ele><time>2026-04-04T20:35:45.285Z</time></trkpt><trkpt lat="33.82035" lon="10.0431767"><ele>75.0</ele><time>2026-04-04T20:35:46.286Z</time></trkpt><trkpt lat="33.82013" lon="10.0433583"><ele>71.0</ele><time>2026-04-04T20:35:47.285Z</time></trkpt><trkpt lat="33.8199083" lon="10.04354"><ele>71.0</ele><time>2026-04-04T20:35:48.286Z</time></trkpt><trkpt lat="33.8196817" lon="10.0437217"><ele>71.0</ele><time>2026-04-04T20:35:49.285Z</time></trkpt><trkpt lat="33.819455" lon="10.043905"><ele>71.5</ele><time>2026-04-04T20:35:50.285Z</time></trkpt><trkpt lat="33.8192267" lon="10.0440867"><ele>72.0</ele><time>2026-04-04T20:35:51.286Z</time></trkpt><trkpt lat="33.818995" lon="10.044265"><ele>73.0</ele><time>2026-04-04T20:35:52.286Z</time></trkpt><trkpt lat="33.8187617" lon="10.0444417"><ele>74.0</ele><time>2026-04-04T20:35:53.286Z</time></trkpt><trkpt lat="33.8185283" lon="10.04462"><ele>75.0</ele><time>2026-04-04T20:35:54.285Z</time></trkpt><trkpt lat="33.8182917" lon="10.0448017"><ele>76.0</ele><time>2026-04-04T20:35:55.285Z</time></trkpt><trkpt lat="33.818055" lon="10.04499"><ele>76.0</ele><time>2026-04-04T20:35:56.285Z</time></trkpt><trkpt lat="33.8178133" lon="10.045185"><ele>76.0</ele><time>2026-04-04T20:35:57.285Z</time></trkpt><trkpt lat="33.8175667" lon="10.0453833"><ele>76.0</ele><time>2026-04-04T20:35:58.285Z</time></trkpt><trkpt lat="33.817315" lon="10.0455833"><ele>76.0</ele><time>2026-04-04T20:35:59.285Z</time></trkpt><trkpt lat="33.8170583" lon="10.045785"><ele>75.5</ele><time>2026-04-04T20:36:00.285Z</time></trkpt><trkpt lat="33.8168" lon="10.0459917"><ele>75.0</ele><time>2026-04-04T20:36:01.286Z</time></trkpt><trkpt lat="33.8165383" lon="10.0462"><ele>75.0</ele><time>2026-04-04T20:36:02.285Z</time></trkpt><trkpt lat="33.8162733" lon="10.0464117"><ele>75.0</ele><time>2026-04-04T20:36:03.284Z</time></trkpt><trkpt lat="33.81601" lon="10.046625"><ele>74.0</ele><time>2026-04-04T20:36:04.284Z</time></trkpt><trkpt lat="33.8157433" lon="10.04684"><ele>73.0</ele><time>2026-04-04T20:36:05.284Z</time></trkpt><trkpt lat="33.815475" lon="10.0470567"><ele>73.0</ele><time>2026-04-04T20:36:06.284Z</time></trkpt><trkpt lat="33.8152033" lon="10.0472717"><ele>73.0</ele><time>2026-04-04T20:36:07.285Z</time></trkpt><trkpt lat="33.81493" lon="10.0474883"><ele>72.0</ele><time>2026-04-04T20:36:08.284Z</time></trkpt><trkpt lat="33.8146533" lon="10.0477083"><ele>71.0</ele><time>2026-04-04T20:36:09.284Z</time></trkpt><trkpt lat="33.8143767" lon="10.0479317"><ele>71.0</ele><time>2026-04-04T20:36:10.284Z</time></trkpt><trkpt lat="33.8140983" lon="10.0481583"><ele>71.0</ele><time>2026-04-04T20:36:11.285Z</time></trkpt><trkpt lat="33.8138183" lon="10.0483883"><ele>71.0</ele><time>2026-04-04T20:36:12.285Z</time></trkpt><trkpt lat="33.8135333" lon="10.048615"><ele>71.0</ele><time>2026-04-04T20:36:13.285Z</time></trkpt><trkpt lat="33.81325" lon="10.048845"><ele>70.5</ele><time>2026-04-04T20:36:14.284Z</time></trkpt><trkpt lat="33.8129667" lon="10.0490733"><ele>70.0</ele><time>2026-04-04T20:36:15.284Z</time></trkpt><trkpt lat="33.8126833" lon="10.0493017"><ele>70.5</ele><time>2026-04-04T20:36:16.284Z</time></trkpt><trkpt lat="33.8124017" lon="10.0495283"><ele>71.0</ele><time>2026-04-04T20:36:17.284Z</time></trkpt><trkpt lat="33.81212" lon="10.049755"><ele>70.0</ele><time>2026-04-04T20:36:18.284Z</time></trkpt><trkpt lat="33.81184" lon="10.0499783"><ele>69.0</ele><time>2026-04-04T20:36:19.285Z</time></trkpt><trkpt lat="33.8115583" lon="10.0502017"><ele>68.5</ele><time>2026-04-04T20:36:20.285Z</time></trkpt><trkpt lat="33.811275" lon="10.0504233"><ele>68.0</ele><time>2026-04-04T20:36:21.284Z</time></trkpt><trkpt lat="33.8109933" lon="10.0506483"><ele>68.5</ele><time>2026-04-04T20:36:22.284Z</time></trkpt><trkpt lat="33.8107117" lon="10.0508733"><ele>69.0</ele><time>2026-04-04T20:36:23.285Z</time></trkpt><trkpt lat="33.8104333" lon="10.0511017"><ele>68.5</ele><time>2026-04-04T20:36:24.287Z</time></trkpt><trkpt lat="33.8101533" lon="10.05133"><ele>68.0</ele><time>2026-04-04T20:36:25.285Z</time></trkpt><trkpt lat="33.8098717" lon="10.0515567"><ele>68.5</ele><time>2026-04-04T20:36:26.285Z</time></trkpt><trkpt lat="33.8095867" lon="10.0517867"><ele>69.0</ele><time>2026-04-04T20:36:27.285Z</time></trkpt><trkpt lat="33.8093033" lon="10.0520167"><ele>69.0</ele><time>2026-04-04T20:36:28.284Z</time></trkpt><trkpt lat="33.80903" lon="10.05224"><ele>69.0</ele><time>2026-04-04T20:36:29.285Z</time></trkpt><trkpt lat="33.8087667" lon="10.0524567"><ele>68.5</ele><time>2026-04-04T20:36:30.285Z</time></trkpt><trkpt lat="33.8085067" lon="10.0526633"><ele>68.0</ele><time>2026-04-04T20:36:31.286Z</time></trkpt><trkpt lat="33.8082533" lon="10.0528633"><ele>66.5</ele><time>2026-04-04T20:36:32.284Z</time></trkpt><trkpt lat="33.808" lon="10.0530683"><ele>65.0</ele><time>2026-04-04T20:36:33.284Z</time></trkpt><trkpt lat="33.8077417" lon="10.0532717"><ele>64.0</ele><time>2026-04-04T20:36:34.284Z</time></trkpt><trkpt lat="33.8074817" lon="10.053475"><ele>63.0</ele><time>2026-04-04T20:36:35.285Z</time></trkpt><trkpt lat="33.8072217" lon="10.05368"><ele>63.0</ele><time>2026-04-04T20:36:36.284Z</time></trkpt><trkpt lat="33.8069633" lon="10.053885"><ele>63.0</ele><time>2026-04-04T20:36:37.284Z</time></trkpt><trkpt lat="33.8067067" lon="10.0540867"><ele>61.5</ele><time>2026-04-04T20:36:38.286Z</time></trkpt><trkpt lat="33.80645" lon="10.05429"><ele>60.0</ele><time>2026-04-04T20:36:39.285Z</time></trkpt><trkpt lat="33.806195" lon="10.0544933"><ele>61.0</ele><time>2026-04-04T20:36:40.284Z</time></trkpt><trkpt lat="33.8059383" lon="10.0546983"><ele>62.0</ele><time>2026-04-04T20:36:41.285Z</time></trkpt><trkpt lat="33.80568" lon="10.054905"><ele>61.5</ele><time>2026-04-04T20:36:42.284Z</time></trkpt><trkpt lat="33.80542" lon="10.0551117"><ele>61.0</ele><time>2026-04-04T20:36:43.284Z</time></trkpt><trkpt lat="33.8051583" lon="10.0553183"><ele>61.0</ele><time>2026-04-04T20:36:44.284Z</time></trkpt><trkpt lat="33.8048967" lon="10.0555267"><ele>61.0</ele><time>2026-04-04T20:36:45.285Z</time></trkpt><trkpt lat="33.8046367" lon="10.0557417"><ele>60.5</ele><time>2026-04-04T20:36:46.284Z</time></trkpt><trkpt lat="33.8043833" lon="10.0559583"><ele>60.0</ele><time>2026-04-04T20:36:47.285Z</time></trkpt><trkpt lat="33.80414" lon="10.056175"><ele>59.0</ele><time>2026-04-04T20:36:48.286Z</time></trkpt><trkpt lat="33.8039117" lon="10.056385"><ele>58.0</ele><time>2026-04-04T20:36:49.285Z</time></trkpt><trkpt lat="33.8036983" lon="10.0565867"><ele>57.5</ele><time>2026-04-04T20:36:50.285Z</time></trkpt><trkpt lat="33.803495" lon="10.056775"><ele>57.0</ele><time>2026-04-04T20:36:51.285Z</time></trkpt><trkpt lat="33.80331" lon="10.0569533"><ele>57.0</ele><time>2026-04-04T20:36:52.286Z</time></trkpt><trkpt lat="33.80314" lon="10.0571167"><ele>57.0</ele><time>2026-04-04T20:36:53.285Z</time></trkpt><trkpt lat="33.8029833" lon="10.0572683"><ele>57.0</ele><time>2026-04-04T20:36:54.285Z</time></trkpt><trkpt lat="33.8028417" lon="10.0574067"><ele>56.75</ele><time>2026-04-04T20:36:55.285Z</time></trkpt><trkpt lat="33.8027183" lon="10.0575317"><ele>56.5</ele><time>2026-04-04T20:36:56.286Z</time></trkpt><trkpt lat="33.802605" lon="10.057645"><ele>56.25</ele><time>2026-04-04T20:36:57.285Z</time></trkpt><trkpt lat="33.8025" lon="10.0577433"><ele>56.0</ele><time>2026-04-04T20:36:58.286Z</time></trkpt><trkpt lat="33.802405" lon="10.0578333"><ele>57.199999999999996</ele><time>2026-04-04T20:36:59.285Z</time></trkpt><trkpt lat="33.802315" lon="10.0579217"><ele>58.39999999999999</ele><time>2026-04-04T20:37:00.282Z</time></trkpt><trkpt lat="33.8022317" lon="10.058"><ele>59.6</ele><time>2026-04-04T20:37:01.285Z</time></trkpt><trkpt lat="33.8021583" lon="10.0580683"><ele>60.8</ele><time>2026-04-04T20:37:02.285Z</time></trkpt><trkpt lat="33.80209" lon="10.05813"><ele>62.0</ele><time>2026-04-04T20:37:03.288Z</time></trkpt><trkpt lat="33.80203" lon="10.05819"><ele>62.00000000000001</ele><time>2026-04-04T20:37:04.285Z</time></trkpt><trkpt lat="33.8019717" lon="10.058245"><ele>62.0</ele><time>2026-04-04T20:37:05.285Z</time></trkpt><trkpt lat="33.8019133" lon="10.0582983"><ele>62.0</ele><time>2026-04-04T20:37:06.286Z</time></trkpt><trkpt lat="33.8018467" lon="10.0583533"><ele>62.0</ele><time>2026-04-04T20:37:07.285Z</time></trkpt><trkpt lat="33.801775" lon="10.0584133"><ele>62.00000000000001</ele><time>2026-04-04T20:37:08.285Z</time></trkpt><trkpt lat="33.8016983" lon="10.0584683"><ele>62.0</ele><time>2026-04-04T20:37:09.286Z</time></trkpt><trkpt lat="33.8016267" lon="10.0585133"><ele>63.0</ele><time>2026-04-04T20:37:10.285Z</time></trkpt><trkpt lat="33.801555" lon="10.0585517"><ele>64.0</ele><time>2026-04-04T20:37:11.286Z</time></trkpt><trkpt lat="33.8014733" lon="10.0585817"><ele>65.0</ele><time>2026-04-04T20:37:12.285Z</time></trkpt><trkpt lat="33.8013817" lon="10.058605"><ele>66.0</ele><time>2026-04-04T20:37:13.286Z</time></trkpt><trkpt lat="33.8012817" lon="10.0586233"><ele>67.0</ele><time>2026-04-04T20:37:14.286Z</time></trkpt><trkpt lat="33.8011683" lon="10.0586283"><ele>67.0</ele><time>2026-04-04T20:37:15.285Z</time></trkpt><trkpt lat="33.8010517" lon="10.058625"><ele>67.0</ele><time>2026-04-04T20:37:16.286Z</time></trkpt><trkpt lat="33.80093" lon="10.0586083"><ele>67.0</ele><time>2026-04-04T20:37:17.285Z</time></trkpt><trkpt lat="33.8008083" lon="10.0585883"><ele>67.0</ele><time>2026-04-04T20:37:18.285Z</time></trkpt><trkpt lat="33.8006917" lon="10.0585633"><ele>66.6</ele><time>2026-04-04T20:37:19.285Z</time></trkpt><trkpt lat="33.8005783" lon="10.0585567"><ele>66.2</ele><time>2026-04-04T20:37:20.285Z</time></trkpt><trkpt lat="33.8004667" lon="10.0585633"><ele>65.8</ele><time>2026-04-04T20:37:21.285Z</time></trkpt><trkpt lat="33.8003617" lon="10.058585"><ele>65.4</ele><time>2026-04-04T20:37:22.285Z</time></trkpt><trkpt lat="33.800265" lon="10.0586183"><ele>65.0</ele><time>2026-04-04T20:37:23.285Z</time></trkpt><trkpt lat="33.80018" lon="10.0586633"><ele>65.0</ele><time>2026-04-04T20:37:24.285Z</time></trkpt><trkpt lat="33.8001017" lon="10.0587217"><ele>65.0</ele><time>2026-04-04T20:37:25.285Z</time></trkpt><trkpt lat="33.8000283" lon="10.0587933"><ele>65.0</ele><time>2026-04-04T20:37:26.285Z</time></trkpt><trkpt lat="33.7999617" lon="10.05888"><ele>65.0</ele><time>2026-04-04T20:37:27.285Z</time></trkpt><trkpt lat="33.7999017" lon="10.0589767"><ele>65.0</ele><time>2026-04-04T20:37:28.285Z</time></trkpt><trkpt lat="33.7998533" lon="10.0590867"><ele>65.0</ele><time>2026-04-04T20:37:29.285Z</time></trkpt><trkpt lat="33.79982" lon="10.0592183"><ele>65.0</ele><time>2026-04-04T20:37:30.286Z</time></trkpt><trkpt lat="33.7998" lon="10.0593617"><ele>65.0</ele><time>2026-04-04T20:37:31.285Z</time></trkpt><trkpt lat="33.7997983" lon="10.0595183"><ele>65.0</ele><time>2026-04-04T20:37:32.285Z</time></trkpt><trkpt lat="33.7998183" lon="10.0596867"><ele>65.0</ele><time>2026-04-04T20:37:33.285Z</time></trkpt><trkpt lat="33.79986" lon="10.0598583"><ele>65.0</ele><time>2026-04-04T20:37:34.281Z</time></trkpt><trkpt lat="33.799925" lon="10.0600283"><ele>65.0</ele><time>2026-04-04T20:37:35.283Z</time></trkpt><trkpt lat="33.80001" lon="10.0602033"><ele>65.0</ele><time>2026-04-04T20:37:36.282Z</time></trkpt><trkpt lat="33.8001017" lon="10.060385"><ele>65.0</ele><time>2026-04-04T20:37:37.284Z</time></trkpt><trkpt lat="33.80019" lon="10.0605633"><ele>65.0</ele><time>2026-04-04T20:37:38.281Z</time></trkpt><trkpt lat="33.8002683" lon="10.0607317"><ele>64.75</ele><time>2026-04-04T20:37:39.284Z</time></trkpt><trkpt lat="33.800345" lon="10.0608883"><ele>64.5</ele><time>2026-04-04T20:37:40.282Z</time></trkpt><trkpt lat="33.8004133" lon="10.0610383"><ele>64.25</ele><time>2026-04-04T20:37:41.286Z</time></trkpt><trkpt lat="33.80048" lon="10.0611833"><ele>64.0</ele><time>2026-04-04T20:37:42.282Z</time></trkpt><trkpt lat="33.8005517" lon="10.0613317"><ele>64.0</ele><time>2026-04-04T20:37:43.282Z</time></trkpt><trkpt lat="33.800625" lon="10.0614883"><ele>64.0</ele><time>2026-04-04T20:37:44.282Z</time></trkpt><trkpt lat="33.8007033" lon="10.0616533"><ele>64.0</ele><time>2026-04-04T20:37:45.284Z</time></trkpt><trkpt lat="33.8007883" lon="10.061825"><ele>63.33333333333333</ele><time>2026-04-04T20:37:46.282Z</time></trkpt><trkpt lat="33.80087" lon="10.062005"><ele>62.66666666666667</ele><time>2026-04-04T20:37:47.283Z</time></trkpt><trkpt lat="33.8009533" lon="10.062185"><ele>62.0</ele><time>2026-04-04T20:37:48.282Z</time></trkpt><trkpt lat="33.801035" lon="10.0623583"><ele>61.5</ele><time>2026-04-04T20:37:49.283Z</time></trkpt><trkpt lat="33.80111" lon="10.0625233"><ele>61.0</ele><time>2026-04-04T20:37:50.282Z</time></trkpt><trkpt lat="33.8011817" lon="10.06268"><ele>60.5</ele><time>2026-04-04T20:37:51.282Z</time></trkpt><trkpt lat="33.8012467" lon="10.062825"><ele>60.0</ele><time>2026-04-04T20:37:52.282Z</time></trkpt><trkpt lat="33.8012983" lon="10.062955"><ele>60.0</ele><time>2026-04-04T20:37:53.284Z</time></trkpt><trkpt lat="33.8013433" lon="10.063075"><ele>60.0</ele><time>2026-04-04T20:37:54.282Z</time></trkpt><trkpt lat="33.8013817" lon="10.0631883"><ele>60.0</ele><time>2026-04-04T20:37:55.282Z</time></trkpt><trkpt lat="33.8014167" lon="10.063295"><ele>60.0</ele><time>2026-04-04T20:37:56.282Z</time></trkpt><trkpt lat="33.8014467" lon="10.063395"><ele>60.0</ele><time>2026-04-04T20:37:57.285Z</time></trkpt><trkpt lat="33.8014783" lon="10.0634867"><ele>60.0</ele><time>2026-04-04T20:37:58.285Z</time></trkpt><trkpt lat="33.8015083" lon="10.0635717"><ele>60.0</ele><time>2026-04-04T20:37:59.285Z</time></trkpt><trkpt lat="33.80154" lon="10.0636517"><ele>60.0</ele><time>2026-04-04T20:38:00.285Z</time></trkpt><trkpt lat="33.80157" lon="10.0637267"><ele>60.0</ele><time>2026-04-04T20:38:01.286Z</time></trkpt><trkpt lat="33.801605" lon="10.0638"><ele>60.0</ele><time>2026-04-04T20:38:02.285Z</time></trkpt><trkpt lat="33.8016367" lon="10.0638717"><ele>60.0</ele><time>2026-04-04T20:38:03.287Z</time></trkpt><trkpt lat="33.80167" lon="10.0639433"><ele>60.0</ele><time>2026-04-04T20:38:04.286Z</time></trkpt><trkpt lat="33.80171" lon="10.0640217"><ele>60.0</ele><time>2026-04-04T20:38:05.284Z</time></trkpt><trkpt lat="33.8017517" lon="10.064105"><ele>60.0</ele><time>2026-04-04T20:38:06.284Z</time></trkpt><trkpt lat="33.8017917" lon="10.06419"><ele>60.0</ele><time>2026-04-04T20:38:07.284Z</time></trkpt><trkpt lat="33.8018267" lon="10.0642683"><ele>60.0</ele><time>2026-04-04T20:38:08.283Z</time></trkpt><trkpt lat="33.8018633" lon="10.0643467"><ele>60.0</ele><time>2026-04-04T20:38:09.284Z</time></trkpt><trkpt lat="33.8019" lon="10.0644267"><ele>60.0</ele><time>2026-04-04T20:38:10.284Z</time></trkpt><trkpt lat="33.8019383" lon="10.0645067"><ele>59.5</ele><time>2026-04-04T20:38:11.285Z</time></trkpt><trkpt lat="33.8019767" lon="10.064585"><ele>59.0</ele><time>2026-04-04T20:38:12.284Z</time></trkpt><trkpt lat="33.80202" lon="10.0646667"><ele>58.5</ele><time>2026-04-04T20:38:13.285Z</time></trkpt><trkpt lat="33.80207" lon="10.064755"><ele>58.0</ele><time>2026-04-04T20:38:14.283Z</time></trkpt><trkpt lat="33.8021233" lon="10.0648517"><ele>57.5</ele><time>2026-04-04T20:38:15.285Z</time></trkpt><trkpt lat="33.8021833" lon="10.06496"><ele>57.0</ele><time>2026-04-04T20:38:16.284Z</time></trkpt><trkpt lat="33.8022467" lon="10.065075"><ele>56.5</ele><time>2026-04-04T20:38:17.285Z</time></trkpt><trkpt lat="33.8023083" lon="10.0651933"><ele>56.0</ele><time>2026-04-04T20:38:18.284Z</time></trkpt><trkpt lat="33.80237" lon="10.0653117"><ele>55.5</ele><time>2026-04-04T20:38:19.283Z</time></trkpt><trkpt lat="33.8024283" lon="10.0654283"><ele>55.0</ele><time>2026-04-04T20:38:20.283Z</time></trkpt><trkpt lat="33.802485" lon="10.0655467"><ele>55.0</ele><time>2026-04-04T20:38:21.284Z</time></trkpt><trkpt lat="33.8025433" lon="10.0656733"><ele>55.0</ele><time>2026-04-04T20:38:22.285Z</time></trkpt><trkpt lat="33.8026" lon="10.065805"><ele>55.0</ele><time>2026-04-04T20:38:23.284Z</time></trkpt><trkpt lat="33.8026533" lon="10.0659433"><ele>55.0</ele><time>2026-04-04T20:38:24.284Z</time></trkpt><trkpt lat="33.802705" lon="10.0660833"><ele>54.5</ele><time>2026-04-04T20:38:25.284Z</time></trkpt><trkpt lat="33.8027567" lon="10.0662267"><ele>54.0</ele><time>2026-04-04T20:38:26.284Z</time></trkpt><trkpt lat="33.8028017" lon="10.0663683"><ele>53.5</ele><time>2026-04-04T20:38:27.285Z</time></trkpt><trkpt lat="33.80284" lon="10.0665033"><ele>53.0</ele><time>2026-04-04T20:38:28.285Z</time></trkpt><trkpt lat="33.8028683" lon="10.06663"><ele>53.00000000000001</ele><time>2026-04-04T20:38:29.286Z</time></trkpt><trkpt lat="33.8028933" lon="10.06675"><ele>53.0</ele><time>2026-04-04T20:38:30.285Z</time></trkpt><trkpt lat="33.8029117" lon="10.0668617"><ele>53.0</ele><time>2026-04-04T20:38:31.285Z</time></trkpt><trkpt lat="33.802925" lon="10.0669683"><ele>53.0</ele><time>2026-04-04T20:38:32.287Z</time></trkpt><trkpt lat="33.802935" lon="10.0670667"><ele>53.00000000000001</ele><time>2026-04-04T20:38:33.286Z</time></trkpt><trkpt lat="33.80294" lon="10.0671617"><ele>53.0</ele><time>2026-04-04T20:38:34.283Z</time></trkpt><trkpt lat="33.8029383" lon="10.0672583"><ele>53.00000000000001</ele><time>2026-04-04T20:38:35.286Z</time></trkpt><trkpt lat="33.8029317" lon="10.0673517"><ele>53.0</ele><time>2026-04-04T20:38:36.283Z</time></trkpt><trkpt lat="33.802915" lon="10.06743"><ele>53.0</ele><time>2026-04-04T20:38:37.282Z</time></trkpt><trkpt lat="33.8028633" lon="10.06756"><ele>53.0</ele><time>2026-04-04T20:38:39.283Z</time></trkpt><trkpt lat="33.802765" lon="10.0676333"><ele>53.00000000000001</ele><time>2026-04-04T20:38:41.282Z</time></trkpt><trkpt lat="33.8027017" lon="10.0676483"><ele>53.0</ele><time>2026-04-04T20:38:42.282Z</time></trkpt><trkpt lat="33.8026267" lon="10.0676383"><ele>52.833333333333336</ele><time>2026-04-04T20:38:43.284Z</time></trkpt><trkpt lat="33.8025483" lon="10.0676183"><ele>52.66666666666667</ele><time>2026-04-04T20:38:44.282Z</time></trkpt><trkpt lat="33.8024683" lon="10.0675917"><ele>52.5</ele><time>2026-04-04T20:38:45.285Z</time></trkpt><trkpt lat="33.802385" lon="10.0675583"><ele>52.33333333333333</ele><time>2026-04-04T20:38:46.285Z</time></trkpt><trkpt lat="33.8023033" lon="10.067525"><ele>52.166666666666664</ele><time>2026-04-04T20:38:47.287Z</time></trkpt><trkpt lat="33.8022167" lon="10.06749"><ele>52.0</ele><time>2026-04-04T20:38:48.286Z</time></trkpt><trkpt lat="33.8021183" lon="10.06745"><ele>51.6</ele><time>2026-04-04T20:38:49.286Z</time></trkpt><trkpt lat="33.802015" lon="10.0674083"><ele>51.2</ele><time>2026-04-04T20:38:50.286Z</time></trkpt><trkpt lat="33.8019083" lon="10.067365"><ele>50.8</ele><time>2026-04-04T20:38:51.285Z</time></trkpt><trkpt lat="33.8018017" lon="10.0673183"><ele>50.4</ele><time>2026-04-04T20:38:52.285Z</time></trkpt><trkpt lat="33.8016967" lon="10.067275"><ele>50.0</ele><time>2026-04-04T20:38:53.286Z</time></trkpt><trkpt lat="33.801595" lon="10.0672317"><ele>50.8</ele><time>2026-04-04T20:38:54.285Z</time></trkpt><trkpt lat="33.8014983" lon="10.067185"><ele>51.6</ele><time>2026-04-04T20:38:55.285Z</time></trkpt><trkpt lat="33.8014" lon="10.067135"><ele>52.400000000000006</ele><time>2026-04-04T20:38:56.285Z</time></trkpt><trkpt lat="33.8012967" lon="10.0670833"><ele>53.2</ele><time>2026-04-04T20:38:57.285Z</time></trkpt><trkpt lat="33.8011867" lon="10.0670283"><ele>54.0</ele><time>2026-04-04T20:38:58.284Z</time></trkpt><trkpt lat="33.8010683" lon="10.0669717"><ele>53.75</ele><time>2026-04-04T20:38:59.284Z</time></trkpt><trkpt lat="33.8009467" lon="10.066915"><ele>53.5</ele><time>2026-04-04T20:39:00.284Z</time></trkpt><trkpt lat="33.8008233" lon="10.0668517"><ele>53.25</ele><time>2026-04-04T20:39:01.284Z</time></trkpt><trkpt lat="33.8007083" lon="10.066785"><ele>53.0</ele><time>2026-04-04T20:39:02.281Z</time></trkpt><trkpt lat="33.8006017" lon="10.066715"><ele>53.0</ele><time>2026-04-04T20:39:03.282Z</time></trkpt><trkpt lat="33.8004967" lon="10.0666467"><ele>53.0</ele><time>2026-04-04T20:39:04.283Z</time></trkpt><trkpt lat="33.800395" lon="10.0665783"><ele>53.0</ele><time>2026-04-04T20:39:05.282Z</time></trkpt><trkpt lat="33.800295" lon="10.0665133"><ele>53.0</ele><time>2026-04-04T20:39:06.284Z</time></trkpt><trkpt lat="33.80019" lon="10.066445"><ele>53.5</ele><time>2026-04-04T20:39:07.282Z</time></trkpt><trkpt lat="33.8000767" lon="10.0663733"><ele>54.0</ele><time>2026-04-04T20:39:08.283Z</time></trkpt><trkpt lat="33.7999567" lon="10.066295"><ele>54.5</ele><time>2026-04-04T20:39:09.282Z</time></trkpt><trkpt lat="33.79983" lon="10.06621"><ele>55.0</ele><time>2026-04-04T20:39:10.283Z</time></trkpt><trkpt lat="33.7996983" lon="10.0661217"><ele>55.0</ele><time>2026-04-04T20:39:11.282Z</time></trkpt><trkpt lat="33.79956" lon="10.0660317"><ele>55.0</ele><time>2026-04-04T20:39:12.283Z</time></trkpt><trkpt lat="33.7994183" lon="10.06594"><ele>55.0</ele><time>2026-04-04T20:39:13.282Z</time></trkpt><trkpt lat="33.7992717" lon="10.0658433"><ele>55.0</ele><time>2026-04-04T20:39:14.281Z</time></trkpt><trkpt lat="33.7991183" lon="10.0657417"><ele>55.0</ele><time>2026-04-04T20:39:15.284Z</time></trkpt><trkpt lat="33.79896" lon="10.0656367"><ele>55.0</ele><time>2026-04-04T20:39:16.284Z</time></trkpt><trkpt lat="33.7988" lon="10.0655317"><ele>55.0</ele><time>2026-04-04T20:39:17.285Z</time></trkpt><trkpt lat="33.7986367" lon="10.065425"><ele>55.0</ele><time>2026-04-04T20:39:18.283Z</time></trkpt><trkpt lat="33.7984733" lon="10.06532"><ele>55.0</ele><time>2026-04-04T20:39:19.287Z</time></trkpt><trkpt lat="33.7983133" lon="10.065215"><ele>55.0</ele><time>2026-04-04T20:39:20.281Z</time></trkpt><trkpt lat="33.7981533" lon="10.06511"><ele>55.0</ele><time>2026-04-04T20:39:21.285Z</time></trkpt><trkpt lat="33.797995" lon="10.0650083"><ele>55.0</ele><time>2026-04-04T20:39:22.284Z</time></trkpt><trkpt lat="33.7978367" lon="10.0649067"><ele>55.0</ele><time>2026-04-04T20:39:23.286Z</time></trkpt><trkpt lat="33.7976833" lon="10.0648033"><ele>55.0</ele><time>2026-04-04T20:39:24.284Z</time></trkpt><trkpt lat="33.7975283" lon="10.0647033"><ele>55.0</ele><time>2026-04-04T20:39:25.285Z</time></trkpt><trkpt lat="33.797375" lon="10.0645983"><ele>55.0</ele><time>2026-04-04T20:39:26.284Z</time></trkpt><trkpt lat="33.7972183" lon="10.064495"><ele>55.0</ele><time>2026-04-04T20:39:27.284Z</time></trkpt><trkpt lat="33.7970617" lon="10.0643917"><ele>55.0</ele><time>2026-04-04T20:39:28.284Z</time></trkpt><trkpt lat="33.7969033" lon="10.0642867"><ele>56.33333333333333</ele><time>2026-04-04T20:39:29.286Z</time></trkpt><trkpt lat="33.7967467" lon="10.06418"><ele>57.66666666666667</ele><time>2026-04-04T20:39:30.285Z</time></trkpt><trkpt lat="33.7965867" lon="10.06407"><ele>59.0</ele><time>2026-04-04T20:39:31.285Z</time></trkpt><trkpt lat="33.796425" lon="10.0639617"><ele>59.0</ele><time>2026-04-04T20:39:32.284Z</time></trkpt><trkpt lat="33.79626" lon="10.0638517"><ele>59.0</ele><time>2026-04-04T20:39:33.282Z</time></trkpt><trkpt lat="33.796095" lon="10.0637417"><ele>59.0</ele><time>2026-04-04T20:39:34.282Z</time></trkpt><trkpt lat="33.79593" lon="10.0636267"><ele>59.333333333333336</ele><time>2026-04-04T20:39:35.282Z</time></trkpt><trkpt lat="33.7957633" lon="10.0635133"><ele>59.66666666666667</ele><time>2026-04-04T20:39:36.284Z</time></trkpt><trkpt lat="33.7955983" lon="10.0634017"><ele>60.0</ele><time>2026-04-04T20:39:37.281Z</time></trkpt><trkpt lat="33.7954317" lon="10.06329"><ele>60.0</ele><time>2026-04-04T20:39:38.281Z</time></trkpt><trkpt lat="33.7952683" lon="10.06318"><ele>60.0</ele><time>2026-04-04T20:39:39.282Z</time></trkpt><trkpt lat="33.7951033" lon="10.06307"><ele>60.0</ele><time>2026-04-04T20:39:40.285Z</time></trkpt><trkpt lat="33.7949383" lon="10.0629617"><ele>59.33333333333333</ele><time>2026-04-04T20:39:41.284Z</time></trkpt><trkpt lat="33.7947733" lon="10.0628533"><ele>58.666666666666664</ele><time>2026-04-04T20:39:42.284Z</time></trkpt><trkpt lat="33.7946083" lon="10.06274"><ele>58.0</ele><time>2026-04-04T20:39:43.284Z</time></trkpt><trkpt lat="33.794445" lon="10.0626267"><ele>58.666666666666664</ele><time>2026-04-04T20:39:44.284Z</time></trkpt><trkpt lat="33.7942817" lon="10.06251"><ele>59.33333333333333</ele><time>2026-04-04T20:39:45.287Z</time></trkpt><trkpt lat="33.7941183" lon="10.0623933"><ele>60.0</ele><time>2026-04-04T20:39:46.282Z</time></trkpt><trkpt lat="33.7939517" lon="10.0622783"><ele>60.0</ele><time>2026-04-04T20:39:47.286Z</time></trkpt><trkpt lat="33.793785" lon="10.0621633"><ele>60.0</ele><time>2026-04-04T20:39:48.282Z</time></trkpt><trkpt lat="33.7936167" lon="10.062045"><ele>60.0</ele><time>2026-04-04T20:39:49.284Z</time></trkpt><trkpt lat="33.7934467" lon="10.06193"><ele>60.66666666666667</ele><time>2026-04-04T20:39:50.285Z</time></trkpt><trkpt lat="33.7932767" lon="10.0618167"><ele>61.333333333333336</ele><time>2026-04-04T20:39:51.285Z</time></trkpt><trkpt lat="33.793105" lon="10.061705"><ele>62.0</ele><time>2026-04-04T20:39:52.286Z</time></trkpt><trkpt lat="33.7929317" lon="10.0615933"><ele>62.333333333333336</ele><time>2026-04-04T20:39:53.285Z</time></trkpt><trkpt lat="33.7927567" lon="10.0614783"><ele>62.66666666666667</ele><time>2026-04-04T20:39:54.285Z</time></trkpt><trkpt lat="33.7925817" lon="10.06136"><ele>63.0</ele><time>2026-04-04T20:39:55.285Z</time></trkpt><trkpt lat="33.792405" lon="10.06124"><ele>61.66666666666667</ele><time>2026-04-04T20:39:56.285Z</time></trkpt><trkpt lat="33.792225" lon="10.06112"><ele>60.333333333333336</ele><time>2026-04-04T20:39:57.283Z</time></trkpt><trkpt lat="33.792045" lon="10.0609967"><ele>59.0</ele><time>2026-04-04T20:39:58.285Z</time></trkpt><trkpt lat="33.7918633" lon="10.0608717"><ele>58.66666666666667</ele><time>2026-04-04T20:39:59.285Z</time></trkpt><trkpt lat="33.7916767" lon="10.0607467"><ele>58.33333333333333</ele><time>2026-04-04T20:40:00.285Z</time></trkpt><trkpt lat="33.7914933" lon="10.06062"><ele>58.0</ele><time>2026-04-04T20:40:01.286Z</time></trkpt><trkpt lat="33.7913117" lon="10.0604917"><ele>58.0</ele><time>2026-04-04T20:40:02.286Z</time></trkpt><trkpt lat="33.7911317" lon="10.0603683"><ele>58.0</ele><time>2026-04-04T20:40:03.282Z</time></trkpt><trkpt lat="33.7909533" lon="10.0602483"><ele>58.0</ele><time>2026-04-04T20:40:04.283Z</time></trkpt><trkpt lat="33.7907783" lon="10.0601317"><ele>57.666666666666664</ele><time>2026-04-04T20:40:05.283Z</time></trkpt><trkpt lat="33.7906067" lon="10.0600183"><ele>57.33333333333333</ele><time>2026-04-04T20:40:06.283Z</time></trkpt><trkpt lat="33.790435" lon="10.0599033"><ele>57.0</ele><time>2026-04-04T20:40:07.285Z</time></trkpt><trkpt lat="33.790265" lon="10.0597867"><ele>57.33333333333333</ele><time>2026-04-04T20:40:08.283Z</time></trkpt><trkpt lat="33.7900883" lon="10.0596667"><ele>57.666666666666664</ele><time>2026-04-04T20:40:09.284Z</time></trkpt><trkpt lat="33.78991" lon="10.059545"><ele>58.0</ele><time>2026-04-04T20:40:10.285Z</time></trkpt><trkpt lat="33.789735" lon="10.0594233"><ele>58.0</ele><time>2026-04-04T20:40:11.285Z</time></trkpt><trkpt lat="33.78956" lon="10.0593067"><ele>58.0</ele><time>2026-04-04T20:40:12.285Z</time></trkpt><trkpt lat="33.789385" lon="10.0591883"><ele>58.0</ele><time>2026-04-04T20:40:13.285Z</time></trkpt><trkpt lat="33.7892067" lon="10.05907"><ele>58.0</ele><time>2026-04-04T20:40:14.285Z</time></trkpt><trkpt lat="33.7890233" lon="10.0589483"><ele>58.0</ele><time>2026-04-04T20:40:15.285Z</time></trkpt><trkpt lat="33.7888317" lon="10.0588267"><ele>58.0</ele><time>2026-04-04T20:40:16.286Z</time></trkpt><trkpt lat="33.7886367" lon="10.0587017"><ele>57.33333333333333</ele><time>2026-04-04T20:40:17.285Z</time></trkpt><trkpt lat="33.7884383" lon="10.058575"><ele>56.66666666666667</ele><time>2026-04-04T20:40:18.282Z</time></trkpt><trkpt lat="33.7882433" lon="10.05845"><ele>56.0</ele><time>2026-04-04T20:40:19.285Z</time></trkpt><trkpt lat="33.7880517" lon="10.0583267"><ele>56.0</ele><time>2026-04-04T20:40:20.286Z</time></trkpt><trkpt lat="33.7878617" lon="10.058205"><ele>56.0</ele><time>2026-04-04T20:40:21.285Z</time></trkpt><trkpt lat="33.7876767" lon="10.0580867"><ele>56.0</ele><time>2026-04-04T20:40:22.286Z</time></trkpt><trkpt lat="33.787495" lon="10.0579683"><ele>57.0</ele><time>2026-04-04T20:40:23.285Z</time></trkpt><trkpt lat="33.7873167" lon="10.05785"><ele>58.0</ele><time>2026-04-04T20:40:24.285Z</time></trkpt><trkpt lat="33.78714" lon="10.05773"><ele>59.0</ele><time>2026-04-04T20:40:25.285Z</time></trkpt><trkpt lat="33.7869683" lon="10.0576067"><ele>59.333333333333336</ele><time>2026-04-04T20:40:26.286Z</time></trkpt><trkpt lat="33.7868" lon="10.05748"><ele>59.66666666666667</ele><time>2026-04-04T20:40:27.285Z</time></trkpt><trkpt lat="33.7866367" lon="10.0573517"><ele>60.0</ele><time>2026-04-04T20:40:28.285Z</time></trkpt><trkpt lat="33.78648" lon="10.0572167"><ele>60.0</ele><time>2026-04-04T20:40:29.285Z</time></trkpt><trkpt lat="33.7863283" lon="10.0570817"><ele>60.0</ele><time>2026-04-04T20:40:30.285Z</time></trkpt><trkpt lat="33.7861767" lon="10.0569467"><ele>60.0</ele><time>2026-04-04T20:40:31.285Z</time></trkpt><trkpt lat="33.786025" lon="10.0568133"><ele>60.66666666666667</ele><time>2026-04-04T20:40:32.285Z</time></trkpt><trkpt lat="33.785875" lon="10.0566817"><ele>61.333333333333336</ele><time>2026-04-04T20:40:33.285Z</time></trkpt><trkpt lat="33.7857267" lon="10.05655"><ele>62.0</ele><time>2026-04-04T20:40:34.285Z</time></trkpt><trkpt lat="33.7855783" lon="10.0564167"><ele>62.333333333333336</ele><time>2026-04-04T20:40:35.286Z</time></trkpt><trkpt lat="33.7854283" lon="10.0562867"><ele>62.66666666666667</ele><time>2026-04-04T20:40:36.286Z</time></trkpt><trkpt lat="33.78528" lon="10.056155"><ele>63.0</ele><time>2026-04-04T20:40:37.283Z</time></trkpt><trkpt lat="33.78513" lon="10.0560217"><ele>63.66666666666667</ele><time>2026-04-04T20:40:38.285Z</time></trkpt><trkpt lat="33.7849817" lon="10.0558867"><ele>64.33333333333334</ele><time>2026-04-04T20:40:39.285Z</time></trkpt><trkpt lat="33.7848333" lon="10.0557533"><ele>65.0</ele><time>2026-04-04T20:40:40.285Z</time></trkpt><trkpt lat="33.7846867" lon="10.0556183"><ele>65.0</ele><time>2026-04-04T20:40:41.285Z</time></trkpt><trkpt lat="33.7845383" lon="10.0554833"><ele>65.0</ele><time>2026-04-04T20:40:42.286Z</time></trkpt><trkpt lat="33.7843933" lon="10.0553483"><ele>65.0</ele><time>2026-04-04T20:40:43.285Z</time></trkpt><trkpt lat="33.784255" lon="10.0552167"><ele>65.0</ele><time>2026-04-04T20:40:44.285Z</time></trkpt><trkpt lat="33.78413" lon="10.055085"><ele>65.0</ele><time>2026-04-04T20:40:45.285Z</time></trkpt><trkpt lat="33.78401" lon="10.0549533"><ele>65.0</ele><time>2026-04-04T20:40:46.285Z</time></trkpt><trkpt lat="33.7838933" lon="10.0548167"><ele>65.0</ele><time>2026-04-04T20:40:47.285Z</time></trkpt><trkpt lat="33.7837783" lon="10.054675"><ele>65.0</ele><time>2026-04-04T20:40:48.285Z</time></trkpt><trkpt lat="33.7836683" lon="10.0545317"><ele>65.0</ele><time>2026-04-04T20:40:49.285Z</time></trkpt><trkpt lat="33.7835667" lon="10.0543833"><ele>65.0</ele><time>2026-04-04T20:40:50.287Z</time></trkpt><trkpt lat="33.7834683" lon="10.05423"><ele>65.0</ele><time>2026-04-04T20:40:51.285Z</time></trkpt><trkpt lat="33.7833667" lon="10.0540767"><ele>65.0</ele><time>2026-04-04T20:40:52.285Z</time></trkpt><trkpt lat="33.78326" lon="10.0539217"><ele>65.33333333333334</ele><time>2026-04-04T20:40:53.285Z</time></trkpt><trkpt lat="33.78315" lon="10.053765"><ele>65.66666666666667</ele><time>2026-04-04T20:40:54.285Z</time></trkpt><trkpt lat="33.7830317" lon="10.0536133"><ele>66.0</ele><time>2026-04-04T20:40:55.285Z</time></trkpt><trkpt lat="33.7829067" lon="10.0534617"><ele>66.0</ele><time>2026-04-04T20:40:56.285Z</time></trkpt><trkpt lat="33.7827717" lon="10.0533183"><ele>66.0</ele><time>2026-04-04T20:40:57.286Z</time></trkpt><trkpt lat="33.7826283" lon="10.0531767"><ele>66.0</ele><time>2026-04-04T20:40:58.286Z</time></trkpt><trkpt lat="33.78248" lon="10.05304"><ele>66.33333333333333</ele><time>2026-04-04T20:40:59.285Z</time></trkpt><trkpt lat="33.782325" lon="10.052905"><ele>66.66666666666666</ele><time>2026-04-04T20:41:00.285Z</time></trkpt><trkpt lat="33.782165" lon="10.0527767"><ele>67.0</ele><time>2026-04-04T20:41:01.285Z</time></trkpt><trkpt lat="33.782" lon="10.0526533"><ele>66.66666666666666</ele><time>2026-04-04T20:41:02.285Z</time></trkpt><trkpt lat="33.7818333" lon="10.0525333"><ele>66.33333333333333</ele><time>2026-04-04T20:41:03.285Z</time></trkpt><trkpt lat="33.7816633" lon="10.0524133"><ele>66.0</ele><time>2026-04-04T20:41:04.285Z</time></trkpt><trkpt lat="33.78149" lon="10.052295"><ele>66.0</ele><time>2026-04-04T20:41:05.285Z</time></trkpt><trkpt lat="33.7813167" lon="10.0521767"><ele>66.0</ele><time>2026-04-04T20:41:06.286Z</time></trkpt><trkpt lat="33.78114" lon="10.05206"><ele>66.0</ele><time>2026-04-04T20:41:07.286Z</time></trkpt><trkpt lat="33.7809617" lon="10.0519417"><ele>66.0</ele><time>2026-04-04T20:41:08.286Z</time></trkpt><trkpt lat="33.7807867" lon="10.0518217"><ele>66.0</ele><time>2026-04-04T20:41:09.285Z</time></trkpt><trkpt lat="33.780615" lon="10.0517"><ele>66.0</ele><time>2026-04-04T20:41:10.285Z</time></trkpt><trkpt lat="33.7804367" lon="10.05158"><ele>66.0</ele><time>2026-04-04T20:41:11.285Z</time></trkpt><trkpt lat="33.7802617" lon="10.0514617"><ele>66.0</ele><time>2026-04-04T20:41:12.286Z</time></trkpt><trkpt lat="33.78009" lon="10.051345"><ele>66.0</ele><time>2026-04-04T20:41:13.285Z</time></trkpt><trkpt lat="33.7799217" lon="10.0512283"><ele>66.0</ele><time>2026-04-04T20:41:14.285Z</time></trkpt><trkpt lat="33.7797567" lon="10.0511133"><ele>66.0</ele><time>2026-04-04T20:41:15.285Z</time></trkpt><trkpt lat="33.7795917" lon="10.0509983"><ele>66.0</ele><time>2026-04-04T20:41:16.283Z</time></trkpt><trkpt lat="33.7794267" lon="10.0508833"><ele>66.66666666666667</ele><time>2026-04-04T20:41:17.285Z</time></trkpt><trkpt lat="33.7792633" lon="10.0507683"><ele>67.33333333333334</ele><time>2026-04-04T20:41:18.286Z</time></trkpt><trkpt lat="33.7791" lon="10.0506533"><ele>68.0</ele><time>2026-04-04T20:41:19.285Z</time></trkpt><trkpt lat="33.778935" lon="10.0505367"><ele>68.0</ele><time>2026-04-04T20:41:20.285Z</time></trkpt><trkpt lat="33.7787683" lon="10.0504167"><ele>68.0</ele><time>2026-04-04T20:41:21.285Z</time></trkpt><trkpt lat="33.778595" lon="10.0502967"><ele>68.0</ele><time>2026-04-04T20:41:22.285Z</time></trkpt><trkpt lat="33.77842" lon="10.0501767"><ele>68.0</ele><time>2026-04-04T20:41:23.286Z</time></trkpt><trkpt lat="33.7782467" lon="10.0500583"><ele>68.0</ele><time>2026-04-04T20:41:24.284Z</time></trkpt><trkpt lat="33.77807" lon="10.049935"><ele>68.0</ele><time>2026-04-04T20:41:25.287Z</time></trkpt><trkpt lat="33.7778933" lon="10.04981"><ele>68.0</ele><time>2026-04-04T20:41:26.283Z</time></trkpt><trkpt lat="33.7777183" lon="10.049685"><ele>68.0</ele><time>2026-04-04T20:41:27.285Z</time></trkpt><trkpt lat="33.7775433" lon="10.0495583"><ele>68.0</ele><time>2026-04-04T20:41:28.285Z</time></trkpt><trkpt lat="33.7773667" lon="10.0494317"><ele>68.0</ele><time>2026-04-04T20:41:29.285Z</time></trkpt><trkpt lat="33.77719" lon="10.049305"><ele>68.0</ele><time>2026-04-04T20:41:30.287Z</time></trkpt><trkpt lat="33.777015" lon="10.04918"><ele>68.0</ele><time>2026-04-04T20:41:31.285Z</time></trkpt><trkpt lat="33.77684" lon="10.049055"><ele>68.0</ele><time>2026-04-04T20:41:32.285Z</time></trkpt><trkpt lat="33.7766617" lon="10.04893"><ele>68.0</ele><time>2026-04-04T20:41:33.286Z</time></trkpt><trkpt lat="33.776485" lon="10.0488"><ele>68.0</ele><time>2026-04-04T20:41:34.285Z</time></trkpt><trkpt lat="33.7763083" lon="10.0486667"><ele>68.0</ele><time>2026-04-04T20:41:35.286Z</time></trkpt><trkpt lat="33.7761333" lon="10.04853"><ele>68.0</ele><time>2026-04-04T20:41:36.285Z</time></trkpt><trkpt lat="33.77596" lon="10.0483883"><ele>68.0</ele><time>2026-04-04T20:41:37.285Z</time></trkpt><trkpt lat="33.7757883" lon="10.0482433"><ele>68.33333333333334</ele><time>2026-04-04T20:41:38.285Z</time></trkpt><trkpt lat="33.7756167" lon="10.0480983"><ele>68.66666666666667</ele><time>2026-04-04T20:41:39.285Z</time></trkpt><trkpt lat="33.7754433" lon="10.04795"><ele>69.0</ele><time>2026-04-04T20:41:40.285Z</time></trkpt><trkpt lat="33.77527" lon="10.0478017"><ele>69.0</ele><time>2026-04-04T20:41:41.285Z</time></trkpt><trkpt lat="33.7750967" lon="10.0476517"><ele>69.0</ele><time>2026-04-04T20:41:42.286Z</time></trkpt><trkpt lat="33.7749233" lon="10.0474983"><ele>69.0</ele><time>2026-04-04T20:41:43.285Z</time></trkpt><trkpt lat="33.7747467" lon="10.047345"><ele>69.0</ele><time>2026-04-04T20:41:44.283Z</time></trkpt><trkpt lat="33.77457" lon="10.0471883"><ele>69.0</ele><time>2026-04-04T20:41:45.283Z</time></trkpt><trkpt lat="33.7743917" lon="10.0470317"><ele>69.0</ele><time>2026-04-04T20:41:46.285Z</time></trkpt><trkpt lat="33.77421" lon="10.0468767"><ele>69.0</ele><time>2026-04-04T20:41:47.286Z</time></trkpt><trkpt lat="33.77403" lon="10.0467233"><ele>69.0</ele><time>2026-04-04T20:41:48.285Z</time></trkpt><trkpt lat="33.7738483" lon="10.0465683"><ele>69.0</ele><time>2026-04-04T20:41:49.286Z</time></trkpt><trkpt lat="33.7736583" lon="10.0464133"><ele>69.0</ele><time>2026-04-04T20:41:50.285Z</time></trkpt><trkpt lat="33.7734733" lon="10.04626"><ele>69.0</ele><time>2026-04-04T20:41:51.286Z</time></trkpt><trkpt lat="33.7732983" lon="10.0461133"><ele>69.0</ele><time>2026-04-04T20:41:52.285Z</time></trkpt><trkpt lat="33.77313" lon="10.04597"><ele>69.0</ele><time>2026-04-04T20:41:53.285Z</time></trkpt><trkpt lat="33.77295" lon="10.0458283"><ele>69.0</ele><time>2026-04-04T20:41:54.285Z</time></trkpt><trkpt lat="33.7727633" lon="10.045685"><ele>69.0</ele><time>2026-04-04T20:41:55.285Z</time></trkpt><trkpt lat="33.7725667" lon="10.0455433"><ele>70.0</ele><time>2026-04-04T20:41:56.284Z</time></trkpt><trkpt lat="33.7723667" lon="10.0454"><ele>71.0</ele><time>2026-04-04T20:41:57.284Z</time></trkpt><trkpt lat="33.7721583" lon="10.0452583"><ele>71.0</ele><time>2026-04-04T20:41:58.285Z</time></trkpt><trkpt lat="33.7719467" lon="10.04512"><ele>71.0</ele><time>2026-04-04T20:41:59.285Z</time></trkpt><trkpt lat="33.7717283" lon="10.0449867"><ele>71.5</ele><time>2026-04-04T20:42:00.284Z</time></trkpt><trkpt lat="33.7715117" lon="10.0448467"><ele>72.0</ele><time>2026-04-04T20:42:01.286Z</time></trkpt><trkpt lat="33.7712967" lon="10.0447083"><ele>72.0</ele><time>2026-04-04T20:42:02.287Z</time></trkpt><trkpt lat="33.7710883" lon="10.0445733"><ele>72.0</ele><time>2026-04-04T20:42:03.284Z</time></trkpt><trkpt lat="33.7708817" lon="10.0444417"><ele>70.5</ele><time>2026-04-04T20:42:04.284Z</time></trkpt><trkpt lat="33.7706767" lon="10.0443083"><ele>69.0</ele><time>2026-04-04T20:42:05.284Z</time></trkpt><trkpt lat="33.7704683" lon="10.0441717"><ele>70.0</ele><time>2026-04-04T20:42:06.284Z</time></trkpt><trkpt lat="33.770255" lon="10.0440333"><ele>71.0</ele><time>2026-04-04T20:42:07.285Z</time></trkpt><trkpt lat="33.7700383" lon="10.04389"><ele>68.0</ele><time>2026-04-04T20:42:08.285Z</time></trkpt><trkpt lat="33.7698183" lon="10.0437467"><ele>65.0</ele><time>2026-04-04T20:42:09.284Z</time></trkpt><trkpt lat="33.769595" lon="10.0435983"><ele>65.0</ele><time>2026-04-04T20:42:10.284Z</time></trkpt><trkpt lat="33.7693683" lon="10.0434533"><ele>65.0</ele><time>2026-04-04T20:42:11.285Z</time></trkpt><trkpt lat="33.769145" lon="10.0433133"><ele>65.5</ele><time>2026-04-04T20:42:12.284Z</time></trkpt><trkpt lat="33.7689333" lon="10.0431767"><ele>66.0</ele><time>2026-04-04T20:42:13.285Z</time></trkpt><trkpt lat="33.7687317" lon="10.043045"><ele>66.0</ele><time>2026-04-04T20:42:14.284Z</time></trkpt><trkpt lat="33.7685367" lon="10.042915"><ele>66.0</ele><time>2026-04-04T20:42:15.285Z</time></trkpt><trkpt lat="33.768345" lon="10.0427867"><ele>66.0</ele><time>2026-04-04T20:42:16.284Z</time></trkpt><trkpt lat="33.76816" lon="10.042665"><ele>67.66666666666667</ele><time>2026-04-04T20:42:17.284Z</time></trkpt><trkpt lat="33.767985" lon="10.0425467"><ele>69.33333333333334</ele><time>2026-04-04T20:42:18.284Z</time></trkpt><trkpt lat="33.7678167" lon="10.0424333"><ele>71.0</ele><time>2026-04-04T20:42:19.282Z</time></trkpt><trkpt lat="33.7676533" lon="10.0423217"><ele>73.0</ele><time>2026-04-04T20:42:20.284Z</time></trkpt><trkpt lat="33.7674933" lon="10.0422033"><ele>75.0</ele><time>2026-04-04T20:42:21.282Z</time></trkpt><trkpt lat="33.7673383" lon="10.0420733"><ele>77.0</ele><time>2026-04-04T20:42:22.285Z</time></trkpt><trkpt lat="33.7671817" lon="10.0419317"><ele>77.0</ele><time>2026-04-04T20:42:23.284Z</time></trkpt><trkpt lat="33.7670267" lon="10.0417767"><ele>77.0</ele><time>2026-04-04T20:42:24.284Z</time></trkpt><trkpt lat="33.76687" lon="10.04161"><ele>77.0</ele><time>2026-04-04T20:42:25.283Z</time></trkpt><trkpt lat="33.7667167" lon="10.0414383"><ele>76.66666666666667</ele><time>2026-04-04T20:42:26.281Z</time></trkpt><trkpt lat="33.766565" lon="10.0412617"><ele>76.33333333333333</ele><time>2026-04-04T20:42:27.285Z</time></trkpt><trkpt lat="33.7664167" lon="10.0410867"><ele>76.0</ele><time>2026-04-04T20:42:28.284Z</time></trkpt><trkpt lat="33.7662683" lon="10.0409117"><ele>75.33333333333333</ele><time>2026-04-04T20:42:29.287Z</time></trkpt><trkpt lat="33.7661183" lon="10.04074"><ele>74.66666666666667</ele><time>2026-04-04T20:42:30.285Z</time></trkpt><trkpt lat="33.7659683" lon="10.04057"><ele>74.0</ele><time>2026-04-04T20:42:31.284Z</time></trkpt><trkpt lat="33.7658267" lon="10.040405"><ele>74.33333333333334</ele><time>2026-04-04T20:42:32.285Z</time></trkpt><trkpt lat="33.76569" lon="10.0402483"><ele>74.66666666666667</ele><time>2026-04-04T20:42:33.284Z</time></trkpt><trkpt lat="33.7655567" lon="10.0400917"><ele>75.0</ele><time>2026-04-04T20:42:34.285Z</time></trkpt><trkpt lat="33.7654217" lon="10.0399317"><ele>75.0</ele><time>2026-04-04T20:42:35.285Z</time></trkpt><trkpt lat="33.765285" lon="10.0397683"><ele>75.0</ele><time>2026-04-04T20:42:36.286Z</time></trkpt><trkpt lat="33.7651483" lon="10.0395967"><ele>75.0</ele><time>2026-04-04T20:42:37.285Z</time></trkpt><trkpt lat="33.7650133" lon="10.0394133"><ele>74.66666666666667</ele><time>2026-04-04T20:42:38.285Z</time></trkpt><trkpt lat="33.76488" lon="10.03922"><ele>74.33333333333334</ele><time>2026-04-04T20:42:39.284Z</time></trkpt><trkpt lat="33.7647483" lon="10.0390183"><ele>74.0</ele><time>2026-04-04T20:42:40.284Z</time></trkpt><trkpt lat="33.7646183" lon="10.038805"><ele>74.0</ele><time>2026-04-04T20:42:41.285Z</time></trkpt><trkpt lat="33.76449" lon="10.03859"><ele>74.0</ele><time>2026-04-04T20:42:42.285Z</time></trkpt><trkpt lat="33.7643667" lon="10.038375"><ele>74.0</ele><time>2026-04-04T20:42:43.285Z</time></trkpt><trkpt lat="33.7642433" lon="10.03816"><ele>75.66666666666667</ele><time>2026-04-04T20:42:44.282Z</time></trkpt><trkpt lat="33.76412" lon="10.0379467"><ele>77.33333333333333</ele><time>2026-04-04T20:42:45.282Z</time></trkpt><trkpt lat="33.763995" lon="10.0377367"><ele>79.0</ele><time>2026-04-04T20:42:46.285Z</time></trkpt><trkpt lat="33.76387" lon="10.0375233"><ele>79.66666666666666</ele><time>2026-04-04T20:42:47.285Z</time></trkpt><trkpt lat="33.763745" lon="10.03731"><ele>80.33333333333333</ele><time>2026-04-04T20:42:48.282Z</time></trkpt><trkpt lat="33.76362" lon="10.037095"><ele>81.0</ele><time>2026-04-04T20:42:49.285Z</time></trkpt><trkpt lat="33.7634983" lon="10.0368817"><ele>81.0</ele><time>2026-04-04T20:42:50.284Z</time></trkpt><trkpt lat="33.7633783" lon="10.0366767"><ele>81.0</ele><time>2026-04-04T20:42:51.282Z</time></trkpt><trkpt lat="33.7632633" lon="10.0364783"><ele>81.0</ele><time>2026-04-04T20:42:52.284Z</time></trkpt><trkpt lat="33.763145" lon="10.0362817"><ele>80.66666666666667</ele><time>2026-04-04T20:42:53.285Z</time></trkpt><trkpt lat="33.763025" lon="10.0360883"><ele>80.33333333333334</ele><time>2026-04-04T20:42:54.285Z</time></trkpt><trkpt lat="33.7629083" lon="10.0358933"><ele>80.0</ele><time>2026-04-04T20:42:55.285Z</time></trkpt><trkpt lat="33.7627933" lon="10.0356967"><ele>81.33333333333334</ele><time>2026-04-04T20:42:56.284Z</time></trkpt><trkpt lat="33.76268" lon="10.0355"><ele>82.66666666666667</ele><time>2026-04-04T20:42:57.288Z</time></trkpt><trkpt lat="33.7625683" lon="10.0353083"><ele>84.0</ele><time>2026-04-04T20:42:58.285Z</time></trkpt><trkpt lat="33.76246" lon="10.03512"><ele>84.66666666666667</ele><time>2026-04-04T20:42:59.285Z</time></trkpt><trkpt lat="33.76235" lon="10.0349367"><ele>85.33333333333334</ele><time>2026-04-04T20:43:00.285Z</time></trkpt><trkpt lat="33.7622433" lon="10.03475"><ele>86.0</ele><time>2026-04-04T20:43:01.285Z</time></trkpt><trkpt lat="33.762135" lon="10.0345633"><ele>86.0</ele><time>2026-04-04T20:43:02.286Z</time></trkpt><trkpt lat="33.7620267" lon="10.034375"><ele>86.0</ele><time>2026-04-04T20:43:03.284Z</time></trkpt><trkpt lat="33.761915" lon="10.0341883"><ele>86.0</ele><time>2026-04-04T20:43:04.285Z</time></trkpt><trkpt lat="33.7618033" lon="10.034"><ele>85.33333333333334</ele><time>2026-04-04T20:43:05.285Z</time></trkpt><trkpt lat="33.7616917" lon="10.0338133"><ele>84.66666666666667</ele><time>2026-04-04T20:43:06.285Z</time></trkpt><trkpt lat="33.76158" lon="10.0336233"><ele>84.0</ele><time>2026-04-04T20:43:07.286Z</time></trkpt><trkpt lat="33.7614683" lon="10.0334333"><ele>84.66666666666667</ele><time>2026-04-04T20:43:08.281Z</time></trkpt><trkpt lat="33.761355" lon="10.0332417"><ele>85.33333333333334</ele><time>2026-04-04T20:43:09.285Z</time></trkpt><trkpt lat="33.7612417" lon="10.0330483"><ele>86.0</ele><time>2026-04-04T20:43:10.285Z</time></trkpt><trkpt lat="33.761125" lon="10.03285"><ele>86.33333333333334</ele><time>2026-04-04T20:43:11.285Z</time></trkpt><trkpt lat="33.7610067" lon="10.03265"><ele>86.66666666666667</ele><time>2026-04-04T20:43:12.285Z</time></trkpt><trkpt lat="33.76089" lon="10.0324483"><ele>87.0</ele><time>2026-04-04T20:43:13.285Z</time></trkpt><trkpt lat="33.76077" lon="10.0322417"><ele>87.0</ele><time>2026-04-04T20:43:14.285Z</time></trkpt><trkpt lat="33.7606467" lon="10.0320317"><ele>87.0</ele><time>2026-04-04T20:43:15.285Z</time></trkpt><trkpt lat="33.7605217" lon="10.03182"><ele>87.0</ele><time>2026-04-04T20:43:16.282Z</time></trkpt><trkpt lat="33.760395" lon="10.0316067"><ele>87.0</ele><time>2026-04-04T20:43:17.286Z</time></trkpt><trkpt lat="33.76027" lon="10.03139"><ele>87.0</ele><time>2026-04-04T20:43:18.286Z</time></trkpt><trkpt lat="33.760145" lon="10.0311767"><ele>87.0</ele><time>2026-04-04T20:43:19.282Z</time></trkpt><trkpt lat="33.7600217" lon="10.030965"><ele>88.0</ele><time>2026-04-04T20:43:20.282Z</time></trkpt><trkpt lat="33.7598983" lon="10.0307567"><ele>89.0</ele><time>2026-04-04T20:43:21.282Z</time></trkpt><trkpt lat="33.759775" lon="10.03055"><ele>90.0</ele><time>2026-04-04T20:43:22.283Z</time></trkpt><trkpt lat="33.7596567" lon="10.030345"><ele>90.0</ele><time>2026-04-04T20:43:23.283Z</time></trkpt><trkpt lat="33.7595417" lon="10.030145"><ele>90.0</ele><time>2026-04-04T20:43:24.283Z</time></trkpt><trkpt lat="33.7594283" lon="10.0299483"><ele>90.0</ele><time>2026-04-04T20:43:25.283Z</time></trkpt><trkpt lat="33.7593133" lon="10.0297517"><ele>90.0</ele><time>2026-04-04T20:43:26.282Z</time></trkpt><trkpt lat="33.759195" lon="10.0295533"><ele>90.0</ele><time>2026-04-04T20:43:27.289Z</time></trkpt><trkpt lat="33.7590733" lon="10.0293517"><ele>90.0</ele><time>2026-04-04T20:43:28.285Z</time></trkpt><trkpt lat="33.7589517" lon="10.029145"><ele>91.33333333333333</ele><time>2026-04-04T20:43:29.285Z</time></trkpt><trkpt lat="33.75883" lon="10.028935"><ele>92.66666666666666</ele><time>2026-04-04T20:43:30.285Z</time></trkpt><trkpt lat="33.7587067" lon="10.028725"><ele>94.0</ele><time>2026-04-04T20:43:31.286Z</time></trkpt><trkpt lat="33.758585" lon="10.0285167"><ele>94.0</ele><time>2026-04-04T20:43:32.285Z</time></trkpt><trkpt lat="33.7584617" lon="10.02831"><ele>94.0</ele><time>2026-04-04T20:43:33.285Z</time></trkpt><trkpt lat="33.758345" lon="10.0281117"><ele>94.0</ele><time>2026-04-04T20:43:34.285Z</time></trkpt><trkpt lat="33.758235" lon="10.0279233"><ele>94.0</ele><time>2026-04-04T20:43:35.285Z</time></trkpt><trkpt lat="33.7581317" lon="10.0277433"><ele>94.0</ele><time>2026-04-04T20:43:36.285Z</time></trkpt><trkpt lat="33.7580333" lon="10.0275717"><ele>94.0</ele><time>2026-04-04T20:43:37.286Z</time></trkpt><trkpt lat="33.7579383" lon="10.0274083"><ele>94.5</ele><time>2026-04-04T20:43:38.285Z</time></trkpt><trkpt lat="33.7578483" lon="10.027255"><ele>95.0</ele><time>2026-04-04T20:43:39.286Z</time></trkpt><trkpt lat="33.7577633" lon="10.0271083"><ele>95.5</ele><time>2026-04-04T20:43:40.285Z</time></trkpt><trkpt lat="33.75768" lon="10.02697"><ele>96.0</ele><time>2026-04-04T20:43:41.286Z</time></trkpt><trkpt lat="33.7575983" lon="10.026835"><ele>96.0</ele><time>2026-04-04T20:43:42.286Z</time></trkpt><trkpt lat="33.7575233" lon="10.02671"><ele>96.0</ele><time>2026-04-04T20:43:43.285Z</time></trkpt><trkpt lat="33.757455" lon="10.0265967"><ele>96.0</ele><time>2026-04-04T20:43:44.285Z</time></trkpt><trkpt lat="33.7573933" lon="10.0264933"><ele>96.0</ele><time>2026-04-04T20:43:45.285Z</time></trkpt><trkpt lat="33.757335" lon="10.026395"><ele>96.4</ele><time>2026-04-04T20:43:46.286Z</time></trkpt><trkpt lat="33.7572767" lon="10.026295"><ele>96.8</ele><time>2026-04-04T20:43:47.285Z</time></trkpt><trkpt lat="33.7572167" lon="10.0261883"><ele>97.2</ele><time>2026-04-04T20:43:48.285Z</time></trkpt><trkpt lat="33.75716" lon="10.0260833"><ele>97.60000000000001</ele><time>2026-04-04T20:43:49.285Z</time></trkpt><trkpt lat="33.7571067" lon="10.025985"><ele>98.0</ele><time>2026-04-04T20:43:50.283Z</time></trkpt><trkpt lat="33.7570567" lon="10.0258933"><ele>98.16666666666666</ele><time>2026-04-04T20:43:51.285Z</time></trkpt><trkpt lat="33.7570067" lon="10.02581"><ele>98.33333333333333</ele><time>2026-04-04T20:43:52.285Z</time></trkpt><trkpt lat="33.7569583" lon="10.0257333"><ele>98.5</ele><time>2026-04-04T20:43:53.285Z</time></trkpt><trkpt lat="33.7569133" lon="10.0256633"><ele>98.66666666666666</ele><time>2026-04-04T20:43:54.283Z</time></trkpt><trkpt lat="33.75687" lon="10.0255967"><ele>98.83333333333333</ele><time>2026-04-04T20:43:55.285Z</time></trkpt><trkpt lat="33.75683" lon="10.0255317"><ele>99.0</ele><time>2026-04-04T20:43:56.283Z</time></trkpt><trkpt lat="33.7567583" lon="10.02542"><ele>99.0</ele><time>2026-04-04T20:43:58.284Z</time></trkpt><trkpt lat="33.7567067" lon="10.0253417"><ele>99.0</ele><time>2026-04-04T20:44:00.285Z</time></trkpt><trkpt lat="33.7566667" lon="10.0252533"><ele>99.0</ele><time>2026-04-04T20:44:03.283Z</time></trkpt><trkpt lat="33.756635" lon="10.0251833"><ele>99.0</ele><time>2026-04-04T20:47:14.286Z</time></trkpt><trkpt lat="33.7565467" lon="10.0251033"><ele>99.0</ele><time>2026-04-04T20:47:16.285Z</time></trkpt><trkpt lat="33.7564833" lon="10.0250267"><ele>99.0</ele><time>2026-04-04T20:47:17.286Z</time></trkpt><trkpt lat="33.7563883" lon="10.0249067"><ele>99.33333333333334</ele><time>2026-04-04T20:47:18.285Z</time></trkpt><trkpt lat="33.75627" lon="10.0247583"><ele>99.66666666666667</ele><time>2026-04-04T20:47:19.286Z</time></trkpt><trkpt lat="33.7561367" lon="10.0245917"><ele>100.0</ele><time>2026-04-04T20:47:20.286Z</time></trkpt><trkpt lat="33.7559917" lon="10.0244117"><ele>100.0</ele><time>2026-04-04T20:47:21.285Z</time></trkpt><trkpt lat="33.75584" lon="10.0242217"><ele>100.0</ele><time>2026-04-04T20:47:22.285Z</time></trkpt><trkpt lat="33.75568" lon="10.024025"><ele>100.0</ele><time>2026-04-04T20:47:23.285Z</time></trkpt><trkpt lat="33.755515" lon="10.02382"><ele>100.0</ele><time>2026-04-04T20:47:24.286Z</time></trkpt><trkpt lat="33.75535" lon="10.0236117"><ele>100.0</ele><time>2026-04-04T20:47:25.285Z</time></trkpt><trkpt lat="33.755185" lon="10.0234083"><ele>99.5</ele><time>2026-04-04T20:47:26.285Z</time></trkpt><trkpt lat="33.7550183" lon="10.0232017"><ele>99.0</ele><time>2026-04-04T20:47:27.285Z</time></trkpt><trkpt lat="33.7548467" lon="10.0229867"><ele>99.0</ele><time>2026-04-04T20:47:28.285Z</time></trkpt><trkpt lat="33.75467" lon="10.0227667"><ele>99.0</ele><time>2026-04-04T20:47:29.285Z</time></trkpt><trkpt lat="33.7544917" lon="10.0225433"><ele>99.5</ele><time>2026-04-04T20:47:30.285Z</time></trkpt><trkpt lat="33.7543167" lon="10.022325"><ele>100.0</ele><time>2026-04-04T20:47:31.285Z</time></trkpt><trkpt lat="33.754145" lon="10.0221083"><ele>100.0</ele><time>2026-04-04T20:47:32.287Z</time></trkpt><trkpt lat="33.753975" lon="10.0218917"><ele>100.0</ele><time>2026-04-04T20:47:33.283Z</time></trkpt><trkpt lat="33.7538083" lon="10.0216783"><ele>100.0</ele><time>2026-04-04T20:47:34.282Z</time></trkpt><trkpt lat="33.7536433" lon="10.0214733"><ele>100.0</ele><time>2026-04-04T20:47:35.283Z</time></trkpt><trkpt lat="33.7534833" lon="10.021275"><ele>100.0</ele><time>2026-04-04T20:47:36.283Z</time></trkpt><trkpt lat="33.753325" lon="10.0210817"><ele>100.0</ele><time>2026-04-04T20:47:37.283Z</time></trkpt><trkpt lat="33.753165" lon="10.0208983"><ele>100.0</ele><time>2026-04-04T20:47:38.282Z</time></trkpt><trkpt lat="33.7530017" lon="10.0207283"><ele>100.0</ele><time>2026-04-04T20:47:39.282Z</time></trkpt><trkpt lat="33.752825" lon="10.0205633"><ele>100.0</ele><time>2026-04-04T20:47:40.285Z</time></trkpt><trkpt lat="33.7526333" lon="10.020405"><ele>100.0</ele><time>2026-04-04T20:47:41.286Z</time></trkpt><trkpt lat="33.7524283" lon="10.0202567"><ele>100.0</ele><time>2026-04-04T20:47:42.287Z</time></trkpt><trkpt lat="33.75221" lon="10.0201183"><ele>100.0</ele><time>2026-04-04T20:47:43.286Z</time></trkpt><trkpt lat="33.7519817" lon="10.019985"><ele>100.0</ele><time>2026-04-04T20:47:44.285Z</time></trkpt><trkpt lat="33.7517467" lon="10.0198567"><ele>98.5</ele><time>2026-04-04T20:47:45.285Z</time></trkpt><trkpt lat="33.7515033" lon="10.0197317"><ele>97.0</ele><time>2026-04-04T20:47:46.285Z</time></trkpt><trkpt lat="33.7512617" lon="10.0196067"><ele>97.0</ele><time>2026-04-04T20:47:47.286Z</time></trkpt><trkpt lat="33.7510233" lon="10.0194833"><ele>97.0</ele><time>2026-04-04T20:47:48.287Z</time></trkpt><trkpt lat="33.7507867" lon="10.01936"><ele>97.0</ele><time>2026-04-04T20:47:49.284Z</time></trkpt><trkpt lat="33.75055" lon="10.01924"><ele>97.0</ele><time>2026-04-04T20:47:50.285Z</time></trkpt><trkpt lat="33.75031" lon="10.01912"><ele>98.0</ele><time>2026-04-04T20:47:51.284Z</time></trkpt><trkpt lat="33.7500667" lon="10.0189983"><ele>99.0</ele><time>2026-04-04T20:47:52.284Z</time></trkpt><trkpt lat="33.7498233" lon="10.018875"><ele>99.0</ele><time>2026-04-04T20:47:53.284Z</time></trkpt><trkpt lat="33.7495817" lon="10.01875"><ele>99.0</ele><time>2026-04-04T20:47:54.284Z</time></trkpt><trkpt lat="33.7493383" lon="10.0186217"><ele>101.0</ele><time>2026-04-04T20:47:55.284Z</time></trkpt><trkpt lat="33.7490933" lon="10.018495"><ele>103.0</ele><time>2026-04-04T20:47:56.285Z</time></trkpt><trkpt lat="33.7488433" lon="10.0183683"><ele>103.0</ele><time>2026-04-04T20:47:57.284Z</time></trkpt><trkpt lat="33.748595" lon="10.0182433"><ele>103.0</ele><time>2026-04-04T20:47:58.284Z</time></trkpt><trkpt lat="33.7483533" lon="10.0181233"><ele>103.0</ele><time>2026-04-04T20:47:59.285Z</time></trkpt><trkpt lat="33.7481117" lon="10.0180033"><ele>103.0</ele><time>2026-04-04T20:48:00.287Z</time></trkpt><trkpt lat="33.74787" lon="10.0178833"><ele>104.0</ele><time>2026-04-04T20:48:01.284Z</time></trkpt><trkpt lat="33.7476267" lon="10.0177633"><ele>105.0</ele><time>2026-04-04T20:48:02.285Z</time></trkpt><trkpt lat="33.7473817" lon="10.0176483"><ele>105.0</ele><time>2026-04-04T20:48:03.285Z</time></trkpt><trkpt lat="33.7471367" lon="10.017545"><ele>105.0</ele><time>2026-04-04T20:48:04.286Z</time></trkpt><trkpt lat="33.7469017" lon="10.017455"><ele>106.5</ele><time>2026-04-04T20:48:05.286Z</time></trkpt><trkpt lat="33.7466767" lon="10.01737"><ele>108.0</ele><time>2026-04-04T20:48:06.285Z</time></trkpt><trkpt lat="33.746455" lon="10.0172883"><ele>108.0</ele><time>2026-04-04T20:48:07.285Z</time></trkpt><trkpt lat="33.7462267" lon="10.0172083"><ele>108.0</ele><time>2026-04-04T20:48:08.285Z</time></trkpt><trkpt lat="33.7459933" lon="10.0171233"><ele>107.5</ele><time>2026-04-04T20:48:09.285Z</time></trkpt><trkpt lat="33.7457583" lon="10.01704"><ele>107.0</ele><time>2026-04-04T20:48:10.284Z</time></trkpt><trkpt lat="33.7455183" lon="10.0169533"><ele>107.0</ele><time>2026-04-04T20:48:11.286Z</time></trkpt><trkpt lat="33.7452783" lon="10.0168633"><ele>107.0</ele><time>2026-04-04T20:48:12.284Z</time></trkpt><trkpt lat="33.745035" lon="10.01677"><ele>107.0</ele><time>2026-04-04T20:48:13.286Z</time></trkpt><trkpt lat="33.7447867" lon="10.016675"><ele>107.0</ele><time>2026-04-04T20:48:14.285Z</time></trkpt><trkpt lat="33.744535" lon="10.01658"><ele>107.5</ele><time>2026-04-04T20:48:15.285Z</time></trkpt><trkpt lat="33.7442817" lon="10.016485"><ele>108.0</ele><time>2026-04-04T20:48:16.285Z</time></trkpt><trkpt lat="33.7440267" lon="10.0163833"><ele>108.0</ele><time>2026-04-04T20:48:17.285Z</time></trkpt><trkpt lat="33.74377" lon="10.016285"><ele>108.0</ele><time>2026-04-04T20:48:18.285Z</time></trkpt><trkpt lat="33.743515" lon="10.0161867"><ele>109.0</ele><time>2026-04-04T20:48:19.284Z</time></trkpt><trkpt lat="33.743265" lon="10.016095"><ele>110.0</ele><time>2026-04-04T20:48:20.286Z</time></trkpt><trkpt lat="33.74302" lon="10.0160017"><ele>110.0</ele><time>2026-04-04T20:48:21.286Z</time></trkpt><trkpt lat="33.7427817" lon="10.0159167"><ele>110.0</ele><time>2026-04-04T20:48:22.285Z</time></trkpt><trkpt lat="33.7425517" lon="10.0158333"><ele>111.0</ele><time>2026-04-04T20:48:23.285Z</time></trkpt><trkpt lat="33.7423283" lon="10.0157533"><ele>112.0</ele><time>2026-04-04T20:48:24.284Z</time></trkpt><trkpt lat="33.742115" lon="10.015675"><ele>112.0</ele><time>2026-04-04T20:48:25.285Z</time></trkpt><trkpt lat="33.7419133" lon="10.0156017"><ele>112.0</ele><time>2026-04-04T20:48:26.285Z</time></trkpt><trkpt lat="33.7417217" lon="10.0155283"><ele>112.0</ele><time>2026-04-04T20:48:27.284Z</time></trkpt><trkpt lat="33.7415317" lon="10.0154583"><ele>111.66666666666667</ele><time>2026-04-04T20:48:28.285Z</time></trkpt><trkpt lat="33.74134" lon="10.0153933"><ele>111.33333333333334</ele><time>2026-04-04T20:48:29.286Z</time></trkpt><trkpt lat="33.7411467" lon="10.0153367"><ele>111.0</ele><time>2026-04-04T20:48:30.284Z</time></trkpt><trkpt lat="33.7409517" lon="10.0152883"><ele>111.0</ele><time>2026-04-04T20:48:31.286Z</time></trkpt><trkpt lat="33.7407567" lon="10.0152517"><ele>111.0</ele><time>2026-04-04T20:48:32.285Z</time></trkpt><trkpt lat="33.74056" lon="10.0152267"><ele>111.0</ele><time>2026-04-04T20:48:33.285Z</time></trkpt><trkpt lat="33.7403667" lon="10.01521"><ele>111.0</ele><time>2026-04-04T20:48:34.285Z</time></trkpt><trkpt lat="33.74018" lon="10.0152"><ele>111.0</ele><time>2026-04-04T20:48:35.286Z</time></trkpt><trkpt lat="33.739995" lon="10.0152"><ele>111.0</ele><time>2026-04-04T20:48:36.285Z</time></trkpt><trkpt lat="33.73981" lon="10.0152"><ele>111.0</ele><time>2026-04-04T20:48:37.284Z</time></trkpt><trkpt lat="33.7396333" lon="10.0152033"><ele>111.0</ele><time>2026-04-04T20:48:38.285Z</time></trkpt><trkpt lat="33.73946" lon="10.0152017"><ele>111.0</ele><time>2026-04-04T20:48:39.285Z</time></trkpt><trkpt lat="33.7392917" lon="10.0152017"><ele>111.0</ele><time>2026-04-04T20:48:40.286Z</time></trkpt><trkpt lat="33.73912" lon="10.0152017"><ele>111.0</ele><time>2026-04-04T20:48:41.285Z</time></trkpt><trkpt lat="33.7389467" lon="10.0152033"><ele>111.0</ele><time>2026-04-04T20:48:42.285Z</time></trkpt><trkpt lat="33.73877" lon="10.0152067"><ele>111.0</ele><time>2026-04-04T20:48:43.285Z</time></trkpt><trkpt lat="33.7385917" lon="10.01521"><ele>111.0</ele><time>2026-04-04T20:48:44.285Z</time></trkpt><trkpt lat="33.7384183" lon="10.0152117"><ele>111.0</ele><time>2026-04-04T20:48:45.285Z</time></trkpt><trkpt lat="33.7382517" lon="10.0152133"><ele>110.33333333333334</ele><time>2026-04-04T20:48:46.285Z</time></trkpt><trkpt lat="33.7380917" lon="10.015215"><ele>109.66666666666667</ele><time>2026-04-04T20:48:47.284Z</time></trkpt><trkpt lat="33.7379333" lon="10.01522"><ele>109.0</ele><time>2026-04-04T20:48:48.284Z</time></trkpt><trkpt lat="33.7377717" lon="10.01522"><ele>109.0</ele><time>2026-04-04T20:48:49.285Z</time></trkpt><trkpt lat="33.7376083" lon="10.0152217"><ele>109.0</ele><time>2026-04-04T20:48:50.286Z</time></trkpt><trkpt lat="33.73744" lon="10.0152217"><ele>109.0</ele><time>2026-04-04T20:48:51.285Z</time></trkpt><trkpt lat="33.73727" lon="10.0152233"><ele>109.0</ele><time>2026-04-04T20:48:52.285Z</time></trkpt><trkpt lat="33.7371" lon="10.0152233"><ele>109.0</ele><time>2026-04-04T20:48:53.286Z</time></trkpt><trkpt lat="33.73693" lon="10.015225"><ele>109.0</ele><time>2026-04-04T20:48:54.286Z</time></trkpt><trkpt lat="33.7367583" lon="10.0152283"><ele>108.0</ele><time>2026-04-04T20:48:55.285Z</time></trkpt><trkpt lat="33.73659" lon="10.0152333"><ele>107.0</ele><time>2026-04-04T20:48:56.285Z</time></trkpt><trkpt lat="33.7364283" lon="10.0152383"><ele>106.0</ele><time>2026-04-04T20:48:57.285Z</time></trkpt><trkpt lat="33.736275" lon="10.0152433"><ele>106.0</ele><time>2026-04-04T20:48:58.283Z</time></trkpt><trkpt lat="33.7361317" lon="10.015245"><ele>106.0</ele><time>2026-04-04T20:48:59.282Z</time></trkpt><trkpt lat="33.7360017" lon="10.0152467"><ele>106.0</ele><time>2026-04-04T20:49:00.284Z</time></trkpt><trkpt lat="33.7358867" lon="10.015245"><ele>106.0</ele><time>2026-04-04T20:49:01.282Z</time></trkpt><trkpt lat="33.7357867" lon="10.01524"><ele>106.0</ele><time>2026-04-04T20:49:02.285Z</time></trkpt><trkpt lat="33.7357017" lon="10.0152367"><ele>106.0</ele><time>2026-04-04T20:49:03.285Z</time></trkpt><trkpt lat="33.735635" lon="10.015235"><ele>106.0</ele><time>2026-04-04T20:49:04.285Z</time></trkpt><trkpt lat="33.7355217" lon="10.015235"><ele>106.0</ele><time>2026-04-04T20:49:06.286Z</time></trkpt><trkpt lat="33.7353917" lon="10.0152383"><ele>106.0</ele><time>2026-04-04T20:49:08.285Z</time></trkpt><trkpt lat="33.735315" lon="10.0152383"><ele>106.0</ele><time>2026-04-04T20:49:09.282Z</time></trkpt><trkpt lat="33.7352317" lon="10.0152367"><ele>106.0</ele><time>2026-04-04T20:49:10.282Z</time></trkpt><trkpt lat="33.735145" lon="10.0152333"><ele>106.0</ele><time>2026-04-04T20:49:11.282Z</time></trkpt><trkpt lat="33.7350517" lon="10.0152333"><ele>106.0</ele><time>2026-04-04T20:49:12.286Z</time></trkpt><trkpt lat="33.7349433" lon="10.0152333"><ele>106.0</ele><time>2026-04-04T20:49:13.286Z</time></trkpt><trkpt lat="33.73482" lon="10.0152333"><ele>105.75</ele><time>2026-04-04T20:49:14.285Z</time></trkpt><trkpt lat="33.7346883" lon="10.0152317"><ele>105.5</ele><time>2026-04-04T20:49:15.285Z</time></trkpt><trkpt lat="33.7345517" lon="10.0152317"><ele>105.25</ele><time>2026-04-04T20:49:16.283Z</time></trkpt><trkpt lat="33.7344067" lon="10.0152317"><ele>105.0</ele><time>2026-04-04T20:49:17.286Z</time></trkpt><trkpt lat="33.7342533" lon="10.0152317"><ele>105.0</ele><time>2026-04-04T20:49:18.285Z</time></trkpt><trkpt lat="33.734095" lon="10.0152317"><ele>105.0</ele><time>2026-04-04T20:49:19.288Z</time></trkpt><trkpt lat="33.7339333" lon="10.01523"><ele>105.0</ele><time>2026-04-04T20:49:20.285Z</time></trkpt><trkpt lat="33.733765" lon="10.0152283"><ele>105.0</ele><time>2026-04-04T20:49:21.285Z</time></trkpt><trkpt lat="33.7335967" lon="10.0152267"><ele>105.0</ele><time>2026-04-04T20:49:22.285Z</time></trkpt><trkpt lat="33.73344" lon="10.0152283"><ele>105.0</ele><time>2026-04-04T20:49:23.285Z</time></trkpt><trkpt lat="33.7332917" lon="10.0152283"><ele>104.25</ele><time>2026-04-04T20:49:24.285Z</time></trkpt><trkpt lat="33.7331533" lon="10.0152283"><ele>103.5</ele><time>2026-04-04T20:49:25.283Z</time></trkpt><trkpt lat="33.7330233" lon="10.015225"><ele>102.75</ele><time>2026-04-04T20:49:26.285Z</time></trkpt><trkpt lat="33.7329033" lon="10.01522"><ele>102.0</ele><time>2026-04-04T20:49:27.285Z</time></trkpt><trkpt lat="33.7327933" lon="10.01522"><ele>102.33333333333333</ele><time>2026-04-04T20:49:28.285Z</time></trkpt><trkpt lat="33.73269" lon="10.0152233"><ele>102.66666666666666</ele><time>2026-04-04T20:49:29.286Z</time></trkpt><trkpt lat="33.7325983" lon="10.0152233"><ele>103.0</ele><time>2026-04-04T20:49:30.283Z</time></trkpt><trkpt lat="33.732525" lon="10.015225"><ele>103.33333333333333</ele><time>2026-04-04T20:49:31.282Z</time></trkpt><trkpt lat="33.7324567" lon="10.0152267"><ele>103.66666666666666</ele><time>2026-04-04T20:49:32.285Z</time></trkpt><trkpt lat="33.732385" lon="10.0152267"><ele>104.0</ele><time>2026-04-04T20:49:33.285Z</time></trkpt><trkpt lat="33.7323033" lon="10.0152267"><ele>104.0</ele><time>2026-04-04T20:49:34.283Z</time></trkpt><trkpt lat="33.7322117" lon="10.0152283"><ele>104.0</ele><time>2026-04-04T20:49:35.283Z</time></trkpt><trkpt lat="33.732105" lon="10.0152283"><ele>104.0</ele><time>2026-04-04T20:49:36.282Z</time></trkpt><trkpt lat="33.731985" lon="10.01523"><ele>104.0</ele><time>2026-04-04T20:49:37.282Z</time></trkpt><trkpt lat="33.7318583" lon="10.0152317"><ele>104.0</ele><time>2026-04-04T20:49:38.283Z</time></trkpt><trkpt lat="33.7317233" lon="10.0152333"><ele>104.0</ele><time>2026-04-04T20:49:39.282Z</time></trkpt><trkpt lat="33.7315833" lon="10.015235"><ele>104.0</ele><time>2026-04-04T20:49:40.282Z</time></trkpt><trkpt lat="33.731435" lon="10.0152367"><ele>104.0</ele><time>2026-04-04T20:49:41.282Z</time></trkpt><trkpt lat="33.7312817" lon="10.015235"><ele>104.0</ele><time>2026-04-04T20:49:42.283Z</time></trkpt><trkpt lat="33.7311233" lon="10.015235"><ele>103.66666666666666</ele><time>2026-04-04T20:49:43.283Z</time></trkpt><trkpt lat="33.7309633" lon="10.015235"><ele>103.33333333333334</ele><time>2026-04-04T20:49:44.284Z</time></trkpt><trkpt lat="33.7307983" lon="10.0152333"><ele>103.0</ele><time>2026-04-04T20:49:45.285Z</time></trkpt><trkpt lat="33.73063" lon="10.0152333"><ele>103.0</ele><time>2026-04-04T20:49:46.285Z</time></trkpt><trkpt lat="33.7304567" lon="10.015235"><ele>103.0</ele><time>2026-04-04T20:49:47.285Z</time></trkpt><trkpt lat="33.7302833" lon="10.01524"><ele>103.0</ele><time>2026-04-04T20:49:48.286Z</time></trkpt><trkpt lat="33.730105" lon="10.0152417"><ele>103.0</ele><time>2026-04-04T20:49:49.285Z</time></trkpt><trkpt lat="33.7299233" lon="10.0152467"><ele>103.0</ele><time>2026-04-04T20:49:50.285Z</time></trkpt><trkpt lat="33.729735" lon="10.0152517"><ele>103.0</ele><time>2026-04-04T20:49:51.285Z</time></trkpt><trkpt lat="33.7295383" lon="10.015255"><ele>103.0</ele><time>2026-04-04T20:49:52.285Z</time></trkpt><trkpt lat="33.7293383" lon="10.015255"><ele>103.0</ele><time>2026-04-04T20:49:53.286Z</time></trkpt><trkpt lat="33.72914" lon="10.015255"><ele>103.0</ele><time>2026-04-04T20:49:54.286Z</time></trkpt><trkpt lat="33.72894" lon="10.0152533"><ele>103.0</ele><time>2026-04-04T20:49:55.286Z</time></trkpt><trkpt lat="33.7287417" lon="10.0152517"><ele>103.0</ele><time>2026-04-04T20:49:56.285Z</time></trkpt><trkpt lat="33.7285417" lon="10.015255"><ele>103.0</ele><time>2026-04-04T20:49:57.286Z</time></trkpt><trkpt lat="33.72834" lon="10.0152567"><ele>103.0</ele><time>2026-04-04T20:49:58.286Z</time></trkpt><trkpt lat="33.7281383" lon="10.015255"><ele>103.0</ele><time>2026-04-04T20:49:59.285Z</time></trkpt><trkpt lat="33.7279333" lon="10.015255"><ele>103.0</ele><time>2026-04-04T20:50:00.286Z</time></trkpt><trkpt lat="33.7277283" lon="10.015255"><ele>102.66666666666667</ele><time>2026-04-04T20:50:01.285Z</time></trkpt><trkpt lat="33.72752" lon="10.0152517"><ele>102.33333333333334</ele><time>2026-04-04T20:50:02.286Z</time></trkpt><trkpt lat="33.7273083" lon="10.0152517"><ele>102.0</ele><time>2026-04-04T20:50:03.285Z</time></trkpt><trkpt lat="33.727095" lon="10.0152533"><ele>101.0</ele><time>2026-04-04T20:50:04.282Z</time></trkpt><trkpt lat="33.7268833" lon="10.015255"><ele>100.0</ele><time>2026-04-04T20:50:05.282Z</time></trkpt><trkpt lat="33.7266783" lon="10.0152583"><ele>99.0</ele><time>2026-04-04T20:50:06.282Z</time></trkpt><trkpt lat="33.72648" lon="10.0152617"><ele>99.0</ele><time>2026-04-04T20:50:07.284Z</time></trkpt><trkpt lat="33.7262767" lon="10.0152633"><ele>99.0</ele><time>2026-04-04T20:50:08.282Z</time></trkpt><trkpt lat="33.72607" lon="10.0152633"><ele>99.0</ele><time>2026-04-04T20:50:09.282Z</time></trkpt><trkpt lat="33.7258583" lon="10.0152617"><ele>98.66666666666666</ele><time>2026-04-04T20:50:10.282Z</time></trkpt><trkpt lat="33.725645" lon="10.0152633"><ele>98.33333333333333</ele><time>2026-04-04T20:50:11.282Z</time></trkpt><trkpt lat="33.7254317" lon="10.0152617"><ele>98.0</ele><time>2026-04-04T20:50:12.282Z</time></trkpt><trkpt lat="33.72522" lon="10.0152633"><ele>98.0</ele><time>2026-04-04T20:50:13.283Z</time></trkpt><trkpt lat="33.72501" lon="10.0152633"><ele>98.0</ele><time>2026-04-04T20:50:14.283Z</time></trkpt><trkpt lat="33.7248033" lon="10.0152617"><ele>98.0</ele><time>2026-04-04T20:50:15.285Z</time></trkpt><trkpt lat="33.7245983" lon="10.0152617"><ele>99.0</ele><time>2026-04-04T20:50:16.285Z</time></trkpt><trkpt lat="33.7243917" lon="10.015265"><ele>100.0</ele><time>2026-04-04T20:50:17.287Z</time></trkpt><trkpt lat="33.7241867" lon="10.0152683"><ele>101.0</ele><time>2026-04-04T20:50:18.286Z</time></trkpt><trkpt lat="33.723995" lon="10.01527"><ele>101.0</ele><time>2026-04-04T20:50:19.285Z</time></trkpt><trkpt lat="33.7238117" lon="10.01527"><ele>101.0</ele><time>2026-04-04T20:50:20.286Z</time></trkpt><trkpt lat="33.723625" lon="10.01527"><ele>101.0</ele><time>2026-04-04T20:50:21.287Z</time></trkpt><trkpt lat="33.7234317" lon="10.0152717"><ele>101.66666666666666</ele><time>2026-04-04T20:50:22.285Z</time></trkpt><trkpt lat="33.723235" lon="10.0152717"><ele>102.33333333333334</ele><time>2026-04-04T20:50:23.285Z</time></trkpt><trkpt lat="33.7230383" lon="10.0152733"><ele>103.0</ele><time>2026-04-04T20:50:24.285Z</time></trkpt><trkpt lat="33.72284" lon="10.0152733"><ele>102.33333333333334</ele><time>2026-04-04T20:50:25.286Z</time></trkpt><trkpt lat="33.7226417" lon="10.0152733"><ele>101.66666666666666</ele><time>2026-04-04T20:50:26.285Z</time></trkpt><trkpt lat="33.7224433" lon="10.0152733"><ele>101.0</ele><time>2026-04-04T20:50:27.286Z</time></trkpt><trkpt lat="33.7222433" lon="10.0152733"><ele>101.0</ele><time>2026-04-04T20:50:28.285Z</time></trkpt><trkpt lat="33.7220433" lon="10.015275"><ele>101.0</ele><time>2026-04-04T20:50:29.286Z</time></trkpt><trkpt lat="33.72184" lon="10.0152733"><ele>101.0</ele><time>2026-04-04T20:50:30.285Z</time></trkpt><trkpt lat="33.7216333" lon="10.0152717"><ele>101.0</ele><time>2026-04-04T20:50:31.286Z</time></trkpt><trkpt lat="33.7214267" lon="10.01527"><ele>101.0</ele><time>2026-04-04T20:50:32.285Z</time></trkpt><trkpt lat="33.721215" lon="10.01527"><ele>101.0</ele><time>2026-04-04T20:50:33.286Z</time></trkpt><trkpt lat="33.7210017" lon="10.0152683"><ele>100.66666666666666</ele><time>2026-04-04T20:50:34.284Z</time></trkpt><trkpt lat="33.7207867" lon="10.0152667"><ele>100.33333333333334</ele><time>2026-04-04T20:50:35.283Z</time></trkpt><trkpt lat="33.72057" lon="10.0152667"><ele>100.0</ele><time>2026-04-04T20:50:36.283Z</time></trkpt><trkpt lat="33.72035" lon="10.0152683"><ele>100.66666666666667</ele><time>2026-04-04T20:50:37.283Z</time></trkpt><trkpt lat="33.7201317" lon="10.01527"><ele>101.33333333333334</ele><time>2026-04-04T20:50:38.284Z</time></trkpt><trkpt lat="33.7199117" lon="10.0152717"><ele>102.0</ele><time>2026-04-04T20:50:39.283Z</time></trkpt><trkpt lat="33.71969" lon="10.0152717"><ele>102.0</ele><time>2026-04-04T20:50:40.283Z</time></trkpt><trkpt lat="33.7194683" lon="10.0152717"><ele>102.0</ele><time>2026-04-04T20:50:41.284Z</time></trkpt><trkpt lat="33.7192467" lon="10.0152717"><ele>102.0</ele><time>2026-04-04T20:50:42.283Z</time></trkpt><trkpt lat="33.719025" lon="10.0152733"><ele>102.33333333333334</ele><time>2026-04-04T20:50:43.284Z</time></trkpt><trkpt lat="33.7188067" lon="10.0152733"><ele>102.66666666666667</ele><time>2026-04-04T20:50:44.283Z</time></trkpt><trkpt lat="33.718595" lon="10.015275"><ele>103.0</ele><time>2026-04-04T20:50:45.284Z</time></trkpt><trkpt lat="33.718385" lon="10.0152767"><ele>102.33333333333334</ele><time>2026-04-04T20:50:46.285Z</time></trkpt><trkpt lat="33.7181767" lon="10.015275"><ele>101.66666666666666</ele><time>2026-04-04T20:50:47.285Z</time></trkpt><trkpt lat="33.7179683" lon="10.015275"><ele>101.0</ele><time>2026-04-04T20:50:48.284Z</time></trkpt><trkpt lat="33.71776" lon="10.0152767"><ele>101.66666666666666</ele><time>2026-04-04T20:50:49.284Z</time></trkpt><trkpt lat="33.71755" lon="10.0152783"><ele>102.33333333333334</ele><time>2026-04-04T20:50:50.284Z</time></trkpt><trkpt lat="33.71734" lon="10.0152783"><ele>103.0</ele><time>2026-04-04T20:50:51.285Z</time></trkpt><trkpt lat="33.71713" lon="10.0152817"><ele>103.0</ele><time>2026-04-04T20:50:52.284Z</time></trkpt><trkpt lat="33.71692" lon="10.015285"><ele>103.0</ele><time>2026-04-04T20:50:53.284Z</time></trkpt><trkpt lat="33.7167133" lon="10.01529"><ele>103.0</ele><time>2026-04-04T20:50:54.284Z</time></trkpt><trkpt lat="33.7165033" lon="10.01529"><ele>103.66666666666667</ele><time>2026-04-04T20:50:55.284Z</time></trkpt><trkpt lat="33.716295" lon="10.0152917"><ele>104.33333333333334</ele><time>2026-04-04T20:50:56.284Z</time></trkpt><trkpt lat="33.7160883" lon="10.0152933"><ele>105.0</ele><time>2026-04-04T20:50:57.285Z</time></trkpt><trkpt lat="33.7158833" lon="10.0152967"><ele>105.0</ele><time>2026-04-04T20:50:58.284Z</time></trkpt><trkpt lat="33.71568" lon="10.0152983"><ele>105.0</ele><time>2026-04-04T20:50:59.285Z</time></trkpt><trkpt lat="33.7154783" lon="10.0152967"><ele>105.0</ele><time>2026-04-04T20:51:00.285Z</time></trkpt><trkpt lat="33.715275" lon="10.015295"><ele>104.66666666666666</ele><time>2026-04-04T20:51:01.285Z</time></trkpt><trkpt lat="33.71507" lon="10.0152917"><ele>104.33333333333333</ele><time>2026-04-04T20:51:02.286Z</time></trkpt><trkpt lat="33.714865" lon="10.01529"><ele>104.0</ele><time>2026-04-04T20:51:03.282Z</time></trkpt><trkpt lat="33.7146617" lon="10.0152917"><ele>104.0</ele><time>2026-04-04T20:51:04.283Z</time></trkpt><trkpt lat="33.7144617" lon="10.015295"><ele>104.0</ele><time>2026-04-04T20:51:05.282Z</time></trkpt><trkpt lat="33.7142583" lon="10.0152967"><ele>104.0</ele><time>2026-04-04T20:51:06.283Z</time></trkpt><trkpt lat="33.7140533" lon="10.015295"><ele>104.0</ele><time>2026-04-04T20:51:07.282Z</time></trkpt><trkpt lat="33.7138483" lon="10.015295"><ele>104.0</ele><time>2026-04-04T20:51:08.283Z</time></trkpt><trkpt lat="33.71364" lon="10.0152967"><ele>104.0</ele><time>2026-04-04T20:51:09.283Z</time></trkpt><trkpt lat="33.7134317" lon="10.0152983"><ele>104.0</ele><time>2026-04-04T20:51:10.283Z</time></trkpt><trkpt lat="33.7132183" lon="10.0153017"><ele>104.0</ele><time>2026-04-04T20:51:11.283Z</time></trkpt><trkpt lat="33.7130067" lon="10.0153"><ele>104.0</ele><time>2026-04-04T20:51:12.283Z</time></trkpt><trkpt lat="33.7127917" lon="10.0152967"><ele>103.66666666666666</ele><time>2026-04-04T20:51:13.282Z</time></trkpt><trkpt lat="33.712575" lon="10.015295"><ele>103.33333333333334</ele><time>2026-04-04T20:51:14.283Z</time></trkpt><trkpt lat="33.7123567" lon="10.0152933"><ele>103.0</ele><time>2026-04-04T20:51:15.285Z</time></trkpt><trkpt lat="33.7121383" lon="10.0152917"><ele>103.0</ele><time>2026-04-04T20:51:16.285Z</time></trkpt><trkpt lat="33.7119167" lon="10.0152933"><ele>103.0</ele><time>2026-04-04T20:51:17.286Z</time></trkpt><trkpt lat="33.7116933" lon="10.015295"><ele>103.0</ele><time>2026-04-04T20:51:18.285Z</time></trkpt><trkpt lat="33.7114717" lon="10.0152967"><ele>103.33333333333334</ele><time>2026-04-04T20:51:19.285Z</time></trkpt><trkpt lat="33.7112517" lon="10.0152983"><ele>103.66666666666666</ele><time>2026-04-04T20:51:20.285Z</time></trkpt><trkpt lat="33.71103" lon="10.0153017"><ele>104.0</ele><time>2026-04-04T20:51:21.286Z</time></trkpt><trkpt lat="33.7108083" lon="10.0153033"><ele>104.66666666666666</ele><time>2026-04-04T20:51:22.285Z</time></trkpt><trkpt lat="33.7105883" lon="10.015305"><ele>105.33333333333334</ele><time>2026-04-04T20:51:23.286Z</time></trkpt><trkpt lat="33.71037" lon="10.015305"><ele>106.0</ele><time>2026-04-04T20:51:24.284Z</time></trkpt><trkpt lat="33.7101533" lon="10.015305"><ele>106.0</ele><time>2026-04-04T20:51:25.285Z</time></trkpt><trkpt lat="33.7099367" lon="10.0153017"><ele>106.0</ele><time>2026-04-04T20:51:26.285Z</time></trkpt><trkpt lat="33.7097217" lon="10.0153017"><ele>106.0</ele><time>2026-04-04T20:51:27.285Z</time></trkpt><trkpt lat="33.70951" lon="10.0153017"><ele>105.66666666666667</ele><time>2026-04-04T20:51:28.285Z</time></trkpt><trkpt lat="33.7093" lon="10.0153033"><ele>105.33333333333334</ele><time>2026-04-04T20:51:29.285Z</time></trkpt><trkpt lat="33.7090883" lon="10.0153033"><ele>105.0</ele><time>2026-04-04T20:51:30.284Z</time></trkpt><trkpt lat="33.7088783" lon="10.0153067"><ele>105.0</ele><time>2026-04-04T20:51:31.285Z</time></trkpt><trkpt lat="33.7086683" lon="10.015305"><ele>105.0</ele><time>2026-04-04T20:51:32.285Z</time></trkpt><trkpt lat="33.708455" lon="10.015305"><ele>105.0</ele><time>2026-04-04T20:51:33.281Z</time></trkpt><trkpt lat="33.70824" lon="10.015305"><ele>105.33333333333334</ele><time>2026-04-04T20:51:34.282Z</time></trkpt><trkpt lat="33.7080217" lon="10.0153067"><ele>105.66666666666667</ele><time>2026-04-04T20:51:35.283Z</time></trkpt><trkpt lat="33.7078017" lon="10.0153083"><ele>106.0</ele><time>2026-04-04T20:51:36.282Z</time></trkpt><trkpt lat="33.70758" lon="10.01531"><ele>105.33333333333334</ele><time>2026-04-04T20:51:37.283Z</time></trkpt><trkpt lat="33.7073567" lon="10.01531"><ele>104.66666666666666</ele><time>2026-04-04T20:51:38.282Z</time></trkpt><trkpt lat="33.7071317" lon="10.01531"><ele>104.0</ele><time>2026-04-04T20:51:39.282Z</time></trkpt><trkpt lat="33.7069067" lon="10.0153083"><ele>104.0</ele><time>2026-04-04T20:51:40.286Z</time></trkpt><trkpt lat="33.70668" lon="10.0153067"><ele>104.0</ele><time>2026-04-04T20:51:41.286Z</time></trkpt><trkpt lat="33.7064533" lon="10.0153083"><ele>104.0</ele><time>2026-04-04T20:51:42.286Z</time></trkpt><trkpt lat="33.7062267" lon="10.0153117"><ele>104.0</ele><time>2026-04-04T20:51:43.286Z</time></trkpt><trkpt lat="33.7060017" lon="10.0153133"><ele>104.5</ele><time>2026-04-04T20:51:44.285Z</time></trkpt><trkpt lat="33.7057767" lon="10.015315"><ele>105.0</ele><time>2026-04-04T20:51:45.286Z</time></trkpt><trkpt lat="33.7055517" lon="10.0153183"><ele>105.0</ele><time>2026-04-04T20:51:46.285Z</time></trkpt><trkpt lat="33.7053267" lon="10.01532"><ele>105.0</ele><time>2026-04-04T20:51:47.285Z</time></trkpt><trkpt lat="33.7051" lon="10.01532"><ele>103.5</ele><time>2026-04-04T20:51:48.285Z</time></trkpt><trkpt lat="33.7048683" lon="10.0153183"><ele>102.0</ele><time>2026-04-04T20:51:49.285Z</time></trkpt><trkpt lat="33.704635" lon="10.0153167"><ele>101.5</ele><time>2026-04-04T20:51:50.285Z</time></trkpt><trkpt lat="33.7044033" lon="10.0153167"><ele>101.0</ele><time>2026-04-04T20:51:51.285Z</time></trkpt><trkpt lat="33.7041733" lon="10.015315"><ele>101.0</ele><time>2026-04-04T20:51:52.285Z</time></trkpt><trkpt lat="33.7039433" lon="10.0153167"><ele>101.0</ele><time>2026-04-04T20:51:53.286Z</time></trkpt><trkpt lat="33.7037117" lon="10.01532"><ele>101.5</ele><time>2026-04-04T20:51:54.285Z</time></trkpt><trkpt lat="33.7034833" lon="10.0153217"><ele>102.0</ele><time>2026-04-04T20:51:55.283Z</time></trkpt><trkpt lat="33.703255" lon="10.0153217"><ele>102.0</ele><time>2026-04-04T20:51:56.286Z</time></trkpt><trkpt lat="33.703025" lon="10.0153233"><ele>102.0</ele><time>2026-04-04T20:51:57.285Z</time></trkpt><trkpt lat="33.7027967" lon="10.0153233"><ele>102.0</ele><time>2026-04-04T20:51:58.282Z</time></trkpt><trkpt lat="33.702575" lon="10.0153217"><ele>102.0</ele><time>2026-04-04T20:51:59.285Z</time></trkpt><trkpt lat="33.7023617" lon="10.0153217"><ele>102.0</ele><time>2026-04-04T20:52:00.285Z</time></trkpt><trkpt lat="33.7021483" lon="10.0153217"><ele>102.0</ele><time>2026-04-04T20:52:01.285Z</time></trkpt><trkpt lat="33.7019283" lon="10.015325"><ele>102.0</ele><time>2026-04-04T20:52:02.285Z</time></trkpt><trkpt lat="33.701705" lon="10.0153267"><ele>102.0</ele><time>2026-04-04T20:52:03.282Z</time></trkpt><trkpt lat="33.7014783" lon="10.0153283"><ele>102.5</ele><time>2026-04-04T20:52:04.283Z</time></trkpt><trkpt lat="33.7012483" lon="10.01533"><ele>103.0</ele><time>2026-04-04T20:52:05.282Z</time></trkpt><trkpt lat="33.70102" lon="10.01533"><ele>103.66666666666667</ele><time>2026-04-04T20:52:06.283Z</time></trkpt><trkpt lat="33.700795" lon="10.01533"><ele>104.33333333333334</ele><time>2026-04-04T20:52:07.283Z</time></trkpt><trkpt lat="33.700575" lon="10.01533"><ele>105.0</ele><time>2026-04-04T20:52:08.283Z</time></trkpt><trkpt lat="33.700355" lon="10.01533"><ele>105.33333333333334</ele><time>2026-04-04T20:52:09.282Z</time></trkpt><trkpt lat="33.7001367" lon="10.01533"><ele>105.66666666666667</ele><time>2026-04-04T20:52:10.286Z</time></trkpt><trkpt lat="33.6999183" lon="10.01533"><ele>106.0</ele><time>2026-04-04T20:52:11.284Z</time></trkpt><trkpt lat="33.6997033" lon="10.0153317"><ele>106.0</ele><time>2026-04-04T20:52:12.285Z</time></trkpt><trkpt lat="33.6994883" lon="10.0153333"><ele>106.0</ele><time>2026-04-04T20:52:13.286Z</time></trkpt><trkpt lat="33.69928" lon="10.01533"><ele>106.0</ele><time>2026-04-04T20:52:14.285Z</time></trkpt><trkpt lat="33.6990783" lon="10.01533"><ele>106.0</ele><time>2026-04-04T20:52:15.286Z</time></trkpt><trkpt lat="33.6988783" lon="10.01533"><ele>106.0</ele><time>2026-04-04T20:52:16.285Z</time></trkpt><trkpt lat="33.69868" lon="10.0153283"><ele>106.0</ele><time>2026-04-04T20:52:17.285Z</time></trkpt><trkpt lat="33.69848" lon="10.0153283"><ele>106.66666666666667</ele><time>2026-04-04T20:52:18.285Z</time></trkpt><trkpt lat="33.6982817" lon="10.0153283"><ele>107.33333333333334</ele><time>2026-04-04T20:52:19.285Z</time></trkpt><trkpt lat="33.6980817" lon="10.0153317"><ele>108.0</ele><time>2026-04-04T20:52:20.286Z</time></trkpt><trkpt lat="33.69788" lon="10.01533"><ele>108.33333333333334</ele><time>2026-04-04T20:52:21.285Z</time></trkpt><trkpt lat="33.6976783" lon="10.01533"><ele>108.66666666666667</ele><time>2026-04-04T20:52:22.285Z</time></trkpt><trkpt lat="33.6974767" lon="10.0153317"><ele>109.0</ele><time>2026-04-04T20:52:23.285Z</time></trkpt><trkpt lat="33.6972717" lon="10.015335"><ele>109.0</ele><time>2026-04-04T20:52:24.285Z</time></trkpt><trkpt lat="33.697065" lon="10.0153367"><ele>109.0</ele><time>2026-04-04T20:52:25.286Z</time></trkpt><trkpt lat="33.696855" lon="10.0153367"><ele>109.0</ele><time>2026-04-04T20:52:26.285Z</time></trkpt><trkpt lat="33.6966433" lon="10.015335"><ele>109.0</ele><time>2026-04-04T20:52:27.285Z</time></trkpt><trkpt lat="33.69643" lon="10.015335"><ele>109.0</ele><time>2026-04-04T20:52:28.285Z</time></trkpt><trkpt lat="33.696215" lon="10.015335"><ele>109.0</ele><time>2026-04-04T20:52:29.286Z</time></trkpt><trkpt lat="33.6959967" lon="10.0153383"><ele>109.0</ele><time>2026-04-04T20:52:30.285Z</time></trkpt><trkpt lat="33.695775" lon="10.0153383"><ele>109.0</ele><time>2026-04-04T20:52:31.285Z</time></trkpt><trkpt lat="33.6955517" lon="10.0153383"><ele>109.0</ele><time>2026-04-04T20:52:32.285Z</time></trkpt><trkpt lat="33.6953283" lon="10.0153383"><ele>109.33333333333334</ele><time>2026-04-04T20:52:33.287Z</time></trkpt><trkpt lat="33.6951067" lon="10.01534"><ele>109.66666666666666</ele><time>2026-04-04T20:52:34.286Z</time></trkpt><trkpt lat="33.6948833" lon="10.0153417"><ele>110.0</ele><time>2026-04-04T20:52:35.285Z</time></trkpt><trkpt lat="33.6946617" lon="10.0153433"><ele>110.0</ele><time>2026-04-04T20:52:36.286Z</time></trkpt><trkpt lat="33.6944367" lon="10.015345"><ele>110.0</ele><time>2026-04-04T20:52:37.285Z</time></trkpt><trkpt lat="33.6942133" lon="10.0153467"><ele>110.0</ele><time>2026-04-04T20:52:38.285Z</time></trkpt><trkpt lat="33.69399" lon="10.01535"><ele>110.0</ele><time>2026-04-04T20:52:39.285Z</time></trkpt><trkpt lat="33.6937667" lon="10.0153533"><ele>110.0</ele><time>2026-04-04T20:52:40.285Z</time></trkpt><trkpt lat="33.6935433" lon="10.0153533"><ele>110.0</ele><time>2026-04-04T20:52:41.286Z</time></trkpt><trkpt lat="33.69332" lon="10.0153517"><ele>110.66666666666666</ele><time>2026-04-04T20:52:42.285Z</time></trkpt><trkpt lat="33.6930983" lon="10.01535"><ele>111.33333333333334</ele><time>2026-04-04T20:52:43.285Z</time></trkpt><trkpt lat="33.692875" lon="10.01535"><ele>112.0</ele><time>2026-04-04T20:52:44.285Z</time></trkpt><trkpt lat="33.692655" lon="10.0153483"><ele>112.0</ele><time>2026-04-04T20:52:45.285Z</time></trkpt><trkpt lat="33.692435" lon="10.0153467"><ele>112.0</ele><time>2026-04-04T20:52:46.285Z</time></trkpt><trkpt lat="33.692215" lon="10.0153467"><ele>112.0</ele><time>2026-04-04T20:52:47.286Z</time></trkpt><trkpt lat="33.6919967" lon="10.015345"><ele>112.33333333333334</ele><time>2026-04-04T20:52:48.286Z</time></trkpt><trkpt lat="33.6917767" lon="10.015345"><ele>112.66666666666666</ele><time>2026-04-04T20:52:49.285Z</time></trkpt><trkpt lat="33.6915583" lon="10.015345"><ele>113.0</ele><time>2026-04-04T20:52:50.285Z</time></trkpt><trkpt lat="33.6913383" lon="10.015345"><ele>113.0</ele><time>2026-04-04T20:52:51.285Z</time></trkpt><trkpt lat="33.6911183" lon="10.0153467"><ele>113.0</ele><time>2026-04-04T20:52:52.285Z</time></trkpt><trkpt lat="33.6908983" lon="10.0153483"><ele>113.0</ele><time>2026-04-04T20:52:53.285Z</time></trkpt><trkpt lat="33.6906783" lon="10.0153517"><ele>113.0</ele><time>2026-04-04T20:52:54.285Z</time></trkpt><trkpt lat="33.6904583" lon="10.015355"><ele>113.0</ele><time>2026-04-04T20:52:55.285Z</time></trkpt><trkpt lat="33.690235" lon="10.0153583"><ele>113.0</ele><time>2026-04-04T20:52:56.284Z</time></trkpt><trkpt lat="33.6900133" lon="10.0153533"><ele>114.0</ele><time>2026-04-04T20:52:57.285Z</time></trkpt><trkpt lat="33.6897867" lon="10.015355"><ele>115.0</ele><time>2026-04-04T20:52:58.285Z</time></trkpt><trkpt lat="33.6895583" lon="10.015355"><ele>115.0</ele><time>2026-04-04T20:52:59.285Z</time></trkpt><trkpt lat="33.6893333" lon="10.0153533"><ele>115.0</ele><time>2026-04-04T20:53:00.286Z</time></trkpt><trkpt lat="33.6891033" lon="10.0153533"><ele>115.0</ele><time>2026-04-04T20:53:01.287Z</time></trkpt><trkpt lat="33.6888733" lon="10.0153533"><ele>115.0</ele><time>2026-04-04T20:53:02.286Z</time></trkpt><trkpt lat="33.6886483" lon="10.0153483"><ele>116.0</ele><time>2026-04-04T20:53:03.285Z</time></trkpt><trkpt lat="33.6884233" lon="10.0153483"><ele>117.0</ele><time>2026-04-04T20:53:04.285Z</time></trkpt><trkpt lat="33.6881983" lon="10.0153483"><ele>117.0</ele><time>2026-04-04T20:53:05.286Z</time></trkpt><trkpt lat="33.6879733" lon="10.0153483"><ele>117.0</ele><time>2026-04-04T20:53:06.286Z</time></trkpt><trkpt lat="33.68775" lon="10.01535"><ele>117.0</ele><time>2026-04-04T20:53:07.285Z</time></trkpt><trkpt lat="33.6875267" lon="10.01535"><ele>117.0</ele><time>2026-04-04T20:53:08.288Z</time></trkpt><trkpt lat="33.6873033" lon="10.01535"><ele>117.0</ele><time>2026-04-04T20:53:09.285Z</time></trkpt><trkpt lat="33.68708" lon="10.0153517"><ele>117.0</ele><time>2026-04-04T20:53:10.285Z</time></trkpt><trkpt lat="33.6868533" lon="10.0153517"><ele>117.5</ele><time>2026-04-04T20:53:11.286Z</time></trkpt><trkpt lat="33.6866267" lon="10.01535"><ele>118.0</ele><time>2026-04-04T20:53:12.286Z</time></trkpt><trkpt lat="33.6863983" lon="10.01535"><ele>118.0</ele><time>2026-04-04T20:53:13.286Z</time></trkpt><trkpt lat="33.6861733" lon="10.01535"><ele>118.0</ele><time>2026-04-04T20:53:14.286Z</time></trkpt><trkpt lat="33.6859533" lon="10.0153533"><ele>118.0</ele><time>2026-04-04T20:53:15.285Z</time></trkpt><trkpt lat="33.6857417" lon="10.0153567"><ele>117.66666666666667</ele><time>2026-04-04T20:53:16.285Z</time></trkpt><trkpt lat="33.6855317" lon="10.01536"><ele>117.33333333333334</ele><time>2026-04-04T20:53:17.285Z</time></trkpt><trkpt lat="33.6853217" lon="10.01536"><ele>117.0</ele><time>2026-04-04T20:53:18.285Z</time></trkpt><trkpt lat="33.6851133" lon="10.01536"><ele>118.0</ele><time>2026-04-04T20:53:19.285Z</time></trkpt><trkpt lat="33.6849083" lon="10.0153617"><ele>119.0</ele><time>2026-04-04T20:53:20.285Z</time></trkpt><trkpt lat="33.6847067" lon="10.01536"><ele>120.0</ele><time>2026-04-04T20:53:21.285Z</time></trkpt><trkpt lat="33.6845033" lon="10.0153583"><ele>119.66666666666666</ele><time>2026-04-04T20:53:22.286Z</time></trkpt><trkpt lat="33.6842983" lon="10.0153583"><ele>119.33333333333333</ele><time>2026-04-04T20:53:23.286Z</time></trkpt><trkpt lat="33.6840967" lon="10.01536"><ele>119.0</ele><time>2026-04-04T20:53:24.286Z</time></trkpt><trkpt lat="33.6838933" lon="10.0153617"><ele>119.0</ele><time>2026-04-04T20:53:25.286Z</time></trkpt><trkpt lat="33.6836883" lon="10.0153633"><ele>119.0</ele><time>2026-04-04T20:53:26.286Z</time></trkpt><trkpt lat="33.683485" lon="10.015365"><ele>119.0</ele><time>2026-04-04T20:53:27.285Z</time></trkpt><trkpt lat="33.68328" lon="10.015365"><ele>119.0</ele><time>2026-04-04T20:53:28.286Z</time></trkpt><trkpt lat="33.6830767" lon="10.0153633"><ele>119.0</ele><time>2026-04-04T20:53:29.285Z</time></trkpt><trkpt lat="33.6828717" lon="10.015365"><ele>119.0</ele><time>2026-04-04T20:53:30.285Z</time></trkpt><trkpt lat="33.6826683" lon="10.015365"><ele>119.33333333333333</ele><time>2026-04-04T20:53:31.285Z</time></trkpt><trkpt lat="33.682465" lon="10.015365"><ele>119.66666666666666</ele><time>2026-04-04T20:53:32.286Z</time></trkpt><trkpt lat="33.682265" lon="10.015365"><ele>120.0</ele><time>2026-04-04T20:53:33.286Z</time></trkpt><trkpt lat="33.6820633" lon="10.0153633"><ele>120.0</ele><time>2026-04-04T20:53:34.286Z</time></trkpt><trkpt lat="33.68186" lon="10.0153617"><ele>120.0</ele><time>2026-04-04T20:53:35.285Z</time></trkpt><trkpt lat="33.6816517" lon="10.0153633"><ele>120.0</ele><time>2026-04-04T20:53:36.286Z</time></trkpt><trkpt lat="33.6814417" lon="10.0153667"><ele>120.0</ele><time>2026-04-04T20:53:37.285Z</time></trkpt><trkpt lat="33.6812383" lon="10.01537"><ele>120.0</ele><time>2026-04-04T20:53:38.285Z</time></trkpt><trkpt lat="33.6810383" lon="10.01537"><ele>120.0</ele><time>2026-04-04T20:53:39.285Z</time></trkpt><trkpt lat="33.6808417" lon="10.0153683"><ele>120.0</ele><time>2026-04-04T20:53:40.285Z</time></trkpt><trkpt lat="33.6806467" lon="10.0153633"><ele>120.0</ele><time>2026-04-04T20:53:41.285Z</time></trkpt><trkpt lat="33.68045" lon="10.0153617"><ele>120.0</ele><time>2026-04-04T20:53:42.285Z</time></trkpt><trkpt lat="33.68025" lon="10.01536"><ele>121.0</ele><time>2026-04-04T20:53:43.285Z</time></trkpt><trkpt lat="33.680045" lon="10.01536"><ele>122.0</ele><time>2026-04-04T20:53:44.284Z</time></trkpt><trkpt lat="33.6798433" lon="10.0153633"><ele>123.0</ele><time>2026-04-04T20:53:45.284Z</time></trkpt><trkpt lat="33.6796417" lon="10.0153633"><ele>123.0</ele><time>2026-04-04T20:53:46.284Z</time></trkpt><trkpt lat="33.6794417" lon="10.0153633"><ele>123.0</ele><time>2026-04-04T20:53:47.285Z</time></trkpt><trkpt lat="33.6792417" lon="10.0153667"><ele>123.0</ele><time>2026-04-04T20:53:48.285Z</time></trkpt><trkpt lat="33.6790467" lon="10.01537"><ele>122.66666666666666</ele><time>2026-04-04T20:53:49.285Z</time></trkpt><trkpt lat="33.67886" lon="10.0153733"><ele>122.33333333333333</ele><time>2026-04-04T20:53:50.284Z</time></trkpt><trkpt lat="33.6786817" lon="10.0153767"><ele>122.0</ele><time>2026-04-04T20:53:51.285Z</time></trkpt><trkpt lat="33.67851" lon="10.01538"><ele>121.33333333333333</ele><time>2026-04-04T20:53:52.284Z</time></trkpt><trkpt lat="33.67834" lon="10.0153817"><ele>120.66666666666666</ele><time>2026-04-04T20:53:53.284Z</time></trkpt><trkpt lat="33.6781683" lon="10.0153817"><ele>120.0</ele><time>2026-04-04T20:53:54.284Z</time></trkpt><trkpt lat="33.677995" lon="10.01538"><ele>120.0</ele><time>2026-04-04T20:53:55.284Z</time></trkpt><trkpt lat="33.6778217" lon="10.0153783"><ele>120.0</ele><time>2026-04-04T20:53:56.284Z</time></trkpt><trkpt lat="33.67765" lon="10.0153767"><ele>120.0</ele><time>2026-04-04T20:53:57.285Z</time></trkpt><trkpt lat="33.6774883" lon="10.0153783"><ele>121.25</ele><time>2026-04-04T20:53:58.284Z</time></trkpt><trkpt lat="33.6773383" lon="10.01538"><ele>122.5</ele><time>2026-04-04T20:53:59.285Z</time></trkpt><trkpt lat="33.6772033" lon="10.0153833"><ele>123.75</ele><time>2026-04-04T20:54:00.284Z</time></trkpt><trkpt lat="33.6770883" lon="10.015385"><ele>125.0</ele><time>2026-04-04T20:54:01.285Z</time></trkpt><trkpt lat="33.6769867" lon="10.0153883"><ele>125.2</ele><time>2026-04-04T20:54:02.284Z</time></trkpt><trkpt lat="33.676895" lon="10.0153867"><ele>125.4</ele><time>2026-04-04T20:54:03.285Z</time></trkpt><trkpt lat="33.6768067" lon="10.015385"><ele>125.6</ele><time>2026-04-04T20:54:04.282Z</time></trkpt><trkpt lat="33.6767217" lon="10.01538"><ele>125.8</ele><time>2026-04-04T20:54:05.285Z</time></trkpt><trkpt lat="33.67663" lon="10.0153767"><ele>126.0</ele><time>2026-04-04T20:54:06.286Z</time></trkpt><trkpt lat="33.676535" lon="10.0153717"><ele>126.0</ele><time>2026-04-04T20:54:07.284Z</time></trkpt><trkpt lat="33.6764383" lon="10.0153683"><ele>126.0</ele><time>2026-04-04T20:54:08.285Z</time></trkpt><trkpt lat="33.6763383" lon="10.0153633"><ele>126.0</ele><time>2026-04-04T20:54:09.285Z</time></trkpt><trkpt lat="33.676245" lon="10.015355"><ele>126.0</ele><time>2026-04-04T20:54:10.285Z</time></trkpt><trkpt lat="33.67616" lon="10.0153483"><ele>126.0</ele><time>2026-04-04T20:54:11.285Z</time></trkpt><trkpt lat="33.676075" lon="10.0153417"><ele>125.83333333333333</ele><time>2026-04-04T20:54:12.284Z</time></trkpt><trkpt lat="33.6759867" lon="10.0153333"><ele>125.66666666666666</ele><time>2026-04-04T20:54:13.286Z</time></trkpt><trkpt lat="33.675895" lon="10.0153217"><ele>125.5</ele><time>2026-04-04T20:54:14.284Z</time></trkpt><trkpt lat="33.6758083" lon="10.01531"><ele>125.33333333333333</ele><time>2026-04-04T20:54:15.286Z</time></trkpt><trkpt lat="33.6757233" lon="10.0152983"><ele>125.16666666666666</ele><time>2026-04-04T20:54:16.286Z</time></trkpt><trkpt lat="33.67563" lon="10.0152833"><ele>125.0</ele><time>2026-04-04T20:54:17.285Z</time></trkpt><trkpt lat="33.6755333" lon="10.0152683"><ele>125.0</ele><time>2026-04-04T20:54:18.284Z</time></trkpt><trkpt lat="33.67543" lon="10.0152533"><ele>125.0</ele><time>2026-04-04T20:54:19.285Z</time></trkpt><trkpt lat="33.67532" lon="10.0152383"><ele>125.0</ele><time>2026-04-04T20:54:20.285Z</time></trkpt><trkpt lat="33.6752033" lon="10.0152233"><ele>125.0</ele><time>2026-04-04T20:54:21.285Z</time></trkpt><trkpt lat="33.6750817" lon="10.0152067"><ele>125.5</ele><time>2026-04-04T20:54:22.285Z</time></trkpt><trkpt lat="33.6749533" lon="10.0151883"><ele>126.0</ele><time>2026-04-04T20:54:23.285Z</time></trkpt><trkpt lat="33.6748217" lon="10.01517"><ele>126.5</ele><time>2026-04-04T20:54:24.284Z</time></trkpt><trkpt lat="33.6746867" lon="10.0151483"><ele>127.0</ele><time>2026-04-04T20:54:25.286Z</time></trkpt><trkpt lat="33.6745483" lon="10.0151267"><ele>127.0</ele><time>2026-04-04T20:54:26.286Z</time></trkpt><trkpt lat="33.6744083" lon="10.0151083"><ele>127.0</ele><time>2026-04-04T20:54:27.285Z</time></trkpt><trkpt lat="33.6742667" lon="10.01509"><ele>127.0</ele><time>2026-04-04T20:54:28.286Z</time></trkpt><trkpt lat="33.67413" lon="10.01507"><ele>127.0</ele><time>2026-04-04T20:54:29.286Z</time></trkpt><trkpt lat="33.674" lon="10.0150517"><ele>127.0</ele><time>2026-04-04T20:54:30.285Z</time></trkpt><trkpt lat="33.673875" lon="10.015035"><ele>127.0</ele><time>2026-04-04T20:54:31.286Z</time></trkpt><trkpt lat="33.6737583" lon="10.015015"><ele>127.0</ele><time>2026-04-04T20:54:32.286Z</time></trkpt><trkpt lat="33.67365" lon="10.015"><ele>127.0</ele><time>2026-04-04T20:54:33.285Z</time></trkpt><trkpt lat="33.6735467" lon="10.0149867"><ele>127.0</ele><time>2026-04-04T20:54:34.285Z</time></trkpt><trkpt lat="33.6734433" lon="10.0149733"><ele>126.99999999999999</ele><time>2026-04-04T20:54:35.285Z</time></trkpt><trkpt lat="33.6733367" lon="10.0149583"><ele>126.99999999999999</ele><time>2026-04-04T20:54:36.285Z</time></trkpt><trkpt lat="33.6732233" lon="10.0149433"><ele>127.0</ele><time>2026-04-04T20:54:37.285Z</time></trkpt><trkpt lat="33.6731067" lon="10.0149283"><ele>127.0</ele><time>2026-04-04T20:54:38.285Z</time></trkpt><trkpt lat="33.6729883" lon="10.0149133"><ele>127.0</ele><time>2026-04-04T20:54:39.285Z</time></trkpt><trkpt lat="33.6728683" lon="10.0148967"><ele>127.0</ele><time>2026-04-04T20:54:40.284Z</time></trkpt><trkpt lat="33.67275" lon="10.0148783"><ele>127.0</ele><time>2026-04-04T20:54:41.284Z</time></trkpt><trkpt lat="33.67263" lon="10.0148617"><ele>127.0</ele><time>2026-04-04T20:54:42.284Z</time></trkpt><trkpt lat="33.6725083" lon="10.0148417"><ele>127.0</ele><time>2026-04-04T20:54:43.286Z</time></trkpt><trkpt lat="33.6723867" lon="10.014825"><ele>127.0</ele><time>2026-04-04T20:54:44.285Z</time></trkpt><trkpt lat="33.6722633" lon="10.0148083"><ele>127.0</ele><time>2026-04-04T20:54:45.285Z</time></trkpt><trkpt lat="33.6721383" lon="10.0147917"><ele>127.0</ele><time>2026-04-04T20:54:46.286Z</time></trkpt><trkpt lat="33.6720133" lon="10.0147717"><ele>126.75</ele><time>2026-04-04T20:54:47.285Z</time></trkpt><trkpt lat="33.6718867" lon="10.0147567"><ele>126.5</ele><time>2026-04-04T20:54:48.287Z</time></trkpt><trkpt lat="33.6717583" lon="10.01474"><ele>126.25</ele><time>2026-04-04T20:54:49.285Z</time></trkpt><trkpt lat="33.6716283" lon="10.0147233"><ele>126.0</ele><time>2026-04-04T20:54:50.285Z</time></trkpt><trkpt lat="33.6714983" lon="10.014705"><ele>126.0</ele><time>2026-04-04T20:54:51.285Z</time></trkpt><trkpt lat="33.6713667" lon="10.014685"><ele>126.0</ele><time>2026-04-04T20:54:52.285Z</time></trkpt><trkpt lat="33.6712367" lon="10.014665"><ele>126.0</ele><time>2026-04-04T20:54:53.285Z</time></trkpt><trkpt lat="33.67111" lon="10.0146467"><ele>126.0</ele><time>2026-04-04T20:54:54.286Z</time></trkpt><trkpt lat="33.6709933" lon="10.0146283"><ele>126.75</ele><time>2026-04-04T20:54:55.285Z</time></trkpt><trkpt lat="33.6708717" lon="10.0146083"><ele>127.5</ele><time>2026-04-04T20:54:56.286Z</time></trkpt><trkpt lat="33.6707333" lon="10.0145867"><ele>128.25</ele><time>2026-04-04T20:54:57.288Z</time></trkpt><trkpt lat="33.6705867" lon="10.014565"><ele>129.0</ele><time>2026-04-04T20:54:58.285Z</time></trkpt><trkpt lat="33.6704467" lon="10.0145433"><ele>129.0</ele><time>2026-04-04T20:54:59.285Z</time></trkpt><trkpt lat="33.6703167" lon="10.014525"><ele>129.0</ele><time>2026-04-04T20:55:00.286Z</time></trkpt><trkpt lat="33.670195" lon="10.0145083"><ele>129.0</ele><time>2026-04-04T20:55:01.285Z</time></trkpt><trkpt lat="33.6700833" lon="10.01449"><ele>129.0</ele><time>2026-04-04T20:55:02.285Z</time></trkpt><trkpt lat="33.66998" lon="10.0144733"><ele>128.83333333333334</ele><time>2026-04-04T20:55:03.286Z</time></trkpt><trkpt lat="33.6698833" lon="10.0144583"><ele>128.66666666666666</ele><time>2026-04-04T20:55:04.285Z</time></trkpt><trkpt lat="33.6697933" lon="10.014445"><ele>128.5</ele><time>2026-04-04T20:55:05.286Z</time></trkpt><trkpt lat="33.6697067" lon="10.0144333"><ele>128.33333333333331</ele><time>2026-04-04T20:55:06.286Z</time></trkpt><trkpt lat="33.6696283" lon="10.0144233"><ele>128.16666666666666</ele><time>2026-04-04T20:55:07.282Z</time></trkpt><trkpt lat="33.6695583" lon="10.0144183"><ele>128.0</ele><time>2026-04-04T20:55:08.285Z</time></trkpt><trkpt lat="33.6694533" lon="10.0144117"><ele>128.33333333333331</ele><time>2026-04-04T20:55:10.285Z</time></trkpt><trkpt lat="33.6693733" lon="10.0144067"><ele>128.66666666666666</ele><time>2026-04-04T20:55:12.286Z</time></trkpt><trkpt lat="33.66931" lon="10.0144"><ele>129.0</ele><time>2026-04-04T20:55:14.285Z</time></trkpt><trkpt lat="33.6692283" lon="10.01437"><ele>129.33333333333334</ele><time>2026-04-04T20:55:17.283Z</time></trkpt><trkpt lat="33.6691517" lon="10.0143367"><ele>129.66666666666669</ele><time>2026-04-04T20:55:20.282Z</time></trkpt><trkpt lat="33.6690883" lon="10.014325"><ele>130.0</ele><time>2026-04-04T20:55:22.282Z</time></trkpt><trkpt lat="33.66899" lon="10.014315"><ele>130.0</ele><time>2026-04-04T20:55:24.285Z</time></trkpt><trkpt lat="33.668885" lon="10.01431"><ele>130.0</ele><time>2026-04-04T20:55:26.282Z</time></trkpt><trkpt lat="33.668755" lon="10.0142967"><ele>130.0</ele><time>2026-04-04T20:55:28.282Z</time></trkpt><trkpt lat="33.66867" lon="10.0142883"><ele>130.0</ele><time>2026-04-04T20:55:29.282Z</time></trkpt><trkpt lat="33.6685683" lon="10.0142733"><ele>130.0</ele><time>2026-04-04T20:55:30.282Z</time></trkpt><trkpt lat="33.668455" lon="10.014255"><ele>130.2</ele><time>2026-04-04T20:55:31.287Z</time></trkpt><trkpt lat="33.66834" lon="10.0142367"><ele>130.4</ele><time>2026-04-04T20:55:32.281Z</time></trkpt><trkpt lat="33.6682267" lon="10.0142183"><ele>130.6</ele><time>2026-04-04T20:55:33.282Z</time></trkpt><trkpt lat="33.66812" lon="10.0142"><ele>130.8</ele><time>2026-04-04T20:55:34.283Z</time></trkpt><trkpt lat="33.6680183" lon="10.014185"><ele>131.0</ele><time>2026-04-04T20:55:35.282Z</time></trkpt><trkpt lat="33.667915" lon="10.0141733"><ele>131.0</ele><time>2026-04-04T20:55:36.285Z</time></trkpt><trkpt lat="33.667815" lon="10.0141567"><ele>131.0</ele><time>2026-04-04T20:55:37.283Z</time></trkpt><trkpt lat="33.667715" lon="10.014145"><ele>131.0</ele><time>2026-04-04T20:55:38.284Z</time></trkpt><trkpt lat="33.6676117" lon="10.0141317"><ele>131.0</ele><time>2026-04-04T20:55:39.283Z</time></trkpt><trkpt lat="33.6675067" lon="10.0141133"><ele>131.0</ele><time>2026-04-04T20:55:40.285Z</time></trkpt><trkpt lat="33.6673983" lon="10.0140917"><ele>131.0</ele><time>2026-04-04T20:55:41.282Z</time></trkpt><trkpt lat="33.6672867" lon="10.0140733"><ele>131.0</ele><time>2026-04-04T20:55:42.283Z</time></trkpt><trkpt lat="33.6671733" lon="10.014055"><ele>131.0</ele><time>2026-04-04T20:55:43.282Z</time></trkpt><trkpt lat="33.6670533" lon="10.01404"><ele>131.0</ele><time>2026-04-04T20:55:44.286Z</time></trkpt><trkpt lat="33.666935" lon="10.0140217"><ele>131.0</ele><time>2026-04-04T20:55:45.282Z</time></trkpt><trkpt lat="33.66682" lon="10.014005"><ele>131.0</ele><time>2026-04-04T20:55:46.286Z</time></trkpt><trkpt lat="33.6667133" lon="10.0139867"><ele>131.0</ele><time>2026-04-04T20:55:47.285Z</time></trkpt><trkpt lat="33.6666133" lon="10.0139683"><ele>131.0</ele><time>2026-04-04T20:55:48.282Z</time></trkpt><trkpt lat="33.666515" lon="10.0139533"><ele>131.0</ele><time>2026-04-04T20:55:49.284Z</time></trkpt><trkpt lat="33.6664167" lon="10.0139417"><ele>131.0</ele><time>2026-04-04T20:55:50.282Z</time></trkpt><trkpt lat="33.6663167" lon="10.0139283"><ele>131.0</ele><time>2026-04-04T20:55:51.282Z</time></trkpt><trkpt lat="33.66622" lon="10.0139133"><ele>131.0</ele><time>2026-04-04T20:55:52.283Z</time></trkpt><trkpt lat="33.666125" lon="10.0138983"><ele>131.0</ele><time>2026-04-04T20:55:53.282Z</time></trkpt><trkpt lat="33.6660267" lon="10.0138817"><ele>131.0</ele><time>2026-04-04T20:55:54.284Z</time></trkpt><trkpt lat="33.6659283" lon="10.013865"><ele>131.2</ele><time>2026-04-04T20:55:55.282Z</time></trkpt><trkpt lat="33.6658283" lon="10.0138517"><ele>131.39999999999998</ele><time>2026-04-04T20:55:56.283Z</time></trkpt><trkpt lat="33.6657333" lon="10.0138317"><ele>131.6</ele><time>2026-04-04T20:55:57.286Z</time></trkpt><trkpt lat="33.66564" lon="10.013815"><ele>131.79999999999998</ele><time>2026-04-04T20:55:58.283Z</time></trkpt><trkpt lat="33.66555" lon="10.0137983"><ele>132.0</ele><time>2026-04-04T20:55:59.285Z</time></trkpt><trkpt lat="33.6654633" lon="10.0137817"><ele>132.0</ele><time>2026-04-04T20:56:00.282Z</time></trkpt><trkpt lat="33.6653767" lon="10.0137683"><ele>132.0</ele><time>2026-04-04T20:56:01.284Z</time></trkpt><trkpt lat="33.6652933" lon="10.013755"><ele>132.0</ele><time>2026-04-04T20:56:02.283Z</time></trkpt><trkpt lat="33.6652133" lon="10.0137433"><ele>132.0</ele><time>2026-04-04T20:56:03.284Z</time></trkpt><trkpt lat="33.6651333" lon="10.01373"><ele>132.0</ele><time>2026-04-04T20:56:04.282Z</time></trkpt><trkpt lat="33.6650517" lon="10.0137133"><ele>132.0</ele><time>2026-04-04T20:56:05.285Z</time></trkpt><trkpt lat="33.6649617" lon="10.0136983"><ele>132.4</ele><time>2026-04-04T20:56:06.283Z</time></trkpt><trkpt lat="33.66487" lon="10.0136817"><ele>132.79999999999998</ele><time>2026-04-04T20:56:07.282Z</time></trkpt><trkpt lat="33.664775" lon="10.013665"><ele>133.2</ele><time>2026-04-04T20:56:08.282Z</time></trkpt><trkpt lat="33.6646767" lon="10.0136467"><ele>133.6</ele><time>2026-04-04T20:56:09.285Z</time></trkpt><trkpt lat="33.6645817" lon="10.013625"><ele>134.0</ele><time>2026-04-04T20:56:10.286Z</time></trkpt><trkpt lat="33.6644867" lon="10.0136067"><ele>134.2</ele><time>2026-04-04T20:56:11.285Z</time></trkpt><trkpt lat="33.6643983" lon="10.0135917"><ele>134.4</ele><time>2026-04-04T20:56:12.285Z</time></trkpt><trkpt lat="33.66431" lon="10.0135767"><ele>134.6</ele><time>2026-04-04T20:56:13.286Z</time></trkpt><trkpt lat="33.6642217" lon="10.0135617"><ele>134.8</ele><time>2026-04-04T20:56:14.286Z</time></trkpt><trkpt lat="33.6641267" lon="10.013545"><ele>135.0</ele><time>2026-04-04T20:56:15.285Z</time></trkpt><trkpt lat="33.66403" lon="10.0135233"><ele>135.0</ele><time>2026-04-04T20:56:16.285Z</time></trkpt><trkpt lat="33.6639267" lon="10.013505"><ele>135.0</ele><time>2026-04-04T20:56:17.285Z</time></trkpt><trkpt lat="33.663825" lon="10.0134867"><ele>135.0</ele><time>2026-04-04T20:56:18.285Z</time></trkpt><trkpt lat="33.6637217" lon="10.0134667"><ele>135.0</ele><time>2026-04-04T20:56:19.284Z</time></trkpt><trkpt lat="33.66362" lon="10.0134467"><ele>135.0</ele><time>2026-04-04T20:56:20.285Z</time></trkpt><trkpt lat="33.66352" lon="10.0134267"><ele>134.8</ele><time>2026-04-04T20:56:21.284Z</time></trkpt><trkpt lat="33.66342" lon="10.0134083"><ele>134.6</ele><time>2026-04-04T20:56:22.284Z</time></trkpt><trkpt lat="33.66332" lon="10.0133867"><ele>134.4</ele><time>2026-04-04T20:56:23.29Z</time></trkpt><trkpt lat="33.6632217" lon="10.0133683"><ele>134.2</ele><time>2026-04-04T20:56:24.284Z</time></trkpt><trkpt lat="33.6631267" lon="10.0133483"><ele>134.0</ele><time>2026-04-04T20:56:25.283Z</time></trkpt><trkpt lat="33.6630333" lon="10.01333"><ele>134.0</ele><time>2026-04-04T20:56:26.284Z</time></trkpt><trkpt lat="33.6629417" lon="10.0133133"><ele>134.0</ele><time>2026-04-04T20:56:27.283Z</time></trkpt><trkpt lat="33.66285" lon="10.0132983"><ele>134.0</ele><time>2026-04-04T20:56:28.285Z</time></trkpt><trkpt lat="33.6627617" lon="10.0132817"><ele>134.0</ele><time>2026-04-04T20:56:29.285Z</time></trkpt><trkpt lat="33.66267" lon="10.013265"><ele>134.0</ele><time>2026-04-04T20:56:30.284Z</time></trkpt><trkpt lat="33.6625783" lon="10.0132467"><ele>134.0</ele><time>2026-04-04T20:56:31.286Z</time></trkpt><trkpt lat="33.6624867" lon="10.0132283"><ele>134.0</ele><time>2026-04-04T20:56:32.285Z</time></trkpt><trkpt lat="33.6623983" lon="10.01321"><ele>134.0</ele><time>2026-04-04T20:56:33.286Z</time></trkpt><trkpt lat="33.66231" lon="10.01319"><ele>134.0</ele><time>2026-04-04T20:56:34.283Z</time></trkpt><trkpt lat="33.6622167" lon="10.01317"><ele>134.0</ele><time>2026-04-04T20:56:35.284Z</time></trkpt><trkpt lat="33.6621183" lon="10.013155"><ele>134.0</ele><time>2026-04-04T20:56:36.284Z</time></trkpt><trkpt lat="33.662015" lon="10.0131333"><ele>134.0</ele><time>2026-04-04T20:56:37.283Z</time></trkpt><trkpt lat="33.6619133" lon="10.01311"><ele>134.0</ele><time>2026-04-04T20:56:38.284Z</time></trkpt><trkpt lat="33.6618117" lon="10.01309"><ele>134.0</ele><time>2026-04-04T20:56:39.283Z</time></trkpt><trkpt lat="33.6617083" lon="10.0130683"><ele>134.0</ele><time>2026-04-04T20:56:40.286Z</time></trkpt><trkpt lat="33.6616017" lon="10.0130433"><ele>134.0</ele><time>2026-04-04T20:56:41.285Z</time></trkpt><trkpt lat="33.6614917" lon="10.0130233"><ele>134.0</ele><time>2026-04-04T20:56:42.281Z</time></trkpt><trkpt lat="33.661395" lon="10.0130067"><ele>134.0</ele><time>2026-04-04T20:56:43.284Z</time></trkpt><trkpt lat="33.6613017" lon="10.01299"><ele>134.0</ele><time>2026-04-04T20:56:44.284Z</time></trkpt><trkpt lat="33.6612033" lon="10.0129717"><ele>134.0</ele><time>2026-04-04T20:56:45.285Z</time></trkpt><trkpt lat="33.66111" lon="10.0129533"><ele>133.8</ele><time>2026-04-04T20:56:46.284Z</time></trkpt><trkpt lat="33.6610183" lon="10.0129383"><ele>133.60000000000002</ele><time>2026-04-04T20:56:47.284Z</time></trkpt><trkpt lat="33.6609283" lon="10.0129217"><ele>133.4</ele><time>2026-04-04T20:56:48.286Z</time></trkpt><trkpt lat="33.6608367" lon="10.0129033"><ele>133.20000000000002</ele><time>2026-04-04T20:56:49.284Z</time></trkpt><trkpt lat="33.6607367" lon="10.012885"><ele>133.0</ele><time>2026-04-04T20:56:50.285Z</time></trkpt><trkpt lat="33.660635" lon="10.0128617"><ele>133.0</ele><time>2026-04-04T20:56:51.285Z</time></trkpt><trkpt lat="33.6605317" lon="10.0128383"><ele>133.0</ele><time>2026-04-04T20:56:52.285Z</time></trkpt><trkpt lat="33.6604267" lon="10.0128183"><ele>133.0</ele><time>2026-04-04T20:56:53.286Z</time></trkpt><trkpt lat="33.6603167" lon="10.0127983"><ele>133.0</ele><time>2026-04-04T20:56:54.284Z</time></trkpt><trkpt lat="33.6602033" lon="10.0127767"><ele>133.0</ele><time>2026-04-04T20:56:55.284Z</time></trkpt><trkpt lat="33.66009" lon="10.0127533"><ele>133.4</ele><time>2026-04-04T20:56:56.283Z</time></trkpt><trkpt lat="33.65998" lon="10.0127283"><ele>133.8</ele><time>2026-04-04T20:56:57.287Z</time></trkpt><trkpt lat="33.6598717" lon="10.0127067"><ele>134.2</ele><time>2026-04-04T20:56:58.285Z</time></trkpt><trkpt lat="33.6597683" lon="10.0126867"><ele>134.6</ele><time>2026-04-04T20:56:59.287Z</time></trkpt><trkpt lat="33.659675" lon="10.0126683"><ele>135.0</ele><time>2026-04-04T20:57:00.287Z</time></trkpt><trkpt lat="33.65959" lon="10.0126517"><ele>135.0</ele><time>2026-04-04T20:57:01.282Z</time></trkpt><trkpt lat="33.6595033" lon="10.0126333"><ele>135.0</ele><time>2026-04-04T20:57:02.284Z</time></trkpt><trkpt lat="33.6594133" lon="10.012615"><ele>135.0</ele><time>2026-04-04T20:57:03.282Z</time></trkpt><trkpt lat="33.6593167" lon="10.0125967"><ele>135.0</ele><time>2026-04-04T20:57:04.282Z</time></trkpt><trkpt lat="33.6592167" lon="10.0125733"><ele>135.0</ele><time>2026-04-04T20:57:05.282Z</time></trkpt><trkpt lat="33.6591167" lon="10.0125533"><ele>134.83333333333334</ele><time>2026-04-04T20:57:06.282Z</time></trkpt><trkpt lat="33.65902" lon="10.0125383"><ele>134.66666666666666</ele><time>2026-04-04T20:57:07.282Z</time></trkpt><trkpt lat="33.65893" lon="10.0125317"><ele>134.5</ele><time>2026-04-04T20:57:08.282Z</time></trkpt><trkpt lat="33.6588483" lon="10.0125217"><ele>134.33333333333331</ele><time>2026-04-04T20:57:09.283Z</time></trkpt><trkpt lat="33.6587733" lon="10.0125067"><ele>134.16666666666666</ele><time>2026-04-04T20:57:10.283Z</time></trkpt><trkpt lat="33.6587017" lon="10.0124917"><ele>134.0</ele><time>2026-04-04T20:57:11.282Z</time></trkpt><trkpt lat="33.6586233" lon="10.012475"><ele>134.5</ele><time>2026-04-04T20:57:12.282Z</time></trkpt><trkpt lat="33.6585433" lon="10.0124567"><ele>135.0</ele><time>2026-04-04T20:57:13.282Z</time></trkpt><trkpt lat="33.65846" lon="10.0124367"><ele>135.5</ele><time>2026-04-04T20:57:14.282Z</time></trkpt><trkpt lat="33.658375" lon="10.0124217"><ele>136.0</ele><time>2026-04-04T20:57:15.283Z</time></trkpt><trkpt lat="33.6582833" lon="10.0124067"><ele>136.5</ele><time>2026-04-04T20:57:16.284Z</time></trkpt><trkpt lat="33.6581933" lon="10.0123883"><ele>137.0</ele><time>2026-04-04T20:57:17.282Z</time></trkpt><trkpt lat="33.6581033" lon="10.01237"><ele>137.0</ele><time>2026-04-04T20:57:18.282Z</time></trkpt><trkpt lat="33.6580133" lon="10.0123517"><ele>137.0</ele><time>2026-04-04T20:57:19.285Z</time></trkpt><trkpt lat="33.6579283" lon="10.0123367"><ele>137.0</ele><time>2026-04-04T20:57:20.286Z</time></trkpt><trkpt lat="33.6578517" lon="10.0123217"><ele>137.0</ele><time>2026-04-04T20:57:21.282Z</time></trkpt><trkpt lat="33.657785" lon="10.0123117"><ele>137.0</ele><time>2026-04-04T20:57:22.282Z</time></trkpt><trkpt lat="33.657665" lon="10.0122867"><ele>137.0</ele><time>2026-04-04T20:57:24.285Z</time></trkpt><trkpt lat="33.657545" lon="10.012255"><ele>137.0</ele><time>2026-04-04T20:57:26.286Z</time></trkpt><trkpt lat="33.6574767" lon="10.01224"><ele>137.0</ele><time>2026-04-04T20:57:27.282Z</time></trkpt><trkpt lat="33.6574033" lon="10.01223"><ele>137.0</ele><time>2026-04-04T20:57:28.285Z</time></trkpt><trkpt lat="33.657325" lon="10.01222"><ele>137.0</ele><time>2026-04-04T20:57:29.285Z</time></trkpt><trkpt lat="33.6572467" lon="10.0122067"><ele>137.0</ele><time>2026-04-04T20:57:30.285Z</time></trkpt><trkpt lat="33.6571667" lon="10.0121883"><ele>137.0</ele><time>2026-04-04T20:57:31.287Z</time></trkpt><trkpt lat="33.6570967" lon="10.0121733"><ele>137.0</ele><time>2026-04-04T20:57:32.283Z</time></trkpt><trkpt lat="33.6569817" lon="10.012145"><ele>137.0</ele><time>2026-04-04T20:57:34.283Z</time></trkpt><trkpt lat="33.6568983" lon="10.012095"><ele>137.0</ele><time>2026-04-04T20:57:36.283Z</time></trkpt><trkpt lat="33.65685" lon="10.0119667"><ele>137.0</ele><time>2026-04-04T20:57:38.282Z</time></trkpt><trkpt lat="33.6568367" lon="10.0118833"><ele>137.0</ele><time>2026-04-04T20:57:39.282Z</time></trkpt><trkpt lat="33.65683" lon="10.0117883"><ele>137.0</ele><time>2026-04-04T20:57:40.282Z</time></trkpt><trkpt lat="33.65682" lon="10.0116917"><ele>137.0</ele><time>2026-04-04T20:57:41.285Z</time></trkpt><trkpt lat="33.6568067" lon="10.01159"><ele>137.0</ele><time>2026-04-04T20:57:42.282Z</time></trkpt><trkpt lat="33.6567933" lon="10.0114867"><ele>137.0</ele><time>2026-04-04T20:57:43.282Z</time></trkpt><trkpt lat="33.65677" lon="10.01138"><ele>137.0</ele><time>2026-04-04T20:57:44.282Z</time></trkpt><trkpt lat="33.6567467" lon="10.0112717"><ele>137.0</ele><time>2026-04-04T20:57:45.282Z</time></trkpt><trkpt lat="33.65672" lon="10.0111617"><ele>137.0</ele><time>2026-04-04T20:57:46.282Z</time></trkpt><trkpt lat="33.65669" lon="10.0110533"><ele>137.0</ele><time>2026-04-04T20:57:47.282Z</time></trkpt><trkpt lat="33.656665" lon="10.01094"><ele>137.0</ele><time>2026-04-04T20:57:48.282Z</time></trkpt><trkpt lat="33.6566367" lon="10.0108283"><ele>137.0</ele><time>2026-04-04T20:57:49.283Z</time></trkpt><trkpt lat="33.6566067" lon="10.010715"><ele>137.0</ele><time>2026-04-04T20:57:50.282Z</time></trkpt><trkpt lat="33.6565783" lon="10.0106"><ele>137.0</ele><time>2026-04-04T20:57:51.284Z</time></trkpt><trkpt lat="33.6565517" lon="10.0104867"><ele>137.0</ele><time>2026-04-04T20:57:52.282Z</time></trkpt><trkpt lat="33.6565233" lon="10.01037"><ele>137.0</ele><time>2026-04-04T20:57:53.282Z</time></trkpt><trkpt lat="33.6564883" lon="10.0102483"><ele>137.0</ele><time>2026-04-04T20:57:54.283Z</time></trkpt><trkpt lat="33.6564583" lon="10.0101217"><ele>137.0</ele><time>2026-04-04T20:57:55.282Z</time></trkpt><trkpt lat="33.656425" lon="10.009995"><ele>137.79999999999998</ele><time>2026-04-04T20:57:56.282Z</time></trkpt><trkpt lat="33.6564" lon="10.0098717"><ele>138.6</ele><time>2026-04-04T20:57:57.282Z</time></trkpt><trkpt lat="33.6563683" lon="10.0097517"><ele>139.39999999999998</ele><time>2026-04-04T20:57:58.283Z</time></trkpt><trkpt lat="33.6563383" lon="10.009625"><ele>140.2</ele><time>2026-04-04T20:57:59.282Z</time></trkpt><trkpt lat="33.6563117" lon="10.0094917"><ele>141.0</ele><time>2026-04-04T20:58:00.282Z</time></trkpt><trkpt lat="33.6562833" lon="10.0093567"><ele>141.0</ele><time>2026-04-04T20:58:01.286Z</time></trkpt><trkpt lat="33.6562483" lon="10.00922"><ele>141.0</ele><time>2026-04-04T20:58:02.285Z</time></trkpt><trkpt lat="33.6562167" lon="10.0090817"><ele>141.0</ele><time>2026-04-04T20:58:03.285Z</time></trkpt><trkpt lat="33.65619" lon="10.0089383"><ele>141.0</ele><time>2026-04-04T20:58:04.284Z</time></trkpt><trkpt lat="33.6561667" lon="10.0087967"><ele>141.25</ele><time>2026-04-04T20:58:05.282Z</time></trkpt><trkpt lat="33.656145" lon="10.008655"><ele>141.5</ele><time>2026-04-04T20:58:06.285Z</time></trkpt><trkpt lat="33.656125" lon="10.0085067"><ele>141.75</ele><time>2026-04-04T20:58:07.285Z</time></trkpt><trkpt lat="33.65611" lon="10.0083517"><ele>142.0</ele><time>2026-04-04T20:58:08.286Z</time></trkpt><trkpt lat="33.6560967" lon="10.0081933"><ele>143.25</ele><time>2026-04-04T20:58:09.285Z</time></trkpt><trkpt lat="33.656085" lon="10.0080333"><ele>144.5</ele><time>2026-04-04T20:58:10.286Z</time></trkpt><trkpt lat="33.656075" lon="10.0078717"><ele>145.75</ele><time>2026-04-04T20:58:11.285Z</time></trkpt><trkpt lat="33.6560717" lon="10.0077083"><ele>147.0</ele><time>2026-04-04T20:58:12.283Z</time></trkpt><trkpt lat="33.656075" lon="10.007545"><ele>147.25</ele><time>2026-04-04T20:58:13.286Z</time></trkpt><trkpt lat="33.6560867" lon="10.00738"><ele>147.5</ele><time>2026-04-04T20:58:14.283Z</time></trkpt><trkpt lat="33.656115" lon="10.0072167"><ele>147.75</ele><time>2026-04-04T20:58:15.282Z</time></trkpt><trkpt lat="33.6561583" lon="10.0070567"><ele>148.0</ele><time>2026-04-04T20:58:16.284Z</time></trkpt><trkpt lat="33.65621" lon="10.0068967"><ele>147.33333333333334</ele><time>2026-04-04T20:58:17.283Z</time></trkpt><trkpt lat="33.656265" lon="10.0067317"><ele>146.66666666666666</ele><time>2026-04-04T20:58:18.284Z</time></trkpt><trkpt lat="33.6563167" lon="10.00656"><ele>146.0</ele><time>2026-04-04T20:58:19.283Z</time></trkpt><trkpt lat="33.6563633" lon="10.006385"><ele>146.0</ele><time>2026-04-04T20:58:20.282Z</time></trkpt><trkpt lat="33.6564033" lon="10.0062033"><ele>146.0</ele><time>2026-04-04T20:58:21.282Z</time></trkpt><trkpt lat="33.6564317" lon="10.0060167"><ele>146.0</ele><time>2026-04-04T20:58:22.284Z</time></trkpt><trkpt lat="33.65645" lon="10.0058267"><ele>146.33333333333331</ele><time>2026-04-04T20:58:23.284Z</time></trkpt><trkpt lat="33.6564617" lon="10.005635"><ele>146.66666666666666</ele><time>2026-04-04T20:58:24.284Z</time></trkpt><trkpt lat="33.6564717" lon="10.0054433"><ele>147.0</ele><time>2026-04-04T20:58:25.282Z</time></trkpt><trkpt lat="33.65648" lon="10.0052517"><ele>147.0</ele><time>2026-04-04T20:58:26.283Z</time></trkpt><trkpt lat="33.6564933" lon="10.0050633"><ele>147.0</ele><time>2026-04-04T20:58:27.282Z</time></trkpt><trkpt lat="33.6565183" lon="10.00488"><ele>147.0</ele><time>2026-04-04T20:58:28.285Z</time></trkpt><trkpt lat="33.6565633" lon="10.0046983"><ele>147.0</ele><time>2026-04-04T20:58:29.282Z</time></trkpt><trkpt lat="33.6566133" lon="10.0045167"><ele>147.0</ele><time>2026-04-04T20:58:30.285Z</time></trkpt><trkpt lat="33.65666" lon="10.0043417"><ele>147.0</ele><time>2026-04-04T20:58:31.286Z</time></trkpt><trkpt lat="33.6567017" lon="10.0041717"><ele>146.66666666666666</ele><time>2026-04-04T20:58:32.285Z</time></trkpt><trkpt lat="33.65674" lon="10.0039983"><ele>146.33333333333331</ele><time>2026-04-04T20:58:33.286Z</time></trkpt><trkpt lat="33.6567667" lon="10.0038183"><ele>146.0</ele><time>2026-04-04T20:58:34.285Z</time></trkpt><trkpt lat="33.6567867" lon="10.0036383"><ele>146.0</ele><time>2026-04-04T20:58:35.285Z</time></trkpt><trkpt lat="33.6567933" lon="10.00346"><ele>146.0</ele><time>2026-04-04T20:58:36.286Z</time></trkpt><trkpt lat="33.6567867" lon="10.0032917"><ele>146.0</ele><time>2026-04-04T20:58:37.285Z</time></trkpt><trkpt lat="33.6567683" lon="10.003125"><ele>146.0</ele><time>2026-04-04T20:58:38.285Z</time></trkpt><trkpt lat="33.6567433" lon="10.002955"><ele>146.0</ele><time>2026-04-04T20:58:39.286Z</time></trkpt><trkpt lat="33.65671" lon="10.002785"><ele>146.0</ele><time>2026-04-04T20:58:40.283Z</time></trkpt><trkpt lat="33.6566767" lon="10.0026117"><ele>146.0</ele><time>2026-04-04T20:58:41.284Z</time></trkpt><trkpt lat="33.6566383" lon="10.002435"><ele>146.0</ele><time>2026-04-04T20:58:42.282Z</time></trkpt><trkpt lat="33.6565967" lon="10.0022533"><ele>145.66666666666666</ele><time>2026-04-04T20:58:43.282Z</time></trkpt><trkpt lat="33.6565533" lon="10.0020717"><ele>145.33333333333334</ele><time>2026-04-04T20:58:44.283Z</time></trkpt><trkpt lat="33.6565083" lon="10.001885"><ele>145.0</ele><time>2026-04-04T20:58:45.284Z</time></trkpt><trkpt lat="33.6564683" lon="10.0016983"><ele>144.66666666666669</ele><time>2026-04-04T20:58:46.282Z</time></trkpt><trkpt lat="33.6564333" lon="10.0015183"><ele>144.33333333333334</ele><time>2026-04-04T20:58:47.283Z</time></trkpt><trkpt lat="33.6564" lon="10.0013383"><ele>144.0</ele><time>2026-04-04T20:58:48.283Z</time></trkpt><trkpt lat="33.6563617" lon="10.00116"><ele>144.0</ele><time>2026-04-04T20:58:49.283Z</time></trkpt><trkpt lat="33.65631" lon="10.0009917"><ele>144.0</ele><time>2026-04-04T20:58:50.282Z</time></trkpt><trkpt lat="33.656245" lon="10.0008367"><ele>144.0</ele><time>2026-04-04T20:58:51.284Z</time></trkpt><trkpt lat="33.6561633" lon="10.0006983"><ele>144.0</ele><time>2026-04-04T20:58:52.282Z</time></trkpt><trkpt lat="33.6560633" lon="10.0005717"><ele>144.0</ele><time>2026-04-04T20:58:53.282Z</time></trkpt><trkpt lat="33.6559483" lon="10.00045"><ele>144.0</ele><time>2026-04-04T20:58:54.285Z</time></trkpt><trkpt lat="33.6558267" lon="10.0003317"><ele>144.0</ele><time>2026-04-04T20:58:55.286Z</time></trkpt><trkpt lat="33.6556967" lon="10.0002133"><ele>144.0</ele><time>2026-04-04T20:58:56.285Z</time></trkpt><trkpt lat="33.655565" lon="10.000095"><ele>144.0</ele><time>2026-04-04T20:58:57.285Z</time></trkpt><trkpt lat="33.6554317" lon="9.9999783"><ele>144.0</ele><time>2026-04-04T20:58:58.286Z</time></trkpt><trkpt lat="33.6552983" lon="9.99986"><ele>145.0</ele><time>2026-04-04T20:58:59.286Z</time></trkpt><trkpt lat="33.65517" lon="9.9997367"><ele>146.0</ele><time>2026-04-04T20:59:00.285Z</time></trkpt><trkpt lat="33.6550417" lon="9.9996117"><ele>147.0</ele><time>2026-04-04T20:59:01.285Z</time></trkpt><trkpt lat="33.6549133" lon="9.9994867"><ele>147.0</ele><time>2026-04-04T20:59:02.285Z</time></trkpt><trkpt lat="33.6547867" lon="9.9993633"><ele>147.0</ele><time>2026-04-04T20:59:03.285Z</time></trkpt><trkpt lat="33.6546583" lon="9.9992433"><ele>147.0</ele><time>2026-04-04T20:59:04.285Z</time></trkpt><trkpt lat="33.6545333" lon="9.9991283"><ele>148.5</ele><time>2026-04-04T20:59:05.285Z</time></trkpt><trkpt lat="33.6544217" lon="9.99902"><ele>150.0</ele><time>2026-04-04T20:59:06.286Z</time></trkpt><trkpt lat="33.6543283" lon="9.998915"><ele>151.5</ele><time>2026-04-04T20:59:07.286Z</time></trkpt><trkpt lat="33.654255" lon="9.9988067"><ele>153.0</ele><time>2026-04-04T20:59:08.285Z</time></trkpt><trkpt lat="33.6542017" lon="9.9986933"><ele>153.0</ele><time>2026-04-04T20:59:09.285Z</time></trkpt><trkpt lat="33.6541633" lon="9.9985717"><ele>153.0</ele><time>2026-04-04T20:59:10.285Z</time></trkpt><trkpt lat="33.6541483" lon="9.9984383"><ele>153.0</ele><time>2026-04-04T20:59:11.282Z</time></trkpt><trkpt lat="33.65416" lon="9.9982983"><ele>153.0</ele><time>2026-04-04T20:59:12.282Z</time></trkpt><trkpt lat="33.6541983" lon="9.9981567"><ele>152.25</ele><time>2026-04-04T20:59:13.283Z</time></trkpt><trkpt lat="33.65426" lon="9.9980133"><ele>151.5</ele><time>2026-04-04T20:59:14.282Z</time></trkpt><trkpt lat="33.6543467" lon="9.9978683"><ele>150.75</ele><time>2026-04-04T20:59:15.284Z</time></trkpt><trkpt lat="33.6544433" lon="9.99772"><ele>150.0</ele><time>2026-04-04T20:59:16.282Z</time></trkpt><trkpt lat="33.654545" lon="9.9975633"><ele>148.0</ele><time>2026-04-04T20:59:17.283Z</time></trkpt><trkpt lat="33.65465" lon="9.9974"><ele>146.0</ele><time>2026-04-04T20:59:18.284Z</time></trkpt><trkpt lat="33.65476" lon="9.99723"><ele>144.0</ele><time>2026-04-04T20:59:19.283Z</time></trkpt><trkpt lat="33.6548717" lon="9.99706"><ele>144.0</ele><time>2026-04-04T20:59:20.282Z</time></trkpt><trkpt lat="33.6549817" lon="9.9968933"><ele>144.0</ele><time>2026-04-04T20:59:21.283Z</time></trkpt><trkpt lat="33.655085" lon="9.9967317"><ele>144.0</ele><time>2026-04-04T20:59:22.283Z</time></trkpt><trkpt lat="33.6551817" lon="9.99658"><ele>144.25</ele><time>2026-04-04T20:59:23.286Z</time></trkpt><trkpt lat="33.6552717" lon="9.9964383"><ele>144.5</ele><time>2026-04-04T20:59:24.282Z</time></trkpt><trkpt lat="33.6553567" lon="9.9963067"><ele>144.75</ele><time>2026-04-04T20:59:25.283Z</time></trkpt><trkpt lat="33.6554333" lon="9.9961817"><ele>145.0</ele><time>2026-04-04T20:59:26.282Z</time></trkpt><trkpt lat="33.6555017" lon="9.9960517"><ele>145.25</ele><time>2026-04-04T20:59:27.285Z</time></trkpt><trkpt lat="33.6555567" lon="9.9959183"><ele>145.5</ele><time>2026-04-04T20:59:28.286Z</time></trkpt><trkpt lat="33.6555917" lon="9.9957833"><ele>145.75</ele><time>2026-04-04T20:59:29.286Z</time></trkpt><trkpt lat="33.6556017" lon="9.9956517"><ele>146.0</ele><time>2026-04-04T20:59:30.283Z</time></trkpt><trkpt lat="33.65559" lon="9.9955233"><ele>146.0</ele><time>2026-04-04T20:59:31.285Z</time></trkpt><trkpt lat="33.655555" lon="9.9953933"><ele>146.0</ele><time>2026-04-04T20:59:32.285Z</time></trkpt><trkpt lat="33.655505" lon="9.995255"><ele>146.0</ele><time>2026-04-04T20:59:33.283Z</time></trkpt><trkpt lat="33.6554433" lon="9.99511"><ele>146.0</ele><time>2026-04-04T20:59:34.283Z</time></trkpt><trkpt lat="33.6553817" lon="9.9949533"><ele>146.33333333333331</ele><time>2026-04-04T20:59:35.284Z</time></trkpt><trkpt lat="33.6553217" lon="9.9947883"><ele>146.66666666666666</ele><time>2026-04-04T20:59:36.283Z</time></trkpt><trkpt lat="33.6552633" lon="9.9946167"><ele>147.0</ele><time>2026-04-04T20:59:37.283Z</time></trkpt><trkpt lat="33.6552133" lon="9.9944417"><ele>147.0</ele><time>2026-04-04T20:59:38.282Z</time></trkpt><trkpt lat="33.6551767" lon="9.99426"><ele>147.0</ele><time>2026-04-04T20:59:39.282Z</time></trkpt><trkpt lat="33.655145" lon="9.994075"><ele>147.0</ele><time>2026-04-04T20:59:40.282Z</time></trkpt><trkpt lat="33.6551283" lon="9.993885"><ele>148.0</ele><time>2026-04-04T20:59:41.282Z</time></trkpt><trkpt lat="33.655115" lon="9.9936933"><ele>149.0</ele><time>2026-04-04T20:59:42.284Z</time></trkpt><trkpt lat="33.65511" lon="9.9935017"><ele>150.0</ele><time>2026-04-04T20:59:43.284Z</time></trkpt><trkpt lat="33.655105" lon="9.99331"><ele>150.0</ele><time>2026-04-04T20:59:44.282Z</time></trkpt><trkpt lat="33.6551017" lon="9.99312"><ele>150.0</ele><time>2026-04-04T20:59:45.282Z</time></trkpt><trkpt lat="33.6550933" lon="9.99293"><ele>150.0</ele><time>2026-04-04T20:59:46.283Z</time></trkpt><trkpt lat="33.6550783" lon="9.9927433"><ele>150.0</ele><time>2026-04-04T20:59:47.283Z</time></trkpt><trkpt lat="33.655055" lon="9.9925533"><ele>150.0</ele><time>2026-04-04T20:59:48.283Z</time></trkpt><trkpt lat="33.6550217" lon="9.9923667"><ele>150.0</ele><time>2026-04-04T20:59:49.282Z</time></trkpt><trkpt lat="33.6549733" lon="9.992185"><ele>149.66666666666666</ele><time>2026-04-04T20:59:50.283Z</time></trkpt><trkpt lat="33.6549133" lon="9.9920117"><ele>149.33333333333331</ele><time>2026-04-04T20:59:51.282Z</time></trkpt><trkpt lat="33.654855" lon="9.9918467"><ele>149.0</ele><time>2026-04-04T20:59:52.284Z</time></trkpt><trkpt lat="33.6548017" lon="9.9916833"><ele>149.5</ele><time>2026-04-04T20:59:53.282Z</time></trkpt><trkpt lat="33.654755" lon="9.9915217"><ele>150.0</ele><time>2026-04-04T20:59:54.284Z</time></trkpt><trkpt lat="33.654725" lon="9.9913583"><ele>150.5</ele><time>2026-04-04T20:59:55.282Z</time></trkpt><trkpt lat="33.65471" lon="9.9911883"><ele>151.0</ele><time>2026-04-04T20:59:56.282Z</time></trkpt><trkpt lat="33.65471" lon="9.991005"><ele>150.66666666666669</ele><time>2026-04-04T20:59:57.283Z</time></trkpt><trkpt lat="33.6547233" lon="9.9908117"><ele>150.33333333333334</ele><time>2026-04-04T20:59:58.284Z</time></trkpt><trkpt lat="33.6547367" lon="9.9906117"><ele>150.0</ele><time>2026-04-04T20:59:59.282Z</time></trkpt><trkpt lat="33.6547433" lon="9.990405"><ele>150.0</ele><time>2026-04-04T21:00:00.283Z</time></trkpt><trkpt lat="33.6547483" lon="9.990195"><ele>150.0</ele><time>2026-04-04T21:00:01.284Z</time></trkpt><trkpt lat="33.6547467" lon="9.9899817"><ele>150.0</ele><time>2026-04-04T21:00:02.284Z</time></trkpt><trkpt lat="33.6547417" lon="9.9897717"><ele>149.66666666666666</ele><time>2026-04-04T21:00:03.285Z</time></trkpt><trkpt lat="33.654735" lon="9.98957"><ele>149.33333333333331</ele><time>2026-04-04T21:00:04.284Z</time></trkpt><trkpt lat="33.6547333" lon="9.989365"><ele>149.0</ele><time>2026-04-04T21:00:05.284Z</time></trkpt><trkpt lat="33.6547483" lon="9.989165"><ele>149.66666666666666</ele><time>2026-04-04T21:00:06.285Z</time></trkpt><trkpt lat="33.654775" lon="9.9889783"><ele>150.33333333333334</ele><time>2026-04-04T21:00:07.284Z</time></trkpt><trkpt lat="33.6548133" lon="9.988805"><ele>151.0</ele><time>2026-04-04T21:00:08.284Z</time></trkpt><trkpt lat="33.6548583" lon="9.98864"><ele>151.0</ele><time>2026-04-04T21:00:09.285Z</time></trkpt><trkpt lat="33.6548967" lon="9.98847"><ele>151.0</ele><time>2026-04-04T21:00:10.284Z</time></trkpt><trkpt lat="33.6549167" lon="9.988295"><ele>151.0</ele><time>2026-04-04T21:00:11.284Z</time></trkpt><trkpt lat="33.6549167" lon="9.988115"><ele>151.0</ele><time>2026-04-04T21:00:12.286Z</time></trkpt><trkpt lat="33.6549033" lon="9.9879317"><ele>151.33333333333334</ele><time>2026-04-04T21:00:13.282Z</time></trkpt><trkpt lat="33.6548767" lon="9.98775"><ele>151.66666666666666</ele><time>2026-04-04T21:00:14.284Z</time></trkpt><trkpt lat="33.654855" lon="9.987565"><ele>152.0</ele><time>2026-04-04T21:00:15.285Z</time></trkpt><trkpt lat="33.6548367" lon="9.9873783"><ele>152.0</ele><time>2026-04-04T21:00:16.281Z</time></trkpt><trkpt lat="33.65483" lon="9.987185"><ele>152.0</ele><time>2026-04-04T21:00:17.282Z</time></trkpt><trkpt lat="33.6548267" lon="9.9869817"><ele>152.0</ele><time>2026-04-04T21:00:18.285Z</time></trkpt><trkpt lat="33.65483" lon="9.9867717"><ele>150.66666666666666</ele><time>2026-04-04T21:00:19.284Z</time></trkpt><trkpt lat="33.6548283" lon="9.9865517"><ele>149.33333333333334</ele><time>2026-04-04T21:00:20.285Z</time></trkpt><trkpt lat="33.65482" lon="9.9863333"><ele>148.0</ele><time>2026-04-04T21:00:21.284Z</time></trkpt><trkpt lat="33.65481" lon="9.9861217"><ele>148.0</ele><time>2026-04-04T21:00:22.283Z</time></trkpt><trkpt lat="33.6548017" lon="9.9859183"><ele>148.0</ele><time>2026-04-04T21:00:23.286Z</time></trkpt><trkpt lat="33.6547883" lon="9.9857183"><ele>148.0</ele><time>2026-04-04T21:00:24.283Z</time></trkpt><trkpt lat="33.654785" lon="9.9855167"><ele>148.0</ele><time>2026-04-04T21:00:25.284Z</time></trkpt><trkpt lat="33.6547833" lon="9.985315"><ele>148.0</ele><time>2026-04-04T21:00:26.283Z</time></trkpt><trkpt lat="33.654785" lon="9.98512"><ele>148.0</ele><time>2026-04-04T21:00:27.286Z</time></trkpt><trkpt lat="33.6547883" lon="9.9849267"><ele>148.0</ele><time>2026-04-04T21:00:28.285Z</time></trkpt><trkpt lat="33.654795" lon="9.98473"><ele>148.0</ele><time>2026-04-04T21:00:29.284Z</time></trkpt><trkpt lat="33.6548017" lon="9.9845283"><ele>148.0</ele><time>2026-04-04T21:00:30.283Z</time></trkpt><trkpt lat="33.6548133" lon="9.9843217"><ele>149.33333333333334</ele><time>2026-04-04T21:00:31.285Z</time></trkpt><trkpt lat="33.6548233" lon="9.984115"><ele>150.66666666666666</ele><time>2026-04-04T21:00:32.284Z</time></trkpt><trkpt lat="33.6548317" lon="9.9839067"><ele>152.0</ele><time>2026-04-04T21:00:33.285Z</time></trkpt><trkpt lat="33.65484" lon="9.9837"><ele>152.0</ele><time>2026-04-04T21:00:34.285Z</time></trkpt><trkpt lat="33.65485" lon="9.9834917"><ele>152.0</ele><time>2026-04-04T21:00:35.285Z</time></trkpt><trkpt lat="33.6548617" lon="9.983285"><ele>152.0</ele><time>2026-04-04T21:00:36.285Z</time></trkpt><trkpt lat="33.6548667" lon="9.9830783"><ele>152.0</ele><time>2026-04-04T21:00:37.285Z</time></trkpt><trkpt lat="33.6548683" lon="9.9828767"><ele>152.0</ele><time>2026-04-04T21:00:38.285Z</time></trkpt><trkpt lat="33.6548683" lon="9.982675"><ele>152.0</ele><time>2026-04-04T21:00:39.285Z</time></trkpt><trkpt lat="33.65487" lon="9.98247"><ele>152.33333333333331</ele><time>2026-04-04T21:00:40.285Z</time></trkpt><trkpt lat="33.6548783" lon="9.982255"><ele>152.66666666666666</ele><time>2026-04-04T21:00:41.286Z</time></trkpt><trkpt lat="33.6548867" lon="9.982035"><ele>153.0</ele><time>2026-04-04T21:00:42.284Z</time></trkpt><trkpt lat="33.6549033" lon="9.98181"><ele>153.0</ele><time>2026-04-04T21:00:43.285Z</time></trkpt><trkpt lat="33.65492" lon="9.9815817"><ele>153.0</ele><time>2026-04-04T21:00:44.285Z</time></trkpt><trkpt lat="33.6549367" lon="9.98135"><ele>153.0</ele><time>2026-04-04T21:00:45.282Z</time></trkpt><trkpt lat="33.6549467" lon="9.981115"><ele>153.0</ele><time>2026-04-04T21:00:46.285Z</time></trkpt><trkpt lat="33.65496" lon="9.98087"><ele>153.0</ele><time>2026-04-04T21:00:47.285Z</time></trkpt><trkpt lat="33.6549683" lon="9.9806133"><ele>153.0</ele><time>2026-04-04T21:00:48.285Z</time></trkpt><trkpt lat="33.654975" lon="9.9803567"><ele>152.66666666666666</ele><time>2026-04-04T21:00:49.286Z</time></trkpt><trkpt lat="33.6549783" lon="9.9800983"><ele>152.33333333333331</ele><time>2026-04-04T21:00:50.282Z</time></trkpt><trkpt lat="33.65498" lon="9.9798433"><ele>152.0</ele><time>2026-04-04T21:00:51.285Z</time></trkpt><trkpt lat="33.654985" lon="9.9795933"><ele>153.33333333333331</ele><time>2026-04-04T21:00:52.285Z</time></trkpt><trkpt lat="33.65499" lon="9.9793483"><ele>154.66666666666666</ele><time>2026-04-04T21:00:53.282Z</time></trkpt><trkpt lat="33.65499" lon="9.9791"><ele>156.0</ele><time>2026-04-04T21:00:54.282Z</time></trkpt><trkpt lat="33.6549917" lon="9.97885"><ele>156.66666666666666</ele><time>2026-04-04T21:00:55.282Z</time></trkpt><trkpt lat="33.6549933" lon="9.9785983"><ele>157.33333333333331</ele><time>2026-04-04T21:00:56.282Z</time></trkpt><trkpt lat="33.6549967" lon="9.97835"><ele>158.0</ele><time>2026-04-04T21:00:57.282Z</time></trkpt><trkpt lat="33.6550017" lon="9.9781067"><ele>156.66666666666666</ele><time>2026-04-04T21:00:58.283Z</time></trkpt><trkpt lat="33.6550067" lon="9.977865"><ele>155.33333333333334</ele><time>2026-04-04T21:00:59.282Z</time></trkpt><trkpt lat="33.6550067" lon="9.9776233"><ele>154.0</ele><time>2026-04-04T21:01:00.282Z</time></trkpt><trkpt lat="33.6550033" lon="9.9773817"><ele>154.0</ele><time>2026-04-04T21:01:01.286Z</time></trkpt><trkpt lat="33.6549933" lon="9.9771417"><ele>154.0</ele><time>2026-04-04T21:01:02.285Z</time></trkpt><trkpt lat="33.6549833" lon="9.9769017"><ele>154.0</ele><time>2026-04-04T21:01:03.283Z</time></trkpt><trkpt lat="33.6549717" lon="9.9766583"><ele>154.33333333333334</ele><time>2026-04-04T21:01:04.285Z</time></trkpt><trkpt lat="33.6549667" lon="9.9764167"><ele>154.66666666666666</ele><time>2026-04-04T21:01:05.286Z</time></trkpt><trkpt lat="33.65497" lon="9.97618"><ele>155.0</ele><time>2026-04-04T21:01:06.285Z</time></trkpt><trkpt lat="33.6549883" lon="9.9759433"><ele>154.66666666666666</ele><time>2026-04-04T21:01:07.286Z</time></trkpt><trkpt lat="33.65502" lon="9.9757067"><ele>154.33333333333334</ele><time>2026-04-04T21:01:08.284Z</time></trkpt><trkpt lat="33.6550633" lon="9.97547"><ele>154.0</ele><time>2026-04-04T21:01:09.282Z</time></trkpt><trkpt lat="33.6551117" lon="9.9752433"><ele>154.0</ele><time>2026-04-04T21:01:10.284Z</time></trkpt><trkpt lat="33.65516" lon="9.9750317"><ele>154.0</ele><time>2026-04-04T21:01:11.284Z</time></trkpt><trkpt lat="33.655195" lon="9.9748317"><ele>154.0</ele><time>2026-04-04T21:01:12.285Z</time></trkpt><trkpt lat="33.655215" lon="9.9746417"><ele>154.25</ele><time>2026-04-04T21:01:13.282Z</time></trkpt><trkpt lat="33.6552183" lon="9.9744633"><ele>154.5</ele><time>2026-04-04T21:01:14.285Z</time></trkpt><trkpt lat="33.655195" lon="9.9742917"><ele>154.75</ele><time>2026-04-04T21:01:15.285Z</time></trkpt><trkpt lat="33.655155" lon="9.9741183"><ele>155.0</ele><time>2026-04-04T21:01:16.282Z</time></trkpt><trkpt lat="33.6551033" lon="9.9739383"><ele>155.0</ele><time>2026-04-04T21:01:17.284Z</time></trkpt><trkpt lat="33.65504" lon="9.9737533"><ele>155.0</ele><time>2026-04-04T21:01:18.282Z</time></trkpt><trkpt lat="33.65497" lon="9.9735683"><ele>155.0</ele><time>2026-04-04T21:01:19.284Z</time></trkpt><trkpt lat="33.6548933" lon="9.97338"><ele>155.0</ele><time>2026-04-04T21:01:20.282Z</time></trkpt><trkpt lat="33.654815" lon="9.9731933"><ele>155.0</ele><time>2026-04-04T21:01:21.285Z</time></trkpt><trkpt lat="33.65473" lon="9.9730033"><ele>155.0</ele><time>2026-04-04T21:01:22.285Z</time></trkpt><trkpt lat="33.6546433" lon="9.9728117"><ele>155.0</ele><time>2026-04-04T21:01:23.284Z</time></trkpt><trkpt lat="33.654555" lon="9.9726183"><ele>155.0</ele><time>2026-04-04T21:01:24.285Z</time></trkpt><trkpt lat="33.6544683" lon="9.9724217"><ele>155.0</ele><time>2026-04-04T21:01:25.285Z</time></trkpt><trkpt lat="33.65438" lon="9.9722217"><ele>156.33333333333331</ele><time>2026-04-04T21:01:26.283Z</time></trkpt><trkpt lat="33.6543017" lon="9.9720133"><ele>157.66666666666666</ele><time>2026-04-04T21:01:27.283Z</time></trkpt><trkpt lat="33.65423" lon="9.9718"><ele>159.0</ele><time>2026-04-04T21:01:28.285Z</time></trkpt><trkpt lat="33.6541683" lon="9.9715817"><ele>159.0</ele><time>2026-04-04T21:01:29.283Z</time></trkpt><trkpt lat="33.6541233" lon="9.9713617"><ele>159.0</ele><time>2026-04-04T21:01:30.282Z</time></trkpt><trkpt lat="33.6541" lon="9.9711483"><ele>159.0</ele><time>2026-04-04T21:01:31.286Z</time></trkpt><trkpt lat="33.654095" lon="9.9709383"><ele>159.33333333333334</ele><time>2026-04-04T21:01:32.285Z</time></trkpt><trkpt lat="33.6541017" lon="9.97074"><ele>159.66666666666669</ele><time>2026-04-04T21:01:33.285Z</time></trkpt><trkpt lat="33.6541217" lon="9.97055"><ele>160.0</ele><time>2026-04-04T21:01:34.284Z</time></trkpt><trkpt lat="33.65416" lon="9.9703683"><ele>160.0</ele><time>2026-04-04T21:01:35.285Z</time></trkpt><trkpt lat="33.6542133" lon="9.9701917"><ele>160.0</ele><time>2026-04-04T21:01:36.284Z</time></trkpt><trkpt lat="33.6542617" lon="9.9700167"><ele>160.0</ele><time>2026-04-04T21:01:37.282Z</time></trkpt><trkpt lat="33.6542967" lon="9.969835"><ele>160.66666666666669</ele><time>2026-04-04T21:01:38.283Z</time></trkpt><trkpt lat="33.6543133" lon="9.9696383"><ele>161.33333333333334</ele><time>2026-04-04T21:01:39.283Z</time></trkpt><trkpt lat="33.654315" lon="9.9694317"><ele>162.0</ele><time>2026-04-04T21:01:40.284Z</time></trkpt><trkpt lat="33.6543083" lon="9.96923"><ele>161.33333333333334</ele><time>2026-04-04T21:01:41.283Z</time></trkpt><trkpt lat="33.6543083" lon="9.969035"><ele>160.66666666666669</ele><time>2026-04-04T21:01:42.285Z</time></trkpt><trkpt lat="33.65432" lon="9.9688383"><ele>160.0</ele><time>2026-04-04T21:01:43.283Z</time></trkpt><trkpt lat="33.6543483" lon="9.9686433"><ele>160.0</ele><time>2026-04-04T21:01:44.282Z</time></trkpt><trkpt lat="33.6543933" lon="9.9684483"><ele>160.0</ele><time>2026-04-04T21:01:45.283Z</time></trkpt><trkpt lat="33.6544517" lon="9.9682533"><ele>160.0</ele><time>2026-04-04T21:01:46.285Z</time></trkpt><trkpt lat="33.6545217" lon="9.9680567"><ele>160.33333333333334</ele><time>2026-04-04T21:01:47.285Z</time></trkpt><trkpt lat="33.6545933" lon="9.9678667"><ele>160.66666666666666</ele><time>2026-04-04T21:01:48.285Z</time></trkpt><trkpt lat="33.6546633" lon="9.9676917"><ele>161.0</ele><time>2026-04-04T21:01:49.285Z</time></trkpt><trkpt lat="33.65472" lon="9.96753"><ele>161.75</ele><time>2026-04-04T21:01:50.285Z</time></trkpt><trkpt lat="33.6547683" lon="9.96738"><ele>162.5</ele><time>2026-04-04T21:01:51.285Z</time></trkpt><trkpt lat="33.6548017" lon="9.96723"><ele>163.25</ele><time>2026-04-04T21:01:52.286Z</time></trkpt><trkpt lat="33.654815" lon="9.9670833"><ele>164.0</ele><time>2026-04-04T21:01:53.286Z</time></trkpt><trkpt lat="33.654805" lon="9.9669467"><ele>164.0</ele><time>2026-04-04T21:01:54.285Z</time></trkpt><trkpt lat="33.6547717" lon="9.9668183"><ele>164.0</ele><time>2026-04-04T21:01:55.282Z</time></trkpt><trkpt lat="33.6547133" lon="9.9666917"><ele>164.0</ele><time>2026-04-04T21:01:56.283Z</time></trkpt><trkpt lat="33.6546333" lon="9.966565"><ele>164.0</ele><time>2026-04-04T21:01:57.286Z</time></trkpt><trkpt lat="33.6545367" lon="9.9664383"><ele>164.33333333333331</ele><time>2026-04-04T21:01:58.285Z</time></trkpt><trkpt lat="33.65443" lon="9.966305"><ele>164.66666666666666</ele><time>2026-04-04T21:01:59.284Z</time></trkpt><trkpt lat="33.6543233" lon="9.966165"><ele>165.0</ele><time>2026-04-04T21:02:00.285Z</time></trkpt><trkpt lat="33.6542233" lon="9.96602"><ele>165.0</ele><time>2026-04-04T21:02:01.285Z</time></trkpt><trkpt lat="33.6541383" lon="9.965875"><ele>165.0</ele><time>2026-04-04T21:02:02.285Z</time></trkpt><trkpt lat="33.6540767" lon="9.9657283"><ele>165.0</ele><time>2026-04-04T21:02:03.286Z</time></trkpt><trkpt lat="33.6540283" lon="9.9655683"><ele>165.0</ele><time>2026-04-04T21:02:04.282Z</time></trkpt><trkpt lat="33.6539933" lon="9.9653933"><ele>165.33333333333334</ele><time>2026-04-04T21:02:05.283Z</time></trkpt><trkpt lat="33.6539617" lon="9.965205"><ele>165.66666666666669</ele><time>2026-04-04T21:02:06.284Z</time></trkpt><trkpt lat="33.653935" lon="9.9650067"><ele>166.0</ele><time>2026-04-04T21:02:07.284Z</time></trkpt><trkpt lat="33.65391" lon="9.9648033"><ele>166.0</ele><time>2026-04-04T21:02:08.284Z</time></trkpt><trkpt lat="33.6538883" lon="9.9646017"><ele>166.0</ele><time>2026-04-04T21:02:09.284Z</time></trkpt><trkpt lat="33.6538667" lon="9.9644033"><ele>166.0</ele><time>2026-04-04T21:02:10.283Z</time></trkpt><trkpt lat="33.6538517" lon="9.96421"><ele>166.0</ele><time>2026-04-04T21:02:11.284Z</time></trkpt><trkpt lat="33.6538433" lon="9.9640267"><ele>166.0</ele><time>2026-04-04T21:02:12.288Z</time></trkpt><trkpt lat="33.653845" lon="9.9638517"><ele>166.0</ele><time>2026-04-04T21:02:13.285Z</time></trkpt><trkpt lat="33.6538583" lon="9.9636817"><ele>166.0</ele><time>2026-04-04T21:02:14.285Z</time></trkpt><trkpt lat="33.6538883" lon="9.9635267"><ele>166.0</ele><time>2026-04-04T21:02:15.283Z</time></trkpt><trkpt lat="33.6539333" lon="9.963385"><ele>166.0</ele><time>2026-04-04T21:02:16.284Z</time></trkpt><trkpt lat="33.6539933" lon="9.9632517"><ele>166.0</ele><time>2026-04-04T21:02:17.285Z</time></trkpt><trkpt lat="33.6540717" lon="9.9631067"><ele>166.0</ele><time>2026-04-04T21:02:18.286Z</time></trkpt><trkpt lat="33.6541733" lon="9.962945"><ele>166.0</ele><time>2026-04-04T21:02:19.285Z</time></trkpt><trkpt lat="33.6542833" lon="9.9627717"><ele>166.0</ele><time>2026-04-04T21:02:20.285Z</time></trkpt><trkpt lat="33.6543983" lon="9.9625867"><ele>166.0</ele><time>2026-04-04T21:02:21.285Z</time></trkpt><trkpt lat="33.65452" lon="9.962395"><ele>166.33333333333334</ele><time>2026-04-04T21:02:22.285Z</time></trkpt><trkpt lat="33.6546383" lon="9.962205"><ele>166.66666666666666</ele><time>2026-04-04T21:02:23.285Z</time></trkpt><trkpt lat="33.6547483" lon="9.9620183"><ele>167.0</ele><time>2026-04-04T21:02:24.285Z</time></trkpt><trkpt lat="33.6548583" lon="9.961835"><ele>167.33333333333331</ele><time>2026-04-04T21:02:25.285Z</time></trkpt><trkpt lat="33.6549667" lon="9.9616483"><ele>167.66666666666666</ele><time>2026-04-04T21:02:26.286Z</time></trkpt><trkpt lat="33.65508" lon="9.96146"><ele>168.0</ele><time>2026-04-04T21:02:27.285Z</time></trkpt><trkpt lat="33.655195" lon="9.9612683"><ele>167.0</ele><time>2026-04-04T21:02:28.285Z</time></trkpt><trkpt lat="33.655315" lon="9.9610783"><ele>166.0</ele><time>2026-04-04T21:02:29.286Z</time></trkpt><trkpt lat="33.6554383" lon="9.96089"><ele>165.0</ele><time>2026-04-04T21:02:30.285Z</time></trkpt><trkpt lat="33.6555617" lon="9.9607067"><ele>165.0</ele><time>2026-04-04T21:02:31.285Z</time></trkpt><trkpt lat="33.655685" lon="9.960525"><ele>165.0</ele><time>2026-04-04T21:02:32.288Z</time></trkpt><trkpt lat="33.6558083" lon="9.9603567"><ele>165.0</ele><time>2026-04-04T21:02:33.285Z</time></trkpt><trkpt lat="33.6559267" lon="9.9602"><ele>165.0</ele><time>2026-04-04T21:02:34.282Z</time></trkpt><trkpt lat="33.6560433" lon="9.960055"><ele>165.0</ele><time>2026-04-04T21:02:35.283Z</time></trkpt><trkpt lat="33.6561633" lon="9.95992"><ele>165.0</ele><time>2026-04-04T21:02:36.283Z</time></trkpt><trkpt lat="33.6562867" lon="9.9597983"><ele>165.25</ele><time>2026-04-04T21:02:37.282Z</time></trkpt><trkpt lat="33.6564133" lon="9.959695"><ele>165.5</ele><time>2026-04-04T21:02:38.281Z</time></trkpt><trkpt lat="33.6565433" lon="9.9596117"><ele>165.75</ele><time>2026-04-04T21:02:39.282Z</time></trkpt><trkpt lat="33.65667" lon="9.9595383"><ele>166.0</ele><time>2026-04-04T21:02:40.282Z</time></trkpt><trkpt lat="33.6567917" lon="9.9594667"><ele>166.0</ele><time>2026-04-04T21:02:41.282Z</time></trkpt><trkpt lat="33.6569" lon="9.9593917"><ele>166.0</ele><time>2026-04-04T21:02:42.283Z</time></trkpt><trkpt lat="33.6569883" lon="9.95931"><ele>166.0</ele><time>2026-04-04T21:02:43.282Z</time></trkpt><trkpt lat="33.65706" lon="9.9592183"><ele>166.0</ele><time>2026-04-04T21:02:44.281Z</time></trkpt><trkpt lat="33.6571117" lon="9.959125"><ele>166.0</ele><time>2026-04-04T21:02:45.284Z</time></trkpt><trkpt lat="33.65714" lon="9.959025"><ele>166.20000000000002</ele><time>2026-04-04T21:02:46.284Z</time></trkpt><trkpt lat="33.6571517" lon="9.958915"><ele>166.4</ele><time>2026-04-04T21:02:47.284Z</time></trkpt><trkpt lat="33.6571483" lon="9.958785"><ele>166.6</ele><time>2026-04-04T21:02:48.284Z</time></trkpt><trkpt lat="33.6571367" lon="9.9586417"><ele>166.8</ele><time>2026-04-04T21:02:49.284Z</time></trkpt><trkpt lat="33.6571233" lon="9.95849"><ele>167.0</ele><time>2026-04-04T21:02:50.284Z</time></trkpt><trkpt lat="33.65711" lon="9.9583283"><ele>167.75</ele><time>2026-04-04T21:02:51.285Z</time></trkpt><trkpt lat="33.6571" lon="9.9581683"><ele>168.5</ele><time>2026-04-04T21:02:52.282Z</time></trkpt><trkpt lat="33.6570983" lon="9.9580133"><ele>169.25</ele><time>2026-04-04T21:02:53.282Z</time></trkpt><trkpt lat="33.6571033" lon="9.9578633"><ele>170.0</ele><time>2026-04-04T21:02:54.282Z</time></trkpt><trkpt lat="33.6571183" lon="9.957715"><ele>170.0</ele><time>2026-04-04T21:02:55.282Z</time></trkpt><trkpt lat="33.6571417" lon="9.9575667"><ele>170.0</ele><time>2026-04-04T21:02:56.282Z</time></trkpt><trkpt lat="33.6571767" lon="9.9574167"><ele>170.0</ele><time>2026-04-04T21:02:57.282Z</time></trkpt><trkpt lat="33.6572183" lon="9.9572617"><ele>170.0</ele><time>2026-04-04T21:02:58.282Z</time></trkpt><trkpt lat="33.6572717" lon="9.9571033"><ele>171.0</ele><time>2026-04-04T21:02:59.284Z</time></trkpt><trkpt lat="33.657335" lon="9.9569367"><ele>172.0</ele><time>2026-04-04T21:03:00.283Z</time></trkpt><trkpt lat="33.657405" lon="9.9567617"><ele>173.0</ele><time>2026-04-04T21:03:01.285Z</time></trkpt><trkpt lat="33.65748" lon="9.95658"><ele>173.0</ele><time>2026-04-04T21:03:02.285Z</time></trkpt><trkpt lat="33.6575583" lon="9.9563967"><ele>173.0</ele><time>2026-04-04T21:03:03.282Z</time></trkpt><trkpt lat="33.6576417" lon="9.9562133"><ele>173.0</ele><time>2026-04-04T21:03:04.281Z</time></trkpt><trkpt lat="33.657725" lon="9.9560317"><ele>173.0</ele><time>2026-04-04T21:03:05.282Z</time></trkpt><trkpt lat="33.657805" lon="9.95585"><ele>173.0</ele><time>2026-04-04T21:03:06.282Z</time></trkpt><trkpt lat="33.6578867" lon="9.9556733"><ele>173.0</ele><time>2026-04-04T21:03:07.281Z</time></trkpt><trkpt lat="33.6579717" lon="9.955495"><ele>173.0</ele><time>2026-04-04T21:03:08.281Z</time></trkpt><trkpt lat="33.6580567" lon="9.9553167"><ele>173.0</ele><time>2026-04-04T21:03:09.282Z</time></trkpt><trkpt lat="33.6581367" lon="9.9551317"><ele>173.0</ele><time>2026-04-04T21:03:10.281Z</time></trkpt><trkpt lat="33.6582083" lon="9.954945"><ele>172.33333333333331</ele><time>2026-04-04T21:03:11.282Z</time></trkpt><trkpt lat="33.6582633" lon="9.95476"><ele>171.66666666666666</ele><time>2026-04-04T21:03:12.283Z</time></trkpt><trkpt lat="33.6583033" lon="9.9545717"><ele>171.0</ele><time>2026-04-04T21:03:13.281Z</time></trkpt><trkpt lat="33.65833" lon="9.9543783"><ele>172.0</ele><time>2026-04-04T21:03:14.282Z</time></trkpt><trkpt lat="33.6583433" lon="9.9541783"><ele>173.0</ele><time>2026-04-04T21:03:15.282Z</time></trkpt><trkpt lat="33.6583467" lon="9.95397"><ele>174.0</ele><time>2026-04-04T21:03:16.282Z</time></trkpt><trkpt lat="33.6583467" lon="9.9537567"><ele>174.0</ele><time>2026-04-04T21:03:17.283Z</time></trkpt><trkpt lat="33.6583433" lon="9.953535"><ele>174.0</ele><time>2026-04-04T21:03:18.285Z</time></trkpt><trkpt lat="33.658345" lon="9.95331"><ele>174.0</ele><time>2026-04-04T21:03:19.285Z</time></trkpt><trkpt lat="33.6583483" lon="9.953085"><ele>174.0</ele><time>2026-04-04T21:03:20.286Z</time></trkpt><trkpt lat="33.6583567" lon="9.952855"><ele>174.0</ele><time>2026-04-04T21:03:21.286Z</time></trkpt><trkpt lat="33.658365" lon="9.952625"><ele>174.0</ele><time>2026-04-04T21:03:22.286Z</time></trkpt><trkpt lat="33.6583767" lon="9.952395"><ele>174.0</ele><time>2026-04-04T21:03:23.285Z</time></trkpt><trkpt lat="33.6583917" lon="9.952165"><ele>174.0</ele><time>2026-04-04T21:03:24.285Z</time></trkpt><trkpt lat="33.658405" lon="9.9519317"><ele>174.0</ele><time>2026-04-04T21:03:25.282Z</time></trkpt><trkpt lat="33.658415" lon="9.9516967"><ele>174.33333333333334</ele><time>2026-04-04T21:03:26.281Z</time></trkpt><trkpt lat="33.6584217" lon="9.95146"><ele>174.66666666666669</ele><time>2026-04-04T21:03:27.282Z</time></trkpt><trkpt lat="33.6584233" lon="9.9512217"><ele>175.0</ele><time>2026-04-04T21:03:28.281Z</time></trkpt><trkpt lat="33.6584217" lon="9.9509817"><ele>174.66666666666669</ele><time>2026-04-04T21:03:29.283Z</time></trkpt><trkpt lat="33.65842" lon="9.95074"><ele>174.33333333333334</ele><time>2026-04-04T21:03:30.282Z</time></trkpt><trkpt lat="33.6584217" lon="9.9504983"><ele>174.0</ele><time>2026-04-04T21:03:31.286Z</time></trkpt><trkpt lat="33.65842" lon="9.9502533"><ele>174.66666666666666</ele><time>2026-04-04T21:03:32.286Z</time></trkpt><trkpt lat="33.6584217" lon="9.9500067"><ele>175.33333333333331</ele><time>2026-04-04T21:03:33.284Z</time></trkpt><trkpt lat="33.6584183" lon="9.9497617"><ele>176.0</ele><time>2026-04-04T21:03:34.283Z</time></trkpt><trkpt lat="33.6584133" lon="9.9495183"><ele>176.0</ele><time>2026-04-04T21:03:35.282Z</time></trkpt><trkpt lat="33.6583967" lon="9.949275"><ele>176.0</ele><time>2026-04-04T21:03:36.282Z</time></trkpt><trkpt lat="33.65837" lon="9.9490333"><ele>176.0</ele><time>2026-04-04T21:03:37.282Z</time></trkpt><trkpt lat="33.6583283" lon="9.9487917"><ele>176.33333333333331</ele><time>2026-04-04T21:03:38.282Z</time></trkpt><trkpt lat="33.658275" lon="9.9485483"><ele>176.66666666666666</ele><time>2026-04-04T21:03:39.283Z</time></trkpt><trkpt lat="33.65821" lon="9.9483033"><ele>177.0</ele><time>2026-04-04T21:03:40.284Z</time></trkpt><trkpt lat="33.6581367" lon="9.9480567"><ele>177.0</ele><time>2026-04-04T21:03:41.286Z</time></trkpt><trkpt lat="33.658055" lon="9.9478183"><ele>177.0</ele><time>2026-04-04T21:03:42.283Z</time></trkpt><trkpt lat="33.6579733" lon="9.9475933"><ele>177.0</ele><time>2026-04-04T21:03:43.282Z</time></trkpt><trkpt lat="33.657895" lon="9.94738"><ele>177.66666666666666</ele><time>2026-04-04T21:03:44.282Z</time></trkpt><trkpt lat="33.6578217" lon="9.94717"><ele>178.33333333333331</ele><time>2026-04-04T21:03:45.283Z</time></trkpt><trkpt lat="33.65776" lon="9.9469617"><ele>179.0</ele><time>2026-04-04T21:03:46.282Z</time></trkpt><trkpt lat="33.6577167" lon="9.94676"><ele>179.0</ele><time>2026-04-04T21:03:47.283Z</time></trkpt><trkpt lat="33.657685" lon="9.94655"><ele>179.0</ele><time>2026-04-04T21:03:48.283Z</time></trkpt><trkpt lat="33.6576683" lon="9.9463233"><ele>179.0</ele><time>2026-04-04T21:03:49.282Z</time></trkpt><trkpt lat="33.6576567" lon="9.9460833"><ele>179.66666666666666</ele><time>2026-04-04T21:03:50.282Z</time></trkpt><trkpt lat="33.65765" lon="9.94583"><ele>180.33333333333334</ele><time>2026-04-04T21:03:51.283Z</time></trkpt><trkpt lat="33.6576417" lon="9.94557"><ele>181.0</ele><time>2026-04-04T21:03:52.283Z</time></trkpt><trkpt lat="33.657635" lon="9.945305"><ele>180.66666666666669</ele><time>2026-04-04T21:03:53.282Z</time></trkpt><trkpt lat="33.6576267" lon="9.94504"><ele>180.33333333333334</ele><time>2026-04-04T21:03:54.284Z</time></trkpt><trkpt lat="33.65762" lon="9.9447733"><ele>180.0</ele><time>2026-04-04T21:03:55.282Z</time></trkpt><trkpt lat="33.6576117" lon="9.944505"><ele>180.0</ele><time>2026-04-04T21:03:56.285Z</time></trkpt><trkpt lat="33.6576033" lon="9.9442367"><ele>180.0</ele><time>2026-04-04T21:03:57.286Z</time></trkpt><trkpt lat="33.657595" lon="9.9439667"><ele>180.0</ele><time>2026-04-04T21:03:58.284Z</time></trkpt><trkpt lat="33.6575883" lon="9.9436967"><ele>179.5</ele><time>2026-04-04T21:03:59.282Z</time></trkpt><trkpt lat="33.6575817" lon="9.9434267"><ele>179.0</ele><time>2026-04-04T21:04:00.285Z</time></trkpt><trkpt lat="33.6575733" lon="9.9431533"><ele>180.5</ele><time>2026-04-04T21:04:01.285Z</time></trkpt><trkpt lat="33.6575633" lon="9.94288"><ele>182.0</ele><time>2026-04-04T21:04:02.285Z</time></trkpt><trkpt lat="33.6575533" lon="9.9426067"><ele>184.0</ele><time>2026-04-04T21:04:03.283Z</time></trkpt><trkpt lat="33.6575433" lon="9.94233"><ele>186.0</ele><time>2026-04-04T21:04:04.283Z</time></trkpt><trkpt lat="33.657535" lon="9.9420567"><ele>186.0</ele><time>2026-04-04T21:04:05.283Z</time></trkpt><trkpt lat="33.6575283" lon="9.9417817"><ele>186.0</ele><time>2026-04-04T21:04:06.282Z</time></trkpt><trkpt lat="33.657525" lon="9.9415067"><ele>184.33333333333334</ele><time>2026-04-04T21:04:07.282Z</time></trkpt><trkpt lat="33.657525" lon="9.9412333"><ele>182.66666666666669</ele><time>2026-04-04T21:04:08.282Z</time></trkpt><trkpt lat="33.6575233" lon="9.9409683"><ele>181.0</ele><time>2026-04-04T21:04:09.282Z</time></trkpt><trkpt lat="33.65752" lon="9.940715"><ele>180.66666666666669</ele><time>2026-04-04T21:04:10.288Z</time></trkpt><trkpt lat="33.65751" lon="9.940475"><ele>180.33333333333334</ele><time>2026-04-04T21:04:11.286Z</time></trkpt><trkpt lat="33.65748" lon="9.9402483"><ele>180.0</ele><time>2026-04-04T21:04:12.285Z</time></trkpt><trkpt lat="33.657435" lon="9.9400283"><ele>180.0</ele><time>2026-04-04T21:04:13.285Z</time></trkpt><trkpt lat="33.65737" lon="9.9398083"><ele>180.0</ele><time>2026-04-04T21:04:14.284Z</time></trkpt><trkpt lat="33.6572883" lon="9.9395817"><ele>180.0</ele><time>2026-04-04T21:04:15.283Z</time></trkpt><trkpt lat="33.6571933" lon="9.939355"><ele>179.33333333333334</ele><time>2026-04-04T21:04:16.285Z</time></trkpt><trkpt lat="33.6570967" lon="9.939125"><ele>178.66666666666669</ele><time>2026-04-04T21:04:17.286Z</time></trkpt><trkpt lat="33.6569967" lon="9.9388917"><ele>178.0</ele><time>2026-04-04T21:04:18.289Z</time></trkpt><trkpt lat="33.6568967" lon="9.9386567"><ele>179.33333333333334</ele><time>2026-04-04T21:04:19.286Z</time></trkpt><trkpt lat="33.6568" lon="9.9384183"><ele>180.66666666666666</ele><time>2026-04-04T21:04:20.284Z</time></trkpt><trkpt lat="33.6567067" lon="9.9381783"><ele>182.0</ele><time>2026-04-04T21:04:21.287Z</time></trkpt><trkpt lat="33.65661" lon="9.9379367"><ele>182.0</ele><time>2026-04-04T21:04:22.285Z</time></trkpt><trkpt lat="33.6565183" lon="9.9376967"><ele>182.0</ele><time>2026-04-04T21:04:23.286Z</time></trkpt><trkpt lat="33.656425" lon="9.9374583"><ele>182.0</ele><time>2026-04-04T21:04:24.286Z</time></trkpt><trkpt lat="33.6563333" lon="9.93722"><ele>182.0</ele><time>2026-04-04T21:04:25.285Z</time></trkpt><trkpt lat="33.6562367" lon="9.936985"><ele>182.0</ele><time>2026-04-04T21:04:26.286Z</time></trkpt><trkpt lat="33.65614" lon="9.9367517"><ele>182.0</ele><time>2026-04-04T21:04:27.375Z</time></trkpt><trkpt lat="33.6560433" lon="9.936515"><ele>182.0</ele><time>2026-04-04T21:04:28.282Z</time></trkpt><trkpt lat="33.6559483" lon="9.9362783"><ele>182.0</ele><time>2026-04-04T21:04:29.285Z</time></trkpt><trkpt lat="33.6558517" lon="9.93604"><ele>182.0</ele><time>2026-04-04T21:04:30.285Z</time></trkpt><trkpt lat="33.6557617" lon="9.9357983"><ele>182.0</ele><time>2026-04-04T21:04:31.285Z</time></trkpt><trkpt lat="33.655675" lon="9.93555"><ele>182.0</ele><time>2026-04-04T21:04:32.286Z</time></trkpt><trkpt lat="33.6555983" lon="9.9352917"><ele>181.0</ele><time>2026-04-04T21:04:33.284Z</time></trkpt><trkpt lat="33.6555233" lon="9.9350233"><ele>180.0</ele><time>2026-04-04T21:04:34.285Z</time></trkpt><trkpt lat="33.6554567" lon="9.934745"><ele>180.0</ele><time>2026-04-04T21:04:35.284Z</time></trkpt><trkpt lat="33.6553933" lon="9.93446"><ele>180.0</ele><time>2026-04-04T21:04:36.286Z</time></trkpt><trkpt lat="33.6553383" lon="9.93418"><ele>179.66666666666666</ele><time>2026-04-04T21:04:37.285Z</time></trkpt><trkpt lat="33.6552917" lon="9.93391"><ele>179.33333333333331</ele><time>2026-04-04T21:04:38.283Z</time></trkpt><trkpt lat="33.65524" lon="9.9336533"><ele>179.0</ele><time>2026-04-04T21:04:39.286Z</time></trkpt><trkpt lat="33.6551933" lon="9.9334183"><ele>181.0</ele><time>2026-04-04T21:04:40.285Z</time></trkpt><trkpt lat="33.6551533" lon="9.9332033"><ele>183.0</ele><time>2026-04-04T21:04:41.286Z</time></trkpt><trkpt lat="33.6551283" lon="9.932995"><ele>185.0</ele><time>2026-04-04T21:04:42.283Z</time></trkpt><trkpt lat="33.65512" lon="9.9327883"><ele>185.0</ele><time>2026-04-04T21:04:43.283Z</time></trkpt><trkpt lat="33.6551317" lon="9.9325867"><ele>185.0</ele><time>2026-04-04T21:04:44.283Z</time></trkpt><trkpt lat="33.6551617" lon="9.93238"><ele>185.0</ele><time>2026-04-04T21:04:45.286Z</time></trkpt><trkpt lat="33.6552033" lon="9.932165"><ele>184.0</ele><time>2026-04-04T21:04:46.282Z</time></trkpt><trkpt lat="33.6552483" lon="9.9319417"><ele>183.0</ele><time>2026-04-04T21:04:47.285Z</time></trkpt><trkpt lat="33.65529" lon="9.931715"><ele>182.0</ele><time>2026-04-04T21:04:48.285Z</time></trkpt><trkpt lat="33.6553217" lon="9.93149"><ele>181.33333333333331</ele><time>2026-04-04T21:04:49.285Z</time></trkpt><trkpt lat="33.6553333" lon="9.9312633"><ele>180.66666666666666</ele><time>2026-04-04T21:04:50.285Z</time></trkpt><trkpt lat="33.6553283" lon="9.9310283"><ele>180.0</ele><time>2026-04-04T21:04:51.287Z</time></trkpt><trkpt lat="33.6553067" lon="9.9307867"><ele>180.33333333333334</ele><time>2026-04-04T21:04:52.286Z</time></trkpt><trkpt lat="33.655275" lon="9.93054"><ele>180.66666666666669</ele><time>2026-04-04T21:04:53.285Z</time></trkpt><trkpt lat="33.655235" lon="9.9302883"><ele>181.0</ele><time>2026-04-04T21:04:54.285Z</time></trkpt><trkpt lat="33.6551983" lon="9.930035"><ele>181.33333333333334</ele><time>2026-04-04T21:04:55.286Z</time></trkpt><trkpt lat="33.65517" lon="9.9297783"><ele>181.66666666666666</ele><time>2026-04-04T21:04:56.285Z</time></trkpt><trkpt lat="33.6551533" lon="9.92952"><ele>182.0</ele><time>2026-04-04T21:04:57.286Z</time></trkpt><trkpt lat="33.655135" lon="9.92927"><ele>181.66666666666666</ele><time>2026-04-04T21:04:58.286Z</time></trkpt><trkpt lat="33.6551233" lon="9.929035"><ele>181.33333333333334</ele><time>2026-04-04T21:04:59.286Z</time></trkpt><trkpt lat="33.6551183" lon="9.9288217"><ele>181.0</ele><time>2026-04-04T21:05:00.285Z</time></trkpt><trkpt lat="33.6551317" lon="9.9286233"><ele>181.0</ele><time>2026-04-04T21:05:01.285Z</time></trkpt><trkpt lat="33.65516" lon="9.92843"><ele>181.0</ele><time>2026-04-04T21:05:02.285Z</time></trkpt><trkpt lat="33.65521" lon="9.92824"><ele>181.0</ele><time>2026-04-04T21:05:03.285Z</time></trkpt><trkpt lat="33.65528" lon="9.9280417"><ele>181.0</ele><time>2026-04-04T21:05:04.285Z</time></trkpt><trkpt lat="33.655355" lon="9.9278333"><ele>181.0</ele><time>2026-04-04T21:05:05.287Z</time></trkpt><trkpt lat="33.6554283" lon="9.9276117"><ele>181.0</ele><time>2026-04-04T21:05:06.285Z</time></trkpt><trkpt lat="33.6554983" lon="9.9273767"><ele>180.0</ele><time>2026-04-04T21:05:07.288Z</time></trkpt><trkpt lat="33.655565" lon="9.9271267"><ele>179.0</ele><time>2026-04-04T21:05:08.286Z</time></trkpt><trkpt lat="33.6556233" lon="9.9268683"><ele>178.0</ele><time>2026-04-04T21:05:09.286Z</time></trkpt><trkpt lat="33.6556667" lon="9.9266017"><ele>178.0</ele><time>2026-04-04T21:05:10.285Z</time></trkpt><trkpt lat="33.6557017" lon="9.9263317"><ele>178.0</ele><time>2026-04-04T21:05:11.285Z</time></trkpt><trkpt lat="33.6557283" lon="9.9260583"><ele>177.66666666666669</ele><time>2026-04-04T21:05:12.286Z</time></trkpt><trkpt lat="33.655755" lon="9.9257917"><ele>177.33333333333334</ele><time>2026-04-04T21:05:13.287Z</time></trkpt><trkpt lat="33.655785" lon="9.9255283"><ele>177.0</ele><time>2026-04-04T21:05:14.285Z</time></trkpt><trkpt lat="33.6558183" lon="9.9252633"><ele>176.33333333333334</ele><time>2026-04-04T21:05:15.282Z</time></trkpt><trkpt lat="33.65586" lon="9.9250033"><ele>175.66666666666669</ele><time>2026-04-04T21:05:16.283Z</time></trkpt><trkpt lat="33.655905" lon="9.924745"><ele>175.0</ele><time>2026-04-04T21:05:17.286Z</time></trkpt><trkpt lat="33.6559567" lon="9.9244933"><ele>175.0</ele><time>2026-04-04T21:05:18.287Z</time></trkpt><trkpt lat="33.6560217" lon="9.9242483"><ele>175.0</ele><time>2026-04-04T21:05:19.286Z</time></trkpt><trkpt lat="33.6561" lon="9.9240083"><ele>175.0</ele><time>2026-04-04T21:05:20.285Z</time></trkpt><trkpt lat="33.6561883" lon="9.923775"><ele>175.66666666666669</ele><time>2026-04-04T21:05:21.285Z</time></trkpt><trkpt lat="33.65628" lon="9.92355"><ele>176.33333333333334</ele><time>2026-04-04T21:05:22.286Z</time></trkpt><trkpt lat="33.6563683" lon="9.9233283"><ele>177.0</ele><time>2026-04-04T21:05:23.286Z</time></trkpt><trkpt lat="33.6564583" lon="9.923105"><ele>177.0</ele><time>2026-04-04T21:05:24.285Z</time></trkpt><trkpt lat="33.6565433" lon="9.9228783"><ele>177.0</ele><time>2026-04-04T21:05:25.285Z</time></trkpt><trkpt lat="33.6566317" lon="9.9226517"><ele>177.0</ele><time>2026-04-04T21:05:26.286Z</time></trkpt><trkpt lat="33.656725" lon="9.9224283"><ele>176.66666666666666</ele><time>2026-04-04T21:05:27.285Z</time></trkpt><trkpt lat="33.6568283" lon="9.9222017"><ele>176.33333333333331</ele><time>2026-04-04T21:05:28.285Z</time></trkpt><trkpt lat="33.656945" lon="9.9219767"><ele>176.0</ele><time>2026-04-04T21:05:29.285Z</time></trkpt><trkpt lat="33.65707" lon="9.9217517"><ele>174.5</ele><time>2026-04-04T21:05:30.285Z</time></trkpt><trkpt lat="33.6572" lon="9.9215267"><ele>173.0</ele><time>2026-04-04T21:05:31.286Z</time></trkpt><trkpt lat="33.657325" lon="9.9212983"><ele>173.0</ele><time>2026-04-04T21:05:32.285Z</time></trkpt><trkpt lat="33.6574467" lon="9.9210633"><ele>173.0</ele><time>2026-04-04T21:05:33.285Z</time></trkpt><trkpt lat="33.65756" lon="9.9208183"><ele>173.0</ele><time>2026-04-04T21:05:34.287Z</time></trkpt><trkpt lat="33.6576667" lon="9.92057"><ele>173.0</ele><time>2026-04-04T21:05:35.286Z</time></trkpt><trkpt lat="33.6577717" lon="9.920325"><ele>173.0</ele><time>2026-04-04T21:05:36.285Z</time></trkpt><trkpt lat="33.6578767" lon="9.9200883"><ele>173.0</ele><time>2026-04-04T21:05:37.287Z</time></trkpt><trkpt lat="33.6579733" lon="9.919865"><ele>173.0</ele><time>2026-04-04T21:05:38.284Z</time></trkpt><trkpt lat="33.6580617" lon="9.919655"><ele>173.0</ele><time>2026-04-04T21:05:39.286Z</time></trkpt><trkpt lat="33.658135" lon="9.9194633"><ele>173.0</ele><time>2026-04-04T21:05:40.285Z</time></trkpt><trkpt lat="33.6581983" lon="9.9192817"><ele>173.0</ele><time>2026-04-04T21:05:41.284Z</time></trkpt><trkpt lat="33.65825" lon="9.9191083"><ele>172.33333333333331</ele><time>2026-04-04T21:05:42.286Z</time></trkpt><trkpt lat="33.65829" lon="9.91893"><ele>171.66666666666666</ele><time>2026-04-04T21:05:43.284Z</time></trkpt><trkpt lat="33.6583183" lon="9.9187433"><ele>171.0</ele><time>2026-04-04T21:05:44.284Z</time></trkpt><trkpt lat="33.658335" lon="9.9185433"><ele>171.0</ele><time>2026-04-04T21:05:45.284Z</time></trkpt><trkpt lat="33.65834" lon="9.918345"><ele>171.0</ele><time>2026-04-04T21:05:46.284Z</time></trkpt><trkpt lat="33.6583383" lon="9.91816"><ele>171.0</ele><time>2026-04-04T21:05:47.284Z</time></trkpt><trkpt lat="33.658335" lon="9.91799"><ele>171.0</ele><time>2026-04-04T21:05:48.284Z</time></trkpt><trkpt lat="33.6583317" lon="9.9178333"><ele>171.0</ele><time>2026-04-04T21:05:49.281Z</time></trkpt><trkpt lat="33.658325" lon="9.9176867"><ele>171.0</ele><time>2026-04-04T21:05:50.281Z</time></trkpt><trkpt lat="33.6583117" lon="9.9175417"><ele>171.0</ele><time>2026-04-04T21:05:51.286Z</time></trkpt><trkpt lat="33.65829" lon="9.9173883"><ele>171.5</ele><time>2026-04-04T21:05:52.283Z</time></trkpt><trkpt lat="33.6582583" lon="9.9172283"><ele>172.0</ele><time>2026-04-04T21:05:53.285Z</time></trkpt><trkpt lat="33.6582167" lon="9.91706"><ele>172.5</ele><time>2026-04-04T21:05:54.285Z</time></trkpt><trkpt lat="33.6581633" lon="9.916885"><ele>173.0</ele><time>2026-04-04T21:05:55.285Z</time></trkpt><trkpt lat="33.6581" lon="9.9167067"><ele>173.0</ele><time>2026-04-04T21:05:56.285Z</time></trkpt><trkpt lat="33.658035" lon="9.9165217"><ele>173.0</ele><time>2026-04-04T21:05:57.284Z</time></trkpt><trkpt lat="33.6579683" lon="9.9163283"><ele>173.0</ele><time>2026-04-04T21:05:58.284Z</time></trkpt><trkpt lat="33.6579067" lon="9.91613"><ele>173.0</ele><time>2026-04-04T21:05:59.286Z</time></trkpt><trkpt lat="33.6578433" lon="9.9159267"><ele>173.0</ele><time>2026-04-04T21:06:00.284Z</time></trkpt><trkpt lat="33.6577817" lon="9.91572"><ele>173.0</ele><time>2026-04-04T21:06:01.287Z</time></trkpt><trkpt lat="33.65772" lon="9.9155167"><ele>174.0</ele><time>2026-04-04T21:06:02.285Z</time></trkpt><trkpt lat="33.6576633" lon="9.9153183"><ele>175.0</ele><time>2026-04-04T21:06:03.285Z</time></trkpt><trkpt lat="33.6576033" lon="9.91512"><ele>176.0</ele><time>2026-04-04T21:06:04.285Z</time></trkpt><trkpt lat="33.6575467" lon="9.9149217"><ele>176.0</ele><time>2026-04-04T21:06:05.283Z</time></trkpt><trkpt lat="33.65749" lon="9.9147267"><ele>176.0</ele><time>2026-04-04T21:06:06.286Z</time></trkpt><trkpt lat="33.6574383" lon="9.9145333"><ele>176.0</ele><time>2026-04-04T21:06:07.285Z</time></trkpt><trkpt lat="33.6573867" lon="9.91435"><ele>176.5</ele><time>2026-04-04T21:06:08.286Z</time></trkpt><trkpt lat="33.6573383" lon="9.9141767"><ele>177.0</ele><time>2026-04-04T21:06:09.285Z</time></trkpt><trkpt lat="33.6572967" lon="9.9140133"><ele>177.5</ele><time>2026-04-04T21:06:10.284Z</time></trkpt><trkpt lat="33.6572533" lon="9.91386"><ele>178.0</ele><time>2026-04-04T21:06:11.284Z</time></trkpt><trkpt lat="33.6572167" lon="9.9137183"><ele>178.0</ele><time>2026-04-04T21:06:12.284Z</time></trkpt><trkpt lat="33.65718" lon="9.9135867"><ele>178.0</ele><time>2026-04-04T21:06:13.285Z</time></trkpt><trkpt lat="33.6571467" lon="9.91346"><ele>178.0</ele><time>2026-04-04T21:06:14.282Z</time></trkpt><trkpt lat="33.657115" lon="9.913345"><ele>178.0</ele><time>2026-04-04T21:06:15.285Z</time></trkpt><trkpt lat="33.657085" lon="9.91324"><ele>178.0</ele><time>2026-04-04T21:06:16.285Z</time></trkpt><trkpt lat="33.65706" lon="9.9131433"><ele>178.0</ele><time>2026-04-04T21:06:17.286Z</time></trkpt><trkpt lat="33.657035" lon="9.9130533"><ele>178.0</ele><time>2026-04-04T21:06:18.284Z</time></trkpt><trkpt lat="33.6570133" lon="9.912965"><ele>178.0</ele><time>2026-04-04T21:06:19.285Z</time></trkpt><trkpt lat="33.6569883" lon="9.9128733"><ele>178.0</ele><time>2026-04-04T21:06:20.285Z</time></trkpt><trkpt lat="33.656965" lon="9.9127767"><ele>178.0</ele><time>2026-04-04T21:06:21.284Z</time></trkpt><trkpt lat="33.6569433" lon="9.9126733"><ele>178.0</ele><time>2026-04-04T21:06:22.286Z</time></trkpt><trkpt lat="33.6569183" lon="9.9125633"><ele>178.60000000000002</ele><time>2026-04-04T21:06:23.284Z</time></trkpt><trkpt lat="33.6568967" lon="9.9124483"><ele>179.20000000000002</ele><time>2026-04-04T21:06:24.285Z</time></trkpt><trkpt lat="33.6568817" lon="9.912325"><ele>179.8</ele><time>2026-04-04T21:06:25.285Z</time></trkpt><trkpt lat="33.6568733" lon="9.9121933"><ele>180.4</ele><time>2026-04-04T21:06:26.281Z</time></trkpt><trkpt lat="33.6568767" lon="9.912055"><ele>181.0</ele><time>2026-04-04T21:06:27.283Z</time></trkpt><trkpt lat="33.6568883" lon="9.9119133"><ele>181.0</ele><time>2026-04-04T21:06:28.285Z</time></trkpt><trkpt lat="33.65691" lon="9.91177"><ele>181.0</ele><time>2026-04-04T21:06:29.285Z</time></trkpt><trkpt lat="33.65694" lon="9.9116283"><ele>181.0</ele><time>2026-04-04T21:06:30.285Z</time></trkpt><trkpt lat="33.656975" lon="9.91149"><ele>181.0</ele><time>2026-04-04T21:06:31.282Z</time></trkpt><trkpt lat="33.657015" lon="9.9113517"><ele>181.0</ele><time>2026-04-04T21:06:32.285Z</time></trkpt><trkpt lat="33.6570567" lon="9.9112133"><ele>181.0</ele><time>2026-04-04T21:06:33.285Z</time></trkpt><trkpt lat="33.6571033" lon="9.9110733"><ele>181.0</ele><time>2026-04-04T21:06:34.285Z</time></trkpt><trkpt lat="33.6571517" lon="9.9109317"><ele>181.0</ele><time>2026-04-04T21:06:35.285Z</time></trkpt><trkpt lat="33.6572017" lon="9.9107867"><ele>181.0</ele><time>2026-04-04T21:06:36.285Z</time></trkpt><trkpt lat="33.657255" lon="9.910645"><ele>181.0</ele><time>2026-04-04T21:06:37.286Z</time></trkpt><trkpt lat="33.6573117" lon="9.9105067"><ele>181.0</ele><time>2026-04-04T21:06:38.285Z</time></trkpt><trkpt lat="33.6573667" lon="9.9103717"><ele>181.0</ele><time>2026-04-04T21:06:39.282Z</time></trkpt><trkpt lat="33.6574233" lon="9.9102383"><ele>181.0</ele><time>2026-04-04T21:06:40.284Z</time></trkpt><trkpt lat="33.6574817" lon="9.91011"><ele>181.0</ele><time>2026-04-04T21:06:41.286Z</time></trkpt><trkpt lat="33.657545" lon="9.9099783"><ele>181.0</ele><time>2026-04-04T21:06:42.285Z</time></trkpt><trkpt lat="33.6576067" lon="9.90985"><ele>181.0</ele><time>2026-04-04T21:06:43.285Z</time></trkpt><trkpt lat="33.6576683" lon="9.909725"><ele>181.0</ele><time>2026-04-04T21:06:44.285Z</time></trkpt><trkpt lat="33.6577317" lon="9.9096017"><ele>181.0</ele><time>2026-04-04T21:06:45.284Z</time></trkpt><trkpt lat="33.6578" lon="9.9094767"><ele>181.0</ele><time>2026-04-04T21:06:46.285Z</time></trkpt><trkpt lat="33.6578733" lon="9.9093533"><ele>181.0</ele><time>2026-04-04T21:06:47.286Z</time></trkpt><trkpt lat="33.65795" lon="9.9092267"><ele>180.25</ele><time>2026-04-04T21:06:48.285Z</time></trkpt><trkpt lat="33.6580317" lon="9.9091017"><ele>179.5</ele><time>2026-04-04T21:06:49.287Z</time></trkpt><trkpt lat="33.6581167" lon="9.908975"><ele>178.75</ele><time>2026-04-04T21:06:50.286Z</time></trkpt><trkpt lat="33.6582017" lon="9.90884"><ele>178.0</ele><time>2026-04-04T21:06:51.285Z</time></trkpt><trkpt lat="33.6582917" lon="9.9087"><ele>178.0</ele><time>2026-04-04T21:06:52.285Z</time></trkpt><trkpt lat="33.6583817" lon="9.9085517"><ele>178.0</ele><time>2026-04-04T21:06:53.286Z</time></trkpt><trkpt lat="33.6584717" lon="9.9084"><ele>178.0</ele><time>2026-04-04T21:06:54.285Z</time></trkpt><trkpt lat="33.658565" lon="9.9082417"><ele>177.33333333333334</ele><time>2026-04-04T21:06:55.285Z</time></trkpt><trkpt lat="33.6586617" lon="9.9080783"><ele>176.66666666666666</ele><time>2026-04-04T21:06:56.285Z</time></trkpt><trkpt lat="33.65876" lon="9.90791"><ele>176.0</ele><time>2026-04-04T21:06:57.285Z</time></trkpt><trkpt lat="33.65886" lon="9.9077367"><ele>177.33333333333331</ele><time>2026-04-04T21:06:58.286Z</time></trkpt><trkpt lat="33.65896" lon="9.9075617"><ele>178.66666666666666</ele><time>2026-04-04T21:06:59.285Z</time></trkpt><trkpt lat="33.65906" lon="9.9073833"><ele>180.0</ele><time>2026-04-04T21:07:00.285Z</time></trkpt><trkpt lat="33.6591567" lon="9.9072017"><ele>180.0</ele><time>2026-04-04T21:07:01.287Z</time></trkpt><trkpt lat="33.6592583" lon="9.9070167"><ele>180.0</ele><time>2026-04-04T21:07:02.285Z</time></trkpt><trkpt lat="33.65936" lon="9.906835"><ele>180.0</ele><time>2026-04-04T21:07:03.285Z</time></trkpt><trkpt lat="33.6594583" lon="9.9066483"><ele>179.66666666666666</ele><time>2026-04-04T21:07:04.285Z</time></trkpt><trkpt lat="33.6595617" lon="9.9064633"><ele>179.33333333333331</ele><time>2026-04-04T21:07:05.286Z</time></trkpt><trkpt lat="33.659665" lon="9.9062717"><ele>179.0</ele><time>2026-04-04T21:07:06.286Z</time></trkpt><trkpt lat="33.6597667" lon="9.9060767"><ele>179.33333333333331</ele><time>2026-04-04T21:07:07.286Z</time></trkpt><trkpt lat="33.659865" lon="9.9058817"><ele>179.66666666666666</ele><time>2026-04-04T21:07:08.285Z</time></trkpt><trkpt lat="33.659965" lon="9.905685"><ele>180.0</ele><time>2026-04-04T21:07:09.285Z</time></trkpt><trkpt lat="33.6600667" lon="9.9054817"><ele>180.0</ele><time>2026-04-04T21:07:10.285Z</time></trkpt><trkpt lat="33.6601667" lon="9.905275"><ele>180.0</ele><time>2026-04-04T21:07:11.285Z</time></trkpt><trkpt lat="33.6602617" lon="9.9050633"><ele>180.0</ele><time>2026-04-04T21:07:12.285Z</time></trkpt><trkpt lat="33.6603583" lon="9.9048517"><ele>180.0</ele><time>2026-04-04T21:07:13.286Z</time></trkpt><trkpt lat="33.66046" lon="9.90464"><ele>180.0</ele><time>2026-04-04T21:07:14.285Z</time></trkpt><trkpt lat="33.660565" lon="9.9044233"><ele>180.0</ele><time>2026-04-04T21:07:15.285Z</time></trkpt><trkpt lat="33.6606783" lon="9.90419"><ele>180.0</ele><time>2026-04-04T21:07:16.285Z</time></trkpt><trkpt lat="33.6607967" lon="9.903955"><ele>180.0</ele><time>2026-04-04T21:07:17.286Z</time></trkpt><trkpt lat="33.6609083" lon="9.9037317"><ele>180.0</ele><time>2026-04-04T21:07:18.285Z</time></trkpt><trkpt lat="33.6610217" lon="9.9035117"><ele>180.0</ele><time>2026-04-04T21:07:19.285Z</time></trkpt><trkpt lat="33.6611333" lon="9.9032833"><ele>180.0</ele><time>2026-04-04T21:07:20.285Z</time></trkpt><trkpt lat="33.661245" lon="9.90305"><ele>180.0</ele><time>2026-04-04T21:07:21.285Z</time></trkpt><trkpt lat="33.66136" lon="9.9028117"><ele>180.5</ele><time>2026-04-04T21:07:22.285Z</time></trkpt><trkpt lat="33.6614733" lon="9.90257"><ele>181.0</ele><time>2026-04-04T21:07:23.285Z</time></trkpt><trkpt lat="33.661585" lon="9.9023233"><ele>181.0</ele><time>2026-04-04T21:07:24.285Z</time></trkpt><trkpt lat="33.6616983" lon="9.9020683"><ele>181.0</ele><time>2026-04-04T21:07:25.283Z</time></trkpt><trkpt lat="33.66181" lon="9.9018017"><ele>181.5</ele><time>2026-04-04T21:07:26.285Z</time></trkpt><trkpt lat="33.6619183" lon="9.901525"><ele>182.0</ele><time>2026-04-04T21:07:27.286Z</time></trkpt><trkpt lat="33.6620267" lon="9.901245"><ele>181.0</ele><time>2026-04-04T21:07:28.284Z</time></trkpt><trkpt lat="33.6621317" lon="9.9009583"><ele>180.0</ele><time>2026-04-04T21:07:29.285Z</time></trkpt><trkpt lat="33.66223" lon="9.9006667"><ele>178.5</ele><time>2026-04-04T21:07:30.285Z</time></trkpt><trkpt lat="33.6623317" lon="9.900375"><ele>177.0</ele><time>2026-04-04T21:07:31.286Z</time></trkpt><trkpt lat="33.66243" lon="9.9000833"><ele>178.0</ele><time>2026-04-04T21:07:32.286Z</time></trkpt><trkpt lat="33.6625317" lon="9.8997917"><ele>179.0</ele><time>2026-04-04T21:07:33.286Z</time></trkpt><trkpt lat="33.6626317" lon="9.8995033"><ele>179.0</ele><time>2026-04-04T21:07:34.285Z</time></trkpt><trkpt lat="33.662735" lon="9.8992133"><ele>179.0</ele><time>2026-04-04T21:07:35.285Z</time></trkpt><trkpt lat="33.6628383" lon="9.898925"><ele>179.0</ele><time>2026-04-04T21:07:36.285Z</time></trkpt><trkpt lat="33.6629417" lon="9.898645"><ele>179.0</ele><time>2026-04-04T21:07:37.285Z</time></trkpt><trkpt lat="33.6630367" lon="9.8983667"><ele>179.5</ele><time>2026-04-04T21:07:38.286Z</time></trkpt><trkpt lat="33.66313" lon="9.898085"><ele>180.0</ele><time>2026-04-04T21:07:39.285Z</time></trkpt><trkpt lat="33.6632217" lon="9.8977983"><ele>179.0</ele><time>2026-04-04T21:07:40.285Z</time></trkpt><trkpt lat="33.6633133" lon="9.8975117"><ele>178.0</ele><time>2026-04-04T21:07:41.286Z</time></trkpt><trkpt lat="33.6634017" lon="9.8972233"><ele>178.0</ele><time>2026-04-04T21:07:42.285Z</time></trkpt><trkpt lat="33.66349" lon="9.8969317"><ele>178.0</ele><time>2026-04-04T21:07:43.285Z</time></trkpt><trkpt lat="33.6635783" lon="9.8966367"><ele>178.5</ele><time>2026-04-04T21:07:44.285Z</time></trkpt><trkpt lat="33.6636633" lon="9.8963417"><ele>179.0</ele><time>2026-04-04T21:07:45.285Z</time></trkpt><trkpt lat="33.6637467" lon="9.896045"><ele>178.5</ele><time>2026-04-04T21:07:46.285Z</time></trkpt><trkpt lat="33.6638267" lon="9.895745"><ele>178.0</ele><time>2026-04-04T21:07:47.286Z</time></trkpt><trkpt lat="33.6639" lon="9.895445"><ele>178.0</ele><time>2026-04-04T21:07:48.285Z</time></trkpt><trkpt lat="33.66397" lon="9.89515"><ele>178.0</ele><time>2026-04-04T21:07:49.287Z</time></trkpt><trkpt lat="33.6640383" lon="9.8948583"><ele>177.5</ele><time>2026-04-04T21:07:50.285Z</time></trkpt><trkpt lat="33.6641017" lon="9.8945783"><ele>177.0</ele><time>2026-04-04T21:07:51.285Z</time></trkpt><trkpt lat="33.6641633" lon="9.894305"><ele>178.0</ele><time>2026-04-04T21:07:52.285Z</time></trkpt><trkpt lat="33.6642267" lon="9.89403"><ele>179.0</ele><time>2026-04-04T21:07:53.285Z</time></trkpt><trkpt lat="33.6642933" lon="9.8937467"><ele>179.0</ele><time>2026-04-04T21:07:54.285Z</time></trkpt><trkpt lat="33.6643617" lon="9.8934567"><ele>179.0</ele><time>2026-04-04T21:07:55.286Z</time></trkpt><trkpt lat="33.664425" lon="9.8931667"><ele>179.0</ele><time>2026-04-04T21:07:56.285Z</time></trkpt><trkpt lat="33.6644917" lon="9.8928767"><ele>179.0</ele><time>2026-04-04T21:07:57.285Z</time></trkpt><trkpt lat="33.6645567" lon="9.8925917"><ele>179.5</ele><time>2026-04-04T21:07:58.285Z</time></trkpt><trkpt lat="33.6646217" lon="9.8923133"><ele>180.0</ele><time>2026-04-04T21:07:59.286Z</time></trkpt><trkpt lat="33.6646867" lon="9.8920317"><ele>178.5</ele><time>2026-04-04T21:08:00.285Z</time></trkpt><trkpt lat="33.6647517" lon="9.8917483"><ele>177.0</ele><time>2026-04-04T21:08:01.285Z</time></trkpt><trkpt lat="33.6648133" lon="9.8914633"><ele>177.0</ele><time>2026-04-04T21:08:02.285Z</time></trkpt><trkpt lat="33.6648767" lon="9.89118"><ele>177.0</ele><time>2026-04-04T21:08:03.282Z</time></trkpt><trkpt lat="33.6649433" lon="9.8908917"><ele>176.5</ele><time>2026-04-04T21:08:04.283Z</time></trkpt><trkpt lat="33.66501" lon="9.8906033"><ele>176.0</ele><time>2026-04-04T21:08:05.283Z</time></trkpt><trkpt lat="33.66508" lon="9.8903167"><ele>177.0</ele><time>2026-04-04T21:08:06.285Z</time></trkpt><trkpt lat="33.6651483" lon="9.8900317"><ele>178.0</ele><time>2026-04-04T21:08:07.283Z</time></trkpt><trkpt lat="33.6652117" lon="9.88976"><ele>178.0</ele><time>2026-04-04T21:08:08.283Z</time></trkpt><trkpt lat="33.6652683" lon="9.889505"><ele>178.0</ele><time>2026-04-04T21:08:09.283Z</time></trkpt><trkpt lat="33.6653217" lon="9.8892683"><ele>178.0</ele><time>2026-04-04T21:08:10.285Z</time></trkpt><trkpt lat="33.6653783" lon="9.8890367"><ele>178.0</ele><time>2026-04-04T21:08:11.286Z</time></trkpt><trkpt lat="33.6654317" lon="9.888805"><ele>178.0</ele><time>2026-04-04T21:08:12.285Z</time></trkpt><trkpt lat="33.6654817" lon="9.888575"><ele>178.0</ele><time>2026-04-04T21:08:13.286Z</time></trkpt><trkpt lat="33.66553" lon="9.8883383"><ele>178.0</ele><time>2026-04-04T21:08:14.285Z</time></trkpt><trkpt lat="33.66558" lon="9.8881"><ele>178.0</ele><time>2026-04-04T21:08:15.286Z</time></trkpt><trkpt lat="33.6656317" lon="9.8878583"><ele>178.0</ele><time>2026-04-04T21:08:16.285Z</time></trkpt><trkpt lat="33.6656883" lon="9.887615"><ele>177.33333333333334</ele><time>2026-04-04T21:08:17.286Z</time></trkpt><trkpt lat="33.6657467" lon="9.88738"><ele>176.66666666666666</ele><time>2026-04-04T21:08:18.285Z</time></trkpt><trkpt lat="33.6658" lon="9.8871583"><ele>176.0</ele><time>2026-04-04T21:08:19.286Z</time></trkpt><trkpt lat="33.6658483" lon="9.886945"><ele>175.33333333333331</ele><time>2026-04-04T21:08:20.285Z</time></trkpt><trkpt lat="33.6658867" lon="9.8867367"><ele>174.66666666666666</ele><time>2026-04-04T21:08:21.285Z</time></trkpt><trkpt lat="33.66591" lon="9.88653"><ele>174.0</ele><time>2026-04-04T21:08:22.285Z</time></trkpt><trkpt lat="33.6659183" lon="9.8863117"><ele>174.0</ele><time>2026-04-04T21:08:23.285Z</time></trkpt><trkpt lat="33.6659133" lon="9.88608"><ele>174.0</ele><time>2026-04-04T21:08:24.285Z</time></trkpt><trkpt lat="33.6659017" lon="9.885835"><ele>174.0</ele><time>2026-04-04T21:08:25.285Z</time></trkpt><trkpt lat="33.665885" lon="9.8855817"><ele>174.66666666666666</ele><time>2026-04-04T21:08:26.285Z</time></trkpt><trkpt lat="33.6658683" lon="9.8853283"><ele>175.33333333333331</ele><time>2026-04-04T21:08:27.286Z</time></trkpt><trkpt lat="33.6658517" lon="9.8850717"><ele>176.0</ele><time>2026-04-04T21:08:28.285Z</time></trkpt><trkpt lat="33.6658333" lon="9.8848133"><ele>176.0</ele><time>2026-04-04T21:08:29.285Z</time></trkpt><trkpt lat="33.6658167" lon="9.8845533"><ele>176.0</ele><time>2026-04-04T21:08:30.287Z</time></trkpt><trkpt lat="33.6658033" lon="9.8842917"><ele>176.0</ele><time>2026-04-04T21:08:31.285Z</time></trkpt><trkpt lat="33.665785" lon="9.8840317"><ele>175.33333333333331</ele><time>2026-04-04T21:08:32.286Z</time></trkpt><trkpt lat="33.6657717" lon="9.8837717"><ele>174.66666666666666</ele><time>2026-04-04T21:08:33.284Z</time></trkpt><trkpt lat="33.665755" lon="9.883515"><ele>174.0</ele><time>2026-04-04T21:08:34.282Z</time></trkpt><trkpt lat="33.6657433" lon="9.88326"><ele>173.66666666666666</ele><time>2026-04-04T21:08:35.283Z</time></trkpt><trkpt lat="33.6657333" lon="9.8830117"><ele>173.33333333333331</ele><time>2026-04-04T21:08:36.282Z</time></trkpt><trkpt lat="33.66572" lon="9.882765"><ele>173.0</ele><time>2026-04-04T21:08:37.282Z</time></trkpt><trkpt lat="33.6657033" lon="9.88252"><ele>173.0</ele><time>2026-04-04T21:08:38.282Z</time></trkpt><trkpt lat="33.6656867" lon="9.882275"><ele>173.0</ele><time>2026-04-04T21:08:39.283Z</time></trkpt><trkpt lat="33.6656667" lon="9.88203"><ele>173.0</ele><time>2026-04-04T21:08:40.285Z</time></trkpt><trkpt lat="33.6656483" lon="9.881785"><ele>172.33333333333331</ele><time>2026-04-04T21:08:41.284Z</time></trkpt><trkpt lat="33.66563" lon="9.881535"><ele>171.66666666666666</ele><time>2026-04-04T21:08:42.284Z</time></trkpt><trkpt lat="33.6656167" lon="9.8812833"><ele>171.0</ele><time>2026-04-04T21:08:43.285Z</time></trkpt><trkpt lat="33.665605" lon="9.881025"><ele>171.66666666666666</ele><time>2026-04-04T21:08:44.284Z</time></trkpt><trkpt lat="33.665595" lon="9.88076"><ele>172.33333333333331</ele><time>2026-04-04T21:08:45.284Z</time></trkpt><trkpt lat="33.665585" lon="9.8804917"><ele>173.0</ele><time>2026-04-04T21:08:46.284Z</time></trkpt><trkpt lat="33.6655767" lon="9.8802217"><ele>173.66666666666666</ele><time>2026-04-04T21:08:47.286Z</time></trkpt><trkpt lat="33.66557" lon="9.8799517"><ele>174.33333333333334</ele><time>2026-04-04T21:08:48.284Z</time></trkpt><trkpt lat="33.6655633" lon="9.879685"><ele>175.0</ele><time>2026-04-04T21:08:49.284Z</time></trkpt><trkpt lat="33.6655617" lon="9.8794167"><ele>174.0</ele><time>2026-04-04T21:08:50.286Z</time></trkpt><trkpt lat="33.6655633" lon="9.87915"><ele>173.0</ele><time>2026-04-04T21:08:51.285Z</time></trkpt><trkpt lat="33.6655683" lon="9.8788867"><ele>172.0</ele><time>2026-04-04T21:08:52.284Z</time></trkpt><trkpt lat="33.66557" lon="9.8786383"><ele>170.66666666666669</ele><time>2026-04-04T21:08:53.284Z</time></trkpt><trkpt lat="33.6655717" lon="9.8783983"><ele>169.33333333333334</ele><time>2026-04-04T21:08:54.284Z</time></trkpt><trkpt lat="33.6655733" lon="9.8781683"><ele>168.0</ele><time>2026-04-04T21:08:55.285Z</time></trkpt><trkpt lat="33.6655717" lon="9.8779467"><ele>168.0</ele><time>2026-04-04T21:08:56.284Z</time></trkpt><trkpt lat="33.6655783" lon="9.8777317"><ele>168.0</ele><time>2026-04-04T21:08:57.285Z</time></trkpt><trkpt lat="33.6655867" lon="9.8775267"><ele>168.0</ele><time>2026-04-04T21:08:58.284Z</time></trkpt><trkpt lat="33.665595" lon="9.877335"><ele>168.0</ele><time>2026-04-04T21:08:59.284Z</time></trkpt><trkpt lat="33.6656017" lon="9.8771533"><ele>168.0</ele><time>2026-04-04T21:09:00.285Z</time></trkpt><trkpt lat="33.6656117" lon="9.8769733"><ele>168.0</ele><time>2026-04-04T21:09:01.284Z</time></trkpt><trkpt lat="33.6656233" lon="9.8767983"><ele>168.0</ele><time>2026-04-04T21:09:02.285Z</time></trkpt><trkpt lat="33.6656317" lon="9.87663"><ele>168.25</ele><time>2026-04-04T21:09:03.282Z</time></trkpt><trkpt lat="33.66564" lon="9.876465"><ele>168.5</ele><time>2026-04-04T21:09:04.282Z</time></trkpt><trkpt lat="33.6656483" lon="9.8762967"><ele>168.75</ele><time>2026-04-04T21:09:05.282Z</time></trkpt><trkpt lat="33.6656583" lon="9.8761283"><ele>169.0</ele><time>2026-04-04T21:09:06.282Z</time></trkpt><trkpt lat="33.66567" lon="9.8759583"><ele>168.5</ele><time>2026-04-04T21:09:07.281Z</time></trkpt><trkpt lat="33.6656817" lon="9.8757933"><ele>168.0</ele><time>2026-04-04T21:09:08.281Z</time></trkpt><trkpt lat="33.6656867" lon="9.8756367"><ele>167.5</ele><time>2026-04-04T21:09:09.282Z</time></trkpt><trkpt lat="33.66569" lon="9.8754817"><ele>167.0</ele><time>2026-04-04T21:09:10.285Z</time></trkpt><trkpt lat="33.6656933" lon="9.875325"><ele>167.0</ele><time>2026-04-04T21:09:11.285Z</time></trkpt><trkpt lat="33.6656983" lon="9.875165"><ele>167.0</ele><time>2026-04-04T21:09:12.284Z</time></trkpt><trkpt lat="33.665705" lon="9.875005"><ele>167.0</ele><time>2026-04-04T21:09:13.285Z</time></trkpt><trkpt lat="33.6657083" lon="9.874845"><ele>167.0</ele><time>2026-04-04T21:09:14.282Z</time></trkpt><trkpt lat="33.66571" lon="9.87469"><ele>167.5</ele><time>2026-04-04T21:09:15.282Z</time></trkpt><trkpt lat="33.66571" lon="9.8745317"><ele>168.0</ele><time>2026-04-04T21:09:16.285Z</time></trkpt><trkpt lat="33.66571" lon="9.8743733"><ele>168.5</ele><time>2026-04-04T21:09:17.285Z</time></trkpt><trkpt lat="33.6657083" lon="9.8742133"><ele>169.0</ele><time>2026-04-04T21:09:18.285Z</time></trkpt><trkpt lat="33.6657033" lon="9.8740533"><ele>169.0</ele><time>2026-04-04T21:09:19.285Z</time></trkpt><trkpt lat="33.665705" lon="9.87389"><ele>169.0</ele><time>2026-04-04T21:09:20.285Z</time></trkpt><trkpt lat="33.6657067" lon="9.8737233"><ele>169.0</ele><time>2026-04-04T21:09:21.285Z</time></trkpt><trkpt lat="33.6657083" lon="9.8735517"><ele>169.0</ele><time>2026-04-04T21:09:22.285Z</time></trkpt><trkpt lat="33.66571" lon="9.8733783"><ele>169.0</ele><time>2026-04-04T21:09:23.285Z</time></trkpt><trkpt lat="33.6657133" lon="9.8732083"><ele>169.0</ele><time>2026-04-04T21:09:24.284Z</time></trkpt><trkpt lat="33.665715" lon="9.8730417"><ele>169.0</ele><time>2026-04-04T21:09:25.285Z</time></trkpt><trkpt lat="33.6657167" lon="9.872875"><ele>169.0</ele><time>2026-04-04T21:09:26.286Z</time></trkpt><trkpt lat="33.6657217" lon="9.872705"><ele>168.0</ele><time>2026-04-04T21:09:27.286Z</time></trkpt><trkpt lat="33.6657267" lon="9.872535"><ele>167.0</ele><time>2026-04-04T21:09:28.285Z</time></trkpt><trkpt lat="33.6657283" lon="9.8723633"><ele>166.0</ele><time>2026-04-04T21:09:29.285Z</time></trkpt><trkpt lat="33.6657283" lon="9.8721917"><ele>165.0</ele><time>2026-04-04T21:09:30.284Z</time></trkpt><trkpt lat="33.6657283" lon="9.8720183"><ele>165.0</ele><time>2026-04-04T21:09:31.285Z</time></trkpt><trkpt lat="33.6657317" lon="9.8718433"><ele>165.0</ele><time>2026-04-04T21:09:32.285Z</time></trkpt><trkpt lat="33.66574" lon="9.8716633"><ele>165.0</ele><time>2026-04-04T21:09:33.282Z</time></trkpt><trkpt lat="33.6657517" lon="9.87148"><ele>165.0</ele><time>2026-04-04T21:09:34.283Z</time></trkpt><trkpt lat="33.6657667" lon="9.871295"><ele>166.0</ele><time>2026-04-04T21:09:35.282Z</time></trkpt><trkpt lat="33.66578" lon="9.871105"><ele>167.0</ele><time>2026-04-04T21:09:36.283Z</time></trkpt><trkpt lat="33.6657983" lon="9.8709067"><ele>168.0</ele><time>2026-04-04T21:09:37.283Z</time></trkpt><trkpt lat="33.6658133" lon="9.8707"><ele>168.66666666666666</ele><time>2026-04-04T21:09:38.282Z</time></trkpt><trkpt lat="33.66583" lon="9.87048"><ele>169.33333333333331</ele><time>2026-04-04T21:09:39.282Z</time></trkpt><trkpt lat="33.6658433" lon="9.8702467"><ele>170.0</ele><time>2026-04-04T21:09:40.286Z</time></trkpt><trkpt lat="33.66586" lon="9.8700083"><ele>170.0</ele><time>2026-04-04T21:09:41.285Z</time></trkpt><trkpt lat="33.6658767" lon="9.869765"><ele>170.0</ele><time>2026-04-04T21:09:42.283Z</time></trkpt><trkpt lat="33.6659" lon="9.8695167"><ele>170.0</ele><time>2026-04-04T21:09:43.285Z</time></trkpt><trkpt lat="33.66592" lon="9.869265"><ele>169.33333333333331</ele><time>2026-04-04T21:09:44.285Z</time></trkpt><trkpt lat="33.6659433" lon="9.8690133"><ele>168.66666666666666</ele><time>2026-04-04T21:09:45.285Z</time></trkpt><trkpt lat="33.6659683" lon="9.868765"><ele>168.0</ele><time>2026-04-04T21:09:46.285Z</time></trkpt><trkpt lat="33.6659933" lon="9.8685183"><ele>167.33333333333334</ele><time>2026-04-04T21:09:47.285Z</time></trkpt><trkpt lat="33.66602" lon="9.8682733"><ele>166.66666666666669</ele><time>2026-04-04T21:09:48.282Z</time></trkpt><trkpt lat="33.6660417" lon="9.8680283"><ele>166.0</ele><time>2026-04-04T21:09:49.286Z</time></trkpt><trkpt lat="33.666065" lon="9.8677833"><ele>166.66666666666669</ele><time>2026-04-04T21:09:50.285Z</time></trkpt><trkpt lat="33.66609" lon="9.8675383"><ele>167.33333333333334</ele><time>2026-04-04T21:09:51.285Z</time></trkpt><trkpt lat="33.6661183" lon="9.86729"><ele>168.0</ele><time>2026-04-04T21:09:52.285Z</time></trkpt><trkpt lat="33.6661483" lon="9.8670383"><ele>168.33333333333334</ele><time>2026-04-04T21:09:53.286Z</time></trkpt><trkpt lat="33.6661783" lon="9.86678"><ele>168.66666666666669</ele><time>2026-04-04T21:09:54.285Z</time></trkpt><trkpt lat="33.6662083" lon="9.86652"><ele>169.0</ele><time>2026-04-04T21:09:55.285Z</time></trkpt><trkpt lat="33.6662383" lon="9.866255"><ele>169.5</ele><time>2026-04-04T21:09:56.285Z</time></trkpt><trkpt lat="33.6662683" lon="9.8659867"><ele>170.0</ele><time>2026-04-04T21:09:57.285Z</time></trkpt><trkpt lat="33.6662983" lon="9.8657167"><ele>170.0</ele><time>2026-04-04T21:09:58.286Z</time></trkpt><trkpt lat="33.66633" lon="9.8654467"><ele>170.0</ele><time>2026-04-04T21:09:59.286Z</time></trkpt><trkpt lat="33.666355" lon="9.86518"><ele>170.0</ele><time>2026-04-04T21:10:00.285Z</time></trkpt><trkpt lat="33.66638" lon="9.8649183"><ele>170.0</ele><time>2026-04-04T21:10:01.285Z</time></trkpt><trkpt lat="33.6664017" lon="9.8646567"><ele>170.0</ele><time>2026-04-04T21:10:02.285Z</time></trkpt><trkpt lat="33.6664267" lon="9.8643917"><ele>170.0</ele><time>2026-04-04T21:10:03.285Z</time></trkpt><trkpt lat="33.6664483" lon="9.8641267"><ele>170.0</ele><time>2026-04-04T21:10:04.285Z</time></trkpt><trkpt lat="33.6664717" lon="9.863865"><ele>170.0</ele><time>2026-04-04T21:10:05.286Z</time></trkpt><trkpt lat="33.6664967" lon="9.8636033"><ele>169.33333333333331</ele><time>2026-04-04T21:10:06.285Z</time></trkpt><trkpt lat="33.6665233" lon="9.8633417"><ele>168.66666666666666</ele><time>2026-04-04T21:10:07.286Z</time></trkpt><trkpt lat="33.6665483" lon="9.8630783"><ele>168.0</ele><time>2026-04-04T21:10:08.285Z</time></trkpt><trkpt lat="33.666575" lon="9.8628083"><ele>167.0</ele><time>2026-04-04T21:10:09.282Z</time></trkpt><trkpt lat="33.6666033" lon="9.8625383"><ele>166.0</ele><time>2026-04-04T21:10:10.282Z</time></trkpt><trkpt lat="33.6666333" lon="9.8622683"><ele>166.0</ele><time>2026-04-04T21:10:11.284Z</time></trkpt><trkpt lat="33.666665" lon="9.8619967"><ele>166.0</ele><time>2026-04-04T21:10:12.283Z</time></trkpt><trkpt lat="33.6666933" lon="9.8617233"><ele>166.5</ele><time>2026-04-04T21:10:13.285Z</time></trkpt><trkpt lat="33.6667217" lon="9.86145"><ele>167.0</ele><time>2026-04-04T21:10:14.282Z</time></trkpt><trkpt lat="33.6667483" lon="9.86118"><ele>167.0</ele><time>2026-04-04T21:10:15.285Z</time></trkpt><trkpt lat="33.6667717" lon="9.86092"><ele>167.0</ele><time>2026-04-04T21:10:16.284Z</time></trkpt><trkpt lat="33.66679" lon="9.8606683"><ele>167.0</ele><time>2026-04-04T21:10:17.283Z</time></trkpt><trkpt lat="33.6668067" lon="9.8604233"><ele>167.0</ele><time>2026-04-04T21:10:18.283Z</time></trkpt><trkpt lat="33.666825" lon="9.86018"><ele>167.0</ele><time>2026-04-04T21:10:19.283Z</time></trkpt><trkpt lat="33.6668433" lon="9.8599333"><ele>167.0</ele><time>2026-04-04T21:10:20.284Z</time></trkpt><trkpt lat="33.666865" lon="9.8596833"><ele>166.66666666666666</ele><time>2026-04-04T21:10:21.284Z</time></trkpt><trkpt lat="33.66689" lon="9.8594267"><ele>166.33333333333334</ele><time>2026-04-04T21:10:22.283Z</time></trkpt><trkpt lat="33.66692" lon="9.85917"><ele>166.0</ele><time>2026-04-04T21:10:23.284Z</time></trkpt><trkpt lat="33.666955" lon="9.8589167"><ele>166.0</ele><time>2026-04-04T21:10:24.283Z</time></trkpt><trkpt lat="33.66699" lon="9.8586733"><ele>166.0</ele><time>2026-04-04T21:10:25.283Z</time></trkpt><trkpt lat="33.6670267" lon="9.8584367"><ele>166.0</ele><time>2026-04-04T21:10:26.283Z</time></trkpt><trkpt lat="33.6670667" lon="9.8581967"><ele>166.33333333333334</ele><time>2026-04-04T21:10:27.283Z</time></trkpt><trkpt lat="33.66711" lon="9.8579533"><ele>166.66666666666666</ele><time>2026-04-04T21:10:28.283Z</time></trkpt><trkpt lat="33.667155" lon="9.8577067"><ele>167.0</ele><time>2026-04-04T21:10:29.283Z</time></trkpt><trkpt lat="33.6672033" lon="9.857455"><ele>167.0</ele><time>2026-04-04T21:10:30.283Z</time></trkpt><trkpt lat="33.667255" lon="9.8572017"><ele>167.0</ele><time>2026-04-04T21:10:31.286Z</time></trkpt><trkpt lat="33.66731" lon="9.8569467"><ele>167.0</ele><time>2026-04-04T21:10:32.285Z</time></trkpt><trkpt lat="33.6673683" lon="9.8566883"><ele>167.0</ele><time>2026-04-04T21:10:33.285Z</time></trkpt><trkpt lat="33.66743" lon="9.8564267"><ele>167.0</ele><time>2026-04-04T21:10:34.286Z</time></trkpt><trkpt lat="33.6674933" lon="9.8561617"><ele>166.0</ele><time>2026-04-04T21:10:35.286Z</time></trkpt><trkpt lat="33.667555" lon="9.8559017"><ele>165.0</ele><time>2026-04-04T21:10:36.285Z</time></trkpt><trkpt lat="33.6676117" lon="9.8556517"><ele>164.0</ele><time>2026-04-04T21:10:37.286Z</time></trkpt><trkpt lat="33.66766" lon="9.8554067"><ele>164.0</ele><time>2026-04-04T21:10:38.286Z</time></trkpt><trkpt lat="33.6676983" lon="9.8551567"><ele>164.0</ele><time>2026-04-04T21:10:39.286Z</time></trkpt><trkpt lat="33.6677267" lon="9.8548967"><ele>164.0</ele><time>2026-04-04T21:10:40.285Z</time></trkpt><trkpt lat="33.66775" lon="9.85463"><ele>164.33333333333331</ele><time>2026-04-04T21:10:41.285Z</time></trkpt><trkpt lat="33.66777" lon="9.8543617"><ele>164.66666666666666</ele><time>2026-04-04T21:10:42.285Z</time></trkpt><trkpt lat="33.6677883" lon="9.8540933"><ele>165.0</ele><time>2026-04-04T21:10:43.285Z</time></trkpt><trkpt lat="33.6678067" lon="9.8538267"><ele>164.33333333333334</ele><time>2026-04-04T21:10:44.285Z</time></trkpt><trkpt lat="33.6678283" lon="9.85356"><ele>163.66666666666669</ele><time>2026-04-04T21:10:45.285Z</time></trkpt><trkpt lat="33.6678517" lon="9.853295"><ele>163.0</ele><time>2026-04-04T21:10:46.285Z</time></trkpt><trkpt lat="33.6678783" lon="9.8530317"><ele>163.0</ele><time>2026-04-04T21:10:47.285Z</time></trkpt><trkpt lat="33.6679083" lon="9.8527667"><ele>163.0</ele><time>2026-04-04T21:10:48.285Z</time></trkpt><trkpt lat="33.6679367" lon="9.8525017"><ele>163.0</ele><time>2026-04-04T21:10:49.286Z</time></trkpt><trkpt lat="33.667965" lon="9.852235"><ele>163.0</ele><time>2026-04-04T21:10:50.285Z</time></trkpt><trkpt lat="33.6679933" lon="9.85197"><ele>163.0</ele><time>2026-04-04T21:10:51.285Z</time></trkpt><trkpt lat="33.6680183" lon="9.8517067"><ele>163.0</ele><time>2026-04-04T21:10:52.285Z</time></trkpt><trkpt lat="33.6680467" lon="9.8514433"><ele>163.0</ele><time>2026-04-04T21:10:53.287Z</time></trkpt><trkpt lat="33.6680783" lon="9.8511783"><ele>163.0</ele><time>2026-04-04T21:10:54.285Z</time></trkpt><trkpt lat="33.66811" lon="9.8509133"><ele>163.0</ele><time>2026-04-04T21:10:55.285Z</time></trkpt><trkpt lat="33.6681433" lon="9.85065"><ele>163.0</ele><time>2026-04-04T21:10:56.285Z</time></trkpt><trkpt lat="33.668175" lon="9.8503867"><ele>163.0</ele><time>2026-04-04T21:10:57.285Z</time></trkpt><trkpt lat="33.6682033" lon="9.850125"><ele>163.0</ele><time>2026-04-04T21:10:58.286Z</time></trkpt><trkpt lat="33.6682317" lon="9.8498633"><ele>162.66666666666669</ele><time>2026-04-04T21:10:59.285Z</time></trkpt><trkpt lat="33.6682583" lon="9.8496067"><ele>162.33333333333334</ele><time>2026-04-04T21:11:00.285Z</time></trkpt><trkpt lat="33.6682833" lon="9.8493483"><ele>162.0</ele><time>2026-04-04T21:11:01.285Z</time></trkpt><trkpt lat="33.6683067" lon="9.8490933"><ele>161.66666666666666</ele><time>2026-04-04T21:11:02.285Z</time></trkpt><trkpt lat="33.6683333" lon="9.8488383"><ele>161.33333333333331</ele><time>2026-04-04T21:11:03.282Z</time></trkpt><trkpt lat="33.66836" lon="9.8485833"><ele>161.0</ele><time>2026-04-04T21:11:04.285Z</time></trkpt><trkpt lat="33.6683917" lon="9.848325"><ele>161.66666666666666</ele><time>2026-04-04T21:11:05.285Z</time></trkpt><trkpt lat="33.668425" lon="9.8480633"><ele>162.33333333333334</ele><time>2026-04-04T21:11:06.285Z</time></trkpt><trkpt lat="33.66846" lon="9.8478"><ele>163.0</ele><time>2026-04-04T21:11:07.286Z</time></trkpt><trkpt lat="33.668495" lon="9.8475367"><ele>163.0</ele><time>2026-04-04T21:11:08.285Z</time></trkpt><trkpt lat="33.6685283" lon="9.8472717"><ele>163.0</ele><time>2026-04-04T21:11:09.285Z</time></trkpt><trkpt lat="33.6685633" lon="9.847005"><ele>163.0</ele><time>2026-04-04T21:11:10.286Z</time></trkpt><trkpt lat="33.6685967" lon="9.8467367"><ele>161.0</ele><time>2026-04-04T21:11:11.282Z</time></trkpt><trkpt lat="33.668625" lon="9.8464633"><ele>159.0</ele><time>2026-04-04T21:11:12.282Z</time></trkpt><trkpt lat="33.6686533" lon="9.8461917"><ele>159.0</ele><time>2026-04-04T21:11:13.286Z</time></trkpt><trkpt lat="33.6686817" lon="9.8459167"><ele>159.0</ele><time>2026-04-04T21:11:14.285Z</time></trkpt><trkpt lat="33.6687083" lon="9.8456433"><ele>159.0</ele><time>2026-04-04T21:11:15.282Z</time></trkpt><trkpt lat="33.66874" lon="9.8453733"><ele>159.0</ele><time>2026-04-04T21:11:16.283Z</time></trkpt><trkpt lat="33.6687717" lon="9.8451183"><ele>159.0</ele><time>2026-04-04T21:11:17.285Z</time></trkpt><trkpt lat="33.6688" lon="9.8448717"><ele>159.0</ele><time>2026-04-04T21:11:18.286Z</time></trkpt><trkpt lat="33.6688333" lon="9.8446233"><ele>159.0</ele><time>2026-04-04T21:11:19.285Z</time></trkpt><trkpt lat="33.66887" lon="9.8443717"><ele>159.0</ele><time>2026-04-04T21:11:20.283Z</time></trkpt><trkpt lat="33.6689067" lon="9.8441133"><ele>159.0</ele><time>2026-04-04T21:11:21.284Z</time></trkpt><trkpt lat="33.6689433" lon="9.8438467"><ele>159.0</ele><time>2026-04-04T21:11:22.286Z</time></trkpt><trkpt lat="33.6689783" lon="9.8435783"><ele>158.0</ele><time>2026-04-04T21:11:23.283Z</time></trkpt><trkpt lat="33.6690133" lon="9.8433083"><ele>157.0</ele><time>2026-04-04T21:11:24.283Z</time></trkpt><trkpt lat="33.6690467" lon="9.84304"><ele>157.0</ele><time>2026-04-04T21:11:25.282Z</time></trkpt><trkpt lat="33.66908" lon="9.8427767"><ele>157.0</ele><time>2026-04-04T21:11:26.285Z</time></trkpt><trkpt lat="33.669115" lon="9.842515"><ele>157.0</ele><time>2026-04-04T21:11:27.286Z</time></trkpt><trkpt lat="33.6691483" lon="9.8422517"><ele>157.33333333333334</ele><time>2026-04-04T21:11:28.285Z</time></trkpt><trkpt lat="33.66918" lon="9.8419867"><ele>157.66666666666666</ele><time>2026-04-04T21:11:29.285Z</time></trkpt><trkpt lat="33.6692083" lon="9.8417267"><ele>158.0</ele><time>2026-04-04T21:11:30.285Z</time></trkpt><trkpt lat="33.669235" lon="9.84148"><ele>158.0</ele><time>2026-04-04T21:11:31.285Z</time></trkpt><trkpt lat="33.6692583" lon="9.8412433"><ele>158.0</ele><time>2026-04-04T21:11:32.286Z</time></trkpt><trkpt lat="33.669275" lon="9.841025"><ele>158.0</ele><time>2026-04-04T21:11:33.282Z</time></trkpt><trkpt lat="33.6692917" lon="9.840825"><ele>157.66666666666666</ele><time>2026-04-04T21:11:34.283Z</time></trkpt><trkpt lat="33.66931" lon="9.8406383"><ele>157.33333333333334</ele><time>2026-04-04T21:11:35.282Z</time></trkpt><trkpt lat="33.6693333" lon="9.8404583"><ele>157.0</ele><time>2026-04-04T21:11:36.283Z</time></trkpt><trkpt lat="33.6693617" lon="9.84028"><ele>156.66666666666669</ele><time>2026-04-04T21:11:37.283Z</time></trkpt><trkpt lat="33.66939" lon="9.8400983"><ele>156.33333333333334</ele><time>2026-04-04T21:11:38.282Z</time></trkpt><trkpt lat="33.66942" lon="9.83991"><ele>156.0</ele><time>2026-04-04T21:11:39.282Z</time></trkpt><trkpt lat="33.66945" lon="9.8397183"><ele>155.66666666666666</ele><time>2026-04-04T21:11:40.287Z</time></trkpt><trkpt lat="33.6694767" lon="9.839525"><ele>155.33333333333331</ele><time>2026-04-04T21:11:41.283Z</time></trkpt><trkpt lat="33.6695017" lon="9.83933"><ele>155.0</ele><time>2026-04-04T21:11:42.284Z</time></trkpt><trkpt lat="33.669525" lon="9.8391383"><ele>155.0</ele><time>2026-04-04T21:11:43.284Z</time></trkpt><trkpt lat="33.6695483" lon="9.8389567"><ele>155.0</ele><time>2026-04-04T21:11:44.285Z</time></trkpt><trkpt lat="33.6695717" lon="9.8387733"><ele>155.0</ele><time>2026-04-04T21:11:45.282Z</time></trkpt><trkpt lat="33.6695967" lon="9.8385833"><ele>155.66666666666666</ele><time>2026-04-04T21:11:46.286Z</time></trkpt><trkpt lat="33.6696217" lon="9.8383833"><ele>156.33333333333334</ele><time>2026-04-04T21:11:47.285Z</time></trkpt><trkpt lat="33.669645" lon="9.8381817"><ele>157.0</ele><time>2026-04-04T21:11:48.285Z</time></trkpt><trkpt lat="33.6696683" lon="9.83798"><ele>157.0</ele><time>2026-04-04T21:11:49.284Z</time></trkpt><trkpt lat="33.6696933" lon="9.837775"><ele>157.0</ele><time>2026-04-04T21:11:50.284Z</time></trkpt><trkpt lat="33.6697217" lon="9.8375617"><ele>157.0</ele><time>2026-04-04T21:11:51.284Z</time></trkpt><trkpt lat="33.6697517" lon="9.837345"><ele>157.66666666666669</ele><time>2026-04-04T21:11:52.284Z</time></trkpt><trkpt lat="33.6697833" lon="9.8371267"><ele>158.33333333333334</ele><time>2026-04-04T21:11:53.285Z</time></trkpt><trkpt lat="33.6698167" lon="9.836905"><ele>159.0</ele><time>2026-04-04T21:11:54.284Z</time></trkpt><trkpt lat="33.6698533" lon="9.836685"><ele>159.33333333333334</ele><time>2026-04-04T21:11:55.284Z</time></trkpt><trkpt lat="33.6698917" lon="9.8364633"><ele>159.66666666666669</ele><time>2026-04-04T21:11:56.284Z</time></trkpt><trkpt lat="33.6699317" lon="9.8362367"><ele>160.0</ele><time>2026-04-04T21:11:57.285Z</time></trkpt><trkpt lat="33.6699733" lon="9.8360033"><ele>159.66666666666669</ele><time>2026-04-04T21:11:58.284Z</time></trkpt><trkpt lat="33.670015" lon="9.8357667"><ele>159.33333333333334</ele><time>2026-04-04T21:11:59.285Z</time></trkpt><trkpt lat="33.67006" lon="9.8355267"><ele>159.0</ele><time>2026-04-04T21:12:00.285Z</time></trkpt><trkpt lat="33.6701033" lon="9.8352833"><ele>159.0</ele><time>2026-04-04T21:12:01.285Z</time></trkpt><trkpt lat="33.670145" lon="9.8350367"><ele>159.0</ele><time>2026-04-04T21:12:02.284Z</time></trkpt><trkpt lat="33.67019" lon="9.8347917"><ele>159.0</ele><time>2026-04-04T21:12:03.284Z</time></trkpt><trkpt lat="33.67024" lon="9.834545"><ele>157.66666666666666</ele><time>2026-04-04T21:12:04.284Z</time></trkpt><trkpt lat="33.6702933" lon="9.8343033"><ele>156.33333333333331</ele><time>2026-04-04T21:12:05.284Z</time></trkpt><trkpt lat="33.6703483" lon="9.8340633"><ele>155.0</ele><time>2026-04-04T21:12:06.286Z</time></trkpt><trkpt lat="33.6704033" lon="9.833825"><ele>155.0</ele><time>2026-04-04T21:12:07.285Z</time></trkpt><trkpt lat="33.670455" lon="9.8335883"><ele>155.0</ele><time>2026-04-04T21:12:08.282Z</time></trkpt><trkpt lat="33.6705017" lon="9.83335"><ele>155.0</ele><time>2026-04-04T21:12:09.285Z</time></trkpt><trkpt lat="33.67054" lon="9.8331133"><ele>155.0</ele><time>2026-04-04T21:12:10.281Z</time></trkpt><trkpt lat="33.6705717" lon="9.8328783"><ele>155.0</ele><time>2026-04-04T21:12:11.284Z</time></trkpt><trkpt lat="33.6705933" lon="9.8326417"><ele>155.0</ele><time>2026-04-04T21:12:12.285Z</time></trkpt><trkpt lat="33.6706133" lon="9.8324067"><ele>155.0</ele><time>2026-04-04T21:12:13.284Z</time></trkpt><trkpt lat="33.670635" lon="9.83217"><ele>155.0</ele><time>2026-04-04T21:12:14.284Z</time></trkpt><trkpt lat="33.6706683" lon="9.83193"><ele>155.0</ele><time>2026-04-04T21:12:15.285Z</time></trkpt><trkpt lat="33.6707117" lon="9.83169"><ele>155.0</ele><time>2026-04-04T21:12:16.281Z</time></trkpt><trkpt lat="33.6707633" lon="9.8314483"><ele>155.0</ele><time>2026-04-04T21:12:17.282Z</time></trkpt><trkpt lat="33.670825" lon="9.831205"><ele>155.0</ele><time>2026-04-04T21:12:18.282Z</time></trkpt><trkpt lat="33.6708883" lon="9.83096"><ele>155.0</ele><time>2026-04-04T21:12:19.283Z</time></trkpt><trkpt lat="33.67096" lon="9.8307167"><ele>155.0</ele><time>2026-04-04T21:12:20.285Z</time></trkpt><trkpt lat="33.6710367" lon="9.8304717"><ele>155.0</ele><time>2026-04-04T21:12:21.285Z</time></trkpt><trkpt lat="33.6711167" lon="9.83023"><ele>154.0</ele><time>2026-04-04T21:12:22.286Z</time></trkpt><trkpt lat="33.6711983" lon="9.8299883"><ele>153.0</ele><time>2026-04-04T21:12:23.285Z</time></trkpt><trkpt lat="33.6712833" lon="9.82975"><ele>152.0</ele><time>2026-04-04T21:12:24.285Z</time></trkpt><trkpt lat="33.6713717" lon="9.8295117"><ele>152.0</ele><time>2026-04-04T21:12:25.285Z</time></trkpt><trkpt lat="33.6714567" lon="9.8292717"><ele>152.0</ele><time>2026-04-04T21:12:26.285Z</time></trkpt><trkpt lat="33.671535" lon="9.82903"><ele>152.0</ele><time>2026-04-04T21:12:27.287Z</time></trkpt><trkpt lat="33.6716117" lon="9.8287867"><ele>152.0</ele><time>2026-04-04T21:12:28.285Z</time></trkpt><trkpt lat="33.6716833" lon="9.8285483"><ele>152.0</ele><time>2026-04-04T21:12:29.285Z</time></trkpt><trkpt lat="33.6717517" lon="9.8283117"><ele>152.0</ele><time>2026-04-04T21:12:30.285Z</time></trkpt><trkpt lat="33.6718167" lon="9.828075"><ele>152.33333333333331</ele><time>2026-04-04T21:12:31.285Z</time></trkpt><trkpt lat="33.6718783" lon="9.827835"><ele>152.66666666666666</ele><time>2026-04-04T21:12:32.285Z</time></trkpt><trkpt lat="33.6719383" lon="9.8275917"><ele>153.0</ele><time>2026-04-04T21:12:33.285Z</time></trkpt><trkpt lat="33.672" lon="9.8273483"><ele>152.33333333333334</ele><time>2026-04-04T21:12:34.286Z</time></trkpt><trkpt lat="33.6720617" lon="9.8271067"><ele>151.66666666666669</ele><time>2026-04-04T21:12:35.285Z</time></trkpt><trkpt lat="33.672125" lon="9.8268633"><ele>151.0</ele><time>2026-04-04T21:12:36.284Z</time></trkpt><trkpt lat="33.67219" lon="9.8266183"><ele>150.33333333333334</ele><time>2026-04-04T21:12:37.285Z</time></trkpt><trkpt lat="33.6722517" lon="9.8263717"><ele>149.66666666666666</ele><time>2026-04-04T21:12:38.282Z</time></trkpt><trkpt lat="33.67231" lon="9.8261267"><ele>149.0</ele><time>2026-04-04T21:12:39.286Z</time></trkpt><trkpt lat="33.6723683" lon="9.825885"><ele>149.0</ele><time>2026-04-04T21:12:40.285Z</time></trkpt><trkpt lat="33.6724233" lon="9.8256417"><ele>149.0</ele><time>2026-04-04T21:12:41.282Z</time></trkpt><trkpt lat="33.6724767" lon="9.8254017"><ele>149.0</ele><time>2026-04-04T21:12:42.284Z</time></trkpt><trkpt lat="33.672525" lon="9.82517"><ele>149.33333333333331</ele><time>2026-04-04T21:12:43.286Z</time></trkpt><trkpt lat="33.6725733" lon="9.82495"><ele>149.66666666666666</ele><time>2026-04-04T21:12:44.285Z</time></trkpt><trkpt lat="33.67262" lon="9.82474"><ele>150.0</ele><time>2026-04-04T21:12:45.285Z</time></trkpt><trkpt lat="33.6726683" lon="9.8245367"><ele>150.0</ele><time>2026-04-04T21:12:46.284Z</time></trkpt><trkpt lat="33.6727167" lon="9.8243383"><ele>150.0</ele><time>2026-04-04T21:12:47.285Z</time></trkpt><trkpt lat="33.6727633" lon="9.8241433"><ele>150.0</ele><time>2026-04-04T21:12:48.284Z</time></trkpt><trkpt lat="33.6728083" lon="9.8239583"><ele>149.75</ele><time>2026-04-04T21:12:49.285Z</time></trkpt><trkpt lat="33.67285" lon="9.8237883"><ele>149.5</ele><time>2026-04-04T21:12:50.286Z</time></trkpt><trkpt lat="33.6728867" lon="9.8236367"><ele>149.25</ele><time>2026-04-04T21:12:51.285Z</time></trkpt><trkpt lat="33.6729133" lon="9.8235017"><ele>149.0</ele><time>2026-04-04T21:12:52.285Z</time></trkpt><trkpt lat="33.6729317" lon="9.8233833"><ele>148.5</ele><time>2026-04-04T21:12:53.285Z</time></trkpt><trkpt lat="33.6729433" lon="9.8232783"><ele>148.0</ele><time>2026-04-04T21:12:54.286Z</time></trkpt><trkpt lat="33.672945" lon="9.82318"><ele>147.5</ele><time>2026-04-04T21:12:55.286Z</time></trkpt><trkpt lat="33.6729367" lon="9.82309"><ele>147.0</ele><time>2026-04-04T21:12:56.285Z</time></trkpt><trkpt lat="33.6729167" lon="9.823005"><ele>146.5</ele><time>2026-04-04T21:12:57.285Z</time></trkpt><trkpt lat="33.672885" lon="9.82292"><ele>146.0</ele><time>2026-04-04T21:12:58.285Z</time></trkpt><trkpt lat="33.6728417" lon="9.8228283"><ele>146.0</ele><time>2026-04-04T21:12:59.286Z</time></trkpt><trkpt lat="33.672785" lon="9.822735"><ele>146.0</ele><time>2026-04-04T21:13:00.285Z</time></trkpt><trkpt lat="33.6727133" lon="9.822635"><ele>146.0</ele><time>2026-04-04T21:13:01.286Z</time></trkpt><trkpt lat="33.6726333" lon="9.8225267"><ele>146.0</ele><time>2026-04-04T21:13:02.285Z</time></trkpt><trkpt lat="33.672545" lon="9.8224133"><ele>146.33333333333331</ele><time>2026-04-04T21:13:03.285Z</time></trkpt><trkpt lat="33.6724483" lon="9.8222917"><ele>146.66666666666666</ele><time>2026-04-04T21:13:04.285Z</time></trkpt><trkpt lat="33.6723367" lon="9.8221617"><ele>147.0</ele><time>2026-04-04T21:13:05.286Z</time></trkpt><trkpt lat="33.672215" lon="9.822025"><ele>147.0</ele><time>2026-04-04T21:13:06.286Z</time></trkpt><trkpt lat="33.6720817" lon="9.82188"><ele>147.0</ele><time>2026-04-04T21:13:07.286Z</time></trkpt><trkpt lat="33.6719433" lon="9.8217333"><ele>147.0</ele><time>2026-04-04T21:13:08.286Z</time></trkpt><trkpt lat="33.6718117" lon="9.8215917"><ele>147.0</ele><time>2026-04-04T21:13:09.285Z</time></trkpt><trkpt lat="33.6716817" lon="9.8214517"><ele>147.0</ele><time>2026-04-04T21:13:10.285Z</time></trkpt><trkpt lat="33.6715567" lon="9.8213083"><ele>147.0</ele><time>2026-04-04T21:13:11.285Z</time></trkpt><trkpt lat="33.6714333" lon="9.8211667"><ele>147.0</ele><time>2026-04-04T21:13:12.285Z</time></trkpt><trkpt lat="33.67131" lon="9.8210267"><ele>147.0</ele><time>2026-04-04T21:13:13.285Z</time></trkpt><trkpt lat="33.67119" lon="9.82089"><ele>147.0</ele><time>2026-04-04T21:13:14.283Z</time></trkpt><trkpt lat="33.6710717" lon="9.8207533"><ele>148.0</ele><time>2026-04-04T21:13:15.284Z</time></trkpt><trkpt lat="33.6709517" lon="9.82062"><ele>149.0</ele><time>2026-04-04T21:13:16.283Z</time></trkpt><trkpt lat="33.67083" lon="9.82049"><ele>150.0</ele><time>2026-04-04T21:13:17.283Z</time></trkpt><trkpt lat="33.670705" lon="9.82036"><ele>150.0</ele><time>2026-04-04T21:13:18.284Z</time></trkpt><trkpt lat="33.6705767" lon="9.82023"><ele>150.0</ele><time>2026-04-04T21:13:19.283Z</time></trkpt><trkpt lat="33.6704467" lon="9.8200967"><ele>150.0</ele><time>2026-04-04T21:13:20.284Z</time></trkpt><trkpt lat="33.6703167" lon="9.8199567"><ele>149.33333333333334</ele><time>2026-04-04T21:13:21.283Z</time></trkpt><trkpt lat="33.6701883" lon="9.8198117"><ele>148.66666666666669</ele><time>2026-04-04T21:13:22.282Z</time></trkpt><trkpt lat="33.6700667" lon="9.8196633"><ele>148.0</ele><time>2026-04-04T21:13:23.284Z</time></trkpt><trkpt lat="33.6699517" lon="9.819505"><ele>148.0</ele><time>2026-04-04T21:13:24.282Z</time></trkpt><trkpt lat="33.6698467" lon="9.8193383"><ele>148.0</ele><time>2026-04-04T21:13:25.284Z</time></trkpt><trkpt lat="33.6697517" lon="9.8191617"><ele>148.0</ele><time>2026-04-04T21:13:26.282Z</time></trkpt><trkpt lat="33.6696633" lon="9.818975"><ele>148.0</ele><time>2026-04-04T21:13:27.286Z</time></trkpt><trkpt lat="33.6695817" lon="9.8187783"><ele>148.0</ele><time>2026-04-04T21:13:28.285Z</time></trkpt><trkpt lat="33.6695133" lon="9.8185717"><ele>148.0</ele><time>2026-04-04T21:13:29.285Z</time></trkpt><trkpt lat="33.66945" lon="9.81836"><ele>149.0</ele><time>2026-04-04T21:13:30.285Z</time></trkpt><trkpt lat="33.6693933" lon="9.8181433"><ele>150.0</ele><time>2026-04-04T21:13:31.286Z</time></trkpt><trkpt lat="33.6693483" lon="9.8179317"><ele>151.0</ele><time>2026-04-04T21:13:32.285Z</time></trkpt><trkpt lat="33.6693033" lon="9.817725"><ele>151.0</ele><time>2026-04-04T21:13:33.285Z</time></trkpt><trkpt lat="33.66926" lon="9.81752"><ele>151.0</ele><time>2026-04-04T21:13:34.282Z</time></trkpt><trkpt lat="33.6692133" lon="9.8173133"><ele>151.0</ele><time>2026-04-04T21:13:35.283Z</time></trkpt><trkpt lat="33.6691617" lon="9.8171083"><ele>151.0</ele><time>2026-04-04T21:13:36.284Z</time></trkpt><trkpt lat="33.6691083" lon="9.8168983"><ele>151.0</ele><time>2026-04-04T21:13:37.284Z</time></trkpt><trkpt lat="33.66905" lon="9.8166867"><ele>151.0</ele><time>2026-04-04T21:13:38.283Z</time></trkpt><trkpt lat="33.66899" lon="9.8164717"><ele>150.0</ele><time>2026-04-04T21:13:39.284Z</time></trkpt><trkpt lat="33.6689267" lon="9.81625"><ele>149.0</ele><time>2026-04-04T21:13:40.283Z</time></trkpt><trkpt lat="33.6688667" lon="9.8160233"><ele>148.0</ele><time>2026-04-04T21:13:41.282Z</time></trkpt><trkpt lat="33.6688033" lon="9.815795"><ele>147.0</ele><time>2026-04-04T21:13:42.283Z</time></trkpt><trkpt lat="33.668745" lon="9.8155617"><ele>146.0</ele><time>2026-04-04T21:13:43.284Z</time></trkpt><trkpt lat="33.668685" lon="9.8153283"><ele>145.0</ele><time>2026-04-04T21:13:44.283Z</time></trkpt><trkpt lat="33.6686283" lon="9.8150967"><ele>145.33333333333334</ele><time>2026-04-04T21:13:45.286Z</time></trkpt><trkpt lat="33.6685717" lon="9.8148683"><ele>145.66666666666666</ele><time>2026-04-04T21:13:46.285Z</time></trkpt><trkpt lat="33.66852" lon="9.8146417"><ele>146.0</ele><time>2026-04-04T21:13:47.288Z</time></trkpt><trkpt lat="33.6684683" lon="9.8144167"><ele>146.66666666666666</ele><time>2026-04-04T21:13:48.286Z</time></trkpt><trkpt lat="33.668415" lon="9.8141933"><ele>147.33333333333334</ele><time>2026-04-04T21:13:49.285Z</time></trkpt><trkpt lat="33.6683583" lon="9.8139717"><ele>148.0</ele><time>2026-04-04T21:13:50.285Z</time></trkpt><trkpt lat="33.668305" lon="9.8137517"><ele>148.0</ele><time>2026-04-04T21:13:51.285Z</time></trkpt><trkpt lat="33.66825" lon="9.8135267"><ele>148.0</ele><time>2026-04-04T21:13:52.286Z</time></trkpt><trkpt lat="33.668195" lon="9.8133"><ele>148.0</ele><time>2026-04-04T21:13:53.285Z</time></trkpt><trkpt lat="33.668135" lon="9.8130717"><ele>147.66666666666669</ele><time>2026-04-04T21:13:54.285Z</time></trkpt><trkpt lat="33.6680767" lon="9.81284"><ele>147.33333333333334</ele><time>2026-04-04T21:13:55.282Z</time></trkpt><trkpt lat="33.6680217" lon="9.8126083"><ele>147.0</ele><time>2026-04-04T21:13:56.282Z</time></trkpt><trkpt lat="33.6679667" lon="9.8123767"><ele>146.66666666666666</ele><time>2026-04-04T21:13:57.285Z</time></trkpt><trkpt lat="33.6679067" lon="9.8121483"><ele>146.33333333333331</ele><time>2026-04-04T21:13:58.285Z</time></trkpt><trkpt lat="33.66785" lon="9.8119217"><ele>146.0</ele><time>2026-04-04T21:13:59.282Z</time></trkpt><trkpt lat="33.6677917" lon="9.811695"><ele>146.0</ele><time>2026-04-04T21:14:00.285Z</time></trkpt><trkpt lat="33.6677367" lon="9.8114683"><ele>146.0</ele><time>2026-04-04T21:14:01.285Z</time></trkpt><trkpt lat="33.667685" lon="9.8112417"><ele>146.0</ele><time>2026-04-04T21:14:02.285Z</time></trkpt><trkpt lat="33.66764" lon="9.811015"><ele>145.66666666666666</ele><time>2026-04-04T21:14:03.285Z</time></trkpt><trkpt lat="33.6675967" lon="9.8107933"><ele>145.33333333333334</ele><time>2026-04-04T21:14:04.282Z</time></trkpt><trkpt lat="33.667555" lon="9.810575"><ele>145.0</ele><time>2026-04-04T21:14:05.283Z</time></trkpt><trkpt lat="33.6675083" lon="9.810365"><ele>145.0</ele><time>2026-04-04T21:14:06.283Z</time></trkpt><trkpt lat="33.6674567" lon="9.8101717"><ele>145.0</ele><time>2026-04-04T21:14:07.283Z</time></trkpt><trkpt lat="33.6673917" lon="9.80999"><ele>145.0</ele><time>2026-04-04T21:14:08.283Z</time></trkpt><trkpt lat="33.66731" lon="9.8098133"><ele>145.0</ele><time>2026-04-04T21:14:09.282Z</time></trkpt><trkpt lat="33.6672217" lon="9.8096367"><ele>145.0</ele><time>2026-04-04T21:14:10.282Z</time></trkpt><trkpt lat="33.6671267" lon="9.8094617"><ele>145.0</ele><time>2026-04-04T21:14:11.282Z</time></trkpt><trkpt lat="33.6670283" lon="9.8092883"><ele>145.0</ele><time>2026-04-04T21:14:12.282Z</time></trkpt><trkpt lat="33.666925" lon="9.809115"><ele>145.0</ele><time>2026-04-04T21:14:13.282Z</time></trkpt><trkpt lat="33.6668217" lon="9.80894"><ele>145.0</ele><time>2026-04-04T21:14:14.282Z</time></trkpt><trkpt lat="33.6667167" lon="9.8087617"><ele>145.0</ele><time>2026-04-04T21:14:15.282Z</time></trkpt><trkpt lat="33.6666117" lon="9.80858"><ele>145.0</ele><time>2026-04-04T21:14:16.284Z</time></trkpt><trkpt lat="33.666505" lon="9.8083967"><ele>145.0</ele><time>2026-04-04T21:14:17.283Z</time></trkpt><trkpt lat="33.6663983" lon="9.8082117"><ele>145.0</ele><time>2026-04-04T21:14:18.282Z</time></trkpt><trkpt lat="33.66629" lon="9.808025"><ele>145.0</ele><time>2026-04-04T21:14:19.282Z</time></trkpt><trkpt lat="33.6661783" lon="9.8078367"><ele>145.0</ele><time>2026-04-04T21:14:20.282Z</time></trkpt><trkpt lat="33.6660683" lon="9.8076467"><ele>145.33333333333334</ele><time>2026-04-04T21:14:21.282Z</time></trkpt><trkpt lat="33.6659583" lon="9.8074567"><ele>145.66666666666666</ele><time>2026-04-04T21:14:22.283Z</time></trkpt><trkpt lat="33.66585" lon="9.8072683"><ele>146.0</ele><time>2026-04-04T21:14:23.283Z</time></trkpt><trkpt lat="33.6657433" lon="9.8070867"><ele>146.0</ele><time>2026-04-04T21:14:24.282Z</time></trkpt><trkpt lat="33.6656433" lon="9.80691"><ele>146.0</ele><time>2026-04-04T21:14:25.282Z</time></trkpt><trkpt lat="33.6655433" lon="9.8067367"><ele>146.0</ele><time>2026-04-04T21:14:26.282Z</time></trkpt><trkpt lat="33.6654433" lon="9.8065617"><ele>146.0</ele><time>2026-04-04T21:14:27.286Z</time></trkpt><trkpt lat="33.6653417" lon="9.8063883"><ele>146.0</ele><time>2026-04-04T21:14:28.285Z</time></trkpt><trkpt lat="33.6652433" lon="9.8062117"><ele>146.0</ele><time>2026-04-04T21:14:29.284Z</time></trkpt><trkpt lat="33.665145" lon="9.8060333"><ele>145.66666666666666</ele><time>2026-04-04T21:14:30.282Z</time></trkpt><trkpt lat="33.665045" lon="9.8058533"><ele>145.33333333333334</ele><time>2026-04-04T21:14:31.285Z</time></trkpt><trkpt lat="33.66494" lon="9.8056733"><ele>145.0</ele><time>2026-04-04T21:14:32.285Z</time></trkpt><trkpt lat="33.6648333" lon="9.805495"><ele>145.0</ele><time>2026-04-04T21:14:33.285Z</time></trkpt><trkpt lat="33.6647267" lon="9.8053183"><ele>145.0</ele><time>2026-04-04T21:14:34.283Z</time></trkpt><trkpt lat="33.664625" lon="9.8051433"><ele>145.0</ele><time>2026-04-04T21:14:35.282Z</time></trkpt><trkpt lat="33.6645217" lon="9.80497"><ele>146.33333333333334</ele><time>2026-04-04T21:14:36.284Z</time></trkpt><trkpt lat="33.6644183" lon="9.8047967"><ele>147.66666666666666</ele><time>2026-04-04T21:14:37.284Z</time></trkpt><trkpt lat="33.664315" lon="9.8046217"><ele>149.0</ele><time>2026-04-04T21:14:38.282Z</time></trkpt><trkpt lat="33.6642133" lon="9.804445"><ele>148.0</ele><time>2026-04-04T21:14:39.283Z</time></trkpt><trkpt lat="33.66411" lon="9.804265"><ele>147.0</ele><time>2026-04-04T21:14:40.283Z</time></trkpt><trkpt lat="33.664005" lon="9.8040833"><ele>146.0</ele><time>2026-04-04T21:14:41.284Z</time></trkpt><trkpt lat="33.6639" lon="9.8038983"><ele>146.0</ele><time>2026-04-04T21:14:42.284Z</time></trkpt><trkpt lat="33.6637933" lon="9.803715"><ele>146.0</ele><time>2026-04-04T21:14:43.283Z</time></trkpt><trkpt lat="33.6636867" lon="9.8035317"><ele>146.0</ele><time>2026-04-04T21:14:44.282Z</time></trkpt><trkpt lat="33.66358" lon="9.80335"><ele>145.33333333333331</ele><time>2026-04-04T21:14:45.282Z</time></trkpt><trkpt lat="33.663475" lon="9.8031683"><ele>144.66666666666666</ele><time>2026-04-04T21:14:46.284Z</time></trkpt><trkpt lat="33.6633767" lon="9.8029917"><ele>144.0</ele><time>2026-04-04T21:14:47.285Z</time></trkpt><trkpt lat="33.6632783" lon="9.8028217"><ele>144.33333333333334</ele><time>2026-04-04T21:14:48.285Z</time></trkpt><trkpt lat="33.6631817" lon="9.8026483"><ele>144.66666666666669</ele><time>2026-04-04T21:14:49.282Z</time></trkpt><trkpt lat="33.6630833" lon="9.8024733"><ele>145.0</ele><time>2026-04-04T21:14:50.282Z</time></trkpt><trkpt lat="33.662985" lon="9.8022967"><ele>145.0</ele><time>2026-04-04T21:14:51.283Z</time></trkpt><trkpt lat="33.662885" lon="9.8021167"><ele>145.0</ele><time>2026-04-04T21:14:52.283Z</time></trkpt><trkpt lat="33.6627833" lon="9.8019367"><ele>145.0</ele><time>2026-04-04T21:14:53.283Z</time></trkpt><trkpt lat="33.66268" lon="9.801755"><ele>144.66666666666669</ele><time>2026-04-04T21:14:54.283Z</time></trkpt><trkpt lat="33.6625817" lon="9.8015783"><ele>144.33333333333334</ele><time>2026-04-04T21:14:55.285Z</time></trkpt><trkpt lat="33.6624883" lon="9.8014083"><ele>144.0</ele><time>2026-04-04T21:14:56.284Z</time></trkpt><trkpt lat="33.6623983" lon="9.8012367"><ele>144.0</ele><time>2026-04-04T21:14:57.282Z</time></trkpt><trkpt lat="33.6623167" lon="9.8010633"><ele>144.0</ele><time>2026-04-04T21:14:58.282Z</time></trkpt><trkpt lat="33.662245" lon="9.8008933"><ele>144.0</ele><time>2026-04-04T21:14:59.282Z</time></trkpt><trkpt lat="33.6621833" lon="9.8007233"><ele>144.25</ele><time>2026-04-04T21:15:00.285Z</time></trkpt><trkpt lat="33.66213" lon="9.80056"><ele>144.5</ele><time>2026-04-04T21:15:01.284Z</time></trkpt><trkpt lat="33.6620783" lon="9.8003967"><ele>144.75</ele><time>2026-04-04T21:15:02.282Z</time></trkpt><trkpt lat="33.6620267" lon="9.8002317"><ele>145.0</ele><time>2026-04-04T21:15:03.282Z</time></trkpt><trkpt lat="33.6619733" lon="9.8000683"><ele>145.75</ele><time>2026-04-04T21:15:04.283Z</time></trkpt><trkpt lat="33.6619267" lon="9.7999167"><ele>146.5</ele><time>2026-04-04T21:15:05.283Z</time></trkpt><trkpt lat="33.6618867" lon="9.79978"><ele>147.25</ele><time>2026-04-04T21:15:06.283Z</time></trkpt><trkpt lat="33.6618483" lon="9.799655"><ele>148.0</ele><time>2026-04-04T21:15:07.282Z</time></trkpt><trkpt lat="33.66181" lon="9.7995367"><ele>148.0</ele><time>2026-04-04T21:15:08.281Z</time></trkpt><trkpt lat="33.6617717" lon="9.799415"><ele>148.0</ele><time>2026-04-04T21:15:09.283Z</time></trkpt><trkpt lat="33.6617333" lon="9.7992883"><ele>148.0</ele><time>2026-04-04T21:15:10.282Z</time></trkpt><trkpt lat="33.661695" lon="9.7991567"><ele>148.0</ele><time>2026-04-04T21:15:11.283Z</time></trkpt><trkpt lat="33.6616533" lon="9.7990217"><ele>148.0</ele><time>2026-04-04T21:15:12.284Z</time></trkpt><trkpt lat="33.6616083" lon="9.7988867"><ele>148.0</ele><time>2026-04-04T21:15:13.283Z</time></trkpt><trkpt lat="33.661565" lon="9.7987483"><ele>148.0</ele><time>2026-04-04T21:15:14.282Z</time></trkpt><trkpt lat="33.66152" lon="9.7986083"><ele>148.0</ele><time>2026-04-04T21:15:15.286Z</time></trkpt><trkpt lat="33.661475" lon="9.798465"><ele>148.0</ele><time>2026-04-04T21:15:16.282Z</time></trkpt><trkpt lat="33.6614317" lon="9.7983217"><ele>148.0</ele><time>2026-04-04T21:15:17.283Z</time></trkpt><trkpt lat="33.6613867" lon="9.7981783"><ele>148.0</ele><time>2026-04-04T21:15:18.282Z</time></trkpt><trkpt lat="33.6613417" lon="9.7980333"><ele>148.0</ele><time>2026-04-04T21:15:19.282Z</time></trkpt><trkpt lat="33.6612917" lon="9.7978867"><ele>148.0</ele><time>2026-04-04T21:15:20.281Z</time></trkpt><trkpt lat="33.661245" lon="9.7977367"><ele>148.0</ele><time>2026-04-04T21:15:21.283Z</time></trkpt><trkpt lat="33.661195" lon="9.797585"><ele>148.0</ele><time>2026-04-04T21:15:22.284Z</time></trkpt><trkpt lat="33.6611483" lon="9.79743"><ele>148.0</ele><time>2026-04-04T21:15:23.284Z</time></trkpt><trkpt lat="33.6611" lon="9.797275"><ele>148.25</ele><time>2026-04-04T21:15:24.282Z</time></trkpt><trkpt lat="33.6610517" lon="9.79712"><ele>148.5</ele><time>2026-04-04T21:15:25.283Z</time></trkpt><trkpt lat="33.6610033" lon="9.7969617"><ele>148.75</ele><time>2026-04-04T21:15:26.282Z</time></trkpt><trkpt lat="33.6609567" lon="9.7968017"><ele>149.0</ele><time>2026-04-04T21:15:27.285Z</time></trkpt><trkpt lat="33.6609033" lon="9.7966417"><ele>149.25</ele><time>2026-04-04T21:15:28.285Z</time></trkpt><trkpt lat="33.6608567" lon="9.7964817"><ele>149.5</ele><time>2026-04-04T21:15:29.281Z</time></trkpt><trkpt lat="33.660805" lon="9.7963233"><ele>149.75</ele><time>2026-04-04T21:15:30.282Z</time></trkpt><trkpt lat="33.6607567" lon="9.796165"><ele>150.0</ele><time>2026-04-04T21:15:31.285Z</time></trkpt><trkpt lat="33.6607117" lon="9.796015"><ele>150.25</ele><time>2026-04-04T21:15:32.284Z</time></trkpt><trkpt lat="33.6606667" lon="9.7958733"><ele>150.5</ele><time>2026-04-04T21:15:33.283Z</time></trkpt><trkpt lat="33.660625" lon="9.79574"><ele>150.75</ele><time>2026-04-04T21:15:34.282Z</time></trkpt><trkpt lat="33.660585" lon="9.7956083"><ele>151.0</ele><time>2026-04-04T21:15:35.282Z</time></trkpt><trkpt lat="33.6605417" lon="9.7954683"><ele>151.0</ele><time>2026-04-04T21:15:36.283Z</time></trkpt><trkpt lat="33.6604983" lon="9.7953233"><ele>151.0</ele><time>2026-04-04T21:15:37.283Z</time></trkpt><trkpt lat="33.66045" lon="9.7951767"><ele>151.0</ele><time>2026-04-04T21:15:38.282Z</time></trkpt><trkpt lat="33.6604067" lon="9.795035"><ele>151.0</ele><time>2026-04-04T21:15:39.282Z</time></trkpt><trkpt lat="33.6603633" lon="9.7949033"><ele>151.0</ele><time>2026-04-04T21:15:40.282Z</time></trkpt><trkpt lat="33.6603183" lon="9.794775"><ele>151.0</ele><time>2026-04-04T21:15:41.282Z</time></trkpt><trkpt lat="33.6602783" lon="9.7946517"><ele>151.0</ele><time>2026-04-04T21:15:42.283Z</time></trkpt><trkpt lat="33.66024" lon="9.7945367"><ele>151.0</ele><time>2026-04-04T21:15:43.283Z</time></trkpt><trkpt lat="33.6602017" lon="9.7944217"><ele>151.0</ele><time>2026-04-04T21:15:44.282Z</time></trkpt><trkpt lat="33.6601633" lon="9.794295"><ele>151.0</ele><time>2026-04-04T21:15:45.282Z</time></trkpt><trkpt lat="33.66012" lon="9.7941617"><ele>151.0</ele><time>2026-04-04T21:15:46.283Z</time></trkpt><trkpt lat="33.66008" lon="9.7940217"><ele>151.0</ele><time>2026-04-04T21:15:47.283Z</time></trkpt><trkpt lat="33.66003" lon="9.79388"><ele>151.0</ele><time>2026-04-04T21:15:48.282Z</time></trkpt><trkpt lat="33.6599833" lon="9.79373"><ele>151.0</ele><time>2026-04-04T21:15:49.283Z</time></trkpt><trkpt lat="33.6599333" lon="9.79358"><ele>151.0</ele><time>2026-04-04T21:15:50.285Z</time></trkpt><trkpt lat="33.65989" lon="9.79343"><ele>151.0</ele><time>2026-04-04T21:15:51.283Z</time></trkpt><trkpt lat="33.6598433" lon="9.7932817"><ele>151.0</ele><time>2026-04-04T21:15:52.285Z</time></trkpt><trkpt lat="33.6597983" lon="9.79314"><ele>151.4</ele><time>2026-04-04T21:15:53.284Z</time></trkpt><trkpt lat="33.6597583" lon="9.7930117"><ele>151.8</ele><time>2026-04-04T21:15:54.286Z</time></trkpt><trkpt lat="33.6597217" lon="9.792895"><ele>152.20000000000002</ele><time>2026-04-04T21:15:55.284Z</time></trkpt><trkpt lat="33.6596867" lon="9.7927883"><ele>152.6</ele><time>2026-04-04T21:15:56.281Z</time></trkpt><trkpt lat="33.65966" lon="9.7926917"><ele>153.0</ele><time>2026-04-04T21:15:57.282Z</time></trkpt><trkpt lat="33.6596417" lon="9.7925967"><ele>153.0</ele><time>2026-04-04T21:15:58.282Z</time></trkpt><trkpt lat="33.65964" lon="9.7924917"><ele>153.0</ele><time>2026-04-04T21:15:59.285Z</time></trkpt><trkpt lat="33.6596567" lon="9.792375"><ele>153.0</ele><time>2026-04-04T21:16:00.286Z</time></trkpt><trkpt lat="33.65969" lon="9.79225"><ele>153.0</ele><time>2026-04-04T21:16:01.284Z</time></trkpt><trkpt lat="33.6597333" lon="9.7921117"><ele>153.0</ele><time>2026-04-04T21:16:02.285Z</time></trkpt><trkpt lat="33.6597733" lon="9.79196"><ele>152.25</ele><time>2026-04-04T21:16:03.282Z</time></trkpt><trkpt lat="33.6598033" lon="9.7917967"><ele>151.5</ele><time>2026-04-04T21:16:04.283Z</time></trkpt><trkpt lat="33.65982" lon="9.791625"><ele>150.75</ele><time>2026-04-04T21:16:05.283Z</time></trkpt><trkpt lat="33.659825" lon="9.7914483"><ele>150.0</ele><time>2026-04-04T21:16:06.282Z</time></trkpt><trkpt lat="33.6598217" lon="9.7912817"><ele>150.0</ele><time>2026-04-04T21:16:07.283Z</time></trkpt><trkpt lat="33.6598183" lon="9.7911233"><ele>150.0</ele><time>2026-04-04T21:16:08.283Z</time></trkpt><trkpt lat="33.65982" lon="9.7909683"><ele>150.0</ele><time>2026-04-04T21:16:09.283Z</time></trkpt><trkpt lat="33.659825" lon="9.790815"><ele>150.0</ele><time>2026-04-04T21:16:10.284Z</time></trkpt><trkpt lat="33.6598283" lon="9.7906667"><ele>150.0</ele><time>2026-04-04T21:16:11.285Z</time></trkpt><trkpt lat="33.659825" lon="9.7905267"><ele>150.0</ele><time>2026-04-04T21:16:12.283Z</time></trkpt><trkpt lat="33.6598217" lon="9.7903967"><ele>150.0</ele><time>2026-04-04T21:16:13.282Z</time></trkpt><trkpt lat="33.65982" lon="9.7902683"><ele>150.0</ele><time>2026-04-04T21:16:14.283Z</time></trkpt><trkpt lat="33.6598183" lon="9.7901283"><ele>150.0</ele><time>2026-04-04T21:16:15.283Z</time></trkpt><trkpt lat="33.659825" lon="9.7899783"><ele>149.5</ele><time>2026-04-04T21:16:16.285Z</time></trkpt><trkpt lat="33.6598267" lon="9.789825"><ele>149.0</ele><time>2026-04-04T21:16:17.282Z</time></trkpt><trkpt lat="33.659825" lon="9.789665"><ele>148.5</ele><time>2026-04-04T21:16:18.285Z</time></trkpt><trkpt lat="33.6598317" lon="9.7895017"><ele>148.0</ele><time>2026-04-04T21:16:19.285Z</time></trkpt><trkpt lat="33.659835" lon="9.7893367"><ele>147.5</ele><time>2026-04-04T21:16:20.283Z</time></trkpt><trkpt lat="33.6598367" lon="9.7891717"><ele>147.0</ele><time>2026-04-04T21:16:21.286Z</time></trkpt><trkpt lat="33.6598283" lon="9.789"><ele>146.5</ele><time>2026-04-04T21:16:22.286Z</time></trkpt><trkpt lat="33.659815" lon="9.7888233"><ele>146.0</ele><time>2026-04-04T21:16:23.283Z</time></trkpt><trkpt lat="33.6597967" lon="9.7886433"><ele>146.25</ele><time>2026-04-04T21:16:24.282Z</time></trkpt><trkpt lat="33.65978" lon="9.78846"><ele>146.5</ele><time>2026-04-04T21:16:25.283Z</time></trkpt><trkpt lat="33.65976" lon="9.7882833"><ele>146.75</ele><time>2026-04-04T21:16:26.285Z</time></trkpt><trkpt lat="33.6597433" lon="9.7881133"><ele>147.0</ele><time>2026-04-04T21:16:27.285Z</time></trkpt><trkpt lat="33.6597267" lon="9.7879517"><ele>147.0</ele><time>2026-04-04T21:16:28.285Z</time></trkpt><trkpt lat="33.6597117" lon="9.7877833"><ele>147.0</ele><time>2026-04-04T21:16:29.283Z</time></trkpt><trkpt lat="33.6596883" lon="9.7876117"><ele>147.0</ele><time>2026-04-04T21:16:30.288Z</time></trkpt><trkpt lat="33.6596617" lon="9.7874417"><ele>147.0</ele><time>2026-04-04T21:16:31.285Z</time></trkpt><trkpt lat="33.659635" lon="9.78727"><ele>147.5</ele><time>2026-04-04T21:16:32.285Z</time></trkpt><trkpt lat="33.6596117" lon="9.7870967"><ele>148.0</ele><time>2026-04-04T21:16:33.282Z</time></trkpt><trkpt lat="33.659595" lon="9.786925"><ele>148.5</ele><time>2026-04-04T21:16:34.285Z</time></trkpt><trkpt lat="33.6595783" lon="9.78675"><ele>149.0</ele><time>2026-04-04T21:16:35.285Z</time></trkpt><trkpt lat="33.6595617" lon="9.7865733"><ele>149.0</ele><time>2026-04-04T21:16:36.285Z</time></trkpt><trkpt lat="33.6595417" lon="9.7863933"><ele>149.0</ele><time>2026-04-04T21:16:37.286Z</time></trkpt><trkpt lat="33.659525" lon="9.7862183"><ele>149.0</ele><time>2026-04-04T21:16:38.285Z</time></trkpt><trkpt lat="33.6595033" lon="9.7860533"><ele>149.0</ele><time>2026-04-04T21:16:39.285Z</time></trkpt><trkpt lat="33.65948" lon="9.7858967"><ele>148.5</ele><time>2026-04-04T21:16:40.282Z</time></trkpt><trkpt lat="33.6594617" lon="9.7857383"><ele>148.0</ele><time>2026-04-04T21:16:41.285Z</time></trkpt><trkpt lat="33.6594467" lon="9.7855767"><ele>147.5</ele><time>2026-04-04T21:16:42.283Z</time></trkpt><trkpt lat="33.65943" lon="9.7854133"><ele>147.0</ele><time>2026-04-04T21:16:43.283Z</time></trkpt><trkpt lat="33.6594083" lon="9.7852567"><ele>147.75</ele><time>2026-04-04T21:16:44.285Z</time></trkpt><trkpt lat="33.65939" lon="9.7851017"><ele>148.5</ele><time>2026-04-04T21:16:45.282Z</time></trkpt><trkpt lat="33.6593717" lon="9.7849467"><ele>149.25</ele><time>2026-04-04T21:16:46.282Z</time></trkpt><trkpt lat="33.659355" lon="9.78479"><ele>150.0</ele><time>2026-04-04T21:16:47.286Z</time></trkpt><trkpt lat="33.6593367" lon="9.7846267"><ele>150.0</ele><time>2026-04-04T21:16:48.282Z</time></trkpt><trkpt lat="33.6593217" lon="9.78446"><ele>150.0</ele><time>2026-04-04T21:16:49.285Z</time></trkpt><trkpt lat="33.6593" lon="9.7842833"><ele>150.0</ele><time>2026-04-04T21:16:50.286Z</time></trkpt><trkpt lat="33.6592783" lon="9.7841"><ele>150.0</ele><time>2026-04-04T21:16:51.286Z</time></trkpt><trkpt lat="33.659255" lon="9.7839083"><ele>150.0</ele><time>2026-04-04T21:16:52.285Z</time></trkpt><trkpt lat="33.659235" lon="9.7837117"><ele>150.0</ele><time>2026-04-04T21:16:53.282Z</time></trkpt><trkpt lat="33.659215" lon="9.78351"><ele>150.0</ele><time>2026-04-04T21:16:54.282Z</time></trkpt><trkpt lat="33.659195" lon="9.7833033"><ele>149.66666666666666</ele><time>2026-04-04T21:16:55.285Z</time></trkpt><trkpt lat="33.6591833" lon="9.7830917"><ele>149.33333333333331</ele><time>2026-04-04T21:16:56.285Z</time></trkpt><trkpt lat="33.65918" lon="9.78288"><ele>149.0</ele><time>2026-04-04T21:16:57.285Z</time></trkpt><trkpt lat="33.65918" lon="9.7826683"><ele>149.0</ele><time>2026-04-04T21:16:58.285Z</time></trkpt><trkpt lat="33.6591833" lon="9.7824567"><ele>149.0</ele><time>2026-04-04T21:16:59.285Z</time></trkpt><trkpt lat="33.65919" lon="9.7822533"><ele>149.0</ele><time>2026-04-04T21:17:00.285Z</time></trkpt><trkpt lat="33.6591967" lon="9.7820583"><ele>149.0</ele><time>2026-04-04T21:17:01.284Z</time></trkpt><trkpt lat="33.6592" lon="9.781865"><ele>149.0</ele><time>2026-04-04T21:17:02.285Z</time></trkpt><trkpt lat="33.6592033" lon="9.781675"><ele>149.0</ele><time>2026-04-04T21:17:03.285Z</time></trkpt><trkpt lat="33.6592067" lon="9.781485"><ele>149.0</ele><time>2026-04-04T21:17:04.285Z</time></trkpt><trkpt lat="33.6592067" lon="9.7812917"><ele>149.0</ele><time>2026-04-04T21:17:05.285Z</time></trkpt><trkpt lat="33.6592133" lon="9.781095"><ele>149.0</ele><time>2026-04-04T21:17:06.285Z</time></trkpt><trkpt lat="33.6592233" lon="9.780895"><ele>149.0</ele><time>2026-04-04T21:17:07.286Z</time></trkpt><trkpt lat="33.6592383" lon="9.7806933"><ele>149.0</ele><time>2026-04-04T21:17:08.285Z</time></trkpt><trkpt lat="33.6592567" lon="9.78049"><ele>149.0</ele><time>2026-04-04T21:17:09.285Z</time></trkpt><trkpt lat="33.659275" lon="9.780285"><ele>148.33333333333331</ele><time>2026-04-04T21:17:10.286Z</time></trkpt><trkpt lat="33.6592917" lon="9.7800783"><ele>147.66666666666666</ele><time>2026-04-04T21:17:11.285Z</time></trkpt><trkpt lat="33.65931" lon="9.77987"><ele>147.0</ele><time>2026-04-04T21:17:12.285Z</time></trkpt><trkpt lat="33.65933" lon="9.7796583"><ele>147.0</ele><time>2026-04-04T21:17:13.285Z</time></trkpt><trkpt lat="33.6593483" lon="9.7794467"><ele>147.0</ele><time>2026-04-04T21:17:14.286Z</time></trkpt><trkpt lat="33.6593683" lon="9.77923"><ele>147.0</ele><time>2026-04-04T21:17:15.282Z</time></trkpt><trkpt lat="33.6593883" lon="9.7790083"><ele>147.0</ele><time>2026-04-04T21:17:16.286Z</time></trkpt><trkpt lat="33.6594083" lon="9.7787867"><ele>147.0</ele><time>2026-04-04T21:17:17.286Z</time></trkpt><trkpt lat="33.659425" lon="9.7785617"><ele>147.0</ele><time>2026-04-04T21:17:18.287Z</time></trkpt><trkpt lat="33.6594433" lon="9.7783383"><ele>147.0</ele><time>2026-04-04T21:17:19.285Z</time></trkpt><trkpt lat="33.6594583" lon="9.7781133"><ele>147.0</ele><time>2026-04-04T21:17:20.285Z</time></trkpt><trkpt lat="33.659475" lon="9.7778883"><ele>147.0</ele><time>2026-04-04T21:17:21.285Z</time></trkpt><trkpt lat="33.6594917" lon="9.777665"><ele>147.0</ele><time>2026-04-04T21:17:22.285Z</time></trkpt><trkpt lat="33.6595117" lon="9.7774433"><ele>147.0</ele><time>2026-04-04T21:17:23.286Z</time></trkpt><trkpt lat="33.6595333" lon="9.7772217"><ele>147.0</ele><time>2026-04-04T21:17:24.285Z</time></trkpt><trkpt lat="33.6595533" lon="9.7770033"><ele>147.66666666666666</ele><time>2026-04-04T21:17:25.282Z</time></trkpt><trkpt lat="33.6595733" lon="9.7767867"><ele>148.33333333333331</ele><time>2026-04-04T21:17:26.286Z</time></trkpt><trkpt lat="33.659595" lon="9.7765683"><ele>149.0</ele><time>2026-04-04T21:17:27.285Z</time></trkpt><trkpt lat="33.659615" lon="9.776345"><ele>149.0</ele><time>2026-04-04T21:17:28.286Z</time></trkpt><trkpt lat="33.6596383" lon="9.7761267"><ele>149.0</ele><time>2026-04-04T21:17:29.285Z</time></trkpt><trkpt lat="33.6596617" lon="9.77592"><ele>149.0</ele><time>2026-04-04T21:17:30.285Z</time></trkpt><trkpt lat="33.659685" lon="9.775725"><ele>149.0</ele><time>2026-04-04T21:17:31.285Z</time></trkpt><trkpt lat="33.65971" lon="9.77554"><ele>149.0</ele><time>2026-04-04T21:17:32.285Z</time></trkpt><trkpt lat="33.6597333" lon="9.7753583"><ele>149.0</ele><time>2026-04-04T21:17:33.285Z</time></trkpt><trkpt lat="33.6597583" lon="9.7751717"><ele>148.66666666666666</ele><time>2026-04-04T21:17:34.285Z</time></trkpt><trkpt lat="33.659785" lon="9.77498"><ele>148.33333333333334</ele><time>2026-04-04T21:17:35.285Z</time></trkpt><trkpt lat="33.6598117" lon="9.774785"><ele>148.0</ele><time>2026-04-04T21:17:36.285Z</time></trkpt><trkpt lat="33.6598317" lon="9.7745883"><ele>148.0</ele><time>2026-04-04T21:17:37.285Z</time></trkpt><trkpt lat="33.65984" lon="9.7743883"><ele>148.0</ele><time>2026-04-04T21:17:38.285Z</time></trkpt><trkpt lat="33.659845" lon="9.7741867"><ele>148.0</ele><time>2026-04-04T21:17:39.286Z</time></trkpt><trkpt lat="33.6598417" lon="9.7739833"><ele>147.66666666666669</ele><time>2026-04-04T21:17:40.286Z</time></trkpt><trkpt lat="33.6598283" lon="9.77378"><ele>147.33333333333334</ele><time>2026-04-04T21:17:41.285Z</time></trkpt><trkpt lat="33.6598083" lon="9.7735733"><ele>147.0</ele><time>2026-04-04T21:17:42.282Z</time></trkpt><trkpt lat="33.65978" lon="9.7733617"><ele>147.0</ele><time>2026-04-04T21:17:43.284Z</time></trkpt><trkpt lat="33.6597433" lon="9.7731467"><ele>147.0</ele><time>2026-04-04T21:17:44.282Z</time></trkpt><trkpt lat="33.6597" lon="9.77293"><ele>147.0</ele><time>2026-04-04T21:17:45.282Z</time></trkpt><trkpt lat="33.6596517" lon="9.77271"><ele>147.33333333333334</ele><time>2026-04-04T21:17:46.285Z</time></trkpt><trkpt lat="33.6596017" lon="9.7724883"><ele>147.66666666666669</ele><time>2026-04-04T21:17:47.285Z</time></trkpt><trkpt lat="33.65955" lon="9.77227"><ele>148.0</ele><time>2026-04-04T21:17:48.286Z</time></trkpt><trkpt lat="33.6594983" lon="9.77206"><ele>148.33333333333334</ele><time>2026-04-04T21:17:49.284Z</time></trkpt><trkpt lat="33.6594433" lon="9.771855"><ele>148.66666666666666</ele><time>2026-04-04T21:17:50.283Z</time></trkpt><trkpt lat="33.6593917" lon="9.7716467"><ele>149.0</ele><time>2026-04-04T21:17:51.285Z</time></trkpt><trkpt lat="33.6593367" lon="9.7714367"><ele>149.0</ele><time>2026-04-04T21:17:52.285Z</time></trkpt><trkpt lat="33.6592833" lon="9.7712267"><ele>149.0</ele><time>2026-04-04T21:17:53.284Z</time></trkpt><trkpt lat="33.6592283" lon="9.771015"><ele>149.0</ele><time>2026-04-04T21:17:54.284Z</time></trkpt><trkpt lat="33.6591733" lon="9.7708067"><ele>149.33333333333331</ele><time>2026-04-04T21:17:55.285Z</time></trkpt><trkpt lat="33.6591167" lon="9.770595"><ele>149.66666666666666</ele><time>2026-04-04T21:17:56.284Z</time></trkpt><trkpt lat="33.6590633" lon="9.7703883"><ele>150.0</ele><time>2026-04-04T21:17:57.285Z</time></trkpt><trkpt lat="33.65901" lon="9.770185"><ele>150.0</ele><time>2026-04-04T21:17:58.283Z</time></trkpt><trkpt lat="33.6589583" lon="9.7699833"><ele>150.0</ele><time>2026-04-04T21:17:59.284Z</time></trkpt><trkpt lat="33.6589067" lon="9.7697817"><ele>150.0</ele><time>2026-04-04T21:18:00.283Z</time></trkpt><trkpt lat="33.65886" lon="9.7695767"><ele>150.0</ele><time>2026-04-04T21:18:01.285Z</time></trkpt><trkpt lat="33.65881" lon="9.769375"><ele>150.0</ele><time>2026-04-04T21:18:02.285Z</time></trkpt><trkpt lat="33.6587617" lon="9.7691817"><ele>150.0</ele><time>2026-04-04T21:18:03.286Z</time></trkpt><trkpt lat="33.6587083" lon="9.7689933"><ele>149.66666666666666</ele><time>2026-04-04T21:18:04.286Z</time></trkpt><trkpt lat="33.6586517" lon="9.7688033"><ele>149.33333333333331</ele><time>2026-04-04T21:18:05.285Z</time></trkpt><trkpt lat="33.6585967" lon="9.7686067"><ele>149.0</ele><time>2026-04-04T21:18:06.285Z</time></trkpt><trkpt lat="33.6585417" lon="9.7684067"><ele>149.0</ele><time>2026-04-04T21:18:07.286Z</time></trkpt><trkpt lat="33.658485" lon="9.768205"><ele>149.0</ele><time>2026-04-04T21:18:08.286Z</time></trkpt><trkpt lat="33.6584267" lon="9.7680033"><ele>149.0</ele><time>2026-04-04T21:18:09.285Z</time></trkpt><trkpt lat="33.6583683" lon="9.7678033"><ele>149.0</ele><time>2026-04-04T21:18:10.284Z</time></trkpt><trkpt lat="33.65831" lon="9.7676067"><ele>149.0</ele><time>2026-04-04T21:18:11.284Z</time></trkpt><trkpt lat="33.6582517" lon="9.7674083"><ele>149.0</ele><time>2026-04-04T21:18:12.285Z</time></trkpt><trkpt lat="33.6581917" lon="9.76721"><ele>149.0</ele><time>2026-04-04T21:18:13.285Z</time></trkpt><trkpt lat="33.6581283" lon="9.7670167"><ele>149.0</ele><time>2026-04-04T21:18:14.285Z</time></trkpt><trkpt lat="33.6580667" lon="9.7668267"><ele>149.0</ele><time>2026-04-04T21:18:15.284Z</time></trkpt><trkpt lat="33.658005" lon="9.7666467"><ele>148.33333333333331</ele><time>2026-04-04T21:18:16.282Z</time></trkpt><trkpt lat="33.6579483" lon="9.7664733"><ele>147.66666666666666</ele><time>2026-04-04T21:18:17.283Z</time></trkpt><trkpt lat="33.6578917" lon="9.7662967"><ele>147.0</ele><time>2026-04-04T21:18:18.284Z</time></trkpt><trkpt lat="33.6578383" lon="9.7661133"><ele>148.66666666666666</ele><time>2026-04-04T21:18:19.282Z</time></trkpt><trkpt lat="33.6577833" lon="9.7659267"><ele>150.33333333333331</ele><time>2026-04-04T21:18:20.282Z</time></trkpt><trkpt lat="33.6577267" lon="9.76574"><ele>152.0</ele><time>2026-04-04T21:18:21.284Z</time></trkpt><trkpt lat="33.6576683" lon="9.7655583"><ele>152.0</ele><time>2026-04-04T21:18:22.283Z</time></trkpt><trkpt lat="33.6576083" lon="9.7653833"><ele>152.0</ele><time>2026-04-04T21:18:23.284Z</time></trkpt><trkpt lat="33.6575483" lon="9.7652167"><ele>152.0</ele><time>2026-04-04T21:18:24.284Z</time></trkpt><trkpt lat="33.65749" lon="9.7650483"><ele>152.33333333333331</ele><time>2026-04-04T21:18:25.282Z</time></trkpt><trkpt lat="33.6574317" lon="9.7648733"><ele>152.66666666666666</ele><time>2026-04-04T21:18:26.284Z</time></trkpt><trkpt lat="33.657375" lon="9.7646933"><ele>153.0</ele><time>2026-04-04T21:18:27.285Z</time></trkpt><trkpt lat="33.6573183" lon="9.7645083"><ele>153.33333333333334</ele><time>2026-04-04T21:18:28.284Z</time></trkpt><trkpt lat="33.6572633" lon="9.7643233"><ele>153.66666666666669</ele><time>2026-04-04T21:18:29.285Z</time></trkpt><trkpt lat="33.65721" lon="9.7641383"><ele>154.0</ele><time>2026-04-04T21:18:30.285Z</time></trkpt><trkpt lat="33.6571533" lon="9.76395"><ele>154.0</ele><time>2026-04-04T21:18:31.284Z</time></trkpt><trkpt lat="33.6570967" lon="9.7637617"><ele>154.0</ele><time>2026-04-04T21:18:32.285Z</time></trkpt><trkpt lat="33.6570383" lon="9.7635717"><ele>154.0</ele><time>2026-04-04T21:18:33.284Z</time></trkpt><trkpt lat="33.6569767" lon="9.7633783"><ele>155.33333333333334</ele><time>2026-04-04T21:18:34.284Z</time></trkpt><trkpt lat="33.6569167" lon="9.7631817"><ele>156.66666666666666</ele><time>2026-04-04T21:18:35.284Z</time></trkpt><trkpt lat="33.6568567" lon="9.7629833"><ele>158.0</ele><time>2026-04-04T21:18:36.284Z</time></trkpt><trkpt lat="33.6567967" lon="9.7627833"><ele>158.0</ele><time>2026-04-04T21:18:37.284Z</time></trkpt><trkpt lat="33.6567317" lon="9.76258"><ele>158.0</ele><time>2026-04-04T21:18:38.285Z</time></trkpt><trkpt lat="33.6566733" lon="9.7623817"><ele>158.0</ele><time>2026-04-04T21:18:39.285Z</time></trkpt><trkpt lat="33.656615" lon="9.7621867"><ele>158.0</ele><time>2026-04-04T21:18:40.284Z</time></trkpt><trkpt lat="33.6565633" lon="9.7619917"><ele>158.0</ele><time>2026-04-04T21:18:41.284Z</time></trkpt><trkpt lat="33.65652" lon="9.761795"><ele>158.0</ele><time>2026-04-04T21:18:42.282Z</time></trkpt><trkpt lat="33.6564917" lon="9.761595"><ele>158.33333333333331</ele><time>2026-04-04T21:18:43.282Z</time></trkpt><trkpt lat="33.656475" lon="9.7613933"><ele>158.66666666666666</ele><time>2026-04-04T21:18:44.283Z</time></trkpt><trkpt lat="33.65646" lon="9.7611933"><ele>159.0</ele><time>2026-04-04T21:18:45.285Z</time></trkpt><trkpt lat="33.656445" lon="9.761"><ele>159.0</ele><time>2026-04-04T21:18:46.282Z</time></trkpt><trkpt lat="33.6564267" lon="9.7608167"><ele>159.0</ele><time>2026-04-04T21:18:47.283Z</time></trkpt><trkpt lat="33.6564117" lon="9.7606433"><ele>159.0</ele><time>2026-04-04T21:18:48.282Z</time></trkpt><trkpt lat="33.6564067" lon="9.76048"><ele>159.0</ele><time>2026-04-04T21:18:49.283Z</time></trkpt><trkpt lat="33.6564117" lon="9.760325"><ele>158.0</ele><time>2026-04-04T21:18:50.284Z</time></trkpt><trkpt lat="33.6564367" lon="9.760175"><ele>157.0</ele><time>2026-04-04T21:18:51.285Z</time></trkpt><trkpt lat="33.656485" lon="9.7600233"><ele>156.0</ele><time>2026-04-04T21:18:52.284Z</time></trkpt><trkpt lat="33.6565517" lon="9.7598683"><ele>155.0</ele><time>2026-04-04T21:18:53.285Z</time></trkpt><trkpt lat="33.65663" lon="9.75971"><ele>155.0</ele><time>2026-04-04T21:18:54.286Z</time></trkpt><trkpt lat="33.65672" lon="9.75955"><ele>155.0</ele><time>2026-04-04T21:18:55.284Z</time></trkpt><trkpt lat="33.656815" lon="9.759385"><ele>155.0</ele><time>2026-04-04T21:18:56.284Z</time></trkpt><trkpt lat="33.65691" lon="9.7592167"><ele>156.0</ele><time>2026-04-04T21:18:57.282Z</time></trkpt><trkpt lat="33.6570083" lon="9.7590467"><ele>157.0</ele><time>2026-04-04T21:18:58.285Z</time></trkpt><trkpt lat="33.65711" lon="9.758875"><ele>158.0</ele><time>2026-04-04T21:18:59.286Z</time></trkpt><trkpt lat="33.6572117" lon="9.7587017"><ele>157.66666666666666</ele><time>2026-04-04T21:19:00.285Z</time></trkpt><trkpt lat="33.657315" lon="9.7585283"><ele>157.33333333333334</ele><time>2026-04-04T21:19:01.284Z</time></trkpt><trkpt lat="33.6574217" lon="9.758355"><ele>157.0</ele><time>2026-04-04T21:19:02.284Z</time></trkpt><trkpt lat="33.6575367" lon="9.7581867"><ele>157.0</ele><time>2026-04-04T21:19:03.286Z</time></trkpt><trkpt lat="33.657655" lon="9.758025"><ele>157.0</ele><time>2026-04-04T21:19:04.285Z</time></trkpt><trkpt lat="33.6577783" lon="9.7578733"><ele>157.0</ele><time>2026-04-04T21:19:05.285Z</time></trkpt><trkpt lat="33.65791" lon="9.7577283"><ele>156.33333333333334</ele><time>2026-04-04T21:19:06.285Z</time></trkpt><trkpt lat="33.6580433" lon="9.7575917"><ele>155.66666666666666</ele><time>2026-04-04T21:19:07.286Z</time></trkpt><trkpt lat="33.658175" lon="9.757465"><ele>155.0</ele><time>2026-04-04T21:19:08.285Z</time></trkpt><trkpt lat="33.6582983" lon="9.7573433"><ele>155.0</ele><time>2026-04-04T21:19:09.286Z</time></trkpt><trkpt lat="33.658415" lon="9.7572283"><ele>155.0</ele><time>2026-04-04T21:19:10.285Z</time></trkpt><trkpt lat="33.6585233" lon="9.7571117"><ele>155.0</ele><time>2026-04-04T21:19:11.285Z</time></trkpt><trkpt lat="33.6586267" lon="9.756985"><ele>155.0</ele><time>2026-04-04T21:19:12.286Z</time></trkpt><trkpt lat="33.65873" lon="9.7568467"><ele>154.66666666666666</ele><time>2026-04-04T21:19:13.284Z</time></trkpt><trkpt lat="33.658835" lon="9.7567067"><ele>154.33333333333334</ele><time>2026-04-04T21:19:14.285Z</time></trkpt><trkpt lat="33.6589433" lon="9.7565733"><ele>154.0</ele><time>2026-04-04T21:19:15.285Z</time></trkpt><trkpt lat="33.6590567" lon="9.756455"><ele>154.0</ele><time>2026-04-04T21:19:16.285Z</time></trkpt><trkpt lat="33.6591833" lon="9.7563483"><ele>154.0</ele><time>2026-04-04T21:19:17.287Z</time></trkpt><trkpt lat="33.6593233" lon="9.7562467"><ele>154.0</ele><time>2026-04-04T21:19:18.285Z</time></trkpt><trkpt lat="33.65947" lon="9.7561483"><ele>154.0</ele><time>2026-04-04T21:19:19.287Z</time></trkpt><trkpt lat="33.6596167" lon="9.7560533"><ele>154.0</ele><time>2026-04-04T21:19:20.285Z</time></trkpt><trkpt lat="33.65976" lon="9.7559683"><ele>154.0</ele><time>2026-04-04T21:19:21.282Z</time></trkpt><trkpt lat="33.659905" lon="9.755885"><ele>154.0</ele><time>2026-04-04T21:19:22.284Z</time></trkpt><trkpt lat="33.660045" lon="9.755805"><ele>154.0</ele><time>2026-04-04T21:19:23.284Z</time></trkpt><trkpt lat="33.6601783" lon="9.7557267"><ele>154.0</ele><time>2026-04-04T21:19:24.283Z</time></trkpt><trkpt lat="33.660305" lon="9.75565"><ele>154.0</ele><time>2026-04-04T21:19:25.285Z</time></trkpt><trkpt lat="33.6604267" lon="9.7555683"><ele>153.5</ele><time>2026-04-04T21:19:26.285Z</time></trkpt><trkpt lat="33.6605417" lon="9.7554733"><ele>153.0</ele><time>2026-04-04T21:19:27.285Z</time></trkpt><trkpt lat="33.6606433" lon="9.7553733"><ele>152.5</ele><time>2026-04-04T21:19:28.286Z</time></trkpt><trkpt lat="33.6607333" lon="9.75526"><ele>152.0</ele><time>2026-04-04T21:19:29.285Z</time></trkpt><trkpt lat="33.6608183" lon="9.7551367"><ele>151.5</ele><time>2026-04-04T21:19:30.285Z</time></trkpt><trkpt lat="33.6608933" lon="9.7550133"><ele>151.0</ele><time>2026-04-04T21:19:31.284Z</time></trkpt><trkpt lat="33.6609483" lon="9.7548817"><ele>150.5</ele><time>2026-04-04T21:19:32.285Z</time></trkpt><trkpt lat="33.6609867" lon="9.7547533"><ele>150.0</ele><time>2026-04-04T21:19:33.285Z</time></trkpt><trkpt lat="33.661" lon="9.7546283"><ele>150.0</ele><time>2026-04-04T21:19:34.284Z</time></trkpt><trkpt lat="33.6609883" lon="9.7545"><ele>150.0</ele><time>2026-04-04T21:19:35.285Z</time></trkpt><trkpt lat="33.6609533" lon="9.7543667"><ele>150.0</ele><time>2026-04-04T21:19:36.285Z</time></trkpt><trkpt lat="33.6609" lon="9.75423"><ele>150.0</ele><time>2026-04-04T21:19:37.286Z</time></trkpt><trkpt lat="33.6608333" lon="9.7540933"><ele>150.25</ele><time>2026-04-04T21:19:38.285Z</time></trkpt><trkpt lat="33.6607567" lon="9.7539633"><ele>150.5</ele><time>2026-04-04T21:19:39.286Z</time></trkpt><trkpt lat="33.6606717" lon="9.7538417"><ele>150.75</ele><time>2026-04-04T21:19:40.285Z</time></trkpt><trkpt lat="33.66058" lon="9.7537267"><ele>151.0</ele><time>2026-04-04T21:19:41.285Z</time></trkpt><trkpt lat="33.66048" lon="9.7536083"><ele>151.33333333333334</ele><time>2026-04-04T21:19:42.284Z</time></trkpt><trkpt lat="33.6603767" lon="9.7534817"><ele>151.66666666666666</ele><time>2026-04-04T21:19:43.286Z</time></trkpt><trkpt lat="33.66027" lon="9.75335"><ele>152.0</ele><time>2026-04-04T21:19:44.285Z</time></trkpt><trkpt lat="33.66016" lon="9.7532167"><ele>152.0</ele><time>2026-04-04T21:19:45.285Z</time></trkpt><trkpt lat="33.6600467" lon="9.7530867"><ele>152.0</ele><time>2026-04-04T21:19:46.286Z</time></trkpt><trkpt lat="33.659935" lon="9.7529517"><ele>152.0</ele><time>2026-04-04T21:19:47.286Z</time></trkpt><trkpt lat="33.6598233" lon="9.752815"><ele>152.0</ele><time>2026-04-04T21:19:48.285Z</time></trkpt><trkpt lat="33.659715" lon="9.7526817"><ele>152.0</ele><time>2026-04-04T21:19:49.285Z</time></trkpt><trkpt lat="33.65961" lon="9.752555"><ele>152.0</ele><time>2026-04-04T21:19:50.285Z</time></trkpt><trkpt lat="33.659505" lon="9.7524283"><ele>152.0</ele><time>2026-04-04T21:19:51.285Z</time></trkpt><trkpt lat="33.6593983" lon="9.7522967"><ele>152.0</ele><time>2026-04-04T21:19:52.285Z</time></trkpt><trkpt lat="33.6592883" lon="9.7521633"><ele>152.0</ele><time>2026-04-04T21:19:53.285Z</time></trkpt><trkpt lat="33.6591717" lon="9.75203"><ele>152.0</ele><time>2026-04-04T21:19:54.285Z</time></trkpt><trkpt lat="33.65905" lon="9.751895"><ele>152.0</ele><time>2026-04-04T21:19:55.285Z</time></trkpt><trkpt lat="33.6589217" lon="9.7517633"><ele>152.0</ele><time>2026-04-04T21:19:56.285Z</time></trkpt><trkpt lat="33.6587917" lon="9.75163"><ele>152.0</ele><time>2026-04-04T21:19:57.287Z</time></trkpt><trkpt lat="33.6586583" lon="9.7515"><ele>152.0</ele><time>2026-04-04T21:19:58.286Z</time></trkpt><trkpt lat="33.6585233" lon="9.751375"><ele>152.0</ele><time>2026-04-04T21:19:59.285Z</time></trkpt><trkpt lat="33.6583883" lon="9.7512567"><ele>152.0</ele><time>2026-04-04T21:20:00.286Z</time></trkpt><trkpt lat="33.65825" lon="9.751145"><ele>152.0</ele><time>2026-04-04T21:20:01.286Z</time></trkpt><trkpt lat="33.6581117" lon="9.7510417"><ele>152.0</ele><time>2026-04-04T21:20:02.286Z</time></trkpt><trkpt lat="33.6579717" lon="9.750945"><ele>153.33333333333331</ele><time>2026-04-04T21:20:03.283Z</time></trkpt><trkpt lat="33.65783" lon="9.750855"><ele>154.66666666666666</ele><time>2026-04-04T21:20:04.283Z</time></trkpt><trkpt lat="33.657685" lon="9.7507683"><ele>156.0</ele><time>2026-04-04T21:20:05.282Z</time></trkpt><trkpt lat="33.6575367" lon="9.7506833"><ele>157.0</ele><time>2026-04-04T21:20:06.283Z</time></trkpt><trkpt lat="33.6573917" lon="9.7506067"><ele>158.0</ele><time>2026-04-04T21:20:07.283Z</time></trkpt><trkpt lat="33.657245" lon="9.75054"><ele>159.0</ele><time>2026-04-04T21:20:08.283Z</time></trkpt><trkpt lat="33.6571" lon="9.75049"><ele>159.66666666666666</ele><time>2026-04-04T21:20:09.283Z</time></trkpt><trkpt lat="33.65695" lon="9.7504617"><ele>160.33333333333331</ele><time>2026-04-04T21:20:10.285Z</time></trkpt><trkpt lat="33.6568" lon="9.7504567"><ele>161.0</ele><time>2026-04-04T21:20:11.285Z</time></trkpt><trkpt lat="33.65665" lon="9.7504733"><ele>161.0</ele><time>2026-04-04T21:20:12.285Z</time></trkpt><trkpt lat="33.6565033" lon="9.7505017"><ele>161.0</ele><time>2026-04-04T21:20:13.285Z</time></trkpt><trkpt lat="33.656355" lon="9.7505333"><ele>161.0</ele><time>2026-04-04T21:20:14.284Z</time></trkpt><trkpt lat="33.6562033" lon="9.75056"><ele>161.33333333333331</ele><time>2026-04-04T21:20:15.285Z</time></trkpt><trkpt lat="33.6560467" lon="9.750585"><ele>161.66666666666666</ele><time>2026-04-04T21:20:16.285Z</time></trkpt><trkpt lat="33.6558883" lon="9.7506083"><ele>162.0</ele><time>2026-04-04T21:20:17.285Z</time></trkpt><trkpt lat="33.6557283" lon="9.750635"><ele>162.0</ele><time>2026-04-04T21:20:18.286Z</time></trkpt><trkpt lat="33.6555683" lon="9.7506567"><ele>162.0</ele><time>2026-04-04T21:20:19.285Z</time></trkpt><trkpt lat="33.6554167" lon="9.7506817"><ele>162.0</ele><time>2026-04-04T21:20:20.285Z</time></trkpt><trkpt lat="33.6552717" lon="9.75071"><ele>162.75</ele><time>2026-04-04T21:20:21.285Z</time></trkpt><trkpt lat="33.6551267" lon="9.7507433"><ele>163.5</ele><time>2026-04-04T21:20:22.285Z</time></trkpt><trkpt lat="33.654985" lon="9.7507733"><ele>164.25</ele><time>2026-04-04T21:20:23.285Z</time></trkpt><trkpt lat="33.6548483" lon="9.7508"><ele>165.0</ele><time>2026-04-04T21:20:24.285Z</time></trkpt><trkpt lat="33.6547067" lon="9.7508167"><ele>165.0</ele><time>2026-04-04T21:20:25.285Z</time></trkpt><trkpt lat="33.65456" lon="9.7508183"><ele>165.0</ele><time>2026-04-04T21:20:26.285Z</time></trkpt><trkpt lat="33.65441" lon="9.7508083"><ele>165.0</ele><time>2026-04-04T21:20:27.285Z</time></trkpt><trkpt lat="33.654255" lon="9.75079"><ele>165.0</ele><time>2026-04-04T21:20:28.286Z</time></trkpt><trkpt lat="33.6540967" lon="9.750765"><ele>165.0</ele><time>2026-04-04T21:20:29.286Z</time></trkpt><trkpt lat="33.653935" lon="9.750735"><ele>165.0</ele><time>2026-04-04T21:20:30.285Z</time></trkpt><trkpt lat="33.653775" lon="9.7507017"><ele>164.0</ele><time>2026-04-04T21:20:31.285Z</time></trkpt><trkpt lat="33.6536117" lon="9.7506683"><ele>163.0</ele><time>2026-04-04T21:20:32.286Z</time></trkpt><trkpt lat="33.65345" lon="9.7506383"><ele>162.0</ele><time>2026-04-04T21:20:33.283Z</time></trkpt><trkpt lat="33.6532883" lon="9.7506133"><ele>162.0</ele><time>2026-04-04T21:20:34.282Z</time></trkpt><trkpt lat="33.6531233" lon="9.7505933"><ele>162.0</ele><time>2026-04-04T21:20:35.284Z</time></trkpt><trkpt lat="33.652955" lon="9.75058"><ele>162.0</ele><time>2026-04-04T21:20:36.282Z</time></trkpt><trkpt lat="33.6527833" lon="9.7505733"><ele>161.0</ele><time>2026-04-04T21:20:37.282Z</time></trkpt><trkpt lat="33.65261" lon="9.750575"><ele>160.0</ele><time>2026-04-04T21:20:38.282Z</time></trkpt><trkpt lat="33.6524333" lon="9.75058"><ele>159.0</ele><time>2026-04-04T21:20:39.283Z</time></trkpt><trkpt lat="33.6522583" lon="9.750585"><ele>159.0</ele><time>2026-04-04T21:20:40.285Z</time></trkpt><trkpt lat="33.6520883" lon="9.7505933"><ele>159.0</ele><time>2026-04-04T21:20:41.285Z</time></trkpt><trkpt lat="33.65193" lon="9.7506033"><ele>159.0</ele><time>2026-04-04T21:20:42.285Z</time></trkpt><trkpt lat="33.6517783" lon="9.7506133"><ele>158.66666666666666</ele><time>2026-04-04T21:20:43.285Z</time></trkpt><trkpt lat="33.65163" lon="9.7506217"><ele>158.33333333333331</ele><time>2026-04-04T21:20:44.286Z</time></trkpt><trkpt lat="33.65148" lon="9.750625"><ele>158.0</ele><time>2026-04-04T21:20:45.286Z</time></trkpt><trkpt lat="33.6513283" lon="9.7506267"><ele>158.0</ele><time>2026-04-04T21:20:46.285Z</time></trkpt><trkpt lat="33.6511767" lon="9.75062"><ele>158.0</ele><time>2026-04-04T21:20:47.285Z</time></trkpt><trkpt lat="33.6510333" lon="9.7506067"><ele>158.0</ele><time>2026-04-04T21:20:48.285Z</time></trkpt><trkpt lat="33.6508933" lon="9.7505767"><ele>158.0</ele><time>2026-04-04T21:20:49.285Z</time></trkpt><trkpt lat="33.6507533" lon="9.7505233"><ele>158.33333333333331</ele><time>2026-04-04T21:20:50.285Z</time></trkpt><trkpt lat="33.6506117" lon="9.750445"><ele>158.66666666666666</ele><time>2026-04-04T21:20:51.285Z</time></trkpt><trkpt lat="33.6504767" lon="9.75035"><ele>159.0</ele><time>2026-04-04T21:20:52.285Z</time></trkpt><trkpt lat="33.6503483" lon="9.7502317"><ele>160.66666666666666</ele><time>2026-04-04T21:20:53.286Z</time></trkpt><trkpt lat="33.6502233" lon="9.7501"><ele>162.33333333333331</ele><time>2026-04-04T21:20:54.285Z</time></trkpt><trkpt lat="33.6500983" lon="9.749955"><ele>164.0</ele><time>2026-04-04T21:20:55.286Z</time></trkpt><trkpt lat="33.64997" lon="9.7498067"><ele>164.0</ele><time>2026-04-04T21:20:56.285Z</time></trkpt><trkpt lat="33.6498367" lon="9.7496617"><ele>164.0</ele><time>2026-04-04T21:20:57.285Z</time></trkpt><trkpt lat="33.6497" lon="9.749515"><ele>164.0</ele><time>2026-04-04T21:20:58.285Z</time></trkpt><trkpt lat="33.6495667" lon="9.7493733"><ele>164.0</ele><time>2026-04-04T21:20:59.285Z</time></trkpt><trkpt lat="33.64944" lon="9.7492383"><ele>164.0</ele><time>2026-04-04T21:21:00.285Z</time></trkpt><trkpt lat="33.6493233" lon="9.7491067"><ele>164.0</ele><time>2026-04-04T21:21:01.285Z</time></trkpt><trkpt lat="33.649215" lon="9.74897"><ele>164.0</ele><time>2026-04-04T21:21:02.285Z</time></trkpt><trkpt lat="33.6491133" lon="9.748825"><ele>164.0</ele><time>2026-04-04T21:21:03.282Z</time></trkpt><trkpt lat="33.649015" lon="9.7486717"><ele>164.0</ele><time>2026-04-04T21:21:04.283Z</time></trkpt><trkpt lat="33.6489217" lon="9.7485067"><ele>163.33333333333331</ele><time>2026-04-04T21:21:05.284Z</time></trkpt><trkpt lat="33.6488317" lon="9.7483283"><ele>162.66666666666666</ele><time>2026-04-04T21:21:06.283Z</time></trkpt><trkpt lat="33.6487483" lon="9.7481417"><ele>162.0</ele><time>2026-04-04T21:21:07.284Z</time></trkpt><trkpt lat="33.64867" lon="9.7479483"><ele>162.0</ele><time>2026-04-04T21:21:08.283Z</time></trkpt><trkpt lat="33.648595" lon="9.747755"><ele>162.0</ele><time>2026-04-04T21:21:09.285Z</time></trkpt><trkpt lat="33.6485217" lon="9.7475617"><ele>162.0</ele><time>2026-04-04T21:21:10.285Z</time></trkpt><trkpt lat="33.64844" lon="9.7473767"><ele>162.0</ele><time>2026-04-04T21:21:11.286Z</time></trkpt><trkpt lat="33.6483517" lon="9.747195"><ele>162.0</ele><time>2026-04-04T21:21:12.287Z</time></trkpt><trkpt lat="33.6482633" lon="9.747025"><ele>162.0</ele><time>2026-04-04T21:21:13.288Z</time></trkpt><trkpt lat="33.64818" lon="9.7468667"><ele>163.0</ele><time>2026-04-04T21:21:14.285Z</time></trkpt><trkpt lat="33.6481133" lon="9.7467067"><ele>164.0</ele><time>2026-04-04T21:21:15.285Z</time></trkpt><trkpt lat="33.6480567" lon="9.7465317"><ele>165.0</ele><time>2026-04-04T21:21:16.285Z</time></trkpt><trkpt lat="33.6480117" lon="9.7463467"><ele>165.0</ele><time>2026-04-04T21:21:17.286Z</time></trkpt><trkpt lat="33.6479717" lon="9.746155"><ele>165.0</ele><time>2026-04-04T21:21:18.286Z</time></trkpt><trkpt lat="33.64793" lon="9.7459567"><ele>165.0</ele><time>2026-04-04T21:21:19.286Z</time></trkpt><trkpt lat="33.6478967" lon="9.7457567"><ele>164.66666666666666</ele><time>2026-04-04T21:21:20.285Z</time></trkpt><trkpt lat="33.6478633" lon="9.7455567"><ele>164.33333333333331</ele><time>2026-04-04T21:21:21.286Z</time></trkpt><trkpt lat="33.6478367" lon="9.74536"><ele>164.0</ele><time>2026-04-04T21:21:22.284Z</time></trkpt><trkpt lat="33.6478067" lon="9.7451717"><ele>163.33333333333331</ele><time>2026-04-04T21:21:23.284Z</time></trkpt><trkpt lat="33.6477733" lon="9.7449883"><ele>162.66666666666666</ele><time>2026-04-04T21:21:24.284Z</time></trkpt><trkpt lat="33.6477383" lon="9.7448117"><ele>162.0</ele><time>2026-04-04T21:21:25.285Z</time></trkpt><trkpt lat="33.6476967" lon="9.744635"><ele>162.0</ele><time>2026-04-04T21:21:26.284Z</time></trkpt><trkpt lat="33.6476517" lon="9.74446"><ele>162.0</ele><time>2026-04-04T21:21:27.284Z</time></trkpt><trkpt lat="33.647595" lon="9.7442883"><ele>162.0</ele><time>2026-04-04T21:21:28.285Z</time></trkpt><trkpt lat="33.647525" lon="9.7441217"><ele>162.33333333333334</ele><time>2026-04-04T21:21:29.285Z</time></trkpt><trkpt lat="33.6474417" lon="9.7439617"><ele>162.66666666666669</ele><time>2026-04-04T21:21:30.284Z</time></trkpt><trkpt lat="33.64735" lon="9.7438083"><ele>163.0</ele><time>2026-04-04T21:21:31.284Z</time></trkpt><trkpt lat="33.647255" lon="9.74366"><ele>163.66666666666669</ele><time>2026-04-04T21:21:32.287Z</time></trkpt><trkpt lat="33.6471617" lon="9.7435117"><ele>164.33333333333334</ele><time>2026-04-04T21:21:33.284Z</time></trkpt><trkpt lat="33.6470683" lon="9.7433583"><ele>165.0</ele><time>2026-04-04T21:21:34.283Z</time></trkpt><trkpt lat="33.6469767" lon="9.7432033"><ele>165.33333333333334</ele><time>2026-04-04T21:21:35.281Z</time></trkpt><trkpt lat="33.646885" lon="9.7430467"><ele>165.66666666666669</ele><time>2026-04-04T21:21:36.281Z</time></trkpt><trkpt lat="33.64679" lon="9.7428867"><ele>166.0</ele><time>2026-04-04T21:21:37.282Z</time></trkpt><trkpt lat="33.646695" lon="9.742725"><ele>166.0</ele><time>2026-04-04T21:21:38.282Z</time></trkpt><trkpt lat="33.646595" lon="9.7425633"><ele>166.0</ele><time>2026-04-04T21:21:39.283Z</time></trkpt><trkpt lat="33.64649" lon="9.7423983"><ele>166.0</ele><time>2026-04-04T21:21:40.284Z</time></trkpt><trkpt lat="33.6463833" lon="9.74223"><ele>166.0</ele><time>2026-04-04T21:21:41.284Z</time></trkpt><trkpt lat="33.6462733" lon="9.7420633"><ele>166.0</ele><time>2026-04-04T21:21:42.284Z</time></trkpt><trkpt lat="33.646165" lon="9.741895"><ele>166.0</ele><time>2026-04-04T21:21:43.285Z</time></trkpt><trkpt lat="33.6460517" lon="9.7417283"><ele>166.33333333333334</ele><time>2026-04-04T21:21:44.285Z</time></trkpt><trkpt lat="33.6459383" lon="9.74156"><ele>166.66666666666666</ele><time>2026-04-04T21:21:45.284Z</time></trkpt><trkpt lat="33.6458233" lon="9.7413933"><ele>167.0</ele><time>2026-04-04T21:21:46.284Z</time></trkpt><trkpt lat="33.645705" lon="9.74122"><ele>167.33333333333331</ele><time>2026-04-04T21:21:47.284Z</time></trkpt><trkpt lat="33.645585" lon="9.741045"><ele>167.66666666666666</ele><time>2026-04-04T21:21:48.285Z</time></trkpt><trkpt lat="33.6454667" lon="9.7408717"><ele>168.0</ele><time>2026-04-04T21:21:49.284Z</time></trkpt><trkpt lat="33.6453483" lon="9.740695"><ele>168.33333333333334</ele><time>2026-04-04T21:21:50.284Z</time></trkpt><trkpt lat="33.645225" lon="9.740505"><ele>168.66666666666669</ele><time>2026-04-04T21:21:51.285Z</time></trkpt><trkpt lat="33.6450983" lon="9.7403117"><ele>169.0</ele><time>2026-04-04T21:21:52.285Z</time></trkpt><trkpt lat="33.644975" lon="9.7401183"><ele>169.0</ele><time>2026-04-04T21:21:53.285Z</time></trkpt><trkpt lat="33.6448567" lon="9.7399367"><ele>169.0</ele><time>2026-04-04T21:21:54.285Z</time></trkpt><trkpt lat="33.64475" lon="9.739765"><ele>169.0</ele><time>2026-04-04T21:21:55.284Z</time></trkpt><trkpt lat="33.64465" lon="9.7396033"><ele>169.0</ele><time>2026-04-04T21:21:56.284Z</time></trkpt><trkpt lat="33.6445583" lon="9.7394433"><ele>169.0</ele><time>2026-04-04T21:21:57.284Z</time></trkpt><trkpt lat="33.6444767" lon="9.7392817"><ele>169.0</ele><time>2026-04-04T21:21:58.284Z</time></trkpt><trkpt lat="33.6444067" lon="9.7391233"><ele>169.0</ele><time>2026-04-04T21:21:59.284Z</time></trkpt><trkpt lat="33.6443433" lon="9.738965"><ele>169.0</ele><time>2026-04-04T21:22:00.285Z</time></trkpt><trkpt lat="33.6442833" lon="9.738805"><ele>169.0</ele><time>2026-04-04T21:22:01.284Z</time></trkpt><trkpt lat="33.6442283" lon="9.73865"><ele>169.0</ele><time>2026-04-04T21:22:02.285Z</time></trkpt><trkpt lat="33.64418" lon="9.7385"><ele>169.0</ele><time>2026-04-04T21:22:03.286Z</time></trkpt><trkpt lat="33.6441367" lon="9.7383533"><ele>169.0</ele><time>2026-04-04T21:22:04.288Z</time></trkpt><trkpt lat="33.6441" lon="9.73821"><ele>169.0</ele><time>2026-04-04T21:22:05.284Z</time></trkpt><trkpt lat="33.64407" lon="9.738075"><ele>169.0</ele><time>2026-04-04T21:22:06.284Z</time></trkpt><trkpt lat="33.64405" lon="9.7379467"><ele>169.0</ele><time>2026-04-04T21:22:07.284Z</time></trkpt><trkpt lat="33.6440317" lon="9.7378283"><ele>169.0</ele><time>2026-04-04T21:22:08.284Z</time></trkpt><trkpt lat="33.6440117" lon="9.737715"><ele>169.0</ele><time>2026-04-04T21:22:09.284Z</time></trkpt><trkpt lat="33.6439917" lon="9.7376067"><ele>169.0</ele><time>2026-04-04T21:22:10.284Z</time></trkpt><trkpt lat="33.6439633" lon="9.7374983"><ele>169.0</ele><time>2026-04-04T21:22:11.285Z</time></trkpt><trkpt lat="33.64393" lon="9.7373983"><ele>169.33333333333334</ele><time>2026-04-04T21:22:12.286Z</time></trkpt><trkpt lat="33.6438917" lon="9.7373117"><ele>169.66666666666669</ele><time>2026-04-04T21:22:13.284Z</time></trkpt><trkpt lat="33.6438367" lon="9.7372483"><ele>170.0</ele><time>2026-04-04T21:22:14.285Z</time></trkpt><trkpt lat="33.6437667" lon="9.7372033"><ele>170.33333333333334</ele><time>2026-04-04T21:22:15.285Z</time></trkpt><trkpt lat="33.6436867" lon="9.7371783"><ele>170.66666666666666</ele><time>2026-04-04T21:22:16.284Z</time></trkpt><trkpt lat="33.6436017" lon="9.7371733"><ele>171.0</ele><time>2026-04-04T21:22:17.286Z</time></trkpt><trkpt lat="33.6435083" lon="9.737175"><ele>171.0</ele><time>2026-04-04T21:22:18.284Z</time></trkpt><trkpt lat="33.6434133" lon="9.73717"><ele>171.0</ele><time>2026-04-04T21:22:19.285Z</time></trkpt><trkpt lat="33.64331" lon="9.7371567"><ele>171.0</ele><time>2026-04-04T21:22:20.284Z</time></trkpt><trkpt lat="33.6431983" lon="9.737145"><ele>171.0</ele><time>2026-04-04T21:22:21.285Z</time></trkpt><trkpt lat="33.6430767" lon="9.737135"><ele>171.0</ele><time>2026-04-04T21:22:22.285Z</time></trkpt><trkpt lat="33.642945" lon="9.7371233"><ele>171.0</ele><time>2026-04-04T21:22:23.284Z</time></trkpt><trkpt lat="33.6428117" lon="9.7371033"><ele>171.0</ele><time>2026-04-04T21:22:24.284Z</time></trkpt><trkpt lat="33.6426733" lon="9.7370817"><ele>171.0</ele><time>2026-04-04T21:22:25.285Z</time></trkpt><trkpt lat="33.6425283" lon="9.7370633"><ele>171.0</ele><time>2026-04-04T21:22:26.284Z</time></trkpt><trkpt lat="33.6423767" lon="9.737045"><ele>171.33333333333334</ele><time>2026-04-04T21:22:27.285Z</time></trkpt><trkpt lat="33.6422167" lon="9.7370317"><ele>171.66666666666669</ele><time>2026-04-04T21:22:28.286Z</time></trkpt><trkpt lat="33.6420517" lon="9.7370133"><ele>172.0</ele><time>2026-04-04T21:22:29.285Z</time></trkpt><trkpt lat="33.6418833" lon="9.736995"><ele>172.0</ele><time>2026-04-04T21:22:30.284Z</time></trkpt><trkpt lat="33.6417167" lon="9.7369767"><ele>172.0</ele><time>2026-04-04T21:22:31.285Z</time></trkpt><trkpt lat="33.6415483" lon="9.73696"><ele>172.0</ele><time>2026-04-04T21:22:32.285Z</time></trkpt><trkpt lat="33.641375" lon="9.7369433"><ele>172.0</ele><time>2026-04-04T21:22:33.285Z</time></trkpt><trkpt lat="33.6412067" lon="9.7369283"><ele>172.0</ele><time>2026-04-04T21:22:34.285Z</time></trkpt><trkpt lat="33.6410483" lon="9.7369133"><ele>172.0</ele><time>2026-04-04T21:22:35.285Z</time></trkpt><trkpt lat="33.6408933" lon="9.73689"><ele>172.66666666666669</ele><time>2026-04-04T21:22:36.285Z</time></trkpt><trkpt lat="33.6407383" lon="9.7368517"><ele>173.33333333333334</ele><time>2026-04-04T21:22:37.285Z</time></trkpt><trkpt lat="33.64058" lon="9.7367983"><ele>174.0</ele><time>2026-04-04T21:22:38.284Z</time></trkpt><trkpt lat="33.6404217" lon="9.7367267"><ele>174.0</ele><time>2026-04-04T21:22:39.284Z</time></trkpt><trkpt lat="33.6402667" lon="9.7366367"><ele>174.0</ele><time>2026-04-04T21:22:40.282Z</time></trkpt><trkpt lat="33.6401117" lon="9.73654"><ele>174.0</ele><time>2026-04-04T21:22:41.285Z</time></trkpt><trkpt lat="33.639955" lon="9.7364367"><ele>174.0</ele><time>2026-04-04T21:22:42.285Z</time></trkpt><trkpt lat="33.639795" lon="9.7363283"><ele>174.0</ele><time>2026-04-04T21:22:43.285Z</time></trkpt><trkpt lat="33.639635" lon="9.7362217"><ele>174.0</ele><time>2026-04-04T21:22:44.283Z</time></trkpt><trkpt lat="33.6394733" lon="9.736115"><ele>177.0</ele><time>2026-04-04T21:22:45.282Z</time></trkpt><trkpt lat="33.63931" lon="9.7360133"><ele>180.0</ele><time>2026-04-04T21:22:46.282Z</time></trkpt><trkpt lat="33.6391483" lon="9.73591"><ele>183.0</ele><time>2026-04-04T21:22:47.283Z</time></trkpt><trkpt lat="33.6389883" lon="9.735805"><ele>183.0</ele><time>2026-04-04T21:22:48.283Z</time></trkpt><trkpt lat="33.63883" lon="9.7357"><ele>183.0</ele><time>2026-04-04T21:22:49.283Z</time></trkpt><trkpt lat="33.6386717" lon="9.7355883"><ele>183.0</ele><time>2026-04-04T21:22:50.283Z</time></trkpt><trkpt lat="33.6385217" lon="9.73547"><ele>181.66666666666666</ele><time>2026-04-04T21:22:51.282Z</time></trkpt><trkpt lat="33.6383717" lon="9.7353483"><ele>180.33333333333331</ele><time>2026-04-04T21:22:52.282Z</time></trkpt><trkpt lat="33.638225" lon="9.735225"><ele>179.0</ele><time>2026-04-04T21:22:53.282Z</time></trkpt><trkpt lat="33.638075" lon="9.735095"><ele>179.66666666666666</ele><time>2026-04-04T21:22:54.283Z</time></trkpt><trkpt lat="33.6379283" lon="9.73496"><ele>180.33333333333334</ele><time>2026-04-04T21:22:55.283Z</time></trkpt><trkpt lat="33.6377867" lon="9.7348217"><ele>181.0</ele><time>2026-04-04T21:22:56.282Z</time></trkpt><trkpt lat="33.6376467" lon="9.7346867"><ele>181.0</ele><time>2026-04-04T21:22:57.283Z</time></trkpt><trkpt lat="33.6375133" lon="9.7345567"><ele>181.0</ele><time>2026-04-04T21:22:58.282Z</time></trkpt><trkpt lat="33.637385" lon="9.7344333"><ele>181.0</ele><time>2026-04-04T21:22:59.284Z</time></trkpt><trkpt lat="33.6372533" lon="9.7343167"><ele>182.33333333333334</ele><time>2026-04-04T21:23:00.282Z</time></trkpt><trkpt lat="33.6371167" lon="9.734195"><ele>183.66666666666666</ele><time>2026-04-04T21:23:01.285Z</time></trkpt><trkpt lat="33.6369733" lon="9.734065"><ele>185.0</ele><time>2026-04-04T21:23:02.285Z</time></trkpt><trkpt lat="33.6368283" lon="9.7339283"><ele>183.33333333333331</ele><time>2026-04-04T21:23:03.285Z</time></trkpt><trkpt lat="33.636685" lon="9.7337883"><ele>181.66666666666666</ele><time>2026-04-04T21:23:04.285Z</time></trkpt><trkpt lat="33.6365433" lon="9.7336533"><ele>180.0</ele><time>2026-04-04T21:23:05.285Z</time></trkpt><trkpt lat="33.636405" lon="9.7335183"><ele>180.0</ele><time>2026-04-04T21:23:06.285Z</time></trkpt><trkpt lat="33.6362717" lon="9.733385"><ele>180.0</ele><time>2026-04-04T21:23:07.285Z</time></trkpt><trkpt lat="33.6361367" lon="9.7332483"><ele>180.0</ele><time>2026-04-04T21:23:08.285Z</time></trkpt><trkpt lat="33.6360033" lon="9.7331083"><ele>179.33333333333334</ele><time>2026-04-04T21:23:09.285Z</time></trkpt><trkpt lat="33.63587" lon="9.7329767"><ele>178.66666666666669</ele><time>2026-04-04T21:23:10.285Z</time></trkpt><trkpt lat="33.6357417" lon="9.7328567"><ele>178.0</ele><time>2026-04-04T21:23:11.286Z</time></trkpt><trkpt lat="33.6356183" lon="9.7327433"><ele>178.0</ele><time>2026-04-04T21:23:12.285Z</time></trkpt><trkpt lat="33.6355" lon="9.7326317"><ele>178.0</ele><time>2026-04-04T21:23:13.285Z</time></trkpt><trkpt lat="33.6353767" lon="9.73252"><ele>178.0</ele><time>2026-04-04T21:23:14.285Z</time></trkpt><trkpt lat="33.6352533" lon="9.7324033"><ele>177.66666666666669</ele><time>2026-04-04T21:23:15.285Z</time></trkpt><trkpt lat="33.6351267" lon="9.7322833"><ele>177.33333333333334</ele><time>2026-04-04T21:23:16.285Z</time></trkpt><trkpt lat="33.6349983" lon="9.7321617"><ele>177.0</ele><time>2026-04-04T21:23:17.286Z</time></trkpt><trkpt lat="33.6348667" lon="9.732035"><ele>177.0</ele><time>2026-04-04T21:23:18.285Z</time></trkpt><trkpt lat="33.6347367" lon="9.7319017"><ele>177.0</ele><time>2026-04-04T21:23:19.285Z</time></trkpt><trkpt lat="33.6346033" lon="9.731765"><ele>177.0</ele><time>2026-04-04T21:23:20.285Z</time></trkpt><trkpt lat="33.6344633" lon="9.7316233"><ele>177.0</ele><time>2026-04-04T21:23:21.285Z</time></trkpt><trkpt lat="33.6343167" lon="9.7314817"><ele>177.0</ele><time>2026-04-04T21:23:22.286Z</time></trkpt><trkpt lat="33.6341667" lon="9.7313383"><ele>177.0</ele><time>2026-04-04T21:23:23.285Z</time></trkpt><trkpt lat="33.6340133" lon="9.7311933"><ele>177.33333333333334</ele><time>2026-04-04T21:23:24.285Z</time></trkpt><trkpt lat="33.6338583" lon="9.731045"><ele>177.66666666666669</ele><time>2026-04-04T21:23:25.286Z</time></trkpt><trkpt lat="33.6337017" lon="9.7308967"><ele>178.0</ele><time>2026-04-04T21:23:26.285Z</time></trkpt><trkpt lat="33.6335433" lon="9.7307483"><ele>178.66666666666669</ele><time>2026-04-04T21:23:27.285Z</time></trkpt><trkpt lat="33.6333883" lon="9.73061"><ele>179.33333333333334</ele><time>2026-04-04T21:23:28.285Z</time></trkpt><trkpt lat="33.63324" lon="9.73049"><ele>180.0</ele><time>2026-04-04T21:23:29.285Z</time></trkpt><trkpt lat="33.6330967" lon="9.7303783"><ele>180.0</ele><time>2026-04-04T21:23:30.285Z</time></trkpt><trkpt lat="33.6329567" lon="9.73027"><ele>180.0</ele><time>2026-04-04T21:23:31.286Z</time></trkpt><trkpt lat="33.632825" lon="9.73017"><ele>180.0</ele><time>2026-04-04T21:23:32.285Z</time></trkpt><trkpt lat="33.6327" lon="9.7300783"><ele>180.5</ele><time>2026-04-04T21:23:33.282Z</time></trkpt><trkpt lat="33.63258" lon="9.7299917"><ele>181.0</ele><time>2026-04-04T21:23:34.284Z</time></trkpt><trkpt lat="33.6324633" lon="9.729905"><ele>181.5</ele><time>2026-04-04T21:23:35.283Z</time></trkpt><trkpt lat="33.632345" lon="9.7298183"><ele>182.0</ele><time>2026-04-04T21:23:36.284Z</time></trkpt><trkpt lat="33.6322233" lon="9.7297267"><ele>182.0</ele><time>2026-04-04T21:23:37.283Z</time></trkpt><trkpt lat="33.632095" lon="9.7296317"><ele>182.0</ele><time>2026-04-04T21:23:38.283Z</time></trkpt><trkpt lat="33.6319583" lon="9.72953"><ele>182.0</ele><time>2026-04-04T21:23:39.283Z</time></trkpt><trkpt lat="33.631815" lon="9.7294217"><ele>182.33333333333331</ele><time>2026-04-04T21:23:40.285Z</time></trkpt><trkpt lat="33.6316667" lon="9.7293067"><ele>182.66666666666666</ele><time>2026-04-04T21:23:41.285Z</time></trkpt><trkpt lat="33.6315133" lon="9.7291883"><ele>183.0</ele><time>2026-04-04T21:23:42.285Z</time></trkpt><trkpt lat="33.6313567" lon="9.7290667"><ele>183.0</ele><time>2026-04-04T21:23:43.285Z</time></trkpt><trkpt lat="33.631195" lon="9.728945"><ele>183.0</ele><time>2026-04-04T21:23:44.285Z</time></trkpt><trkpt lat="33.6310333" lon="9.7288233"><ele>183.0</ele><time>2026-04-04T21:23:45.285Z</time></trkpt><trkpt lat="33.6308683" lon="9.7287033"><ele>182.66666666666666</ele><time>2026-04-04T21:23:46.286Z</time></trkpt><trkpt lat="33.630705" lon="9.72858"><ele>182.33333333333331</ele><time>2026-04-04T21:23:47.285Z</time></trkpt><trkpt lat="33.6305367" lon="9.7284567"><ele>182.0</ele><time>2026-04-04T21:23:48.288Z</time></trkpt><trkpt lat="33.6303683" lon="9.7283333"><ele>182.66666666666666</ele><time>2026-04-04T21:23:49.286Z</time></trkpt><trkpt lat="33.6301983" lon="9.7282083"><ele>183.33333333333334</ele><time>2026-04-04T21:23:50.285Z</time></trkpt><trkpt lat="33.6300267" lon="9.7280833"><ele>184.0</ele><time>2026-04-04T21:23:51.285Z</time></trkpt><trkpt lat="33.629855" lon="9.7279583"><ele>184.0</ele><time>2026-04-04T21:23:52.285Z</time></trkpt><trkpt lat="33.6296817" lon="9.727835"><ele>184.0</ele><time>2026-04-04T21:23:53.285Z</time></trkpt><trkpt lat="33.62951" lon="9.72771"><ele>184.0</ele><time>2026-04-04T21:23:54.285Z</time></trkpt><trkpt lat="33.62934" lon="9.7275867"><ele>184.33333333333334</ele><time>2026-04-04T21:23:55.285Z</time></trkpt><trkpt lat="33.6291683" lon="9.727465"><ele>184.66666666666666</ele><time>2026-04-04T21:23:56.285Z</time></trkpt><trkpt lat="33.6289983" lon="9.7273433"><ele>185.0</ele><time>2026-04-04T21:23:57.286Z</time></trkpt><trkpt lat="33.6288283" lon="9.72722"><ele>185.0</ele><time>2026-04-04T21:23:58.285Z</time></trkpt><trkpt lat="33.62866" lon="9.727095"><ele>185.0</ele><time>2026-04-04T21:23:59.285Z</time></trkpt><trkpt lat="33.6284933" lon="9.72697"><ele>185.0</ele><time>2026-04-04T21:24:00.285Z</time></trkpt><trkpt lat="33.628325" lon="9.7268467"><ele>185.0</ele><time>2026-04-04T21:24:01.286Z</time></trkpt><trkpt lat="33.6281583" lon="9.72672"><ele>185.0</ele><time>2026-04-04T21:24:02.286Z</time></trkpt><trkpt lat="33.6279917" lon="9.726595"><ele>185.0</ele><time>2026-04-04T21:24:03.285Z</time></trkpt><trkpt lat="33.6278233" lon="9.7264683"><ele>185.66666666666666</ele><time>2026-04-04T21:24:04.285Z</time></trkpt><trkpt lat="33.6276533" lon="9.726345"><ele>186.33333333333334</ele><time>2026-04-04T21:24:05.285Z</time></trkpt><trkpt lat="33.6274817" lon="9.7262217"><ele>187.0</ele><time>2026-04-04T21:24:06.286Z</time></trkpt><trkpt lat="33.6273133" lon="9.7260967"><ele>187.0</ele><time>2026-04-04T21:24:07.285Z</time></trkpt><trkpt lat="33.627145" lon="9.7259717"><ele>187.0</ele><time>2026-04-04T21:24:08.285Z</time></trkpt><trkpt lat="33.6269833" lon="9.7258533"><ele>187.0</ele><time>2026-04-04T21:24:09.285Z</time></trkpt><trkpt lat="33.6268267" lon="9.725735"><ele>187.0</ele><time>2026-04-04T21:24:10.286Z</time></trkpt><trkpt lat="33.6266733" lon="9.7256183"><ele>187.0</ele><time>2026-04-04T21:24:11.285Z</time></trkpt><trkpt lat="33.6265267" lon="9.7255067"><ele>187.0</ele><time>2026-04-04T21:24:12.285Z</time></trkpt><trkpt lat="33.6263817" lon="9.725395"><ele>187.0</ele><time>2026-04-04T21:24:13.285Z</time></trkpt><trkpt lat="33.6262367" lon="9.72528"><ele>187.0</ele><time>2026-04-04T21:24:14.285Z</time></trkpt><trkpt lat="33.6260917" lon="9.72516"><ele>187.0</ele><time>2026-04-04T21:24:15.285Z</time></trkpt><trkpt lat="33.625945" lon="9.7250433"><ele>189.0</ele><time>2026-04-04T21:24:16.285Z</time></trkpt><trkpt lat="33.6257967" lon="9.7249267"><ele>191.0</ele><time>2026-04-04T21:24:17.286Z</time></trkpt><trkpt lat="33.6256467" lon="9.7248083"><ele>193.0</ele><time>2026-04-04T21:24:18.285Z</time></trkpt><trkpt lat="33.6254933" lon="9.7246833"><ele>193.0</ele><time>2026-04-04T21:24:19.286Z</time></trkpt><trkpt lat="33.625335" lon="9.724555"><ele>193.0</ele><time>2026-04-04T21:24:20.285Z</time></trkpt><trkpt lat="33.6251717" lon="9.7244233"><ele>193.0</ele><time>2026-04-04T21:24:21.285Z</time></trkpt><trkpt lat="33.6250067" lon="9.7242917"><ele>193.0</ele><time>2026-04-04T21:24:22.285Z</time></trkpt><trkpt lat="33.6248433" lon="9.7241567"><ele>193.0</ele><time>2026-04-04T21:24:23.287Z</time></trkpt><trkpt lat="33.6246817" lon="9.7240217"><ele>193.0</ele><time>2026-04-04T21:24:24.285Z</time></trkpt><trkpt lat="33.624515" lon="9.7238833"><ele>193.0</ele><time>2026-04-04T21:24:25.285Z</time></trkpt><trkpt lat="33.62434" lon="9.72374"><ele>193.0</ele><time>2026-04-04T21:24:26.286Z</time></trkpt><trkpt lat="33.624155" lon="9.7235917"><ele>193.0</ele><time>2026-04-04T21:24:27.285Z</time></trkpt><trkpt lat="33.623965" lon="9.7234433"><ele>194.5</ele><time>2026-04-04T21:24:28.285Z</time></trkpt><trkpt lat="33.6237783" lon="9.72329"><ele>196.0</ele><time>2026-04-04T21:24:29.285Z</time></trkpt><trkpt lat="33.62359" lon="9.723135"><ele>196.0</ele><time>2026-04-04T21:24:30.284Z</time></trkpt><trkpt lat="33.6234" lon="9.7229783"><ele>196.0</ele><time>2026-04-04T21:24:31.285Z</time></trkpt><trkpt lat="33.62321" lon="9.7228183"><ele>198.0</ele><time>2026-04-04T21:24:32.285Z</time></trkpt><trkpt lat="33.6230183" lon="9.7226583"><ele>200.0</ele><time>2026-04-04T21:24:33.285Z</time></trkpt><trkpt lat="33.6228233" lon="9.7225017"><ele>199.0</ele><time>2026-04-04T21:24:34.285Z</time></trkpt><trkpt lat="33.6226283" lon="9.7223483"><ele>198.0</ele><time>2026-04-04T21:24:35.286Z</time></trkpt><trkpt lat="33.6224383" lon="9.72219"><ele>198.0</ele><time>2026-04-04T21:24:36.288Z</time></trkpt><trkpt lat="33.62225" lon="9.7220333"><ele>198.0</ele><time>2026-04-04T21:24:37.284Z</time></trkpt><trkpt lat="33.6220583" lon="9.7218767"><ele>197.0</ele><time>2026-04-04T21:24:38.284Z</time></trkpt><trkpt lat="33.6218683" lon="9.7217233"><ele>196.0</ele><time>2026-04-04T21:24:39.284Z</time></trkpt><trkpt lat="33.6216767" lon="9.72157"><ele>196.0</ele><time>2026-04-04T21:24:40.287Z</time></trkpt><trkpt lat="33.62149" lon="9.7214183"><ele>196.0</ele><time>2026-04-04T21:24:41.284Z</time></trkpt><trkpt lat="33.621305" lon="9.7212667"><ele>196.0</ele><time>2026-04-04T21:24:42.284Z</time></trkpt><trkpt lat="33.6211217" lon="9.7211133"><ele>196.66666666666666</ele><time>2026-04-04T21:24:43.284Z</time></trkpt><trkpt lat="33.6209417" lon="9.7209533"><ele>197.33333333333331</ele><time>2026-04-04T21:24:44.284Z</time></trkpt><trkpt lat="33.620765" lon="9.7207917"><ele>198.0</ele><time>2026-04-04T21:24:45.285Z</time></trkpt><trkpt lat="33.62059" lon="9.7206283"><ele>198.0</ele><time>2026-04-04T21:24:46.285Z</time></trkpt><trkpt lat="33.620415" lon="9.720465"><ele>198.0</ele><time>2026-04-04T21:24:47.284Z</time></trkpt><trkpt lat="33.6202367" lon="9.7203"><ele>198.0</ele><time>2026-04-04T21:24:48.284Z</time></trkpt><trkpt lat="33.6200517" lon="9.72013"><ele>198.5</ele><time>2026-04-04T21:24:49.284Z</time></trkpt><trkpt lat="33.6198667" lon="9.7199517"><ele>199.0</ele><time>2026-04-04T21:24:50.286Z</time></trkpt><trkpt lat="33.6196917" lon="9.7197817"><ele>199.0</ele><time>2026-04-04T21:24:51.284Z</time></trkpt><trkpt lat="33.6195233" lon="9.7196167"><ele>199.0</ele><time>2026-04-04T21:24:52.284Z</time></trkpt><trkpt lat="33.6193617" lon="9.7194467"><ele>199.0</ele><time>2026-04-04T21:24:53.286Z</time></trkpt><trkpt lat="33.6192033" lon="9.71927"><ele>199.33333333333331</ele><time>2026-04-04T21:24:54.285Z</time></trkpt><trkpt lat="33.619045" lon="9.7190967"><ele>199.66666666666669</ele><time>2026-04-04T21:24:55.284Z</time></trkpt><trkpt lat="33.6188833" lon="9.718925"><ele>200.0</ele><time>2026-04-04T21:24:56.284Z</time></trkpt><trkpt lat="33.6187183" lon="9.7187517"><ele>199.66666666666669</ele><time>2026-04-04T21:24:57.284Z</time></trkpt><trkpt lat="33.6185467" lon="9.71858"><ele>199.33333333333331</ele><time>2026-04-04T21:24:58.284Z</time></trkpt><trkpt lat="33.6183733" lon="9.7184067"><ele>199.0</ele><time>2026-04-04T21:24:59.284Z</time></trkpt><trkpt lat="33.6181983" lon="9.71823"><ele>199.0</ele><time>2026-04-04T21:25:00.285Z</time></trkpt><trkpt lat="33.6180183" lon="9.7180533"><ele>199.0</ele><time>2026-04-04T21:25:01.285Z</time></trkpt><trkpt lat="33.6178417" lon="9.7178767"><ele>200.0</ele><time>2026-04-04T21:25:02.284Z</time></trkpt><trkpt lat="33.6176683" lon="9.7177033"><ele>201.0</ele><time>2026-04-04T21:25:03.284Z</time></trkpt><trkpt lat="33.6174967" lon="9.7175333"><ele>202.0</ele><time>2026-04-04T21:25:04.285Z</time></trkpt><trkpt lat="33.6173233" lon="9.717365"><ele>202.0</ele><time>2026-04-04T21:25:05.285Z</time></trkpt><trkpt lat="33.6171417" lon="9.7172017"><ele>202.0</ele><time>2026-04-04T21:25:06.282Z</time></trkpt><trkpt lat="33.6169617" lon="9.7170367"><ele>202.33333333333331</ele><time>2026-04-04T21:25:07.282Z</time></trkpt><trkpt lat="33.616785" lon="9.7168783"><ele>202.66666666666669</ele><time>2026-04-04T21:25:08.285Z</time></trkpt><trkpt lat="33.61661" lon="9.716725"><ele>203.0</ele><time>2026-04-04T21:25:09.284Z</time></trkpt><trkpt lat="33.616435" lon="9.716575"><ele>203.0</ele><time>2026-04-04T21:25:10.285Z</time></trkpt><trkpt lat="33.6162583" lon="9.71642"><ele>203.0</ele><time>2026-04-04T21:25:11.285Z</time></trkpt><trkpt lat="33.6160783" lon="9.7162633"><ele>203.0</ele><time>2026-04-04T21:25:12.285Z</time></trkpt><trkpt lat="33.6158983" lon="9.7161033"><ele>203.0</ele><time>2026-04-04T21:25:13.284Z</time></trkpt><trkpt lat="33.6157183" lon="9.7159383"><ele>203.0</ele><time>2026-04-04T21:25:14.285Z</time></trkpt><trkpt lat="33.6155367" lon="9.715775"><ele>203.0</ele><time>2026-04-04T21:25:15.284Z</time></trkpt><trkpt lat="33.6153567" lon="9.7156133"><ele>203.0</ele><time>2026-04-04T21:25:16.285Z</time></trkpt><trkpt lat="33.615175" lon="9.7154567"><ele>203.0</ele><time>2026-04-04T21:25:17.286Z</time></trkpt><trkpt lat="33.6149967" lon="9.7153017"><ele>203.0</ele><time>2026-04-04T21:25:18.285Z</time></trkpt><trkpt lat="33.61482" lon="9.7151483"><ele>203.0</ele><time>2026-04-04T21:25:19.286Z</time></trkpt><trkpt lat="33.614645" lon="9.7149983"><ele>203.0</ele><time>2026-04-04T21:25:20.284Z</time></trkpt><trkpt lat="33.61447" lon="9.714845"><ele>203.0</ele><time>2026-04-04T21:25:21.285Z</time></trkpt><trkpt lat="33.61429" lon="9.71469"><ele>203.0</ele><time>2026-04-04T21:25:22.285Z</time></trkpt><trkpt lat="33.614105" lon="9.71453"><ele>203.0</ele><time>2026-04-04T21:25:23.285Z</time></trkpt><trkpt lat="33.6139167" lon="9.7143633"><ele>202.5</ele><time>2026-04-04T21:25:24.286Z</time></trkpt><trkpt lat="33.613725" lon="9.7141967"><ele>202.0</ele><time>2026-04-04T21:25:25.285Z</time></trkpt><trkpt lat="33.6135317" lon="9.7140283"><ele>201.5</ele><time>2026-04-04T21:25:26.285Z</time></trkpt><trkpt lat="33.6133417" lon="9.7138633"><ele>201.0</ele><time>2026-04-04T21:25:27.285Z</time></trkpt><trkpt lat="33.6131517" lon="9.7136983"><ele>201.5</ele><time>2026-04-04T21:25:28.285Z</time></trkpt><trkpt lat="33.6129633" lon="9.713535"><ele>202.0</ele><time>2026-04-04T21:25:29.285Z</time></trkpt><trkpt lat="33.612775" lon="9.7133733"><ele>201.0</ele><time>2026-04-04T21:25:30.286Z</time></trkpt><trkpt lat="33.6125883" lon="9.713215"><ele>200.0</ele><time>2026-04-04T21:25:31.284Z</time></trkpt><trkpt lat="33.6124067" lon="9.7130567"><ele>200.0</ele><time>2026-04-04T21:25:32.285Z</time></trkpt><trkpt lat="33.6122267" lon="9.7129"><ele>200.0</ele><time>2026-04-04T21:25:33.285Z</time></trkpt><trkpt lat="33.6120467" lon="9.7127417"><ele>200.0</ele><time>2026-04-04T21:25:34.284Z</time></trkpt><trkpt lat="33.6118683" lon="9.7125833"><ele>201.66666666666669</ele><time>2026-04-04T21:25:35.283Z</time></trkpt><trkpt lat="33.61169" lon="9.7124233"><ele>203.33333333333331</ele><time>2026-04-04T21:25:36.283Z</time></trkpt><trkpt lat="33.6115133" lon="9.7122667"><ele>205.0</ele><time>2026-04-04T21:25:37.282Z</time></trkpt><trkpt lat="33.6113367" lon="9.7121133"><ele>205.0</ele><time>2026-04-04T21:25:38.283Z</time></trkpt><trkpt lat="33.61116" lon="9.71196"><ele>205.0</ele><time>2026-04-04T21:25:39.282Z</time></trkpt><trkpt lat="33.6109833" lon="9.7118067"><ele>205.0</ele><time>2026-04-04T21:25:40.283Z</time></trkpt><trkpt lat="33.6108117" lon="9.711655"><ele>205.33333333333331</ele><time>2026-04-04T21:25:41.284Z</time></trkpt><trkpt lat="33.6106417" lon="9.7115067"><ele>205.66666666666669</ele><time>2026-04-04T21:25:42.283Z</time></trkpt><trkpt lat="33.6104733" lon="9.71136"><ele>206.0</ele><time>2026-04-04T21:25:43.285Z</time></trkpt><trkpt lat="33.6103017" lon="9.7112133"><ele>206.66666666666669</ele><time>2026-04-04T21:25:44.283Z</time></trkpt><trkpt lat="33.6101283" lon="9.7110633"><ele>207.33333333333331</ele><time>2026-04-04T21:25:45.283Z</time></trkpt><trkpt lat="33.6099533" lon="9.7109133"><ele>208.0</ele><time>2026-04-04T21:25:46.285Z</time></trkpt><trkpt lat="33.609775" lon="9.71076"><ele>208.0</ele><time>2026-04-04T21:25:47.286Z</time></trkpt><trkpt lat="33.6095967" lon="9.7106033"><ele>208.0</ele><time>2026-04-04T21:25:48.286Z</time></trkpt><trkpt lat="33.609415" lon="9.7104467"><ele>208.0</ele><time>2026-04-04T21:25:49.286Z</time></trkpt><trkpt lat="33.6092367" lon="9.7102867"><ele>208.66666666666666</ele><time>2026-04-04T21:25:50.286Z</time></trkpt><trkpt lat="33.6090583" lon="9.7101267"><ele>209.33333333333331</ele><time>2026-04-04T21:25:51.285Z</time></trkpt><trkpt lat="33.60888" lon="9.70997"><ele>210.0</ele><time>2026-04-04T21:25:52.285Z</time></trkpt><trkpt lat="33.6087033" lon="9.7098133"><ele>210.66666666666669</ele><time>2026-04-04T21:25:53.286Z</time></trkpt><trkpt lat="33.6085267" lon="9.70966"><ele>211.33333333333334</ele><time>2026-04-04T21:25:54.285Z</time></trkpt><trkpt lat="33.6083483" lon="9.709505"><ele>212.0</ele><time>2026-04-04T21:25:55.285Z</time></trkpt><trkpt lat="33.60817" lon="9.7093483"><ele>212.0</ele><time>2026-04-04T21:25:56.285Z</time></trkpt><trkpt lat="33.60799" lon="9.709195"><ele>212.0</ele><time>2026-04-04T21:25:57.283Z</time></trkpt><trkpt lat="33.6078083" lon="9.70904"><ele>212.0</ele><time>2026-04-04T21:25:58.285Z</time></trkpt><trkpt lat="33.6076217" lon="9.7088867"><ele>213.0</ele><time>2026-04-04T21:25:59.285Z</time></trkpt><trkpt lat="33.607435" lon="9.7087317"><ele>214.0</ele><time>2026-04-04T21:26:00.284Z</time></trkpt><trkpt lat="33.6072467" lon="9.7085783"><ele>213.66666666666666</ele><time>2026-04-04T21:26:01.285Z</time></trkpt><trkpt lat="33.6070667" lon="9.7084217"><ele>213.33333333333331</ele><time>2026-04-04T21:26:02.284Z</time></trkpt><trkpt lat="33.6068833" lon="9.7082617"><ele>213.0</ele><time>2026-04-04T21:26:03.285Z</time></trkpt><trkpt lat="33.6067" lon="9.7081017"><ele>214.0</ele><time>2026-04-04T21:26:04.282Z</time></trkpt><trkpt lat="33.6065167" lon="9.70794"><ele>215.0</ele><time>2026-04-04T21:26:05.282Z</time></trkpt><trkpt lat="33.6063317" lon="9.7077783"><ele>214.5</ele><time>2026-04-04T21:26:06.282Z</time></trkpt><trkpt lat="33.6061467" lon="9.7076167"><ele>214.0</ele><time>2026-04-04T21:26:07.283Z</time></trkpt><trkpt lat="33.6059583" lon="9.7074517"><ele>214.0</ele><time>2026-04-04T21:26:08.283Z</time></trkpt><trkpt lat="33.60577" lon="9.7072867"><ele>214.0</ele><time>2026-04-04T21:26:09.283Z</time></trkpt><trkpt lat="33.60558" lon="9.70712"><ele>214.0</ele><time>2026-04-04T21:26:10.284Z</time></trkpt><trkpt lat="33.60539" lon="9.706955"><ele>214.0</ele><time>2026-04-04T21:26:11.283Z</time></trkpt><trkpt lat="33.6052033" lon="9.70679"><ele>213.66666666666666</ele><time>2026-04-04T21:26:12.282Z</time></trkpt><trkpt lat="33.6050217" lon="9.70663"><ele>213.33333333333331</ele><time>2026-04-04T21:26:13.284Z</time></trkpt><trkpt lat="33.6048483" lon="9.7064717"><ele>213.0</ele><time>2026-04-04T21:26:14.282Z</time></trkpt><trkpt lat="33.6046733" lon="9.7063133"><ele>213.0</ele><time>2026-04-04T21:26:15.283Z</time></trkpt><trkpt lat="33.6044967" lon="9.7061483"><ele>213.0</ele><time>2026-04-04T21:26:16.282Z</time></trkpt><trkpt lat="33.6043167" lon="9.7059833"><ele>211.5</ele><time>2026-04-04T21:26:17.286Z</time></trkpt><trkpt lat="33.6041333" lon="9.705815"><ele>210.0</ele><time>2026-04-04T21:26:18.285Z</time></trkpt><trkpt lat="33.603945" lon="9.70565"><ele>210.0</ele><time>2026-04-04T21:26:19.283Z</time></trkpt><trkpt lat="33.6037567" lon="9.70549"><ele>210.0</ele><time>2026-04-04T21:26:20.283Z</time></trkpt><trkpt lat="33.6035667" lon="9.7053283"><ele>210.5</ele><time>2026-04-04T21:26:21.283Z</time></trkpt><trkpt lat="33.6033817" lon="9.7051683"><ele>211.0</ele><time>2026-04-04T21:26:22.284Z</time></trkpt><trkpt lat="33.6031983" lon="9.7050083"><ele>211.0</ele><time>2026-04-04T21:26:23.285Z</time></trkpt><trkpt lat="33.60302" lon="9.7048517"><ele>211.0</ele><time>2026-04-04T21:26:24.284Z</time></trkpt><trkpt lat="33.6028417" lon="9.7046967"><ele>211.0</ele><time>2026-04-04T21:26:25.283Z</time></trkpt><trkpt lat="33.6026667" lon="9.7045467"><ele>211.0</ele><time>2026-04-04T21:26:26.284Z</time></trkpt><trkpt lat="33.6024933" lon="9.7043983"><ele>211.0</ele><time>2026-04-04T21:26:27.284Z</time></trkpt><trkpt lat="33.6023267" lon="9.70425"><ele>211.0</ele><time>2026-04-04T21:26:28.284Z</time></trkpt><trkpt lat="33.6021617" lon="9.7041067"><ele>211.0</ele><time>2026-04-04T21:26:29.284Z</time></trkpt><trkpt lat="33.602005" lon="9.7039667"><ele>211.0</ele><time>2026-04-04T21:26:30.285Z</time></trkpt><trkpt lat="33.6018533" lon="9.7038333"><ele>211.0</ele><time>2026-04-04T21:26:31.285Z</time></trkpt><trkpt lat="33.6017083" lon="9.703705"><ele>210.66666666666666</ele><time>2026-04-04T21:26:32.285Z</time></trkpt><trkpt lat="33.6015667" lon="9.70358"><ele>210.33333333333331</ele><time>2026-04-04T21:26:33.286Z</time></trkpt><trkpt lat="33.6014233" lon="9.703455"><ele>210.0</ele><time>2026-04-04T21:26:34.282Z</time></trkpt><trkpt lat="33.601275" lon="9.7033283"><ele>210.33333333333331</ele><time>2026-04-04T21:26:35.282Z</time></trkpt><trkpt lat="33.601125" lon="9.7032"><ele>210.66666666666666</ele><time>2026-04-04T21:26:36.282Z</time></trkpt><trkpt lat="33.6009717" lon="9.7030683"><ele>211.0</ele><time>2026-04-04T21:26:37.283Z</time></trkpt><trkpt lat="33.6008167" lon="9.702935"><ele>211.0</ele><time>2026-04-04T21:26:38.282Z</time></trkpt><trkpt lat="33.60066" lon="9.7028017"><ele>211.0</ele><time>2026-04-04T21:26:39.283Z</time></trkpt><trkpt lat="33.6005" lon="9.702665"><ele>211.0</ele><time>2026-04-04T21:26:40.282Z</time></trkpt><trkpt lat="33.600335" lon="9.702525"><ele>211.33333333333331</ele><time>2026-04-04T21:26:41.282Z</time></trkpt><trkpt lat="33.6001667" lon="9.7023817"><ele>211.66666666666669</ele><time>2026-04-04T21:26:42.282Z</time></trkpt><trkpt lat="33.5999933" lon="9.70224"><ele>212.0</ele><time>2026-04-04T21:26:43.283Z</time></trkpt><trkpt lat="33.59981" lon="9.702105"><ele>212.0</ele><time>2026-04-04T21:26:44.282Z</time></trkpt><trkpt lat="33.599625" lon="9.7019733"><ele>212.0</ele><time>2026-04-04T21:26:45.282Z</time></trkpt><trkpt lat="33.599435" lon="9.701845"><ele>212.0</ele><time>2026-04-04T21:26:46.282Z</time></trkpt><trkpt lat="33.599245" lon="9.7017217"><ele>211.0</ele><time>2026-04-04T21:26:47.283Z</time></trkpt><trkpt lat="33.5990633" lon="9.7016017"><ele>210.0</ele><time>2026-04-04T21:26:48.283Z</time></trkpt><trkpt lat="33.5988867" lon="9.7014833"><ele>209.0</ele><time>2026-04-04T21:26:49.282Z</time></trkpt><trkpt lat="33.5987167" lon="9.7013683"><ele>209.33333333333334</ele><time>2026-04-04T21:26:50.282Z</time></trkpt><trkpt lat="33.598555" lon="9.7012567"><ele>209.66666666666669</ele><time>2026-04-04T21:26:51.283Z</time></trkpt><trkpt lat="33.5983917" lon="9.7011483"><ele>210.0</ele><time>2026-04-04T21:26:52.284Z</time></trkpt><trkpt lat="33.5982233" lon="9.701035"><ele>210.0</ele><time>2026-04-04T21:26:53.284Z</time></trkpt><trkpt lat="33.59805" lon="9.70092"><ele>210.0</ele><time>2026-04-04T21:26:54.282Z</time></trkpt><trkpt lat="33.5978733" lon="9.7008033"><ele>210.0</ele><time>2026-04-04T21:26:55.283Z</time></trkpt><trkpt lat="33.5976933" lon="9.7006833"><ele>209.66666666666669</ele><time>2026-04-04T21:26:56.285Z</time></trkpt><trkpt lat="33.59751" lon="9.7005617"><ele>209.33333333333334</ele><time>2026-04-04T21:26:57.282Z</time></trkpt><trkpt lat="33.5973283" lon="9.700435"><ele>209.0</ele><time>2026-04-04T21:26:58.285Z</time></trkpt><trkpt lat="33.59714" lon="9.7003067"><ele>209.33333333333334</ele><time>2026-04-04T21:26:59.285Z</time></trkpt><trkpt lat="33.5969517" lon="9.700175"><ele>209.66666666666669</ele><time>2026-04-04T21:27:00.286Z</time></trkpt><trkpt lat="33.5967517" lon="9.7000483"><ele>210.0</ele><time>2026-04-04T21:27:01.282Z</time></trkpt><trkpt lat="33.59655" lon="9.6999217"><ele>210.0</ele><time>2026-04-04T21:27:02.285Z</time></trkpt><trkpt lat="33.5963467" lon="9.6997917"><ele>210.0</ele><time>2026-04-04T21:27:03.284Z</time></trkpt><trkpt lat="33.59614" lon="9.6996583"><ele>209.0</ele><time>2026-04-04T21:27:04.284Z</time></trkpt><trkpt lat="33.5959383" lon="9.6995233"><ele>208.0</ele><time>2026-04-04T21:27:05.283Z</time></trkpt><trkpt lat="33.5957367" lon="9.6993867"><ele>208.0</ele><time>2026-04-04T21:27:06.284Z</time></trkpt><trkpt lat="33.5955333" lon="9.69925"><ele>208.0</ele><time>2026-04-04T21:27:07.284Z</time></trkpt><trkpt lat="33.5953317" lon="9.6991117"><ele>208.0</ele><time>2026-04-04T21:27:08.283Z</time></trkpt><trkpt lat="33.5951283" lon="9.6989733"><ele>208.0</ele><time>2026-04-04T21:27:09.283Z</time></trkpt><trkpt lat="33.5949217" lon="9.6988333"><ele>208.0</ele><time>2026-04-04T21:27:10.283Z</time></trkpt><trkpt lat="33.5947133" lon="9.6986933"><ele>208.0</ele><time>2026-04-04T21:27:11.283Z</time></trkpt><trkpt lat="33.5945033" lon="9.698555"><ele>207.0</ele><time>2026-04-04T21:27:12.284Z</time></trkpt><trkpt lat="33.5942917" lon="9.6984167"><ele>206.0</ele><time>2026-04-04T21:27:13.284Z</time></trkpt><trkpt lat="33.59408" lon="9.6982767"><ele>206.0</ele><time>2026-04-04T21:27:14.282Z</time></trkpt><trkpt lat="33.59387" lon="9.6981367"><ele>206.0</ele><time>2026-04-04T21:27:15.283Z</time></trkpt><trkpt lat="33.5936567" lon="9.6979967"><ele>205.0</ele><time>2026-04-04T21:27:16.283Z</time></trkpt><trkpt lat="33.5934467" lon="9.6978567"><ele>204.0</ele><time>2026-04-04T21:27:17.285Z</time></trkpt><trkpt lat="33.5932417" lon="9.6977233"><ele>203.66666666666669</ele><time>2026-04-04T21:27:18.286Z</time></trkpt><trkpt lat="33.5930467" lon="9.6975933"><ele>203.33333333333334</ele><time>2026-04-04T21:27:19.286Z</time></trkpt><trkpt lat="33.592855" lon="9.697465"><ele>203.0</ele><time>2026-04-04T21:27:20.282Z</time></trkpt><trkpt lat="33.5926633" lon="9.6973367"><ele>203.0</ele><time>2026-04-04T21:27:21.285Z</time></trkpt><trkpt lat="33.5924667" lon="9.6972083"><ele>203.0</ele><time>2026-04-04T21:27:22.285Z</time></trkpt><trkpt lat="33.5922733" lon="9.6970833"><ele>203.0</ele><time>2026-04-04T21:27:23.285Z</time></trkpt><trkpt lat="33.5920933" lon="9.6969683"><ele>204.33333333333334</ele><time>2026-04-04T21:27:24.283Z</time></trkpt><trkpt lat="33.5919267" lon="9.696855"><ele>205.66666666666669</ele><time>2026-04-04T21:27:25.283Z</time></trkpt><trkpt lat="33.591765" lon="9.696745"><ele>207.0</ele><time>2026-04-04T21:27:26.282Z</time></trkpt><trkpt lat="33.5916017" lon="9.6966367"><ele>207.0</ele><time>2026-04-04T21:27:27.285Z</time></trkpt><trkpt lat="33.5914283" lon="9.696525"><ele>207.0</ele><time>2026-04-04T21:27:28.287Z</time></trkpt><trkpt lat="33.5912467" lon="9.6964067"><ele>207.0</ele><time>2026-04-04T21:27:29.285Z</time></trkpt><trkpt lat="33.59106" lon="9.6962867"><ele>206.66666666666669</ele><time>2026-04-04T21:27:30.285Z</time></trkpt><trkpt lat="33.5908733" lon="9.6961633"><ele>206.33333333333334</ele><time>2026-04-04T21:27:31.284Z</time></trkpt><trkpt lat="33.5906867" lon="9.6960383"><ele>206.0</ele><time>2026-04-04T21:27:32.285Z</time></trkpt><trkpt lat="33.5905033" lon="9.695915"><ele>204.66666666666669</ele><time>2026-04-04T21:27:33.283Z</time></trkpt><trkpt lat="33.59032" lon="9.69579"><ele>203.33333333333331</ele><time>2026-04-04T21:27:34.284Z</time></trkpt><trkpt lat="33.590135" lon="9.6956633"><ele>202.0</ele><time>2026-04-04T21:27:35.283Z</time></trkpt><trkpt lat="33.5899483" lon="9.6955367"><ele>202.0</ele><time>2026-04-04T21:27:36.283Z</time></trkpt><trkpt lat="33.589765" lon="9.69541"><ele>202.0</ele><time>2026-04-04T21:27:37.284Z</time></trkpt><trkpt lat="33.589585" lon="9.695285"><ele>202.0</ele><time>2026-04-04T21:27:38.283Z</time></trkpt><trkpt lat="33.58941" lon="9.695165"><ele>200.33333333333331</ele><time>2026-04-04T21:27:39.283Z</time></trkpt><trkpt lat="33.58924" lon="9.6950483"><ele>198.66666666666669</ele><time>2026-04-04T21:27:40.285Z</time></trkpt><trkpt lat="33.5890717" lon="9.694935"><ele>197.0</ele><time>2026-04-04T21:27:41.283Z</time></trkpt><trkpt lat="33.588905" lon="9.6948233"><ele>197.0</ele><time>2026-04-04T21:27:42.285Z</time></trkpt><trkpt lat="33.5887433" lon="9.6947167"><ele>197.0</ele><time>2026-04-04T21:27:43.284Z</time></trkpt><trkpt lat="33.5885833" lon="9.6946083"><ele>197.0</ele><time>2026-04-04T21:27:44.284Z</time></trkpt><trkpt lat="33.58842" lon="9.6944983"><ele>197.66666666666669</ele><time>2026-04-04T21:27:45.283Z</time></trkpt><trkpt lat="33.5882533" lon="9.6943867"><ele>198.33333333333331</ele><time>2026-04-04T21:27:46.284Z</time></trkpt><trkpt lat="33.588085" lon="9.6942717"><ele>199.0</ele><time>2026-04-04T21:27:47.284Z</time></trkpt><trkpt lat="33.587915" lon="9.6941567"><ele>199.0</ele><time>2026-04-04T21:27:48.285Z</time></trkpt><trkpt lat="33.58774" lon="9.69404"><ele>199.0</ele><time>2026-04-04T21:27:49.284Z</time></trkpt><trkpt lat="33.5875583" lon="9.6939233"><ele>199.0</ele><time>2026-04-04T21:27:50.285Z</time></trkpt><trkpt lat="33.587375" lon="9.6938033"><ele>199.0</ele><time>2026-04-04T21:27:51.284Z</time></trkpt><trkpt lat="33.5871883" lon="9.69368"><ele>199.0</ele><time>2026-04-04T21:27:52.284Z</time></trkpt><trkpt lat="33.587" lon="9.6935567"><ele>199.0</ele><time>2026-04-04T21:27:53.284Z</time></trkpt><trkpt lat="33.5868083" lon="9.6934333"><ele>199.33333333333331</ele><time>2026-04-04T21:27:54.284Z</time></trkpt><trkpt lat="33.5866183" lon="9.693305"><ele>199.66666666666669</ele><time>2026-04-04T21:27:55.284Z</time></trkpt><trkpt lat="33.5864267" lon="9.6931783"><ele>200.0</ele><time>2026-04-04T21:27:56.284Z</time></trkpt><trkpt lat="33.5862367" lon="9.693055"><ele>200.0</ele><time>2026-04-04T21:27:57.284Z</time></trkpt><trkpt lat="33.5860467" lon="9.6929317"><ele>200.0</ele><time>2026-04-04T21:27:58.284Z</time></trkpt><trkpt lat="33.5858583" lon="9.69281"><ele>200.0</ele><time>2026-04-04T21:27:59.285Z</time></trkpt><trkpt lat="33.58567" lon="9.6926817"><ele>200.0</ele><time>2026-04-04T21:28:00.282Z</time></trkpt><trkpt lat="33.5854783" lon="9.6925517"><ele>200.0</ele><time>2026-04-04T21:28:01.285Z</time></trkpt><trkpt lat="33.585285" lon="9.6924183"><ele>200.0</ele><time>2026-04-04T21:28:02.284Z</time></trkpt><trkpt lat="33.58509" lon="9.692285"><ele>200.0</ele><time>2026-04-04T21:28:03.282Z</time></trkpt><trkpt lat="33.5848883" lon="9.6921517"><ele>200.0</ele><time>2026-04-04T21:28:04.281Z</time></trkpt><trkpt lat="33.5846867" lon="9.6920183"><ele>199.5</ele><time>2026-04-04T21:28:05.283Z</time></trkpt><trkpt lat="33.5844833" lon="9.6918833"><ele>199.0</ele><time>2026-04-04T21:28:06.283Z</time></trkpt><trkpt lat="33.58428" lon="9.6917483"><ele>199.0</ele><time>2026-04-04T21:28:07.282Z</time></trkpt><trkpt lat="33.58408" lon="9.691615"><ele>199.0</ele><time>2026-04-04T21:28:08.281Z</time></trkpt><trkpt lat="33.5838817" lon="9.6914833"><ele>199.0</ele><time>2026-04-04T21:28:09.284Z</time></trkpt><trkpt lat="33.5836833" lon="9.6913533"><ele>199.0</ele><time>2026-04-04T21:28:10.283Z</time></trkpt><trkpt lat="33.5834867" lon="9.6912233"><ele>198.5</ele><time>2026-04-04T21:28:11.283Z</time></trkpt><trkpt lat="33.5832883" lon="9.691095"><ele>198.0</ele><time>2026-04-04T21:28:12.284Z</time></trkpt><trkpt lat="33.5830917" lon="9.690965"><ele>198.0</ele><time>2026-04-04T21:28:13.284Z</time></trkpt><trkpt lat="33.58289" lon="9.690835"><ele>198.0</ele><time>2026-04-04T21:28:14.284Z</time></trkpt><trkpt lat="33.58269" lon="9.6907033"><ele>198.0</ele><time>2026-04-04T21:28:15.282Z</time></trkpt><trkpt lat="33.5824883" lon="9.69057"><ele>198.0</ele><time>2026-04-04T21:28:16.284Z</time></trkpt><trkpt lat="33.58229" lon="9.6904333"><ele>198.0</ele><time>2026-04-04T21:28:17.282Z</time></trkpt><trkpt lat="33.58209" lon="9.6902933"><ele>198.0</ele><time>2026-04-04T21:28:18.283Z</time></trkpt><trkpt lat="33.5818883" lon="9.690155"><ele>197.5</ele><time>2026-04-04T21:28:19.282Z</time></trkpt><trkpt lat="33.5816833" lon="9.69002"><ele>197.0</ele><time>2026-04-04T21:28:20.283Z</time></trkpt><trkpt lat="33.58148" lon="9.6898883"><ele>197.0</ele><time>2026-04-04T21:28:21.283Z</time></trkpt><trkpt lat="33.5812767" lon="9.6897583"><ele>197.0</ele><time>2026-04-04T21:28:22.282Z</time></trkpt><trkpt lat="33.581075" lon="9.6896267"><ele>197.5</ele><time>2026-04-04T21:28:23.282Z</time></trkpt><trkpt lat="33.5808733" lon="9.6894967"><ele>198.0</ele><time>2026-04-04T21:28:24.283Z</time></trkpt><trkpt lat="33.580675" lon="9.68936"><ele>196.5</ele><time>2026-04-04T21:28:25.282Z</time></trkpt><trkpt lat="33.580475" lon="9.689225"><ele>195.0</ele><time>2026-04-04T21:28:26.283Z</time></trkpt><trkpt lat="33.5802733" lon="9.6890883"><ele>194.0</ele><time>2026-04-04T21:28:27.285Z</time></trkpt><trkpt lat="33.5800733" lon="9.688955"><ele>193.0</ele><time>2026-04-04T21:28:28.281Z</time></trkpt><trkpt lat="33.579875" lon="9.6888233"><ele>193.0</ele><time>2026-04-04T21:28:29.285Z</time></trkpt><trkpt lat="33.5796817" lon="9.688695"><ele>193.0</ele><time>2026-04-04T21:28:30.284Z</time></trkpt><trkpt lat="33.5794967" lon="9.68857"><ele>193.0</ele><time>2026-04-04T21:28:31.284Z</time></trkpt><trkpt lat="33.5793217" lon="9.6884533"><ele>192.0</ele><time>2026-04-04T21:28:32.286Z</time></trkpt><trkpt lat="33.57915" lon="9.6883383"><ele>191.0</ele><time>2026-04-04T21:28:33.284Z</time></trkpt><trkpt lat="33.5789817" lon="9.6882183"><ele>190.0</ele><time>2026-04-04T21:28:34.286Z</time></trkpt><trkpt lat="33.5788117" lon="9.6880967"><ele>190.0</ele><time>2026-04-04T21:28:35.285Z</time></trkpt><trkpt lat="33.5786383" lon="9.6879783"><ele>190.0</ele><time>2026-04-04T21:28:36.286Z</time></trkpt><trkpt lat="33.5784617" lon="9.68786"><ele>190.0</ele><time>2026-04-04T21:28:37.285Z</time></trkpt><trkpt lat="33.5782917" lon="9.6877483"><ele>190.0</ele><time>2026-04-04T21:28:38.284Z</time></trkpt><trkpt lat="33.57813" lon="9.68764"><ele>190.0</ele><time>2026-04-04T21:28:39.284Z</time></trkpt><trkpt lat="33.5779717" lon="9.687535"><ele>190.0</ele><time>2026-04-04T21:28:40.284Z</time></trkpt><trkpt lat="33.5778183" lon="9.687435"><ele>190.0</ele><time>2026-04-04T21:28:41.284Z</time></trkpt><trkpt lat="33.5776683" lon="9.68734"><ele>190.0</ele><time>2026-04-04T21:28:42.284Z</time></trkpt><trkpt lat="33.57753" lon="9.6872483"><ele>190.0</ele><time>2026-04-04T21:28:43.285Z</time></trkpt><trkpt lat="33.5773933" lon="9.6871583"><ele>190.0</ele><time>2026-04-04T21:28:44.282Z</time></trkpt><trkpt lat="33.57726" lon="9.6870683"><ele>190.0</ele><time>2026-04-04T21:28:45.283Z</time></trkpt><trkpt lat="33.5771233" lon="9.6869783"><ele>190.0</ele><time>2026-04-04T21:28:46.282Z</time></trkpt><trkpt lat="33.5769883" lon="9.686885"><ele>190.33333333333334</ele><time>2026-04-04T21:28:47.284Z</time></trkpt><trkpt lat="33.57685" lon="9.6867933"><ele>190.66666666666666</ele><time>2026-04-04T21:28:48.283Z</time></trkpt><trkpt lat="33.576715" lon="9.686705"><ele>191.0</ele><time>2026-04-04T21:28:49.283Z</time></trkpt><trkpt lat="33.57658" lon="9.68662"><ele>191.0</ele><time>2026-04-04T21:28:50.283Z</time></trkpt><trkpt lat="33.57645" lon="9.686535"><ele>191.0</ele><time>2026-04-04T21:28:51.283Z</time></trkpt><trkpt lat="33.576325" lon="9.6864533"><ele>191.0</ele><time>2026-04-04T21:28:52.283Z</time></trkpt><trkpt lat="33.5762083" lon="9.686375"><ele>191.0</ele><time>2026-04-04T21:28:53.283Z</time></trkpt><trkpt lat="33.5760983" lon="9.6862983"><ele>191.0</ele><time>2026-04-04T21:28:54.284Z</time></trkpt><trkpt lat="33.5759917" lon="9.686225"><ele>191.0</ele><time>2026-04-04T21:28:55.283Z</time></trkpt><trkpt lat="33.5758917" lon="9.686155"><ele>191.0</ele><time>2026-04-04T21:28:56.283Z</time></trkpt><trkpt lat="33.5757917" lon="9.6860917"><ele>191.0</ele><time>2026-04-04T21:28:57.286Z</time></trkpt><trkpt lat="33.5756967" lon="9.6860333"><ele>191.0</ele><time>2026-04-04T21:28:58.285Z</time></trkpt><trkpt lat="33.57561" lon="9.68598"><ele>191.0</ele><time>2026-04-04T21:28:59.286Z</time></trkpt><trkpt lat="33.5755283" lon="9.6859283"><ele>191.0</ele><time>2026-04-04T21:29:00.286Z</time></trkpt><trkpt lat="33.57545" lon="9.6858783"><ele>191.0</ele><time>2026-04-04T21:29:01.286Z</time></trkpt><trkpt lat="33.5753767" lon="9.6858283"><ele>191.0</ele><time>2026-04-04T21:29:02.286Z</time></trkpt><trkpt lat="33.5753067" lon="9.6857783"><ele>191.0</ele><time>2026-04-04T21:29:03.285Z</time></trkpt><trkpt lat="33.5752417" lon="9.6857367"><ele>191.0</ele><time>2026-04-04T21:29:04.285Z</time></trkpt><trkpt lat="33.5751833" lon="9.6857017"><ele>191.0</ele><time>2026-04-04T21:29:05.286Z</time></trkpt><trkpt lat="33.57508" lon="9.6856367"><ele>191.0</ele><time>2026-04-04T21:29:07.285Z</time></trkpt><trkpt lat="33.5750067" lon="9.68558"><ele>191.0</ele><time>2026-04-04T21:29:09.285Z</time></trkpt><trkpt lat="33.5749717" lon="9.6855117"><ele>191.0</ele><time>2026-04-04T21:29:11.282Z</time></trkpt><trkpt lat="33.5749783" lon="9.685395"><ele>191.0</ele><time>2026-04-04T21:29:13.285Z</time></trkpt><trkpt lat="33.5750317" lon="9.6852567"><ele>190.8</ele><time>2026-04-04T21:29:15.283Z</time></trkpt><trkpt lat="33.5750883" lon="9.6851167"><ele>190.60000000000002</ele><time>2026-04-04T21:29:17.283Z</time></trkpt><trkpt lat="33.57512" lon="9.68504"><ele>190.4</ele><time>2026-04-04T21:29:18.283Z</time></trkpt><trkpt lat="33.575155" lon="9.6849517"><ele>190.2</ele><time>2026-04-04T21:29:19.284Z</time></trkpt><trkpt lat="33.57519" lon="9.684855"><ele>190.0</ele><time>2026-04-04T21:29:20.284Z</time></trkpt><trkpt lat="33.5752283" lon="9.6847567"><ele>190.0</ele><time>2026-04-04T21:29:21.284Z</time></trkpt><trkpt lat="33.5752717" lon="9.6846533"><ele>190.0</ele><time>2026-04-04T21:29:22.283Z</time></trkpt><trkpt lat="33.5753133" lon="9.6845483"><ele>190.0</ele><time>2026-04-04T21:29:23.284Z</time></trkpt><trkpt lat="33.5753567" lon="9.6844383"><ele>190.0</ele><time>2026-04-04T21:29:24.284Z</time></trkpt><trkpt lat="33.5753983" lon="9.684325"><ele>190.0</ele><time>2026-04-04T21:29:25.284Z</time></trkpt><trkpt lat="33.5754417" lon="9.68421"><ele>189.4</ele><time>2026-04-04T21:29:26.285Z</time></trkpt><trkpt lat="33.575485" lon="9.6840967"><ele>188.8</ele><time>2026-04-04T21:29:27.285Z</time></trkpt><trkpt lat="33.57553" lon="9.6839767"><ele>188.2</ele><time>2026-04-04T21:29:28.285Z</time></trkpt><trkpt lat="33.5755783" lon="9.6838567"><ele>187.6</ele><time>2026-04-04T21:29:29.285Z</time></trkpt><trkpt lat="33.5756283" lon="9.6837333"><ele>187.0</ele><time>2026-04-04T21:29:30.283Z</time></trkpt><trkpt lat="33.57568" lon="9.6836017"><ele>186.75</ele><time>2026-04-04T21:29:31.285Z</time></trkpt><trkpt lat="33.5757333" lon="9.6834633"><ele>186.5</ele><time>2026-04-04T21:29:32.285Z</time></trkpt><trkpt lat="33.5757883" lon="9.68332"><ele>186.25</ele><time>2026-04-04T21:29:33.285Z</time></trkpt><trkpt lat="33.575845" lon="9.683175"><ele>186.0</ele><time>2026-04-04T21:29:34.285Z</time></trkpt><trkpt lat="33.5759033" lon="9.6830283"><ele>186.0</ele><time>2026-04-04T21:29:35.286Z</time></trkpt><trkpt lat="33.5759617" lon="9.6828783"><ele>186.0</ele><time>2026-04-04T21:29:36.285Z</time></trkpt><trkpt lat="33.576025" lon="9.6827233"><ele>186.0</ele><time>2026-04-04T21:29:37.285Z</time></trkpt><trkpt lat="33.57609" lon="9.6825583"><ele>186.0</ele><time>2026-04-04T21:29:38.283Z</time></trkpt><trkpt lat="33.576155" lon="9.6823883"><ele>185.66666666666666</ele><time>2026-04-04T21:29:39.286Z</time></trkpt><trkpt lat="33.57622" lon="9.6822117"><ele>185.33333333333331</ele><time>2026-04-04T21:29:40.288Z</time></trkpt><trkpt lat="33.5762917" lon="9.6820283"><ele>185.0</ele><time>2026-04-04T21:29:41.286Z</time></trkpt><trkpt lat="33.5763633" lon="9.68184"><ele>184.66666666666666</ele><time>2026-04-04T21:29:42.285Z</time></trkpt><trkpt lat="33.5764367" lon="9.681645"><ele>184.33333333333334</ele><time>2026-04-04T21:29:43.285Z</time></trkpt><trkpt lat="33.5765083" lon="9.6814517"><ele>184.0</ele><time>2026-04-04T21:29:44.285Z</time></trkpt><trkpt lat="33.576585" lon="9.6812567"><ele>183.33333333333334</ele><time>2026-04-04T21:29:45.286Z</time></trkpt><trkpt lat="33.5766633" lon="9.681055"><ele>182.66666666666666</ele><time>2026-04-04T21:29:46.286Z</time></trkpt><trkpt lat="33.576745" lon="9.6808483"><ele>182.0</ele><time>2026-04-04T21:29:47.285Z</time></trkpt><trkpt lat="33.576825" lon="9.680635"><ele>182.0</ele><time>2026-04-04T21:29:48.286Z</time></trkpt><trkpt lat="33.57691" lon="9.6804183"><ele>182.0</ele><time>2026-04-04T21:29:49.285Z</time></trkpt><trkpt lat="33.576995" lon="9.6801983"><ele>182.0</ele><time>2026-04-04T21:29:50.285Z</time></trkpt><trkpt lat="33.57708" lon="9.679975"><ele>182.66666666666666</ele><time>2026-04-04T21:29:51.282Z</time></trkpt><trkpt lat="33.5771683" lon="9.6797517"><ele>183.33333333333334</ele><time>2026-04-04T21:29:52.283Z</time></trkpt><trkpt lat="33.5772567" lon="9.6795233"><ele>184.0</ele><time>2026-04-04T21:29:53.282Z</time></trkpt><trkpt lat="33.577345" lon="9.679295"><ele>184.0</ele><time>2026-04-04T21:29:54.282Z</time></trkpt><trkpt lat="33.5774333" lon="9.6790633"><ele>184.0</ele><time>2026-04-04T21:29:55.284Z</time></trkpt><trkpt lat="33.5775233" lon="9.6788317"><ele>184.0</ele><time>2026-04-04T21:29:56.286Z</time></trkpt><trkpt lat="33.577615" lon="9.6785983"><ele>183.66666666666669</ele><time>2026-04-04T21:29:57.283Z</time></trkpt><trkpt lat="33.5777067" lon="9.6783633"><ele>183.33333333333334</ele><time>2026-04-04T21:29:58.285Z</time></trkpt><trkpt lat="33.5777983" lon="9.6781283"><ele>183.0</ele><time>2026-04-04T21:29:59.286Z</time></trkpt><trkpt lat="33.5778917" lon="9.67789"><ele>184.0</ele><time>2026-04-04T21:30:00.286Z</time></trkpt><trkpt lat="33.5779867" lon="9.6776517"><ele>185.0</ele><time>2026-04-04T21:30:01.285Z</time></trkpt><trkpt lat="33.5780767" lon="9.6774083"><ele>186.0</ele><time>2026-04-04T21:30:02.285Z</time></trkpt><trkpt lat="33.5781683" lon="9.6771633"><ele>185.5</ele><time>2026-04-04T21:30:03.285Z</time></trkpt><trkpt lat="33.5782567" lon="9.676915"><ele>185.0</ele><time>2026-04-04T21:30:04.285Z</time></trkpt><trkpt lat="33.57834" lon="9.6766617"><ele>185.0</ele><time>2026-04-04T21:30:05.283Z</time></trkpt><trkpt lat="33.57842" lon="9.6764033"><ele>185.0</ele><time>2026-04-04T21:30:06.284Z</time></trkpt><trkpt lat="33.5784983" lon="9.6761417"><ele>184.0</ele><time>2026-04-04T21:30:07.285Z</time></trkpt><trkpt lat="33.5785733" lon="9.6758767"><ele>183.0</ele><time>2026-04-04T21:30:08.283Z</time></trkpt><trkpt lat="33.5786483" lon="9.675605"><ele>182.5</ele><time>2026-04-04T21:30:09.283Z</time></trkpt><trkpt lat="33.5787167" lon="9.6753283"><ele>182.0</ele><time>2026-04-04T21:30:10.285Z</time></trkpt><trkpt lat="33.578785" lon="9.67505"><ele>182.0</ele><time>2026-04-04T21:30:11.285Z</time></trkpt><trkpt lat="33.5788533" lon="9.6747683"><ele>182.0</ele><time>2026-04-04T21:30:12.287Z</time></trkpt><trkpt lat="33.578925" lon="9.674485"><ele>181.0</ele><time>2026-04-04T21:30:13.282Z</time></trkpt><trkpt lat="33.5789933" lon="9.6741983"><ele>180.0</ele><time>2026-04-04T21:30:14.282Z</time></trkpt><trkpt lat="33.5790683" lon="9.6739083"><ele>180.0</ele><time>2026-04-04T21:30:15.285Z</time></trkpt><trkpt lat="33.5791433" lon="9.6736183"><ele>180.0</ele><time>2026-04-04T21:30:16.286Z</time></trkpt><trkpt lat="33.5792183" lon="9.6733267"><ele>178.5</ele><time>2026-04-04T21:30:17.286Z</time></trkpt><trkpt lat="33.5792917" lon="9.6730367"><ele>177.0</ele><time>2026-04-04T21:30:18.285Z</time></trkpt><trkpt lat="33.5793683" lon="9.6727433"><ele>177.0</ele><time>2026-04-04T21:30:19.285Z</time></trkpt><trkpt lat="33.5794433" lon="9.6724517"><ele>177.0</ele><time>2026-04-04T21:30:20.285Z</time></trkpt><trkpt lat="33.57952" lon="9.6721567"><ele>176.0</ele><time>2026-04-04T21:30:21.285Z</time></trkpt><trkpt lat="33.5795933" lon="9.6718583"><ele>175.0</ele><time>2026-04-04T21:30:22.286Z</time></trkpt><trkpt lat="33.5796683" lon="9.67156"><ele>175.0</ele><time>2026-04-04T21:30:23.285Z</time></trkpt><trkpt lat="33.5797433" lon="9.67126"><ele>175.0</ele><time>2026-04-04T21:30:24.283Z</time></trkpt><trkpt lat="33.57982" lon="9.6709583"><ele>175.5</ele><time>2026-04-04T21:30:25.285Z</time></trkpt><trkpt lat="33.5798967" lon="9.6706583"><ele>176.0</ele><time>2026-04-04T21:30:26.285Z</time></trkpt><trkpt lat="33.579975" lon="9.670355"><ele>175.0</ele><time>2026-04-04T21:30:27.282Z</time></trkpt><trkpt lat="33.5800517" lon="9.6700483"><ele>174.0</ele><time>2026-04-04T21:30:28.286Z</time></trkpt><trkpt lat="33.5801283" lon="9.6697433"><ele>174.5</ele><time>2026-04-04T21:30:29.286Z</time></trkpt><trkpt lat="33.5802017" lon="9.66944"><ele>175.0</ele><time>2026-04-04T21:30:30.282Z</time></trkpt><trkpt lat="33.5802733" lon="9.6691367"><ele>175.0</ele><time>2026-04-04T21:30:31.285Z</time></trkpt><trkpt lat="33.58034" lon="9.6688317"><ele>175.0</ele><time>2026-04-04T21:30:32.285Z</time></trkpt><trkpt lat="33.5804033" lon="9.6685267"><ele>175.5</ele><time>2026-04-04T21:30:33.286Z</time></trkpt><trkpt lat="33.5804583" lon="9.66822"><ele>176.0</ele><time>2026-04-04T21:30:34.287Z</time></trkpt><trkpt lat="33.5805067" lon="9.667915"><ele>176.0</ele><time>2026-04-04T21:30:35.286Z</time></trkpt><trkpt lat="33.58055" lon="9.66761"><ele>176.0</ele><time>2026-04-04T21:30:36.283Z</time></trkpt><trkpt lat="33.5805917" lon="9.6673017"><ele>176.0</ele><time>2026-04-04T21:30:37.285Z</time></trkpt><trkpt lat="33.5806317" lon="9.666995"><ele>176.0</ele><time>2026-04-04T21:30:38.285Z</time></trkpt><trkpt lat="33.5806667" lon="9.6666867"><ele>176.5</ele><time>2026-04-04T21:30:39.285Z</time></trkpt><trkpt lat="33.58069" lon="9.666375"><ele>177.0</ele><time>2026-04-04T21:30:40.285Z</time></trkpt><trkpt lat="33.5807033" lon="9.6660617"><ele>177.0</ele><time>2026-04-04T21:30:41.286Z</time></trkpt><trkpt lat="33.5807083" lon="9.665745"><ele>177.0</ele><time>2026-04-04T21:30:42.285Z</time></trkpt><trkpt lat="33.5807083" lon="9.66543"><ele>177.0</ele><time>2026-04-04T21:30:43.285Z</time></trkpt><trkpt lat="33.580705" lon="9.6651167"><ele>177.0</ele><time>2026-04-04T21:30:44.285Z</time></trkpt><trkpt lat="33.5807" lon="9.664805"><ele>177.0</ele><time>2026-04-04T21:30:45.285Z</time></trkpt><trkpt lat="33.5806883" lon="9.664495"><ele>177.0</ele><time>2026-04-04T21:30:46.285Z</time></trkpt><trkpt lat="33.580675" lon="9.6641833"><ele>177.5</ele><time>2026-04-04T21:30:47.285Z</time></trkpt><trkpt lat="33.5806517" lon="9.663875"><ele>178.0</ele><time>2026-04-04T21:30:48.283Z</time></trkpt><trkpt lat="33.580625" lon="9.6635667"><ele>179.0</ele><time>2026-04-04T21:30:49.285Z</time></trkpt><trkpt lat="33.58059" lon="9.6632633"><ele>180.0</ele><time>2026-04-04T21:30:50.285Z</time></trkpt><trkpt lat="33.5805517" lon="9.6629633"><ele>181.0</ele><time>2026-04-04T21:30:51.286Z</time></trkpt><trkpt lat="33.5805067" lon="9.662665"><ele>182.0</ele><time>2026-04-04T21:30:52.286Z</time></trkpt><trkpt lat="33.5804667" lon="9.6623717"><ele>182.0</ele><time>2026-04-04T21:30:53.285Z</time></trkpt><trkpt lat="33.58043" lon="9.6620933"><ele>182.0</ele><time>2026-04-04T21:30:54.285Z</time></trkpt><trkpt lat="33.5803933" lon="9.6618217"><ele>181.0</ele><time>2026-04-04T21:30:55.285Z</time></trkpt><trkpt lat="33.5803567" lon="9.66155"><ele>180.0</ele><time>2026-04-04T21:30:56.285Z</time></trkpt><trkpt lat="33.5803217" lon="9.6612733"><ele>178.0</ele><time>2026-04-04T21:30:57.286Z</time></trkpt><trkpt lat="33.5802817" lon="9.6609933"><ele>176.0</ele><time>2026-04-04T21:30:58.286Z</time></trkpt><trkpt lat="33.580245" lon="9.6607117"><ele>176.0</ele><time>2026-04-04T21:30:59.285Z</time></trkpt><trkpt lat="33.5802067" lon="9.6604333"><ele>176.0</ele><time>2026-04-04T21:31:00.286Z</time></trkpt><trkpt lat="33.5801733" lon="9.6601583"><ele>177.0</ele><time>2026-04-04T21:31:01.285Z</time></trkpt><trkpt lat="33.580145" lon="9.65989"><ele>178.0</ele><time>2026-04-04T21:31:02.286Z</time></trkpt><trkpt lat="33.580115" lon="9.6596217"><ele>179.0</ele><time>2026-04-04T21:31:03.285Z</time></trkpt><trkpt lat="33.5800917" lon="9.65935"><ele>180.0</ele><time>2026-04-04T21:31:04.285Z</time></trkpt><trkpt lat="33.5800733" lon="9.6590767"><ele>180.0</ele><time>2026-04-04T21:31:05.285Z</time></trkpt><trkpt lat="33.5800683" lon="9.658805"><ele>180.0</ele><time>2026-04-04T21:31:06.285Z</time></trkpt><trkpt lat="33.58008" lon="9.6585383"><ele>180.0</ele><time>2026-04-04T21:31:07.284Z</time></trkpt><trkpt lat="33.580105" lon="9.6582683"><ele>180.0</ele><time>2026-04-04T21:31:08.285Z</time></trkpt><trkpt lat="33.5801417" lon="9.657985"><ele>180.0</ele><time>2026-04-04T21:31:09.285Z</time></trkpt><trkpt lat="33.5801833" lon="9.657695"><ele>178.0</ele><time>2026-04-04T21:31:10.284Z</time></trkpt><trkpt lat="33.5802333" lon="9.6574017"><ele>176.0</ele><time>2026-04-04T21:31:11.284Z</time></trkpt><trkpt lat="33.580285" lon="9.6571017"><ele>175.5</ele><time>2026-04-04T21:31:12.284Z</time></trkpt><trkpt lat="33.58034" lon="9.6567967"><ele>175.0</ele><time>2026-04-04T21:31:13.285Z</time></trkpt><trkpt lat="33.580395" lon="9.6564883"><ele>174.0</ele><time>2026-04-04T21:31:14.284Z</time></trkpt><trkpt lat="33.5804583" lon="9.65618"><ele>173.0</ele><time>2026-04-04T21:31:15.285Z</time></trkpt><trkpt lat="33.58053" lon="9.6558817"><ele>172.5</ele><time>2026-04-04T21:31:16.285Z</time></trkpt><trkpt lat="33.58061" lon="9.6555983"><ele>172.0</ele><time>2026-04-04T21:31:17.285Z</time></trkpt><trkpt lat="33.580695" lon="9.6553233"><ele>171.0</ele><time>2026-04-04T21:31:18.284Z</time></trkpt><trkpt lat="33.58079" lon="9.65505"><ele>170.0</ele><time>2026-04-04T21:31:19.285Z</time></trkpt><trkpt lat="33.5808967" lon="9.6547733"><ele>170.0</ele><time>2026-04-04T21:31:20.286Z</time></trkpt><trkpt lat="33.581015" lon="9.6544933"><ele>170.0</ele><time>2026-04-04T21:31:21.285Z</time></trkpt><trkpt lat="33.581135" lon="9.6542167"><ele>171.5</ele><time>2026-04-04T21:31:22.284Z</time></trkpt><trkpt lat="33.5812617" lon="9.653945"><ele>173.0</ele><time>2026-04-04T21:31:23.282Z</time></trkpt><trkpt lat="33.5813933" lon="9.6536817"><ele>174.0</ele><time>2026-04-04T21:31:24.284Z</time></trkpt><trkpt lat="33.5815333" lon="9.6534283"><ele>175.0</ele><time>2026-04-04T21:31:25.285Z</time></trkpt><trkpt lat="33.58168" lon="9.653185"><ele>175.0</ele><time>2026-04-04T21:31:26.285Z</time></trkpt><trkpt lat="33.5818367" lon="9.6529483"><ele>175.0</ele><time>2026-04-04T21:31:27.284Z</time></trkpt><trkpt lat="33.5819983" lon="9.6527183"><ele>176.0</ele><time>2026-04-04T21:31:28.284Z</time></trkpt><trkpt lat="33.5821633" lon="9.6524933"><ele>177.0</ele><time>2026-04-04T21:31:29.285Z</time></trkpt><trkpt lat="33.5823317" lon="9.652275"><ele>177.0</ele><time>2026-04-04T21:31:30.284Z</time></trkpt><trkpt lat="33.582505" lon="9.6520667"><ele>177.0</ele><time>2026-04-04T21:31:31.284Z</time></trkpt><trkpt lat="33.5826817" lon="9.6518633"><ele>176.5</ele><time>2026-04-04T21:31:32.284Z</time></trkpt><trkpt lat="33.58286" lon="9.651665"><ele>176.0</ele><time>2026-04-04T21:31:33.285Z</time></trkpt><trkpt lat="33.5830417" lon="9.6514717"><ele>176.0</ele><time>2026-04-04T21:31:34.286Z</time></trkpt><trkpt lat="33.5832233" lon="9.65128"><ele>176.0</ele><time>2026-04-04T21:31:35.285Z</time></trkpt><trkpt lat="33.5834017" lon="9.6510933"><ele>176.0</ele><time>2026-04-04T21:31:36.284Z</time></trkpt><trkpt lat="33.5835783" lon="9.6509117"><ele>176.0</ele><time>2026-04-04T21:31:37.285Z</time></trkpt><trkpt lat="33.5837567" lon="9.6507267"><ele>176.0</ele><time>2026-04-04T21:31:38.284Z</time></trkpt><trkpt lat="33.5839333" lon="9.6505383"><ele>176.0</ele><time>2026-04-04T21:31:39.284Z</time></trkpt><trkpt lat="33.5841117" lon="9.650345"><ele>176.5</ele><time>2026-04-04T21:31:40.284Z</time></trkpt><trkpt lat="33.5842917" lon="9.65015"><ele>177.0</ele><time>2026-04-04T21:31:41.285Z</time></trkpt><trkpt lat="33.5844717" lon="9.649955"><ele>178.5</ele><time>2026-04-04T21:31:42.284Z</time></trkpt><trkpt lat="33.58465" lon="9.64976"><ele>180.0</ele><time>2026-04-04T21:31:43.285Z</time></trkpt><trkpt lat="33.5848317" lon="9.64957"><ele>180.0</ele><time>2026-04-04T21:31:44.284Z</time></trkpt><trkpt lat="33.5850117" lon="9.6493767"><ele>180.0</ele><time>2026-04-04T21:31:45.284Z</time></trkpt><trkpt lat="33.5851917" lon="9.6491833"><ele>181.0</ele><time>2026-04-04T21:31:46.284Z</time></trkpt><trkpt lat="33.58537" lon="9.6489833"><ele>182.0</ele><time>2026-04-04T21:31:47.284Z</time></trkpt><trkpt lat="33.585545" lon="9.6487833"><ele>182.5</ele><time>2026-04-04T21:31:48.285Z</time></trkpt><trkpt lat="33.5857133" lon="9.64858"><ele>183.0</ele><time>2026-04-04T21:31:49.285Z</time></trkpt><trkpt lat="33.585875" lon="9.6483683"><ele>183.0</ele><time>2026-04-04T21:31:50.284Z</time></trkpt><trkpt lat="33.5860317" lon="9.6481533"><ele>183.0</ele><time>2026-04-04T21:31:51.284Z</time></trkpt><trkpt lat="33.5861833" lon="9.6479317"><ele>185.0</ele><time>2026-04-04T21:31:52.284Z</time></trkpt><trkpt lat="33.5863283" lon="9.6476983"><ele>187.0</ele><time>2026-04-04T21:31:53.284Z</time></trkpt><trkpt lat="33.58647" lon="9.6474583"><ele>187.0</ele><time>2026-04-04T21:31:54.285Z</time></trkpt><trkpt lat="33.58661" lon="9.6472133"><ele>187.0</ele><time>2026-04-04T21:31:55.284Z</time></trkpt><trkpt lat="33.5867467" lon="9.6469667"><ele>188.0</ele><time>2026-04-04T21:31:56.285Z</time></trkpt><trkpt lat="33.5868833" lon="9.6467167"><ele>189.0</ele><time>2026-04-04T21:31:57.286Z</time></trkpt><trkpt lat="33.58702" lon="9.6464667"><ele>189.0</ele><time>2026-04-04T21:31:58.285Z</time></trkpt><trkpt lat="33.587155" lon="9.6462183"><ele>189.0</ele><time>2026-04-04T21:31:59.285Z</time></trkpt><trkpt lat="33.5872917" lon="9.6459633"><ele>189.0</ele><time>2026-04-04T21:32:00.284Z</time></trkpt><trkpt lat="33.5874317" lon="9.6457"><ele>189.0</ele><time>2026-04-04T21:32:01.285Z</time></trkpt><trkpt lat="33.5875667" lon="9.6454367"><ele>187.5</ele><time>2026-04-04T21:32:02.284Z</time></trkpt><trkpt lat="33.5876967" lon="9.6451783"><ele>186.0</ele><time>2026-04-04T21:32:03.282Z</time></trkpt><trkpt lat="33.58782" lon="9.6449217"><ele>186.5</ele><time>2026-04-04T21:32:04.283Z</time></trkpt><trkpt lat="33.58794" lon="9.644665"><ele>187.0</ele><time>2026-04-04T21:32:05.283Z</time></trkpt><trkpt lat="33.5880583" lon="9.6444083"><ele>185.0</ele><time>2026-04-04T21:32:06.282Z</time></trkpt><trkpt lat="33.5881767" lon="9.6441533"><ele>183.0</ele><time>2026-04-04T21:32:07.281Z</time></trkpt><trkpt lat="33.5882917" lon="9.6439017"><ele>183.0</ele><time>2026-04-04T21:32:08.282Z</time></trkpt><trkpt lat="33.5884033" lon="9.6436567"><ele>183.0</ele><time>2026-04-04T21:32:09.282Z</time></trkpt><trkpt lat="33.5885083" lon="9.6434117"><ele>183.0</ele><time>2026-04-04T21:32:10.285Z</time></trkpt><trkpt lat="33.588615" lon="9.6431683"><ele>183.0</ele><time>2026-04-04T21:32:11.285Z</time></trkpt><trkpt lat="33.5887167" lon="9.6429217"><ele>183.5</ele><time>2026-04-04T21:32:12.287Z</time></trkpt><trkpt lat="33.5888217" lon="9.6426683"><ele>184.0</ele><time>2026-04-04T21:32:13.285Z</time></trkpt><trkpt lat="33.5889217" lon="9.6424067"><ele>184.0</ele><time>2026-04-04T21:32:14.284Z</time></trkpt><trkpt lat="33.5890167" lon="9.64214"><ele>184.0</ele><time>2026-04-04T21:32:15.285Z</time></trkpt><trkpt lat="33.5891017" lon="9.6418667"><ele>182.5</ele><time>2026-04-04T21:32:16.283Z</time></trkpt><trkpt lat="33.589185" lon="9.6415867"><ele>181.0</ele><time>2026-04-04T21:32:17.284Z</time></trkpt><trkpt lat="33.5892683" lon="9.6413"><ele>182.0</ele><time>2026-04-04T21:32:18.284Z</time></trkpt><trkpt lat="33.589345" lon="9.6410067"><ele>183.0</ele><time>2026-04-04T21:32:19.284Z</time></trkpt><trkpt lat="33.5894167" lon="9.6407117"><ele>183.0</ele><time>2026-04-04T21:32:20.283Z</time></trkpt><trkpt lat="33.5894817" lon="9.64041"><ele>183.0</ele><time>2026-04-04T21:32:21.283Z</time></trkpt><trkpt lat="33.589545" lon="9.6401067"><ele>182.5</ele><time>2026-04-04T21:32:22.283Z</time></trkpt><trkpt lat="33.589605" lon="9.6398017"><ele>182.0</ele><time>2026-04-04T21:32:23.284Z</time></trkpt><trkpt lat="33.58966" lon="9.6394967"><ele>181.0</ele><time>2026-04-04T21:32:24.282Z</time></trkpt><trkpt lat="33.5897083" lon="9.63919"><ele>180.0</ele><time>2026-04-04T21:32:25.283Z</time></trkpt><trkpt lat="33.5897517" lon="9.6388833"><ele>180.0</ele><time>2026-04-04T21:32:26.286Z</time></trkpt><trkpt lat="33.5897867" lon="9.6385767"><ele>180.0</ele><time>2026-04-04T21:32:27.287Z</time></trkpt><trkpt lat="33.58981" lon="9.6382667"><ele>180.0</ele><time>2026-04-04T21:32:28.285Z</time></trkpt><trkpt lat="33.5898283" lon="9.6379567"><ele>180.0</ele><time>2026-04-04T21:32:29.285Z</time></trkpt><trkpt lat="33.5898417" lon="9.6376433"><ele>179.5</ele><time>2026-04-04T21:32:30.285Z</time></trkpt><trkpt lat="33.5898533" lon="9.63733"><ele>179.0</ele><time>2026-04-04T21:32:31.285Z</time></trkpt><trkpt lat="33.589865" lon="9.6370167"><ele>179.0</ele><time>2026-04-04T21:32:32.284Z</time></trkpt><trkpt lat="33.5898733" lon="9.6367017"><ele>179.0</ele><time>2026-04-04T21:32:33.282Z</time></trkpt><trkpt lat="33.5898833" lon="9.636385"><ele>179.0</ele><time>2026-04-04T21:32:34.281Z</time></trkpt><trkpt lat="33.589895" lon="9.6360667"><ele>179.0</ele><time>2026-04-04T21:32:35.282Z</time></trkpt><trkpt lat="33.5899083" lon="9.6357467"><ele>179.0</ele><time>2026-04-04T21:32:36.282Z</time></trkpt><trkpt lat="33.5899217" lon="9.6354233"><ele>179.0</ele><time>2026-04-04T21:32:37.282Z</time></trkpt><trkpt lat="33.589935" lon="9.635105"><ele>177.5</ele><time>2026-04-04T21:32:38.281Z</time></trkpt><trkpt lat="33.589945" lon="9.6347967"><ele>176.0</ele><time>2026-04-04T21:32:39.282Z</time></trkpt><trkpt lat="33.589955" lon="9.6344883"><ele>175.5</ele><time>2026-04-04T21:32:40.285Z</time></trkpt><trkpt lat="33.58997" lon="9.6341783"><ele>175.0</ele><time>2026-04-04T21:32:41.285Z</time></trkpt><trkpt lat="33.5899833" lon="9.6338717"><ele>174.0</ele><time>2026-04-04T21:32:42.285Z</time></trkpt><trkpt lat="33.59" lon="9.6335683"><ele>173.0</ele><time>2026-04-04T21:32:43.284Z</time></trkpt><trkpt lat="33.5900183" lon="9.633265"><ele>173.0</ele><time>2026-04-04T21:32:44.285Z</time></trkpt><trkpt lat="33.5900417" lon="9.6329633"><ele>173.0</ele><time>2026-04-04T21:32:45.285Z</time></trkpt><trkpt lat="33.5900667" lon="9.6326617"><ele>172.5</ele><time>2026-04-04T21:32:46.285Z</time></trkpt><trkpt lat="33.5900967" lon="9.6323567"><ele>172.0</ele><time>2026-04-04T21:32:47.285Z</time></trkpt><trkpt lat="33.5901233" lon="9.6320467"><ele>171.5</ele><time>2026-04-04T21:32:48.285Z</time></trkpt><trkpt lat="33.59015" lon="9.6317317"><ele>171.0</ele><time>2026-04-04T21:32:49.285Z</time></trkpt><trkpt lat="33.5901733" lon="9.6314117"><ele>170.5</ele><time>2026-04-04T21:32:50.285Z</time></trkpt><trkpt lat="33.5901983" lon="9.6310933"><ele>170.0</ele><time>2026-04-04T21:32:51.285Z</time></trkpt><trkpt lat="33.5902217" lon="9.6307767"><ele>170.0</ele><time>2026-04-04T21:32:52.285Z</time></trkpt><trkpt lat="33.5902433" lon="9.6304633"><ele>170.0</ele><time>2026-04-04T21:32:53.285Z</time></trkpt><trkpt lat="33.590265" lon="9.6301517"><ele>170.0</ele><time>2026-04-04T21:32:54.285Z</time></trkpt><trkpt lat="33.5902883" lon="9.6298433"><ele>170.0</ele><time>2026-04-04T21:32:55.285Z</time></trkpt><trkpt lat="33.5903117" lon="9.629535"><ele>170.0</ele><time>2026-04-04T21:32:56.286Z</time></trkpt><trkpt lat="33.5903367" lon="9.6292267"><ele>170.0</ele><time>2026-04-04T21:32:57.287Z</time></trkpt><trkpt lat="33.5903617" lon="9.628915"><ele>171.5</ele><time>2026-04-04T21:32:58.286Z</time></trkpt><trkpt lat="33.5903867" lon="9.6285983"><ele>173.0</ele><time>2026-04-04T21:32:59.285Z</time></trkpt><trkpt lat="33.5904117" lon="9.62828"><ele>173.0</ele><time>2026-04-04T21:33:00.285Z</time></trkpt><trkpt lat="33.5904383" lon="9.6279567"><ele>173.0</ele><time>2026-04-04T21:33:01.285Z</time></trkpt><trkpt lat="33.5904633" lon="9.6276317"><ele>172.5</ele><time>2026-04-04T21:33:02.286Z</time></trkpt><trkpt lat="33.5904883" lon="9.6273033"><ele>172.0</ele><time>2026-04-04T21:33:03.282Z</time></trkpt><trkpt lat="33.5905133" lon="9.626975"><ele>170.5</ele><time>2026-04-04T21:33:04.281Z</time></trkpt><trkpt lat="33.5905383" lon="9.626645"><ele>169.0</ele><time>2026-04-04T21:33:05.282Z</time></trkpt><trkpt lat="33.5905633" lon="9.6263117"><ele>169.0</ele><time>2026-04-04T21:33:06.282Z</time></trkpt><trkpt lat="33.5905883" lon="9.62598"><ele>169.0</ele><time>2026-04-04T21:33:07.281Z</time></trkpt><trkpt lat="33.5906133" lon="9.6256483"><ele>169.0</ele><time>2026-04-04T21:33:08.282Z</time></trkpt><trkpt lat="33.5906367" lon="9.6253183"><ele>169.0</ele><time>2026-04-04T21:33:09.282Z</time></trkpt><trkpt lat="33.5906583" lon="9.62499"><ele>168.5</ele><time>2026-04-04T21:33:10.281Z</time></trkpt><trkpt lat="33.5906817" lon="9.624665"><ele>168.0</ele><time>2026-04-04T21:33:11.286Z</time></trkpt><trkpt lat="33.5907067" lon="9.6243417"><ele>168.0</ele><time>2026-04-04T21:33:12.282Z</time></trkpt><trkpt lat="33.5907333" lon="9.62402"><ele>168.0</ele><time>2026-04-04T21:33:13.283Z</time></trkpt><trkpt lat="33.5907617" lon="9.6236983"><ele>167.5</ele><time>2026-04-04T21:33:14.283Z</time></trkpt><trkpt lat="33.5907917" lon="9.6233783"><ele>167.0</ele><time>2026-04-04T21:33:15.285Z</time></trkpt><trkpt lat="33.5908267" lon="9.6230617"><ele>167.5</ele><time>2026-04-04T21:33:16.285Z</time></trkpt><trkpt lat="33.5908567" lon="9.6227433"><ele>168.0</ele><time>2026-04-04T21:33:17.284Z</time></trkpt><trkpt lat="33.5908767" lon="9.622425"><ele>168.0</ele><time>2026-04-04T21:33:18.285Z</time></trkpt><trkpt lat="33.5908833" lon="9.6221033"><ele>168.0</ele><time>2026-04-04T21:33:19.286Z</time></trkpt><trkpt lat="33.5908683" lon="9.6217833"><ele>168.0</ele><time>2026-04-04T21:33:20.285Z</time></trkpt><trkpt lat="33.59084" lon="9.62146"><ele>168.0</ele><time>2026-04-04T21:33:21.286Z</time></trkpt><trkpt lat="33.5908" lon="9.6211417"><ele>167.5</ele><time>2026-04-04T21:33:22.287Z</time></trkpt><trkpt lat="33.5907567" lon="9.620825"><ele>167.0</ele><time>2026-04-04T21:33:23.285Z</time></trkpt><trkpt lat="33.5907117" lon="9.6205067"><ele>166.0</ele><time>2026-04-04T21:33:24.286Z</time></trkpt><trkpt lat="33.5906683" lon="9.620185"><ele>165.0</ele><time>2026-04-04T21:33:25.285Z</time></trkpt><trkpt lat="33.5906267" lon="9.6198617"><ele>165.0</ele><time>2026-04-04T21:33:26.286Z</time></trkpt><trkpt lat="33.5905883" lon="9.6195333"><ele>165.0</ele><time>2026-04-04T21:33:27.285Z</time></trkpt><trkpt lat="33.5905533" lon="9.6192017"><ele>164.0</ele><time>2026-04-04T21:33:28.285Z</time></trkpt><trkpt lat="33.5905283" lon="9.6188683"><ele>163.0</ele><time>2026-04-04T21:33:29.285Z</time></trkpt><trkpt lat="33.5905167" lon="9.6185317"><ele>162.5</ele><time>2026-04-04T21:33:30.286Z</time></trkpt><trkpt lat="33.590515" lon="9.6181933"><ele>162.0</ele><time>2026-04-04T21:33:31.286Z</time></trkpt><trkpt lat="33.59052" lon="9.617855"><ele>161.5</ele><time>2026-04-04T21:33:32.286Z</time></trkpt><trkpt lat="33.59053" lon="9.6175167"><ele>161.0</ele><time>2026-04-04T21:33:33.285Z</time></trkpt><trkpt lat="33.5905417" lon="9.6171767"><ele>161.0</ele><time>2026-04-04T21:33:34.281Z</time></trkpt><trkpt lat="33.5905617" lon="9.6168367"><ele>161.0</ele><time>2026-04-04T21:33:35.283Z</time></trkpt><trkpt lat="33.59059" lon="9.6164933"><ele>160.5</ele><time>2026-04-04T21:33:36.282Z</time></trkpt><trkpt lat="33.5906333" lon="9.6161483"><ele>160.0</ele><time>2026-04-04T21:33:37.282Z</time></trkpt><trkpt lat="33.5906833" lon="9.6158033"><ele>160.0</ele><time>2026-04-04T21:33:38.282Z</time></trkpt><trkpt lat="33.590745" lon="9.61546"><ele>160.0</ele><time>2026-04-04T21:33:39.282Z</time></trkpt><trkpt lat="33.5908133" lon="9.61512"><ele>159.5</ele><time>2026-04-04T21:33:40.286Z</time></trkpt><trkpt lat="33.5908867" lon="9.614785"><ele>159.0</ele><time>2026-04-04T21:33:41.285Z</time></trkpt><trkpt lat="33.5909533" lon="9.61446"><ele>159.0</ele><time>2026-04-04T21:33:42.286Z</time></trkpt><trkpt lat="33.59102" lon="9.6141467"><ele>159.0</ele><time>2026-04-04T21:33:43.285Z</time></trkpt><trkpt lat="33.59109" lon="9.6138417"><ele>159.0</ele><time>2026-04-04T21:33:44.285Z</time></trkpt><trkpt lat="33.5911583" lon="9.6135417"><ele>159.0</ele><time>2026-04-04T21:33:45.285Z</time></trkpt><trkpt lat="33.5912233" lon="9.6132433"><ele>159.5</ele><time>2026-04-04T21:33:46.285Z</time></trkpt><trkpt lat="33.5912917" lon="9.6129433"><ele>160.0</ele><time>2026-04-04T21:33:47.286Z</time></trkpt><trkpt lat="33.59136" lon="9.61264"><ele>160.0</ele><time>2026-04-04T21:33:48.287Z</time></trkpt><trkpt lat="33.59143" lon="9.6123317"><ele>160.0</ele><time>2026-04-04T21:33:49.286Z</time></trkpt><trkpt lat="33.5915" lon="9.612025"><ele>159.5</ele><time>2026-04-04T21:33:50.285Z</time></trkpt><trkpt lat="33.5915667" lon="9.611715"><ele>159.0</ele><time>2026-04-04T21:33:51.285Z</time></trkpt><trkpt lat="33.5916283" lon="9.6114067"><ele>158.0</ele><time>2026-04-04T21:33:52.285Z</time></trkpt><trkpt lat="33.5916867" lon="9.6110983"><ele>157.0</ele><time>2026-04-04T21:33:53.285Z</time></trkpt><trkpt lat="33.5917417" lon="9.6107933"><ele>157.0</ele><time>2026-04-04T21:33:54.286Z</time></trkpt><trkpt lat="33.5917967" lon="9.61049"><ele>157.0</ele><time>2026-04-04T21:33:55.282Z</time></trkpt><trkpt lat="33.59185" lon="9.6101867"><ele>157.0</ele><time>2026-04-04T21:33:56.285Z</time></trkpt><trkpt lat="33.5918917" lon="9.6098833"><ele>157.0</ele><time>2026-04-04T21:33:57.285Z</time></trkpt><trkpt lat="33.5919233" lon="9.6095833"><ele>157.0</ele><time>2026-04-04T21:33:58.287Z</time></trkpt><trkpt lat="33.5919483" lon="9.6092817"><ele>157.0</ele><time>2026-04-04T21:33:59.286Z</time></trkpt><trkpt lat="33.5919633" lon="9.6089733"><ele>157.5</ele><time>2026-04-04T21:34:00.285Z</time></trkpt><trkpt lat="33.591975" lon="9.6086583"><ele>158.0</ele><time>2026-04-04T21:34:01.286Z</time></trkpt><trkpt lat="33.5919817" lon="9.608335"><ele>158.0</ele><time>2026-04-04T21:34:02.286Z</time></trkpt><trkpt lat="33.591985" lon="9.6080083"><ele>158.0</ele><time>2026-04-04T21:34:03.285Z</time></trkpt><trkpt lat="33.5919833" lon="9.6076783"><ele>157.5</ele><time>2026-04-04T21:34:04.286Z</time></trkpt><trkpt lat="33.5919767" lon="9.60735"><ele>157.0</ele><time>2026-04-04T21:34:05.286Z</time></trkpt><trkpt lat="33.5919717" lon="9.6070217"><ele>156.5</ele><time>2026-04-04T21:34:06.285Z</time></trkpt><trkpt lat="33.591965" lon="9.6066967"><ele>156.0</ele><time>2026-04-04T21:34:07.285Z</time></trkpt><trkpt lat="33.5919567" lon="9.6063717"><ele>156.0</ele><time>2026-04-04T21:34:08.286Z</time></trkpt><trkpt lat="33.59195" lon="9.606045"><ele>156.0</ele><time>2026-04-04T21:34:09.285Z</time></trkpt><trkpt lat="33.5919433" lon="9.6057067"><ele>156.0</ele><time>2026-04-04T21:34:10.286Z</time></trkpt><trkpt lat="33.5919383" lon="9.6053633"><ele>156.0</ele><time>2026-04-04T21:34:11.285Z</time></trkpt><trkpt lat="33.5919333" lon="9.6050217"><ele>155.5</ele><time>2026-04-04T21:34:12.285Z</time></trkpt><trkpt lat="33.59193" lon="9.6046917"><ele>155.0</ele><time>2026-04-04T21:34:13.285Z</time></trkpt><trkpt lat="33.5919217" lon="9.604365"><ele>155.0</ele><time>2026-04-04T21:34:14.286Z</time></trkpt><trkpt lat="33.5919183" lon="9.6040367"><ele>155.0</ele><time>2026-04-04T21:34:15.286Z</time></trkpt><trkpt lat="33.5919117" lon="9.60371"><ele>156.0</ele><time>2026-04-04T21:34:16.285Z</time></trkpt><trkpt lat="33.5919033" lon="9.6033867"><ele>157.0</ele><time>2026-04-04T21:34:17.286Z</time></trkpt><trkpt lat="33.5918967" lon="9.603065"><ele>156.0</ele><time>2026-04-04T21:34:18.285Z</time></trkpt><trkpt lat="33.5918917" lon="9.6027467"><ele>155.0</ele><time>2026-04-04T21:34:19.284Z</time></trkpt><trkpt lat="33.591885" lon="9.60243"><ele>155.0</ele><time>2026-04-04T21:34:20.285Z</time></trkpt><trkpt lat="33.5918783" lon="9.602115"><ele>155.0</ele><time>2026-04-04T21:34:21.284Z</time></trkpt><trkpt lat="33.5918717" lon="9.6018017"><ele>154.0</ele><time>2026-04-04T21:34:22.284Z</time></trkpt><trkpt lat="33.5918667" lon="9.6014933"><ele>153.0</ele><time>2026-04-04T21:34:23.284Z</time></trkpt><trkpt lat="33.5918617" lon="9.6011917"><ele>153.0</ele><time>2026-04-04T21:34:24.284Z</time></trkpt><trkpt lat="33.5918533" lon="9.6008917"><ele>153.0</ele><time>2026-04-04T21:34:25.284Z</time></trkpt><trkpt lat="33.5918483" lon="9.60059"><ele>153.0</ele><time>2026-04-04T21:34:26.285Z</time></trkpt><trkpt lat="33.5918433" lon="9.6002867"><ele>153.0</ele><time>2026-04-04T21:34:27.284Z</time></trkpt><trkpt lat="33.5918383" lon="9.5999817"><ele>153.0</ele><time>2026-04-04T21:34:28.285Z</time></trkpt><trkpt lat="33.5918367" lon="9.59968"><ele>153.0</ele><time>2026-04-04T21:34:29.284Z</time></trkpt><trkpt lat="33.5918333" lon="9.599375"><ele>152.5</ele><time>2026-04-04T21:34:30.285Z</time></trkpt><trkpt lat="33.59183" lon="9.59907"><ele>152.0</ele><time>2026-04-04T21:34:31.284Z</time></trkpt><trkpt lat="33.5918233" lon="9.5987617"><ele>152.5</ele><time>2026-04-04T21:34:32.284Z</time></trkpt><trkpt lat="33.5918183" lon="9.5984517"><ele>153.0</ele><time>2026-04-04T21:34:33.284Z</time></trkpt><trkpt lat="33.59181" lon="9.59814"><ele>152.5</ele><time>2026-04-04T21:34:34.284Z</time></trkpt><trkpt lat="33.591805" lon="9.597825"><ele>152.0</ele><time>2026-04-04T21:34:35.284Z</time></trkpt><trkpt lat="33.5918017" lon="9.5975083"><ele>152.0</ele><time>2026-04-04T21:34:36.284Z</time></trkpt><trkpt lat="33.5917983" lon="9.5971917"><ele>152.0</ele><time>2026-04-04T21:34:37.284Z</time></trkpt><trkpt lat="33.5917933" lon="9.5968733"><ele>152.0</ele><time>2026-04-04T21:34:38.285Z</time></trkpt><trkpt lat="33.5917917" lon="9.5965533"><ele>152.0</ele><time>2026-04-04T21:34:39.285Z</time></trkpt><trkpt lat="33.5917917" lon="9.5962317"><ele>152.5</ele><time>2026-04-04T21:34:40.285Z</time></trkpt><trkpt lat="33.59179" lon="9.5959033"><ele>153.0</ele><time>2026-04-04T21:34:41.284Z</time></trkpt><trkpt lat="33.5917867" lon="9.5955733"><ele>152.5</ele><time>2026-04-04T21:34:42.284Z</time></trkpt><trkpt lat="33.59178" lon="9.5952433"><ele>152.0</ele><time>2026-04-04T21:34:43.285Z</time></trkpt><trkpt lat="33.5917717" lon="9.594925"><ele>152.0</ele><time>2026-04-04T21:34:44.284Z</time></trkpt><trkpt lat="33.5917667" lon="9.594615"><ele>152.0</ele><time>2026-04-04T21:34:45.285Z</time></trkpt><trkpt lat="33.5917683" lon="9.5943067"><ele>151.5</ele><time>2026-04-04T21:34:46.284Z</time></trkpt><trkpt lat="33.59178" lon="9.5939967"><ele>151.0</ele><time>2026-04-04T21:34:47.284Z</time></trkpt><trkpt lat="33.5918" lon="9.5936833"><ele>150.5</ele><time>2026-04-04T21:34:48.285Z</time></trkpt><trkpt lat="33.591825" lon="9.5933633"><ele>150.0</ele><time>2026-04-04T21:34:49.285Z</time></trkpt><trkpt lat="33.591855" lon="9.5930367"><ele>150.5</ele><time>2026-04-04T21:34:50.284Z</time></trkpt><trkpt lat="33.5918917" lon="9.5927117"><ele>151.0</ele><time>2026-04-04T21:34:51.285Z</time></trkpt><trkpt lat="33.5919317" lon="9.592385"><ele>151.0</ele><time>2026-04-04T21:34:52.284Z</time></trkpt><trkpt lat="33.59198" lon="9.59206"><ele>151.0</ele><time>2026-04-04T21:34:53.284Z</time></trkpt><trkpt lat="33.592035" lon="9.591735"><ele>151.0</ele><time>2026-04-04T21:34:54.281Z</time></trkpt><trkpt lat="33.5920933" lon="9.5914117"><ele>151.0</ele><time>2026-04-04T21:34:55.282Z</time></trkpt><trkpt lat="33.5921567" lon="9.5910883"><ele>151.0</ele><time>2026-04-04T21:34:56.282Z</time></trkpt><trkpt lat="33.59222" lon="9.5907767"><ele>151.0</ele><time>2026-04-04T21:34:57.285Z</time></trkpt><trkpt lat="33.5922883" lon="9.5904767"><ele>151.0</ele><time>2026-04-04T21:34:58.284Z</time></trkpt><trkpt lat="33.5923567" lon="9.5901817"><ele>151.0</ele><time>2026-04-04T21:34:59.283Z</time></trkpt><trkpt lat="33.5924267" lon="9.5898833"><ele>151.0</ele><time>2026-04-04T21:35:00.284Z</time></trkpt><trkpt lat="33.5924967" lon="9.5895867"><ele>151.0</ele><time>2026-04-04T21:35:01.284Z</time></trkpt><trkpt lat="33.5925633" lon="9.58929"><ele>150.0</ele><time>2026-04-04T21:35:02.284Z</time></trkpt><trkpt lat="33.5926333" lon="9.5889917"><ele>149.0</ele><time>2026-04-04T21:35:03.282Z</time></trkpt><trkpt lat="33.592705" lon="9.58869"><ele>149.0</ele><time>2026-04-04T21:35:04.285Z</time></trkpt><trkpt lat="33.5927733" lon="9.5883917"><ele>149.0</ele><time>2026-04-04T21:35:05.284Z</time></trkpt><trkpt lat="33.59284" lon="9.5880933"><ele>149.5</ele><time>2026-04-04T21:35:06.282Z</time></trkpt><trkpt lat="33.592905" lon="9.5878017"><ele>150.0</ele><time>2026-04-04T21:35:07.285Z</time></trkpt><trkpt lat="33.5929683" lon="9.5875117"><ele>150.0</ele><time>2026-04-04T21:35:08.282Z</time></trkpt><trkpt lat="33.593035" lon="9.5872183"><ele>150.0</ele><time>2026-04-04T21:35:09.283Z</time></trkpt><trkpt lat="33.5931017" lon="9.586925"><ele>150.5</ele><time>2026-04-04T21:35:10.281Z</time></trkpt><trkpt lat="33.59317" lon="9.586635"><ele>151.0</ele><time>2026-04-04T21:35:11.284Z</time></trkpt><trkpt lat="33.5932317" lon="9.5863483"><ele>151.0</ele><time>2026-04-04T21:35:12.285Z</time></trkpt><trkpt lat="33.5932933" lon="9.5860617"><ele>151.0</ele><time>2026-04-04T21:35:13.281Z</time></trkpt><trkpt lat="33.59335" lon="9.585775"><ele>151.0</ele><time>2026-04-04T21:35:14.281Z</time></trkpt><trkpt lat="33.5934017" lon="9.5854867"><ele>151.0</ele><time>2026-04-04T21:35:15.283Z</time></trkpt><trkpt lat="33.5934517" lon="9.5851983"><ele>152.0</ele><time>2026-04-04T21:35:16.281Z</time></trkpt><trkpt lat="33.593495" lon="9.5849083"><ele>153.0</ele><time>2026-04-04T21:35:17.282Z</time></trkpt><trkpt lat="33.5935317" lon="9.584615"><ele>153.5</ele><time>2026-04-04T21:35:18.282Z</time></trkpt><trkpt lat="33.5935633" lon="9.584315"><ele>154.0</ele><time>2026-04-04T21:35:19.282Z</time></trkpt><trkpt lat="33.5935883" lon="9.5840083"><ele>154.0</ele><time>2026-04-04T21:35:20.281Z</time></trkpt><trkpt lat="33.5936067" lon="9.583695"><ele>154.0</ele><time>2026-04-04T21:35:21.282Z</time></trkpt><trkpt lat="33.59362" lon="9.5833817"><ele>153.5</ele><time>2026-04-04T21:35:22.282Z</time></trkpt><trkpt lat="33.5936283" lon="9.58307"><ele>153.0</ele><time>2026-04-04T21:35:23.283Z</time></trkpt><trkpt lat="33.5936317" lon="9.5827583"><ele>152.5</ele><time>2026-04-04T21:35:24.282Z</time></trkpt><trkpt lat="33.5936283" lon="9.5824467"><ele>152.0</ele><time>2026-04-04T21:35:25.282Z</time></trkpt><trkpt lat="33.5936183" lon="9.582135"><ele>151.0</ele><time>2026-04-04T21:35:26.281Z</time></trkpt><trkpt lat="33.5936017" lon="9.58182"><ele>150.0</ele><time>2026-04-04T21:35:27.283Z</time></trkpt><trkpt lat="33.5935767" lon="9.5815033"><ele>150.0</ele><time>2026-04-04T21:35:28.281Z</time></trkpt><trkpt lat="33.59355" lon="9.5811867"><ele>150.0</ele><time>2026-04-04T21:35:29.282Z</time></trkpt><trkpt lat="33.593515" lon="9.58087"><ele>150.5</ele><time>2026-04-04T21:35:30.282Z</time></trkpt><trkpt lat="33.5934783" lon="9.5805517"><ele>151.0</ele><time>2026-04-04T21:35:31.286Z</time></trkpt><trkpt lat="33.593435" lon="9.5802367"><ele>151.0</ele><time>2026-04-04T21:35:32.285Z</time></trkpt><trkpt lat="33.59339" lon="9.579925"><ele>151.0</ele><time>2026-04-04T21:35:33.281Z</time></trkpt><trkpt lat="33.59334" lon="9.5796183"><ele>150.5</ele><time>2026-04-04T21:35:34.281Z</time></trkpt><trkpt lat="33.59328" lon="9.5793167"><ele>150.0</ele><time>2026-04-04T21:35:35.282Z</time></trkpt><trkpt lat="33.5932117" lon="9.5790217"><ele>150.0</ele><time>2026-04-04T21:35:36.282Z</time></trkpt><trkpt lat="33.59314" lon="9.5787267"><ele>150.0</ele><time>2026-04-04T21:35:37.282Z</time></trkpt><trkpt lat="33.5930633" lon="9.5784317"><ele>150.5</ele><time>2026-04-04T21:35:38.281Z</time></trkpt><trkpt lat="33.59298" lon="9.5781317"><ele>151.0</ele><time>2026-04-04T21:35:39.283Z</time></trkpt><trkpt lat="33.59289" lon="9.5778333"><ele>150.5</ele><time>2026-04-04T21:35:40.281Z</time></trkpt><trkpt lat="33.5927933" lon="9.5775367"><ele>150.0</ele><time>2026-04-04T21:35:41.283Z</time></trkpt><trkpt lat="33.5926917" lon="9.5772433"><ele>150.5</ele><time>2026-04-04T21:35:42.282Z</time></trkpt><trkpt lat="33.592585" lon="9.5769483"><ele>151.0</ele><time>2026-04-04T21:35:43.281Z</time></trkpt><trkpt lat="33.59247" lon="9.576655"><ele>151.0</ele><time>2026-04-04T21:35:44.282Z</time></trkpt><trkpt lat="33.5923483" lon="9.57636"><ele>151.0</ele><time>2026-04-04T21:35:45.283Z</time></trkpt><trkpt lat="33.5922183" lon="9.5760667"><ele>151.0</ele><time>2026-04-04T21:35:46.281Z</time></trkpt><trkpt lat="33.5920833" lon="9.5757717"><ele>151.0</ele><time>2026-04-04T21:35:47.283Z</time></trkpt><trkpt lat="33.5919383" lon="9.575475"><ele>151.0</ele><time>2026-04-04T21:35:48.282Z</time></trkpt><trkpt lat="33.591785" lon="9.5751783"><ele>151.0</ele><time>2026-04-04T21:35:49.286Z</time></trkpt><trkpt lat="33.5916233" lon="9.57489"><ele>151.0</ele><time>2026-04-04T21:35:50.285Z</time></trkpt><trkpt lat="33.5914633" lon="9.5746133"><ele>151.0</ele><time>2026-04-04T21:35:51.285Z</time></trkpt><trkpt lat="33.5913017" lon="9.5743517"><ele>151.5</ele><time>2026-04-04T21:35:52.285Z</time></trkpt><trkpt lat="33.591135" lon="9.5740917"><ele>152.0</ele><time>2026-04-04T21:35:53.285Z</time></trkpt><trkpt lat="33.5909617" lon="9.5738333"><ele>152.5</ele><time>2026-04-04T21:35:54.283Z</time></trkpt><trkpt lat="33.5907933" lon="9.57358"><ele>153.0</ele><time>2026-04-04T21:35:55.286Z</time></trkpt><trkpt lat="33.5906283" lon="9.5733333"><ele>153.0</ele><time>2026-04-04T21:35:56.284Z</time></trkpt><trkpt lat="33.5904717" lon="9.5731"><ele>153.0</ele><time>2026-04-04T21:35:57.285Z</time></trkpt><trkpt lat="33.5903183" lon="9.57287"><ele>152.5</ele><time>2026-04-04T21:35:58.285Z</time></trkpt><trkpt lat="33.5901633" lon="9.5726367"><ele>152.0</ele><time>2026-04-04T21:35:59.285Z</time></trkpt><trkpt lat="33.59" lon="9.5723983"><ele>152.0</ele><time>2026-04-04T21:36:00.285Z</time></trkpt><trkpt lat="33.5898367" lon="9.572155"><ele>152.0</ele><time>2026-04-04T21:36:01.282Z</time></trkpt><trkpt lat="33.58967" lon="9.5719067"><ele>151.5</ele><time>2026-04-04T21:36:02.285Z</time></trkpt><trkpt lat="33.589505" lon="9.5716583"><ele>151.0</ele><time>2026-04-04T21:36:03.286Z</time></trkpt><trkpt lat="33.5893383" lon="9.57141"><ele>150.0</ele><time>2026-04-04T21:36:04.285Z</time></trkpt><trkpt lat="33.589175" lon="9.5711683"><ele>149.0</ele><time>2026-04-04T21:36:05.286Z</time></trkpt><trkpt lat="33.5890133" lon="9.5709283"><ele>149.0</ele><time>2026-04-04T21:36:06.285Z</time></trkpt><trkpt lat="33.588855" lon="9.5706933"><ele>149.0</ele><time>2026-04-04T21:36:07.285Z</time></trkpt><trkpt lat="33.5886967" lon="9.5704633"><ele>150.5</ele><time>2026-04-04T21:36:08.285Z</time></trkpt><trkpt lat="33.58854" lon="9.5702333"><ele>152.0</ele><time>2026-04-04T21:36:09.283Z</time></trkpt><trkpt lat="33.5883817" lon="9.5700067"><ele>152.0</ele><time>2026-04-04T21:36:10.283Z</time></trkpt><trkpt lat="33.588225" lon="9.5697783"><ele>152.0</ele><time>2026-04-04T21:36:11.282Z</time></trkpt><trkpt lat="33.588065" lon="9.5695483"><ele>151.5</ele><time>2026-04-04T21:36:12.285Z</time></trkpt><trkpt lat="33.587905" lon="9.5693133"><ele>151.0</ele><time>2026-04-04T21:36:13.285Z</time></trkpt><trkpt lat="33.5877417" lon="9.5690717"><ele>152.0</ele><time>2026-04-04T21:36:14.283Z</time></trkpt><trkpt lat="33.587575" lon="9.568825"><ele>153.0</ele><time>2026-04-04T21:36:15.286Z</time></trkpt><trkpt lat="33.5874067" lon="9.56858"><ele>153.0</ele><time>2026-04-04T21:36:16.285Z</time></trkpt><trkpt lat="33.5872417" lon="9.5683367"><ele>153.0</ele><time>2026-04-04T21:36:17.285Z</time></trkpt><trkpt lat="33.58708" lon="9.568095"><ele>154.5</ele><time>2026-04-04T21:36:18.285Z</time></trkpt><trkpt lat="33.58692" lon="9.5678583"><ele>156.0</ele><time>2026-04-04T21:36:19.287Z</time></trkpt><trkpt lat="33.5867633" lon="9.5676267"><ele>156.0</ele><time>2026-04-04T21:36:20.285Z</time></trkpt><trkpt lat="33.5866117" lon="9.5673967"><ele>156.0</ele><time>2026-04-04T21:36:21.284Z</time></trkpt><trkpt lat="33.5864583" lon="9.56716"><ele>156.5</ele><time>2026-04-04T21:36:22.284Z</time></trkpt><trkpt lat="33.5863017" lon="9.56691"><ele>157.0</ele><time>2026-04-04T21:36:23.285Z</time></trkpt><trkpt lat="33.5861433" lon="9.566655"><ele>157.0</ele><time>2026-04-04T21:36:24.282Z</time></trkpt><trkpt lat="33.5859917" lon="9.5664033"><ele>157.0</ele><time>2026-04-04T21:36:25.283Z</time></trkpt><trkpt lat="33.5858433" lon="9.5661533"><ele>157.0</ele><time>2026-04-04T21:36:26.282Z</time></trkpt><trkpt lat="33.5856933" lon="9.5659"><ele>157.0</ele><time>2026-04-04T21:36:27.282Z</time></trkpt><trkpt lat="33.5855417" lon="9.5656467"><ele>157.0</ele><time>2026-04-04T21:36:28.283Z</time></trkpt><trkpt lat="33.5853917" lon="9.5653967"><ele>157.0</ele><time>2026-04-04T21:36:29.283Z</time></trkpt><trkpt lat="33.5852433" lon="9.5651533"><ele>157.5</ele><time>2026-04-04T21:36:30.282Z</time></trkpt><trkpt lat="33.5851" lon="9.5649133"><ele>158.0</ele><time>2026-04-04T21:36:31.286Z</time></trkpt><trkpt lat="33.584955" lon="9.5646783"><ele>159.0</ele><time>2026-04-04T21:36:32.285Z</time></trkpt><trkpt lat="33.5848117" lon="9.5644433"><ele>160.0</ele><time>2026-04-04T21:36:33.285Z</time></trkpt><trkpt lat="33.5846667" lon="9.56421"><ele>160.0</ele><time>2026-04-04T21:36:34.285Z</time></trkpt><trkpt lat="33.5845183" lon="9.5639733"><ele>160.0</ele><time>2026-04-04T21:36:35.285Z</time></trkpt><trkpt lat="33.5843683" lon="9.5637367"><ele>159.5</ele><time>2026-04-04T21:36:36.282Z</time></trkpt><trkpt lat="33.584215" lon="9.5635"><ele>159.0</ele><time>2026-04-04T21:36:37.285Z</time></trkpt><trkpt lat="33.58406" lon="9.5632567"><ele>159.0</ele><time>2026-04-04T21:36:38.282Z</time></trkpt><trkpt lat="33.5839067" lon="9.5630117"><ele>159.0</ele><time>2026-04-04T21:36:39.284Z</time></trkpt><trkpt lat="33.583745" lon="9.562765"><ele>157.0</ele><time>2026-04-04T21:36:40.285Z</time></trkpt><trkpt lat="33.58358" lon="9.5625133"><ele>155.0</ele><time>2026-04-04T21:36:41.285Z</time></trkpt><trkpt lat="33.583405" lon="9.5622567"><ele>154.5</ele><time>2026-04-04T21:36:42.286Z</time></trkpt><trkpt lat="33.58323" lon="9.5619967"><ele>154.0</ele><time>2026-04-04T21:36:43.285Z</time></trkpt><trkpt lat="33.5830567" lon="9.561735"><ele>154.0</ele><time>2026-04-04T21:36:44.285Z</time></trkpt><trkpt lat="33.5828833" lon="9.5614733"><ele>154.0</ele><time>2026-04-04T21:36:45.283Z</time></trkpt><trkpt lat="33.58271" lon="9.5612067"><ele>153.0</ele><time>2026-04-04T21:36:46.282Z</time></trkpt><trkpt lat="33.5825367" lon="9.56094"><ele>152.0</ele><time>2026-04-04T21:36:47.282Z</time></trkpt><trkpt lat="33.58236" lon="9.5606733"><ele>152.0</ele><time>2026-04-04T21:36:48.282Z</time></trkpt><trkpt lat="33.5821833" lon="9.5604067"><ele>152.0</ele><time>2026-04-04T21:36:49.282Z</time></trkpt><trkpt lat="33.582005" lon="9.56014"><ele>152.0</ele><time>2026-04-04T21:36:50.285Z</time></trkpt><trkpt lat="33.58183" lon="9.5598733"><ele>152.0</ele><time>2026-04-04T21:36:51.286Z</time></trkpt><trkpt lat="33.581655" lon="9.5596117"><ele>151.5</ele><time>2026-04-04T21:36:52.285Z</time></trkpt><trkpt lat="33.581485" lon="9.5593583"><ele>151.0</ele><time>2026-04-04T21:36:53.286Z</time></trkpt><trkpt lat="33.5813167" lon="9.559105"><ele>151.0</ele><time>2026-04-04T21:36:54.286Z</time></trkpt><trkpt lat="33.5811517" lon="9.558855"><ele>151.0</ele><time>2026-04-04T21:36:55.285Z</time></trkpt><trkpt lat="33.5809933" lon="9.5586117"><ele>151.0</ele><time>2026-04-04T21:36:56.285Z</time></trkpt><trkpt lat="33.580835" lon="9.5583717"><ele>151.0</ele><time>2026-04-04T21:36:57.285Z</time></trkpt><trkpt lat="33.580675" lon="9.5581317"><ele>151.0</ele><time>2026-04-04T21:36:58.285Z</time></trkpt><trkpt lat="33.5805167" lon="9.5578917"><ele>151.0</ele><time>2026-04-04T21:36:59.286Z</time></trkpt><trkpt lat="33.580355" lon="9.55765"><ele>150.0</ele><time>2026-04-04T21:37:00.285Z</time></trkpt><trkpt lat="33.5801917" lon="9.5574083"><ele>149.0</ele><time>2026-04-04T21:37:01.285Z</time></trkpt><trkpt lat="33.5800283" lon="9.5571617"><ele>149.5</ele><time>2026-04-04T21:37:02.285Z</time></trkpt><trkpt lat="33.5798633" lon="9.5569083"><ele>150.0</ele><time>2026-04-04T21:37:03.286Z</time></trkpt><trkpt lat="33.5796933" lon="9.5566517"><ele>150.0</ele><time>2026-04-04T21:37:04.286Z</time></trkpt><trkpt lat="33.5795233" lon="9.5563917"><ele>150.0</ele><time>2026-04-04T21:37:05.285Z</time></trkpt><trkpt lat="33.5793517" lon="9.55613"><ele>149.5</ele><time>2026-04-04T21:37:06.286Z</time></trkpt><trkpt lat="33.57918" lon="9.55587"><ele>149.0</ele><time>2026-04-04T21:37:07.285Z</time></trkpt><trkpt lat="33.579005" lon="9.55561"><ele>149.0</ele><time>2026-04-04T21:37:08.285Z</time></trkpt><trkpt lat="33.57883" lon="9.5553517"><ele>149.0</ele><time>2026-04-04T21:37:09.286Z</time></trkpt><trkpt lat="33.5786533" lon="9.5550917"><ele>149.5</ele><time>2026-04-04T21:37:10.285Z</time></trkpt><trkpt lat="33.5784817" lon="9.5548317"><ele>150.0</ele><time>2026-04-04T21:37:11.289Z</time></trkpt><trkpt lat="33.5783067" lon="9.5545717"><ele>149.0</ele><time>2026-04-04T21:37:12.285Z</time></trkpt><trkpt lat="33.578135" lon="9.5543133"><ele>148.0</ele><time>2026-04-04T21:37:13.286Z</time></trkpt><trkpt lat="33.5779667" lon="9.5540567"><ele>149.5</ele><time>2026-04-04T21:37:14.286Z</time></trkpt><trkpt lat="33.5778" lon="9.5538017"><ele>151.0</ele><time>2026-04-04T21:37:15.286Z</time></trkpt><trkpt lat="33.577635" lon="9.553545"><ele>151.5</ele><time>2026-04-04T21:37:16.285Z</time></trkpt><trkpt lat="33.5774667" lon="9.5532883"><ele>152.0</ele><time>2026-04-04T21:37:17.285Z</time></trkpt><trkpt lat="33.5772967" lon="9.5530333"><ele>152.5</ele><time>2026-04-04T21:37:18.285Z</time></trkpt><trkpt lat="33.5771233" lon="9.5527767"><ele>153.0</ele><time>2026-04-04T21:37:19.286Z</time></trkpt><trkpt lat="33.5769483" lon="9.5525217"><ele>153.0</ele><time>2026-04-04T21:37:20.285Z</time></trkpt><trkpt lat="33.576775" lon="9.5522633"><ele>153.0</ele><time>2026-04-04T21:37:21.285Z</time></trkpt><trkpt lat="33.576605" lon="9.552005"><ele>153.0</ele><time>2026-04-04T21:37:22.285Z</time></trkpt><trkpt lat="33.5764433" lon="9.5517517"><ele>153.0</ele><time>2026-04-04T21:37:23.285Z</time></trkpt><trkpt lat="33.5762867" lon="9.5515117"><ele>153.5</ele><time>2026-04-04T21:37:24.285Z</time></trkpt><trkpt lat="33.5761283" lon="9.551275"><ele>154.0</ele><time>2026-04-04T21:37:25.285Z</time></trkpt><trkpt lat="33.5759683" lon="9.55104"><ele>154.0</ele><time>2026-04-04T21:37:26.287Z</time></trkpt><trkpt lat="33.5758117" lon="9.5508067"><ele>154.0</ele><time>2026-04-04T21:37:27.285Z</time></trkpt><trkpt lat="33.5756567" lon="9.5505783"><ele>154.0</ele><time>2026-04-04T21:37:28.286Z</time></trkpt><trkpt lat="33.5755083" lon="9.55035"><ele>154.0</ele><time>2026-04-04T21:37:29.286Z</time></trkpt><trkpt lat="33.575365" lon="9.5501283"><ele>154.0</ele><time>2026-04-04T21:37:30.286Z</time></trkpt><trkpt lat="33.5752267" lon="9.549915"><ele>154.0</ele><time>2026-04-04T21:37:31.286Z</time></trkpt><trkpt lat="33.5750917" lon="9.5497083"><ele>154.0</ele><time>2026-04-04T21:37:32.285Z</time></trkpt><trkpt lat="33.574955" lon="9.5495"><ele>154.0</ele><time>2026-04-04T21:37:33.285Z</time></trkpt><trkpt lat="33.574815" lon="9.54929"><ele>154.0</ele><time>2026-04-04T21:37:34.282Z</time></trkpt><trkpt lat="33.57467" lon="9.549075"><ele>154.5</ele><time>2026-04-04T21:37:35.283Z</time></trkpt><trkpt lat="33.5745183" lon="9.5488533"><ele>155.0</ele><time>2026-04-04T21:37:36.281Z</time></trkpt><trkpt lat="33.5743633" lon="9.5486267"><ele>154.0</ele><time>2026-04-04T21:37:37.283Z</time></trkpt><trkpt lat="33.57421" lon="9.5483967"><ele>153.0</ele><time>2026-04-04T21:37:38.281Z</time></trkpt><trkpt lat="33.5740533" lon="9.5481633"><ele>153.0</ele><time>2026-04-04T21:37:39.281Z</time></trkpt><trkpt lat="33.573895" lon="9.547925"><ele>153.0</ele><time>2026-04-04T21:37:40.282Z</time></trkpt><trkpt lat="33.5737383" lon="9.5476883"><ele>151.0</ele><time>2026-04-04T21:37:41.281Z</time></trkpt><trkpt lat="33.5735783" lon="9.5474533"><ele>149.0</ele><time>2026-04-04T21:37:42.281Z</time></trkpt><trkpt lat="33.5734233" lon="9.5472167"><ele>148.0</ele><time>2026-04-04T21:37:43.283Z</time></trkpt><trkpt lat="33.5732667" lon="9.54698"><ele>147.0</ele><time>2026-04-04T21:37:44.281Z</time></trkpt><trkpt lat="33.5731117" lon="9.5467433"><ele>147.0</ele><time>2026-04-04T21:37:45.284Z</time></trkpt><trkpt lat="33.5729517" lon="9.546505"><ele>147.0</ele><time>2026-04-04T21:37:46.284Z</time></trkpt><trkpt lat="33.5727917" lon="9.5462683"><ele>147.0</ele><time>2026-04-04T21:37:47.285Z</time></trkpt><trkpt lat="33.5726317" lon="9.5460317"><ele>147.0</ele><time>2026-04-04T21:37:48.281Z</time></trkpt><trkpt lat="33.5724717" lon="9.5457917"><ele>147.0</ele><time>2026-04-04T21:37:49.286Z</time></trkpt><trkpt lat="33.5723133" lon="9.5455483"><ele>147.0</ele><time>2026-04-04T21:37:50.284Z</time></trkpt><trkpt lat="33.572155" lon="9.5453017"><ele>147.0</ele><time>2026-04-04T21:37:51.284Z</time></trkpt><trkpt lat="33.5719933" lon="9.5450567"><ele>147.0</ele><time>2026-04-04T21:37:52.285Z</time></trkpt><trkpt lat="33.57183" lon="9.54481"><ele>147.0</ele><time>2026-04-04T21:37:53.284Z</time></trkpt><trkpt lat="33.571665" lon="9.5445633"><ele>147.0</ele><time>2026-04-04T21:37:54.286Z</time></trkpt><trkpt lat="33.5714933" lon="9.544315"><ele>146.5</ele><time>2026-04-04T21:37:55.284Z</time></trkpt><trkpt lat="33.57132" lon="9.54407"><ele>146.0</ele><time>2026-04-04T21:37:56.284Z</time></trkpt><trkpt lat="33.57114" lon="9.5438317"><ele>144.0</ele><time>2026-04-04T21:37:57.288Z</time></trkpt><trkpt lat="33.570955" lon="9.5436033"><ele>142.0</ele><time>2026-04-04T21:37:58.284Z</time></trkpt><trkpt lat="33.5707683" lon="9.54338"><ele>142.0</ele><time>2026-04-04T21:37:59.281Z</time></trkpt><trkpt lat="33.5705783" lon="9.54316"><ele>142.0</ele><time>2026-04-04T21:38:00.281Z</time></trkpt><trkpt lat="33.5703833" lon="9.542945"><ele>141.5</ele><time>2026-04-04T21:38:01.282Z</time></trkpt><trkpt lat="33.5701833" lon="9.5427333"><ele>141.0</ele><time>2026-04-04T21:38:02.281Z</time></trkpt><trkpt lat="33.5699767" lon="9.5425283"><ele>141.0</ele><time>2026-04-04T21:38:03.281Z</time></trkpt><trkpt lat="33.5697667" lon="9.5423317"><ele>141.0</ele><time>2026-04-04T21:38:04.283Z</time></trkpt><trkpt lat="33.56955" lon="9.5421367"><ele>141.0</ele><time>2026-04-04T21:38:05.283Z</time></trkpt><trkpt lat="33.5693283" lon="9.5419467"><ele>141.0</ele><time>2026-04-04T21:38:06.282Z</time></trkpt><trkpt lat="33.5691017" lon="9.5417633"><ele>141.0</ele><time>2026-04-04T21:38:07.283Z</time></trkpt><trkpt lat="33.5688683" lon="9.541585"><ele>141.0</ele><time>2026-04-04T21:38:08.281Z</time></trkpt><trkpt lat="33.5686283" lon="9.5414133"><ele>141.5</ele><time>2026-04-04T21:38:09.282Z</time></trkpt><trkpt lat="33.5683833" lon="9.541245"><ele>142.0</ele><time>2026-04-04T21:38:10.281Z</time></trkpt><trkpt lat="33.568135" lon="9.54108"><ele>142.0</ele><time>2026-04-04T21:38:11.282Z</time></trkpt><trkpt lat="33.5678833" lon="9.5409217"><ele>142.0</ele><time>2026-04-04T21:38:12.282Z</time></trkpt><trkpt lat="33.567625" lon="9.5407733"><ele>142.0</ele><time>2026-04-04T21:38:13.283Z</time></trkpt><trkpt lat="33.5673617" lon="9.540635"><ele>142.0</ele><time>2026-04-04T21:38:14.281Z</time></trkpt><trkpt lat="33.567095" lon="9.5405067"><ele>142.5</ele><time>2026-04-04T21:38:15.285Z</time></trkpt><trkpt lat="33.5668283" lon="9.5403883"><ele>143.0</ele><time>2026-04-04T21:38:16.285Z</time></trkpt><trkpt lat="33.5665633" lon="9.5402783"><ele>143.0</ele><time>2026-04-04T21:38:17.284Z</time></trkpt><trkpt lat="33.5663017" lon="9.5401717"><ele>143.0</ele><time>2026-04-04T21:38:18.284Z</time></trkpt><trkpt lat="33.5660417" lon="9.54007"><ele>142.0</ele><time>2026-04-04T21:38:19.285Z</time></trkpt><trkpt lat="33.565785" lon="9.53997"><ele>141.0</ele><time>2026-04-04T21:38:20.284Z</time></trkpt><trkpt lat="33.5655317" lon="9.53987"><ele>140.0</ele><time>2026-04-04T21:38:21.284Z</time></trkpt><trkpt lat="33.565285" lon="9.539775"><ele>139.0</ele><time>2026-04-04T21:38:22.284Z</time></trkpt><trkpt lat="33.56505" lon="9.5396833"><ele>139.0</ele><time>2026-04-04T21:38:23.285Z</time></trkpt><trkpt lat="33.5648217" lon="9.5395933"><ele>139.0</ele><time>2026-04-04T21:38:24.285Z</time></trkpt><trkpt lat="33.5645967" lon="9.539505"><ele>139.5</ele><time>2026-04-04T21:38:25.285Z</time></trkpt><trkpt lat="33.56437" lon="9.5394083"><ele>140.0</ele><time>2026-04-04T21:38:26.283Z</time></trkpt><trkpt lat="33.564145" lon="9.53931"><ele>140.0</ele><time>2026-04-04T21:38:27.284Z</time></trkpt><trkpt lat="33.5639183" lon="9.5392067"><ele>140.0</ele><time>2026-04-04T21:38:28.282Z</time></trkpt><trkpt lat="33.5636967" lon="9.539095"><ele>141.0</ele><time>2026-04-04T21:38:29.282Z</time></trkpt><trkpt lat="33.5634767" lon="9.538975"><ele>142.0</ele><time>2026-04-04T21:38:30.282Z</time></trkpt><trkpt lat="33.5632617" lon="9.5388467"><ele>142.0</ele><time>2026-04-04T21:38:31.285Z</time></trkpt><trkpt lat="33.5630433" lon="9.5387183"><ele>142.0</ele><time>2026-04-04T21:38:32.282Z</time></trkpt><trkpt lat="33.5628233" lon="9.5385867"><ele>141.5</ele><time>2026-04-04T21:38:33.282Z</time></trkpt><trkpt lat="33.5625967" lon="9.53846"><ele>141.0</ele><time>2026-04-04T21:38:34.282Z</time></trkpt><trkpt lat="33.5623667" lon="9.538335"><ele>141.0</ele><time>2026-04-04T21:38:35.282Z</time></trkpt><trkpt lat="33.562135" lon="9.5382117"><ele>141.0</ele><time>2026-04-04T21:38:36.282Z</time></trkpt><trkpt lat="33.561905" lon="9.5380917"><ele>141.0</ele><time>2026-04-04T21:38:37.283Z</time></trkpt><trkpt lat="33.561675" lon="9.5379717"><ele>141.0</ele><time>2026-04-04T21:38:38.282Z</time></trkpt><trkpt lat="33.56144" lon="9.537855"><ele>141.0</ele><time>2026-04-04T21:38:39.282Z</time></trkpt><trkpt lat="33.5611967" lon="9.5377417"><ele>141.0</ele><time>2026-04-04T21:38:40.282Z</time></trkpt><trkpt lat="33.5609467" lon="9.5376367"><ele>141.0</ele><time>2026-04-04T21:38:41.283Z</time></trkpt><trkpt lat="33.5606917" lon="9.5375417"><ele>141.0</ele><time>2026-04-04T21:38:42.284Z</time></trkpt><trkpt lat="33.5604317" lon="9.5374533"><ele>141.0</ele><time>2026-04-04T21:38:43.282Z</time></trkpt><trkpt lat="33.5601683" lon="9.5373717"><ele>141.0</ele><time>2026-04-04T21:38:44.281Z</time></trkpt><trkpt lat="33.5599017" lon="9.5373"><ele>141.0</ele><time>2026-04-04T21:38:45.283Z</time></trkpt><trkpt lat="33.5596317" lon="9.5372383"><ele>141.0</ele><time>2026-04-04T21:38:46.282Z</time></trkpt><trkpt lat="33.5593583" lon="9.537185"><ele>141.0</ele><time>2026-04-04T21:38:47.282Z</time></trkpt><trkpt lat="33.5590867" lon="9.5371367"><ele>141.0</ele><time>2026-04-04T21:38:48.282Z</time></trkpt><trkpt lat="33.558815" lon="9.5371"><ele>141.0</ele><time>2026-04-04T21:38:49.282Z</time></trkpt><trkpt lat="33.558545" lon="9.5370717"><ele>141.0</ele><time>2026-04-04T21:38:50.283Z</time></trkpt><trkpt lat="33.5582733" lon="9.5370517"><ele>141.0</ele><time>2026-04-04T21:38:51.283Z</time></trkpt><trkpt lat="33.558" lon="9.537035"><ele>141.0</ele><time>2026-04-04T21:38:52.283Z</time></trkpt><trkpt lat="33.557725" lon="9.5370217"><ele>140.0</ele><time>2026-04-04T21:38:53.282Z</time></trkpt><trkpt lat="33.55745" lon="9.53701"><ele>139.0</ele><time>2026-04-04T21:38:54.282Z</time></trkpt><trkpt lat="33.557175" lon="9.536995"><ele>139.5</ele><time>2026-04-04T21:38:55.282Z</time></trkpt><trkpt lat="33.5568983" lon="9.5369767"><ele>140.0</ele><time>2026-04-04T21:38:56.283Z</time></trkpt><trkpt lat="33.5566217" lon="9.5369567"><ele>140.0</ele><time>2026-04-04T21:38:57.282Z</time></trkpt><trkpt lat="33.5563467" lon="9.5369267"><ele>140.0</ele><time>2026-04-04T21:38:58.283Z</time></trkpt><trkpt lat="33.55607" lon="9.5368917"><ele>138.5</ele><time>2026-04-04T21:38:59.282Z</time></trkpt><trkpt lat="33.555795" lon="9.536845"><ele>137.0</ele><time>2026-04-04T21:39:00.282Z</time></trkpt><trkpt lat="33.55552" lon="9.5367933"><ele>135.0</ele><time>2026-04-04T21:39:01.283Z</time></trkpt><trkpt lat="33.555245" lon="9.5367367"><ele>133.0</ele><time>2026-04-04T21:39:02.282Z</time></trkpt><trkpt lat="33.5549733" lon="9.53667"><ele>133.0</ele><time>2026-04-04T21:39:03.284Z</time></trkpt><trkpt lat="33.5547083" lon="9.536595"><ele>133.0</ele><time>2026-04-04T21:39:04.283Z</time></trkpt><trkpt lat="33.55445" lon="9.536515"><ele>133.5</ele><time>2026-04-04T21:39:05.282Z</time></trkpt><trkpt lat="33.5541983" lon="9.5364283"><ele>134.0</ele><time>2026-04-04T21:39:06.282Z</time></trkpt><trkpt lat="33.55395" lon="9.53634"><ele>134.0</ele><time>2026-04-04T21:39:07.283Z</time></trkpt><trkpt lat="33.5537033" lon="9.5362483"><ele>134.0</ele><time>2026-04-04T21:39:08.283Z</time></trkpt><trkpt lat="33.55346" lon="9.5361567"><ele>134.5</ele><time>2026-04-04T21:39:09.282Z</time></trkpt><trkpt lat="33.5532167" lon="9.536065"><ele>135.0</ele><time>2026-04-04T21:39:10.283Z</time></trkpt><trkpt lat="33.552975" lon="9.5359717"><ele>136.5</ele><time>2026-04-04T21:39:11.282Z</time></trkpt><trkpt lat="33.55273" lon="9.5358883"><ele>138.0</ele><time>2026-04-04T21:39:12.284Z</time></trkpt><trkpt lat="33.55248" lon="9.5358167"><ele>138.0</ele><time>2026-04-04T21:39:13.283Z</time></trkpt><trkpt lat="33.5522217" lon="9.5357683"><ele>138.0</ele><time>2026-04-04T21:39:14.282Z</time></trkpt><trkpt lat="33.5519533" lon="9.5357383"><ele>137.5</ele><time>2026-04-04T21:39:15.285Z</time></trkpt><trkpt lat="33.5516833" lon="9.5357217"><ele>137.0</ele><time>2026-04-04T21:39:16.285Z</time></trkpt><trkpt lat="33.55142" lon="9.53571"><ele>137.5</ele><time>2026-04-04T21:39:17.285Z</time></trkpt><trkpt lat="33.5511633" lon="9.5357"><ele>138.0</ele><time>2026-04-04T21:39:18.286Z</time></trkpt><trkpt lat="33.550905" lon="9.53569"><ele>138.0</ele><time>2026-04-04T21:39:19.285Z</time></trkpt><trkpt lat="33.550645" lon="9.5356817"><ele>138.0</ele><time>2026-04-04T21:39:20.285Z</time></trkpt><trkpt lat="33.550385" lon="9.5356717"><ele>136.5</ele><time>2026-04-04T21:39:21.285Z</time></trkpt><trkpt lat="33.5501217" lon="9.5356617"><ele>135.0</ele><time>2026-04-04T21:39:22.285Z</time></trkpt><trkpt lat="33.549865" lon="9.5356533"><ele>135.0</ele><time>2026-04-04T21:39:23.285Z</time></trkpt><trkpt lat="33.5496217" lon="9.5356467"><ele>135.0</ele><time>2026-04-04T21:39:24.285Z</time></trkpt><trkpt lat="33.5493867" lon="9.5356417"><ele>135.0</ele><time>2026-04-04T21:39:25.285Z</time></trkpt><trkpt lat="33.5491517" lon="9.5356317"><ele>135.0</ele><time>2026-04-04T21:39:26.285Z</time></trkpt><trkpt lat="33.5489183" lon="9.5356183"><ele>135.0</ele><time>2026-04-04T21:39:27.283Z</time></trkpt><trkpt lat="33.54868" lon="9.535605"><ele>135.0</ele><time>2026-04-04T21:39:28.285Z</time></trkpt><trkpt lat="33.54844" lon="9.5355833"><ele>135.0</ele><time>2026-04-04T21:39:29.285Z</time></trkpt><trkpt lat="33.5481917" lon="9.5355567"><ele>135.0</ele><time>2026-04-04T21:39:30.285Z</time></trkpt><trkpt lat="33.5479417" lon="9.5355267"><ele>135.0</ele><time>2026-04-04T21:39:31.283Z</time></trkpt><trkpt lat="33.5476917" lon="9.5354883"><ele>135.0</ele><time>2026-04-04T21:39:32.285Z</time></trkpt><trkpt lat="33.5474383" lon="9.535445"><ele>135.0</ele><time>2026-04-04T21:39:33.282Z</time></trkpt><trkpt lat="33.5471833" lon="9.5353917"><ele>135.0</ele><time>2026-04-04T21:39:34.282Z</time></trkpt><trkpt lat="33.5469267" lon="9.5353333"><ele>134.5</ele><time>2026-04-04T21:39:35.282Z</time></trkpt><trkpt lat="33.546665" lon="9.53527"><ele>134.0</ele><time>2026-04-04T21:39:36.282Z</time></trkpt><trkpt lat="33.546405" lon="9.5351983"><ele>134.5</ele><time>2026-04-04T21:39:37.283Z</time></trkpt><trkpt lat="33.546145" lon="9.5351167"><ele>135.0</ele><time>2026-04-04T21:39:38.282Z</time></trkpt><trkpt lat="33.54589" lon="9.5350283"><ele>135.0</ele><time>2026-04-04T21:39:39.282Z</time></trkpt><trkpt lat="33.5456333" lon="9.534935"><ele>135.0</ele><time>2026-04-04T21:39:40.285Z</time></trkpt><trkpt lat="33.5453783" lon="9.5348383"><ele>135.5</ele><time>2026-04-04T21:39:41.288Z</time></trkpt><trkpt lat="33.545125" lon="9.5347367"><ele>136.0</ele><time>2026-04-04T21:39:42.285Z</time></trkpt><trkpt lat="33.5448733" lon="9.534625"><ele>136.0</ele><time>2026-04-04T21:39:43.285Z</time></trkpt><trkpt lat="33.544625" lon="9.5345033"><ele>136.0</ele><time>2026-04-04T21:39:44.282Z</time></trkpt><trkpt lat="33.5443783" lon="9.53437"><ele>136.5</ele><time>2026-04-04T21:39:45.285Z</time></trkpt><trkpt lat="33.5441317" lon="9.53423"><ele>137.0</ele><time>2026-04-04T21:39:46.285Z</time></trkpt><trkpt lat="33.54389" lon="9.534085"><ele>138.0</ele><time>2026-04-04T21:39:47.285Z</time></trkpt><trkpt lat="33.54365" lon="9.5339333"><ele>139.0</ele><time>2026-04-04T21:39:48.284Z</time></trkpt><trkpt lat="33.5434117" lon="9.5337767"><ele>138.5</ele><time>2026-04-04T21:39:49.285Z</time></trkpt><trkpt lat="33.5431767" lon="9.53361"><ele>138.0</ele><time>2026-04-04T21:39:50.286Z</time></trkpt><trkpt lat="33.5429467" lon="9.5334383"><ele>140.0</ele><time>2026-04-04T21:39:51.285Z</time></trkpt><trkpt lat="33.5427183" lon="9.53326"><ele>142.0</ele><time>2026-04-04T21:39:52.282Z</time></trkpt><trkpt lat="33.5424917" lon="9.5330717"><ele>140.5</ele><time>2026-04-04T21:39:53.282Z</time></trkpt><trkpt lat="33.5422683" lon="9.532875"><ele>139.0</ele><time>2026-04-04T21:39:54.282Z</time></trkpt><trkpt lat="33.54205" lon="9.53267"><ele>140.0</ele><time>2026-04-04T21:39:55.282Z</time></trkpt><trkpt lat="33.5418333" lon="9.532465"><ele>141.0</ele><time>2026-04-04T21:39:56.286Z</time></trkpt><trkpt lat="33.5416283" lon="9.5322567"><ele>141.5</ele><time>2026-04-04T21:39:57.282Z</time></trkpt><trkpt lat="33.5414317" lon="9.5320467"><ele>142.0</ele><time>2026-04-04T21:39:58.285Z</time></trkpt><trkpt lat="33.54124" lon="9.531835"><ele>142.0</ele><time>2026-04-04T21:39:59.286Z</time></trkpt><trkpt lat="33.541055" lon="9.53162"><ele>142.0</ele><time>2026-04-04T21:40:00.282Z</time></trkpt><trkpt lat="33.540875" lon="9.5314033"><ele>142.0</ele><time>2026-04-04T21:40:01.287Z</time></trkpt><trkpt lat="33.5406983" lon="9.5311833"><ele>142.0</ele><time>2026-04-04T21:40:02.286Z</time></trkpt><trkpt lat="33.5405233" lon="9.5309567"><ele>142.5</ele><time>2026-04-04T21:40:03.282Z</time></trkpt><trkpt lat="33.54035" lon="9.5307267"><ele>143.0</ele><time>2026-04-04T21:40:04.282Z</time></trkpt><trkpt lat="33.54018" lon="9.5304883"><ele>143.0</ele><time>2026-04-04T21:40:05.284Z</time></trkpt><trkpt lat="33.5400117" lon="9.5302467"><ele>143.0</ele><time>2026-04-04T21:40:06.282Z</time></trkpt><trkpt lat="33.53985" lon="9.529995"><ele>143.0</ele><time>2026-04-04T21:40:07.282Z</time></trkpt><trkpt lat="33.539695" lon="9.529735"><ele>143.0</ele><time>2026-04-04T21:40:08.284Z</time></trkpt><trkpt lat="33.5395417" lon="9.52947"><ele>144.5</ele><time>2026-04-04T21:40:09.282Z</time></trkpt><trkpt lat="33.5393933" lon="9.5292017"><ele>146.0</ele><time>2026-04-04T21:40:10.283Z</time></trkpt><trkpt lat="33.53925" lon="9.5289317"><ele>146.0</ele><time>2026-04-04T21:40:11.286Z</time></trkpt><trkpt lat="33.5391133" lon="9.52866"><ele>146.0</ele><time>2026-04-04T21:40:12.283Z</time></trkpt><trkpt lat="33.5389833" lon="9.5283833"><ele>146.0</ele><time>2026-04-04T21:40:13.286Z</time></trkpt><trkpt lat="33.5388583" lon="9.5281033"><ele>146.0</ele><time>2026-04-04T21:40:14.285Z</time></trkpt><trkpt lat="33.53874" lon="9.5278217"><ele>146.5</ele><time>2026-04-04T21:40:15.286Z</time></trkpt><trkpt lat="33.5386233" lon="9.527535"><ele>147.0</ele><time>2026-04-04T21:40:16.283Z</time></trkpt><trkpt lat="33.5385067" lon="9.52725"><ele>147.5</ele><time>2026-04-04T21:40:17.286Z</time></trkpt><trkpt lat="33.5383867" lon="9.5269667"><ele>148.0</ele><time>2026-04-04T21:40:18.285Z</time></trkpt><trkpt lat="33.5382683" lon="9.5266817"><ele>148.0</ele><time>2026-04-04T21:40:19.285Z</time></trkpt><trkpt lat="33.5381483" lon="9.5264"><ele>148.0</ele><time>2026-04-04T21:40:20.285Z</time></trkpt><trkpt lat="33.53803" lon="9.5261183"><ele>148.5</ele><time>2026-04-04T21:40:21.284Z</time></trkpt><trkpt lat="33.5379167" lon="9.5258433"><ele>149.0</ele><time>2026-04-04T21:40:22.286Z</time></trkpt><trkpt lat="33.5378083" lon="9.5255783"><ele>149.5</ele><time>2026-04-04T21:40:23.285Z</time></trkpt><trkpt lat="33.5377017" lon="9.52532"><ele>150.0</ele><time>2026-04-04T21:40:24.285Z</time></trkpt><trkpt lat="33.537595" lon="9.5250617"><ele>150.0</ele><time>2026-04-04T21:40:25.286Z</time></trkpt><trkpt lat="33.5374883" lon="9.5248033"><ele>150.0</ele><time>2026-04-04T21:40:26.285Z</time></trkpt><trkpt lat="33.5373817" lon="9.5245433"><ele>150.5</ele><time>2026-04-04T21:40:27.286Z</time></trkpt><trkpt lat="33.537275" lon="9.5242833"><ele>151.0</ele><time>2026-04-04T21:40:28.285Z</time></trkpt><trkpt lat="33.5371683" lon="9.5240217"><ele>151.0</ele><time>2026-04-04T21:40:29.286Z</time></trkpt><trkpt lat="33.53706" lon="9.52376"><ele>151.0</ele><time>2026-04-04T21:40:30.285Z</time></trkpt><trkpt lat="33.53695" lon="9.523495"><ele>149.5</ele><time>2026-04-04T21:40:31.285Z</time></trkpt><trkpt lat="33.5368367" lon="9.5232267"><ele>148.0</ele><time>2026-04-04T21:40:32.285Z</time></trkpt><trkpt lat="33.5367267" lon="9.5229583"><ele>147.0</ele><time>2026-04-04T21:40:33.286Z</time></trkpt><trkpt lat="33.536615" lon="9.5226867"><ele>146.0</ele><time>2026-04-04T21:40:34.285Z</time></trkpt><trkpt lat="33.5365" lon="9.5224133"><ele>146.0</ele><time>2026-04-04T21:40:35.285Z</time></trkpt><trkpt lat="33.5363833" lon="9.5221367"><ele>146.0</ele><time>2026-04-04T21:40:36.286Z</time></trkpt><trkpt lat="33.5362667" lon="9.5218583"><ele>147.0</ele><time>2026-04-04T21:40:37.285Z</time></trkpt><trkpt lat="33.536155" lon="9.5215783"><ele>148.0</ele><time>2026-04-04T21:40:38.286Z</time></trkpt><trkpt lat="33.536045" lon="9.5212983"><ele>147.0</ele><time>2026-04-04T21:40:39.285Z</time></trkpt><trkpt lat="33.53593" lon="9.5210167"><ele>146.0</ele><time>2026-04-04T21:40:40.285Z</time></trkpt><trkpt lat="33.5358117" lon="9.5207333"><ele>146.0</ele><time>2026-04-04T21:40:41.285Z</time></trkpt><trkpt lat="33.5356917" lon="9.5204467"><ele>146.0</ele><time>2026-04-04T21:40:42.284Z</time></trkpt><trkpt lat="33.53557" lon="9.52016"><ele>145.0</ele><time>2026-04-04T21:40:43.285Z</time></trkpt><trkpt lat="33.5354483" lon="9.5198717"><ele>144.0</ele><time>2026-04-04T21:40:44.284Z</time></trkpt><trkpt lat="33.5353267" lon="9.5195817"><ele>142.0</ele><time>2026-04-04T21:40:45.284Z</time></trkpt><trkpt lat="33.5352067" lon="9.5192917"><ele>140.0</ele><time>2026-04-04T21:40:46.285Z</time></trkpt><trkpt lat="33.535085" lon="9.5189983"><ele>138.5</ele><time>2026-04-04T21:40:47.288Z</time></trkpt><trkpt lat="33.5349617" lon="9.5187033"><ele>137.0</ele><time>2026-04-04T21:40:48.284Z</time></trkpt><trkpt lat="33.5348383" lon="9.518405"><ele>137.0</ele><time>2026-04-04T21:40:49.284Z</time></trkpt><trkpt lat="33.534715" lon="9.5181033"><ele>137.0</ele><time>2026-04-04T21:40:50.285Z</time></trkpt><trkpt lat="33.53459" lon="9.5178017"><ele>136.5</ele><time>2026-04-04T21:40:51.285Z</time></trkpt><trkpt lat="33.5344617" lon="9.5175017"><ele>136.0</ele><time>2026-04-04T21:40:52.284Z</time></trkpt><trkpt lat="33.5343333" lon="9.5172"><ele>135.0</ele><time>2026-04-04T21:40:53.285Z</time></trkpt><trkpt lat="33.5342067" lon="9.516895"><ele>134.0</ele><time>2026-04-04T21:40:54.284Z</time></trkpt><trkpt lat="33.5340817" lon="9.5165883"><ele>134.0</ele><time>2026-04-04T21:40:55.285Z</time></trkpt><trkpt lat="33.5339567" lon="9.5162833"><ele>134.0</ele><time>2026-04-04T21:40:56.284Z</time></trkpt><trkpt lat="33.5338367" lon="9.5159833"><ele>134.5</ele><time>2026-04-04T21:40:57.284Z</time></trkpt><trkpt lat="33.533715" lon="9.5156867"><ele>135.0</ele><time>2026-04-04T21:40:58.285Z</time></trkpt><trkpt lat="33.533595" lon="9.5153967"><ele>135.0</ele><time>2026-04-04T21:40:59.285Z</time></trkpt><trkpt lat="33.5334783" lon="9.515115"><ele>135.0</ele><time>2026-04-04T21:41:00.284Z</time></trkpt><trkpt lat="33.5333633" lon="9.5148367"><ele>134.0</ele><time>2026-04-04T21:41:01.285Z</time></trkpt><trkpt lat="33.5332483" lon="9.5145633"><ele>133.0</ele><time>2026-04-04T21:41:02.284Z</time></trkpt><trkpt lat="33.5331317" lon="9.51429"><ele>133.0</ele><time>2026-04-04T21:41:03.287Z</time></trkpt><trkpt lat="33.5330183" lon="9.5140133"><ele>133.0</ele><time>2026-04-04T21:41:04.284Z</time></trkpt><trkpt lat="33.5328983" lon="9.5137333"><ele>132.0</ele><time>2026-04-04T21:41:05.284Z</time></trkpt><trkpt lat="33.5327817" lon="9.5134533"><ele>131.0</ele><time>2026-04-04T21:41:06.284Z</time></trkpt><trkpt lat="33.532665" lon="9.5131683"><ele>130.5</ele><time>2026-04-04T21:41:07.285Z</time></trkpt><trkpt lat="33.5325483" lon="9.5128817"><ele>130.0</ele><time>2026-04-04T21:41:08.286Z</time></trkpt><trkpt lat="33.5324283" lon="9.5125917"><ele>130.0</ele><time>2026-04-04T21:41:09.284Z</time></trkpt><trkpt lat="33.5323083" lon="9.5123"><ele>130.0</ele><time>2026-04-04T21:41:10.284Z</time></trkpt><trkpt lat="33.532185" lon="9.5120067"><ele>130.0</ele><time>2026-04-04T21:41:11.284Z</time></trkpt><trkpt lat="33.5320583" lon="9.51171"><ele>130.0</ele><time>2026-04-04T21:41:12.285Z</time></trkpt><trkpt lat="33.5319317" lon="9.5114067"><ele>130.0</ele><time>2026-04-04T21:41:13.284Z</time></trkpt><trkpt lat="33.5318033" lon="9.511095"><ele>130.0</ele><time>2026-04-04T21:41:14.284Z</time></trkpt><trkpt lat="33.5316783" lon="9.510795"><ele>130.0</ele><time>2026-04-04T21:41:15.284Z</time></trkpt><trkpt lat="33.53156" lon="9.51051"><ele>130.0</ele><time>2026-04-04T21:41:16.285Z</time></trkpt><trkpt lat="33.5314467" lon="9.5102383"><ele>129.0</ele><time>2026-04-04T21:41:17.285Z</time></trkpt><trkpt lat="33.5313383" lon="9.50998"><ele>128.0</ele><time>2026-04-04T21:41:18.284Z</time></trkpt><trkpt lat="33.5312283" lon="9.5097233"><ele>128.0</ele><time>2026-04-04T21:41:19.284Z</time></trkpt><trkpt lat="33.531115" lon="9.5094533"><ele>128.0</ele><time>2026-04-04T21:41:20.284Z</time></trkpt><trkpt lat="33.5309967" lon="9.5091717"><ele>128.0</ele><time>2026-04-04T21:41:21.284Z</time></trkpt><trkpt lat="33.5308733" lon="9.5088783"><ele>128.0</ele><time>2026-04-04T21:41:22.285Z</time></trkpt><trkpt lat="33.530755" lon="9.5085833"><ele>127.5</ele><time>2026-04-04T21:41:23.284Z</time></trkpt><trkpt lat="33.5306383" lon="9.5082917"><ele>127.0</ele><time>2026-04-04T21:41:24.284Z</time></trkpt><trkpt lat="33.530525" lon="9.50801"><ele>126.5</ele><time>2026-04-04T21:41:25.287Z</time></trkpt><trkpt lat="33.5304117" lon="9.507735"><ele>126.0</ele><time>2026-04-04T21:41:26.284Z</time></trkpt><trkpt lat="33.5303" lon="9.507455"><ele>126.0</ele><time>2026-04-04T21:41:27.285Z</time></trkpt><trkpt lat="33.5301833" lon="9.50717"><ele>126.0</ele><time>2026-04-04T21:41:28.284Z</time></trkpt><trkpt lat="33.530065" lon="9.5068817"><ele>125.0</ele><time>2026-04-04T21:41:29.284Z</time></trkpt><trkpt lat="33.5299433" lon="9.5065917"><ele>124.0</ele><time>2026-04-04T21:41:30.285Z</time></trkpt><trkpt lat="33.5298217" lon="9.5063067"><ele>123.0</ele><time>2026-04-04T21:41:31.285Z</time></trkpt><trkpt lat="33.5297067" lon="9.506035"><ele>122.0</ele><time>2026-04-04T21:41:32.284Z</time></trkpt><trkpt lat="33.529605" lon="9.5057883"><ele>121.66666666666666</ele><time>2026-04-04T21:41:33.284Z</time></trkpt><trkpt lat="33.5295133" lon="9.505575"><ele>121.33333333333334</ele><time>2026-04-04T21:41:34.284Z</time></trkpt><trkpt lat="33.529435" lon="9.5053883"><ele>121.0</ele><time>2026-04-04T21:41:35.284Z</time></trkpt><trkpt lat="33.5293633" lon="9.5052217"><ele>121.0</ele><time>2026-04-04T21:41:36.284Z</time></trkpt><trkpt lat="33.5292967" lon="9.5050667"><ele>121.0</ele><time>2026-04-04T21:41:37.284Z</time></trkpt><trkpt lat="33.52923" lon="9.504915"><ele>121.0</ele><time>2026-04-04T21:41:38.282Z</time></trkpt><trkpt lat="33.529165" lon="9.5047583"><ele>121.0</ele><time>2026-04-04T21:41:39.283Z</time></trkpt><trkpt lat="33.529095" lon="9.504595"><ele>121.0</ele><time>2026-04-04T21:41:40.286Z</time></trkpt><trkpt lat="33.5290217" lon="9.504425"><ele>121.0</ele><time>2026-04-04T21:41:41.282Z</time></trkpt><trkpt lat="33.528945" lon="9.5042483"><ele>121.0</ele><time>2026-04-04T21:41:42.284Z</time></trkpt><trkpt lat="33.5288733" lon="9.504065"><ele>121.0</ele><time>2026-04-04T21:41:43.282Z</time></trkpt><trkpt lat="33.5287967" lon="9.5038783"><ele>121.0</ele><time>2026-04-04T21:41:44.285Z</time></trkpt><trkpt lat="33.5287183" lon="9.5036883"><ele>121.0</ele><time>2026-04-04T21:41:45.281Z</time></trkpt><trkpt lat="33.5286417" lon="9.5034933"><ele>121.0</ele><time>2026-04-04T21:41:46.284Z</time></trkpt><trkpt lat="33.52856" lon="9.50329"><ele>121.0</ele><time>2026-04-04T21:41:47.284Z</time></trkpt><trkpt lat="33.5284717" lon="9.5030733"><ele>121.0</ele><time>2026-04-04T21:41:48.284Z</time></trkpt><trkpt lat="33.5283783" lon="9.5028433"><ele>121.33333333333334</ele><time>2026-04-04T21:41:49.285Z</time></trkpt><trkpt lat="33.5282833" lon="9.5026117"><ele>121.66666666666666</ele><time>2026-04-04T21:41:50.284Z</time></trkpt><trkpt lat="33.5281883" lon="9.502385"><ele>122.0</ele><time>2026-04-04T21:41:51.286Z</time></trkpt><trkpt lat="33.528095" lon="9.50217"><ele>122.0</ele><time>2026-04-04T21:41:52.286Z</time></trkpt><trkpt lat="33.5280067" lon="9.5019667"><ele>122.0</ele><time>2026-04-04T21:41:53.285Z</time></trkpt><trkpt lat="33.52792" lon="9.50177"><ele>122.0</ele><time>2026-04-04T21:41:54.286Z</time></trkpt><trkpt lat="33.527835" lon="9.50157"><ele>121.33333333333333</ele><time>2026-04-04T21:41:55.285Z</time></trkpt><trkpt lat="33.52775" lon="9.5013683"><ele>120.66666666666666</ele><time>2026-04-04T21:41:56.285Z</time></trkpt><trkpt lat="33.52767" lon="9.50117"><ele>120.0</ele><time>2026-04-04T21:41:57.285Z</time></trkpt><trkpt lat="33.5275933" lon="9.5009767"><ele>120.0</ele><time>2026-04-04T21:41:58.285Z</time></trkpt><trkpt lat="33.527515" lon="9.5007867"><ele>120.0</ele><time>2026-04-04T21:41:59.285Z</time></trkpt><trkpt lat="33.5274383" lon="9.5005983"><ele>120.0</ele><time>2026-04-04T21:42:00.285Z</time></trkpt><trkpt lat="33.52736" lon="9.5004067"><ele>120.0</ele><time>2026-04-04T21:42:01.285Z</time></trkpt><trkpt lat="33.5272833" lon="9.5002133"><ele>120.0</ele><time>2026-04-04T21:42:02.285Z</time></trkpt><trkpt lat="33.527205" lon="9.5000183"><ele>120.0</ele><time>2026-04-04T21:42:03.285Z</time></trkpt><trkpt lat="33.527125" lon="9.499825"><ele>120.0</ele><time>2026-04-04T21:42:04.285Z</time></trkpt><trkpt lat="33.527045" lon="9.49963"><ele>120.0</ele><time>2026-04-04T21:42:05.285Z</time></trkpt><trkpt lat="33.5269633" lon="9.499435"><ele>120.0</ele><time>2026-04-04T21:42:06.286Z</time></trkpt><trkpt lat="33.5268767" lon="9.4992317"><ele>120.66666666666666</ele><time>2026-04-04T21:42:07.285Z</time></trkpt><trkpt lat="33.5267833" lon="9.499025"><ele>121.33333333333333</ele><time>2026-04-04T21:42:08.281Z</time></trkpt><trkpt lat="33.5266883" lon="9.498815"><ele>122.0</ele><time>2026-04-04T21:42:09.285Z</time></trkpt><trkpt lat="33.5265883" lon="9.4986033"><ele>122.33333333333333</ele><time>2026-04-04T21:42:10.285Z</time></trkpt><trkpt lat="33.526485" lon="9.4983917"><ele>122.66666666666666</ele><time>2026-04-04T21:42:11.285Z</time></trkpt><trkpt lat="33.5263767" lon="9.49818"><ele>123.0</ele><time>2026-04-04T21:42:12.285Z</time></trkpt><trkpt lat="33.5262683" lon="9.4979667"><ele>122.66666666666666</ele><time>2026-04-04T21:42:13.286Z</time></trkpt><trkpt lat="33.5261583" lon="9.497755"><ele>122.33333333333333</ele><time>2026-04-04T21:42:14.285Z</time></trkpt><trkpt lat="33.526045" lon="9.4975417"><ele>122.0</ele><time>2026-04-04T21:42:15.284Z</time></trkpt><trkpt lat="33.5259267" lon="9.4973267"><ele>122.0</ele><time>2026-04-04T21:42:16.282Z</time></trkpt><trkpt lat="33.5258033" lon="9.49711"><ele>122.0</ele><time>2026-04-04T21:42:17.286Z</time></trkpt><trkpt lat="33.5256733" lon="9.4968917"><ele>122.0</ele><time>2026-04-04T21:42:18.286Z</time></trkpt><trkpt lat="33.5255433" lon="9.4966683"><ele>122.0</ele><time>2026-04-04T21:42:19.286Z</time></trkpt><trkpt lat="33.5254083" lon="9.496445"><ele>122.0</ele><time>2026-04-04T21:42:20.285Z</time></trkpt><trkpt lat="33.52527" lon="9.49622"><ele>122.0</ele><time>2026-04-04T21:42:21.285Z</time></trkpt><trkpt lat="33.52513" lon="9.49599"><ele>122.0</ele><time>2026-04-04T21:42:22.282Z</time></trkpt><trkpt lat="33.52499" lon="9.495755"><ele>122.0</ele><time>2026-04-04T21:42:23.285Z</time></trkpt><trkpt lat="33.52484" lon="9.49551"><ele>122.0</ele><time>2026-04-04T21:42:24.285Z</time></trkpt><trkpt lat="33.524685" lon="9.4952567"><ele>122.0</ele><time>2026-04-04T21:42:25.285Z</time></trkpt><trkpt lat="33.524525" lon="9.4949983"><ele>122.0</ele><time>2026-04-04T21:42:26.285Z</time></trkpt><trkpt lat="33.524365" lon="9.49474"><ele>123.5</ele><time>2026-04-04T21:42:27.285Z</time></trkpt><trkpt lat="33.5242033" lon="9.4944783"><ele>125.0</ele><time>2026-04-04T21:42:28.283Z</time></trkpt><trkpt lat="33.5240417" lon="9.4942167"><ele>125.0</ele><time>2026-04-04T21:42:29.283Z</time></trkpt><trkpt lat="33.52388" lon="9.493955"><ele>125.0</ele><time>2026-04-04T21:42:30.283Z</time></trkpt><trkpt lat="33.52372" lon="9.49369"><ele>125.5</ele><time>2026-04-04T21:42:31.284Z</time></trkpt><trkpt lat="33.5235567" lon="9.493425"><ele>126.0</ele><time>2026-04-04T21:42:32.283Z</time></trkpt><trkpt lat="33.523395" lon="9.49316"><ele>125.5</ele><time>2026-04-04T21:42:33.282Z</time></trkpt><trkpt lat="33.523235" lon="9.4928967"><ele>125.0</ele><time>2026-04-04T21:42:34.284Z</time></trkpt><trkpt lat="33.5230767" lon="9.49263"><ele>125.0</ele><time>2026-04-04T21:42:35.282Z</time></trkpt><trkpt lat="33.5229183" lon="9.492365"><ele>125.0</ele><time>2026-04-04T21:42:36.284Z</time></trkpt><trkpt lat="33.52276" lon="9.4920983"><ele>126.0</ele><time>2026-04-04T21:42:37.285Z</time></trkpt><trkpt lat="33.5225983" lon="9.4918317"><ele>127.0</ele><time>2026-04-04T21:42:38.284Z</time></trkpt><trkpt lat="33.5224367" lon="9.491565"><ele>127.0</ele><time>2026-04-04T21:42:39.283Z</time></trkpt><trkpt lat="33.5222733" lon="9.4912933"><ele>127.0</ele><time>2026-04-04T21:42:40.283Z</time></trkpt><trkpt lat="33.522105" lon="9.4910183"><ele>124.5</ele><time>2026-04-04T21:42:41.285Z</time></trkpt><trkpt lat="33.5219317" lon="9.49074"><ele>122.0</ele><time>2026-04-04T21:42:42.282Z</time></trkpt><trkpt lat="33.5217567" lon="9.490455"><ele>123.0</ele><time>2026-04-04T21:42:43.283Z</time></trkpt><trkpt lat="33.52158" lon="9.4901633"><ele>124.0</ele><time>2026-04-04T21:42:44.283Z</time></trkpt><trkpt lat="33.5214" lon="9.489865"><ele>124.0</ele><time>2026-04-04T21:42:45.285Z</time></trkpt><trkpt lat="33.521215" lon="9.489565"><ele>124.0</ele><time>2026-04-04T21:42:46.285Z</time></trkpt><trkpt lat="33.5210317" lon="9.4892633"><ele>124.0</ele><time>2026-04-04T21:42:47.286Z</time></trkpt><trkpt lat="33.520845" lon="9.4889617"><ele>124.0</ele><time>2026-04-04T21:42:48.286Z</time></trkpt><trkpt lat="33.52066" lon="9.4886617"><ele>124.0</ele><time>2026-04-04T21:42:49.285Z</time></trkpt><trkpt lat="33.52048" lon="9.4883717"><ele>124.0</ele><time>2026-04-04T21:42:50.285Z</time></trkpt><trkpt lat="33.5203117" lon="9.4881"><ele>124.0</ele><time>2026-04-04T21:42:51.285Z</time></trkpt><trkpt lat="33.5201533" lon="9.487845"><ele>124.0</ele><time>2026-04-04T21:42:52.286Z</time></trkpt><trkpt lat="33.5200017" lon="9.4876"><ele>124.0</ele><time>2026-04-04T21:42:53.285Z</time></trkpt><trkpt lat="33.5198517" lon="9.4873533"><ele>124.0</ele><time>2026-04-04T21:42:54.288Z</time></trkpt><trkpt lat="33.5197" lon="9.4871017"><ele>124.0</ele><time>2026-04-04T21:42:55.285Z</time></trkpt><trkpt lat="33.519545" lon="9.486845"><ele>124.0</ele><time>2026-04-04T21:42:56.286Z</time></trkpt><trkpt lat="33.51939" lon="9.486585"><ele>124.0</ele><time>2026-04-04T21:42:57.286Z</time></trkpt><trkpt lat="33.51923" lon="9.4863233"><ele>124.0</ele><time>2026-04-04T21:42:58.285Z</time></trkpt><trkpt lat="33.5190683" lon="9.4860583"><ele>123.0</ele><time>2026-04-04T21:42:59.285Z</time></trkpt><trkpt lat="33.518905" lon="9.4857917"><ele>122.0</ele><time>2026-04-04T21:43:00.285Z</time></trkpt><trkpt lat="33.51874" lon="9.48552"><ele>122.5</ele><time>2026-04-04T21:43:01.283Z</time></trkpt><trkpt lat="33.5185683" lon="9.4852383"><ele>123.0</ele><time>2026-04-04T21:43:02.286Z</time></trkpt><trkpt lat="33.51839" lon="9.48495"><ele>123.0</ele><time>2026-04-04T21:43:03.285Z</time></trkpt><trkpt lat="33.5182133" lon="9.4846633"><ele>123.0</ele><time>2026-04-04T21:43:04.285Z</time></trkpt><trkpt lat="33.5180417" lon="9.4843817"><ele>122.5</ele><time>2026-04-04T21:43:05.282Z</time></trkpt><trkpt lat="33.5178717" lon="9.484105"><ele>122.0</ele><time>2026-04-04T21:43:06.283Z</time></trkpt><trkpt lat="33.517705" lon="9.48383"><ele>122.5</ele><time>2026-04-04T21:43:07.283Z</time></trkpt><trkpt lat="33.517535" lon="9.4835533"><ele>123.0</ele><time>2026-04-04T21:43:08.285Z</time></trkpt><trkpt lat="33.517365" lon="9.483275"><ele>123.0</ele><time>2026-04-04T21:43:09.286Z</time></trkpt><trkpt lat="33.517195" lon="9.4829917"><ele>123.0</ele><time>2026-04-04T21:43:10.285Z</time></trkpt><trkpt lat="33.517025" lon="9.4827083"><ele>123.5</ele><time>2026-04-04T21:43:11.286Z</time></trkpt><trkpt lat="33.5168517" lon="9.4824233"><ele>124.0</ele><time>2026-04-04T21:43:12.285Z</time></trkpt><trkpt lat="33.51668" lon="9.4821417"><ele>125.5</ele><time>2026-04-04T21:43:13.285Z</time></trkpt><trkpt lat="33.5165083" lon="9.4818617"><ele>127.0</ele><time>2026-04-04T21:43:14.286Z</time></trkpt><trkpt lat="33.5163383" lon="9.481585"><ele>127.0</ele><time>2026-04-04T21:43:15.283Z</time></trkpt><trkpt lat="33.51617" lon="9.4813083"><ele>127.0</ele><time>2026-04-04T21:43:16.282Z</time></trkpt><trkpt lat="33.5160067" lon="9.48104"><ele>127.0</ele><time>2026-04-04T21:43:17.285Z</time></trkpt><trkpt lat="33.5158483" lon="9.4807817"><ele>127.0</ele><time>2026-04-04T21:43:18.285Z</time></trkpt><trkpt lat="33.515695" lon="9.48053"><ele>127.0</ele><time>2026-04-04T21:43:19.286Z</time></trkpt><trkpt lat="33.5155383" lon="9.480275"><ele>127.0</ele><time>2026-04-04T21:43:20.286Z</time></trkpt><trkpt lat="33.5153783" lon="9.480015"><ele>127.5</ele><time>2026-04-04T21:43:21.286Z</time></trkpt><trkpt lat="33.5152183" lon="9.4797517"><ele>128.0</ele><time>2026-04-04T21:43:22.285Z</time></trkpt><trkpt lat="33.515055" lon="9.4794867"><ele>128.0</ele><time>2026-04-04T21:43:23.285Z</time></trkpt><trkpt lat="33.51489" lon="9.4792183"><ele>128.0</ele><time>2026-04-04T21:43:24.286Z</time></trkpt><trkpt lat="33.514725" lon="9.4789483"><ele>128.5</ele><time>2026-04-04T21:43:25.285Z</time></trkpt><trkpt lat="33.5145617" lon="9.478675"><ele>129.0</ele><time>2026-04-04T21:43:26.283Z</time></trkpt><trkpt lat="33.5144033" lon="9.4784017"><ele>129.0</ele><time>2026-04-04T21:43:27.283Z</time></trkpt><trkpt lat="33.5142517" lon="9.4781233"><ele>129.0</ele><time>2026-04-04T21:43:28.282Z</time></trkpt><trkpt lat="33.514105" lon="9.4778433"><ele>129.5</ele><time>2026-04-04T21:43:29.285Z</time></trkpt><trkpt lat="33.5139617" lon="9.4775633"><ele>130.0</ele><time>2026-04-04T21:43:30.287Z</time></trkpt><trkpt lat="33.5138217" lon="9.4772833"><ele>129.5</ele><time>2026-04-04T21:43:31.285Z</time></trkpt><trkpt lat="33.51368" lon="9.4770033"><ele>129.0</ele><time>2026-04-04T21:43:32.286Z</time></trkpt><trkpt lat="33.5135367" lon="9.476725"><ele>129.0</ele><time>2026-04-04T21:43:33.286Z</time></trkpt><trkpt lat="33.5133917" lon="9.4764467"><ele>129.0</ele><time>2026-04-04T21:43:34.285Z</time></trkpt><trkpt lat="33.5132483" lon="9.4761633"><ele>130.0</ele><time>2026-04-04T21:43:35.285Z</time></trkpt><trkpt lat="33.513105" lon="9.4758767"><ele>131.0</ele><time>2026-04-04T21:43:36.286Z</time></trkpt><trkpt lat="33.5129617" lon="9.4755883"><ele>130.5</ele><time>2026-04-04T21:43:37.285Z</time></trkpt><trkpt lat="33.5128167" lon="9.4752967"><ele>130.0</ele><time>2026-04-04T21:43:38.285Z</time></trkpt><trkpt lat="33.5126683" lon="9.475005"><ele>130.0</ele><time>2026-04-04T21:43:39.286Z</time></trkpt><trkpt lat="33.51252" lon="9.4747133"><ele>130.0</ele><time>2026-04-04T21:43:40.285Z</time></trkpt><trkpt lat="33.5123717" lon="9.4744217"><ele>131.0</ele><time>2026-04-04T21:43:41.286Z</time></trkpt><trkpt lat="33.5122233" lon="9.4741317"><ele>132.0</ele><time>2026-04-04T21:43:42.285Z</time></trkpt><trkpt lat="33.5120783" lon="9.47385"><ele>132.0</ele><time>2026-04-04T21:43:43.285Z</time></trkpt><trkpt lat="33.51194" lon="9.4735817"><ele>132.0</ele><time>2026-04-04T21:43:44.285Z</time></trkpt><trkpt lat="33.5118067" lon="9.4733267"><ele>132.0</ele><time>2026-04-04T21:43:45.286Z</time></trkpt><trkpt lat="33.5116783" lon="9.4730783"><ele>132.0</ele><time>2026-04-04T21:43:46.286Z</time></trkpt><trkpt lat="33.51155" lon="9.4728233"><ele>131.5</ele><time>2026-04-04T21:43:47.285Z</time></trkpt><trkpt lat="33.51142" lon="9.472565"><ele>131.0</ele><time>2026-04-04T21:43:48.285Z</time></trkpt><trkpt lat="33.5112867" lon="9.472305"><ele>128.5</ele><time>2026-04-04T21:43:49.287Z</time></trkpt><trkpt lat="33.5111517" lon="9.4720417"><ele>126.0</ele><time>2026-04-04T21:43:50.287Z</time></trkpt><trkpt lat="33.5110133" lon="9.4717767"><ele>126.0</ele><time>2026-04-04T21:43:51.284Z</time></trkpt><trkpt lat="33.510875" lon="9.47151"><ele>126.0</ele><time>2026-04-04T21:43:52.284Z</time></trkpt><trkpt lat="33.5107333" lon="9.47124"><ele>125.5</ele><time>2026-04-04T21:43:53.284Z</time></trkpt><trkpt lat="33.51059" lon="9.4709617"><ele>125.0</ele><time>2026-04-04T21:43:54.285Z</time></trkpt><trkpt lat="33.5104467" lon="9.4706817"><ele>124.0</ele><time>2026-04-04T21:43:55.281Z</time></trkpt><trkpt lat="33.5103033" lon="9.4703983"><ele>123.0</ele><time>2026-04-04T21:43:56.284Z</time></trkpt><trkpt lat="33.5101583" lon="9.4701133"><ele>123.0</ele><time>2026-04-04T21:43:57.284Z</time></trkpt><trkpt lat="33.5100133" lon="9.4698317"><ele>123.0</ele><time>2026-04-04T21:43:58.284Z</time></trkpt><trkpt lat="33.5098717" lon="9.4695533"><ele>123.0</ele><time>2026-04-04T21:43:59.284Z</time></trkpt><trkpt lat="33.50973" lon="9.4692867"><ele>123.0</ele><time>2026-04-04T21:44:00.284Z</time></trkpt><trkpt lat="33.5096017" lon="9.4690317"><ele>123.0</ele><time>2026-04-04T21:44:01.281Z</time></trkpt><trkpt lat="33.5094767" lon="9.4687817"><ele>123.0</ele><time>2026-04-04T21:44:02.284Z</time></trkpt><trkpt lat="33.5093533" lon="9.468535"><ele>122.5</ele><time>2026-04-04T21:44:03.282Z</time></trkpt><trkpt lat="33.5092283" lon="9.4682867"><ele>122.0</ele><time>2026-04-04T21:44:04.282Z</time></trkpt><trkpt lat="33.5090983" lon="9.4680367"><ele>122.0</ele><time>2026-04-04T21:44:05.283Z</time></trkpt><trkpt lat="33.5089667" lon="9.46778"><ele>122.0</ele><time>2026-04-04T21:44:06.284Z</time></trkpt><trkpt lat="33.5088333" lon="9.4675183"><ele>122.0</ele><time>2026-04-04T21:44:07.284Z</time></trkpt><trkpt lat="33.5086983" lon="9.467255"><ele>122.0</ele><time>2026-04-04T21:44:08.282Z</time></trkpt><trkpt lat="33.5085633" lon="9.4669883"><ele>122.5</ele><time>2026-04-04T21:44:09.286Z</time></trkpt><trkpt lat="33.5084283" lon="9.46672"><ele>123.0</ele><time>2026-04-04T21:44:10.284Z</time></trkpt><trkpt lat="33.5082933" lon="9.46645"><ele>123.5</ele><time>2026-04-04T21:44:11.285Z</time></trkpt><trkpt lat="33.508155" lon="9.4661783"><ele>124.0</ele><time>2026-04-04T21:44:12.284Z</time></trkpt><trkpt lat="33.508015" lon="9.4659067"><ele>123.5</ele><time>2026-04-04T21:44:13.286Z</time></trkpt><trkpt lat="33.507875" lon="9.4656333"><ele>123.0</ele><time>2026-04-04T21:44:14.286Z</time></trkpt><trkpt lat="33.507735" lon="9.46536"><ele>123.0</ele><time>2026-04-04T21:44:15.285Z</time></trkpt><trkpt lat="33.507595" lon="9.4650867"><ele>123.0</ele><time>2026-04-04T21:44:16.287Z</time></trkpt><trkpt lat="33.5074517" lon="9.46481"><ele>124.0</ele><time>2026-04-04T21:44:17.284Z</time></trkpt><trkpt lat="33.5073117" lon="9.4645333"><ele>125.0</ele><time>2026-04-04T21:44:18.282Z</time></trkpt><trkpt lat="33.50717" lon="9.4642567"><ele>125.0</ele><time>2026-04-04T21:44:19.285Z</time></trkpt><trkpt lat="33.5070283" lon="9.4639783"><ele>125.0</ele><time>2026-04-04T21:44:20.285Z</time></trkpt><trkpt lat="33.506885" lon="9.4637"><ele>125.0</ele><time>2026-04-04T21:44:21.284Z</time></trkpt><trkpt lat="33.50674" lon="9.4634233"><ele>125.0</ele><time>2026-04-04T21:44:22.284Z</time></trkpt><trkpt lat="33.5065967" lon="9.46315"><ele>124.5</ele><time>2026-04-04T21:44:23.284Z</time></trkpt><trkpt lat="33.5064567" lon="9.4628767"><ele>124.0</ele><time>2026-04-04T21:44:24.284Z</time></trkpt><trkpt lat="33.506315" lon="9.4626033"><ele>124.0</ele><time>2026-04-04T21:44:25.286Z</time></trkpt><trkpt lat="33.5061733" lon="9.46233"><ele>124.0</ele><time>2026-04-04T21:44:26.284Z</time></trkpt><trkpt lat="33.5060283" lon="9.4620533"><ele>124.0</ele><time>2026-04-04T21:44:27.288Z</time></trkpt><trkpt lat="33.505885" lon="9.4617767"><ele>124.0</ele><time>2026-04-04T21:44:28.285Z</time></trkpt><trkpt lat="33.50574" lon="9.4614983"><ele>123.5</ele><time>2026-04-04T21:44:29.286Z</time></trkpt><trkpt lat="33.5055983" lon="9.4612183"><ele>123.0</ele><time>2026-04-04T21:44:30.284Z</time></trkpt><trkpt lat="33.505455" lon="9.4609367"><ele>123.0</ele><time>2026-04-04T21:44:31.285Z</time></trkpt><trkpt lat="33.5053133" lon="9.4606533"><ele>123.0</ele><time>2026-04-04T21:44:32.285Z</time></trkpt><trkpt lat="33.5051683" lon="9.46037"><ele>123.0</ele><time>2026-04-04T21:44:33.282Z</time></trkpt><trkpt lat="33.5050217" lon="9.4600883"><ele>123.0</ele><time>2026-04-04T21:44:34.283Z</time></trkpt><trkpt lat="33.5048833" lon="9.4598117"><ele>124.0</ele><time>2026-04-04T21:44:35.283Z</time></trkpt><trkpt lat="33.50475" lon="9.4595433"><ele>125.0</ele><time>2026-04-04T21:44:36.284Z</time></trkpt><trkpt lat="33.5046183" lon="9.4592833"><ele>124.5</ele><time>2026-04-04T21:44:37.283Z</time></trkpt><trkpt lat="33.50449" lon="9.459025"><ele>124.0</ele><time>2026-04-04T21:44:38.284Z</time></trkpt><trkpt lat="33.5043633" lon="9.4587733"><ele>123.0</ele><time>2026-04-04T21:44:39.284Z</time></trkpt><trkpt lat="33.5042367" lon="9.4585283"><ele>122.0</ele><time>2026-04-04T21:44:40.285Z</time></trkpt><trkpt lat="33.5041083" lon="9.4582783"><ele>122.0</ele><time>2026-04-04T21:44:41.286Z</time></trkpt><trkpt lat="33.5039767" lon="9.4580217"><ele>122.0</ele><time>2026-04-04T21:44:42.284Z</time></trkpt><trkpt lat="33.5038433" lon="9.4577617"><ele>120.5</ele><time>2026-04-04T21:44:43.286Z</time></trkpt><trkpt lat="33.503705" lon="9.4574967"><ele>119.0</ele><time>2026-04-04T21:44:44.285Z</time></trkpt><trkpt lat="33.5035683" lon="9.4572267"><ele>119.0</ele><time>2026-04-04T21:44:45.282Z</time></trkpt><trkpt lat="33.5034283" lon="9.456955"><ele>119.0</ele><time>2026-04-04T21:44:46.282Z</time></trkpt><trkpt lat="33.50329" lon="9.45668"><ele>119.0</ele><time>2026-04-04T21:44:47.283Z</time></trkpt><trkpt lat="33.5031483" lon="9.4564033"><ele>119.0</ele><time>2026-04-04T21:44:48.281Z</time></trkpt><trkpt lat="33.5030133" lon="9.4561267"><ele>120.0</ele><time>2026-04-04T21:44:49.286Z</time></trkpt><trkpt lat="33.5028733" lon="9.4558467"><ele>121.0</ele><time>2026-04-04T21:44:50.285Z</time></trkpt><trkpt lat="33.5027333" lon="9.4555683"><ele>121.0</ele><time>2026-04-04T21:44:51.284Z</time></trkpt><trkpt lat="33.5025883" lon="9.4552883"><ele>121.0</ele><time>2026-04-04T21:44:52.285Z</time></trkpt><trkpt lat="33.502445" lon="9.45501"><ele>121.0</ele><time>2026-04-04T21:44:53.286Z</time></trkpt><trkpt lat="33.5023017" lon="9.45473"><ele>121.0</ele><time>2026-04-04T21:44:54.284Z</time></trkpt><trkpt lat="33.5021567" lon="9.4544483"><ele>121.0</ele><time>2026-04-04T21:44:55.285Z</time></trkpt><trkpt lat="33.50201" lon="9.4541667"><ele>121.0</ele><time>2026-04-04T21:44:56.286Z</time></trkpt><trkpt lat="33.5018633" lon="9.4538867"><ele>121.0</ele><time>2026-04-04T21:44:57.281Z</time></trkpt><trkpt lat="33.5017167" lon="9.453605"><ele>121.0</ele><time>2026-04-04T21:44:58.285Z</time></trkpt><trkpt lat="33.5015717" lon="9.4533217"><ele>121.0</ele><time>2026-04-04T21:44:59.281Z</time></trkpt><trkpt lat="33.501425" lon="9.45304"><ele>121.0</ele><time>2026-04-04T21:45:00.283Z</time></trkpt><trkpt lat="33.50128" lon="9.452755"><ele>120.5</ele><time>2026-04-04T21:45:01.283Z</time></trkpt><trkpt lat="33.5011367" lon="9.4524717"><ele>120.0</ele><time>2026-04-04T21:45:02.282Z</time></trkpt><trkpt lat="33.5009917" lon="9.4521883"><ele>120.5</ele><time>2026-04-04T21:45:03.283Z</time></trkpt><trkpt lat="33.500845" lon="9.451905"><ele>121.0</ele><time>2026-04-04T21:45:04.283Z</time></trkpt><trkpt lat="33.5006983" lon="9.4516217"><ele>121.0</ele><time>2026-04-04T21:45:05.283Z</time></trkpt><trkpt lat="33.500555" lon="9.4513383"><ele>121.0</ele><time>2026-04-04T21:45:06.284Z</time></trkpt><trkpt lat="33.5004117" lon="9.4510567"><ele>122.0</ele><time>2026-04-04T21:45:07.283Z</time></trkpt><trkpt lat="33.50027" lon="9.450775"><ele>123.0</ele><time>2026-04-04T21:45:08.282Z</time></trkpt><trkpt lat="33.5001267" lon="9.4504983"><ele>123.5</ele><time>2026-04-04T21:45:09.284Z</time></trkpt><trkpt lat="33.4999867" lon="9.4502233"><ele>124.0</ele><time>2026-04-04T21:45:10.288Z</time></trkpt><trkpt lat="33.499845" lon="9.44995"><ele>124.0</ele><time>2026-04-04T21:45:11.285Z</time></trkpt><trkpt lat="33.4997017" lon="9.4496767"><ele>124.0</ele><time>2026-04-04T21:45:12.285Z</time></trkpt><trkpt lat="33.4995617" lon="9.4494033"><ele>123.5</ele><time>2026-04-04T21:45:13.282Z</time></trkpt><trkpt lat="33.4994217" lon="9.4491317"><ele>123.0</ele><time>2026-04-04T21:45:14.283Z</time></trkpt><trkpt lat="33.49928" lon="9.4488567"><ele>123.0</ele><time>2026-04-04T21:45:15.283Z</time></trkpt><trkpt lat="33.4991383" lon="9.4485833"><ele>123.0</ele><time>2026-04-04T21:45:16.283Z</time></trkpt><trkpt lat="33.4989983" lon="9.4483067"><ele>123.0</ele><time>2026-04-04T21:45:17.285Z</time></trkpt><trkpt lat="33.4988567" lon="9.4480267"><ele>123.0</ele><time>2026-04-04T21:45:18.285Z</time></trkpt><trkpt lat="33.4987133" lon="9.447745"><ele>122.0</ele><time>2026-04-04T21:45:19.285Z</time></trkpt><trkpt lat="33.4985667" lon="9.447465"><ele>121.0</ele><time>2026-04-04T21:45:20.285Z</time></trkpt><trkpt lat="33.49842" lon="9.447185"><ele>120.5</ele><time>2026-04-04T21:45:21.282Z</time></trkpt><trkpt lat="33.498275" lon="9.446905"><ele>120.0</ele><time>2026-04-04T21:45:22.282Z</time></trkpt><trkpt lat="33.4981317" lon="9.446625"><ele>120.0</ele><time>2026-04-04T21:45:23.282Z</time></trkpt><trkpt lat="33.4979883" lon="9.4463467"><ele>120.0</ele><time>2026-04-04T21:45:24.283Z</time></trkpt><trkpt lat="33.4978433" lon="9.4460667"><ele>118.5</ele><time>2026-04-04T21:45:25.283Z</time></trkpt><trkpt lat="33.4976983" lon="9.445785"><ele>117.0</ele><time>2026-04-04T21:45:26.282Z</time></trkpt><trkpt lat="33.4975533" lon="9.4455017"><ele>116.5</ele><time>2026-04-04T21:45:27.288Z</time></trkpt><trkpt lat="33.4974067" lon="9.44522"><ele>116.0</ele><time>2026-04-04T21:45:28.285Z</time></trkpt><trkpt lat="33.4972633" lon="9.44494"><ele>116.0</ele><time>2026-04-04T21:45:29.286Z</time></trkpt><trkpt lat="33.4971167" lon="9.4446583"><ele>116.0</ele><time>2026-04-04T21:45:30.285Z</time></trkpt><trkpt lat="33.49697" lon="9.4443767"><ele>115.0</ele><time>2026-04-04T21:45:31.285Z</time></trkpt><trkpt lat="33.49682" lon="9.4440917"><ele>114.0</ele><time>2026-04-04T21:45:32.285Z</time></trkpt><trkpt lat="33.4966733" lon="9.4438067"><ele>113.5</ele><time>2026-04-04T21:45:33.283Z</time></trkpt><trkpt lat="33.4965267" lon="9.44352"><ele>113.0</ele><time>2026-04-04T21:45:34.282Z</time></trkpt><trkpt lat="33.4963817" lon="9.443235"><ele>113.0</ele><time>2026-04-04T21:45:35.282Z</time></trkpt><trkpt lat="33.4962417" lon="9.4429483"><ele>113.0</ele><time>2026-04-04T21:45:36.283Z</time></trkpt><trkpt lat="33.4961033" lon="9.4426583"><ele>113.0</ele><time>2026-04-04T21:45:37.282Z</time></trkpt><trkpt lat="33.49597" lon="9.4423633"><ele>113.0</ele><time>2026-04-04T21:45:38.282Z</time></trkpt><trkpt lat="33.4958383" lon="9.4420667"><ele>113.0</ele><time>2026-04-04T21:45:39.282Z</time></trkpt><trkpt lat="33.4957133" lon="9.4417667"><ele>113.0</ele><time>2026-04-04T21:45:40.285Z</time></trkpt><trkpt lat="33.495595" lon="9.4414633"><ele>112.5</ele><time>2026-04-04T21:45:41.285Z</time></trkpt><trkpt lat="33.4954817" lon="9.4411583"><ele>112.0</ele><time>2026-04-04T21:45:42.285Z</time></trkpt><trkpt lat="33.4953717" lon="9.4408517"><ele>112.0</ele><time>2026-04-04T21:45:43.285Z</time></trkpt><trkpt lat="33.4952683" lon="9.4405467"><ele>112.0</ele><time>2026-04-04T21:45:44.285Z</time></trkpt><trkpt lat="33.4951733" lon="9.44024"><ele>112.0</ele><time>2026-04-04T21:45:45.285Z</time></trkpt><trkpt lat="33.4950817" lon="9.4399317"><ele>112.0</ele><time>2026-04-04T21:45:46.282Z</time></trkpt><trkpt lat="33.4949967" lon="9.4396183"><ele>112.0</ele><time>2026-04-04T21:45:47.286Z</time></trkpt><trkpt lat="33.494915" lon="9.4392983"><ele>112.0</ele><time>2026-04-04T21:45:48.285Z</time></trkpt><trkpt lat="33.4948383" lon="9.4389767"><ele>111.5</ele><time>2026-04-04T21:45:49.282Z</time></trkpt><trkpt lat="33.4947683" lon="9.438655"><ele>111.0</ele><time>2026-04-04T21:45:50.283Z</time></trkpt><trkpt lat="33.4947033" lon="9.4383333"><ele>111.0</ele><time>2026-04-04T21:45:51.285Z</time></trkpt><trkpt lat="33.4946417" lon="9.4380067"><ele>111.0</ele><time>2026-04-04T21:45:52.282Z</time></trkpt><trkpt lat="33.4945883" lon="9.4376783"><ele>111.5</ele><time>2026-04-04T21:45:53.286Z</time></trkpt><trkpt lat="33.4945417" lon="9.437345"><ele>112.0</ele><time>2026-04-04T21:45:54.286Z</time></trkpt><trkpt lat="33.4944983" lon="9.4370117"><ele>112.5</ele><time>2026-04-04T21:45:55.286Z</time></trkpt><trkpt lat="33.49446" lon="9.4366783"><ele>113.0</ele><time>2026-04-04T21:45:56.285Z</time></trkpt><trkpt lat="33.494425" lon="9.436345"><ele>112.5</ele><time>2026-04-04T21:45:57.285Z</time></trkpt><trkpt lat="33.4943967" lon="9.43601"><ele>112.0</ele><time>2026-04-04T21:45:58.285Z</time></trkpt><trkpt lat="33.49438" lon="9.435675"><ele>112.0</ele><time>2026-04-04T21:45:59.286Z</time></trkpt><trkpt lat="33.4943667" lon="9.4353417"><ele>112.0</ele><time>2026-04-04T21:46:00.286Z</time></trkpt><trkpt lat="33.4943583" lon="9.4350067"><ele>112.0</ele><time>2026-04-04T21:46:01.286Z</time></trkpt><trkpt lat="33.4943583" lon="9.4346767"><ele>112.0</ele><time>2026-04-04T21:46:02.285Z</time></trkpt><trkpt lat="33.4943633" lon="9.4343567"><ele>112.5</ele><time>2026-04-04T21:46:03.287Z</time></trkpt><trkpt lat="33.4943717" lon="9.4340433"><ele>113.0</ele><time>2026-04-04T21:46:04.285Z</time></trkpt><trkpt lat="33.494385" lon="9.433735"><ele>113.5</ele><time>2026-04-04T21:46:05.285Z</time></trkpt><trkpt lat="33.4944033" lon="9.43343"><ele>114.0</ele><time>2026-04-04T21:46:06.286Z</time></trkpt><trkpt lat="33.49443" lon="9.4331283"><ele>114.5</ele><time>2026-04-04T21:46:07.285Z</time></trkpt><trkpt lat="33.4944617" lon="9.43283"><ele>115.0</ele><time>2026-04-04T21:46:08.285Z</time></trkpt><trkpt lat="33.4944933" lon="9.4325333"><ele>115.0</ele><time>2026-04-04T21:46:09.286Z</time></trkpt><trkpt lat="33.49453" lon="9.43224"><ele>115.0</ele><time>2026-04-04T21:46:10.283Z</time></trkpt><trkpt lat="33.4945733" lon="9.4319483"><ele>115.5</ele><time>2026-04-04T21:46:11.283Z</time></trkpt><trkpt lat="33.4946183" lon="9.43166"><ele>116.0</ele><time>2026-04-04T21:46:12.286Z</time></trkpt><trkpt lat="33.4946683" lon="9.4313733"><ele>116.0</ele><time>2026-04-04T21:46:13.285Z</time></trkpt><trkpt lat="33.4947217" lon="9.431085"><ele>116.0</ele><time>2026-04-04T21:46:14.285Z</time></trkpt><trkpt lat="33.49478" lon="9.4307983"><ele>116.0</ele><time>2026-04-04T21:46:15.286Z</time></trkpt><trkpt lat="33.49484" lon="9.4305133"><ele>116.0</ele><time>2026-04-04T21:46:16.285Z</time></trkpt><trkpt lat="33.4949033" lon="9.4302333"><ele>115.5</ele><time>2026-04-04T21:46:17.286Z</time></trkpt><trkpt lat="33.4949683" lon="9.4299533"><ele>115.0</ele><time>2026-04-04T21:46:18.285Z</time></trkpt><trkpt lat="33.4950333" lon="9.429675"><ele>114.5</ele><time>2026-04-04T21:46:19.285Z</time></trkpt><trkpt lat="33.4951" lon="9.4293967"><ele>114.0</ele><time>2026-04-04T21:46:20.284Z</time></trkpt><trkpt lat="33.4951667" lon="9.42912"><ele>114.0</ele><time>2026-04-04T21:46:21.286Z</time></trkpt><trkpt lat="33.4952283" lon="9.428845"><ele>114.0</ele><time>2026-04-04T21:46:22.285Z</time></trkpt><trkpt lat="33.49529" lon="9.4285683"><ele>114.5</ele><time>2026-04-04T21:46:23.283Z</time></trkpt><trkpt lat="33.49535" lon="9.4282917"><ele>115.0</ele><time>2026-04-04T21:46:24.285Z</time></trkpt><trkpt lat="33.4954133" lon="9.4280117"><ele>115.5</ele><time>2026-04-04T21:46:25.285Z</time></trkpt><trkpt lat="33.495475" lon="9.42773"><ele>116.0</ele><time>2026-04-04T21:46:26.286Z</time></trkpt><trkpt lat="33.49554" lon="9.4274483"><ele>116.0</ele><time>2026-04-04T21:46:27.285Z</time></trkpt><trkpt lat="33.495605" lon="9.4271667"><ele>116.0</ele><time>2026-04-04T21:46:28.286Z</time></trkpt><trkpt lat="33.4956733" lon="9.4268783"><ele>115.5</ele><time>2026-04-04T21:46:29.286Z</time></trkpt><trkpt lat="33.4957433" lon="9.4265817"><ele>115.0</ele><time>2026-04-04T21:46:30.285Z</time></trkpt><trkpt lat="33.4958133" lon="9.4262783"><ele>114.0</ele><time>2026-04-04T21:46:31.285Z</time></trkpt><trkpt lat="33.4958833" lon="9.42597"><ele>113.0</ele><time>2026-04-04T21:46:32.286Z</time></trkpt><trkpt lat="33.4959533" lon="9.4256617"><ele>113.0</ele><time>2026-04-04T21:46:33.286Z</time></trkpt><trkpt lat="33.4960233" lon="9.4253533"><ele>113.0</ele><time>2026-04-04T21:46:34.285Z</time></trkpt><trkpt lat="33.4960933" lon="9.425045"><ele>113.0</ele><time>2026-04-04T21:46:35.286Z</time></trkpt><trkpt lat="33.496165" lon="9.42474"><ele>113.0</ele><time>2026-04-04T21:46:36.283Z</time></trkpt><trkpt lat="33.496235" lon="9.4244383"><ele>112.5</ele><time>2026-04-04T21:46:37.286Z</time></trkpt><trkpt lat="33.4963067" lon="9.4241383"><ele>112.0</ele><time>2026-04-04T21:46:38.285Z</time></trkpt><trkpt lat="33.496375" lon="9.4238417"><ele>112.0</ele><time>2026-04-04T21:46:39.286Z</time></trkpt><trkpt lat="33.4964417" lon="9.4235483"><ele>112.0</ele><time>2026-04-04T21:46:40.285Z</time></trkpt><trkpt lat="33.4965067" lon="9.4232583"><ele>112.5</ele><time>2026-04-04T21:46:41.286Z</time></trkpt><trkpt lat="33.496575" lon="9.4229683"><ele>113.0</ele><time>2026-04-04T21:46:42.285Z</time></trkpt><trkpt lat="33.4966417" lon="9.42268"><ele>113.0</ele><time>2026-04-04T21:46:43.285Z</time></trkpt><trkpt lat="33.4967083" lon="9.4223933"><ele>113.0</ele><time>2026-04-04T21:46:44.284Z</time></trkpt><trkpt lat="33.496775" lon="9.4221083"><ele>113.0</ele><time>2026-04-04T21:46:45.285Z</time></trkpt><trkpt lat="33.49684" lon="9.4218217"><ele>113.0</ele><time>2026-04-04T21:46:46.285Z</time></trkpt><trkpt lat="33.496905" lon="9.421535"><ele>112.0</ele><time>2026-04-04T21:46:47.285Z</time></trkpt><trkpt lat="33.4969717" lon="9.4212483"><ele>111.0</ele><time>2026-04-04T21:46:48.285Z</time></trkpt><trkpt lat="33.49704" lon="9.4209617"><ele>111.0</ele><time>2026-04-04T21:46:49.285Z</time></trkpt><trkpt lat="33.4971083" lon="9.4206717"><ele>111.0</ele><time>2026-04-04T21:46:50.285Z</time></trkpt><trkpt lat="33.4971767" lon="9.42038"><ele>111.5</ele><time>2026-04-04T21:46:51.285Z</time></trkpt><trkpt lat="33.4972383" lon="9.4200867"><ele>112.0</ele><time>2026-04-04T21:46:52.285Z</time></trkpt><trkpt lat="33.4973" lon="9.4197933"><ele>111.5</ele><time>2026-04-04T21:46:53.285Z</time></trkpt><trkpt lat="33.4973567" lon="9.419505"><ele>111.0</ele><time>2026-04-04T21:46:54.285Z</time></trkpt><trkpt lat="33.4974183" lon="9.4192183"><ele>111.0</ele><time>2026-04-04T21:46:55.282Z</time></trkpt><trkpt lat="33.4974783" lon="9.4189433"><ele>111.0</ele><time>2026-04-04T21:46:56.286Z</time></trkpt><trkpt lat="33.49754" lon="9.4186817"><ele>111.66666666666666</ele><time>2026-04-04T21:46:57.282Z</time></trkpt><trkpt lat="33.497595" lon="9.418435"><ele>112.33333333333333</ele><time>2026-04-04T21:46:58.285Z</time></trkpt><trkpt lat="33.4976517" lon="9.4181917"><ele>113.0</ele><time>2026-04-04T21:46:59.284Z</time></trkpt><trkpt lat="33.4977083" lon="9.4179517"><ele>113.33333333333333</ele><time>2026-04-04T21:47:00.284Z</time></trkpt><trkpt lat="33.4977633" lon="9.4177117"><ele>113.66666666666666</ele><time>2026-04-04T21:47:01.284Z</time></trkpt><trkpt lat="33.4978183" lon="9.4174717"><ele>114.0</ele><time>2026-04-04T21:47:02.284Z</time></trkpt><trkpt lat="33.4978733" lon="9.4172317"><ele>114.0</ele><time>2026-04-04T21:47:03.284Z</time></trkpt><trkpt lat="33.4979267" lon="9.416995"><ele>114.0</ele><time>2026-04-04T21:47:04.284Z</time></trkpt><trkpt lat="33.4979783" lon="9.41676"><ele>114.0</ele><time>2026-04-04T21:47:05.284Z</time></trkpt><trkpt lat="33.49803" lon="9.416525"><ele>113.0</ele><time>2026-04-04T21:47:06.284Z</time></trkpt><trkpt lat="33.49808" lon="9.4162917"><ele>112.0</ele><time>2026-04-04T21:47:07.282Z</time></trkpt><trkpt lat="33.4981317" lon="9.4160617"><ele>111.0</ele><time>2026-04-04T21:47:08.283Z</time></trkpt><trkpt lat="33.4981817" lon="9.4158283"><ele>111.0</ele><time>2026-04-04T21:47:09.282Z</time></trkpt><trkpt lat="33.4982267" lon="9.415595"><ele>111.0</ele><time>2026-04-04T21:47:10.284Z</time></trkpt><trkpt lat="33.4982733" lon="9.4153583"><ele>111.0</ele><time>2026-04-04T21:47:11.285Z</time></trkpt><trkpt lat="33.4983167" lon="9.4151183"><ele>111.0</ele><time>2026-04-04T21:47:12.284Z</time></trkpt><trkpt lat="33.49836" lon="9.4148767"><ele>111.0</ele><time>2026-04-04T21:47:13.284Z</time></trkpt><trkpt lat="33.498405" lon="9.414635"><ele>111.0</ele><time>2026-04-04T21:47:14.285Z</time></trkpt><trkpt lat="33.4984517" lon="9.4143917"><ele>111.0</ele><time>2026-04-04T21:47:15.283Z</time></trkpt><trkpt lat="33.4985" lon="9.4141417"><ele>111.0</ele><time>2026-04-04T21:47:16.282Z</time></trkpt><trkpt lat="33.4985417" lon="9.4138833"><ele>111.0</ele><time>2026-04-04T21:47:17.286Z</time></trkpt><trkpt lat="33.49858" lon="9.4136133"><ele>111.5</ele><time>2026-04-04T21:47:18.284Z</time></trkpt><trkpt lat="33.4986183" lon="9.4133317"><ele>112.0</ele><time>2026-04-04T21:47:19.284Z</time></trkpt><trkpt lat="33.4986517" lon="9.4130367"><ele>111.5</ele><time>2026-04-04T21:47:20.285Z</time></trkpt><trkpt lat="33.4986817" lon="9.4127283"><ele>111.0</ele><time>2026-04-04T21:47:21.284Z</time></trkpt><trkpt lat="33.4987117" lon="9.4124067"><ele>111.0</ele><time>2026-04-04T21:47:22.285Z</time></trkpt><trkpt lat="33.4987417" lon="9.4120767"><ele>111.0</ele><time>2026-04-04T21:47:23.288Z</time></trkpt><trkpt lat="33.4987667" lon="9.41174"><ele>112.0</ele><time>2026-04-04T21:47:24.284Z</time></trkpt><trkpt lat="33.4987867" lon="9.411395"><ele>113.0</ele><time>2026-04-04T21:47:25.285Z</time></trkpt><trkpt lat="33.4988017" lon="9.4110417"><ele>113.0</ele><time>2026-04-04T21:47:26.284Z</time></trkpt><trkpt lat="33.4988117" lon="9.410675"><ele>113.0</ele><time>2026-04-04T21:47:27.284Z</time></trkpt><trkpt lat="33.4988167" lon="9.4102983"><ele>112.5</ele><time>2026-04-04T21:47:28.284Z</time></trkpt><trkpt lat="33.49882" lon="9.4099267"><ele>112.0</ele><time>2026-04-04T21:47:29.284Z</time></trkpt><trkpt lat="33.4988217" lon="9.409565"><ele>112.0</ele><time>2026-04-04T21:47:30.286Z</time></trkpt><trkpt lat="33.498825" lon="9.4092167"><ele>112.0</ele><time>2026-04-04T21:47:31.284Z</time></trkpt><trkpt lat="33.498825" lon="9.4088833"><ele>112.5</ele><time>2026-04-04T21:47:32.286Z</time></trkpt><trkpt lat="33.4988267" lon="9.4085667"><ele>113.0</ele><time>2026-04-04T21:47:33.282Z</time></trkpt><trkpt lat="33.498825" lon="9.4082583"><ele>113.0</ele><time>2026-04-04T21:47:34.282Z</time></trkpt><trkpt lat="33.4988267" lon="9.40795"><ele>113.0</ele><time>2026-04-04T21:47:35.283Z</time></trkpt><trkpt lat="33.4988283" lon="9.4076383"><ele>113.0</ele><time>2026-04-04T21:47:36.283Z</time></trkpt><trkpt lat="33.49883" lon="9.4073233"><ele>113.0</ele><time>2026-04-04T21:47:37.282Z</time></trkpt><trkpt lat="33.49883" lon="9.4070067"><ele>113.0</ele><time>2026-04-04T21:47:38.282Z</time></trkpt><trkpt lat="33.4988317" lon="9.4066867"><ele>113.0</ele><time>2026-04-04T21:47:39.283Z</time></trkpt><trkpt lat="33.4988317" lon="9.4063633"><ele>113.5</ele><time>2026-04-04T21:47:40.285Z</time></trkpt><trkpt lat="33.4988333" lon="9.4060383"><ele>114.0</ele><time>2026-04-04T21:47:41.285Z</time></trkpt><trkpt lat="33.4988333" lon="9.4057083"><ele>113.5</ele><time>2026-04-04T21:47:42.284Z</time></trkpt><trkpt lat="33.4988333" lon="9.4053783"><ele>113.0</ele><time>2026-04-04T21:47:43.285Z</time></trkpt><trkpt lat="33.4988333" lon="9.40505"><ele>113.0</ele><time>2026-04-04T21:47:44.285Z</time></trkpt><trkpt lat="33.4988317" lon="9.404725"><ele>113.0</ele><time>2026-04-04T21:47:45.282Z</time></trkpt><trkpt lat="33.4988333" lon="9.4044033"><ele>113.0</ele><time>2026-04-04T21:47:46.281Z</time></trkpt><trkpt lat="33.4988367" lon="9.404085"><ele>113.0</ele><time>2026-04-04T21:47:47.283Z</time></trkpt><trkpt lat="33.49884" lon="9.40377"><ele>113.0</ele><time>2026-04-04T21:47:48.282Z</time></trkpt><trkpt lat="33.498845" lon="9.4034567"><ele>113.0</ele><time>2026-04-04T21:47:49.281Z</time></trkpt><trkpt lat="33.4988467" lon="9.4031433"><ele>112.5</ele><time>2026-04-04T21:47:50.281Z</time></trkpt><trkpt lat="33.4988467" lon="9.4028283"><ele>112.0</ele><time>2026-04-04T21:47:51.283Z</time></trkpt><trkpt lat="33.498845" lon="9.402515"><ele>112.0</ele><time>2026-04-04T21:47:52.281Z</time></trkpt><trkpt lat="33.4988433" lon="9.4022017"><ele>112.0</ele><time>2026-04-04T21:47:53.282Z</time></trkpt><trkpt lat="33.498845" lon="9.4018917"><ele>111.5</ele><time>2026-04-04T21:47:54.282Z</time></trkpt><trkpt lat="33.4988467" lon="9.4015833"><ele>111.0</ele><time>2026-04-04T21:47:55.281Z</time></trkpt><trkpt lat="33.4988467" lon="9.4012767"><ele>111.0</ele><time>2026-04-04T21:47:56.281Z</time></trkpt><trkpt lat="33.4988483" lon="9.4009717"><ele>111.0</ele><time>2026-04-04T21:47:57.282Z</time></trkpt><trkpt lat="33.49885" lon="9.4006733"><ele>110.0</ele><time>2026-04-04T21:47:58.282Z</time></trkpt><trkpt lat="33.49885" lon="9.400385"><ele>109.0</ele><time>2026-04-04T21:47:59.283Z</time></trkpt><trkpt lat="33.4988483" lon="9.4001067"><ele>109.0</ele><time>2026-04-04T21:48:00.282Z</time></trkpt><trkpt lat="33.4988483" lon="9.3998333"><ele>109.0</ele><time>2026-04-04T21:48:01.284Z</time></trkpt><trkpt lat="33.4988483" lon="9.39956"><ele>108.5</ele><time>2026-04-04T21:48:02.285Z</time></trkpt><trkpt lat="33.49885" lon="9.399285"><ele>108.0</ele><time>2026-04-04T21:48:03.285Z</time></trkpt><trkpt lat="33.4988533" lon="9.39901"><ele>108.0</ele><time>2026-04-04T21:48:04.285Z</time></trkpt><trkpt lat="33.49886" lon="9.39873"><ele>108.0</ele><time>2026-04-04T21:48:05.285Z</time></trkpt><trkpt lat="33.4988633" lon="9.3984483"><ele>108.0</ele><time>2026-04-04T21:48:06.285Z</time></trkpt><trkpt lat="33.4988633" lon="9.3981583"><ele>108.0</ele><time>2026-04-04T21:48:07.286Z</time></trkpt><trkpt lat="33.4988617" lon="9.3978617"><ele>108.0</ele><time>2026-04-04T21:48:08.285Z</time></trkpt><trkpt lat="33.4988633" lon="9.3975617"><ele>108.0</ele><time>2026-04-04T21:48:09.286Z</time></trkpt><trkpt lat="33.4988617" lon="9.3972567"><ele>107.0</ele><time>2026-04-04T21:48:10.286Z</time></trkpt><trkpt lat="33.4988617" lon="9.3969517"><ele>106.0</ele><time>2026-04-04T21:48:11.285Z</time></trkpt><trkpt lat="33.498865" lon="9.396645"><ele>106.0</ele><time>2026-04-04T21:48:12.285Z</time></trkpt><trkpt lat="33.4988717" lon="9.39634"><ele>106.0</ele><time>2026-04-04T21:48:13.285Z</time></trkpt><trkpt lat="33.4988733" lon="9.3960333"><ele>106.5</ele><time>2026-04-04T21:48:14.285Z</time></trkpt><trkpt lat="33.4988767" lon="9.3957233"><ele>107.0</ele><time>2026-04-04T21:48:15.285Z</time></trkpt><trkpt lat="33.4988767" lon="9.3954133"><ele>107.0</ele><time>2026-04-04T21:48:16.285Z</time></trkpt><trkpt lat="33.498875" lon="9.395095"><ele>107.0</ele><time>2026-04-04T21:48:17.287Z</time></trkpt><trkpt lat="33.498875" lon="9.3947717"><ele>108.0</ele><time>2026-04-04T21:48:18.285Z</time></trkpt><trkpt lat="33.49888" lon="9.394445"><ele>109.0</ele><time>2026-04-04T21:48:19.285Z</time></trkpt><trkpt lat="33.4988817" lon="9.3941133"><ele>108.0</ele><time>2026-04-04T21:48:20.286Z</time></trkpt><trkpt lat="33.498885" lon="9.39378"><ele>107.0</ele><time>2026-04-04T21:48:21.285Z</time></trkpt><trkpt lat="33.498885" lon="9.3934433"><ele>107.0</ele><time>2026-04-04T21:48:22.285Z</time></trkpt><trkpt lat="33.498885" lon="9.3931067"><ele>107.0</ele><time>2026-04-04T21:48:23.285Z</time></trkpt><trkpt lat="33.4988833" lon="9.3927717"><ele>107.5</ele><time>2026-04-04T21:48:24.285Z</time></trkpt><trkpt lat="33.4988833" lon="9.3924417"><ele>108.0</ele><time>2026-04-04T21:48:25.286Z</time></trkpt><trkpt lat="33.4988867" lon="9.3921167"><ele>108.5</ele><time>2026-04-04T21:48:26.285Z</time></trkpt><trkpt lat="33.49889" lon="9.3917967"><ele>109.0</ele><time>2026-04-04T21:48:27.285Z</time></trkpt><trkpt lat="33.4988933" lon="9.391475"><ele>107.5</ele><time>2026-04-04T21:48:28.285Z</time></trkpt><trkpt lat="33.4988983" lon="9.3911567"><ele>106.0</ele><time>2026-04-04T21:48:29.286Z</time></trkpt><trkpt lat="33.4989" lon="9.39084"><ele>106.0</ele><time>2026-04-04T21:48:30.285Z</time></trkpt><trkpt lat="33.4988983" lon="9.3905233"><ele>106.0</ele><time>2026-04-04T21:48:31.285Z</time></trkpt><trkpt lat="33.4988967" lon="9.3902067"><ele>106.0</ele><time>2026-04-04T21:48:32.285Z</time></trkpt><trkpt lat="33.4988967" lon="9.3898867"><ele>106.0</ele><time>2026-04-04T21:48:33.284Z</time></trkpt><trkpt lat="33.4988933" lon="9.3895667"><ele>107.0</ele><time>2026-04-04T21:48:34.285Z</time></trkpt><trkpt lat="33.4988917" lon="9.3892483"><ele>108.0</ele><time>2026-04-04T21:48:35.285Z</time></trkpt><trkpt lat="33.498885" lon="9.3889283"><ele>107.5</ele><time>2026-04-04T21:48:36.285Z</time></trkpt><trkpt lat="33.4988733" lon="9.38861"><ele>107.0</ele><time>2026-04-04T21:48:37.286Z</time></trkpt><trkpt lat="33.498855" lon="9.38829"><ele>108.0</ele><time>2026-04-04T21:48:38.286Z</time></trkpt><trkpt lat="33.49883" lon="9.38797"><ele>109.0</ele><time>2026-04-04T21:48:39.286Z</time></trkpt><trkpt lat="33.4987967" lon="9.38765"><ele>109.0</ele><time>2026-04-04T21:48:40.287Z</time></trkpt><trkpt lat="33.49876" lon="9.3873283"><ele>109.0</ele><time>2026-04-04T21:48:41.285Z</time></trkpt><trkpt lat="33.4987183" lon="9.3870067"><ele>109.5</ele><time>2026-04-04T21:48:42.285Z</time></trkpt><trkpt lat="33.4986717" lon="9.3866867"><ele>110.0</ele><time>2026-04-04T21:48:43.285Z</time></trkpt><trkpt lat="33.4986183" lon="9.3863667"><ele>109.5</ele><time>2026-04-04T21:48:44.285Z</time></trkpt><trkpt lat="33.4985617" lon="9.386045"><ele>109.0</ele><time>2026-04-04T21:48:45.285Z</time></trkpt><trkpt lat="33.4985" lon="9.3857233"><ele>108.5</ele><time>2026-04-04T21:48:46.286Z</time></trkpt><trkpt lat="33.4984267" lon="9.3854017"><ele>108.0</ele><time>2026-04-04T21:48:47.285Z</time></trkpt><trkpt lat="33.4983433" lon="9.3850783"><ele>108.0</ele><time>2026-04-04T21:48:48.285Z</time></trkpt><trkpt lat="33.4982617" lon="9.3847583"><ele>108.0</ele><time>2026-04-04T21:48:49.281Z</time></trkpt><trkpt lat="33.4981767" lon="9.384445"><ele>108.5</ele><time>2026-04-04T21:48:50.283Z</time></trkpt><trkpt lat="33.49809" lon="9.3841433"><ele>109.0</ele><time>2026-04-04T21:48:51.287Z</time></trkpt><trkpt lat="33.498" lon="9.3838517"><ele>108.5</ele><time>2026-04-04T21:48:52.286Z</time></trkpt><trkpt lat="33.497905" lon="9.38356"><ele>108.0</ele><time>2026-04-04T21:48:53.282Z</time></trkpt><trkpt lat="33.4978017" lon="9.3832683"><ele>107.5</ele><time>2026-04-04T21:48:54.284Z</time></trkpt><trkpt lat="33.4976933" lon="9.3829767"><ele>107.0</ele><time>2026-04-04T21:48:55.283Z</time></trkpt><trkpt lat="33.49758" lon="9.382685"><ele>107.0</ele><time>2026-04-04T21:48:56.282Z</time></trkpt><trkpt lat="33.49746" lon="9.382395"><ele>107.0</ele><time>2026-04-04T21:48:57.285Z</time></trkpt><trkpt lat="33.497335" lon="9.38211"><ele>107.0</ele><time>2026-04-04T21:48:58.286Z</time></trkpt><trkpt lat="33.4972067" lon="9.3818417"><ele>107.0</ele><time>2026-04-04T21:48:59.285Z</time></trkpt><trkpt lat="33.49708" lon="9.3815867"><ele>106.0</ele><time>2026-04-04T21:49:00.286Z</time></trkpt><trkpt lat="33.49696" lon="9.3813383"><ele>105.0</ele><time>2026-04-04T21:49:01.286Z</time></trkpt><trkpt lat="33.49684" lon="9.3810917"><ele>105.0</ele><time>2026-04-04T21:49:02.285Z</time></trkpt><trkpt lat="33.4967167" lon="9.380845"><ele>105.0</ele><time>2026-04-04T21:49:03.285Z</time></trkpt><trkpt lat="33.4965867" lon="9.3805917"><ele>105.5</ele><time>2026-04-04T21:49:04.285Z</time></trkpt><trkpt lat="33.496455" lon="9.38034"><ele>106.0</ele><time>2026-04-04T21:49:05.286Z</time></trkpt><trkpt lat="33.4963283" lon="9.3800983"><ele>106.0</ele><time>2026-04-04T21:49:06.285Z</time></trkpt><trkpt lat="33.49621" lon="9.379865"><ele>106.0</ele><time>2026-04-04T21:49:07.286Z</time></trkpt><trkpt lat="33.4960933" lon="9.379635"><ele>106.5</ele><time>2026-04-04T21:49:08.285Z</time></trkpt><trkpt lat="33.495975" lon="9.3794017"><ele>107.0</ele><time>2026-04-04T21:49:09.287Z</time></trkpt><trkpt lat="33.495855" lon="9.379165"><ele>107.0</ele><time>2026-04-04T21:49:10.286Z</time></trkpt><trkpt lat="33.4957367" lon="9.3789267"><ele>107.0</ele><time>2026-04-04T21:49:11.285Z</time></trkpt><trkpt lat="33.4956183" lon="9.3786867"><ele>105.5</ele><time>2026-04-04T21:49:12.285Z</time></trkpt><trkpt lat="33.4954967" lon="9.378445"><ele>104.0</ele><time>2026-04-04T21:49:13.285Z</time></trkpt><trkpt lat="33.4953733" lon="9.3782017"><ele>103.5</ele><time>2026-04-04T21:49:14.282Z</time></trkpt><trkpt lat="33.4952483" lon="9.3779567"><ele>103.0</ele><time>2026-04-04T21:49:15.283Z</time></trkpt><trkpt lat="33.4951233" lon="9.37771"><ele>103.0</ele><time>2026-04-04T21:49:16.282Z</time></trkpt><trkpt lat="33.494995" lon="9.3774617"><ele>103.0</ele><time>2026-04-04T21:49:17.284Z</time></trkpt><trkpt lat="33.4948683" lon="9.3772117"><ele>105.5</ele><time>2026-04-04T21:49:18.283Z</time></trkpt><trkpt lat="33.4947383" lon="9.3769583"><ele>108.0</ele><time>2026-04-04T21:49:19.283Z</time></trkpt><trkpt lat="33.4946083" lon="9.3767033"><ele>106.0</ele><time>2026-04-04T21:49:20.283Z</time></trkpt><trkpt lat="33.4944767" lon="9.3764417"><ele>104.0</ele><time>2026-04-04T21:49:21.283Z</time></trkpt><trkpt lat="33.4943433" lon="9.37618"><ele>103.5</ele><time>2026-04-04T21:49:22.285Z</time></trkpt><trkpt lat="33.4942117" lon="9.3759183"><ele>103.0</ele><time>2026-04-04T21:49:23.283Z</time></trkpt><trkpt lat="33.49408" lon="9.3756567"><ele>104.0</ele><time>2026-04-04T21:49:24.283Z</time></trkpt><trkpt lat="33.4939467" lon="9.375395"><ele>105.0</ele><time>2026-04-04T21:49:25.283Z</time></trkpt><trkpt lat="33.4938167" lon="9.3751333"><ele>104.5</ele><time>2026-04-04T21:49:26.284Z</time></trkpt><trkpt lat="33.4936833" lon="9.37487"><ele>104.0</ele><time>2026-04-04T21:49:27.285Z</time></trkpt><trkpt lat="33.4935467" lon="9.374605"><ele>104.0</ele><time>2026-04-04T21:49:28.285Z</time></trkpt><trkpt lat="33.49341" lon="9.3743383"><ele>104.0</ele><time>2026-04-04T21:49:29.285Z</time></trkpt><trkpt lat="33.49327" lon="9.3740717"><ele>104.0</ele><time>2026-04-04T21:49:30.285Z</time></trkpt><trkpt lat="33.4931317" lon="9.3738017"><ele>104.0</ele><time>2026-04-04T21:49:31.285Z</time></trkpt><trkpt lat="33.4929917" lon="9.373525"><ele>104.5</ele><time>2026-04-04T21:49:32.286Z</time></trkpt><trkpt lat="33.4928533" lon="9.373245"><ele>105.0</ele><time>2026-04-04T21:49:33.285Z</time></trkpt><trkpt lat="33.492715" lon="9.3729633"><ele>105.5</ele><time>2026-04-04T21:49:34.283Z</time></trkpt><trkpt lat="33.4925733" lon="9.372685"><ele>106.0</ele><time>2026-04-04T21:49:35.283Z</time></trkpt><trkpt lat="33.4924317" lon="9.3724083"><ele>105.5</ele><time>2026-04-04T21:49:36.284Z</time></trkpt><trkpt lat="33.4922933" lon="9.372135"><ele>105.0</ele><time>2026-04-04T21:49:37.283Z</time></trkpt><trkpt lat="33.492155" lon="9.3718617"><ele>105.0</ele><time>2026-04-04T21:49:38.283Z</time></trkpt><trkpt lat="33.49202" lon="9.3715917"><ele>105.0</ele><time>2026-04-04T21:49:39.284Z</time></trkpt><trkpt lat="33.4918833" lon="9.3713267"><ele>105.5</ele><time>2026-04-04T21:49:40.284Z</time></trkpt><trkpt lat="33.4917517" lon="9.3710633"><ele>106.0</ele><time>2026-04-04T21:49:41.286Z</time></trkpt><trkpt lat="33.4916183" lon="9.3708"><ele>106.0</ele><time>2026-04-04T21:49:42.283Z</time></trkpt><trkpt lat="33.4914817" lon="9.3705367"><ele>106.0</ele><time>2026-04-04T21:49:43.287Z</time></trkpt><trkpt lat="33.491345" lon="9.37027"><ele>105.5</ele><time>2026-04-04T21:49:44.283Z</time></trkpt><trkpt lat="33.4912117" lon="9.37"><ele>105.0</ele><time>2026-04-04T21:49:45.284Z</time></trkpt><trkpt lat="33.491075" lon="9.3697267"><ele>105.0</ele><time>2026-04-04T21:49:46.284Z</time></trkpt><trkpt lat="33.4909383" lon="9.3694467"><ele>105.0</ele><time>2026-04-04T21:49:47.284Z</time></trkpt><trkpt lat="33.4908" lon="9.3691633"><ele>105.0</ele><time>2026-04-04T21:49:48.284Z</time></trkpt><trkpt lat="33.4906583" lon="9.36888"><ele>105.0</ele><time>2026-04-04T21:49:49.284Z</time></trkpt><trkpt lat="33.4905117" lon="9.368595"><ele>105.5</ele><time>2026-04-04T21:49:50.283Z</time></trkpt><trkpt lat="33.4903683" lon="9.3683083"><ele>106.0</ele><time>2026-04-04T21:49:51.285Z</time></trkpt><trkpt lat="33.49022" lon="9.3680233"><ele>106.0</ele><time>2026-04-04T21:49:52.283Z</time></trkpt><trkpt lat="33.49007" lon="9.367735"><ele>106.0</ele><time>2026-04-04T21:49:53.285Z</time></trkpt><trkpt lat="33.4899183" lon="9.36745"><ele>106.0</ele><time>2026-04-04T21:49:54.285Z</time></trkpt><trkpt lat="33.4897683" lon="9.3671617"><ele>106.0</ele><time>2026-04-04T21:49:55.285Z</time></trkpt><trkpt lat="33.48962" lon="9.3668733"><ele>105.5</ele><time>2026-04-04T21:49:56.285Z</time></trkpt><trkpt lat="33.4894733" lon="9.3665833"><ele>105.0</ele><time>2026-04-04T21:49:57.286Z</time></trkpt><trkpt lat="33.4893267" lon="9.366295"><ele>105.0</ele><time>2026-04-04T21:49:58.285Z</time></trkpt><trkpt lat="33.4891817" lon="9.3660067"><ele>105.0</ele><time>2026-04-04T21:49:59.285Z</time></trkpt><trkpt lat="33.4890383" lon="9.3657267"><ele>105.5</ele><time>2026-04-04T21:50:00.287Z</time></trkpt><trkpt lat="33.488895" lon="9.36545"><ele>106.0</ele><time>2026-04-04T21:50:01.285Z</time></trkpt><trkpt lat="33.4887517" lon="9.36517"><ele>106.0</ele><time>2026-04-04T21:50:02.287Z</time></trkpt><trkpt lat="33.48861" lon="9.3648867"><ele>106.0</ele><time>2026-04-04T21:50:03.285Z</time></trkpt><trkpt lat="33.4884683" lon="9.364605"><ele>106.0</ele><time>2026-04-04T21:50:04.284Z</time></trkpt><trkpt lat="33.488325" lon="9.364325"><ele>106.0</ele><time>2026-04-04T21:50:05.283Z</time></trkpt><trkpt lat="33.4881817" lon="9.3640483"><ele>105.5</ele><time>2026-04-04T21:50:06.284Z</time></trkpt><trkpt lat="33.4880433" lon="9.3637767"><ele>105.0</ele><time>2026-04-04T21:50:07.282Z</time></trkpt><trkpt lat="33.4879067" lon="9.36351"><ele>106.0</ele><time>2026-04-04T21:50:08.283Z</time></trkpt><trkpt lat="33.4877733" lon="9.3632417"><ele>107.0</ele><time>2026-04-04T21:50:09.281Z</time></trkpt><trkpt lat="33.4876383" lon="9.362975"><ele>107.0</ele><time>2026-04-04T21:50:10.283Z</time></trkpt><trkpt lat="33.4875033" lon="9.36271"><ele>107.0</ele><time>2026-04-04T21:50:11.284Z</time></trkpt><trkpt lat="33.4873683" lon="9.3624433"><ele>107.5</ele><time>2026-04-04T21:50:12.281Z</time></trkpt><trkpt lat="33.4872333" lon="9.362175"><ele>108.0</ele><time>2026-04-04T21:50:13.282Z</time></trkpt><trkpt lat="33.4870967" lon="9.361905"><ele>107.5</ele><time>2026-04-04T21:50:14.282Z</time></trkpt><trkpt lat="33.48696" lon="9.3616317"><ele>107.0</ele><time>2026-04-04T21:50:15.284Z</time></trkpt><trkpt lat="33.486825" lon="9.361355"><ele>107.0</ele><time>2026-04-04T21:50:16.282Z</time></trkpt><trkpt lat="33.4866883" lon="9.36108"><ele>107.0</ele><time>2026-04-04T21:50:17.281Z</time></trkpt><trkpt lat="33.48655" lon="9.3608017"><ele>106.5</ele><time>2026-04-04T21:50:18.284Z</time></trkpt><trkpt lat="33.48641" lon="9.3605267"><ele>106.0</ele><time>2026-04-04T21:50:19.285Z</time></trkpt><trkpt lat="33.4862667" lon="9.3602517"><ele>105.0</ele><time>2026-04-04T21:50:20.284Z</time></trkpt><trkpt lat="33.4861233" lon="9.3599767"><ele>104.0</ele><time>2026-04-04T21:50:21.285Z</time></trkpt><trkpt lat="33.48598" lon="9.3597"><ele>103.5</ele><time>2026-04-04T21:50:22.285Z</time></trkpt><trkpt lat="33.4858383" lon="9.3594267"><ele>103.0</ele><time>2026-04-04T21:50:23.284Z</time></trkpt><trkpt lat="33.485695" lon="9.35915"><ele>103.0</ele><time>2026-04-04T21:50:24.284Z</time></trkpt><trkpt lat="33.4855533" lon="9.3588717"><ele>103.0</ele><time>2026-04-04T21:50:25.284Z</time></trkpt><trkpt lat="33.4854133" lon="9.3585883"><ele>103.0</ele><time>2026-04-04T21:50:26.285Z</time></trkpt><trkpt lat="33.4852733" lon="9.358305"><ele>103.0</ele><time>2026-04-04T21:50:27.284Z</time></trkpt><trkpt lat="33.48513" lon="9.3580217"><ele>103.0</ele><time>2026-04-04T21:50:28.284Z</time></trkpt><trkpt lat="33.484985" lon="9.3577383"><ele>103.0</ele><time>2026-04-04T21:50:29.281Z</time></trkpt><trkpt lat="33.484835" lon="9.3574583"><ele>103.5</ele><time>2026-04-04T21:50:30.284Z</time></trkpt><trkpt lat="33.48468" lon="9.3571817"><ele>104.0</ele><time>2026-04-04T21:50:31.285Z</time></trkpt><trkpt lat="33.4845217" lon="9.3569167"><ele>105.0</ele><time>2026-04-04T21:50:32.284Z</time></trkpt><trkpt lat="33.4843633" lon="9.3566683"><ele>106.0</ele><time>2026-04-04T21:50:33.286Z</time></trkpt><trkpt lat="33.48421" lon="9.356435"><ele>106.0</ele><time>2026-04-04T21:50:34.282Z</time></trkpt><trkpt lat="33.4840583" lon="9.35621"><ele>106.0</ele><time>2026-04-04T21:50:35.283Z</time></trkpt><trkpt lat="33.4839033" lon="9.355985"><ele>106.0</ele><time>2026-04-04T21:50:36.282Z</time></trkpt><trkpt lat="33.4837417" lon="9.3557633"><ele>106.0</ele><time>2026-04-04T21:50:37.284Z</time></trkpt><trkpt lat="33.483575" lon="9.3555467"><ele>106.0</ele><time>2026-04-04T21:50:38.282Z</time></trkpt><trkpt lat="33.4834017" lon="9.35533"><ele>106.0</ele><time>2026-04-04T21:50:39.283Z</time></trkpt><trkpt lat="33.4832233" lon="9.3551183"><ele>106.0</ele><time>2026-04-04T21:50:40.283Z</time></trkpt><trkpt lat="33.48304" lon="9.354905"><ele>106.0</ele><time>2026-04-04T21:50:41.283Z</time></trkpt><trkpt lat="33.4828483" lon="9.354695"><ele>106.0</ele><time>2026-04-04T21:50:42.282Z</time></trkpt><trkpt lat="33.4826467" lon="9.3544867"><ele>106.0</ele><time>2026-04-04T21:50:43.282Z</time></trkpt><trkpt lat="33.4824417" lon="9.3542783"><ele>106.0</ele><time>2026-04-04T21:50:44.282Z</time></trkpt><trkpt lat="33.4822317" lon="9.3540733"><ele>106.0</ele><time>2026-04-04T21:50:45.284Z</time></trkpt><trkpt lat="33.4820183" lon="9.3538733"><ele>106.0</ele><time>2026-04-04T21:50:46.283Z</time></trkpt><trkpt lat="33.48181" lon="9.3536767"><ele>106.0</ele><time>2026-04-04T21:50:47.284Z</time></trkpt><trkpt lat="33.4816017" lon="9.3534817"><ele>106.0</ele><time>2026-04-04T21:50:48.285Z</time></trkpt><trkpt lat="33.4813967" lon="9.3532883"><ele>106.0</ele><time>2026-04-04T21:50:49.284Z</time></trkpt><trkpt lat="33.481195" lon="9.353095"><ele>103.5</ele><time>2026-04-04T21:50:50.284Z</time></trkpt><trkpt lat="33.4809917" lon="9.3529"><ele>101.0</ele><time>2026-04-04T21:50:51.285Z</time></trkpt><trkpt lat="33.4807883" lon="9.3527033"><ele>101.0</ele><time>2026-04-04T21:50:52.284Z</time></trkpt><trkpt lat="33.4805833" lon="9.3525067"><ele>101.0</ele><time>2026-04-04T21:50:53.284Z</time></trkpt><trkpt lat="33.480375" lon="9.3523067"><ele>102.5</ele><time>2026-04-04T21:50:54.285Z</time></trkpt><trkpt lat="33.480165" lon="9.3521083"><ele>104.0</ele><time>2026-04-04T21:50:55.284Z</time></trkpt><trkpt lat="33.4799533" lon="9.3519067"><ele>104.0</ele><time>2026-04-04T21:50:56.283Z</time></trkpt><trkpt lat="33.4797383" lon="9.351705"><ele>104.0</ele><time>2026-04-04T21:50:57.284Z</time></trkpt><trkpt lat="33.4795233" lon="9.3515033"><ele>104.5</ele><time>2026-04-04T21:50:58.285Z</time></trkpt><trkpt lat="33.4793083" lon="9.3513"><ele>105.0</ele><time>2026-04-04T21:50:59.285Z</time></trkpt><trkpt lat="33.4790917" lon="9.3510933"><ele>105.0</ele><time>2026-04-04T21:51:00.284Z</time></trkpt><trkpt lat="33.478875" lon="9.3508833"><ele>105.0</ele><time>2026-04-04T21:51:01.282Z</time></trkpt><trkpt lat="33.4786567" lon="9.3506733"><ele>105.5</ele><time>2026-04-04T21:51:02.286Z</time></trkpt><trkpt lat="33.47844" lon="9.350465"><ele>106.0</ele><time>2026-04-04T21:51:03.282Z</time></trkpt><trkpt lat="33.4782217" lon="9.3502583"><ele>106.0</ele><time>2026-04-04T21:51:04.283Z</time></trkpt><trkpt lat="33.4780017" lon="9.3500483"><ele>106.0</ele><time>2026-04-04T21:51:05.283Z</time></trkpt><trkpt lat="33.477785" lon="9.3498417"><ele>104.0</ele><time>2026-04-04T21:51:06.283Z</time></trkpt><trkpt lat="33.477575" lon="9.3496417"><ele>102.0</ele><time>2026-04-04T21:51:07.282Z</time></trkpt><trkpt lat="33.4773717" lon="9.34945"><ele>102.0</ele><time>2026-04-04T21:51:08.282Z</time></trkpt><trkpt lat="33.4771717" lon="9.3492583"><ele>102.0</ele><time>2026-04-04T21:51:09.283Z</time></trkpt><trkpt lat="33.47697" lon="9.349065"><ele>102.0</ele><time>2026-04-04T21:51:10.282Z</time></trkpt><trkpt lat="33.4767667" lon="9.3488717"><ele>102.0</ele><time>2026-04-04T21:51:11.283Z</time></trkpt><trkpt lat="33.47656" lon="9.3486783"><ele>102.0</ele><time>2026-04-04T21:51:12.283Z</time></trkpt><trkpt lat="33.4763517" lon="9.3484817"><ele>102.0</ele><time>2026-04-04T21:51:13.283Z</time></trkpt><trkpt lat="33.4761417" lon="9.348285"><ele>103.0</ele><time>2026-04-04T21:51:14.282Z</time></trkpt><trkpt lat="33.47593" lon="9.3480867"><ele>104.0</ele><time>2026-04-04T21:51:15.285Z</time></trkpt><trkpt lat="33.475725" lon="9.3478883"><ele>104.0</ele><time>2026-04-04T21:51:16.282Z</time></trkpt><trkpt lat="33.4755267" lon="9.3476933"><ele>104.0</ele><time>2026-04-04T21:51:17.286Z</time></trkpt><trkpt lat="33.475335" lon="9.347495"><ele>104.0</ele><time>2026-04-04T21:51:18.284Z</time></trkpt><trkpt lat="33.4751483" lon="9.3472917"><ele>104.0</ele><time>2026-04-04T21:51:19.285Z</time></trkpt><trkpt lat="33.47496" lon="9.3470867"><ele>104.0</ele><time>2026-04-04T21:51:20.284Z</time></trkpt><trkpt lat="33.4747683" lon="9.3468817"><ele>104.0</ele><time>2026-04-04T21:51:21.284Z</time></trkpt><trkpt lat="33.4745717" lon="9.3466717"><ele>104.0</ele><time>2026-04-04T21:51:22.285Z</time></trkpt><trkpt lat="33.4743733" lon="9.3464567"><ele>104.0</ele><time>2026-04-04T21:51:23.285Z</time></trkpt><trkpt lat="33.4741767" lon="9.346235"><ele>103.5</ele><time>2026-04-04T21:51:24.285Z</time></trkpt><trkpt lat="33.4739783" lon="9.34601"><ele>103.0</ele><time>2026-04-04T21:51:25.286Z</time></trkpt><trkpt lat="33.4737783" lon="9.3457817"><ele>102.5</ele><time>2026-04-04T21:51:26.283Z</time></trkpt><trkpt lat="33.47358" lon="9.3455483"><ele>102.0</ele><time>2026-04-04T21:51:27.285Z</time></trkpt><trkpt lat="33.473385" lon="9.3453083"><ele>101.5</ele><time>2026-04-04T21:51:28.284Z</time></trkpt><trkpt lat="33.473195" lon="9.3450667"><ele>101.0</ele><time>2026-04-04T21:51:29.285Z</time></trkpt><trkpt lat="33.4730067" lon="9.34483"><ele>101.0</ele><time>2026-04-04T21:51:30.285Z</time></trkpt><trkpt lat="33.472825" lon="9.3445917"><ele>101.0</ele><time>2026-04-04T21:51:31.286Z</time></trkpt><trkpt lat="33.4726483" lon="9.344355"><ele>101.0</ele><time>2026-04-04T21:51:32.283Z</time></trkpt><trkpt lat="33.4724767" lon="9.3441183"><ele>101.0</ele><time>2026-04-04T21:51:33.283Z</time></trkpt><trkpt lat="33.4723067" lon="9.3438783"><ele>101.0</ele><time>2026-04-04T21:51:34.282Z</time></trkpt><trkpt lat="33.4721383" lon="9.3436383"><ele>101.0</ele><time>2026-04-04T21:51:35.283Z</time></trkpt><trkpt lat="33.4719683" lon="9.3433983"><ele>101.5</ele><time>2026-04-04T21:51:36.284Z</time></trkpt><trkpt lat="33.4718017" lon="9.3431533"><ele>102.0</ele><time>2026-04-04T21:51:37.282Z</time></trkpt><trkpt lat="33.4716383" lon="9.3429067"><ele>102.0</ele><time>2026-04-04T21:51:38.283Z</time></trkpt><trkpt lat="33.471475" lon="9.3426583"><ele>102.0</ele><time>2026-04-04T21:51:39.283Z</time></trkpt><trkpt lat="33.471315" lon="9.342405"><ele>102.5</ele><time>2026-04-04T21:51:40.285Z</time></trkpt><trkpt lat="33.4711617" lon="9.3421517"><ele>103.0</ele><time>2026-04-04T21:51:41.286Z</time></trkpt><trkpt lat="33.471005" lon="9.341895"><ele>103.0</ele><time>2026-04-04T21:51:42.285Z</time></trkpt><trkpt lat="33.47085" lon="9.3416383"><ele>103.0</ele><time>2026-04-04T21:51:43.286Z</time></trkpt><trkpt lat="33.470695" lon="9.3413817"><ele>102.5</ele><time>2026-04-04T21:51:44.286Z</time></trkpt><trkpt lat="33.4705433" lon="9.3411233"><ele>102.0</ele><time>2026-04-04T21:51:45.286Z</time></trkpt><trkpt lat="33.4703967" lon="9.3408633"><ele>101.0</ele><time>2026-04-04T21:51:46.286Z</time></trkpt><trkpt lat="33.470255" lon="9.3406"><ele>100.0</ele><time>2026-04-04T21:51:47.285Z</time></trkpt><trkpt lat="33.470115" lon="9.3403367"><ele>100.0</ele><time>2026-04-04T21:51:48.286Z</time></trkpt><trkpt lat="33.4699817" lon="9.3400717"><ele>100.0</ele><time>2026-04-04T21:51:49.286Z</time></trkpt><trkpt lat="33.4698483" lon="9.3398033"><ele>100.0</ele><time>2026-04-04T21:51:50.285Z</time></trkpt><trkpt lat="33.469715" lon="9.33953"><ele>100.0</ele><time>2026-04-04T21:51:51.285Z</time></trkpt><trkpt lat="33.4695833" lon="9.3392567"><ele>100.0</ele><time>2026-04-04T21:51:52.286Z</time></trkpt><trkpt lat="33.4694467" lon="9.3389833"><ele>100.0</ele><time>2026-04-04T21:51:53.285Z</time></trkpt><trkpt lat="33.4693133" lon="9.3387117"><ele>99.5</ele><time>2026-04-04T21:51:54.285Z</time></trkpt><trkpt lat="33.4691833" lon="9.3384417"><ele>99.0</ele><time>2026-04-04T21:51:55.285Z</time></trkpt><trkpt lat="33.46906" lon="9.3381717"><ele>99.0</ele><time>2026-04-04T21:51:56.285Z</time></trkpt><trkpt lat="33.4689383" lon="9.3378967"><ele>99.0</ele><time>2026-04-04T21:51:57.286Z</time></trkpt><trkpt lat="33.4688183" lon="9.33762"><ele>99.0</ele><time>2026-04-04T21:51:58.286Z</time></trkpt><trkpt lat="33.4687" lon="9.3373383"><ele>99.0</ele><time>2026-04-04T21:51:59.282Z</time></trkpt><trkpt lat="33.4685867" lon="9.3370533"><ele>99.5</ele><time>2026-04-04T21:52:00.286Z</time></trkpt><trkpt lat="33.4684767" lon="9.336765"><ele>100.0</ele><time>2026-04-04T21:52:01.284Z</time></trkpt><trkpt lat="33.4683667" lon="9.336475"><ele>100.5</ele><time>2026-04-04T21:52:02.285Z</time></trkpt><trkpt lat="33.4682583" lon="9.3361817"><ele>101.0</ele><time>2026-04-04T21:52:03.283Z</time></trkpt><trkpt lat="33.4681517" lon="9.3358867"><ele>101.0</ele><time>2026-04-04T21:52:04.283Z</time></trkpt><trkpt lat="33.4680433" lon="9.33559"><ele>101.0</ele><time>2026-04-04T21:52:05.282Z</time></trkpt><trkpt lat="33.4679383" lon="9.3352917"><ele>101.0</ele><time>2026-04-04T21:52:06.283Z</time></trkpt><trkpt lat="33.4678333" lon="9.33499"><ele>101.0</ele><time>2026-04-04T21:52:07.282Z</time></trkpt><trkpt lat="33.4677317" lon="9.3346883"><ele>100.5</ele><time>2026-04-04T21:52:08.285Z</time></trkpt><trkpt lat="33.4676333" lon="9.3343817"><ele>100.0</ele><time>2026-04-04T21:52:09.282Z</time></trkpt><trkpt lat="33.467535" lon="9.3340733"><ele>99.5</ele><time>2026-04-04T21:52:10.286Z</time></trkpt><trkpt lat="33.46744" lon="9.3337583"><ele>99.0</ele><time>2026-04-04T21:52:11.285Z</time></trkpt><trkpt lat="33.4673433" lon="9.333445"><ele>99.0</ele><time>2026-04-04T21:52:12.285Z</time></trkpt><trkpt lat="33.46725" lon="9.3331317"><ele>99.0</ele><time>2026-04-04T21:52:13.285Z</time></trkpt><trkpt lat="33.4671517" lon="9.3328217"><ele>100.0</ele><time>2026-04-04T21:52:14.285Z</time></trkpt><trkpt lat="33.4670583" lon="9.3325117"><ele>101.0</ele><time>2026-04-04T21:52:15.285Z</time></trkpt><trkpt lat="33.46696" lon="9.3322"><ele>101.0</ele><time>2026-04-04T21:52:16.285Z</time></trkpt><trkpt lat="33.4668667" lon="9.3318883"><ele>101.0</ele><time>2026-04-04T21:52:17.286Z</time></trkpt><trkpt lat="33.46677" lon="9.33158"><ele>100.5</ele><time>2026-04-04T21:52:18.285Z</time></trkpt><trkpt lat="33.4666767" lon="9.3312717"><ele>100.0</ele><time>2026-04-04T21:52:19.286Z</time></trkpt><trkpt lat="33.4665817" lon="9.330965"><ele>100.0</ele><time>2026-04-04T21:52:20.285Z</time></trkpt><trkpt lat="33.4664883" lon="9.3306567"><ele>100.0</ele><time>2026-04-04T21:52:21.286Z</time></trkpt><trkpt lat="33.4663933" lon="9.3303483"><ele>99.5</ele><time>2026-04-04T21:52:22.285Z</time></trkpt><trkpt lat="33.4663" lon="9.33004"><ele>99.0</ele><time>2026-04-04T21:52:23.285Z</time></trkpt><trkpt lat="33.4662067" lon="9.3297333"><ele>99.5</ele><time>2026-04-04T21:52:24.285Z</time></trkpt><trkpt lat="33.4661133" lon="9.329425"><ele>100.0</ele><time>2026-04-04T21:52:25.285Z</time></trkpt><trkpt lat="33.4660183" lon="9.3291183"><ele>100.0</ele><time>2026-04-04T21:52:26.285Z</time></trkpt><trkpt lat="33.4659233" lon="9.3288083"><ele>100.0</ele><time>2026-04-04T21:52:27.285Z</time></trkpt><trkpt lat="33.4658267" lon="9.328495"><ele>100.0</ele><time>2026-04-04T21:52:28.285Z</time></trkpt><trkpt lat="33.4657333" lon="9.3281817"><ele>100.0</ele><time>2026-04-04T21:52:29.286Z</time></trkpt><trkpt lat="33.46564" lon="9.327875"><ele>99.0</ele><time>2026-04-04T21:52:30.285Z</time></trkpt><trkpt lat="33.46555" lon="9.3275783"><ele>98.0</ele><time>2026-04-04T21:52:31.285Z</time></trkpt><trkpt lat="33.46546" lon="9.32728"><ele>98.5</ele><time>2026-04-04T21:52:32.286Z</time></trkpt><trkpt lat="33.4653683" lon="9.3269833"><ele>99.0</ele><time>2026-04-04T21:52:33.285Z</time></trkpt><trkpt lat="33.4652767" lon="9.326685"><ele>99.0</ele><time>2026-04-04T21:52:34.285Z</time></trkpt><trkpt lat="33.4651867" lon="9.3263883"><ele>99.0</ele><time>2026-04-04T21:52:35.285Z</time></trkpt><trkpt lat="33.4650967" lon="9.32609"><ele>99.0</ele><time>2026-04-04T21:52:36.285Z</time></trkpt><trkpt lat="33.4650067" lon="9.325795"><ele>99.0</ele><time>2026-04-04T21:52:37.285Z</time></trkpt><trkpt lat="33.4649183" lon="9.3255033"><ele>99.0</ele><time>2026-04-04T21:52:38.285Z</time></trkpt><trkpt lat="33.46483" lon="9.3252133"><ele>99.0</ele><time>2026-04-04T21:52:39.286Z</time></trkpt><trkpt lat="33.4647417" lon="9.3249233"><ele>99.5</ele><time>2026-04-04T21:52:40.285Z</time></trkpt><trkpt lat="33.4646517" lon="9.32463"><ele>100.0</ele><time>2026-04-04T21:52:41.286Z</time></trkpt><trkpt lat="33.4645617" lon="9.3243367"><ele>100.5</ele><time>2026-04-04T21:52:42.286Z</time></trkpt><trkpt lat="33.46447" lon="9.32404"><ele>101.0</ele><time>2026-04-04T21:52:43.288Z</time></trkpt><trkpt lat="33.4643783" lon="9.3237417"><ele>101.5</ele><time>2026-04-04T21:52:44.285Z</time></trkpt><trkpt lat="33.4642883" lon="9.3234417"><ele>102.0</ele><time>2026-04-04T21:52:45.286Z</time></trkpt><trkpt lat="33.4641967" lon="9.3231417"><ele>101.5</ele><time>2026-04-04T21:52:46.285Z</time></trkpt><trkpt lat="33.464105" lon="9.3228417"><ele>101.0</ele><time>2026-04-04T21:52:47.285Z</time></trkpt><trkpt lat="33.4640117" lon="9.3225433"><ele>101.0</ele><time>2026-04-04T21:52:48.285Z</time></trkpt><trkpt lat="33.46392" lon="9.322245"><ele>101.0</ele><time>2026-04-04T21:52:49.285Z</time></trkpt><trkpt lat="33.4638283" lon="9.3219483"><ele>100.0</ele><time>2026-04-04T21:52:50.287Z</time></trkpt><trkpt lat="33.4637367" lon="9.3216533"><ele>99.0</ele><time>2026-04-04T21:52:51.286Z</time></trkpt><trkpt lat="33.463645" lon="9.3213567"><ele>99.0</ele><time>2026-04-04T21:52:52.284Z</time></trkpt><trkpt lat="33.463555" lon="9.3210567"><ele>99.0</ele><time>2026-04-04T21:52:53.285Z</time></trkpt><trkpt lat="33.4634633" lon="9.3207567"><ele>99.5</ele><time>2026-04-04T21:52:54.285Z</time></trkpt><trkpt lat="33.4633683" lon="9.3204533"><ele>100.0</ele><time>2026-04-04T21:52:55.285Z</time></trkpt><trkpt lat="33.4632733" lon="9.3201467"><ele>100.0</ele><time>2026-04-04T21:52:56.285Z</time></trkpt><trkpt lat="33.4631783" lon="9.3198383"><ele>100.0</ele><time>2026-04-04T21:52:57.285Z</time></trkpt><trkpt lat="33.4630833" lon="9.3195283"><ele>100.5</ele><time>2026-04-04T21:52:58.285Z</time></trkpt><trkpt lat="33.4629883" lon="9.3192183"><ele>101.0</ele><time>2026-04-04T21:52:59.285Z</time></trkpt><trkpt lat="33.46289" lon="9.318905"><ele>100.0</ele><time>2026-04-04T21:53:00.285Z</time></trkpt><trkpt lat="33.462795" lon="9.3185917"><ele>99.0</ele><time>2026-04-04T21:53:01.286Z</time></trkpt><trkpt lat="33.4626983" lon="9.31828"><ele>99.5</ele><time>2026-04-04T21:53:02.285Z</time></trkpt><trkpt lat="33.4626033" lon="9.31797"><ele>100.0</ele><time>2026-04-04T21:53:03.285Z</time></trkpt><trkpt lat="33.46251" lon="9.317665"><ele>100.0</ele><time>2026-04-04T21:53:04.286Z</time></trkpt><trkpt lat="33.462415" lon="9.3173617"><ele>100.0</ele><time>2026-04-04T21:53:05.286Z</time></trkpt><trkpt lat="33.4623217" lon="9.3170617"><ele>102.0</ele><time>2026-04-04T21:53:06.286Z</time></trkpt><trkpt lat="33.4622283" lon="9.3167617"><ele>104.0</ele><time>2026-04-04T21:53:07.285Z</time></trkpt><trkpt lat="33.4621367" lon="9.3164617"><ele>103.5</ele><time>2026-04-04T21:53:08.286Z</time></trkpt><trkpt lat="33.462045" lon="9.3161617"><ele>103.0</ele><time>2026-04-04T21:53:09.285Z</time></trkpt><trkpt lat="33.461955" lon="9.3158617"><ele>102.0</ele><time>2026-04-04T21:53:10.285Z</time></trkpt><trkpt lat="33.4618633" lon="9.315565"><ele>101.0</ele><time>2026-04-04T21:53:11.286Z</time></trkpt><trkpt lat="33.4617767" lon="9.3152783"><ele>101.0</ele><time>2026-04-04T21:53:12.285Z</time></trkpt><trkpt lat="33.46169" lon="9.3150017"><ele>101.0</ele><time>2026-04-04T21:53:13.285Z</time></trkpt><trkpt lat="33.461605" lon="9.3147267"><ele>100.5</ele><time>2026-04-04T21:53:14.284Z</time></trkpt><trkpt lat="33.4615217" lon="9.3144517"><ele>100.0</ele><time>2026-04-04T21:53:15.284Z</time></trkpt><trkpt lat="33.461435" lon="9.314175"><ele>100.0</ele><time>2026-04-04T21:53:16.285Z</time></trkpt><trkpt lat="33.46135" lon="9.313895"><ele>100.0</ele><time>2026-04-04T21:53:17.284Z</time></trkpt><trkpt lat="33.4612617" lon="9.3136083"><ele>100.0</ele><time>2026-04-04T21:53:18.284Z</time></trkpt><trkpt lat="33.461175" lon="9.3133183"><ele>100.0</ele><time>2026-04-04T21:53:19.285Z</time></trkpt><trkpt lat="33.4610883" lon="9.3130267"><ele>99.0</ele><time>2026-04-04T21:53:20.284Z</time></trkpt><trkpt lat="33.461" lon="9.312735"><ele>98.0</ele><time>2026-04-04T21:53:21.284Z</time></trkpt><trkpt lat="33.46091" lon="9.31244"><ele>98.5</ele><time>2026-04-04T21:53:22.284Z</time></trkpt><trkpt lat="33.4608217" lon="9.3121433"><ele>99.0</ele><time>2026-04-04T21:53:23.284Z</time></trkpt><trkpt lat="33.4607283" lon="9.3118417"><ele>99.0</ele><time>2026-04-04T21:53:24.285Z</time></trkpt><trkpt lat="33.4606333" lon="9.3115383"><ele>99.0</ele><time>2026-04-04T21:53:25.284Z</time></trkpt><trkpt lat="33.46054" lon="9.3112333"><ele>98.0</ele><time>2026-04-04T21:53:26.285Z</time></trkpt><trkpt lat="33.4604467" lon="9.310925"><ele>97.0</ele><time>2026-04-04T21:53:27.284Z</time></trkpt><trkpt lat="33.4603533" lon="9.31062"><ele>98.0</ele><time>2026-04-04T21:53:28.284Z</time></trkpt><trkpt lat="33.4602617" lon="9.3103133"><ele>99.0</ele><time>2026-04-04T21:53:29.284Z</time></trkpt><trkpt lat="33.4601683" lon="9.3100067"><ele>99.5</ele><time>2026-04-04T21:53:30.284Z</time></trkpt><trkpt lat="33.4600733" lon="9.3096967"><ele>100.0</ele><time>2026-04-04T21:53:31.284Z</time></trkpt><trkpt lat="33.45998" lon="9.3093883"><ele>100.0</ele><time>2026-04-04T21:53:32.285Z</time></trkpt><trkpt lat="33.4598833" lon="9.3090783"><ele>100.0</ele><time>2026-04-04T21:53:33.285Z</time></trkpt><trkpt lat="33.4597883" lon="9.30877"><ele>100.0</ele><time>2026-04-04T21:53:34.286Z</time></trkpt><trkpt lat="33.4596933" lon="9.3084633"><ele>100.0</ele><time>2026-04-04T21:53:35.285Z</time></trkpt><trkpt lat="33.4596017" lon="9.30817"><ele>99.5</ele><time>2026-04-04T21:53:36.285Z</time></trkpt><trkpt lat="33.4595117" lon="9.3078867"><ele>99.0</ele><time>2026-04-04T21:53:37.284Z</time></trkpt><trkpt lat="33.459425" lon="9.3076"><ele>99.0</ele><time>2026-04-04T21:53:38.284Z</time></trkpt><trkpt lat="33.4593367" lon="9.3073067"><ele>99.0</ele><time>2026-04-04T21:53:39.284Z</time></trkpt><trkpt lat="33.459245" lon="9.30701"><ele>99.0</ele><time>2026-04-04T21:53:40.284Z</time></trkpt><trkpt lat="33.4591517" lon="9.3067083"><ele>99.0</ele><time>2026-04-04T21:53:41.287Z</time></trkpt><trkpt lat="33.4590567" lon="9.3064067"><ele>99.5</ele><time>2026-04-04T21:53:42.284Z</time></trkpt><trkpt lat="33.4589633" lon="9.3061"><ele>100.0</ele><time>2026-04-04T21:53:43.285Z</time></trkpt><trkpt lat="33.45887" lon="9.3057917"><ele>101.5</ele><time>2026-04-04T21:53:44.284Z</time></trkpt><trkpt lat="33.4587783" lon="9.30548"><ele>103.0</ele><time>2026-04-04T21:53:45.284Z</time></trkpt><trkpt lat="33.458685" lon="9.3051667"><ele>103.0</ele><time>2026-04-04T21:53:46.285Z</time></trkpt><trkpt lat="33.4585883" lon="9.304855"><ele>103.0</ele><time>2026-04-04T21:53:47.285Z</time></trkpt><trkpt lat="33.4584917" lon="9.3045417"><ele>102.5</ele><time>2026-04-04T21:53:48.285Z</time></trkpt><trkpt lat="33.4583983" lon="9.3042267"><ele>102.0</ele><time>2026-04-04T21:53:49.282Z</time></trkpt><trkpt lat="33.4583033" lon="9.3039117"><ele>102.0</ele><time>2026-04-04T21:53:50.285Z</time></trkpt><trkpt lat="33.4582067" lon="9.3035917"><ele>102.0</ele><time>2026-04-04T21:53:51.286Z</time></trkpt><trkpt lat="33.4581083" lon="9.303275"><ele>102.0</ele><time>2026-04-04T21:53:52.285Z</time></trkpt><trkpt lat="33.4580133" lon="9.3029583"><ele>102.0</ele><time>2026-04-04T21:53:53.284Z</time></trkpt><trkpt lat="33.457915" lon="9.302645"><ele>102.0</ele><time>2026-04-04T21:53:54.284Z</time></trkpt><trkpt lat="33.45782" lon="9.3023367"><ele>102.0</ele><time>2026-04-04T21:53:55.285Z</time></trkpt><trkpt lat="33.4577283" lon="9.3020333"><ele>102.0</ele><time>2026-04-04T21:53:56.284Z</time></trkpt><trkpt lat="33.4576417" lon="9.3017317"><ele>102.0</ele><time>2026-04-04T21:53:57.284Z</time></trkpt><trkpt lat="33.4575567" lon="9.3014317"><ele>101.5</ele><time>2026-04-04T21:53:58.284Z</time></trkpt><trkpt lat="33.457475" lon="9.3011267"><ele>101.0</ele><time>2026-04-04T21:53:59.285Z</time></trkpt><trkpt lat="33.4573967" lon="9.3008183"><ele>101.5</ele><time>2026-04-04T21:54:00.285Z</time></trkpt><trkpt lat="33.4573183" lon="9.3005083"><ele>102.0</ele><time>2026-04-04T21:54:01.285Z</time></trkpt><trkpt lat="33.45724" lon="9.300195"><ele>102.0</ele><time>2026-04-04T21:54:02.285Z</time></trkpt><trkpt lat="33.4571683" lon="9.29988"><ele>102.0</ele><time>2026-04-04T21:54:03.285Z</time></trkpt><trkpt lat="33.4570983" lon="9.2995667"><ele>103.0</ele><time>2026-04-04T21:54:04.284Z</time></trkpt><trkpt lat="33.4570333" lon="9.299255"><ele>104.0</ele><time>2026-04-04T21:54:05.285Z</time></trkpt><trkpt lat="33.45697" lon="9.298945"><ele>103.0</ele><time>2026-04-04T21:54:06.285Z</time></trkpt><trkpt lat="33.4569117" lon="9.298635"><ele>102.0</ele><time>2026-04-04T21:54:07.284Z</time></trkpt><trkpt lat="33.456855" lon="9.298325"><ele>103.0</ele><time>2026-04-04T21:54:08.285Z</time></trkpt><trkpt lat="33.4568" lon="9.2980133"><ele>104.0</ele><time>2026-04-04T21:54:09.285Z</time></trkpt><trkpt lat="33.4567483" lon="9.2977"><ele>104.0</ele><time>2026-04-04T21:54:10.285Z</time></trkpt><trkpt lat="33.4566983" lon="9.2973817"><ele>104.0</ele><time>2026-04-04T21:54:11.284Z</time></trkpt><trkpt lat="33.456655" lon="9.297065"><ele>105.0</ele><time>2026-04-04T21:54:12.285Z</time></trkpt><trkpt lat="33.4566167" lon="9.2967467"><ele>106.0</ele><time>2026-04-04T21:54:13.284Z</time></trkpt><trkpt lat="33.4565783" lon="9.2964283"><ele>107.5</ele><time>2026-04-04T21:54:14.284Z</time></trkpt><trkpt lat="33.4565417" lon="9.29611"><ele>109.0</ele><time>2026-04-04T21:54:15.284Z</time></trkpt><trkpt lat="33.4565067" lon="9.2957917"><ele>109.5</ele><time>2026-04-04T21:54:16.284Z</time></trkpt><trkpt lat="33.4564717" lon="9.295475"><ele>110.0</ele><time>2026-04-04T21:54:17.285Z</time></trkpt><trkpt lat="33.456435" lon="9.2951583"><ele>110.0</ele><time>2026-04-04T21:54:18.284Z</time></trkpt><trkpt lat="33.4564017" lon="9.2948367"><ele>110.0</ele><time>2026-04-04T21:54:19.285Z</time></trkpt><trkpt lat="33.4563667" lon="9.2945133"><ele>110.5</ele><time>2026-04-04T21:54:20.284Z</time></trkpt><trkpt lat="33.456335" lon="9.29419"><ele>111.0</ele><time>2026-04-04T21:54:21.287Z</time></trkpt><trkpt lat="33.4563033" lon="9.2938633"><ele>113.0</ele><time>2026-04-04T21:54:22.284Z</time></trkpt><trkpt lat="33.45627" lon="9.2935367"><ele>115.0</ele><time>2026-04-04T21:54:23.285Z</time></trkpt><trkpt lat="33.4562367" lon="9.2932133"><ele>115.5</ele><time>2026-04-04T21:54:24.285Z</time></trkpt><trkpt lat="33.4562067" lon="9.2928967"><ele>116.0</ele><time>2026-04-04T21:54:25.285Z</time></trkpt><trkpt lat="33.456175" lon="9.2925933"><ele>116.0</ele><time>2026-04-04T21:54:26.284Z</time></trkpt><trkpt lat="33.4561417" lon="9.2922967"><ele>116.0</ele><time>2026-04-04T21:54:27.285Z</time></trkpt><trkpt lat="33.4561083" lon="9.2919933"><ele>115.5</ele><time>2026-04-04T21:54:28.285Z</time></trkpt><trkpt lat="33.456075" lon="9.2916817"><ele>115.0</ele><time>2026-04-04T21:54:29.286Z</time></trkpt><trkpt lat="33.4560433" lon="9.291365"><ele>114.5</ele><time>2026-04-04T21:54:30.285Z</time></trkpt><trkpt lat="33.4560117" lon="9.291045"><ele>114.0</ele><time>2026-04-04T21:54:31.285Z</time></trkpt><trkpt lat="33.4559833" lon="9.2907233"><ele>115.0</ele><time>2026-04-04T21:54:32.286Z</time></trkpt><trkpt lat="33.4559533" lon="9.2903983"><ele>116.0</ele><time>2026-04-04T21:54:33.286Z</time></trkpt><trkpt lat="33.4559233" lon="9.2900733"><ele>115.5</ele><time>2026-04-04T21:54:34.284Z</time></trkpt><trkpt lat="33.4558933" lon="9.2897483"><ele>115.0</ele><time>2026-04-04T21:54:35.284Z</time></trkpt><trkpt lat="33.4558583" lon="9.2894267"><ele>115.0</ele><time>2026-04-04T21:54:36.285Z</time></trkpt><trkpt lat="33.45583" lon="9.2891083"><ele>115.0</ele><time>2026-04-04T21:54:37.285Z</time></trkpt><trkpt lat="33.4557983" lon="9.2887967"><ele>113.5</ele><time>2026-04-04T21:54:38.285Z</time></trkpt><trkpt lat="33.4557667" lon="9.2884917"><ele>112.0</ele><time>2026-04-04T21:54:39.285Z</time></trkpt><trkpt lat="33.4557383" lon="9.2882"><ele>111.5</ele><time>2026-04-04T21:54:40.285Z</time></trkpt><trkpt lat="33.45571" lon="9.287915"><ele>111.0</ele><time>2026-04-04T21:54:41.285Z</time></trkpt><trkpt lat="33.4556817" lon="9.2876267"><ele>111.0</ele><time>2026-04-04T21:54:42.286Z</time></trkpt><trkpt lat="33.455655" lon="9.2873333"><ele>111.0</ele><time>2026-04-04T21:54:43.286Z</time></trkpt><trkpt lat="33.455625" lon="9.2870333"><ele>112.0</ele><time>2026-04-04T21:54:44.285Z</time></trkpt><trkpt lat="33.455595" lon="9.2867267"><ele>113.0</ele><time>2026-04-04T21:54:45.285Z</time></trkpt><trkpt lat="33.45556" lon="9.286415"><ele>113.0</ele><time>2026-04-04T21:54:46.285Z</time></trkpt><trkpt lat="33.455525" lon="9.2861033"><ele>113.0</ele><time>2026-04-04T21:54:47.285Z</time></trkpt><trkpt lat="33.45549" lon="9.2857917"><ele>112.5</ele><time>2026-04-04T21:54:48.285Z</time></trkpt><trkpt lat="33.45546" lon="9.2854783"><ele>112.0</ele><time>2026-04-04T21:54:49.285Z</time></trkpt><trkpt lat="33.45543" lon="9.285165"><ele>111.5</ele><time>2026-04-04T21:54:50.285Z</time></trkpt><trkpt lat="33.4553983" lon="9.2848483"><ele>111.0</ele><time>2026-04-04T21:54:51.285Z</time></trkpt><trkpt lat="33.4553633" lon="9.28453"><ele>111.0</ele><time>2026-04-04T21:54:52.285Z</time></trkpt><trkpt lat="33.45533" lon="9.2842117"><ele>111.0</ele><time>2026-04-04T21:54:53.285Z</time></trkpt><trkpt lat="33.4552967" lon="9.28389"><ele>111.0</ele><time>2026-04-04T21:54:54.285Z</time></trkpt><trkpt lat="33.455265" lon="9.28357"><ele>111.0</ele><time>2026-04-04T21:54:55.285Z</time></trkpt><trkpt lat="33.455235" lon="9.28325"><ele>110.5</ele><time>2026-04-04T21:54:56.284Z</time></trkpt><trkpt lat="33.4552033" lon="9.28293"><ele>110.0</ele><time>2026-04-04T21:54:57.285Z</time></trkpt><trkpt lat="33.455175" lon="9.28262"><ele>110.0</ele><time>2026-04-04T21:54:58.285Z</time></trkpt><trkpt lat="33.4551483" lon="9.282315"><ele>110.0</ele><time>2026-04-04T21:54:59.285Z</time></trkpt><trkpt lat="33.4551233" lon="9.2820117"><ele>110.0</ele><time>2026-04-04T21:55:00.285Z</time></trkpt><trkpt lat="33.4551033" lon="9.2817083"><ele>110.0</ele><time>2026-04-04T21:55:01.285Z</time></trkpt><trkpt lat="33.455085" lon="9.2814017"><ele>110.0</ele><time>2026-04-04T21:55:02.285Z</time></trkpt><trkpt lat="33.4550717" lon="9.2810933"><ele>110.0</ele><time>2026-04-04T21:55:03.286Z</time></trkpt><trkpt lat="33.45506" lon="9.28078"><ele>110.0</ele><time>2026-04-04T21:55:04.286Z</time></trkpt><trkpt lat="33.4550533" lon="9.2804667"><ele>110.0</ele><time>2026-04-04T21:55:05.285Z</time></trkpt><trkpt lat="33.4550533" lon="9.2801483"><ele>110.0</ele><time>2026-04-04T21:55:06.285Z</time></trkpt><trkpt lat="33.4550567" lon="9.2798283"><ele>110.0</ele><time>2026-04-04T21:55:07.285Z</time></trkpt><trkpt lat="33.455065" lon="9.2795083"><ele>110.0</ele><time>2026-04-04T21:55:08.285Z</time></trkpt><trkpt lat="33.4550767" lon="9.2791833"><ele>110.0</ele><time>2026-04-04T21:55:09.285Z</time></trkpt><trkpt lat="33.4550917" lon="9.27885"><ele>110.0</ele><time>2026-04-04T21:55:10.285Z</time></trkpt><trkpt lat="33.4551067" lon="9.2785083"><ele>110.0</ele><time>2026-04-04T21:55:11.286Z</time></trkpt><trkpt lat="33.4551233" lon="9.2781617"><ele>109.5</ele><time>2026-04-04T21:55:12.285Z</time></trkpt><trkpt lat="33.4551467" lon="9.2778133"><ele>109.0</ele><time>2026-04-04T21:55:13.285Z</time></trkpt><trkpt lat="33.45517" lon="9.2774633"><ele>108.5</ele><time>2026-04-04T21:55:14.286Z</time></trkpt><trkpt lat="33.4551967" lon="9.2771117"><ele>108.0</ele><time>2026-04-04T21:55:15.286Z</time></trkpt><trkpt lat="33.4552217" lon="9.2767567"><ele>107.0</ele><time>2026-04-04T21:55:16.285Z</time></trkpt><trkpt lat="33.4552467" lon="9.2764017"><ele>106.0</ele><time>2026-04-04T21:55:17.286Z</time></trkpt><trkpt lat="33.4552683" lon="9.276045"><ele>106.0</ele><time>2026-04-04T21:55:18.286Z</time></trkpt><trkpt lat="33.45529" lon="9.27569"><ele>106.0</ele><time>2026-04-04T21:55:19.286Z</time></trkpt><trkpt lat="33.4553083" lon="9.2753433"><ele>106.0</ele><time>2026-04-04T21:55:20.285Z</time></trkpt><trkpt lat="33.45533" lon="9.2750167"><ele>106.0</ele><time>2026-04-04T21:55:21.286Z</time></trkpt><trkpt lat="33.4553517" lon="9.2747083"><ele>107.0</ele><time>2026-04-04T21:55:22.286Z</time></trkpt><trkpt lat="33.455375" lon="9.2744133"><ele>108.0</ele><time>2026-04-04T21:55:23.285Z</time></trkpt><trkpt lat="33.4554" lon="9.2741183"><ele>108.0</ele><time>2026-04-04T21:55:24.285Z</time></trkpt><trkpt lat="33.45542" lon="9.273825"><ele>108.0</ele><time>2026-04-04T21:55:25.286Z</time></trkpt><trkpt lat="33.4554383" lon="9.2735333"><ele>108.5</ele><time>2026-04-04T21:55:26.285Z</time></trkpt><trkpt lat="33.4554583" lon="9.27324"><ele>109.0</ele><time>2026-04-04T21:55:27.285Z</time></trkpt><trkpt lat="33.4554783" lon="9.2729483"><ele>109.0</ele><time>2026-04-04T21:55:28.286Z</time></trkpt><trkpt lat="33.4555" lon="9.272655"><ele>109.0</ele><time>2026-04-04T21:55:29.286Z</time></trkpt><trkpt lat="33.4555217" lon="9.2723583"><ele>109.0</ele><time>2026-04-04T21:55:30.285Z</time></trkpt><trkpt lat="33.4555417" lon="9.2720617"><ele>109.0</ele><time>2026-04-04T21:55:31.285Z</time></trkpt><trkpt lat="33.4555617" lon="9.2717617"><ele>109.0</ele><time>2026-04-04T21:55:32.286Z</time></trkpt><trkpt lat="33.4555817" lon="9.2714583"><ele>109.0</ele><time>2026-04-04T21:55:33.285Z</time></trkpt><trkpt lat="33.455605" lon="9.2711533"><ele>108.0</ele><time>2026-04-04T21:55:34.285Z</time></trkpt><trkpt lat="33.4556267" lon="9.2708467"><ele>107.0</ele><time>2026-04-04T21:55:35.285Z</time></trkpt><trkpt lat="33.4556483" lon="9.270535"><ele>106.5</ele><time>2026-04-04T21:55:36.285Z</time></trkpt><trkpt lat="33.4556683" lon="9.2702217"><ele>106.0</ele><time>2026-04-04T21:55:37.285Z</time></trkpt><trkpt lat="33.4556867" lon="9.2699083"><ele>106.0</ele><time>2026-04-04T21:55:38.285Z</time></trkpt><trkpt lat="33.45571" lon="9.2695933"><ele>106.0</ele><time>2026-04-04T21:55:39.286Z</time></trkpt><trkpt lat="33.45573" lon="9.2692783"><ele>106.0</ele><time>2026-04-04T21:55:40.285Z</time></trkpt><trkpt lat="33.4557533" lon="9.2689617"><ele>106.0</ele><time>2026-04-04T21:55:41.285Z</time></trkpt><trkpt lat="33.4557767" lon="9.268645"><ele>106.0</ele><time>2026-04-04T21:55:42.285Z</time></trkpt><trkpt lat="33.4557983" lon="9.2683283"><ele>106.0</ele><time>2026-04-04T21:55:43.286Z</time></trkpt><trkpt lat="33.4558183" lon="9.2680133"><ele>105.0</ele><time>2026-04-04T21:55:44.285Z</time></trkpt><trkpt lat="33.45584" lon="9.2677"><ele>104.0</ele><time>2026-04-04T21:55:45.285Z</time></trkpt><trkpt lat="33.4558617" lon="9.2673833"><ele>103.0</ele><time>2026-04-04T21:55:46.285Z</time></trkpt><trkpt lat="33.455885" lon="9.2670717"><ele>102.0</ele><time>2026-04-04T21:55:47.286Z</time></trkpt><trkpt lat="33.455905" lon="9.2667583"><ele>102.0</ele><time>2026-04-04T21:55:48.285Z</time></trkpt><trkpt lat="33.4559267" lon="9.266445"><ele>102.0</ele><time>2026-04-04T21:55:49.286Z</time></trkpt><trkpt lat="33.4559467" lon="9.26613"><ele>101.5</ele><time>2026-04-04T21:55:50.286Z</time></trkpt><trkpt lat="33.4559667" lon="9.2658133"><ele>101.0</ele><time>2026-04-04T21:55:51.285Z</time></trkpt><trkpt lat="33.4559883" lon="9.2654967"><ele>101.0</ele><time>2026-04-04T21:55:52.285Z</time></trkpt><trkpt lat="33.4560133" lon="9.26518"><ele>101.0</ele><time>2026-04-04T21:55:53.285Z</time></trkpt><trkpt lat="33.4560367" lon="9.2648617"><ele>101.0</ele><time>2026-04-04T21:55:54.285Z</time></trkpt><trkpt lat="33.45606" lon="9.264545"><ele>101.0</ele><time>2026-04-04T21:55:55.285Z</time></trkpt><trkpt lat="33.4560817" lon="9.2642267"><ele>100.0</ele><time>2026-04-04T21:55:56.285Z</time></trkpt><trkpt lat="33.4561033" lon="9.2639083"><ele>99.0</ele><time>2026-04-04T21:55:57.285Z</time></trkpt><trkpt lat="33.456125" lon="9.2635883"><ele>99.0</ele><time>2026-04-04T21:55:58.285Z</time></trkpt><trkpt lat="33.456145" lon="9.2632683"><ele>99.0</ele><time>2026-04-04T21:55:59.286Z</time></trkpt><trkpt lat="33.456165" lon="9.2629467"><ele>99.0</ele><time>2026-04-04T21:56:00.286Z</time></trkpt><trkpt lat="33.456185" lon="9.262625"><ele>99.0</ele><time>2026-04-04T21:56:01.285Z</time></trkpt><trkpt lat="33.4562033" lon="9.2623067"><ele>98.5</ele><time>2026-04-04T21:56:02.285Z</time></trkpt><trkpt lat="33.456225" lon="9.2619883"><ele>98.0</ele><time>2026-04-04T21:56:03.282Z</time></trkpt><trkpt lat="33.4562467" lon="9.2616717"><ele>98.0</ele><time>2026-04-04T21:56:04.283Z</time></trkpt><trkpt lat="33.4562683" lon="9.261355"><ele>98.0</ele><time>2026-04-04T21:56:05.284Z</time></trkpt><trkpt lat="33.45629" lon="9.2610433"><ele>97.0</ele><time>2026-04-04T21:56:06.285Z</time></trkpt><trkpt lat="33.4563133" lon="9.2607317"><ele>96.0</ele><time>2026-04-04T21:56:07.285Z</time></trkpt><trkpt lat="33.456335" lon="9.26042"><ele>96.0</ele><time>2026-04-04T21:56:08.283Z</time></trkpt><trkpt lat="33.4563583" lon="9.2601067"><ele>96.0</ele><time>2026-04-04T21:56:09.284Z</time></trkpt><trkpt lat="33.45638" lon="9.2597967"><ele>96.0</ele><time>2026-04-04T21:56:10.285Z</time></trkpt><trkpt lat="33.4564017" lon="9.259485"><ele>96.0</ele><time>2026-04-04T21:56:11.286Z</time></trkpt><trkpt lat="33.45642" lon="9.259175"><ele>94.5</ele><time>2026-04-04T21:56:12.285Z</time></trkpt><trkpt lat="33.4564367" lon="9.2588667"><ele>93.0</ele><time>2026-04-04T21:56:13.285Z</time></trkpt><trkpt lat="33.456455" lon="9.2585583"><ele>93.0</ele><time>2026-04-04T21:56:14.285Z</time></trkpt><trkpt lat="33.4564767" lon="9.2582483"><ele>93.0</ele><time>2026-04-04T21:56:15.286Z</time></trkpt><trkpt lat="33.456495" lon="9.2579317"><ele>93.5</ele><time>2026-04-04T21:56:16.285Z</time></trkpt><trkpt lat="33.4565183" lon="9.2576133"><ele>94.0</ele><time>2026-04-04T21:56:17.285Z</time></trkpt><trkpt lat="33.4565417" lon="9.2572967"><ele>93.5</ele><time>2026-04-04T21:56:18.284Z</time></trkpt><trkpt lat="33.4565667" lon="9.256985"><ele>93.0</ele><time>2026-04-04T21:56:19.284Z</time></trkpt><trkpt lat="33.45659" lon="9.2566767"><ele>92.5</ele><time>2026-04-04T21:56:20.284Z</time></trkpt><trkpt lat="33.456615" lon="9.2563733"><ele>92.0</ele><time>2026-04-04T21:56:21.284Z</time></trkpt><trkpt lat="33.4566367" lon="9.25607"><ele>92.0</ele><time>2026-04-04T21:56:22.284Z</time></trkpt><trkpt lat="33.45666" lon="9.2557633"><ele>92.0</ele><time>2026-04-04T21:56:23.284Z</time></trkpt><trkpt lat="33.4566817" lon="9.2554517"><ele>92.5</ele><time>2026-04-04T21:56:24.285Z</time></trkpt><trkpt lat="33.4567033" lon="9.25514"><ele>93.0</ele><time>2026-04-04T21:56:25.284Z</time></trkpt><trkpt lat="33.4567233" lon="9.2548233"><ele>93.0</ele><time>2026-04-04T21:56:26.284Z</time></trkpt><trkpt lat="33.456745" lon="9.254505"><ele>93.0</ele><time>2026-04-04T21:56:27.284Z</time></trkpt><trkpt lat="33.4567633" lon="9.2541833"><ele>92.5</ele><time>2026-04-04T21:56:28.284Z</time></trkpt><trkpt lat="33.4567817" lon="9.25386"><ele>92.0</ele><time>2026-04-04T21:56:29.284Z</time></trkpt><trkpt lat="33.4568017" lon="9.2535367"><ele>92.0</ele><time>2026-04-04T21:56:30.284Z</time></trkpt><trkpt lat="33.4568233" lon="9.2532167"><ele>92.0</ele><time>2026-04-04T21:56:31.285Z</time></trkpt><trkpt lat="33.4568433" lon="9.2529"><ele>91.5</ele><time>2026-04-04T21:56:32.284Z</time></trkpt><trkpt lat="33.456865" lon="9.2525867"><ele>91.0</ele><time>2026-04-04T21:56:33.281Z</time></trkpt><trkpt lat="33.456885" lon="9.2522767"><ele>90.5</ele><time>2026-04-04T21:56:34.283Z</time></trkpt><trkpt lat="33.456905" lon="9.2519667"><ele>90.0</ele><time>2026-04-04T21:56:35.285Z</time></trkpt><trkpt lat="33.4569267" lon="9.2516583"><ele>88.5</ele><time>2026-04-04T21:56:36.283Z</time></trkpt><trkpt lat="33.4569483" lon="9.2513483"><ele>87.0</ele><time>2026-04-04T21:56:37.284Z</time></trkpt><trkpt lat="33.4569683" lon="9.25104"><ele>87.0</ele><time>2026-04-04T21:56:38.285Z</time></trkpt><trkpt lat="33.45699" lon="9.2507333"><ele>87.0</ele><time>2026-04-04T21:56:39.284Z</time></trkpt><trkpt lat="33.4570083" lon="9.2504283"><ele>87.0</ele><time>2026-04-04T21:56:40.284Z</time></trkpt><trkpt lat="33.4570333" lon="9.2501267"><ele>87.0</ele><time>2026-04-04T21:56:41.284Z</time></trkpt><trkpt lat="33.4570533" lon="9.2498233"><ele>88.0</ele><time>2026-04-04T21:56:42.285Z</time></trkpt><trkpt lat="33.457075" lon="9.2495183"><ele>89.0</ele><time>2026-04-04T21:56:43.284Z</time></trkpt><trkpt lat="33.457095" lon="9.2492067"><ele>88.0</ele><time>2026-04-04T21:56:44.284Z</time></trkpt><trkpt lat="33.4571167" lon="9.2488883"><ele>87.0</ele><time>2026-04-04T21:56:45.286Z</time></trkpt><trkpt lat="33.4571383" lon="9.2485667"><ele>87.0</ele><time>2026-04-04T21:56:46.284Z</time></trkpt><trkpt lat="33.4571617" lon="9.2482417"><ele>87.0</ele><time>2026-04-04T21:56:47.284Z</time></trkpt><trkpt lat="33.4571867" lon="9.2479133"><ele>87.5</ele><time>2026-04-04T21:56:48.284Z</time></trkpt><trkpt lat="33.45721" lon="9.2475833"><ele>88.0</ele><time>2026-04-04T21:56:49.284Z</time></trkpt><trkpt lat="33.4572333" lon="9.2472517"><ele>88.0</ele><time>2026-04-04T21:56:50.284Z</time></trkpt><trkpt lat="33.4572583" lon="9.2469183"><ele>88.0</ele><time>2026-04-04T21:56:51.286Z</time></trkpt><trkpt lat="33.45728" lon="9.2465833"><ele>88.0</ele><time>2026-04-04T21:56:52.284Z</time></trkpt><trkpt lat="33.4573033" lon="9.2462467"><ele>88.0</ele><time>2026-04-04T21:56:53.284Z</time></trkpt><trkpt lat="33.4573233" lon="9.24591"><ele>88.5</ele><time>2026-04-04T21:56:54.285Z</time></trkpt><trkpt lat="33.457345" lon="9.2455733"><ele>89.0</ele><time>2026-04-04T21:56:55.285Z</time></trkpt><trkpt lat="33.457365" lon="9.24524"><ele>89.0</ele><time>2026-04-04T21:56:56.284Z</time></trkpt><trkpt lat="33.4573917" lon="9.2449083"><ele>89.0</ele><time>2026-04-04T21:56:57.284Z</time></trkpt><trkpt lat="33.4574117" lon="9.244575"><ele>88.0</ele><time>2026-04-04T21:56:58.285Z</time></trkpt><trkpt lat="33.4574383" lon="9.244245"><ele>87.0</ele><time>2026-04-04T21:56:59.285Z</time></trkpt><trkpt lat="33.4574617" lon="9.2439167"><ele>87.0</ele><time>2026-04-04T21:57:00.284Z</time></trkpt><trkpt lat="33.4574833" lon="9.24359"><ele>87.0</ele><time>2026-04-04T21:57:01.284Z</time></trkpt><trkpt lat="33.4575017" lon="9.243265"><ele>87.5</ele><time>2026-04-04T21:57:02.284Z</time></trkpt><trkpt lat="33.4575233" lon="9.24294"><ele>88.0</ele><time>2026-04-04T21:57:03.284Z</time></trkpt><trkpt lat="33.4575433" lon="9.242615"><ele>89.0</ele><time>2026-04-04T21:57:04.284Z</time></trkpt><trkpt lat="33.4575683" lon="9.2422917"><ele>90.0</ele><time>2026-04-04T21:57:05.283Z</time></trkpt><trkpt lat="33.45759" lon="9.2419667"><ele>90.0</ele><time>2026-04-04T21:57:06.285Z</time></trkpt><trkpt lat="33.4576133" lon="9.24164"><ele>90.0</ele><time>2026-04-04T21:57:07.286Z</time></trkpt><trkpt lat="33.4576367" lon="9.24131"><ele>88.5</ele><time>2026-04-04T21:57:08.284Z</time></trkpt><trkpt lat="33.45766" lon="9.2409783"><ele>87.0</ele><time>2026-04-04T21:57:09.284Z</time></trkpt><trkpt lat="33.457685" lon="9.2406467"><ele>87.5</ele><time>2026-04-04T21:57:10.286Z</time></trkpt><trkpt lat="33.45771" lon="9.2403133"><ele>88.0</ele><time>2026-04-04T21:57:11.284Z</time></trkpt><trkpt lat="33.4577317" lon="9.23998"><ele>89.5</ele><time>2026-04-04T21:57:12.284Z</time></trkpt><trkpt lat="33.457755" lon="9.2396483"><ele>91.0</ele><time>2026-04-04T21:57:13.285Z</time></trkpt><trkpt lat="33.4577783" lon="9.2393117"><ele>91.0</ele><time>2026-04-04T21:57:14.284Z</time></trkpt><trkpt lat="33.4578017" lon="9.2389733"><ele>91.0</ele><time>2026-04-04T21:57:15.285Z</time></trkpt><trkpt lat="33.4578233" lon="9.2386317"><ele>89.0</ele><time>2026-04-04T21:57:16.285Z</time></trkpt><trkpt lat="33.45785" lon="9.23829"><ele>87.0</ele><time>2026-04-04T21:57:17.285Z</time></trkpt><trkpt lat="33.45787" lon="9.237945"><ele>87.0</ele><time>2026-04-04T21:57:18.284Z</time></trkpt><trkpt lat="33.457895" lon="9.2376017"><ele>87.0</ele><time>2026-04-04T21:57:19.285Z</time></trkpt><trkpt lat="33.4579167" lon="9.23726"><ele>87.5</ele><time>2026-04-04T21:57:20.286Z</time></trkpt><trkpt lat="33.4579417" lon="9.23692"><ele>88.0</ele><time>2026-04-04T21:57:21.287Z</time></trkpt><trkpt lat="33.4579633" lon="9.23658"><ele>86.5</ele><time>2026-04-04T21:57:22.285Z</time></trkpt><trkpt lat="33.4579867" lon="9.2362383"><ele>85.0</ele><time>2026-04-04T21:57:23.285Z</time></trkpt><trkpt lat="33.4580133" lon="9.2358983"><ele>86.0</ele><time>2026-04-04T21:57:24.284Z</time></trkpt><trkpt lat="33.4580383" lon="9.23556"><ele>87.0</ele><time>2026-04-04T21:57:25.285Z</time></trkpt><trkpt lat="33.45806" lon="9.23522"><ele>87.0</ele><time>2026-04-04T21:57:26.285Z</time></trkpt><trkpt lat="33.458085" lon="9.2348783"><ele>87.0</ele><time>2026-04-04T21:57:27.285Z</time></trkpt><trkpt lat="33.4581083" lon="9.2345367"><ele>87.0</ele><time>2026-04-04T21:57:28.285Z</time></trkpt><trkpt lat="33.4581283" lon="9.2341933"><ele>87.0</ele><time>2026-04-04T21:57:29.285Z</time></trkpt><trkpt lat="33.4581467" lon="9.2338517"><ele>85.5</ele><time>2026-04-04T21:57:30.284Z</time></trkpt><trkpt lat="33.4581733" lon="9.2335067"><ele>84.0</ele><time>2026-04-04T21:57:31.286Z</time></trkpt><trkpt lat="33.4581967" lon="9.23316"><ele>85.0</ele><time>2026-04-04T21:57:32.286Z</time></trkpt><trkpt lat="33.45822" lon="9.2328083"><ele>86.0</ele><time>2026-04-04T21:57:33.282Z</time></trkpt><trkpt lat="33.4582433" lon="9.2324517"><ele>87.0</ele><time>2026-04-04T21:57:34.282Z</time></trkpt><trkpt lat="33.4582667" lon="9.2320933"><ele>88.0</ele><time>2026-04-04T21:57:35.283Z</time></trkpt><trkpt lat="33.45829" lon="9.231735"><ele>88.0</ele><time>2026-04-04T21:57:36.282Z</time></trkpt><trkpt lat="33.4583167" lon="9.2313767"><ele>88.0</ele><time>2026-04-04T21:57:37.282Z</time></trkpt><trkpt lat="33.4583417" lon="9.2310167"><ele>88.0</ele><time>2026-04-04T21:57:38.281Z</time></trkpt><trkpt lat="33.4583683" lon="9.2306567"><ele>88.0</ele><time>2026-04-04T21:57:39.282Z</time></trkpt><trkpt lat="33.4583917" lon="9.230295"><ele>87.0</ele><time>2026-04-04T21:57:40.284Z</time></trkpt><trkpt lat="33.45842" lon="9.229935"><ele>86.0</ele><time>2026-04-04T21:57:41.285Z</time></trkpt><trkpt lat="33.4584433" lon="9.2295783"><ele>86.0</ele><time>2026-04-04T21:57:42.286Z</time></trkpt><trkpt lat="33.4584633" lon="9.229225"><ele>86.0</ele><time>2026-04-04T21:57:43.286Z</time></trkpt><trkpt lat="33.45848" lon="9.2288767"><ele>86.0</ele><time>2026-04-04T21:57:44.284Z</time></trkpt><trkpt lat="33.4585" lon="9.2285317"><ele>86.0</ele><time>2026-04-04T21:57:45.286Z</time></trkpt><trkpt lat="33.45852" lon="9.2281883"><ele>86.5</ele><time>2026-04-04T21:57:46.286Z</time></trkpt><trkpt lat="33.45854" lon="9.22785"><ele>87.0</ele><time>2026-04-04T21:57:47.286Z</time></trkpt><trkpt lat="33.4585617" lon="9.22751"><ele>88.0</ele><time>2026-04-04T21:57:48.285Z</time></trkpt><trkpt lat="33.4585867" lon="9.2271717"><ele>89.0</ele><time>2026-04-04T21:57:49.285Z</time></trkpt><trkpt lat="33.4586133" lon="9.2268333"><ele>89.0</ele><time>2026-04-04T21:57:50.285Z</time></trkpt><trkpt lat="33.4586417" lon="9.2264933"><ele>89.0</ele><time>2026-04-04T21:57:51.285Z</time></trkpt><trkpt lat="33.458665" lon="9.2261533"><ele>88.5</ele><time>2026-04-04T21:57:52.284Z</time></trkpt><trkpt lat="33.4586867" lon="9.2258083"><ele>88.0</ele><time>2026-04-04T21:57:53.285Z</time></trkpt><trkpt lat="33.4587067" lon="9.2254617"><ele>87.5</ele><time>2026-04-04T21:57:54.285Z</time></trkpt><trkpt lat="33.45873" lon="9.2251167"><ele>87.0</ele><time>2026-04-04T21:57:55.286Z</time></trkpt><trkpt lat="33.4587567" lon="9.2247717"><ele>87.0</ele><time>2026-04-04T21:57:56.286Z</time></trkpt><trkpt lat="33.4587817" lon="9.224425"><ele>87.0</ele><time>2026-04-04T21:57:57.285Z</time></trkpt><trkpt lat="33.45881" lon="9.224075"><ele>87.0</ele><time>2026-04-04T21:57:58.286Z</time></trkpt><trkpt lat="33.4588383" lon="9.223725"><ele>87.0</ele><time>2026-04-04T21:57:59.285Z</time></trkpt><trkpt lat="33.4588617" lon="9.223375"><ele>87.5</ele><time>2026-04-04T21:58:00.285Z</time></trkpt><trkpt lat="33.458885" lon="9.2230233"><ele>88.0</ele><time>2026-04-04T21:58:01.285Z</time></trkpt><trkpt lat="33.4589067" lon="9.2226683"><ele>88.0</ele><time>2026-04-04T21:58:02.286Z</time></trkpt><trkpt lat="33.45893" lon="9.222315"><ele>88.0</ele><time>2026-04-04T21:58:03.285Z</time></trkpt><trkpt lat="33.4589533" lon="9.22196"><ele>88.5</ele><time>2026-04-04T21:58:04.285Z</time></trkpt><trkpt lat="33.4589783" lon="9.221605"><ele>89.0</ele><time>2026-04-04T21:58:05.285Z</time></trkpt><trkpt lat="33.459" lon="9.2212517"><ele>89.5</ele><time>2026-04-04T21:58:06.285Z</time></trkpt><trkpt lat="33.4590267" lon="9.2208983"><ele>90.0</ele><time>2026-04-04T21:58:07.285Z</time></trkpt><trkpt lat="33.45905" lon="9.2205467"><ele>90.5</ele><time>2026-04-04T21:58:08.285Z</time></trkpt><trkpt lat="33.4590767" lon="9.220195"><ele>91.0</ele><time>2026-04-04T21:58:09.285Z</time></trkpt><trkpt lat="33.4591017" lon="9.2198433"><ele>90.0</ele><time>2026-04-04T21:58:10.286Z</time></trkpt><trkpt lat="33.4591267" lon="9.2194917"><ele>89.0</ele><time>2026-04-04T21:58:11.285Z</time></trkpt><trkpt lat="33.4591517" lon="9.2191417"><ele>88.0</ele><time>2026-04-04T21:58:12.285Z</time></trkpt><trkpt lat="33.459175" lon="9.21879"><ele>87.0</ele><time>2026-04-04T21:58:13.286Z</time></trkpt><trkpt lat="33.4592" lon="9.21844"><ele>86.5</ele><time>2026-04-04T21:58:14.283Z</time></trkpt><trkpt lat="33.459225" lon="9.2180883"><ele>86.0</ele><time>2026-04-04T21:58:15.285Z</time></trkpt><trkpt lat="33.4592433" lon="9.217735"><ele>86.0</ele><time>2026-04-04T21:58:16.284Z</time></trkpt><trkpt lat="33.4592683" lon="9.2173817"><ele>86.0</ele><time>2026-04-04T21:58:17.284Z</time></trkpt><trkpt lat="33.4592917" lon="9.2170267"><ele>86.0</ele><time>2026-04-04T21:58:18.285Z</time></trkpt><trkpt lat="33.4593183" lon="9.2166717"><ele>86.0</ele><time>2026-04-04T21:58:19.285Z</time></trkpt><trkpt lat="33.459345" lon="9.2163183"><ele>86.5</ele><time>2026-04-04T21:58:20.284Z</time></trkpt><trkpt lat="33.45937" lon="9.2159633"><ele>87.0</ele><time>2026-04-04T21:58:21.284Z</time></trkpt><trkpt lat="33.4593933" lon="9.2156083"><ele>87.5</ele><time>2026-04-04T21:58:22.284Z</time></trkpt><trkpt lat="33.4594167" lon="9.2152567"><ele>88.0</ele><time>2026-04-04T21:58:23.285Z</time></trkpt><trkpt lat="33.45944" lon="9.214905"><ele>87.5</ele><time>2026-04-04T21:58:24.284Z</time></trkpt><trkpt lat="33.4594617" lon="9.2145533"><ele>87.0</ele><time>2026-04-04T21:58:25.284Z</time></trkpt><trkpt lat="33.459485" lon="9.2142017"><ele>87.0</ele><time>2026-04-04T21:58:26.285Z</time></trkpt><trkpt lat="33.45951" lon="9.21385"><ele>87.0</ele><time>2026-04-04T21:58:27.286Z</time></trkpt><trkpt lat="33.4595367" lon="9.2135017"><ele>87.0</ele><time>2026-04-04T21:58:28.285Z</time></trkpt><trkpt lat="33.4595617" lon="9.2131533"><ele>87.0</ele><time>2026-04-04T21:58:29.287Z</time></trkpt><trkpt lat="33.459585" lon="9.2128067"><ele>87.0</ele><time>2026-04-04T21:58:30.286Z</time></trkpt><trkpt lat="33.45961" lon="9.2124583"><ele>87.0</ele><time>2026-04-04T21:58:31.286Z</time></trkpt><trkpt lat="33.4596333" lon="9.2121067"><ele>87.0</ele><time>2026-04-04T21:58:32.285Z</time></trkpt><trkpt lat="33.4596583" lon="9.2117533"><ele>87.0</ele><time>2026-04-04T21:58:33.285Z</time></trkpt><trkpt lat="33.4596817" lon="9.2114"><ele>87.0</ele><time>2026-04-04T21:58:34.284Z</time></trkpt><trkpt lat="33.459705" lon="9.2110433"><ele>87.0</ele><time>2026-04-04T21:58:35.285Z</time></trkpt><trkpt lat="33.4597283" lon="9.2106883"><ele>87.0</ele><time>2026-04-04T21:58:36.286Z</time></trkpt><trkpt lat="33.4597483" lon="9.21033"><ele>87.0</ele><time>2026-04-04T21:58:37.286Z</time></trkpt><trkpt lat="33.4597717" lon="9.2099733"><ele>90.0</ele><time>2026-04-04T21:58:38.285Z</time></trkpt><trkpt lat="33.459795" lon="9.2096183"><ele>93.0</ele><time>2026-04-04T21:58:39.283Z</time></trkpt><trkpt lat="33.45982" lon="9.20927"><ele>91.5</ele><time>2026-04-04T21:58:40.285Z</time></trkpt><trkpt lat="33.4598433" lon="9.2089233"><ele>90.0</ele><time>2026-04-04T21:58:41.285Z</time></trkpt><trkpt lat="33.4598683" lon="9.2085783"><ele>90.0</ele><time>2026-04-04T21:58:42.285Z</time></trkpt><trkpt lat="33.4598933" lon="9.2082333"><ele>90.0</ele><time>2026-04-04T21:58:43.285Z</time></trkpt><trkpt lat="33.4599167" lon="9.207885"><ele>90.0</ele><time>2026-04-04T21:58:44.284Z</time></trkpt><trkpt lat="33.4599417" lon="9.2075367"><ele>90.0</ele><time>2026-04-04T21:58:45.285Z</time></trkpt><trkpt lat="33.459965" lon="9.2071867"><ele>90.0</ele><time>2026-04-04T21:58:46.284Z</time></trkpt><trkpt lat="33.4599883" lon="9.206835"><ele>90.0</ele><time>2026-04-04T21:58:47.283Z</time></trkpt><trkpt lat="33.4600133" lon="9.2064867"><ele>89.0</ele><time>2026-04-04T21:58:48.286Z</time></trkpt><trkpt lat="33.4600383" lon="9.2061367"><ele>88.0</ele><time>2026-04-04T21:58:49.285Z</time></trkpt><trkpt lat="33.4600633" lon="9.2057867"><ele>86.5</ele><time>2026-04-04T21:58:50.284Z</time></trkpt><trkpt lat="33.4600883" lon="9.2054383"><ele>85.0</ele><time>2026-04-04T21:58:51.285Z</time></trkpt><trkpt lat="33.4601133" lon="9.2050883"><ele>86.0</ele><time>2026-04-04T21:58:52.285Z</time></trkpt><trkpt lat="33.4601333" lon="9.2047383"><ele>87.0</ele><time>2026-04-04T21:58:53.284Z</time></trkpt><trkpt lat="33.4601533" lon="9.2043867"><ele>87.0</ele><time>2026-04-04T21:58:54.285Z</time></trkpt><trkpt lat="33.4601733" lon="9.2040367"><ele>87.0</ele><time>2026-04-04T21:58:55.285Z</time></trkpt><trkpt lat="33.46019" lon="9.203685"><ele>87.0</ele><time>2026-04-04T21:58:56.286Z</time></trkpt><trkpt lat="33.4602033" lon="9.2033317"><ele>87.0</ele><time>2026-04-04T21:58:57.286Z</time></trkpt><trkpt lat="33.4602167" lon="9.2029767"><ele>87.0</ele><time>2026-04-04T21:58:58.285Z</time></trkpt><trkpt lat="33.4602283" lon="9.20262"><ele>87.0</ele><time>2026-04-04T21:58:59.286Z</time></trkpt><trkpt lat="33.4602383" lon="9.2022617"><ele>86.5</ele><time>2026-04-04T21:59:00.286Z</time></trkpt><trkpt lat="33.4602483" lon="9.2019017"><ele>86.0</ele><time>2026-04-04T21:59:01.285Z</time></trkpt><trkpt lat="33.4602567" lon="9.2015433"><ele>85.0</ele><time>2026-04-04T21:59:02.285Z</time></trkpt><trkpt lat="33.460265" lon="9.201185"><ele>84.0</ele><time>2026-04-04T21:59:03.285Z</time></trkpt><trkpt lat="33.4602717" lon="9.2008267"><ele>84.0</ele><time>2026-04-04T21:59:04.285Z</time></trkpt><trkpt lat="33.4602783" lon="9.2004733"><ele>84.0</ele><time>2026-04-04T21:59:05.285Z</time></trkpt><trkpt lat="33.4602867" lon="9.2001217"><ele>84.5</ele><time>2026-04-04T21:59:06.288Z</time></trkpt><trkpt lat="33.4602983" lon="9.1997717"><ele>85.0</ele><time>2026-04-04T21:59:07.285Z</time></trkpt><trkpt lat="33.4603083" lon="9.199425"><ele>85.0</ele><time>2026-04-04T21:59:08.285Z</time></trkpt><trkpt lat="33.4603183" lon="9.19908"><ele>85.0</ele><time>2026-04-04T21:59:09.285Z</time></trkpt><trkpt lat="33.4603267" lon="9.1987367"><ele>85.5</ele><time>2026-04-04T21:59:10.285Z</time></trkpt><trkpt lat="33.4603317" lon="9.198395"><ele>86.0</ele><time>2026-04-04T21:59:11.285Z</time></trkpt><trkpt lat="33.4603367" lon="9.1980533"><ele>87.0</ele><time>2026-04-04T21:59:12.288Z</time></trkpt><trkpt lat="33.4603433" lon="9.1977117"><ele>88.0</ele><time>2026-04-04T21:59:13.285Z</time></trkpt><trkpt lat="33.4603517" lon="9.1973683"><ele>87.5</ele><time>2026-04-04T21:59:14.285Z</time></trkpt><trkpt lat="33.4603633" lon="9.197025"><ele>87.0</ele><time>2026-04-04T21:59:15.286Z</time></trkpt><trkpt lat="33.460375" lon="9.1966783"><ele>88.5</ele><time>2026-04-04T21:59:16.285Z</time></trkpt><trkpt lat="33.4603917" lon="9.196335"><ele>90.0</ele><time>2026-04-04T21:59:17.285Z</time></trkpt><trkpt lat="33.460405" lon="9.1959933"><ele>89.0</ele><time>2026-04-04T21:59:18.285Z</time></trkpt><trkpt lat="33.4604167" lon="9.1956567"><ele>88.0</ele><time>2026-04-04T21:59:19.286Z</time></trkpt><trkpt lat="33.4604267" lon="9.1953317"><ele>88.0</ele><time>2026-04-04T21:59:20.286Z</time></trkpt><trkpt lat="33.460435" lon="9.195005"><ele>88.0</ele><time>2026-04-04T21:59:21.285Z</time></trkpt><trkpt lat="33.4604417" lon="9.1946717"><ele>88.5</ele><time>2026-04-04T21:59:22.284Z</time></trkpt><trkpt lat="33.4604467" lon="9.1943317"><ele>89.0</ele><time>2026-04-04T21:59:23.285Z</time></trkpt><trkpt lat="33.4604533" lon="9.19399"><ele>89.0</ele><time>2026-04-04T21:59:24.285Z</time></trkpt><trkpt lat="33.460465" lon="9.1936483"><ele>89.0</ele><time>2026-04-04T21:59:25.285Z</time></trkpt><trkpt lat="33.4604767" lon="9.1933083"><ele>88.0</ele><time>2026-04-04T21:59:26.284Z</time></trkpt><trkpt lat="33.4604883" lon="9.1929683"><ele>87.0</ele><time>2026-04-04T21:59:27.285Z</time></trkpt><trkpt lat="33.4604967" lon="9.19263"><ele>87.0</ele><time>2026-04-04T21:59:28.284Z</time></trkpt><trkpt lat="33.4605083" lon="9.1922967"><ele>87.0</ele><time>2026-04-04T21:59:29.284Z</time></trkpt><trkpt lat="33.460515" lon="9.1919683"><ele>87.0</ele><time>2026-04-04T21:59:30.285Z</time></trkpt><trkpt lat="33.4605233" lon="9.191645"><ele>87.0</ele><time>2026-04-04T21:59:31.284Z</time></trkpt><trkpt lat="33.4605283" lon="9.1913283"><ele>85.5</ele><time>2026-04-04T21:59:32.285Z</time></trkpt><trkpt lat="33.460535" lon="9.1910133"><ele>84.0</ele><time>2026-04-04T21:59:33.281Z</time></trkpt><trkpt lat="33.4605433" lon="9.1907"><ele>84.5</ele><time>2026-04-04T21:59:34.283Z</time></trkpt><trkpt lat="33.4605567" lon="9.1903867"><ele>85.0</ele><time>2026-04-04T21:59:35.282Z</time></trkpt><trkpt lat="33.4605683" lon="9.1900717"><ele>86.0</ele><time>2026-04-04T21:59:36.283Z</time></trkpt><trkpt lat="33.4605817" lon="9.1897517"><ele>87.0</ele><time>2026-04-04T21:59:37.282Z</time></trkpt><trkpt lat="33.46059" lon="9.1894317"><ele>87.0</ele><time>2026-04-04T21:59:38.282Z</time></trkpt><trkpt lat="33.4605983" lon="9.18911"><ele>87.0</ele><time>2026-04-04T21:59:39.281Z</time></trkpt><trkpt lat="33.460605" lon="9.1887833"><ele>86.0</ele><time>2026-04-04T21:59:40.282Z</time></trkpt><trkpt lat="33.4606117" lon="9.1884567"><ele>85.0</ele><time>2026-04-04T21:59:41.284Z</time></trkpt><trkpt lat="33.46062" lon="9.18813"><ele>87.5</ele><time>2026-04-04T21:59:42.284Z</time></trkpt><trkpt lat="33.4606317" lon="9.1878033"><ele>90.0</ele><time>2026-04-04T21:59:43.284Z</time></trkpt><trkpt lat="33.4606417" lon="9.1874733"><ele>89.0</ele><time>2026-04-04T21:59:44.285Z</time></trkpt><trkpt lat="33.4606533" lon="9.1871433"><ele>88.0</ele><time>2026-04-04T21:59:45.284Z</time></trkpt><trkpt lat="33.460665" lon="9.18681"><ele>87.5</ele><time>2026-04-04T21:59:46.284Z</time></trkpt><trkpt lat="33.460675" lon="9.186475"><ele>87.0</ele><time>2026-04-04T21:59:47.284Z</time></trkpt><trkpt lat="33.460685" lon="9.186135"><ele>87.0</ele><time>2026-04-04T21:59:48.284Z</time></trkpt><trkpt lat="33.460695" lon="9.1857917"><ele>87.0</ele><time>2026-04-04T21:59:49.284Z</time></trkpt><trkpt lat="33.4607033" lon="9.185445"><ele>87.0</ele><time>2026-04-04T21:59:50.281Z</time></trkpt><trkpt lat="33.4607133" lon="9.185095"><ele>87.0</ele><time>2026-04-04T21:59:51.286Z</time></trkpt><trkpt lat="33.4607233" lon="9.1847383"><ele>87.0</ele><time>2026-04-04T21:59:52.284Z</time></trkpt><trkpt lat="33.4607333" lon="9.1843767"><ele>87.0</ele><time>2026-04-04T21:59:53.284Z</time></trkpt><trkpt lat="33.4607433" lon="9.1840133"><ele>87.0</ele><time>2026-04-04T21:59:54.281Z</time></trkpt><trkpt lat="33.4607533" lon="9.18365"><ele>87.0</ele><time>2026-04-04T21:59:55.285Z</time></trkpt><trkpt lat="33.4607633" lon="9.183285"><ele>89.0</ele><time>2026-04-04T21:59:56.284Z</time></trkpt><trkpt lat="33.4607717" lon="9.18292"><ele>91.0</ele><time>2026-04-04T21:59:57.284Z</time></trkpt><trkpt lat="33.46078" lon="9.182555"><ele>90.0</ele><time>2026-04-04T21:59:58.284Z</time></trkpt><trkpt lat="33.4607867" lon="9.1821917"><ele>89.0</ele><time>2026-04-04T21:59:59.284Z</time></trkpt><trkpt lat="33.4607933" lon="9.1818283"><ele>88.0</ele><time>2026-04-04T22:00:00.285Z</time></trkpt><trkpt lat="33.460805" lon="9.18147"><ele>87.0</ele><time>2026-04-04T22:00:01.284Z</time></trkpt><trkpt lat="33.4608167" lon="9.1811133"><ele>87.0</ele><time>2026-04-04T22:00:02.284Z</time></trkpt><trkpt lat="33.4608283" lon="9.18076"><ele>87.0</ele><time>2026-04-04T22:00:03.285Z</time></trkpt><trkpt lat="33.46084" lon="9.180405"><ele>89.0</ele><time>2026-04-04T22:00:04.284Z</time></trkpt><trkpt lat="33.4608533" lon="9.1800533"><ele>91.0</ele><time>2026-04-04T22:00:05.284Z</time></trkpt><trkpt lat="33.460865" lon="9.1797033"><ele>88.0</ele><time>2026-04-04T22:00:06.284Z</time></trkpt><trkpt lat="33.4608883" lon="9.1790017"><ele>88.0</ele><time>2026-04-04T22:00:08.284Z</time></trkpt><trkpt lat="33.4608983" lon="9.17865"><ele>88.0</ele><time>2026-04-04T22:00:09.284Z</time></trkpt><trkpt lat="33.46091" lon="9.1782983"><ele>87.5</ele><time>2026-04-04T22:00:10.284Z</time></trkpt><trkpt lat="33.4609217" lon="9.1779483"><ele>87.0</ele><time>2026-04-04T22:00:11.286Z</time></trkpt><trkpt lat="33.4609333" lon="9.1775983"><ele>89.0</ele><time>2026-04-04T22:00:12.284Z</time></trkpt><trkpt lat="33.460945" lon="9.1772467"><ele>91.0</ele><time>2026-04-04T22:00:13.284Z</time></trkpt><trkpt lat="33.4609533" lon="9.176895"><ele>91.0</ele><time>2026-04-04T22:00:14.283Z</time></trkpt><trkpt lat="33.4609617" lon="9.1765433"><ele>91.0</ele><time>2026-04-04T22:00:15.282Z</time></trkpt><trkpt lat="33.4609683" lon="9.1761883"><ele>91.0</ele><time>2026-04-04T22:00:16.283Z</time></trkpt><trkpt lat="33.460975" lon="9.175835"><ele>91.0</ele><time>2026-04-04T22:00:17.284Z</time></trkpt><trkpt lat="33.4609833" lon="9.1754867"><ele>91.0</ele><time>2026-04-04T22:00:18.285Z</time></trkpt><trkpt lat="33.4609917" lon="9.1751533"><ele>91.0</ele><time>2026-04-04T22:00:19.287Z</time></trkpt><trkpt lat="33.4610017" lon="9.1748333"><ele>89.5</ele><time>2026-04-04T22:00:20.282Z</time></trkpt><trkpt lat="33.4610117" lon="9.1745183"><ele>88.0</ele><time>2026-04-04T22:00:21.283Z</time></trkpt><trkpt lat="33.4610217" lon="9.1742"><ele>87.0</ele><time>2026-04-04T22:00:22.283Z</time></trkpt><trkpt lat="33.46103" lon="9.17388"><ele>86.0</ele><time>2026-04-04T22:00:23.284Z</time></trkpt><trkpt lat="33.461035" lon="9.17356"><ele>86.0</ele><time>2026-04-04T22:00:24.284Z</time></trkpt><trkpt lat="33.46104" lon="9.173245"><ele>86.0</ele><time>2026-04-04T22:00:25.284Z</time></trkpt><trkpt lat="33.461045" lon="9.1729333"><ele>85.5</ele><time>2026-04-04T22:00:26.283Z</time></trkpt><trkpt lat="33.461055" lon="9.17262"><ele>85.0</ele><time>2026-04-04T22:00:27.284Z</time></trkpt><trkpt lat="33.4610667" lon="9.172305"><ele>84.5</ele><time>2026-04-04T22:00:28.284Z</time></trkpt><trkpt lat="33.4610783" lon="9.171985"><ele>84.0</ele><time>2026-04-04T22:00:29.284Z</time></trkpt><trkpt lat="33.4610883" lon="9.1716633"><ele>85.5</ele><time>2026-04-04T22:00:30.284Z</time></trkpt><trkpt lat="33.4610983" lon="9.17134"><ele>87.0</ele><time>2026-04-04T22:00:31.285Z</time></trkpt><trkpt lat="33.4611033" lon="9.1710167"><ele>87.0</ele><time>2026-04-04T22:00:32.284Z</time></trkpt><trkpt lat="33.46111" lon="9.1706933"><ele>87.0</ele><time>2026-04-04T22:00:33.285Z</time></trkpt><trkpt lat="33.4611167" lon="9.17037"><ele>86.0</ele><time>2026-04-04T22:00:34.286Z</time></trkpt><trkpt lat="33.4611267" lon="9.1700433"><ele>85.0</ele><time>2026-04-04T22:00:35.285Z</time></trkpt><trkpt lat="33.4611383" lon="9.1697167"><ele>84.5</ele><time>2026-04-04T22:00:36.285Z</time></trkpt><trkpt lat="33.46115" lon="9.16939"><ele>84.0</ele><time>2026-04-04T22:00:37.285Z</time></trkpt><trkpt lat="33.46116" lon="9.16906"><ele>84.0</ele><time>2026-04-04T22:00:38.286Z</time></trkpt><trkpt lat="33.4611683" lon="9.1687317"><ele>84.0</ele><time>2026-04-04T22:00:39.284Z</time></trkpt><trkpt lat="33.4611883" lon="9.1680733"><ele>84.0</ele><time>2026-04-04T22:00:41.285Z</time></trkpt><trkpt lat="33.461195" lon="9.1677433"><ele>84.0</ele><time>2026-04-04T22:00:42.284Z</time></trkpt><trkpt lat="33.4612017" lon="9.167415"><ele>86.5</ele><time>2026-04-04T22:00:43.286Z</time></trkpt><trkpt lat="33.4612117" lon="9.1670867"><ele>89.0</ele><time>2026-04-04T22:00:44.285Z</time></trkpt><trkpt lat="33.4612233" lon="9.1667583"><ele>89.0</ele><time>2026-04-04T22:00:45.282Z</time></trkpt><trkpt lat="33.46123" lon="9.1664317"><ele>89.0</ele><time>2026-04-04T22:00:46.286Z</time></trkpt><trkpt lat="33.4612367" lon="9.1661033"><ele>89.0</ele><time>2026-04-04T22:00:47.284Z</time></trkpt><trkpt lat="33.4612467" lon="9.1657767"><ele>89.0</ele><time>2026-04-04T22:00:48.287Z</time></trkpt><trkpt lat="33.4612583" lon="9.1654517"><ele>89.0</ele><time>2026-04-04T22:00:49.284Z</time></trkpt><trkpt lat="33.46127" lon="9.1651267"><ele>89.0</ele><time>2026-04-04T22:00:50.285Z</time></trkpt><trkpt lat="33.46128" lon="9.1648017"><ele>88.5</ele><time>2026-04-04T22:00:51.285Z</time></trkpt><trkpt lat="33.4612867" lon="9.16448"><ele>88.0</ele><time>2026-04-04T22:00:52.285Z</time></trkpt><trkpt lat="33.461295" lon="9.1641567"><ele>88.0</ele><time>2026-04-04T22:00:53.285Z</time></trkpt><trkpt lat="33.4613033" lon="9.1638367"><ele>88.0</ele><time>2026-04-04T22:00:54.286Z</time></trkpt><trkpt lat="33.4613117" lon="9.1635183"><ele>88.0</ele><time>2026-04-04T22:00:55.286Z</time></trkpt><trkpt lat="33.4613217" lon="9.1632067"><ele>88.0</ele><time>2026-04-04T22:00:56.285Z</time></trkpt><trkpt lat="33.46133" lon="9.162895"><ele>86.0</ele><time>2026-04-04T22:00:57.285Z</time></trkpt><trkpt lat="33.46134" lon="9.1625817"><ele>84.0</ele><time>2026-04-04T22:00:58.285Z</time></trkpt><trkpt lat="33.4613533" lon="9.1622683"><ele>83.0</ele><time>2026-04-04T22:00:59.286Z</time></trkpt><trkpt lat="33.4613633" lon="9.1619517"><ele>82.0</ele><time>2026-04-04T22:01:00.285Z</time></trkpt><trkpt lat="33.4613733" lon="9.1616317"><ele>84.5</ele><time>2026-04-04T22:01:01.285Z</time></trkpt><trkpt lat="33.461385" lon="9.161305"><ele>87.0</ele><time>2026-04-04T22:01:02.284Z</time></trkpt><trkpt lat="33.4613933" lon="9.160975"><ele>89.5</ele><time>2026-04-04T22:01:03.286Z</time></trkpt><trkpt lat="33.4614017" lon="9.16064"><ele>92.0</ele><time>2026-04-04T22:01:04.285Z</time></trkpt><trkpt lat="33.46141" lon="9.160305"><ele>92.0</ele><time>2026-04-04T22:01:05.285Z</time></trkpt><trkpt lat="33.4614217" lon="9.15997"><ele>92.0</ele><time>2026-04-04T22:01:06.285Z</time></trkpt><trkpt lat="33.4614367" lon="9.1596367"><ele>90.5</ele><time>2026-04-04T22:01:07.286Z</time></trkpt><trkpt lat="33.46145" lon="9.159305"><ele>89.0</ele><time>2026-04-04T22:01:08.285Z</time></trkpt><trkpt lat="33.46146" lon="9.1589717"><ele>88.5</ele><time>2026-04-04T22:01:09.286Z</time></trkpt><trkpt lat="33.46147" lon="9.1586367"><ele>88.0</ele><time>2026-04-04T22:01:10.286Z</time></trkpt><trkpt lat="33.4614783" lon="9.1583017"><ele>88.5</ele><time>2026-04-04T22:01:11.285Z</time></trkpt><trkpt lat="33.4614867" lon="9.157965"><ele>89.0</ele><time>2026-04-04T22:01:12.285Z</time></trkpt><trkpt lat="33.4615033" lon="9.1572867"><ele>89.0</ele><time>2026-04-04T22:01:14.286Z</time></trkpt><trkpt lat="33.4615117" lon="9.156945"><ele>89.0</ele><time>2026-04-04T22:01:15.285Z</time></trkpt><trkpt lat="33.4615217" lon="9.1566033"><ele>88.0</ele><time>2026-04-04T22:01:16.285Z</time></trkpt><trkpt lat="33.46153" lon="9.15626"><ele>87.0</ele><time>2026-04-04T22:01:17.286Z</time></trkpt><trkpt lat="33.4615417" lon="9.1559133"><ele>87.5</ele><time>2026-04-04T22:01:18.285Z</time></trkpt><trkpt lat="33.4615533" lon="9.1555667"><ele>88.0</ele><time>2026-04-04T22:01:19.285Z</time></trkpt><trkpt lat="33.4615617" lon="9.1552167"><ele>88.0</ele><time>2026-04-04T22:01:20.285Z</time></trkpt><trkpt lat="33.4615717" lon="9.1548683"><ele>88.0</ele><time>2026-04-04T22:01:21.283Z</time></trkpt><trkpt lat="33.46158" lon="9.15452"><ele>88.0</ele><time>2026-04-04T22:01:22.285Z</time></trkpt><trkpt lat="33.4615867" lon="9.154175"><ele>88.0</ele><time>2026-04-04T22:01:23.286Z</time></trkpt><trkpt lat="33.4615917" lon="9.1538383"><ele>89.0</ele><time>2026-04-04T22:01:24.285Z</time></trkpt><trkpt lat="33.4616" lon="9.1535017"><ele>90.0</ele><time>2026-04-04T22:01:25.286Z</time></trkpt><trkpt lat="33.4616117" lon="9.1531667"><ele>88.0</ele><time>2026-04-04T22:01:26.285Z</time></trkpt><trkpt lat="33.4616217" lon="9.15283"><ele>86.0</ele><time>2026-04-04T22:01:27.285Z</time></trkpt><trkpt lat="33.4616317" lon="9.1524933"><ele>86.5</ele><time>2026-04-04T22:01:28.285Z</time></trkpt><trkpt lat="33.4616417" lon="9.1521533"><ele>87.0</ele><time>2026-04-04T22:01:29.286Z</time></trkpt><trkpt lat="33.4616483" lon="9.1518117"><ele>87.0</ele><time>2026-04-04T22:01:30.286Z</time></trkpt><trkpt lat="33.461655" lon="9.1514683"><ele>87.0</ele><time>2026-04-04T22:01:31.284Z</time></trkpt><trkpt lat="33.4616633" lon="9.151125"><ele>87.0</ele><time>2026-04-04T22:01:32.285Z</time></trkpt><trkpt lat="33.4616717" lon="9.1507783"><ele>87.0</ele><time>2026-04-04T22:01:33.286Z</time></trkpt><trkpt lat="33.4616817" lon="9.1504333"><ele>88.0</ele><time>2026-04-04T22:01:34.282Z</time></trkpt><trkpt lat="33.4616933" lon="9.1500867"><ele>89.0</ele><time>2026-04-04T22:01:35.285Z</time></trkpt><trkpt lat="33.4617033" lon="9.14975"><ele>89.5</ele><time>2026-04-04T22:01:36.284Z</time></trkpt><trkpt lat="33.4617133" lon="9.149425"><ele>90.0</ele><time>2026-04-04T22:01:37.285Z</time></trkpt><trkpt lat="33.4617233" lon="9.149105"><ele>89.5</ele><time>2026-04-04T22:01:38.283Z</time></trkpt><trkpt lat="33.4617317" lon="9.1487867"><ele>89.0</ele><time>2026-04-04T22:01:39.283Z</time></trkpt><trkpt lat="33.4617417" lon="9.1484667"><ele>87.5</ele><time>2026-04-04T22:01:40.283Z</time></trkpt><trkpt lat="33.4617533" lon="9.1481433"><ele>86.0</ele><time>2026-04-04T22:01:41.284Z</time></trkpt><trkpt lat="33.4617617" lon="9.1478183"><ele>86.0</ele><time>2026-04-04T22:01:42.284Z</time></trkpt><trkpt lat="33.4617733" lon="9.1474933"><ele>86.0</ele><time>2026-04-04T22:01:43.284Z</time></trkpt><trkpt lat="33.4617817" lon="9.147165"><ele>87.0</ele><time>2026-04-04T22:01:44.282Z</time></trkpt><trkpt lat="33.46179" lon="9.1468383"><ele>88.0</ele><time>2026-04-04T22:01:45.285Z</time></trkpt><trkpt lat="33.461805" lon="9.146185"><ele>89.0</ele><time>2026-04-04T22:01:47.285Z</time></trkpt><trkpt lat="33.4618133" lon="9.1458567"><ele>90.0</ele><time>2026-04-04T22:01:48.285Z</time></trkpt><trkpt lat="33.4618217" lon="9.1455283"><ele>90.0</ele><time>2026-04-04T22:01:49.285Z</time></trkpt><trkpt lat="33.46183" lon="9.1451983"><ele>90.0</ele><time>2026-04-04T22:01:50.285Z</time></trkpt><trkpt lat="33.4618433" lon="9.1448717"><ele>89.5</ele><time>2026-04-04T22:01:51.285Z</time></trkpt><trkpt lat="33.4618517" lon="9.1445433"><ele>89.0</ele><time>2026-04-04T22:01:52.286Z</time></trkpt><trkpt lat="33.46187" lon="9.1442183"><ele>88.5</ele><time>2026-04-04T22:01:53.282Z</time></trkpt><trkpt lat="33.4618817" lon="9.14389"><ele>88.0</ele><time>2026-04-04T22:01:54.285Z</time></trkpt><trkpt lat="33.461895" lon="9.1435617"><ele>88.0</ele><time>2026-04-04T22:01:55.285Z</time></trkpt><trkpt lat="33.4619033" lon="9.1432333"><ele>88.0</ele><time>2026-04-04T22:01:56.285Z</time></trkpt><trkpt lat="33.4619117" lon="9.1429033"><ele>87.5</ele><time>2026-04-04T22:01:57.285Z</time></trkpt><trkpt lat="33.4619167" lon="9.1425733"><ele>87.0</ele><time>2026-04-04T22:01:58.285Z</time></trkpt><trkpt lat="33.4619233" lon="9.1422417"><ele>87.0</ele><time>2026-04-04T22:01:59.285Z</time></trkpt><trkpt lat="33.461935" lon="9.1419083"><ele>87.0</ele><time>2026-04-04T22:02:00.285Z</time></trkpt><trkpt lat="33.4619483" lon="9.1415733"><ele>86.0</ele><time>2026-04-04T22:02:01.285Z</time></trkpt><trkpt lat="33.4619567" lon="9.14124"><ele>85.0</ele><time>2026-04-04T22:02:02.285Z</time></trkpt><trkpt lat="33.4619667" lon="9.140905"><ele>85.5</ele><time>2026-04-04T22:02:03.285Z</time></trkpt><trkpt lat="33.4619767" lon="9.14057"><ele>86.0</ele><time>2026-04-04T22:02:04.282Z</time></trkpt><trkpt lat="33.461985" lon="9.1402333"><ele>86.0</ele><time>2026-04-04T22:02:05.283Z</time></trkpt><trkpt lat="33.4619883" lon="9.1398967"><ele>86.0</ele><time>2026-04-04T22:02:06.282Z</time></trkpt><trkpt lat="33.461995" lon="9.13956"><ele>87.5</ele><time>2026-04-04T22:02:07.284Z</time></trkpt><trkpt lat="33.4620033" lon="9.1392283"><ele>89.0</ele><time>2026-04-04T22:02:08.284Z</time></trkpt><trkpt lat="33.4620117" lon="9.1389"><ele>90.5</ele><time>2026-04-04T22:02:09.284Z</time></trkpt><trkpt lat="33.462015" lon="9.1385717"><ele>92.0</ele><time>2026-04-04T22:02:10.284Z</time></trkpt><trkpt lat="33.462015" lon="9.1382383"><ele>90.5</ele><time>2026-04-04T22:02:11.283Z</time></trkpt><trkpt lat="33.4620083" lon="9.1379033"><ele>89.0</ele><time>2026-04-04T22:02:12.285Z</time></trkpt><trkpt lat="33.4619983" lon="9.1375633"><ele>89.5</ele><time>2026-04-04T22:02:13.284Z</time></trkpt><trkpt lat="33.4619833" lon="9.13722"><ele>90.0</ele><time>2026-04-04T22:02:14.285Z</time></trkpt><trkpt lat="33.4619667" lon="9.1368767"><ele>90.5</ele><time>2026-04-04T22:02:15.285Z</time></trkpt><trkpt lat="33.4619483" lon="9.1365317"><ele>91.0</ele><time>2026-04-04T22:02:16.285Z</time></trkpt><trkpt lat="33.4619317" lon="9.13619"><ele>91.0</ele><time>2026-04-04T22:02:17.285Z</time></trkpt><trkpt lat="33.46191" lon="9.1358517"><ele>91.0</ele><time>2026-04-04T22:02:18.285Z</time></trkpt><trkpt lat="33.4618567" lon="9.1351783"><ele>89.5</ele><time>2026-04-04T22:02:20.283Z</time></trkpt><trkpt lat="33.4618267" lon="9.1348433"><ele>88.0</ele><time>2026-04-04T22:02:21.284Z</time></trkpt><trkpt lat="33.4617967" lon="9.1345067"><ele>88.0</ele><time>2026-04-04T22:02:22.283Z</time></trkpt><trkpt lat="33.461765" lon="9.13417"><ele>88.0</ele><time>2026-04-04T22:02:23.282Z</time></trkpt><trkpt lat="33.4617317" lon="9.1338333"><ele>89.5</ele><time>2026-04-04T22:02:24.284Z</time></trkpt><trkpt lat="33.4617" lon="9.1334967"><ele>91.0</ele><time>2026-04-04T22:02:25.284Z</time></trkpt><trkpt lat="33.4616683" lon="9.1331617"><ele>91.5</ele><time>2026-04-04T22:02:26.281Z</time></trkpt><trkpt lat="33.4616433" lon="9.1328283"><ele>92.0</ele><time>2026-04-04T22:02:27.284Z</time></trkpt><trkpt lat="33.4616183" lon="9.132495"><ele>92.0</ele><time>2026-04-04T22:02:28.285Z</time></trkpt><trkpt lat="33.4615917" lon="9.132165"><ele>92.0</ele><time>2026-04-04T22:02:29.284Z</time></trkpt><trkpt lat="33.4615633" lon="9.1318433"><ele>93.0</ele><time>2026-04-04T22:02:30.285Z</time></trkpt><trkpt lat="33.4615367" lon="9.1315333"><ele>94.0</ele><time>2026-04-04T22:02:31.284Z</time></trkpt><trkpt lat="33.4615133" lon="9.1312367"><ele>94.0</ele><time>2026-04-04T22:02:32.284Z</time></trkpt><trkpt lat="33.4614833" lon="9.1309433"><ele>94.0</ele><time>2026-04-04T22:02:33.284Z</time></trkpt><trkpt lat="33.4614517" lon="9.1306483"><ele>93.5</ele><time>2026-04-04T22:02:34.281Z</time></trkpt><trkpt lat="33.461425" lon="9.1303483"><ele>93.0</ele><time>2026-04-04T22:02:35.283Z</time></trkpt><trkpt lat="33.461395" lon="9.130045"><ele>93.0</ele><time>2026-04-04T22:02:36.282Z</time></trkpt><trkpt lat="33.46137" lon="9.1297367"><ele>93.0</ele><time>2026-04-04T22:02:37.282Z</time></trkpt><trkpt lat="33.4613433" lon="9.129425"><ele>93.0</ele><time>2026-04-04T22:02:38.281Z</time></trkpt><trkpt lat="33.4613167" lon="9.1291117"><ele>93.0</ele><time>2026-04-04T22:02:39.281Z</time></trkpt><trkpt lat="33.46129" lon="9.128795"><ele>91.5</ele><time>2026-04-04T22:02:40.283Z</time></trkpt><trkpt lat="33.461265" lon="9.1284783"><ele>90.0</ele><time>2026-04-04T22:02:41.282Z</time></trkpt><trkpt lat="33.46124" lon="9.12816"><ele>88.5</ele><time>2026-04-04T22:02:42.281Z</time></trkpt><trkpt lat="33.4612133" lon="9.12784"><ele>87.0</ele><time>2026-04-04T22:02:43.283Z</time></trkpt><trkpt lat="33.4611883" lon="9.1275183"><ele>88.5</ele><time>2026-04-04T22:02:44.281Z</time></trkpt><trkpt lat="33.4611617" lon="9.1271933"><ele>90.0</ele><time>2026-04-04T22:02:45.284Z</time></trkpt><trkpt lat="33.461135" lon="9.1268667"><ele>90.5</ele><time>2026-04-04T22:02:46.284Z</time></trkpt><trkpt lat="33.461105" lon="9.1265383"><ele>91.0</ele><time>2026-04-04T22:02:47.285Z</time></trkpt><trkpt lat="33.461075" lon="9.12621"><ele>91.0</ele><time>2026-04-04T22:02:48.284Z</time></trkpt><trkpt lat="33.461045" lon="9.1258833"><ele>91.0</ele><time>2026-04-04T22:02:49.285Z</time></trkpt><trkpt lat="33.4610167" lon="9.1255533"><ele>90.5</ele><time>2026-04-04T22:02:50.282Z</time></trkpt><trkpt lat="33.46099" lon="9.1252217"><ele>90.0</ele><time>2026-04-04T22:02:51.285Z</time></trkpt><trkpt lat="33.4609083" lon="9.1242217"><ele>89.5</ele><time>2026-04-04T22:02:54.282Z</time></trkpt><trkpt lat="33.4608783" lon="9.1238867"><ele>89.0</ele><time>2026-04-04T22:02:55.285Z</time></trkpt><trkpt lat="33.4608483" lon="9.12355"><ele>89.0</ele><time>2026-04-04T22:02:56.283Z</time></trkpt><trkpt lat="33.4608183" lon="9.1232133"><ele>89.0</ele><time>2026-04-04T22:02:57.284Z</time></trkpt><trkpt lat="33.46079" lon="9.1228767"><ele>89.0</ele><time>2026-04-04T22:02:58.285Z</time></trkpt><trkpt lat="33.4607633" lon="9.1225433"><ele>89.0</ele><time>2026-04-04T22:02:59.284Z</time></trkpt><trkpt lat="33.4607367" lon="9.12221"><ele>89.0</ele><time>2026-04-04T22:03:00.284Z</time></trkpt><trkpt lat="33.46071" lon="9.1218783"><ele>89.0</ele><time>2026-04-04T22:03:01.284Z</time></trkpt><trkpt lat="33.46068" lon="9.121545"><ele>89.0</ele><time>2026-04-04T22:03:02.284Z</time></trkpt><trkpt lat="33.46065" lon="9.1212117"><ele>89.0</ele><time>2026-04-04T22:03:03.282Z</time></trkpt><trkpt lat="33.46062" lon="9.1208783"><ele>89.5</ele><time>2026-04-04T22:03:04.281Z</time></trkpt><trkpt lat="33.4605917" lon="9.1205433"><ele>90.0</ele><time>2026-04-04T22:03:05.282Z</time></trkpt><trkpt lat="33.4605617" lon="9.1202083"><ele>90.0</ele><time>2026-04-04T22:03:06.282Z</time></trkpt><trkpt lat="33.4605317" lon="9.1198733"><ele>90.0</ele><time>2026-04-04T22:03:07.282Z</time></trkpt><trkpt lat="33.4605" lon="9.1195367"><ele>90.0</ele><time>2026-04-04T22:03:08.281Z</time></trkpt><trkpt lat="33.4604717" lon="9.1192"><ele>90.0</ele><time>2026-04-04T22:03:09.282Z</time></trkpt><trkpt lat="33.4604417" lon="9.1188633"><ele>89.5</ele><time>2026-04-04T22:03:10.283Z</time></trkpt><trkpt lat="33.4604117" lon="9.1185267"><ele>89.0</ele><time>2026-04-04T22:03:11.282Z</time></trkpt><trkpt lat="33.4603817" lon="9.1181917"><ele>89.0</ele><time>2026-04-04T22:03:12.282Z</time></trkpt><trkpt lat="33.4603533" lon="9.1178617"><ele>89.0</ele><time>2026-04-04T22:03:13.282Z</time></trkpt><trkpt lat="33.4603233" lon="9.1175333"><ele>88.0</ele><time>2026-04-04T22:03:14.281Z</time></trkpt><trkpt lat="33.460295" lon="9.1172083"><ele>87.0</ele><time>2026-04-04T22:03:15.283Z</time></trkpt><trkpt lat="33.460265" lon="9.116885"><ele>87.5</ele><time>2026-04-04T22:03:16.282Z</time></trkpt><trkpt lat="33.4602367" lon="9.1165617"><ele>88.0</ele><time>2026-04-04T22:03:17.285Z</time></trkpt><trkpt lat="33.4602083" lon="9.1162383"><ele>88.0</ele><time>2026-04-04T22:03:18.281Z</time></trkpt><trkpt lat="33.4601783" lon="9.1159167"><ele>88.0</ele><time>2026-04-04T22:03:19.282Z</time></trkpt><trkpt lat="33.4601483" lon="9.1155967"><ele>87.5</ele><time>2026-04-04T22:03:20.281Z</time></trkpt><trkpt lat="33.46012" lon="9.11528"><ele>87.0</ele><time>2026-04-04T22:03:21.283Z</time></trkpt><trkpt lat="33.46009" lon="9.1149717"><ele>88.0</ele><time>2026-04-04T22:03:22.285Z</time></trkpt><trkpt lat="33.460065" lon="9.1146733"><ele>89.0</ele><time>2026-04-04T22:03:23.284Z</time></trkpt><trkpt lat="33.4600383" lon="9.1143767"><ele>86.0</ele><time>2026-04-04T22:03:24.283Z</time></trkpt><trkpt lat="33.4599867" lon="9.11378"><ele>86.0</ele><time>2026-04-04T22:03:26.281Z</time></trkpt><trkpt lat="33.4599617" lon="9.1134817"><ele>86.0</ele><time>2026-04-04T22:03:27.285Z</time></trkpt><trkpt lat="33.4599367" lon="9.1131817"><ele>86.0</ele><time>2026-04-04T22:03:28.284Z</time></trkpt><trkpt lat="33.4599117" lon="9.11288"><ele>86.0</ele><time>2026-04-04T22:03:29.284Z</time></trkpt><trkpt lat="33.4598883" lon="9.1125767"><ele>88.0</ele><time>2026-04-04T22:03:30.285Z</time></trkpt><trkpt lat="33.4598633" lon="9.1122717"><ele>90.0</ele><time>2026-04-04T22:03:31.284Z</time></trkpt><trkpt lat="33.4598383" lon="9.1119633"><ele>90.0</ele><time>2026-04-04T22:03:32.284Z</time></trkpt><trkpt lat="33.45981" lon="9.111655"><ele>90.0</ele><time>2026-04-04T22:03:33.284Z</time></trkpt><trkpt lat="33.45978" lon="9.111345"><ele>89.5</ele><time>2026-04-04T22:03:34.282Z</time></trkpt><trkpt lat="33.4597483" lon="9.1110333"><ele>89.0</ele><time>2026-04-04T22:03:35.283Z</time></trkpt><trkpt lat="33.4597183" lon="9.1107217"><ele>91.0</ele><time>2026-04-04T22:03:36.283Z</time></trkpt><trkpt lat="33.4596917" lon="9.1104117"><ele>93.0</ele><time>2026-04-04T22:03:37.283Z</time></trkpt><trkpt lat="33.4596667" lon="9.1101033"><ele>92.0</ele><time>2026-04-04T22:03:38.283Z</time></trkpt><trkpt lat="33.459645" lon="9.1097933"><ele>91.0</ele><time>2026-04-04T22:03:39.283Z</time></trkpt><trkpt lat="33.4596233" lon="9.1094833"><ele>90.0</ele><time>2026-04-04T22:03:40.285Z</time></trkpt><trkpt lat="33.4596" lon="9.1091683"><ele>89.0</ele><time>2026-04-04T22:03:41.285Z</time></trkpt><trkpt lat="33.459575" lon="9.1088533"><ele>89.0</ele><time>2026-04-04T22:03:42.284Z</time></trkpt><trkpt lat="33.45955" lon="9.1085367"><ele>89.0</ele><time>2026-04-04T22:03:43.285Z</time></trkpt><trkpt lat="33.4595233" lon="9.10822"><ele>90.0</ele><time>2026-04-04T22:03:44.281Z</time></trkpt><trkpt lat="33.4594933" lon="9.1079017"><ele>91.0</ele><time>2026-04-04T22:03:45.283Z</time></trkpt><trkpt lat="33.4594617" lon="9.1075833"><ele>89.5</ele><time>2026-04-04T22:03:46.282Z</time></trkpt><trkpt lat="33.4594333" lon="9.107265"><ele>88.0</ele><time>2026-04-04T22:03:47.282Z</time></trkpt><trkpt lat="33.4594067" lon="9.106945"><ele>88.0</ele><time>2026-04-04T22:03:48.282Z</time></trkpt><trkpt lat="33.4593783" lon="9.1066233"><ele>88.0</ele><time>2026-04-04T22:03:49.283Z</time></trkpt><trkpt lat="33.4593483" lon="9.1063017"><ele>88.0</ele><time>2026-04-04T22:03:50.281Z</time></trkpt><trkpt lat="33.4593233" lon="9.1059783"><ele>88.0</ele><time>2026-04-04T22:03:51.283Z</time></trkpt><trkpt lat="33.459295" lon="9.105655"><ele>89.0</ele><time>2026-04-04T22:03:52.285Z</time></trkpt><trkpt lat="33.45927" lon="9.1053317"><ele>90.0</ele><time>2026-04-04T22:03:53.285Z</time></trkpt><trkpt lat="33.4592417" lon="9.1050083"><ele>89.0</ele><time>2026-04-04T22:03:54.283Z</time></trkpt><trkpt lat="33.4592133" lon="9.104685"><ele>88.0</ele><time>2026-04-04T22:03:55.284Z</time></trkpt><trkpt lat="33.4591833" lon="9.10436"><ele>87.5</ele><time>2026-04-04T22:03:56.285Z</time></trkpt><trkpt lat="33.4591533" lon="9.10403"><ele>87.0</ele><time>2026-04-04T22:03:57.284Z</time></trkpt><trkpt lat="33.459095" lon="9.10336"><ele>87.0</ele><time>2026-04-04T22:03:59.285Z</time></trkpt><trkpt lat="33.4590667" lon="9.1030233"><ele>87.0</ele><time>2026-04-04T22:04:00.285Z</time></trkpt><trkpt lat="33.4590383" lon="9.1026833"><ele>87.5</ele><time>2026-04-04T22:04:01.285Z</time></trkpt><trkpt lat="33.4590117" lon="9.1023417"><ele>88.0</ele><time>2026-04-04T22:04:02.286Z</time></trkpt><trkpt lat="33.4589833" lon="9.1019983"><ele>88.0</ele><time>2026-04-04T22:04:03.283Z</time></trkpt><trkpt lat="33.4589533" lon="9.1016533"><ele>88.0</ele><time>2026-04-04T22:04:04.284Z</time></trkpt><trkpt lat="33.458925" lon="9.1013083"><ele>89.0</ele><time>2026-04-04T22:04:05.283Z</time></trkpt><trkpt lat="33.458895" lon="9.10096"><ele>90.0</ele><time>2026-04-04T22:04:06.283Z</time></trkpt><trkpt lat="33.4588683" lon="9.1006117"><ele>91.0</ele><time>2026-04-04T22:04:07.284Z</time></trkpt><trkpt lat="33.4588417" lon="9.100265"><ele>92.0</ele><time>2026-04-04T22:04:08.282Z</time></trkpt><trkpt lat="33.4588133" lon="9.09992"><ele>92.0</ele><time>2026-04-04T22:04:09.283Z</time></trkpt><trkpt lat="33.4587833" lon="9.0995783"><ele>92.0</ele><time>2026-04-04T22:04:10.284Z</time></trkpt><trkpt lat="33.458755" lon="9.09924"><ele>91.5</ele><time>2026-04-04T22:04:11.285Z</time></trkpt><trkpt lat="33.458725" lon="9.098905"><ele>91.0</ele><time>2026-04-04T22:04:12.285Z</time></trkpt><trkpt lat="33.4586983" lon="9.0985683"><ele>91.5</ele><time>2026-04-04T22:04:13.285Z</time></trkpt><trkpt lat="33.4586667" lon="9.0982267"><ele>92.0</ele><time>2026-04-04T22:04:14.285Z</time></trkpt><trkpt lat="33.45864" lon="9.097885"><ele>92.0</ele><time>2026-04-04T22:04:15.285Z</time></trkpt><trkpt lat="33.458605" lon="9.0975417"><ele>92.0</ele><time>2026-04-04T22:04:16.285Z</time></trkpt><trkpt lat="33.4585717" lon="9.097195"><ele>91.5</ele><time>2026-04-04T22:04:17.284Z</time></trkpt><trkpt lat="33.4585383" lon="9.0968483"><ele>91.0</ele><time>2026-04-04T22:04:18.283Z</time></trkpt><trkpt lat="33.4585067" lon="9.0965"><ele>92.0</ele><time>2026-04-04T22:04:19.286Z</time></trkpt><trkpt lat="33.458475" lon="9.0961567"><ele>93.0</ele><time>2026-04-04T22:04:20.281Z</time></trkpt><trkpt lat="33.4584483" lon="9.09582"><ele>92.5</ele><time>2026-04-04T22:04:21.287Z</time></trkpt><trkpt lat="33.4584217" lon="9.09549"><ele>92.0</ele><time>2026-04-04T22:04:22.283Z</time></trkpt><trkpt lat="33.4583933" lon="9.095165"><ele>93.0</ele><time>2026-04-04T22:04:23.283Z</time></trkpt><trkpt lat="33.458365" lon="9.0948433"><ele>94.0</ele><time>2026-04-04T22:04:24.286Z</time></trkpt><trkpt lat="33.458335" lon="9.0945183"><ele>94.0</ele><time>2026-04-04T22:04:25.282Z</time></trkpt><trkpt lat="33.4583033" lon="9.09419"><ele>94.0</ele><time>2026-04-04T22:04:26.283Z</time></trkpt><trkpt lat="33.4582733" lon="9.0938583"><ele>91.5</ele><time>2026-04-04T22:04:27.285Z</time></trkpt><trkpt lat="33.4582417" lon="9.093525"><ele>89.0</ele><time>2026-04-04T22:04:28.286Z</time></trkpt><trkpt lat="33.4582117" lon="9.0931917"><ele>88.0</ele><time>2026-04-04T22:04:29.287Z</time></trkpt><trkpt lat="33.458185" lon="9.0928633"><ele>87.0</ele><time>2026-04-04T22:04:30.286Z</time></trkpt><trkpt lat="33.4581333" lon="9.0922217"><ele>86.5</ele><time>2026-04-04T22:04:32.285Z</time></trkpt><trkpt lat="33.4581067" lon="9.0918967"><ele>86.0</ele><time>2026-04-04T22:04:33.286Z</time></trkpt><trkpt lat="33.4580767" lon="9.0915733"><ele>86.0</ele><time>2026-04-04T22:04:34.286Z</time></trkpt><trkpt lat="33.4580417" lon="9.0912483"><ele>86.0</ele><time>2026-04-04T22:04:35.285Z</time></trkpt><trkpt lat="33.4580067" lon="9.090925"><ele>88.0</ele><time>2026-04-04T22:04:36.285Z</time></trkpt><trkpt lat="33.45798" lon="9.0906"><ele>90.0</ele><time>2026-04-04T22:04:37.285Z</time></trkpt><trkpt lat="33.4579517" lon="9.0902767"><ele>90.0</ele><time>2026-04-04T22:04:38.285Z</time></trkpt><trkpt lat="33.4579267" lon="9.08995"><ele>90.0</ele><time>2026-04-04T22:04:39.285Z</time></trkpt><trkpt lat="33.4579033" lon="9.0896167"><ele>90.0</ele><time>2026-04-04T22:04:40.285Z</time></trkpt><trkpt lat="33.4578767" lon="9.0892817"><ele>90.0</ele><time>2026-04-04T22:04:41.285Z</time></trkpt><trkpt lat="33.4578467" lon="9.0889433"><ele>90.5</ele><time>2026-04-04T22:04:42.285Z</time></trkpt><trkpt lat="33.4578183" lon="9.0886067"><ele>91.0</ele><time>2026-04-04T22:04:43.286Z</time></trkpt><trkpt lat="33.4577883" lon="9.088275"><ele>90.5</ele><time>2026-04-04T22:04:44.283Z</time></trkpt><trkpt lat="33.4577633" lon="9.0879583"><ele>90.0</ele><time>2026-04-04T22:04:45.284Z</time></trkpt><trkpt lat="33.4577433" lon="9.0876533"><ele>90.0</ele><time>2026-04-04T22:04:46.283Z</time></trkpt><trkpt lat="33.4577283" lon="9.08735"><ele>90.0</ele><time>2026-04-04T22:04:47.285Z</time></trkpt><trkpt lat="33.45772" lon="9.0870483"><ele>90.0</ele><time>2026-04-04T22:04:48.284Z</time></trkpt><trkpt lat="33.4577133" lon="9.0867467"><ele>90.0</ele><time>2026-04-04T22:04:49.283Z</time></trkpt><trkpt lat="33.45771" lon="9.0864417"><ele>89.0</ele><time>2026-04-04T22:04:50.285Z</time></trkpt><trkpt lat="33.4577083" lon="9.0861383"><ele>88.0</ele><time>2026-04-04T22:04:51.285Z</time></trkpt><trkpt lat="33.4577067" lon="9.0858333"><ele>90.0</ele><time>2026-04-04T22:04:52.284Z</time></trkpt><trkpt lat="33.457705" lon="9.0855283"><ele>92.0</ele><time>2026-04-04T22:04:53.283Z</time></trkpt><trkpt lat="33.4577" lon="9.0852267"><ele>92.0</ele><time>2026-04-04T22:04:54.285Z</time></trkpt><trkpt lat="33.4576983" lon="9.0849317"><ele>92.0</ele><time>2026-04-04T22:04:55.285Z</time></trkpt><trkpt lat="33.4577" lon="9.0846467"><ele>91.5</ele><time>2026-04-04T22:04:56.285Z</time></trkpt><trkpt lat="33.4577117" lon="9.0843667"><ele>91.0</ele><time>2026-04-04T22:04:57.285Z</time></trkpt><trkpt lat="33.457725" lon="9.084085"><ele>92.0</ele><time>2026-04-04T22:04:58.285Z</time></trkpt><trkpt lat="33.4577433" lon="9.083805"><ele>93.0</ele><time>2026-04-04T22:04:59.285Z</time></trkpt><trkpt lat="33.4577583" lon="9.0835217"><ele>91.5</ele><time>2026-04-04T22:05:00.285Z</time></trkpt><trkpt lat="33.4577733" lon="9.0832367"><ele>90.0</ele><time>2026-04-04T22:05:01.285Z</time></trkpt><trkpt lat="33.4577867" lon="9.0829533"><ele>90.0</ele><time>2026-04-04T22:05:02.285Z</time></trkpt><trkpt lat="33.4577967" lon="9.082675"><ele>90.0</ele><time>2026-04-04T22:05:03.286Z</time></trkpt><trkpt lat="33.457825" lon="9.0821567"><ele>89.66666666666667</ele><time>2026-04-04T22:05:05.286Z</time></trkpt><trkpt lat="33.45784" lon="9.0819083"><ele>89.33333333333334</ele><time>2026-04-04T22:05:06.284Z</time></trkpt><trkpt lat="33.4578533" lon="9.0816567"><ele>89.0</ele><time>2026-04-04T22:05:07.285Z</time></trkpt><trkpt lat="33.4578667" lon="9.0814033"><ele>89.0</ele><time>2026-04-04T22:05:08.285Z</time></trkpt><trkpt lat="33.45788" lon="9.0811467"><ele>89.0</ele><time>2026-04-04T22:05:09.285Z</time></trkpt><trkpt lat="33.4578967" lon="9.0808817"><ele>89.0</ele><time>2026-04-04T22:05:10.281Z</time></trkpt><trkpt lat="33.4579117" lon="9.0806067"><ele>89.0</ele><time>2026-04-04T22:05:11.285Z</time></trkpt><trkpt lat="33.4579283" lon="9.0803233"><ele>89.0</ele><time>2026-04-04T22:05:12.285Z</time></trkpt><trkpt lat="33.457945" lon="9.080035"><ele>89.5</ele><time>2026-04-04T22:05:13.285Z</time></trkpt><trkpt lat="33.4579617" lon="9.0797383"><ele>90.0</ele><time>2026-04-04T22:05:14.284Z</time></trkpt><trkpt lat="33.4579783" lon="9.07944"><ele>90.0</ele><time>2026-04-04T22:05:15.284Z</time></trkpt><trkpt lat="33.4579967" lon="9.07914"><ele>90.0</ele><time>2026-04-04T22:05:16.285Z</time></trkpt><trkpt lat="33.458015" lon="9.0788417"><ele>90.0</ele><time>2026-04-04T22:05:17.285Z</time></trkpt><trkpt lat="33.45803" lon="9.0785433"><ele>90.0</ele><time>2026-04-04T22:05:18.285Z</time></trkpt><trkpt lat="33.458045" lon="9.078245"><ele>90.0</ele><time>2026-04-04T22:05:19.285Z</time></trkpt><trkpt lat="33.45806" lon="9.0779483"><ele>90.0</ele><time>2026-04-04T22:05:20.281Z</time></trkpt><trkpt lat="33.458075" lon="9.07765"><ele>88.5</ele><time>2026-04-04T22:05:21.282Z</time></trkpt><trkpt lat="33.4580883" lon="9.0773483"><ele>87.0</ele><time>2026-04-04T22:05:22.283Z</time></trkpt><trkpt lat="33.4581017" lon="9.0770483"><ele>87.0</ele><time>2026-04-04T22:05:23.282Z</time></trkpt><trkpt lat="33.458115" lon="9.0767467"><ele>87.0</ele><time>2026-04-04T22:05:24.282Z</time></trkpt><trkpt lat="33.4581317" lon="9.0764433"><ele>87.0</ele><time>2026-04-04T22:05:25.282Z</time></trkpt><trkpt lat="33.4581467" lon="9.07614"><ele>87.0</ele><time>2026-04-04T22:05:26.282Z</time></trkpt><trkpt lat="33.4581633" lon="9.075835"><ele>87.0</ele><time>2026-04-04T22:05:27.284Z</time></trkpt><trkpt lat="33.4581833" lon="9.0755267"><ele>87.0</ele><time>2026-04-04T22:05:28.285Z</time></trkpt><trkpt lat="33.4582017" lon="9.0752183"><ele>87.0</ele><time>2026-04-04T22:05:29.285Z</time></trkpt><trkpt lat="33.4582167" lon="9.07491"><ele>87.0</ele><time>2026-04-04T22:05:30.284Z</time></trkpt><trkpt lat="33.4582317" lon="9.0745967"><ele>87.0</ele><time>2026-04-04T22:05:31.285Z</time></trkpt><trkpt lat="33.45825" lon="9.0742833"><ele>87.0</ele><time>2026-04-04T22:05:32.284Z</time></trkpt><trkpt lat="33.4582683" lon="9.0739667"><ele>86.0</ele><time>2026-04-04T22:05:33.284Z</time></trkpt><trkpt lat="33.4582867" lon="9.07365"><ele>85.0</ele><time>2026-04-04T22:05:34.286Z</time></trkpt><trkpt lat="33.4583067" lon="9.0733317"><ele>84.0</ele><time>2026-04-04T22:05:35.284Z</time></trkpt><trkpt lat="33.4583233" lon="9.07301"><ele>83.0</ele><time>2026-04-04T22:05:36.286Z</time></trkpt><trkpt lat="33.4583567" lon="9.0723633"><ele>83.0</ele><time>2026-04-04T22:05:38.285Z</time></trkpt><trkpt lat="33.4583717" lon="9.0720367"><ele>83.0</ele><time>2026-04-04T22:05:39.285Z</time></trkpt><trkpt lat="33.45839" lon="9.07171"><ele>81.5</ele><time>2026-04-04T22:05:40.284Z</time></trkpt><trkpt lat="33.45841" lon="9.0713833"><ele>80.0</ele><time>2026-04-04T22:05:41.285Z</time></trkpt><trkpt lat="33.4584283" lon="9.071055"><ele>81.0</ele><time>2026-04-04T22:05:42.284Z</time></trkpt><trkpt lat="33.458445" lon="9.07073"><ele>82.0</ele><time>2026-04-04T22:05:43.284Z</time></trkpt><trkpt lat="33.45846" lon="9.07041"><ele>82.0</ele><time>2026-04-04T22:05:44.281Z</time></trkpt><trkpt lat="33.4584767" lon="9.0700967"><ele>82.0</ele><time>2026-04-04T22:05:45.282Z</time></trkpt><trkpt lat="33.4584917" lon="9.0697917"><ele>81.0</ele><time>2026-04-04T22:05:46.282Z</time></trkpt><trkpt lat="33.458505" lon="9.069495"><ele>80.0</ele><time>2026-04-04T22:05:47.282Z</time></trkpt><trkpt lat="33.45852" lon="9.0692"><ele>78.5</ele><time>2026-04-04T22:05:48.282Z</time></trkpt><trkpt lat="33.4585367" lon="9.068905"><ele>77.0</ele><time>2026-04-04T22:05:49.281Z</time></trkpt><trkpt lat="33.4585517" lon="9.06861"><ele>77.0</ele><time>2026-04-04T22:05:50.281Z</time></trkpt><trkpt lat="33.4585667" lon="9.06832"><ele>77.0</ele><time>2026-04-04T22:05:51.282Z</time></trkpt><trkpt lat="33.45858" lon="9.0680383"><ele>78.0</ele><time>2026-04-04T22:05:52.282Z</time></trkpt><trkpt lat="33.4585967" lon="9.0677617"><ele>79.0</ele><time>2026-04-04T22:05:53.282Z</time></trkpt><trkpt lat="33.4586117" lon="9.067485"><ele>78.5</ele><time>2026-04-04T22:05:54.282Z</time></trkpt><trkpt lat="33.458625" lon="9.067205"><ele>78.0</ele><time>2026-04-04T22:05:55.281Z</time></trkpt><trkpt lat="33.458635" lon="9.0669233"><ele>78.0</ele><time>2026-04-04T22:05:56.282Z</time></trkpt><trkpt lat="33.4586483" lon="9.06664"><ele>78.0</ele><time>2026-04-04T22:05:57.284Z</time></trkpt><trkpt lat="33.458665" lon="9.0663567"><ele>77.5</ele><time>2026-04-04T22:05:58.285Z</time></trkpt><trkpt lat="33.4586817" lon="9.0660717"><ele>77.0</ele><time>2026-04-04T22:05:59.284Z</time></trkpt><trkpt lat="33.4587" lon="9.0657867"><ele>76.5</ele><time>2026-04-04T22:06:00.285Z</time></trkpt><trkpt lat="33.45872" lon="9.0655"><ele>76.0</ele><time>2026-04-04T22:06:01.284Z</time></trkpt><trkpt lat="33.4587367" lon="9.06521"><ele>76.5</ele><time>2026-04-04T22:06:02.285Z</time></trkpt><trkpt lat="33.4587517" lon="9.0649167"><ele>77.0</ele><time>2026-04-04T22:06:03.285Z</time></trkpt><trkpt lat="33.4587667" lon="9.0646217"><ele>77.0</ele><time>2026-04-04T22:06:04.284Z</time></trkpt><trkpt lat="33.4587817" lon="9.0643267"><ele>77.0</ele><time>2026-04-04T22:06:05.284Z</time></trkpt><trkpt lat="33.458795" lon="9.06403"><ele>75.0</ele><time>2026-04-04T22:06:06.284Z</time></trkpt><trkpt lat="33.4588083" lon="9.063735"><ele>73.0</ele><time>2026-04-04T22:06:07.285Z</time></trkpt><trkpt lat="33.4588217" lon="9.0634383"><ele>73.0</ele><time>2026-04-04T22:06:08.285Z</time></trkpt><trkpt lat="33.4588383" lon="9.0631433"><ele>73.0</ele><time>2026-04-04T22:06:09.285Z</time></trkpt><trkpt lat="33.45887" lon="9.0625483"><ele>72.5</ele><time>2026-04-04T22:06:11.285Z</time></trkpt><trkpt lat="33.458885" lon="9.0622433"><ele>72.0</ele><time>2026-04-04T22:06:12.286Z</time></trkpt><trkpt lat="33.4588983" lon="9.0619483"><ele>72.0</ele><time>2026-04-04T22:06:13.284Z</time></trkpt><trkpt lat="33.4589133" lon="9.0616717"><ele>72.0</ele><time>2026-04-04T22:06:14.282Z</time></trkpt><trkpt lat="33.4589267" lon="9.0614017"><ele>72.0</ele><time>2026-04-04T22:06:15.282Z</time></trkpt><trkpt lat="33.4589417" lon="9.0611383"><ele>72.0</ele><time>2026-04-04T22:06:16.283Z</time></trkpt><trkpt lat="33.4589583" lon="9.0608733"><ele>72.0</ele><time>2026-04-04T22:06:17.282Z</time></trkpt><trkpt lat="33.4589733" lon="9.060605"><ele>72.0</ele><time>2026-04-04T22:06:18.282Z</time></trkpt><trkpt lat="33.4589883" lon="9.0603333"><ele>72.0</ele><time>2026-04-04T22:06:19.283Z</time></trkpt><trkpt lat="33.4590017" lon="9.0600583"><ele>72.5</ele><time>2026-04-04T22:06:20.282Z</time></trkpt><trkpt lat="33.459015" lon="9.0597767"><ele>73.0</ele><time>2026-04-04T22:06:21.283Z</time></trkpt><trkpt lat="33.4590267" lon="9.0594933"><ele>73.0</ele><time>2026-04-04T22:06:22.282Z</time></trkpt><trkpt lat="33.4590417" lon="9.0592083"><ele>73.0</ele><time>2026-04-04T22:06:23.283Z</time></trkpt><trkpt lat="33.4590567" lon="9.0589233"><ele>73.5</ele><time>2026-04-04T22:06:24.283Z</time></trkpt><trkpt lat="33.459075" lon="9.05864"><ele>74.0</ele><time>2026-04-04T22:06:25.286Z</time></trkpt><trkpt lat="33.4590933" lon="9.05836"><ele>73.5</ele><time>2026-04-04T22:06:26.283Z</time></trkpt><trkpt lat="33.4591133" lon="9.058085"><ele>73.0</ele><time>2026-04-04T22:06:27.285Z</time></trkpt><trkpt lat="33.45913" lon="9.0578183"><ele>73.0</ele><time>2026-04-04T22:06:28.284Z</time></trkpt><trkpt lat="33.459145" lon="9.0575617"><ele>73.0</ele><time>2026-04-04T22:06:29.282Z</time></trkpt><trkpt lat="33.4591583" lon="9.0573083"><ele>73.0</ele><time>2026-04-04T22:06:30.286Z</time></trkpt><trkpt lat="33.4591683" lon="9.057055"><ele>72.0</ele><time>2026-04-04T22:06:31.285Z</time></trkpt><trkpt lat="33.45918" lon="9.0568"><ele>71.0</ele><time>2026-04-04T22:06:32.284Z</time></trkpt><trkpt lat="33.4591917" lon="9.0565383"><ele>70.0</ele><time>2026-04-04T22:06:33.284Z</time></trkpt><trkpt lat="33.4592067" lon="9.0562733"><ele>70.0</ele><time>2026-04-04T22:06:34.282Z</time></trkpt><trkpt lat="33.459225" lon="9.056005"><ele>70.0</ele><time>2026-04-04T22:06:35.283Z</time></trkpt><trkpt lat="33.4592417" lon="9.055735"><ele>69.66666666666666</ele><time>2026-04-04T22:06:36.284Z</time></trkpt><trkpt lat="33.4592567" lon="9.0554667"><ele>69.33333333333333</ele><time>2026-04-04T22:06:37.287Z</time></trkpt><trkpt lat="33.4592717" lon="9.0552017"><ele>69.0</ele><time>2026-04-04T22:06:38.286Z</time></trkpt><trkpt lat="33.4592867" lon="9.05495"><ele>69.0</ele><time>2026-04-04T22:06:39.285Z</time></trkpt><trkpt lat="33.4592967" lon="9.0547117"><ele>69.0</ele><time>2026-04-04T22:06:40.285Z</time></trkpt><trkpt lat="33.4593083" lon="9.0544833"><ele>69.0</ele><time>2026-04-04T22:06:41.287Z</time></trkpt><trkpt lat="33.45932" lon="9.0542683"><ele>70.0</ele><time>2026-04-04T22:06:42.286Z</time></trkpt><trkpt lat="33.45934" lon="9.053865"><ele>71.0</ele><time>2026-04-04T22:06:44.283Z</time></trkpt><trkpt lat="33.4593483" lon="9.0536667"><ele>71.0</ele><time>2026-04-04T22:06:45.284Z</time></trkpt><trkpt lat="33.4593617" lon="9.0534717"><ele>71.0</ele><time>2026-04-04T22:06:46.282Z</time></trkpt><trkpt lat="33.45937" lon="9.0532767"><ele>71.0</ele><time>2026-04-04T22:06:47.285Z</time></trkpt><trkpt lat="33.4593817" lon="9.05308"><ele>71.33333333333334</ele><time>2026-04-04T22:06:48.284Z</time></trkpt><trkpt lat="33.4593933" lon="9.0528833"><ele>71.66666666666667</ele><time>2026-04-04T22:06:49.285Z</time></trkpt><trkpt lat="33.4594033" lon="9.0526833"><ele>72.0</ele><time>2026-04-04T22:06:50.285Z</time></trkpt><trkpt lat="33.459415" lon="9.0524817"><ele>72.0</ele><time>2026-04-04T22:06:51.282Z</time></trkpt><trkpt lat="33.4594267" lon="9.0522783"><ele>72.0</ele><time>2026-04-04T22:06:52.284Z</time></trkpt><trkpt lat="33.4594367" lon="9.052075"><ele>72.0</ele><time>2026-04-04T22:06:53.285Z</time></trkpt><trkpt lat="33.4594467" lon="9.0518717"><ele>72.0</ele><time>2026-04-04T22:06:54.285Z</time></trkpt><trkpt lat="33.4594583" lon="9.05167"><ele>72.0</ele><time>2026-04-04T22:06:55.285Z</time></trkpt><trkpt lat="33.4594667" lon="9.0514717"><ele>72.0</ele><time>2026-04-04T22:06:56.285Z</time></trkpt><trkpt lat="33.4594783" lon="9.051275"><ele>72.33333333333333</ele><time>2026-04-04T22:06:57.285Z</time></trkpt><trkpt lat="33.45949" lon="9.0510783"><ele>72.66666666666666</ele><time>2026-04-04T22:06:58.286Z</time></trkpt><trkpt lat="33.4595017" lon="9.05088"><ele>73.0</ele><time>2026-04-04T22:06:59.285Z</time></trkpt><trkpt lat="33.45951" lon="9.0506833"><ele>73.33333333333333</ele><time>2026-04-04T22:07:00.285Z</time></trkpt><trkpt lat="33.4595217" lon="9.050485"><ele>73.66666666666667</ele><time>2026-04-04T22:07:01.285Z</time></trkpt><trkpt lat="33.4595317" lon="9.0502867"><ele>74.0</ele><time>2026-04-04T22:07:02.285Z</time></trkpt><trkpt lat="33.4595433" lon="9.05009"><ele>74.0</ele><time>2026-04-04T22:07:03.285Z</time></trkpt><trkpt lat="33.4595533" lon="9.0499033"><ele>74.0</ele><time>2026-04-04T22:07:04.285Z</time></trkpt><trkpt lat="33.4595633" lon="9.0497267"><ele>74.0</ele><time>2026-04-04T22:07:05.285Z</time></trkpt><trkpt lat="33.4595683" lon="9.0495567"><ele>74.0</ele><time>2026-04-04T22:07:06.283Z</time></trkpt><trkpt lat="33.459575" lon="9.049395"><ele>74.0</ele><time>2026-04-04T22:07:07.286Z</time></trkpt><trkpt lat="33.4595817" lon="9.0492333"><ele>74.0</ele><time>2026-04-04T22:07:08.285Z</time></trkpt><trkpt lat="33.4595883" lon="9.049065"><ele>74.0</ele><time>2026-04-04T22:07:09.285Z</time></trkpt><trkpt lat="33.4595967" lon="9.04889"><ele>74.0</ele><time>2026-04-04T22:07:10.285Z</time></trkpt><trkpt lat="33.4596033" lon="9.04871"><ele>72.33333333333334</ele><time>2026-04-04T22:07:11.285Z</time></trkpt><trkpt lat="33.4596133" lon="9.048525"><ele>70.66666666666667</ele><time>2026-04-04T22:07:12.286Z</time></trkpt><trkpt lat="33.4596217" lon="9.0483367"><ele>69.0</ele><time>2026-04-04T22:07:13.282Z</time></trkpt><trkpt lat="33.4596317" lon="9.0481467"><ele>69.0</ele><time>2026-04-04T22:07:14.283Z</time></trkpt><trkpt lat="33.4596433" lon="9.0479583"><ele>69.0</ele><time>2026-04-04T22:07:15.285Z</time></trkpt><trkpt lat="33.4596767" lon="9.0473883"><ele>68.33333333333333</ele><time>2026-04-04T22:07:18.285Z</time></trkpt><trkpt lat="33.4596883" lon="9.0471933"><ele>67.66666666666666</ele><time>2026-04-04T22:07:19.283Z</time></trkpt><trkpt lat="33.4597" lon="9.047005"><ele>67.0</ele><time>2026-04-04T22:07:20.285Z</time></trkpt><trkpt lat="33.45971" lon="9.046825"><ele>67.0</ele><time>2026-04-04T22:07:21.285Z</time></trkpt><trkpt lat="33.4597167" lon="9.046655"><ele>67.0</ele><time>2026-04-04T22:07:22.285Z</time></trkpt><trkpt lat="33.4597283" lon="9.0464917"><ele>67.0</ele><time>2026-04-04T22:07:23.286Z</time></trkpt><trkpt lat="33.4597383" lon="9.0463367"><ele>67.0</ele><time>2026-04-04T22:07:24.282Z</time></trkpt><trkpt lat="33.4597483" lon="9.0461867"><ele>67.25</ele><time>2026-04-04T22:07:25.285Z</time></trkpt><trkpt lat="33.4597583" lon="9.046045"><ele>67.5</ele><time>2026-04-04T22:07:26.283Z</time></trkpt><trkpt lat="33.4597667" lon="9.0459017"><ele>67.75</ele><time>2026-04-04T22:07:27.285Z</time></trkpt><trkpt lat="33.4597767" lon="9.0457583"><ele>68.0</ele><time>2026-04-04T22:07:28.281Z</time></trkpt><trkpt lat="33.4597867" lon="9.0456167"><ele>67.5</ele><time>2026-04-04T22:07:29.285Z</time></trkpt><trkpt lat="33.4597933" lon="9.0454767"><ele>67.0</ele><time>2026-04-04T22:07:30.285Z</time></trkpt><trkpt lat="33.4598" lon="9.0453433"><ele>66.5</ele><time>2026-04-04T22:07:31.287Z</time></trkpt><trkpt lat="33.4598067" lon="9.0452083"><ele>66.0</ele><time>2026-04-04T22:07:32.285Z</time></trkpt><trkpt lat="33.4598133" lon="9.0450733"><ele>66.0</ele><time>2026-04-04T22:07:33.285Z</time></trkpt><trkpt lat="33.4598233" lon="9.04494"><ele>66.0</ele><time>2026-04-04T22:07:34.286Z</time></trkpt><trkpt lat="33.4598283" lon="9.0448033"><ele>66.0</ele><time>2026-04-04T22:07:35.286Z</time></trkpt><trkpt lat="33.4598367" lon="9.0446617"><ele>66.0</ele><time>2026-04-04T22:07:36.285Z</time></trkpt><trkpt lat="33.4598433" lon="9.04452"><ele>66.0</ele><time>2026-04-04T22:07:37.281Z</time></trkpt><trkpt lat="33.4598483" lon="9.0443817"><ele>66.0</ele><time>2026-04-04T22:07:38.285Z</time></trkpt><trkpt lat="33.4598533" lon="9.04425"><ele>66.0</ele><time>2026-04-04T22:07:39.283Z</time></trkpt><trkpt lat="33.4598583" lon="9.044125"><ele>66.0</ele><time>2026-04-04T22:07:40.284Z</time></trkpt><trkpt lat="33.4598633" lon="9.044005"><ele>66.0</ele><time>2026-04-04T22:07:41.286Z</time></trkpt><trkpt lat="33.4598667" lon="9.0438917"><ele>66.5</ele><time>2026-04-04T22:07:42.285Z</time></trkpt><trkpt lat="33.4598683" lon="9.043785"><ele>67.0</ele><time>2026-04-04T22:07:43.285Z</time></trkpt><trkpt lat="33.45987" lon="9.0436833"><ele>67.5</ele><time>2026-04-04T22:07:44.285Z</time></trkpt><trkpt lat="33.459875" lon="9.0435883"><ele>68.0</ele><time>2026-04-04T22:07:45.285Z</time></trkpt><trkpt lat="33.4598783" lon="9.0434867"><ele>68.5</ele><time>2026-04-04T22:07:46.281Z</time></trkpt><trkpt lat="33.4598833" lon="9.0433783"><ele>69.0</ele><time>2026-04-04T22:07:47.283Z</time></trkpt><trkpt lat="33.4598883" lon="9.0432633"><ele>69.33333333333333</ele><time>2026-04-04T22:07:48.282Z</time></trkpt><trkpt lat="33.4599167" lon="9.0429033"><ele>69.66666666666666</ele><time>2026-04-04T22:07:51.286Z</time></trkpt><trkpt lat="33.459925" lon="9.04277"><ele>70.0</ele><time>2026-04-04T22:07:52.286Z</time></trkpt><trkpt lat="33.45993" lon="9.042635"><ele>70.0</ele><time>2026-04-04T22:07:53.285Z</time></trkpt><trkpt lat="33.459935" lon="9.0425017"><ele>70.0</ele><time>2026-04-04T22:07:54.283Z</time></trkpt><trkpt lat="33.4599417" lon="9.0423767"><ele>70.0</ele><time>2026-04-04T22:07:55.283Z</time></trkpt><trkpt lat="33.45995" lon="9.0422517"><ele>70.0</ele><time>2026-04-04T22:07:56.282Z</time></trkpt><trkpt lat="33.4599583" lon="9.042125"><ele>70.0</ele><time>2026-04-04T22:07:57.282Z</time></trkpt><trkpt lat="33.4599667" lon="9.0419917"><ele>70.0</ele><time>2026-04-04T22:07:58.282Z</time></trkpt><trkpt lat="33.459975" lon="9.0418583"><ele>70.0</ele><time>2026-04-04T22:07:59.285Z</time></trkpt><trkpt lat="33.4599817" lon="9.0417267"><ele>70.0</ele><time>2026-04-04T22:08:00.282Z</time></trkpt><trkpt lat="33.45999" lon="9.0416017"><ele>70.0</ele><time>2026-04-04T22:08:01.282Z</time></trkpt><trkpt lat="33.4599967" lon="9.0414867"><ele>70.0</ele><time>2026-04-04T22:08:02.282Z</time></trkpt><trkpt lat="33.4600033" lon="9.0413783"><ele>70.0</ele><time>2026-04-04T22:08:03.282Z</time></trkpt><trkpt lat="33.46001" lon="9.041275"><ele>70.0</ele><time>2026-04-04T22:08:04.282Z</time></trkpt><trkpt lat="33.460015" lon="9.0411783"><ele>70.0</ele><time>2026-04-04T22:08:05.283Z</time></trkpt><trkpt lat="33.4600183" lon="9.0410883"><ele>70.0</ele><time>2026-04-04T22:08:06.282Z</time></trkpt><trkpt lat="33.460025" lon="9.0410083"><ele>70.0</ele><time>2026-04-04T22:08:07.282Z</time></trkpt><trkpt lat="33.4600317" lon="9.0408633"><ele>70.0</ele><time>2026-04-04T22:08:09.282Z</time></trkpt><trkpt lat="33.4600433" lon="9.0407267"><ele>70.0</ele><time>2026-04-04T22:08:11.283Z</time></trkpt><trkpt lat="33.46005" lon="9.0405883"><ele>70.0</ele><time>2026-04-04T22:08:13.283Z</time></trkpt><trkpt lat="33.46005" lon="9.04051"><ele>70.0</ele><time>2026-04-04T22:08:14.285Z</time></trkpt><trkpt lat="33.4600483" lon="9.0404267"><ele>70.0</ele><time>2026-04-04T22:08:15.283Z</time></trkpt><trkpt lat="33.4600483" lon="9.04034"><ele>70.0</ele><time>2026-04-04T22:08:16.285Z</time></trkpt><trkpt lat="33.4600483" lon="9.040255"><ele>70.0</ele><time>2026-04-04T22:08:17.282Z</time></trkpt><trkpt lat="33.4600467" lon="9.04017"><ele>70.0</ele><time>2026-04-04T22:08:18.281Z</time></trkpt><trkpt lat="33.4600433" lon="9.0400867"><ele>70.0</ele><time>2026-04-04T22:08:19.283Z</time></trkpt><trkpt lat="33.46004" lon="9.039995"><ele>70.0</ele><time>2026-04-04T22:08:20.285Z</time></trkpt><trkpt lat="33.4600367" lon="9.0398933"><ele>70.0</ele><time>2026-04-04T22:08:21.285Z</time></trkpt><trkpt lat="33.46003" lon="9.03958"><ele>69.16666666666666</ele><time>2026-04-04T22:08:24.285Z</time></trkpt><trkpt lat="33.4600267" lon="9.0394833"><ele>68.33333333333333</ele><time>2026-04-04T22:08:25.284Z</time></trkpt><trkpt lat="33.460025" lon="9.039385"><ele>67.5</ele><time>2026-04-04T22:08:26.284Z</time></trkpt><trkpt lat="33.4600183" lon="9.03928"><ele>66.66666666666667</ele><time>2026-04-04T22:08:27.284Z</time></trkpt><trkpt lat="33.4600117" lon="9.0391717"><ele>65.83333333333334</ele><time>2026-04-04T22:08:28.284Z</time></trkpt><trkpt lat="33.4600067" lon="9.0390683"><ele>65.0</ele><time>2026-04-04T22:08:29.284Z</time></trkpt><trkpt lat="33.46" lon="9.0389667"><ele>64.83333333333334</ele><time>2026-04-04T22:08:30.286Z</time></trkpt><trkpt lat="33.459995" lon="9.0388683"><ele>64.66666666666667</ele><time>2026-04-04T22:08:31.285Z</time></trkpt><trkpt lat="33.45999" lon="9.0387667"><ele>64.5</ele><time>2026-04-04T22:08:32.288Z</time></trkpt><trkpt lat="33.459985" lon="9.038665"><ele>64.33333333333333</ele><time>2026-04-04T22:08:33.283Z</time></trkpt><trkpt lat="33.45998" lon="9.038565"><ele>64.16666666666666</ele><time>2026-04-04T22:08:34.282Z</time></trkpt><trkpt lat="33.4599717" lon="9.0384617"><ele>64.0</ele><time>2026-04-04T22:08:35.281Z</time></trkpt><trkpt lat="33.4599617" lon="9.03835"><ele>64.16666666666666</ele><time>2026-04-04T22:08:36.281Z</time></trkpt><trkpt lat="33.4599533" lon="9.0382417"><ele>64.33333333333333</ele><time>2026-04-04T22:08:37.282Z</time></trkpt><trkpt lat="33.4599483" lon="9.0381433"><ele>64.5</ele><time>2026-04-04T22:08:38.282Z</time></trkpt><trkpt lat="33.459945" lon="9.0380567"><ele>64.66666666666667</ele><time>2026-04-04T22:08:39.282Z</time></trkpt><trkpt lat="33.4599417" lon="9.0379783"><ele>64.83333333333334</ele><time>2026-04-04T22:08:40.285Z</time></trkpt><trkpt lat="33.4599383" lon="9.0378433"><ele>65.0</ele><time>2026-04-04T22:08:42.284Z</time></trkpt><trkpt lat="33.4599417" lon="9.0377183"><ele>65.0</ele><time>2026-04-04T22:08:44.284Z</time></trkpt><trkpt lat="33.459945" lon="9.037565"><ele>65.0</ele><time>2026-04-04T22:08:46.281Z</time></trkpt><trkpt lat="33.459945" lon="9.0374767"><ele>65.0</ele><time>2026-04-04T22:08:47.281Z</time></trkpt><trkpt lat="33.45994" lon="9.0373933"><ele>65.0</ele><time>2026-04-04T22:08:48.281Z</time></trkpt><trkpt lat="33.4599333" lon="9.037315"><ele>65.0</ele><time>2026-04-04T22:08:49.285Z</time></trkpt><trkpt lat="33.4599283" lon="9.0371667"><ele>65.16666666666667</ele><time>2026-04-04T22:08:51.282Z</time></trkpt><trkpt lat="33.45993" lon="9.03709"><ele>65.33333333333334</ele><time>2026-04-04T22:08:52.283Z</time></trkpt><trkpt lat="33.45993" lon="9.03701"><ele>65.5</ele><time>2026-04-04T22:08:53.282Z</time></trkpt><trkpt lat="33.4599283" lon="9.036925"><ele>65.66666666666667</ele><time>2026-04-04T22:08:54.283Z</time></trkpt><trkpt lat="33.4599217" lon="9.03675"><ele>65.83333333333333</ele><time>2026-04-04T22:08:56.283Z</time></trkpt><trkpt lat="33.4599233" lon="9.0366533"><ele>66.0</ele><time>2026-04-04T22:08:57.282Z</time></trkpt><trkpt lat="33.4599233" lon="9.0365533"><ele>66.16666666666667</ele><time>2026-04-04T22:08:58.284Z</time></trkpt><trkpt lat="33.4599217" lon="9.0364517"><ele>66.33333333333333</ele><time>2026-04-04T22:08:59.282Z</time></trkpt><trkpt lat="33.45992" lon="9.0363467"><ele>66.5</ele><time>2026-04-04T22:09:00.284Z</time></trkpt><trkpt lat="33.4599217" lon="9.0362367"><ele>66.66666666666666</ele><time>2026-04-04T22:09:01.285Z</time></trkpt><trkpt lat="33.459925" lon="9.03613"><ele>66.83333333333333</ele><time>2026-04-04T22:09:02.284Z</time></trkpt><trkpt lat="33.4599333" lon="9.0360233"><ele>67.0</ele><time>2026-04-04T22:09:03.282Z</time></trkpt><trkpt lat="33.45994" lon="9.0359133"><ele>67.0</ele><time>2026-04-04T22:09:04.282Z</time></trkpt><trkpt lat="33.4599433" lon="9.0358083"><ele>67.0</ele><time>2026-04-04T22:09:05.282Z</time></trkpt><trkpt lat="33.4599483" lon="9.03571"><ele>67.0</ele><time>2026-04-04T22:09:06.283Z</time></trkpt><trkpt lat="33.4599517" lon="9.0356117"><ele>67.0</ele><time>2026-04-04T22:09:07.282Z</time></trkpt><trkpt lat="33.4599567" lon="9.035515"><ele>67.0</ele><time>2026-04-04T22:09:08.283Z</time></trkpt><trkpt lat="33.459965" lon="9.0354183"><ele>67.0</ele><time>2026-04-04T22:09:09.282Z</time></trkpt><trkpt lat="33.45997" lon="9.035315"><ele>67.33333333333333</ele><time>2026-04-04T22:09:10.284Z</time></trkpt><trkpt lat="33.45998" lon="9.03521"><ele>67.66666666666666</ele><time>2026-04-04T22:09:11.286Z</time></trkpt><trkpt lat="33.45999" lon="9.0351017"><ele>68.0</ele><time>2026-04-04T22:09:12.282Z</time></trkpt><trkpt lat="33.4599967" lon="9.034995"><ele>68.33333333333333</ele><time>2026-04-04T22:09:13.284Z</time></trkpt><trkpt lat="33.4600033" lon="9.0348967"><ele>68.66666666666667</ele><time>2026-04-04T22:09:14.284Z</time></trkpt><trkpt lat="33.4600117" lon="9.0348033"><ele>69.0</ele><time>2026-04-04T22:09:15.284Z</time></trkpt><trkpt lat="33.4600233" lon="9.0347133"><ele>69.0</ele><time>2026-04-04T22:09:16.282Z</time></trkpt><trkpt lat="33.460035" lon="9.0346283"><ele>69.0</ele><time>2026-04-04T22:09:17.285Z</time></trkpt><trkpt lat="33.4600333" lon="9.0345467"><ele>69.0</ele><time>2026-04-04T22:09:18.285Z</time></trkpt><trkpt lat="33.460035" lon="9.0344633"><ele>69.0</ele><time>2026-04-04T22:09:19.285Z</time></trkpt><trkpt lat="33.4600367" lon="9.0343733"><ele>69.0</ele><time>2026-04-04T22:09:20.285Z</time></trkpt><trkpt lat="33.4600383" lon="9.0342867"><ele>69.0</ele><time>2026-04-04T22:09:21.285Z</time></trkpt><trkpt lat="33.46004" lon="9.0342083"><ele>69.0</ele><time>2026-04-04T22:09:22.283Z</time></trkpt><trkpt lat="33.4600433" lon="9.0340733"><ele>68.8</ele><time>2026-04-04T22:09:24.284Z</time></trkpt><trkpt lat="33.4600517" lon="9.0339533"><ele>68.60000000000001</ele><time>2026-04-04T22:09:26.284Z</time></trkpt><trkpt lat="33.460065" lon="9.0337383"><ele>68.4</ele><time>2026-04-04T22:09:29.285Z</time></trkpt><trkpt lat="33.460065" lon="9.03365"><ele>68.2</ele><time>2026-04-04T22:09:30.283Z</time></trkpt><trkpt lat="33.4600617" lon="9.0335583"><ele>68.0</ele><time>2026-04-04T22:09:31.281Z</time></trkpt><trkpt lat="33.46006" lon="9.0334617"><ele>68.0</ele><time>2026-04-04T22:09:32.281Z</time></trkpt><trkpt lat="33.4600583" lon="9.03336"><ele>68.0</ele><time>2026-04-04T22:09:33.282Z</time></trkpt><trkpt lat="33.4600567" lon="9.033255"><ele>68.0</ele><time>2026-04-04T22:09:34.283Z</time></trkpt><trkpt lat="33.4600567" lon="9.0331533"><ele>68.0</ele><time>2026-04-04T22:09:35.284Z</time></trkpt><trkpt lat="33.4600583" lon="9.0330567"><ele>68.0</ele><time>2026-04-04T22:09:36.282Z</time></trkpt><trkpt lat="33.4600617" lon="9.0329633"><ele>68.0</ele><time>2026-04-04T22:09:37.282Z</time></trkpt><trkpt lat="33.4600633" lon="9.0328717"><ele>68.16666666666667</ele><time>2026-04-04T22:09:38.281Z</time></trkpt><trkpt lat="33.4600667" lon="9.0327817"><ele>68.33333333333334</ele><time>2026-04-04T22:09:39.283Z</time></trkpt><trkpt lat="33.4600683" lon="9.03269"><ele>68.5</ele><time>2026-04-04T22:09:40.284Z</time></trkpt><trkpt lat="33.460075" lon="9.032595"><ele>68.66666666666667</ele><time>2026-04-04T22:09:41.286Z</time></trkpt><trkpt lat="33.4600783" lon="9.0324983"><ele>68.83333333333333</ele><time>2026-04-04T22:09:42.284Z</time></trkpt><trkpt lat="33.4600817" lon="9.0324033"><ele>69.0</ele><time>2026-04-04T22:09:43.285Z</time></trkpt><trkpt lat="33.4600867" lon="9.03231"><ele>69.33333333333333</ele><time>2026-04-04T22:09:44.285Z</time></trkpt><trkpt lat="33.4600917" lon="9.03222"><ele>69.66666666666667</ele><time>2026-04-04T22:09:45.285Z</time></trkpt><trkpt lat="33.4600983" lon="9.0321233"><ele>70.0</ele><time>2026-04-04T22:09:46.283Z</time></trkpt><trkpt lat="33.4601067" lon="9.0320233"><ele>70.33333333333334</ele><time>2026-04-04T22:09:47.286Z</time></trkpt><trkpt lat="33.4601133" lon="9.0319167"><ele>70.66666666666667</ele><time>2026-04-04T22:09:48.374Z</time></trkpt><trkpt lat="33.46012" lon="9.0318033"><ele>71.0</ele><time>2026-04-04T22:09:49.282Z</time></trkpt><trkpt lat="33.4601233" lon="9.03169"><ele>70.6</ele><time>2026-04-04T22:09:50.286Z</time></trkpt><trkpt lat="33.4601267" lon="9.0315767"><ele>70.19999999999999</ele><time>2026-04-04T22:09:51.286Z</time></trkpt><trkpt lat="33.4601283" lon="9.0314617"><ele>69.80000000000001</ele><time>2026-04-04T22:09:52.286Z</time></trkpt><trkpt lat="33.460125" lon="9.03135"><ele>69.4</ele><time>2026-04-04T22:09:53.285Z</time></trkpt><trkpt lat="33.4601183" lon="9.0312483"><ele>69.0</ele><time>2026-04-04T22:09:54.285Z</time></trkpt><trkpt lat="33.46011" lon="9.03115"><ele>69.0</ele><time>2026-04-04T22:09:55.285Z</time></trkpt><trkpt lat="33.4600983" lon="9.0310483"><ele>69.0</ele><time>2026-04-04T22:09:56.282Z</time></trkpt><trkpt lat="33.46009" lon="9.0309417"><ele>69.0</ele><time>2026-04-04T22:09:57.287Z</time></trkpt><trkpt lat="33.4600817" lon="9.0308383"><ele>69.0</ele><time>2026-04-04T22:09:58.285Z</time></trkpt><trkpt lat="33.4600767" lon="9.0307467"><ele>69.0</ele><time>2026-04-04T22:09:59.286Z</time></trkpt><trkpt lat="33.4600717" lon="9.0306617"><ele>69.0</ele><time>2026-04-04T22:10:00.286Z</time></trkpt><trkpt lat="33.4600633" lon="9.030495"><ele>69.16666666666667</ele><time>2026-04-04T22:10:02.285Z</time></trkpt><trkpt lat="33.460055" lon="9.030415"><ele>69.33333333333333</ele><time>2026-04-04T22:10:03.287Z</time></trkpt><trkpt lat="33.460045" lon="9.0303383"><ele>69.5</ele><time>2026-04-04T22:10:04.285Z</time></trkpt><trkpt lat="33.46003" lon="9.0301933"><ele>69.66666666666666</ele><time>2026-04-04T22:10:06.284Z</time></trkpt><trkpt lat="33.460015" lon="9.03007"><ele>69.83333333333333</ele><time>2026-04-04T22:10:08.285Z</time></trkpt><trkpt lat="33.46001" lon="9.029985"><ele>70.0</ele><time>2026-04-04T22:10:10.283Z</time></trkpt><trkpt lat="33.46" lon="9.0299017"><ele>70.0</ele><time>2026-04-04T22:10:12.282Z</time></trkpt><trkpt lat="33.4599867" lon="9.0298"><ele>70.0</ele><time>2026-04-04T22:10:14.282Z</time></trkpt><trkpt lat="33.459965" lon="9.0296633"><ele>70.0</ele><time>2026-04-04T22:10:16.282Z</time></trkpt><trkpt lat="33.4599617" lon="9.0295817"><ele>70.0</ele><time>2026-04-04T22:10:17.285Z</time></trkpt><trkpt lat="33.459955" lon="9.02949"><ele>70.0</ele><time>2026-04-04T22:10:18.283Z</time></trkpt><trkpt lat="33.4599467" lon="9.0293917"><ele>70.0</ele><time>2026-04-04T22:10:19.288Z</time></trkpt><trkpt lat="33.4599367" lon="9.0292917"><ele>70.0</ele><time>2026-04-04T22:10:20.282Z</time></trkpt><trkpt lat="33.4599217" lon="9.0291967"><ele>70.0</ele><time>2026-04-04T22:10:21.283Z</time></trkpt><trkpt lat="33.4599033" lon="9.0291017"><ele>70.0</ele><time>2026-04-04T22:10:22.281Z</time></trkpt><trkpt lat="33.4598817" lon="9.0290083"><ele>70.0</ele><time>2026-04-04T22:10:23.285Z</time></trkpt><trkpt lat="33.459855" lon="9.028915"><ele>70.0</ele><time>2026-04-04T22:10:24.282Z</time></trkpt><trkpt lat="33.4598233" lon="9.02882"><ele>70.0</ele><time>2026-04-04T22:10:25.285Z</time></trkpt><trkpt lat="33.45979" lon="9.02873"><ele>70.16666666666666</ele><time>2026-04-04T22:10:26.285Z</time></trkpt><trkpt lat="33.4597567" lon="9.0286417"><ele>70.33333333333333</ele><time>2026-04-04T22:10:27.282Z</time></trkpt><trkpt lat="33.45972" lon="9.0285467"><ele>70.5</ele><time>2026-04-04T22:10:28.283Z</time></trkpt><trkpt lat="33.45968" lon="9.0284483"><ele>70.66666666666667</ele><time>2026-04-04T22:10:29.287Z</time></trkpt><trkpt lat="33.459635" lon="9.0283483"><ele>70.83333333333334</ele><time>2026-04-04T22:10:30.285Z</time></trkpt><trkpt lat="33.459585" lon="9.0282517"><ele>71.0</ele><time>2026-04-04T22:10:31.285Z</time></trkpt><trkpt lat="33.459535" lon="9.028165"><ele>71.0</ele><time>2026-04-04T22:10:32.286Z</time></trkpt><trkpt lat="33.4594883" lon="9.028085"><ele>71.0</ele><time>2026-04-04T22:10:33.286Z</time></trkpt><trkpt lat="33.4593883" lon="9.0279233"><ele>71.0</ele><time>2026-04-04T22:10:35.286Z</time></trkpt><trkpt lat="33.4593333" lon="9.0278533"><ele>71.0</ele><time>2026-04-04T22:10:36.282Z</time></trkpt><trkpt lat="33.4592817" lon="9.02779"><ele>71.0</ele><time>2026-04-04T22:10:37.285Z</time></trkpt><trkpt lat="33.45924" lon="9.0277283"><ele>71.0</ele><time>2026-04-04T22:10:38.285Z</time></trkpt><trkpt lat="33.4591983" lon="9.02767"><ele>71.0</ele><time>2026-04-04T22:10:39.284Z</time></trkpt><trkpt lat="33.459155" lon="9.0276067"><ele>71.0</ele><time>2026-04-04T22:10:40.282Z</time></trkpt><trkpt lat="33.4591067" lon="9.02754"><ele>71.0</ele><time>2026-04-04T22:10:41.285Z</time></trkpt><trkpt lat="33.4590517" lon="9.0274783"><ele>71.0</ele><time>2026-04-04T22:10:42.285Z</time></trkpt><trkpt lat="33.4590033" lon="9.0274217"><ele>71.0</ele><time>2026-04-04T22:10:43.285Z</time></trkpt><trkpt lat="33.458955" lon="9.0273733"><ele>71.0</ele><time>2026-04-04T22:10:44.285Z</time></trkpt><trkpt lat="33.458865" lon="9.0272783"><ele>70.8</ele><time>2026-04-04T22:10:46.285Z</time></trkpt><trkpt lat="33.4587667" lon="9.02717"><ele>70.6</ele><time>2026-04-04T22:10:48.286Z</time></trkpt><trkpt lat="33.4587117" lon="9.0271083"><ele>70.4</ele><time>2026-04-04T22:10:49.282Z</time></trkpt><trkpt lat="33.4586467" lon="9.0270483"><ele>70.2</ele><time>2026-04-04T22:10:50.285Z</time></trkpt><trkpt lat="33.4585817" lon="9.02699"><ele>70.0</ele><time>2026-04-04T22:10:51.285Z</time></trkpt><trkpt lat="33.4585183" lon="9.02693"><ele>70.0</ele><time>2026-04-04T22:10:52.285Z</time></trkpt><trkpt lat="33.4584517" lon="9.0268667"><ele>70.0</ele><time>2026-04-04T22:10:53.285Z</time></trkpt><trkpt lat="33.45838" lon="9.0268"><ele>70.0</ele><time>2026-04-04T22:10:54.286Z</time></trkpt><trkpt lat="33.45831" lon="9.02673"><ele>70.0</ele><time>2026-04-04T22:10:55.286Z</time></trkpt><trkpt lat="33.45824" lon="9.0266683"><ele>70.0</ele><time>2026-04-04T22:10:56.286Z</time></trkpt><trkpt lat="33.458175" lon="9.0266133"><ele>70.0</ele><time>2026-04-04T22:10:57.283Z</time></trkpt><trkpt lat="33.4581167" lon="9.026565"><ele>70.28571428571429</ele><time>2026-04-04T22:10:58.285Z</time></trkpt><trkpt lat="33.4580633" lon="9.0265183"><ele>70.57142857142857</ele><time>2026-04-04T22:10:59.285Z</time></trkpt><trkpt lat="33.4580117" lon="9.0264733"><ele>70.85714285714286</ele><time>2026-04-04T22:11:00.285Z</time></trkpt><trkpt lat="33.4579567" lon="9.026425"><ele>71.14285714285714</ele><time>2026-04-04T22:11:01.284Z</time></trkpt><trkpt lat="33.4578933" lon="9.0263717"><ele>71.42857142857143</ele><time>2026-04-04T22:11:02.285Z</time></trkpt><trkpt lat="33.4578283" lon="9.0263183"><ele>71.71428571428572</ele><time>2026-04-04T22:11:03.283Z</time></trkpt><trkpt lat="33.4577683" lon="9.0262667"><ele>72.0</ele><time>2026-04-04T22:11:04.283Z</time></trkpt><trkpt lat="33.45771" lon="9.02622"><ele>72.0</ele><time>2026-04-04T22:11:05.284Z</time></trkpt><trkpt lat="33.4576483" lon="9.0261733"><ele>72.0</ele><time>2026-04-04T22:11:06.285Z</time></trkpt><trkpt lat="33.4574633" lon="9.025985"><ele>72.0</ele><time>2026-04-04T22:11:09.285Z</time></trkpt><trkpt lat="33.457415" lon="9.0259233"><ele>72.0</ele><time>2026-04-04T22:11:10.283Z</time></trkpt><trkpt lat="33.4573717" lon="9.025855"><ele>71.83333333333333</ele><time>2026-04-04T22:11:11.285Z</time></trkpt><trkpt lat="33.4573267" lon="9.0257817"><ele>71.66666666666667</ele><time>2026-04-04T22:11:12.286Z</time></trkpt><trkpt lat="33.457295" lon="9.025705"><ele>71.5</ele><time>2026-04-04T22:11:13.285Z</time></trkpt><trkpt lat="33.4572717" lon="9.0256283"><ele>71.33333333333334</ele><time>2026-04-04T22:11:14.287Z</time></trkpt><trkpt lat="33.4572433" lon="9.02549"><ele>71.16666666666667</ele><time>2026-04-04T22:11:16.285Z</time></trkpt><trkpt lat="33.4572217" lon="9.025375"><ele>71.0</ele><time>2026-04-04T22:11:18.285Z</time></trkpt><trkpt lat="33.4572017" lon="9.0252667"><ele>71.0</ele><time>2026-04-04T22:11:20.282Z</time></trkpt><trkpt lat="33.4571883" lon="9.0251483"><ele>71.0</ele><time>2026-04-04T22:11:22.285Z</time></trkpt><trkpt lat="33.4571733" lon="9.0250367"><ele>71.0</ele><time>2026-04-04T22:11:24.284Z</time></trkpt><trkpt lat="33.4571367" lon="9.0249233"><ele>71.0</ele><time>2026-04-04T22:11:26.284Z</time></trkpt><trkpt lat="33.4570917" lon="9.0248167"><ele>71.0</ele><time>2026-04-04T22:11:28.282Z</time></trkpt><trkpt lat="33.4570467" lon="9.024715"><ele>70.6</ele><time>2026-04-04T22:11:30.282Z</time></trkpt><trkpt lat="33.4570033" lon="9.0245983"><ele>70.19999999999999</ele><time>2026-04-04T22:11:32.284Z</time></trkpt><trkpt lat="33.456965" lon="9.024485"><ele>69.80000000000001</ele><time>2026-04-04T22:11:34.283Z</time></trkpt><trkpt lat="33.4569233" lon="9.0243533"><ele>69.4</ele><time>2026-04-04T22:11:36.282Z</time></trkpt><trkpt lat="33.456895" lon="9.02428"><ele>69.0</ele><time>2026-04-04T22:11:37.282Z</time></trkpt><trkpt lat="33.45686" lon="9.0242017"><ele>68.75</ele><time>2026-04-04T22:11:38.281Z</time></trkpt><trkpt lat="33.4568167" lon="9.0241217"><ele>68.5</ele><time>2026-04-04T22:11:39.283Z</time></trkpt><trkpt lat="33.4566667" lon="9.0238983"><ele>68.25</ele><time>2026-04-04T22:11:42.284Z</time></trkpt><trkpt lat="33.4566183" lon="9.0238383"><ele>68.0</ele><time>2026-04-04T22:11:43.283Z</time></trkpt><trkpt lat="33.45652" lon="9.0237433"><ele>68.0</ele><time>2026-04-04T22:11:45.283Z</time></trkpt><trkpt lat="33.45646" lon="9.0236983"><ele>68.0</ele><time>2026-04-04T22:11:46.284Z</time></trkpt><trkpt lat="33.45639" lon="9.023655"><ele>68.0</ele><time>2026-04-04T22:11:47.284Z</time></trkpt><trkpt lat="33.4563133" lon="9.02361"><ele>68.0</ele><time>2026-04-04T22:11:48.285Z</time></trkpt><trkpt lat="33.456235" lon="9.02357"><ele>68.0</ele><time>2026-04-04T22:11:49.286Z</time></trkpt><trkpt lat="33.4561583" lon="9.0235433"><ele>68.0</ele><time>2026-04-04T22:11:50.285Z</time></trkpt><trkpt lat="33.4560867" lon="9.0235183"><ele>68.33333333333334</ele><time>2026-04-04T22:11:51.282Z</time></trkpt><trkpt lat="33.456015" lon="9.0235017"><ele>68.66666666666667</ele><time>2026-04-04T22:11:52.282Z</time></trkpt><trkpt lat="33.4559417" lon="9.023475"><ele>69.0</ele><time>2026-04-04T22:11:53.285Z</time></trkpt><trkpt lat="33.45587" lon="9.0234533"><ele>69.33333333333333</ele><time>2026-04-04T22:11:54.283Z</time></trkpt><trkpt lat="33.4558067" lon="9.0234333"><ele>69.66666666666666</ele><time>2026-04-04T22:11:55.282Z</time></trkpt><trkpt lat="33.45569" lon="9.0233967"><ele>70.0</ele><time>2026-04-04T22:11:57.284Z</time></trkpt><trkpt lat="33.4556267" lon="9.0233733"><ele>70.0</ele><time>2026-04-04T22:11:58.282Z</time></trkpt><trkpt lat="33.4555633" lon="9.023345"><ele>70.0</ele><time>2026-04-04T22:11:59.285Z</time></trkpt><trkpt lat="33.455495" lon="9.0233217"><ele>70.0</ele><time>2026-04-04T22:12:00.282Z</time></trkpt><trkpt lat="33.45543" lon="9.0232983"><ele>70.0</ele><time>2026-04-04T22:12:01.282Z</time></trkpt><trkpt lat="33.4553683" lon="9.0232783"><ele>70.0</ele><time>2026-04-04T22:12:02.282Z</time></trkpt><trkpt lat="33.4552583" lon="9.0232367"><ele>70.0</ele><time>2026-04-04T22:12:04.281Z</time></trkpt><trkpt lat="33.4551583" lon="9.02319"><ele>70.25</ele><time>2026-04-04T22:12:06.283Z</time></trkpt><trkpt lat="33.4550483" lon="9.023135"><ele>70.5</ele><time>2026-04-04T22:12:08.281Z</time></trkpt><trkpt lat="33.454935" lon="9.0230767"><ele>70.75</ele><time>2026-04-04T22:12:10.282Z</time></trkpt><trkpt lat="33.4548283" lon="9.0230133"><ele>71.0</ele><time>2026-04-04T22:12:12.282Z</time></trkpt><trkpt lat="33.4547367" lon="9.0229583"><ele>71.0</ele><time>2026-04-04T22:12:14.281Z</time></trkpt><trkpt lat="33.4546467" lon="9.022905"><ele>71.0</ele><time>2026-04-04T22:12:16.285Z</time></trkpt><trkpt lat="33.45456" lon="9.022845"><ele>71.0</ele><time>2026-04-04T22:12:18.285Z</time></trkpt><trkpt lat="33.45445" lon="9.0227783"><ele>71.0</ele><time>2026-04-04T22:12:20.286Z</time></trkpt><trkpt lat="33.4543833" lon="9.0227367"><ele>71.0</ele><time>2026-04-04T22:12:21.284Z</time></trkpt><trkpt lat="33.4543133" lon="9.0226867"><ele>71.0</ele><time>2026-04-04T22:12:22.283Z</time></trkpt><trkpt lat="33.4542467" lon="9.0226333"><ele>71.0</ele><time>2026-04-04T22:12:23.286Z</time></trkpt><trkpt lat="33.45418" lon="9.0225817"><ele>71.0</ele><time>2026-04-04T22:12:24.286Z</time></trkpt><trkpt lat="33.4541267" lon="9.0225267"><ele>71.0</ele><time>2026-04-04T22:12:25.285Z</time></trkpt><trkpt lat="33.4540733" lon="9.022485"><ele>71.0</ele><time>2026-04-04T22:12:26.285Z</time></trkpt><trkpt lat="33.4540033" lon="9.0223967"><ele>71.0</ele><time>2026-04-04T22:12:28.283Z</time></trkpt><trkpt lat="33.4539383" lon="9.022305"><ele>71.0</ele><time>2026-04-04T22:12:30.283Z</time></trkpt><trkpt lat="33.4538567" lon="9.0221967"><ele>71.0</ele><time>2026-04-04T22:12:32.285Z</time></trkpt><trkpt lat="33.453815" lon="9.022135"><ele>71.0</ele><time>2026-04-04T22:12:33.285Z</time></trkpt><trkpt lat="33.45377" lon="9.0220683"><ele>71.0</ele><time>2026-04-04T22:12:34.285Z</time></trkpt><trkpt lat="33.4537283" lon="9.0219967"><ele>71.0</ele><time>2026-04-04T22:12:35.281Z</time></trkpt><trkpt lat="33.4536867" lon="9.0219317"><ele>71.0</ele><time>2026-04-04T22:12:36.287Z</time></trkpt><trkpt lat="33.4536117" lon="9.0218233"><ele>71.25</ele><time>2026-04-04T22:12:38.285Z</time></trkpt><trkpt lat="33.453535" lon="9.0217067"><ele>71.5</ele><time>2026-04-04T22:12:40.285Z</time></trkpt><trkpt lat="33.4534733" lon="9.02162"><ele>71.75</ele><time>2026-04-04T22:12:42.286Z</time></trkpt><trkpt lat="33.4534167" lon="9.021545"><ele>72.0</ele><time>2026-04-04T22:12:44.283Z</time></trkpt><trkpt lat="33.4532817" lon="9.0213233"><ele>72.00000000000001</ele><time>2026-04-04T22:12:48.283Z</time></trkpt><trkpt lat="33.4532383" lon="9.021245"><ele>72.0</ele><time>2026-04-04T22:12:49.283Z</time></trkpt><trkpt lat="33.4531983" lon="9.0211683"><ele>72.0</ele><time>2026-04-04T22:12:50.281Z</time></trkpt><trkpt lat="33.4531633" lon="9.0211017"><ele>72.0</ele><time>2026-04-04T22:12:51.282Z</time></trkpt><trkpt lat="33.45313" lon="9.0210367"><ele>72.0</ele><time>2026-04-04T22:12:52.282Z</time></trkpt><trkpt lat="33.4530983" lon="9.0209683"><ele>72.00000000000001</ele><time>2026-04-04T22:12:53.282Z</time></trkpt><trkpt lat="33.4530667" lon="9.0209"><ele>72.0</ele><time>2026-04-04T22:12:54.282Z</time></trkpt><trkpt lat="33.4530083" lon="9.02077"><ele>72.00000000000001</ele><time>2026-04-04T22:12:56.281Z</time></trkpt><trkpt lat="33.4529767" lon="9.020695"><ele>72.0</ele><time>2026-04-04T22:12:57.283Z</time></trkpt><trkpt lat="33.45294" lon="9.0206133"><ele>72.0</ele><time>2026-04-04T22:12:58.282Z</time></trkpt><trkpt lat="33.45291" lon="9.0205367"><ele>72.0</ele><time>2026-04-04T22:12:59.283Z</time></trkpt><trkpt lat="33.4528817" lon="9.020465"><ele>72.0</ele><time>2026-04-04T22:13:00.283Z</time></trkpt><trkpt lat="33.45285" lon="9.0203867"><ele>72.00000000000001</ele><time>2026-04-04T22:13:01.282Z</time></trkpt><trkpt lat="33.4528217" lon="9.0203133"><ele>72.0</ele><time>2026-04-04T22:13:02.281Z</time></trkpt><trkpt lat="33.4527967" lon="9.0202417"><ele>72.00000000000001</ele><time>2026-04-04T22:13:03.285Z</time></trkpt><trkpt lat="33.452775" lon="9.02017"><ele>72.0</ele><time>2026-04-04T22:13:04.282Z</time></trkpt><trkpt lat="33.452755" lon="9.02009"><ele>72.0</ele><time>2026-04-04T22:13:05.284Z</time></trkpt><trkpt lat="33.4527283" lon="9.020005"><ele>72.0</ele><time>2026-04-04T22:13:06.283Z</time></trkpt><trkpt lat="33.4527033" lon="9.0199217"><ele>72.0</ele><time>2026-04-04T22:13:07.282Z</time></trkpt><trkpt lat="33.4526783" lon="9.0198433"><ele>72.00000000000001</ele><time>2026-04-04T22:13:08.283Z</time></trkpt><trkpt lat="33.4526533" lon="9.0197683"><ele>72.0</ele><time>2026-04-04T22:13:09.283Z</time></trkpt><trkpt lat="33.4526283" lon="9.019695"><ele>72.0</ele><time>2026-04-04T22:13:10.283Z</time></trkpt><trkpt lat="33.4526067" lon="9.0196233"><ele>72.0</ele><time>2026-04-04T22:13:11.284Z</time></trkpt><trkpt lat="33.4525683" lon="9.0194867"><ele>72.0</ele><time>2026-04-04T22:13:13.282Z</time></trkpt><trkpt lat="33.452535" lon="9.0193583"><ele>72.0</ele><time>2026-04-04T22:13:15.284Z</time></trkpt><trkpt lat="33.45251" lon="9.0192367"><ele>72.0</ele><time>2026-04-04T22:13:17.287Z</time></trkpt><trkpt lat="33.4524717" lon="9.0190317"><ele>71.5</ele><time>2026-04-04T22:13:20.285Z</time></trkpt><trkpt lat="33.45246" lon="9.0189517"><ele>71.0</ele><time>2026-04-04T22:13:21.285Z</time></trkpt><trkpt lat="33.4524467" lon="9.018865"><ele>70.5</ele><time>2026-04-04T22:13:22.284Z</time></trkpt><trkpt lat="33.452435" lon="9.01878"><ele>70.0</ele><time>2026-04-04T22:13:23.286Z</time></trkpt><trkpt lat="33.4524217" lon="9.0187"><ele>69.5</ele><time>2026-04-04T22:13:24.283Z</time></trkpt><trkpt lat="33.4524067" lon="9.0185467"><ele>69.0</ele><time>2026-04-04T22:13:26.285Z</time></trkpt><trkpt lat="33.4523983" lon="9.0184533"><ele>69.0</ele><time>2026-04-04T22:13:27.285Z</time></trkpt><trkpt lat="33.45239" lon="9.01835"><ele>69.0</ele><time>2026-04-04T22:13:28.285Z</time></trkpt><trkpt lat="33.4523817" lon="9.0182483"><ele>69.0</ele><time>2026-04-04T22:13:29.288Z</time></trkpt><trkpt lat="33.452375" lon="9.018155"><ele>69.0</ele><time>2026-04-04T22:13:30.285Z</time></trkpt><trkpt lat="33.45237" lon="9.0180633"><ele>69.0</ele><time>2026-04-04T22:13:31.285Z</time></trkpt><trkpt lat="33.4523617" lon="9.0179683"><ele>69.0</ele><time>2026-04-04T22:13:32.285Z</time></trkpt><trkpt lat="33.4523533" lon="9.0178767"><ele>68.5</ele><time>2026-04-04T22:13:33.285Z</time></trkpt><trkpt lat="33.4523467" lon="9.017785"><ele>68.0</ele><time>2026-04-04T22:13:34.282Z</time></trkpt><trkpt lat="33.45234" lon="9.0176917"><ele>67.5</ele><time>2026-04-04T22:13:35.282Z</time></trkpt><trkpt lat="33.45233" lon="9.017595"><ele>67.0</ele><time>2026-04-04T22:13:36.282Z</time></trkpt><trkpt lat="33.4523217" lon="9.0175017"><ele>66.5</ele><time>2026-04-04T22:13:37.283Z</time></trkpt><trkpt lat="33.4523117" lon="9.0174083"><ele>66.0</ele><time>2026-04-04T22:13:38.282Z</time></trkpt><trkpt lat="33.4523" lon="9.0173167"><ele>65.33333333333333</ele><time>2026-04-04T22:13:39.284Z</time></trkpt><trkpt lat="33.4522867" lon="9.017225"><ele>64.66666666666667</ele><time>2026-04-04T22:13:40.282Z</time></trkpt><trkpt lat="33.4522767" lon="9.0171267"><ele>64.0</ele><time>2026-04-04T22:13:41.283Z</time></trkpt><trkpt lat="33.4522617" lon="9.017025"><ele>63.333333333333336</ele><time>2026-04-04T22:13:42.282Z</time></trkpt><trkpt lat="33.4522467" lon="9.01692"><ele>62.66666666666667</ele><time>2026-04-04T22:13:43.282Z</time></trkpt><trkpt lat="33.45223" lon="9.0168183"><ele>62.0</ele><time>2026-04-04T22:13:44.282Z</time></trkpt><trkpt lat="33.45222" lon="9.0167283"><ele>61.8</ele><time>2026-04-04T22:13:45.283Z</time></trkpt><trkpt lat="33.4521967" lon="9.0165817"><ele>61.6</ele><time>2026-04-04T22:13:47.285Z</time></trkpt><trkpt lat="33.4521833" lon="9.0164533"><ele>61.39999999999999</ele><time>2026-04-04T22:13:49.286Z</time></trkpt><trkpt lat="33.4521733" lon="9.0163583"><ele>61.199999999999996</ele><time>2026-04-04T22:13:51.285Z</time></trkpt><trkpt lat="33.4521583" lon="9.01628"><ele>61.0</ele><time>2026-04-04T22:13:54.285Z</time></trkpt><trkpt lat="33.4521467" lon="9.0161933"><ele>60.599999999999994</ele><time>2026-04-04T22:14:00.286Z</time></trkpt><trkpt lat="33.4521183" lon="9.0160967"><ele>60.199999999999996</ele><time>2026-04-04T22:14:05.285Z</time></trkpt><trkpt lat="33.4520433" lon="9.016075"><ele>59.800000000000004</ele><time>2026-04-04T22:14:07.283Z</time></trkpt><trkpt lat="33.45192" lon="9.0160867"><ele>59.400000000000006</ele><time>2026-04-04T22:14:09.283Z</time></trkpt><trkpt lat="33.4518417" lon="9.0161033"><ele>59.0</ele><time>2026-04-04T22:14:10.284Z</time></trkpt><trkpt lat="33.4517583" lon="9.016125"><ele>59.0</ele><time>2026-04-04T22:14:11.285Z</time></trkpt><trkpt lat="33.4516683" lon="9.0161433"><ele>59.00000000000001</ele><time>2026-04-04T22:14:12.285Z</time></trkpt><trkpt lat="33.4515783" lon="9.0161617"><ele>59.00000000000001</ele><time>2026-04-04T22:14:13.283Z</time></trkpt><trkpt lat="33.451485" lon="9.0161733"><ele>59.0</ele><time>2026-04-04T22:14:14.281Z</time></trkpt><trkpt lat="33.4513917" lon="9.01619"><ele>59.0</ele><time>2026-04-04T22:14:15.285Z</time></trkpt><trkpt lat="33.4512967" lon="9.0162083"><ele>58.800000000000004</ele><time>2026-04-04T22:14:16.284Z</time></trkpt><trkpt lat="33.4512017" lon="9.0162283"><ele>58.60000000000001</ele><time>2026-04-04T22:14:17.285Z</time></trkpt><trkpt lat="33.4511067" lon="9.0162483"><ele>58.4</ele><time>2026-04-04T22:14:18.284Z</time></trkpt><trkpt lat="33.45101" lon="9.0162683"><ele>58.2</ele><time>2026-04-04T22:14:19.283Z</time></trkpt><trkpt lat="33.45091" lon="9.0162917"><ele>58.0</ele><time>2026-04-04T22:14:20.285Z</time></trkpt><trkpt lat="33.4508033" lon="9.0163117"><ele>58.0</ele><time>2026-04-04T22:14:21.285Z</time></trkpt><trkpt lat="33.4507" lon="9.0163333"><ele>58.0</ele><time>2026-04-04T22:14:22.281Z</time></trkpt><trkpt lat="33.4506" lon="9.0163517"><ele>58.0</ele><time>2026-04-04T22:14:23.284Z</time></trkpt><trkpt lat="33.4505033" lon="9.0163667"><ele>58.0</ele><time>2026-04-04T22:14:24.284Z</time></trkpt><trkpt lat="33.4503083" lon="9.0163967"><ele>58.0</ele><time>2026-04-04T22:14:26.282Z</time></trkpt><trkpt lat="33.450205" lon="9.0164133"><ele>58.0</ele><time>2026-04-04T22:14:27.284Z</time></trkpt><trkpt lat="33.4500967" lon="9.0164317"><ele>58.0</ele><time>2026-04-04T22:14:28.282Z</time></trkpt><trkpt lat="33.4499833" lon="9.016445"><ele>58.0</ele><time>2026-04-04T22:14:29.285Z</time></trkpt><trkpt lat="33.449865" lon="9.0164533"><ele>58.0</ele><time>2026-04-04T22:14:30.284Z</time></trkpt><trkpt lat="33.449745" lon="9.01646"><ele>58.0</ele><time>2026-04-04T22:14:31.286Z</time></trkpt><trkpt lat="33.4496233" lon="9.0164683"><ele>58.0</ele><time>2026-04-04T22:14:32.282Z</time></trkpt><trkpt lat="33.4495017" lon="9.0164733"><ele>58.0</ele><time>2026-04-04T22:14:33.285Z</time></trkpt><trkpt lat="33.4493783" lon="9.0164767"><ele>58.0</ele><time>2026-04-04T22:14:34.282Z</time></trkpt><trkpt lat="33.4492567" lon="9.01648"><ele>58.0</ele><time>2026-04-04T22:14:35.283Z</time></trkpt><trkpt lat="33.4491367" lon="9.0164867"><ele>58.0</ele><time>2026-04-04T22:14:36.282Z</time></trkpt><trkpt lat="33.4490133" lon="9.016495"><ele>58.0</ele><time>2026-04-04T22:14:37.282Z</time></trkpt><trkpt lat="33.4488883" lon="9.016505"><ele>58.0</ele><time>2026-04-04T22:14:38.281Z</time></trkpt><trkpt lat="33.4487667" lon="9.0165167"><ele>57.75</ele><time>2026-04-04T22:14:39.283Z</time></trkpt><trkpt lat="33.4486467" lon="9.0165283"><ele>57.5</ele><time>2026-04-04T22:14:40.282Z</time></trkpt><trkpt lat="33.4485283" lon="9.01654"><ele>57.25</ele><time>2026-04-04T22:14:41.282Z</time></trkpt><trkpt lat="33.4484067" lon="9.01655"><ele>57.0</ele><time>2026-04-04T22:14:42.283Z</time></trkpt><trkpt lat="33.4482817" lon="9.0165617"><ele>57.0</ele><time>2026-04-04T22:14:43.283Z</time></trkpt><trkpt lat="33.4481533" lon="9.01657"><ele>57.0</ele><time>2026-04-04T22:14:44.282Z</time></trkpt><trkpt lat="33.4480233" lon="9.0165833"><ele>57.0</ele><time>2026-04-04T22:14:45.284Z</time></trkpt><trkpt lat="33.4478917" lon="9.0165983"><ele>57.0</ele><time>2026-04-04T22:14:46.282Z</time></trkpt><trkpt lat="33.4477567" lon="9.01661"><ele>57.0</ele><time>2026-04-04T22:14:47.284Z</time></trkpt><trkpt lat="33.44762" lon="9.0166167"><ele>57.0</ele><time>2026-04-04T22:14:48.284Z</time></trkpt><trkpt lat="33.44748" lon="9.0166167"><ele>57.0</ele><time>2026-04-04T22:14:49.284Z</time></trkpt><trkpt lat="33.44734" lon="9.0166183"><ele>57.0</ele><time>2026-04-04T22:14:50.284Z</time></trkpt><trkpt lat="33.447195" lon="9.016615"><ele>56.75</ele><time>2026-04-04T22:14:51.285Z</time></trkpt><trkpt lat="33.4470467" lon="9.016615"><ele>56.5</ele><time>2026-04-04T22:14:52.284Z</time></trkpt><trkpt lat="33.4469033" lon="9.01661"><ele>56.25</ele><time>2026-04-04T22:14:53.284Z</time></trkpt><trkpt lat="33.4467617" lon="9.0166017"><ele>56.0</ele><time>2026-04-04T22:14:54.284Z</time></trkpt><trkpt lat="33.4466167" lon="9.0165933"><ele>56.0</ele><time>2026-04-04T22:14:55.286Z</time></trkpt><trkpt lat="33.44647" lon="9.0165867"><ele>56.0</ele><time>2026-04-04T22:14:56.281Z</time></trkpt><trkpt lat="33.4463283" lon="9.0165783"><ele>56.0</ele><time>2026-04-04T22:14:57.282Z</time></trkpt><trkpt lat="33.4460633" lon="9.0165633"><ele>55.75</ele><time>2026-04-04T22:14:59.281Z</time></trkpt><trkpt lat="33.4459333" lon="9.0165533"><ele>55.5</ele><time>2026-04-04T22:15:00.282Z</time></trkpt><trkpt lat="33.4458" lon="9.0165433"><ele>55.25</ele><time>2026-04-04T22:15:01.281Z</time></trkpt><trkpt lat="33.4456633" lon="9.0165267"><ele>55.0</ele><time>2026-04-04T22:15:02.281Z</time></trkpt><trkpt lat="33.4455267" lon="9.016505"><ele>54.75</ele><time>2026-04-04T22:15:03.282Z</time></trkpt><trkpt lat="33.445385" lon="9.0164717"><ele>54.5</ele><time>2026-04-04T22:15:04.282Z</time></trkpt><trkpt lat="33.4452417" lon="9.0164283"><ele>54.25</ele><time>2026-04-04T22:15:05.281Z</time></trkpt><trkpt lat="33.445095" lon="9.0163817"><ele>54.0</ele><time>2026-04-04T22:15:06.282Z</time></trkpt><trkpt lat="33.4449467" lon="9.01633"><ele>54.0</ele><time>2026-04-04T22:15:07.281Z</time></trkpt><trkpt lat="33.4447933" lon="9.0162733"><ele>54.0</ele><time>2026-04-04T22:15:08.281Z</time></trkpt><trkpt lat="33.4446383" lon="9.016215"><ele>54.0</ele><time>2026-04-04T22:15:09.282Z</time></trkpt><trkpt lat="33.44448" lon="9.01616"><ele>54.33333333333333</ele><time>2026-04-04T22:15:10.282Z</time></trkpt><trkpt lat="33.444325" lon="9.0161067"><ele>54.666666666666664</ele><time>2026-04-04T22:15:11.282Z</time></trkpt><trkpt lat="33.4441733" lon="9.0160567"><ele>55.0</ele><time>2026-04-04T22:15:12.282Z</time></trkpt><trkpt lat="33.44402" lon="9.0160033"><ele>55.0</ele><time>2026-04-04T22:15:13.282Z</time></trkpt><trkpt lat="33.4438633" lon="9.015955"><ele>55.0</ele><time>2026-04-04T22:15:14.281Z</time></trkpt><trkpt lat="33.4437067" lon="9.0159067"><ele>55.0</ele><time>2026-04-04T22:15:15.282Z</time></trkpt><trkpt lat="33.44355" lon="9.01586"><ele>54.666666666666664</ele><time>2026-04-04T22:15:16.281Z</time></trkpt><trkpt lat="33.4434" lon="9.0158183"><ele>54.33333333333333</ele><time>2026-04-04T22:15:17.285Z</time></trkpt><trkpt lat="33.4432533" lon="9.0157833"><ele>54.0</ele><time>2026-04-04T22:15:18.284Z</time></trkpt><trkpt lat="33.443105" lon="9.0157483"><ele>54.33333333333333</ele><time>2026-04-04T22:15:19.285Z</time></trkpt><trkpt lat="33.4429533" lon="9.0157133"><ele>54.666666666666664</ele><time>2026-04-04T22:15:20.284Z</time></trkpt><trkpt lat="33.4428017" lon="9.0156783"><ele>55.0</ele><time>2026-04-04T22:15:21.285Z</time></trkpt><trkpt lat="33.4426467" lon="9.0156467"><ele>55.0</ele><time>2026-04-04T22:15:22.286Z</time></trkpt><trkpt lat="33.4424933" lon="9.0156133"><ele>55.0</ele><time>2026-04-04T22:15:23.285Z</time></trkpt><trkpt lat="33.4423417" lon="9.0155783"><ele>55.0</ele><time>2026-04-04T22:15:24.285Z</time></trkpt><trkpt lat="33.442195" lon="9.01554"><ele>55.5</ele><time>2026-04-04T22:15:25.285Z</time></trkpt><trkpt lat="33.4420517" lon="9.0155083"><ele>56.0</ele><time>2026-04-04T22:15:26.284Z</time></trkpt><trkpt lat="33.441915" lon="9.0154717"><ele>56.5</ele><time>2026-04-04T22:15:27.283Z</time></trkpt><trkpt lat="33.4417867" lon="9.0154383"><ele>57.0</ele><time>2026-04-04T22:15:28.284Z</time></trkpt><trkpt lat="33.4416583" lon="9.0154033"><ele>57.0</ele><time>2026-04-04T22:15:29.283Z</time></trkpt><trkpt lat="33.4415333" lon="9.0153717"><ele>57.0</ele><time>2026-04-04T22:15:30.284Z</time></trkpt><trkpt lat="33.4412917" lon="9.01532"><ele>57.0</ele><time>2026-04-04T22:15:32.282Z</time></trkpt><trkpt lat="33.4411783" lon="9.015305"><ele>57.25</ele><time>2026-04-04T22:15:33.282Z</time></trkpt><trkpt lat="33.4410617" lon="9.0152917"><ele>57.5</ele><time>2026-04-04T22:15:34.283Z</time></trkpt><trkpt lat="33.4409433" lon="9.0152783"><ele>57.75</ele><time>2026-04-04T22:15:35.282Z</time></trkpt><trkpt lat="33.4408233" lon="9.0152667"><ele>58.0</ele><time>2026-04-04T22:15:36.283Z</time></trkpt><trkpt lat="33.4406983" lon="9.0152567"><ele>58.0</ele><time>2026-04-04T22:15:37.282Z</time></trkpt><trkpt lat="33.440575" lon="9.0152483"><ele>58.0</ele><time>2026-04-04T22:15:38.282Z</time></trkpt><trkpt lat="33.4404567" lon="9.01524"><ele>58.0</ele><time>2026-04-04T22:15:39.282Z</time></trkpt><trkpt lat="33.4403467" lon="9.015235"><ele>58.0</ele><time>2026-04-04T22:15:40.283Z</time></trkpt><trkpt lat="33.44024" lon="9.015225"><ele>57.666666666666664</ele><time>2026-04-04T22:15:41.282Z</time></trkpt><trkpt lat="33.4401417" lon="9.0152183"><ele>57.33333333333333</ele><time>2026-04-04T22:15:42.283Z</time></trkpt><trkpt lat="33.440055" lon="9.0152117"><ele>57.0</ele><time>2026-04-04T22:15:43.283Z</time></trkpt><trkpt lat="33.4399783" lon="9.0152067"><ele>56.66666666666667</ele><time>2026-04-04T22:15:44.283Z</time></trkpt><trkpt lat="33.4399117" lon="9.0151983"><ele>56.333333333333336</ele><time>2026-04-04T22:15:45.282Z</time></trkpt><trkpt lat="33.4398083" lon="9.0151867"><ele>56.0</ele><time>2026-04-04T22:15:47.286Z</time></trkpt><trkpt lat="33.4397183" lon="9.0151983"><ele>56.0</ele><time>2026-04-04T22:15:49.285Z</time></trkpt><trkpt lat="33.43965" lon="9.0152633"><ele>55.99999999999999</ele><time>2026-04-04T22:15:51.285Z</time></trkpt><trkpt lat="33.4395933" lon="9.01534"><ele>55.99999999999999</ele><time>2026-04-04T22:15:53.282Z</time></trkpt><trkpt lat="33.4395017" lon="9.0154367"><ele>56.0</ele><time>2026-04-04T22:15:55.282Z</time></trkpt><trkpt lat="33.4394383" lon="9.015485"><ele>56.0</ele><time>2026-04-04T22:15:56.282Z</time></trkpt><trkpt lat="33.439365" lon="9.0155267"><ele>55.833333333333336</ele><time>2026-04-04T22:15:57.283Z</time></trkpt><trkpt lat="33.4392883" lon="9.0155683"><ele>55.66666666666667</ele><time>2026-04-04T22:15:58.284Z</time></trkpt><trkpt lat="33.4392067" lon="9.01561"><ele>55.5</ele><time>2026-04-04T22:15:59.283Z</time></trkpt><trkpt lat="33.43912" lon="9.0156533"><ele>55.33333333333333</ele><time>2026-04-04T22:16:00.284Z</time></trkpt><trkpt lat="33.4390367" lon="9.0157"><ele>55.166666666666664</ele><time>2026-04-04T22:16:01.282Z</time></trkpt><trkpt lat="33.4389617" lon="9.0157433"><ele>55.0</ele><time>2026-04-04T22:16:02.285Z</time></trkpt><trkpt lat="33.43889" lon="9.0157817"><ele>54.75</ele><time>2026-04-04T22:16:03.285Z</time></trkpt><trkpt lat="33.4386917" lon="9.015895"><ele>54.5</ele><time>2026-04-04T22:16:06.284Z</time></trkpt><trkpt lat="33.4386233" lon="9.0159267"><ele>54.25</ele><time>2026-04-04T22:16:07.282Z</time></trkpt><trkpt lat="33.43855" lon="9.015965"><ele>54.0</ele><time>2026-04-04T22:16:08.282Z</time></trkpt><trkpt lat="33.438475" lon="9.016005"><ele>54.0</ele><time>2026-04-04T22:16:09.282Z</time></trkpt><trkpt lat="33.4383933" lon="9.0160483"><ele>54.00000000000001</ele><time>2026-04-04T22:16:10.286Z</time></trkpt><trkpt lat="33.43831" lon="9.0160933"><ele>54.00000000000001</ele><time>2026-04-04T22:16:11.284Z</time></trkpt><trkpt lat="33.43822" lon="9.0161433"><ele>54.0</ele><time>2026-04-04T22:16:12.283Z</time></trkpt><trkpt lat="33.4381267" lon="9.0161917"><ele>54.0</ele><time>2026-04-04T22:16:13.286Z</time></trkpt><trkpt lat="33.43803" lon="9.0162383"><ele>54.400000000000006</ele><time>2026-04-04T22:16:14.285Z</time></trkpt><trkpt lat="33.4379367" lon="9.016285"><ele>54.800000000000004</ele><time>2026-04-04T22:16:15.285Z</time></trkpt><trkpt lat="33.4378433" lon="9.016335"><ele>55.199999999999996</ele><time>2026-04-04T22:16:16.283Z</time></trkpt><trkpt lat="33.43775" lon="9.0163883"><ele>55.599999999999994</ele><time>2026-04-04T22:16:17.285Z</time></trkpt><trkpt lat="33.4376583" lon="9.0164383"><ele>56.0</ele><time>2026-04-04T22:16:18.285Z</time></trkpt><trkpt lat="33.4375733" lon="9.0164833"><ele>56.0</ele><time>2026-04-04T22:16:19.285Z</time></trkpt><trkpt lat="33.4374933" lon="9.016525"><ele>55.99999999999999</ele><time>2026-04-04T22:16:20.285Z</time></trkpt><trkpt lat="33.4374083" lon="9.0165683"><ele>55.99999999999999</ele><time>2026-04-04T22:16:21.286Z</time></trkpt><trkpt lat="33.4373217" lon="9.0166133"><ele>56.0</ele><time>2026-04-04T22:16:22.286Z</time></trkpt><trkpt lat="33.437235" lon="9.0166617"><ele>56.0</ele><time>2026-04-04T22:16:23.282Z</time></trkpt><trkpt lat="33.4371483" lon="9.0167083"><ele>56.599999999999994</ele><time>2026-04-04T22:16:24.286Z</time></trkpt><trkpt lat="33.437065" lon="9.0167533"><ele>57.199999999999996</ele><time>2026-04-04T22:16:25.286Z</time></trkpt><trkpt lat="33.4369833" lon="9.0167983"><ele>57.800000000000004</ele><time>2026-04-04T22:16:26.284Z</time></trkpt><trkpt lat="33.436905" lon="9.01684"><ele>58.400000000000006</ele><time>2026-04-04T22:16:27.282Z</time></trkpt><trkpt lat="33.4368217" lon="9.0168867"><ele>59.0</ele><time>2026-04-04T22:16:28.284Z</time></trkpt><trkpt lat="33.4367333" lon="9.01693"><ele>59.0</ele><time>2026-04-04T22:16:29.283Z</time></trkpt><trkpt lat="33.4366433" lon="9.0169733"><ele>59.00000000000001</ele><time>2026-04-04T22:16:30.284Z</time></trkpt><trkpt lat="33.436555" lon="9.0170167"><ele>59.00000000000001</ele><time>2026-04-04T22:16:31.283Z</time></trkpt><trkpt lat="33.4364683" lon="9.01706"><ele>59.0</ele><time>2026-04-04T22:16:32.283Z</time></trkpt><trkpt lat="33.43638" lon="9.0171033"><ele>59.0</ele><time>2026-04-04T22:16:33.284Z</time></trkpt><trkpt lat="33.4362867" lon="9.01715"><ele>59.5</ele><time>2026-04-04T22:16:34.285Z</time></trkpt><trkpt lat="33.4361933" lon="9.0172"><ele>60.0</ele><time>2026-04-04T22:16:35.285Z</time></trkpt><trkpt lat="33.4361" lon="9.01725"><ele>60.5</ele><time>2026-04-04T22:16:36.283Z</time></trkpt><trkpt lat="33.4359117" lon="9.0173533"><ele>61.0</ele><time>2026-04-04T22:16:38.282Z</time></trkpt><trkpt lat="33.43582" lon="9.017405"><ele>60.99999999999999</ele><time>2026-04-04T22:16:39.285Z</time></trkpt><trkpt lat="33.4357333" lon="9.0174567"><ele>61.0</ele><time>2026-04-04T22:16:40.285Z</time></trkpt><trkpt lat="33.435655" lon="9.0175033"><ele>61.0</ele><time>2026-04-04T22:16:41.285Z</time></trkpt><trkpt lat="33.435585" lon="9.01754"><ele>61.0</ele><time>2026-04-04T22:16:42.285Z</time></trkpt><trkpt lat="33.43552" lon="9.0175733"><ele>60.99999999999999</ele><time>2026-04-04T22:16:43.287Z</time></trkpt><trkpt lat="33.4354583" lon="9.0176033"><ele>61.0</ele><time>2026-04-04T22:16:44.282Z</time></trkpt><trkpt lat="33.4354" lon="9.0176333"><ele>60.599999999999994</ele><time>2026-04-04T22:16:45.285Z</time></trkpt><trkpt lat="33.4352983" lon="9.0176883"><ele>60.199999999999996</ele><time>2026-04-04T22:16:47.285Z</time></trkpt><trkpt lat="33.4352117" lon="9.01773"><ele>59.800000000000004</ele><time>2026-04-04T22:16:49.285Z</time></trkpt><trkpt lat="33.4351167" lon="9.01777"><ele>59.400000000000006</ele><time>2026-04-04T22:16:51.285Z</time></trkpt><trkpt lat="33.4350333" lon="9.0177967"><ele>59.0</ele><time>2026-04-04T22:16:53.285Z</time></trkpt><trkpt lat="33.4349617" lon="9.0177817"><ele>59.00000000000001</ele><time>2026-04-04T22:16:55.285Z</time></trkpt><trkpt lat="33.434895" lon="9.01771"><ele>59.0</ele><time>2026-04-04T22:16:58.285Z</time></trkpt><trkpt lat="33.434855" lon="9.01762"><ele>59.0</ele><time>2026-04-04T22:17:42.284Z</time></trkpt><trkpt lat="33.434835" lon="9.01754"><ele>59.0</ele><time>2026-04-04T22:17:46.285Z</time></trkpt><trkpt lat="33.4347933" lon="9.01744"><ele>59.00000000000001</ele><time>2026-04-04T22:17:48.285Z</time></trkpt><trkpt lat="33.43476" lon="9.0173733"><ele>59.0</ele><time>2026-04-04T22:17:49.285Z</time></trkpt><trkpt lat="33.4347233" lon="9.0172967"><ele>59.50000000000001</ele><time>2026-04-04T22:17:50.284Z</time></trkpt><trkpt lat="33.43469" lon="9.0172167"><ele>60.0</ele><time>2026-04-04T22:17:51.284Z</time></trkpt><trkpt lat="33.4346517" lon="9.0171417"><ele>60.5</ele><time>2026-04-04T22:17:52.284Z</time></trkpt><trkpt lat="33.4346183" lon="9.0170717"><ele>61.0</ele><time>2026-04-04T22:17:53.284Z</time></trkpt><trkpt lat="33.4345783" lon="9.0170033"><ele>61.50000000000001</ele><time>2026-04-04T22:17:54.287Z</time></trkpt><trkpt lat="33.4345417" lon="9.0169367"><ele>62.0</ele><time>2026-04-04T22:17:55.284Z</time></trkpt><trkpt lat="33.4345" lon="9.0168267"><ele>62.50000000000001</ele><time>2026-04-04T22:17:57.282Z</time></trkpt><trkpt lat="33.434495" lon="9.01672"><ele>63.0</ele><time>2026-04-04T22:17:59.285Z</time></trkpt><trkpt lat="33.4345033" lon="9.0166133"><ele>63.5</ele><time>2026-04-04T22:18:01.286Z</time></trkpt><trkpt lat="33.4344883" lon="9.016535"><ele>64.0</ele><time>2026-04-04T22:18:03.284Z</time></trkpt><trkpt lat="33.4344283" lon="9.01648"><ele>64.5</ele><time>2026-04-04T22:18:05.286Z</time></trkpt><trkpt lat="33.4343467" lon="9.01647"><ele>65.0</ele><time>2026-04-04T22:18:07.282Z</time></trkpt><trkpt lat="33.4342833" lon="9.0165033"><ele>66.0</ele><time>2026-04-04T22:18:10.284Z</time></trkpt></trkseg></trk></gpx>